<?xml version="1.0" encoding="UTF-8" standalone="no" ?>
<gpx xmlns="http://www.topografix.com/GPX/1/1" xmlns:xsi="http://www.w3.org/2001/XMLSchema-instance" xsi:schemaLocation="http://www.topografix.com/GPX/1/1 http://www.topografix.com/GPX/1/1/gpx.xsd" version="1.1" creator="VisuGPX - https://www.visugpx.com">
  <metadata>
    <name>Enval par le dessus</name>
    <desc><![CDATA[Enval par le dessus]]></desc>
  </metadata>
  <trk>
    <name><![CDATA[26 juil. 2024 10:53:29]]></name>
    <desc><![CDATA[Enval par le dessus]]></desc>
    <trkseg>
      <trkpt lat="45.88409" lon="3.03761">
        <ele>615.7</ele>
        <time>2024-07-26T08:53:30Z</time>
      </trkpt>
      <trkpt lat="45.88409" lon="3.03763">
        <ele>617.6</ele>
        <time>2024-07-26T08:53:31Z</time>
      </trkpt>
      <trkpt lat="45.88408" lon="3.03764">
        <ele>618.9</ele>
        <time>2024-07-26T08:53:32Z</time>
      </trkpt>
      <trkpt lat="45.88409" lon="3.03762">
        <ele>616</ele>
        <time>2024-07-26T08:53:35Z</time>
      </trkpt>
      <trkpt lat="45.88409" lon="3.03761">
        <ele>614.4</ele>
        <time>2024-07-26T08:53:38Z</time>
      </trkpt>
      <trkpt lat="45.88408" lon="3.0376">
        <ele>613.4</ele>
        <time>2024-07-26T08:53:39Z</time>
      </trkpt>
      <trkpt lat="45.88409" lon="3.03761">
        <ele>614</ele>
        <time>2024-07-26T08:54:15Z</time>
      </trkpt>
      <trkpt lat="45.88411" lon="3.03761">
        <ele>613.1</ele>
        <time>2024-07-26T08:54:17Z</time>
      </trkpt>
      <trkpt lat="45.88413" lon="3.03762">
        <ele>614.1</ele>
        <time>2024-07-26T08:54:18Z</time>
      </trkpt>
      <trkpt lat="45.88413" lon="3.03758">
        <ele>609.1</ele>
        <time>2024-07-26T08:54:19Z</time>
      </trkpt>
      <trkpt lat="45.88415" lon="3.03759">
        <ele>609.1</ele>
        <time>2024-07-26T08:54:20Z</time>
      </trkpt>
      <trkpt lat="45.88415" lon="3.03758">
        <ele>607.6</ele>
        <time>2024-07-26T08:54:21Z</time>
      </trkpt>
      <trkpt lat="45.88417" lon="3.03758">
        <ele>607.5</ele>
        <time>2024-07-26T08:54:23Z</time>
      </trkpt>
      <trkpt lat="45.88419" lon="3.03759">
        <ele>607.2</ele>
        <time>2024-07-26T08:54:25Z</time>
      </trkpt>
      <trkpt lat="45.8842" lon="3.03759">
        <ele>606.6</ele>
        <time>2024-07-26T08:54:26Z</time>
      </trkpt>
      <trkpt lat="45.88421" lon="3.0376">
        <ele>606.7</ele>
        <time>2024-07-26T08:54:27Z</time>
      </trkpt>
      <trkpt lat="45.88422" lon="3.03761">
        <ele>608.8</ele>
        <time>2024-07-26T08:54:28Z</time>
      </trkpt>
      <trkpt lat="45.88422" lon="3.03762">
        <ele>610.2</ele>
        <time>2024-07-26T08:54:29Z</time>
      </trkpt>
      <trkpt lat="45.88423" lon="3.03763">
        <ele>610.2</ele>
        <time>2024-07-26T08:54:30Z</time>
      </trkpt>
      <trkpt lat="45.88424" lon="3.03764">
        <ele>610.2</ele>
        <time>2024-07-26T08:54:31Z</time>
      </trkpt>
      <trkpt lat="45.88425" lon="3.03764">
        <ele>607.4</ele>
        <time>2024-07-26T08:54:32Z</time>
      </trkpt>
      <trkpt lat="45.88426" lon="3.03765">
        <ele>604.7</ele>
        <time>2024-07-26T08:54:33Z</time>
      </trkpt>
      <trkpt lat="45.88427" lon="3.03765">
        <ele>603.8</ele>
        <time>2024-07-26T08:54:34Z</time>
      </trkpt>
      <trkpt lat="45.88428" lon="3.03765">
        <ele>602.9</ele>
        <time>2024-07-26T08:54:36Z</time>
      </trkpt>
      <trkpt lat="45.88429" lon="3.03764">
        <ele>602.7</ele>
        <time>2024-07-26T08:54:37Z</time>
      </trkpt>
      <trkpt lat="45.8843" lon="3.03764">
        <ele>602.6</ele>
        <time>2024-07-26T08:54:38Z</time>
      </trkpt>
      <trkpt lat="45.88432" lon="3.03764">
        <ele>602.1</ele>
        <time>2024-07-26T08:54:39Z</time>
      </trkpt>
      <trkpt lat="45.88433" lon="3.03764">
        <ele>601.7</ele>
        <time>2024-07-26T08:54:40Z</time>
      </trkpt>
      <trkpt lat="45.88434" lon="3.03763">
        <ele>601.7</ele>
        <time>2024-07-26T08:54:41Z</time>
      </trkpt>
      <trkpt lat="45.88435" lon="3.03763">
        <ele>601.5</ele>
        <time>2024-07-26T08:54:42Z</time>
      </trkpt>
      <trkpt lat="45.88436" lon="3.03762">
        <ele>600.9</ele>
        <time>2024-07-26T08:54:43Z</time>
      </trkpt>
      <trkpt lat="45.88437" lon="3.03761">
        <ele>600.5</ele>
        <time>2024-07-26T08:54:44Z</time>
      </trkpt>
      <trkpt lat="45.88437" lon="3.0376">
        <ele>600.2</ele>
        <time>2024-07-26T08:54:45Z</time>
      </trkpt>
      <trkpt lat="45.88438" lon="3.0376">
        <ele>599.8</ele>
        <time>2024-07-26T08:54:46Z</time>
      </trkpt>
      <trkpt lat="45.88439" lon="3.03759">
        <ele>599.5</ele>
        <time>2024-07-26T08:54:47Z</time>
      </trkpt>
      <trkpt lat="45.8844" lon="3.03758">
        <ele>600.1</ele>
        <time>2024-07-26T08:54:48Z</time>
      </trkpt>
      <trkpt lat="45.88441" lon="3.03757">
        <ele>599.9</ele>
        <time>2024-07-26T08:54:49Z</time>
      </trkpt>
      <trkpt lat="45.88442" lon="3.03756">
        <ele>600</ele>
        <time>2024-07-26T08:54:50Z</time>
      </trkpt>
      <trkpt lat="45.88442" lon="3.03755">
        <ele>600</ele>
        <time>2024-07-26T08:54:51Z</time>
      </trkpt>
      <trkpt lat="45.88443" lon="3.03755">
        <ele>599.5</ele>
        <time>2024-07-26T08:54:52Z</time>
      </trkpt>
      <trkpt lat="45.88445" lon="3.03754">
        <ele>599.7</ele>
        <time>2024-07-26T08:54:54Z</time>
      </trkpt>
      <trkpt lat="45.88446" lon="3.03755">
        <ele>598.4</ele>
        <time>2024-07-26T08:54:56Z</time>
      </trkpt>
      <trkpt lat="45.88445" lon="3.03755">
        <ele>598.7</ele>
        <time>2024-07-26T08:55:01Z</time>
      </trkpt>
      <trkpt lat="45.88444" lon="3.03755">
        <ele>598.5</ele>
        <time>2024-07-26T08:55:05Z</time>
      </trkpt>
      <trkpt lat="45.88443" lon="3.03755">
        <ele>597.8</ele>
        <time>2024-07-26T08:55:18Z</time>
      </trkpt>
      <trkpt lat="45.88442" lon="3.03755">
        <ele>596.9</ele>
        <time>2024-07-26T08:55:39Z</time>
      </trkpt>
      <trkpt lat="45.88442" lon="3.03753">
        <ele>595.9</ele>
        <time>2024-07-26T08:55:54Z</time>
      </trkpt>
      <trkpt lat="45.88441" lon="3.03755">
        <ele>595.7</ele>
        <time>2024-07-26T08:56:11Z</time>
      </trkpt>
      <trkpt lat="45.88441" lon="3.03756">
        <ele>595.5</ele>
        <time>2024-07-26T08:56:20Z</time>
      </trkpt>
      <trkpt lat="45.8844" lon="3.03757">
        <ele>595.4</ele>
        <time>2024-07-26T08:58:06Z</time>
      </trkpt>
      <trkpt lat="45.88441" lon="3.03757">
        <ele>595.2</ele>
        <time>2024-07-26T08:58:11Z</time>
      </trkpt>
      <trkpt lat="45.8844" lon="3.03757">
        <ele>595.9</ele>
        <time>2024-07-26T08:58:30Z</time>
      </trkpt>
      <trkpt lat="45.8844" lon="3.03755">
        <ele>593.8</ele>
        <time>2024-07-26T08:59:36Z</time>
      </trkpt>
      <trkpt lat="45.8844" lon="3.03753">
        <ele>592.9</ele>
        <time>2024-07-26T08:59:37Z</time>
      </trkpt>
      <trkpt lat="45.8844" lon="3.03752">
        <ele>592.9</ele>
        <time>2024-07-26T08:59:38Z</time>
      </trkpt>
      <trkpt lat="45.88439" lon="3.03751">
        <ele>593.4</ele>
        <time>2024-07-26T08:59:39Z</time>
      </trkpt>
      <trkpt lat="45.88439" lon="3.0375">
        <ele>594.8</ele>
        <time>2024-07-26T08:59:40Z</time>
      </trkpt>
      <trkpt lat="45.88438" lon="3.03748">
        <ele>595.1</ele>
        <time>2024-07-26T08:59:41Z</time>
      </trkpt>
      <trkpt lat="45.88438" lon="3.03746">
        <ele>595.7</ele>
        <time>2024-07-26T08:59:43Z</time>
      </trkpt>
      <trkpt lat="45.88439" lon="3.03744">
        <ele>595.5</ele>
        <time>2024-07-26T08:59:44Z</time>
      </trkpt>
      <trkpt lat="45.88439" lon="3.03743">
        <ele>595.5</ele>
        <time>2024-07-26T08:59:45Z</time>
      </trkpt>
      <trkpt lat="45.8844" lon="3.03742">
        <ele>595.6</ele>
        <time>2024-07-26T08:59:46Z</time>
      </trkpt>
      <trkpt lat="45.8844" lon="3.0374">
        <ele>595.7</ele>
        <time>2024-07-26T08:59:47Z</time>
      </trkpt>
      <trkpt lat="45.88441" lon="3.0374">
        <ele>595.7</ele>
        <time>2024-07-26T08:59:48Z</time>
      </trkpt>
      <trkpt lat="45.88442" lon="3.03739">
        <ele>595.3</ele>
        <time>2024-07-26T08:59:50Z</time>
      </trkpt>
      <trkpt lat="45.88444" lon="3.03739">
        <ele>595</ele>
        <time>2024-07-26T08:59:52Z</time>
      </trkpt>
      <trkpt lat="45.88446" lon="3.0374">
        <ele>594.6</ele>
        <time>2024-07-26T08:59:54Z</time>
      </trkpt>
      <trkpt lat="45.88447" lon="3.0374">
        <ele>595</ele>
        <time>2024-07-26T08:59:55Z</time>
      </trkpt>
      <trkpt lat="45.88448" lon="3.03741">
        <ele>595.2</ele>
        <time>2024-07-26T08:59:56Z</time>
      </trkpt>
      <trkpt lat="45.88448" lon="3.03742">
        <ele>595.4</ele>
        <time>2024-07-26T08:59:57Z</time>
      </trkpt>
      <trkpt lat="45.88449" lon="3.03743">
        <ele>595.1</ele>
        <time>2024-07-26T08:59:59Z</time>
      </trkpt>
      <trkpt lat="45.8845" lon="3.03744">
        <ele>593.8</ele>
        <time>2024-07-26T09:00:01Z</time>
      </trkpt>
      <trkpt lat="45.88451" lon="3.03745">
        <ele>592.8</ele>
        <time>2024-07-26T09:00:02Z</time>
      </trkpt>
      <trkpt lat="45.88452" lon="3.03745">
        <ele>591.9</ele>
        <time>2024-07-26T09:00:04Z</time>
      </trkpt>
      <trkpt lat="45.88453" lon="3.03745">
        <ele>593.1</ele>
        <time>2024-07-26T09:00:06Z</time>
      </trkpt>
      <trkpt lat="45.88454" lon="3.03746">
        <ele>593.4</ele>
        <time>2024-07-26T09:00:07Z</time>
      </trkpt>
      <trkpt lat="45.88455" lon="3.03748">
        <ele>594.4</ele>
        <time>2024-07-26T09:00:09Z</time>
      </trkpt>
      <trkpt lat="45.88456" lon="3.03749">
        <ele>594.9</ele>
        <time>2024-07-26T09:00:10Z</time>
      </trkpt>
      <trkpt lat="45.88457" lon="3.03749">
        <ele>594.9</ele>
        <time>2024-07-26T09:00:11Z</time>
      </trkpt>
      <trkpt lat="45.88458" lon="3.0375">
        <ele>595.1</ele>
        <time>2024-07-26T09:00:12Z</time>
      </trkpt>
      <trkpt lat="45.88459" lon="3.0375">
        <ele>594.5</ele>
        <time>2024-07-26T09:00:13Z</time>
      </trkpt>
      <trkpt lat="45.8846" lon="3.03751">
        <ele>595.6</ele>
        <time>2024-07-26T09:00:14Z</time>
      </trkpt>
      <trkpt lat="45.88461" lon="3.03752">
        <ele>596.3</ele>
        <time>2024-07-26T09:00:15Z</time>
      </trkpt>
      <trkpt lat="45.88462" lon="3.03753">
        <ele>596.8</ele>
        <time>2024-07-26T09:00:16Z</time>
      </trkpt>
      <trkpt lat="45.88463" lon="3.03753">
        <ele>596</ele>
        <time>2024-07-26T09:00:17Z</time>
      </trkpt>
      <trkpt lat="45.88464" lon="3.03754">
        <ele>595</ele>
        <time>2024-07-26T09:00:18Z</time>
      </trkpt>
      <trkpt lat="45.88465" lon="3.03755">
        <ele>595.4</ele>
        <time>2024-07-26T09:00:19Z</time>
      </trkpt>
      <trkpt lat="45.88466" lon="3.03756">
        <ele>595.9</ele>
        <time>2024-07-26T09:00:20Z</time>
      </trkpt>
      <trkpt lat="45.88467" lon="3.03756">
        <ele>595.9</ele>
        <time>2024-07-26T09:00:21Z</time>
      </trkpt>
      <trkpt lat="45.88468" lon="3.03757">
        <ele>595.8</ele>
        <time>2024-07-26T09:00:23Z</time>
      </trkpt>
      <trkpt lat="45.8847" lon="3.03758">
        <ele>595.6</ele>
        <time>2024-07-26T09:00:25Z</time>
      </trkpt>
      <trkpt lat="45.88471" lon="3.03759">
        <ele>595.6</ele>
        <time>2024-07-26T09:00:26Z</time>
      </trkpt>
      <trkpt lat="45.88472" lon="3.0376">
        <ele>595.8</ele>
        <time>2024-07-26T09:00:27Z</time>
      </trkpt>
      <trkpt lat="45.88473" lon="3.0376">
        <ele>595.3</ele>
        <time>2024-07-26T09:00:28Z</time>
      </trkpt>
      <trkpt lat="45.88473" lon="3.03761">
        <ele>595.5</ele>
        <time>2024-07-26T09:00:29Z</time>
      </trkpt>
      <trkpt lat="45.88475" lon="3.03762">
        <ele>595.3</ele>
        <time>2024-07-26T09:00:31Z</time>
      </trkpt>
      <trkpt lat="45.88476" lon="3.03761">
        <ele>595.5</ele>
        <time>2024-07-26T09:00:32Z</time>
      </trkpt>
      <trkpt lat="45.88477" lon="3.0376">
        <ele>595</ele>
        <time>2024-07-26T09:00:33Z</time>
      </trkpt>
      <trkpt lat="45.88477" lon="3.03759">
        <ele>593.4</ele>
        <time>2024-07-26T09:00:34Z</time>
      </trkpt>
      <trkpt lat="45.88477" lon="3.03758">
        <ele>591.3</ele>
        <time>2024-07-26T09:00:35Z</time>
      </trkpt>
      <trkpt lat="45.88477" lon="3.03756">
        <ele>589.9</ele>
        <time>2024-07-26T09:00:36Z</time>
      </trkpt>
      <trkpt lat="45.88476" lon="3.03755">
        <ele>590.1</ele>
        <time>2024-07-26T09:00:37Z</time>
      </trkpt>
      <trkpt lat="45.88476" lon="3.03754">
        <ele>590.1</ele>
        <time>2024-07-26T09:00:38Z</time>
      </trkpt>
      <trkpt lat="45.88475" lon="3.03753">
        <ele>589.7</ele>
        <time>2024-07-26T09:00:39Z</time>
      </trkpt>
      <trkpt lat="45.88474" lon="3.03752">
        <ele>589.1</ele>
        <time>2024-07-26T09:00:40Z</time>
      </trkpt>
      <trkpt lat="45.88473" lon="3.03751">
        <ele>589.7</ele>
        <time>2024-07-26T09:00:41Z</time>
      </trkpt>
      <trkpt lat="45.88472" lon="3.03749">
        <ele>589.3</ele>
        <time>2024-07-26T09:00:43Z</time>
      </trkpt>
      <trkpt lat="45.88471" lon="3.03747">
        <ele>589.2</ele>
        <time>2024-07-26T09:00:45Z</time>
      </trkpt>
      <trkpt lat="45.8847" lon="3.03746">
        <ele>589.2</ele>
        <time>2024-07-26T09:00:47Z</time>
      </trkpt>
      <trkpt lat="45.88469" lon="3.03744">
        <ele>589.3</ele>
        <time>2024-07-26T09:00:49Z</time>
      </trkpt>
      <trkpt lat="45.88468" lon="3.03742">
        <ele>589.9</ele>
        <time>2024-07-26T09:00:51Z</time>
      </trkpt>
      <trkpt lat="45.88467" lon="3.0374">
        <ele>589.5</ele>
        <time>2024-07-26T09:00:53Z</time>
      </trkpt>
      <trkpt lat="45.88466" lon="3.03739">
        <ele>589.5</ele>
        <time>2024-07-26T09:00:54Z</time>
      </trkpt>
      <trkpt lat="45.88466" lon="3.03738">
        <ele>589.3</ele>
        <time>2024-07-26T09:00:55Z</time>
      </trkpt>
      <trkpt lat="45.88465" lon="3.03736">
        <ele>589.3</ele>
        <time>2024-07-26T09:00:57Z</time>
      </trkpt>
      <trkpt lat="45.88464" lon="3.03734">
        <ele>589</ele>
        <time>2024-07-26T09:00:59Z</time>
      </trkpt>
      <trkpt lat="45.88462" lon="3.03732">
        <ele>588.6</ele>
        <time>2024-07-26T09:01:01Z</time>
      </trkpt>
      <trkpt lat="45.88461" lon="3.03731">
        <ele>589</ele>
        <time>2024-07-26T09:01:03Z</time>
      </trkpt>
      <trkpt lat="45.88461" lon="3.0373">
        <ele>589</ele>
        <time>2024-07-26T09:01:04Z</time>
      </trkpt>
      <trkpt lat="45.8846" lon="3.03729">
        <ele>588.9</ele>
        <time>2024-07-26T09:01:05Z</time>
      </trkpt>
      <trkpt lat="45.88459" lon="3.03728">
        <ele>588.8</ele>
        <time>2024-07-26T09:01:06Z</time>
      </trkpt>
      <trkpt lat="45.88458" lon="3.03726">
        <ele>589.4</ele>
        <time>2024-07-26T09:01:08Z</time>
      </trkpt>
      <trkpt lat="45.88457" lon="3.03724">
        <ele>589.1</ele>
        <time>2024-07-26T09:01:10Z</time>
      </trkpt>
      <trkpt lat="45.88456" lon="3.03724">
        <ele>589</ele>
        <time>2024-07-26T09:01:11Z</time>
      </trkpt>
      <trkpt lat="45.88455" lon="3.03723">
        <ele>589</ele>
        <time>2024-07-26T09:01:12Z</time>
      </trkpt>
      <trkpt lat="45.88454" lon="3.03722">
        <ele>588.9</ele>
        <time>2024-07-26T09:01:13Z</time>
      </trkpt>
      <trkpt lat="45.88454" lon="3.03721">
        <ele>588.8</ele>
        <time>2024-07-26T09:01:14Z</time>
      </trkpt>
      <trkpt lat="45.88453" lon="3.0372">
        <ele>588.5</ele>
        <time>2024-07-26T09:01:15Z</time>
      </trkpt>
      <trkpt lat="45.88452" lon="3.03719">
        <ele>588.6</ele>
        <time>2024-07-26T09:01:16Z</time>
      </trkpt>
      <trkpt lat="45.88451" lon="3.03718">
        <ele>588.6</ele>
        <time>2024-07-26T09:01:17Z</time>
      </trkpt>
      <trkpt lat="45.88451" lon="3.03717">
        <ele>588.7</ele>
        <time>2024-07-26T09:01:18Z</time>
      </trkpt>
      <trkpt lat="45.8845" lon="3.03716">
        <ele>588.5</ele>
        <time>2024-07-26T09:01:19Z</time>
      </trkpt>
      <trkpt lat="45.88449" lon="3.03715">
        <ele>588.4</ele>
        <time>2024-07-26T09:01:20Z</time>
      </trkpt>
      <trkpt lat="45.88448" lon="3.03714">
        <ele>588.5</ele>
        <time>2024-07-26T09:01:21Z</time>
      </trkpt>
      <trkpt lat="45.88447" lon="3.03713">
        <ele>588.7</ele>
        <time>2024-07-26T09:01:22Z</time>
      </trkpt>
      <trkpt lat="45.88446" lon="3.03712">
        <ele>588.7</ele>
        <time>2024-07-26T09:01:23Z</time>
      </trkpt>
      <trkpt lat="45.88446" lon="3.03711">
        <ele>588.6</ele>
        <time>2024-07-26T09:01:24Z</time>
      </trkpt>
      <trkpt lat="45.88445" lon="3.0371">
        <ele>588.9</ele>
        <time>2024-07-26T09:01:25Z</time>
      </trkpt>
      <trkpt lat="45.88444" lon="3.03709">
        <ele>589.4</ele>
        <time>2024-07-26T09:01:27Z</time>
      </trkpt>
      <trkpt lat="45.88442" lon="3.03707">
        <ele>590</ele>
        <time>2024-07-26T09:01:29Z</time>
      </trkpt>
      <trkpt lat="45.88442" lon="3.03706">
        <ele>590.1</ele>
        <time>2024-07-26T09:01:30Z</time>
      </trkpt>
      <trkpt lat="45.8844" lon="3.03704">
        <ele>590.4</ele>
        <time>2024-07-26T09:01:32Z</time>
      </trkpt>
      <trkpt lat="45.8844" lon="3.03703">
        <ele>590.4</ele>
        <time>2024-07-26T09:01:33Z</time>
      </trkpt>
      <trkpt lat="45.88439" lon="3.03702">
        <ele>590.7</ele>
        <time>2024-07-26T09:01:34Z</time>
      </trkpt>
      <trkpt lat="45.88438" lon="3.037">
        <ele>590.7</ele>
        <time>2024-07-26T09:01:36Z</time>
      </trkpt>
      <trkpt lat="45.88437" lon="3.03699">
        <ele>590.7</ele>
        <time>2024-07-26T09:01:37Z</time>
      </trkpt>
      <trkpt lat="45.88437" lon="3.03698">
        <ele>590.2</ele>
        <time>2024-07-26T09:01:38Z</time>
      </trkpt>
      <trkpt lat="45.88436" lon="3.03697">
        <ele>589.6</ele>
        <time>2024-07-26T09:01:39Z</time>
      </trkpt>
      <trkpt lat="45.88435" lon="3.03696">
        <ele>589.8</ele>
        <time>2024-07-26T09:01:40Z</time>
      </trkpt>
      <trkpt lat="45.88434" lon="3.03695">
        <ele>589.7</ele>
        <time>2024-07-26T09:01:41Z</time>
      </trkpt>
      <trkpt lat="45.88433" lon="3.03694">
        <ele>589.5</ele>
        <time>2024-07-26T09:01:42Z</time>
      </trkpt>
      <trkpt lat="45.88432" lon="3.03694">
        <ele>589.7</ele>
        <time>2024-07-26T09:01:43Z</time>
      </trkpt>
      <trkpt lat="45.88431" lon="3.03693">
        <ele>589.3</ele>
        <time>2024-07-26T09:01:44Z</time>
      </trkpt>
      <trkpt lat="45.88429" lon="3.03692">
        <ele>587.6</ele>
        <time>2024-07-26T09:01:46Z</time>
      </trkpt>
      <trkpt lat="45.88428" lon="3.03691">
        <ele>588.5</ele>
        <time>2024-07-26T09:01:47Z</time>
      </trkpt>
      <trkpt lat="45.88427" lon="3.03691">
        <ele>588.7</ele>
        <time>2024-07-26T09:01:48Z</time>
      </trkpt>
      <trkpt lat="45.88425" lon="3.0369">
        <ele>589</ele>
        <time>2024-07-26T09:01:49Z</time>
      </trkpt>
      <trkpt lat="45.88424" lon="3.03689">
        <ele>588.8</ele>
        <time>2024-07-26T09:01:50Z</time>
      </trkpt>
      <trkpt lat="45.88423" lon="3.03688">
        <ele>589</ele>
        <time>2024-07-26T09:01:51Z</time>
      </trkpt>
      <trkpt lat="45.88423" lon="3.03686">
        <ele>589.4</ele>
        <time>2024-07-26T09:01:52Z</time>
      </trkpt>
      <trkpt lat="45.88421" lon="3.03686">
        <ele>587.2</ele>
        <time>2024-07-26T09:01:53Z</time>
      </trkpt>
      <trkpt lat="45.8842" lon="3.03685">
        <ele>586.2</ele>
        <time>2024-07-26T09:01:54Z</time>
      </trkpt>
      <trkpt lat="45.88419" lon="3.03684">
        <ele>586.1</ele>
        <time>2024-07-26T09:01:55Z</time>
      </trkpt>
      <trkpt lat="45.88418" lon="3.03683">
        <ele>587.2</ele>
        <time>2024-07-26T09:01:56Z</time>
      </trkpt>
      <trkpt lat="45.88417" lon="3.03682">
        <ele>587.7</ele>
        <time>2024-07-26T09:01:57Z</time>
      </trkpt>
      <trkpt lat="45.88416" lon="3.0368">
        <ele>588.7</ele>
        <time>2024-07-26T09:01:58Z</time>
      </trkpt>
      <trkpt lat="45.88416" lon="3.03679">
        <ele>589.6</ele>
        <time>2024-07-26T09:01:59Z</time>
      </trkpt>
      <trkpt lat="45.88416" lon="3.03677">
        <ele>589.1</ele>
        <time>2024-07-26T09:02:01Z</time>
      </trkpt>
      <trkpt lat="45.88416" lon="3.03675">
        <ele>588.8</ele>
        <time>2024-07-26T09:02:02Z</time>
      </trkpt>
      <trkpt lat="45.88416" lon="3.03673">
        <ele>590.3</ele>
        <time>2024-07-26T09:02:04Z</time>
      </trkpt>
      <trkpt lat="45.88415" lon="3.03672">
        <ele>588.1</ele>
        <time>2024-07-26T09:02:06Z</time>
      </trkpt>
      <trkpt lat="45.88415" lon="3.0367">
        <ele>590.2</ele>
        <time>2024-07-26T09:02:10Z</time>
      </trkpt>
      <trkpt lat="45.88414" lon="3.0367">
        <ele>590.5</ele>
        <time>2024-07-26T09:02:16Z</time>
      </trkpt>
      <trkpt lat="45.88413" lon="3.03669">
        <ele>590.3</ele>
        <time>2024-07-26T09:02:17Z</time>
      </trkpt>
      <trkpt lat="45.88411" lon="3.03669">
        <ele>589.6</ele>
        <time>2024-07-26T09:02:18Z</time>
      </trkpt>
      <trkpt lat="45.8841" lon="3.03667">
        <ele>589</ele>
        <time>2024-07-26T09:02:19Z</time>
      </trkpt>
      <trkpt lat="45.88408" lon="3.03666">
        <ele>588.9</ele>
        <time>2024-07-26T09:02:20Z</time>
      </trkpt>
      <trkpt lat="45.88408" lon="3.03664">
        <ele>591</ele>
        <time>2024-07-26T09:02:21Z</time>
      </trkpt>
      <trkpt lat="45.88408" lon="3.03662">
        <ele>591</ele>
        <time>2024-07-26T09:02:22Z</time>
      </trkpt>
      <trkpt lat="45.88409" lon="3.0366">
        <ele>591.8</ele>
        <time>2024-07-26T09:02:23Z</time>
      </trkpt>
      <trkpt lat="45.88409" lon="3.03659">
        <ele>593.1</ele>
        <time>2024-07-26T09:02:24Z</time>
      </trkpt>
      <trkpt lat="45.88409" lon="3.03656">
        <ele>594</ele>
        <time>2024-07-26T09:02:26Z</time>
      </trkpt>
      <trkpt lat="45.88409" lon="3.03655">
        <ele>593.8</ele>
        <time>2024-07-26T09:02:27Z</time>
      </trkpt>
      <trkpt lat="45.88408" lon="3.03654">
        <ele>594.5</ele>
        <time>2024-07-26T09:02:28Z</time>
      </trkpt>
      <trkpt lat="45.88408" lon="3.03653">
        <ele>595.2</ele>
        <time>2024-07-26T09:02:29Z</time>
      </trkpt>
      <trkpt lat="45.88407" lon="3.03652">
        <ele>595.3</ele>
        <time>2024-07-26T09:02:30Z</time>
      </trkpt>
      <trkpt lat="45.88406" lon="3.03651">
        <ele>595.5</ele>
        <time>2024-07-26T09:02:31Z</time>
      </trkpt>
      <trkpt lat="45.88406" lon="3.0365">
        <ele>595.6</ele>
        <time>2024-07-26T09:02:32Z</time>
      </trkpt>
      <trkpt lat="45.88405" lon="3.03649">
        <ele>595.6</ele>
        <time>2024-07-26T09:02:33Z</time>
      </trkpt>
      <trkpt lat="45.88404" lon="3.03648">
        <ele>595.2</ele>
        <time>2024-07-26T09:02:34Z</time>
      </trkpt>
      <trkpt lat="45.88403" lon="3.03647">
        <ele>595.2</ele>
        <time>2024-07-26T09:02:35Z</time>
      </trkpt>
      <trkpt lat="45.88402" lon="3.03646">
        <ele>595.1</ele>
        <time>2024-07-26T09:02:36Z</time>
      </trkpt>
      <trkpt lat="45.88401" lon="3.03645">
        <ele>595.7</ele>
        <time>2024-07-26T09:02:37Z</time>
      </trkpt>
      <trkpt lat="45.88401" lon="3.03644">
        <ele>596</ele>
        <time>2024-07-26T09:02:38Z</time>
      </trkpt>
      <trkpt lat="45.884" lon="3.03643">
        <ele>596.3</ele>
        <time>2024-07-26T09:02:39Z</time>
      </trkpt>
      <trkpt lat="45.884" lon="3.03642">
        <ele>596.4</ele>
        <time>2024-07-26T09:02:40Z</time>
      </trkpt>
      <trkpt lat="45.884" lon="3.03641">
        <ele>596.6</ele>
        <time>2024-07-26T09:02:41Z</time>
      </trkpt>
      <trkpt lat="45.88399" lon="3.03639">
        <ele>597.2</ele>
        <time>2024-07-26T09:02:42Z</time>
      </trkpt>
      <trkpt lat="45.88398" lon="3.03638">
        <ele>597.4</ele>
        <time>2024-07-26T09:02:44Z</time>
      </trkpt>
      <trkpt lat="45.88397" lon="3.03635">
        <ele>597.2</ele>
        <time>2024-07-26T09:02:46Z</time>
      </trkpt>
      <trkpt lat="45.88395" lon="3.03633">
        <ele>597.4</ele>
        <time>2024-07-26T09:02:49Z</time>
      </trkpt>
      <trkpt lat="45.88394" lon="3.0363">
        <ele>598</ele>
        <time>2024-07-26T09:02:52Z</time>
      </trkpt>
      <trkpt lat="45.88392" lon="3.03628">
        <ele>599.7</ele>
        <time>2024-07-26T09:02:54Z</time>
      </trkpt>
      <trkpt lat="45.88391" lon="3.03628">
        <ele>599.9</ele>
        <time>2024-07-26T09:02:56Z</time>
      </trkpt>
      <trkpt lat="45.8839" lon="3.03628">
        <ele>600</ele>
        <time>2024-07-26T09:02:57Z</time>
      </trkpt>
      <trkpt lat="45.88389" lon="3.03627">
        <ele>599.6</ele>
        <time>2024-07-26T09:02:58Z</time>
      </trkpt>
      <trkpt lat="45.88388" lon="3.03625">
        <ele>601.5</ele>
        <time>2024-07-26T09:02:59Z</time>
      </trkpt>
      <trkpt lat="45.88387" lon="3.03624">
        <ele>600.6</ele>
        <time>2024-07-26T09:03:00Z</time>
      </trkpt>
      <trkpt lat="45.88386" lon="3.03624">
        <ele>597.6</ele>
        <time>2024-07-26T09:03:01Z</time>
      </trkpt>
      <trkpt lat="45.88384" lon="3.03624">
        <ele>596.2</ele>
        <time>2024-07-26T09:03:02Z</time>
      </trkpt>
      <trkpt lat="45.88383" lon="3.03623">
        <ele>596.4</ele>
        <time>2024-07-26T09:03:03Z</time>
      </trkpt>
      <trkpt lat="45.88382" lon="3.03623">
        <ele>595.6</ele>
        <time>2024-07-26T09:03:04Z</time>
      </trkpt>
      <trkpt lat="45.88382" lon="3.03622">
        <ele>594.1</ele>
        <time>2024-07-26T09:03:05Z</time>
      </trkpt>
      <trkpt lat="45.88381" lon="3.0362">
        <ele>593.5</ele>
        <time>2024-07-26T09:03:06Z</time>
      </trkpt>
      <trkpt lat="45.88381" lon="3.03619">
        <ele>594</ele>
        <time>2024-07-26T09:03:07Z</time>
      </trkpt>
      <trkpt lat="45.8838" lon="3.03617">
        <ele>594.8</ele>
        <time>2024-07-26T09:03:09Z</time>
      </trkpt>
      <trkpt lat="45.88379" lon="3.03615">
        <ele>595.2</ele>
        <time>2024-07-26T09:03:11Z</time>
      </trkpt>
      <trkpt lat="45.88378" lon="3.03613">
        <ele>597.6</ele>
        <time>2024-07-26T09:03:13Z</time>
      </trkpt>
      <trkpt lat="45.88378" lon="3.03611">
        <ele>598.1</ele>
        <time>2024-07-26T09:03:15Z</time>
      </trkpt>
      <trkpt lat="45.88377" lon="3.03608">
        <ele>599.4</ele>
        <time>2024-07-26T09:03:17Z</time>
      </trkpt>
      <trkpt lat="45.88377" lon="3.03606">
        <ele>599.9</ele>
        <time>2024-07-26T09:03:19Z</time>
      </trkpt>
      <trkpt lat="45.88377" lon="3.03605">
        <ele>600.4</ele>
        <time>2024-07-26T09:03:20Z</time>
      </trkpt>
      <trkpt lat="45.88377" lon="3.03602">
        <ele>602.4</ele>
        <time>2024-07-26T09:03:22Z</time>
      </trkpt>
      <trkpt lat="45.88376" lon="3.036">
        <ele>602.8</ele>
        <time>2024-07-26T09:03:24Z</time>
      </trkpt>
      <trkpt lat="45.88375" lon="3.03599">
        <ele>602.9</ele>
        <time>2024-07-26T09:03:26Z</time>
      </trkpt>
      <trkpt lat="45.88374" lon="3.03596">
        <ele>602.5</ele>
        <time>2024-07-26T09:03:28Z</time>
      </trkpt>
      <trkpt lat="45.88373" lon="3.03595">
        <ele>602.9</ele>
        <time>2024-07-26T09:03:29Z</time>
      </trkpt>
      <trkpt lat="45.88372" lon="3.03594">
        <ele>603.2</ele>
        <time>2024-07-26T09:03:30Z</time>
      </trkpt>
      <trkpt lat="45.88371" lon="3.03593">
        <ele>604.1</ele>
        <time>2024-07-26T09:03:31Z</time>
      </trkpt>
      <trkpt lat="45.8837" lon="3.03592">
        <ele>603</ele>
        <time>2024-07-26T09:03:33Z</time>
      </trkpt>
      <trkpt lat="45.88369" lon="3.03589">
        <ele>605</ele>
        <time>2024-07-26T09:03:35Z</time>
      </trkpt>
      <trkpt lat="45.88369" lon="3.03588">
        <ele>606</ele>
        <time>2024-07-26T09:03:36Z</time>
      </trkpt>
      <trkpt lat="45.88368" lon="3.03586">
        <ele>606.5</ele>
        <time>2024-07-26T09:03:37Z</time>
      </trkpt>
      <trkpt lat="45.88368" lon="3.03584">
        <ele>606.2</ele>
        <time>2024-07-26T09:03:38Z</time>
      </trkpt>
      <trkpt lat="45.88369" lon="3.0358">
        <ele>606.5</ele>
        <time>2024-07-26T09:03:40Z</time>
      </trkpt>
      <trkpt lat="45.88369" lon="3.03579">
        <ele>607.8</ele>
        <time>2024-07-26T09:03:41Z</time>
      </trkpt>
      <trkpt lat="45.8837" lon="3.03576">
        <ele>607.8</ele>
        <time>2024-07-26T09:03:42Z</time>
      </trkpt>
      <trkpt lat="45.8837" lon="3.03575">
        <ele>608.1</ele>
        <time>2024-07-26T09:03:43Z</time>
      </trkpt>
      <trkpt lat="45.8837" lon="3.03573">
        <ele>608.1</ele>
        <time>2024-07-26T09:03:44Z</time>
      </trkpt>
      <trkpt lat="45.8837" lon="3.03571">
        <ele>608.7</ele>
        <time>2024-07-26T09:03:45Z</time>
      </trkpt>
      <trkpt lat="45.8837" lon="3.0357">
        <ele>608.6</ele>
        <time>2024-07-26T09:03:46Z</time>
      </trkpt>
      <trkpt lat="45.88371" lon="3.03568">
        <ele>610</ele>
        <time>2024-07-26T09:03:48Z</time>
      </trkpt>
      <trkpt lat="45.88372" lon="3.03566">
        <ele>610.1</ele>
        <time>2024-07-26T09:03:50Z</time>
      </trkpt>
      <trkpt lat="45.88373" lon="3.03564">
        <ele>610.7</ele>
        <time>2024-07-26T09:03:52Z</time>
      </trkpt>
      <trkpt lat="45.88374" lon="3.03563">
        <ele>611.2</ele>
        <time>2024-07-26T09:03:54Z</time>
      </trkpt>
      <trkpt lat="45.88375" lon="3.03562">
        <ele>610.7</ele>
        <time>2024-07-26T09:03:56Z</time>
      </trkpt>
      <trkpt lat="45.88376" lon="3.0356">
        <ele>611.3</ele>
        <time>2024-07-26T09:03:58Z</time>
      </trkpt>
      <trkpt lat="45.88377" lon="3.03559">
        <ele>611.1</ele>
        <time>2024-07-26T09:04:00Z</time>
      </trkpt>
      <trkpt lat="45.88377" lon="3.03557">
        <ele>611.5</ele>
        <time>2024-07-26T09:04:02Z</time>
      </trkpt>
      <trkpt lat="45.88378" lon="3.03556">
        <ele>611.4</ele>
        <time>2024-07-26T09:04:03Z</time>
      </trkpt>
      <trkpt lat="45.88379" lon="3.03554">
        <ele>612.4</ele>
        <time>2024-07-26T09:04:05Z</time>
      </trkpt>
      <trkpt lat="45.8838" lon="3.03554">
        <ele>612.3</ele>
        <time>2024-07-26T09:04:06Z</time>
      </trkpt>
      <trkpt lat="45.88381" lon="3.03553">
        <ele>612.5</ele>
        <time>2024-07-26T09:04:07Z</time>
      </trkpt>
      <trkpt lat="45.88382" lon="3.03552">
        <ele>612.5</ele>
        <time>2024-07-26T09:04:08Z</time>
      </trkpt>
      <trkpt lat="45.88383" lon="3.03551">
        <ele>614.4</ele>
        <time>2024-07-26T09:04:10Z</time>
      </trkpt>
      <trkpt lat="45.88385" lon="3.0355">
        <ele>613.8</ele>
        <time>2024-07-26T09:04:12Z</time>
      </trkpt>
      <trkpt lat="45.88386" lon="3.03548">
        <ele>613.7</ele>
        <time>2024-07-26T09:04:14Z</time>
      </trkpt>
      <trkpt lat="45.88387" lon="3.03547">
        <ele>613.8</ele>
        <time>2024-07-26T09:04:15Z</time>
      </trkpt>
      <trkpt lat="45.88388" lon="3.03546">
        <ele>614</ele>
        <time>2024-07-26T09:04:16Z</time>
      </trkpt>
      <trkpt lat="45.88389" lon="3.03544">
        <ele>613.8</ele>
        <time>2024-07-26T09:04:18Z</time>
      </trkpt>
      <trkpt lat="45.88391" lon="3.03543">
        <ele>613.9</ele>
        <time>2024-07-26T09:04:20Z</time>
      </trkpt>
      <trkpt lat="45.88391" lon="3.03542">
        <ele>614.3</ele>
        <time>2024-07-26T09:04:21Z</time>
      </trkpt>
      <trkpt lat="45.88392" lon="3.03541">
        <ele>614.1</ele>
        <time>2024-07-26T09:04:22Z</time>
      </trkpt>
      <trkpt lat="45.88393" lon="3.0354">
        <ele>615.3</ele>
        <time>2024-07-26T09:04:24Z</time>
      </trkpt>
      <trkpt lat="45.88395" lon="3.03539">
        <ele>616.9</ele>
        <time>2024-07-26T09:04:26Z</time>
      </trkpt>
      <trkpt lat="45.88396" lon="3.03538">
        <ele>617.3</ele>
        <time>2024-07-26T09:04:28Z</time>
      </trkpt>
      <trkpt lat="45.88397" lon="3.03537">
        <ele>615.8</ele>
        <time>2024-07-26T09:04:29Z</time>
      </trkpt>
      <trkpt lat="45.88397" lon="3.03536">
        <ele>614.5</ele>
        <time>2024-07-26T09:04:30Z</time>
      </trkpt>
      <trkpt lat="45.88398" lon="3.03535">
        <ele>613.9</ele>
        <time>2024-07-26T09:04:31Z</time>
      </trkpt>
      <trkpt lat="45.88398" lon="3.03533">
        <ele>614.9</ele>
        <time>2024-07-26T09:04:33Z</time>
      </trkpt>
      <trkpt lat="45.884" lon="3.03532">
        <ele>614.6</ele>
        <time>2024-07-26T09:04:35Z</time>
      </trkpt>
      <trkpt lat="45.88401" lon="3.03531">
        <ele>614.6</ele>
        <time>2024-07-26T09:04:36Z</time>
      </trkpt>
      <trkpt lat="45.88402" lon="3.0353">
        <ele>614.8</ele>
        <time>2024-07-26T09:04:37Z</time>
      </trkpt>
      <trkpt lat="45.88402" lon="3.03529">
        <ele>614.8</ele>
        <time>2024-07-26T09:04:38Z</time>
      </trkpt>
      <trkpt lat="45.88404" lon="3.03527">
        <ele>614.8</ele>
        <time>2024-07-26T09:04:40Z</time>
      </trkpt>
      <trkpt lat="45.88404" lon="3.03526">
        <ele>614.9</ele>
        <time>2024-07-26T09:04:41Z</time>
      </trkpt>
      <trkpt lat="45.88403" lon="3.03525">
        <ele>616.3</ele>
        <time>2024-07-26T09:04:43Z</time>
      </trkpt>
      <trkpt lat="45.88403" lon="3.03524">
        <ele>614.1</ele>
        <time>2024-07-26T09:04:45Z</time>
      </trkpt>
      <trkpt lat="45.88403" lon="3.03522">
        <ele>613.6</ele>
        <time>2024-07-26T09:04:48Z</time>
      </trkpt>
      <trkpt lat="45.88404" lon="3.03522">
        <ele>614.6</ele>
        <time>2024-07-26T09:05:01Z</time>
      </trkpt>
      <trkpt lat="45.88405" lon="3.03521">
        <ele>615.8</ele>
        <time>2024-07-26T09:05:03Z</time>
      </trkpt>
      <trkpt lat="45.88406" lon="3.0352">
        <ele>616</ele>
        <time>2024-07-26T09:05:04Z</time>
      </trkpt>
      <trkpt lat="45.88407" lon="3.03518">
        <ele>615.2</ele>
        <time>2024-07-26T09:05:05Z</time>
      </trkpt>
      <trkpt lat="45.88407" lon="3.03517">
        <ele>615.5</ele>
        <time>2024-07-26T09:05:06Z</time>
      </trkpt>
      <trkpt lat="45.88407" lon="3.03516">
        <ele>614.4</ele>
        <time>2024-07-26T09:05:07Z</time>
      </trkpt>
      <trkpt lat="45.88408" lon="3.03514">
        <ele>615.2</ele>
        <time>2024-07-26T09:05:09Z</time>
      </trkpt>
      <trkpt lat="45.88409" lon="3.03512">
        <ele>614.9</ele>
        <time>2024-07-26T09:05:10Z</time>
      </trkpt>
      <trkpt lat="45.88409" lon="3.03511">
        <ele>613.8</ele>
        <time>2024-07-26T09:05:11Z</time>
      </trkpt>
      <trkpt lat="45.8841" lon="3.03509">
        <ele>615.3</ele>
        <time>2024-07-26T09:05:13Z</time>
      </trkpt>
      <trkpt lat="45.88411" lon="3.03508">
        <ele>613.8</ele>
        <time>2024-07-26T09:05:14Z</time>
      </trkpt>
      <trkpt lat="45.88412" lon="3.03506">
        <ele>611.2</ele>
        <time>2024-07-26T09:05:16Z</time>
      </trkpt>
      <trkpt lat="45.88412" lon="3.03504">
        <ele>611.3</ele>
        <time>2024-07-26T09:05:17Z</time>
      </trkpt>
      <trkpt lat="45.88413" lon="3.03503">
        <ele>611.7</ele>
        <time>2024-07-26T09:05:18Z</time>
      </trkpt>
      <trkpt lat="45.88413" lon="3.03501">
        <ele>612.6</ele>
        <time>2024-07-26T09:05:20Z</time>
      </trkpt>
      <trkpt lat="45.88415" lon="3.03501">
        <ele>609.9</ele>
        <time>2024-07-26T09:05:25Z</time>
      </trkpt>
      <trkpt lat="45.88415" lon="3.03499">
        <ele>610.8</ele>
        <time>2024-07-26T09:05:26Z</time>
      </trkpt>
      <trkpt lat="45.88416" lon="3.03498">
        <ele>612.2</ele>
        <time>2024-07-26T09:05:27Z</time>
      </trkpt>
      <trkpt lat="45.88416" lon="3.03497">
        <ele>612.6</ele>
        <time>2024-07-26T09:05:28Z</time>
      </trkpt>
      <trkpt lat="45.88416" lon="3.03496">
        <ele>612.1</ele>
        <time>2024-07-26T09:05:29Z</time>
      </trkpt>
      <trkpt lat="45.88415" lon="3.03494">
        <ele>611.1</ele>
        <time>2024-07-26T09:05:30Z</time>
      </trkpt>
      <trkpt lat="45.88415" lon="3.03493">
        <ele>610.5</ele>
        <time>2024-07-26T09:05:31Z</time>
      </trkpt>
      <trkpt lat="45.88414" lon="3.03491">
        <ele>611.8</ele>
        <time>2024-07-26T09:05:32Z</time>
      </trkpt>
      <trkpt lat="45.88414" lon="3.0349">
        <ele>612</ele>
        <time>2024-07-26T09:05:33Z</time>
      </trkpt>
      <trkpt lat="45.88413" lon="3.03489">
        <ele>612.8</ele>
        <time>2024-07-26T09:05:35Z</time>
      </trkpt>
      <trkpt lat="45.88413" lon="3.03486">
        <ele>612.4</ele>
        <time>2024-07-26T09:05:37Z</time>
      </trkpt>
      <trkpt lat="45.88414" lon="3.03484">
        <ele>612.9</ele>
        <time>2024-07-26T09:05:39Z</time>
      </trkpt>
      <trkpt lat="45.88414" lon="3.03483">
        <ele>612.7</ele>
        <time>2024-07-26T09:05:40Z</time>
      </trkpt>
      <trkpt lat="45.88413" lon="3.03481">
        <ele>612.8</ele>
        <time>2024-07-26T09:05:41Z</time>
      </trkpt>
      <trkpt lat="45.88413" lon="3.0348">
        <ele>613.4</ele>
        <time>2024-07-26T09:05:42Z</time>
      </trkpt>
      <trkpt lat="45.88412" lon="3.03479">
        <ele>614.6</ele>
        <time>2024-07-26T09:05:43Z</time>
      </trkpt>
      <trkpt lat="45.88412" lon="3.03477">
        <ele>616.3</ele>
        <time>2024-07-26T09:05:45Z</time>
      </trkpt>
      <trkpt lat="45.88412" lon="3.03474">
        <ele>614.7</ele>
        <time>2024-07-26T09:05:47Z</time>
      </trkpt>
      <trkpt lat="45.88411" lon="3.03472">
        <ele>615.2</ele>
        <time>2024-07-26T09:05:49Z</time>
      </trkpt>
      <trkpt lat="45.88411" lon="3.03471">
        <ele>616.5</ele>
        <time>2024-07-26T09:05:50Z</time>
      </trkpt>
      <trkpt lat="45.8841" lon="3.0347">
        <ele>618.1</ele>
        <time>2024-07-26T09:05:51Z</time>
      </trkpt>
      <trkpt lat="45.8841" lon="3.03469">
        <ele>618.1</ele>
        <time>2024-07-26T09:05:52Z</time>
      </trkpt>
      <trkpt lat="45.88409" lon="3.03467">
        <ele>617.1</ele>
        <time>2024-07-26T09:05:53Z</time>
      </trkpt>
      <trkpt lat="45.88409" lon="3.03466">
        <ele>617.5</ele>
        <time>2024-07-26T09:05:55Z</time>
      </trkpt>
      <trkpt lat="45.88408" lon="3.03464">
        <ele>617.4</ele>
        <time>2024-07-26T09:05:57Z</time>
      </trkpt>
      <trkpt lat="45.88407" lon="3.03462">
        <ele>619</ele>
        <time>2024-07-26T09:05:58Z</time>
      </trkpt>
      <trkpt lat="45.88407" lon="3.0346">
        <ele>619.5</ele>
        <time>2024-07-26T09:05:59Z</time>
      </trkpt>
      <trkpt lat="45.88407" lon="3.03458">
        <ele>618.9</ele>
        <time>2024-07-26T09:06:00Z</time>
      </trkpt>
      <trkpt lat="45.88406" lon="3.03456">
        <ele>620.9</ele>
        <time>2024-07-26T09:06:01Z</time>
      </trkpt>
      <trkpt lat="45.88406" lon="3.03455">
        <ele>620.9</ele>
        <time>2024-07-26T09:06:02Z</time>
      </trkpt>
      <trkpt lat="45.88407" lon="3.03453">
        <ele>619.3</ele>
        <time>2024-07-26T09:06:03Z</time>
      </trkpt>
      <trkpt lat="45.88407" lon="3.03451">
        <ele>618.3</ele>
        <time>2024-07-26T09:06:05Z</time>
      </trkpt>
      <trkpt lat="45.88407" lon="3.0345">
        <ele>618</ele>
        <time>2024-07-26T09:06:06Z</time>
      </trkpt>
      <trkpt lat="45.88407" lon="3.03448">
        <ele>616.8</ele>
        <time>2024-07-26T09:06:08Z</time>
      </trkpt>
      <trkpt lat="45.88407" lon="3.03445">
        <ele>617.2</ele>
        <time>2024-07-26T09:06:10Z</time>
      </trkpt>
      <trkpt lat="45.88407" lon="3.03443">
        <ele>617.5</ele>
        <time>2024-07-26T09:06:12Z</time>
      </trkpt>
      <trkpt lat="45.88406" lon="3.03441">
        <ele>617.1</ele>
        <time>2024-07-26T09:06:14Z</time>
      </trkpt>
      <trkpt lat="45.88406" lon="3.0344">
        <ele>616.5</ele>
        <time>2024-07-26T09:06:15Z</time>
      </trkpt>
      <trkpt lat="45.88405" lon="3.03439">
        <ele>616.4</ele>
        <time>2024-07-26T09:06:16Z</time>
      </trkpt>
      <trkpt lat="45.88405" lon="3.03437">
        <ele>616.4</ele>
        <time>2024-07-26T09:06:18Z</time>
      </trkpt>
      <trkpt lat="45.88405" lon="3.03434">
        <ele>616</ele>
        <time>2024-07-26T09:06:20Z</time>
      </trkpt>
      <trkpt lat="45.88404" lon="3.03433">
        <ele>615.9</ele>
        <time>2024-07-26T09:06:21Z</time>
      </trkpt>
      <trkpt lat="45.88404" lon="3.03431">
        <ele>615.3</ele>
        <time>2024-07-26T09:06:22Z</time>
      </trkpt>
      <trkpt lat="45.88404" lon="3.03429">
        <ele>617.1</ele>
        <time>2024-07-26T09:06:23Z</time>
      </trkpt>
      <trkpt lat="45.88403" lon="3.03427">
        <ele>617</ele>
        <time>2024-07-26T09:06:24Z</time>
      </trkpt>
      <trkpt lat="45.88402" lon="3.03425">
        <ele>616.9</ele>
        <time>2024-07-26T09:06:25Z</time>
      </trkpt>
      <trkpt lat="45.88402" lon="3.03423">
        <ele>617.4</ele>
        <time>2024-07-26T09:06:26Z</time>
      </trkpt>
      <trkpt lat="45.88402" lon="3.03422">
        <ele>616.1</ele>
        <time>2024-07-26T09:06:27Z</time>
      </trkpt>
      <trkpt lat="45.88401" lon="3.03421">
        <ele>615.9</ele>
        <time>2024-07-26T09:06:28Z</time>
      </trkpt>
      <trkpt lat="45.88401" lon="3.03419">
        <ele>616</ele>
        <time>2024-07-26T09:06:29Z</time>
      </trkpt>
      <trkpt lat="45.884" lon="3.03418">
        <ele>615.7</ele>
        <time>2024-07-26T09:06:30Z</time>
      </trkpt>
      <trkpt lat="45.884" lon="3.03416">
        <ele>618</ele>
        <time>2024-07-26T09:06:32Z</time>
      </trkpt>
      <trkpt lat="45.88399" lon="3.03414">
        <ele>618.9</ele>
        <time>2024-07-26T09:06:34Z</time>
      </trkpt>
      <trkpt lat="45.88398" lon="3.03412">
        <ele>620.5</ele>
        <time>2024-07-26T09:06:36Z</time>
      </trkpt>
      <trkpt lat="45.88398" lon="3.0341">
        <ele>620.8</ele>
        <time>2024-07-26T09:06:38Z</time>
      </trkpt>
      <trkpt lat="45.88397" lon="3.03409">
        <ele>621.3</ele>
        <time>2024-07-26T09:06:39Z</time>
      </trkpt>
      <trkpt lat="45.88394" lon="3.03408">
        <ele>623.3</ele>
        <time>2024-07-26T09:06:41Z</time>
      </trkpt>
      <trkpt lat="45.88392" lon="3.03409">
        <ele>621.4</ele>
        <time>2024-07-26T09:06:42Z</time>
      </trkpt>
      <trkpt lat="45.8839" lon="3.03408">
        <ele>619.6</ele>
        <time>2024-07-26T09:06:43Z</time>
      </trkpt>
      <trkpt lat="45.88389" lon="3.03408">
        <ele>619.6</ele>
        <time>2024-07-26T09:06:44Z</time>
      </trkpt>
      <trkpt lat="45.88388" lon="3.03406">
        <ele>619.5</ele>
        <time>2024-07-26T09:06:45Z</time>
      </trkpt>
      <trkpt lat="45.88387" lon="3.03405">
        <ele>619.9</ele>
        <time>2024-07-26T09:06:46Z</time>
      </trkpt>
      <trkpt lat="45.88387" lon="3.03404">
        <ele>620.4</ele>
        <time>2024-07-26T09:06:47Z</time>
      </trkpt>
      <trkpt lat="45.88386" lon="3.03402">
        <ele>621.4</ele>
        <time>2024-07-26T09:06:48Z</time>
      </trkpt>
      <trkpt lat="45.88386" lon="3.03401">
        <ele>621</ele>
        <time>2024-07-26T09:06:49Z</time>
      </trkpt>
      <trkpt lat="45.88386" lon="3.03399">
        <ele>621</ele>
        <time>2024-07-26T09:06:50Z</time>
      </trkpt>
      <trkpt lat="45.88386" lon="3.03397">
        <ele>623.7</ele>
        <time>2024-07-26T09:06:51Z</time>
      </trkpt>
      <trkpt lat="45.88385" lon="3.03395">
        <ele>623.2</ele>
        <time>2024-07-26T09:06:52Z</time>
      </trkpt>
      <trkpt lat="45.88385" lon="3.03394">
        <ele>623.2</ele>
        <time>2024-07-26T09:06:53Z</time>
      </trkpt>
      <trkpt lat="45.88383" lon="3.03393">
        <ele>621.8</ele>
        <time>2024-07-26T09:06:54Z</time>
      </trkpt>
      <trkpt lat="45.88382" lon="3.03392">
        <ele>620.1</ele>
        <time>2024-07-26T09:06:55Z</time>
      </trkpt>
      <trkpt lat="45.88381" lon="3.03391">
        <ele>619.6</ele>
        <time>2024-07-26T09:06:56Z</time>
      </trkpt>
      <trkpt lat="45.8838" lon="3.03389">
        <ele>620</ele>
        <time>2024-07-26T09:06:57Z</time>
      </trkpt>
      <trkpt lat="45.88379" lon="3.03388">
        <ele>619.5</ele>
        <time>2024-07-26T09:06:58Z</time>
      </trkpt>
      <trkpt lat="45.88379" lon="3.03386">
        <ele>616.4</ele>
        <time>2024-07-26T09:06:59Z</time>
      </trkpt>
      <trkpt lat="45.88379" lon="3.03384">
        <ele>617.5</ele>
        <time>2024-07-26T09:07:00Z</time>
      </trkpt>
      <trkpt lat="45.88378" lon="3.03382">
        <ele>618.2</ele>
        <time>2024-07-26T09:07:01Z</time>
      </trkpt>
      <trkpt lat="45.88378" lon="3.0338">
        <ele>617.8</ele>
        <time>2024-07-26T09:07:02Z</time>
      </trkpt>
      <trkpt lat="45.88378" lon="3.03377">
        <ele>617.2</ele>
        <time>2024-07-26T09:07:03Z</time>
      </trkpt>
      <trkpt lat="45.88378" lon="3.03375">
        <ele>618.9</ele>
        <time>2024-07-26T09:07:04Z</time>
      </trkpt>
      <trkpt lat="45.88378" lon="3.03373">
        <ele>620.7</ele>
        <time>2024-07-26T09:07:05Z</time>
      </trkpt>
      <trkpt lat="45.88379" lon="3.03372">
        <ele>621.6</ele>
        <time>2024-07-26T09:07:06Z</time>
      </trkpt>
      <trkpt lat="45.8838" lon="3.0337">
        <ele>621.9</ele>
        <time>2024-07-26T09:07:07Z</time>
      </trkpt>
      <trkpt lat="45.8838" lon="3.03369">
        <ele>622.1</ele>
        <time>2024-07-26T09:07:08Z</time>
      </trkpt>
      <trkpt lat="45.8838" lon="3.03367">
        <ele>621.7</ele>
        <time>2024-07-26T09:07:10Z</time>
      </trkpt>
      <trkpt lat="45.88379" lon="3.03366">
        <ele>622.6</ele>
        <time>2024-07-26T09:07:12Z</time>
      </trkpt>
      <trkpt lat="45.88378" lon="3.03365">
        <ele>622</ele>
        <time>2024-07-26T09:07:13Z</time>
      </trkpt>
      <trkpt lat="45.88377" lon="3.03364">
        <ele>622</ele>
        <time>2024-07-26T09:07:14Z</time>
      </trkpt>
      <trkpt lat="45.88376" lon="3.03363">
        <ele>622.2</ele>
        <time>2024-07-26T09:07:15Z</time>
      </trkpt>
      <trkpt lat="45.88376" lon="3.03362">
        <ele>622</ele>
        <time>2024-07-26T09:07:16Z</time>
      </trkpt>
      <trkpt lat="45.88375" lon="3.03362">
        <ele>622.8</ele>
        <time>2024-07-26T09:07:17Z</time>
      </trkpt>
      <trkpt lat="45.88374" lon="3.0336">
        <ele>624.2</ele>
        <time>2024-07-26T09:07:19Z</time>
      </trkpt>
      <trkpt lat="45.88373" lon="3.03358">
        <ele>624.7</ele>
        <time>2024-07-26T09:07:21Z</time>
      </trkpt>
      <trkpt lat="45.88373" lon="3.03356">
        <ele>626.9</ele>
        <time>2024-07-26T09:07:24Z</time>
      </trkpt>
      <trkpt lat="45.88372" lon="3.03355">
        <ele>626.6</ele>
        <time>2024-07-26T09:07:26Z</time>
      </trkpt>
      <trkpt lat="45.88371" lon="3.03354">
        <ele>626.4</ele>
        <time>2024-07-26T09:07:27Z</time>
      </trkpt>
      <trkpt lat="45.8837" lon="3.03354">
        <ele>626.3</ele>
        <time>2024-07-26T09:07:28Z</time>
      </trkpt>
      <trkpt lat="45.88369" lon="3.03352">
        <ele>626.9</ele>
        <time>2024-07-26T09:07:29Z</time>
      </trkpt>
      <trkpt lat="45.88368" lon="3.03351">
        <ele>626.1</ele>
        <time>2024-07-26T09:07:30Z</time>
      </trkpt>
      <trkpt lat="45.88368" lon="3.0335">
        <ele>627.3</ele>
        <time>2024-07-26T09:07:31Z</time>
      </trkpt>
      <trkpt lat="45.88368" lon="3.03349">
        <ele>627.3</ele>
        <time>2024-07-26T09:07:32Z</time>
      </trkpt>
      <trkpt lat="45.88367" lon="3.03346">
        <ele>627.8</ele>
        <time>2024-07-26T09:07:34Z</time>
      </trkpt>
      <trkpt lat="45.88367" lon="3.03344">
        <ele>628.1</ele>
        <time>2024-07-26T09:07:36Z</time>
      </trkpt>
      <trkpt lat="45.88366" lon="3.03343">
        <ele>628.6</ele>
        <time>2024-07-26T09:07:37Z</time>
      </trkpt>
      <trkpt lat="45.88366" lon="3.03341">
        <ele>628.7</ele>
        <time>2024-07-26T09:07:38Z</time>
      </trkpt>
      <trkpt lat="45.88366" lon="3.0334">
        <ele>628</ele>
        <time>2024-07-26T09:07:39Z</time>
      </trkpt>
      <trkpt lat="45.88365" lon="3.03339">
        <ele>627.8</ele>
        <time>2024-07-26T09:07:40Z</time>
      </trkpt>
      <trkpt lat="45.88364" lon="3.03338">
        <ele>627.3</ele>
        <time>2024-07-26T09:07:41Z</time>
      </trkpt>
      <trkpt lat="45.88363" lon="3.03337">
        <ele>627.6</ele>
        <time>2024-07-26T09:07:43Z</time>
      </trkpt>
      <trkpt lat="45.88362" lon="3.03336">
        <ele>627.3</ele>
        <time>2024-07-26T09:07:44Z</time>
      </trkpt>
      <trkpt lat="45.88362" lon="3.03335">
        <ele>627.6</ele>
        <time>2024-07-26T09:07:45Z</time>
      </trkpt>
      <trkpt lat="45.88361" lon="3.03334">
        <ele>627.6</ele>
        <time>2024-07-26T09:07:46Z</time>
      </trkpt>
      <trkpt lat="45.8836" lon="3.03333">
        <ele>627.3</ele>
        <time>2024-07-26T09:07:47Z</time>
      </trkpt>
      <trkpt lat="45.88359" lon="3.03332">
        <ele>629.3</ele>
        <time>2024-07-26T09:07:48Z</time>
      </trkpt>
      <trkpt lat="45.88356" lon="3.03331">
        <ele>629.2</ele>
        <time>2024-07-26T09:07:50Z</time>
      </trkpt>
      <trkpt lat="45.88355" lon="3.0333">
        <ele>629.5</ele>
        <time>2024-07-26T09:07:52Z</time>
      </trkpt>
      <trkpt lat="45.88353" lon="3.03328">
        <ele>628.7</ele>
        <time>2024-07-26T09:07:54Z</time>
      </trkpt>
      <trkpt lat="45.88352" lon="3.03328">
        <ele>628.7</ele>
        <time>2024-07-26T09:07:55Z</time>
      </trkpt>
      <trkpt lat="45.88351" lon="3.03327">
        <ele>628.7</ele>
        <time>2024-07-26T09:07:56Z</time>
      </trkpt>
      <trkpt lat="45.8835" lon="3.03327">
        <ele>629.2</ele>
        <time>2024-07-26T09:07:57Z</time>
      </trkpt>
      <trkpt lat="45.88349" lon="3.03326">
        <ele>629.2</ele>
        <time>2024-07-26T09:07:58Z</time>
      </trkpt>
      <trkpt lat="45.88348" lon="3.03325">
        <ele>627.3</ele>
        <time>2024-07-26T09:07:59Z</time>
      </trkpt>
      <trkpt lat="45.88347" lon="3.03324">
        <ele>627.4</ele>
        <time>2024-07-26T09:08:00Z</time>
      </trkpt>
      <trkpt lat="45.88347" lon="3.03323">
        <ele>626.9</ele>
        <time>2024-07-26T09:08:01Z</time>
      </trkpt>
      <trkpt lat="45.88345" lon="3.03322">
        <ele>625.7</ele>
        <time>2024-07-26T09:08:03Z</time>
      </trkpt>
      <trkpt lat="45.88344" lon="3.03321">
        <ele>626</ele>
        <time>2024-07-26T09:08:04Z</time>
      </trkpt>
      <trkpt lat="45.88342" lon="3.0332">
        <ele>625.8</ele>
        <time>2024-07-26T09:08:05Z</time>
      </trkpt>
      <trkpt lat="45.88341" lon="3.03319">
        <ele>624.6</ele>
        <time>2024-07-26T09:08:06Z</time>
      </trkpt>
      <trkpt lat="45.8834" lon="3.03318">
        <ele>623.3</ele>
        <time>2024-07-26T09:08:07Z</time>
      </trkpt>
      <trkpt lat="45.88339" lon="3.03316">
        <ele>622.8</ele>
        <time>2024-07-26T09:08:08Z</time>
      </trkpt>
      <trkpt lat="45.88338" lon="3.03315">
        <ele>622.8</ele>
        <time>2024-07-26T09:08:09Z</time>
      </trkpt>
      <trkpt lat="45.88337" lon="3.03314">
        <ele>623.9</ele>
        <time>2024-07-26T09:08:10Z</time>
      </trkpt>
      <trkpt lat="45.88337" lon="3.03313">
        <ele>623.9</ele>
        <time>2024-07-26T09:08:11Z</time>
      </trkpt>
      <trkpt lat="45.88336" lon="3.03312">
        <ele>624.2</ele>
        <time>2024-07-26T09:08:12Z</time>
      </trkpt>
      <trkpt lat="45.88336" lon="3.03311">
        <ele>624.7</ele>
        <time>2024-07-26T09:08:13Z</time>
      </trkpt>
      <trkpt lat="45.88336" lon="3.03309">
        <ele>625.6</ele>
        <time>2024-07-26T09:08:14Z</time>
      </trkpt>
      <trkpt lat="45.88335" lon="3.03308">
        <ele>625.3</ele>
        <time>2024-07-26T09:08:15Z</time>
      </trkpt>
      <trkpt lat="45.88335" lon="3.03307">
        <ele>626.1</ele>
        <time>2024-07-26T09:08:16Z</time>
      </trkpt>
      <trkpt lat="45.88335" lon="3.03305">
        <ele>625.9</ele>
        <time>2024-07-26T09:08:17Z</time>
      </trkpt>
      <trkpt lat="45.88334" lon="3.03303">
        <ele>625.6</ele>
        <time>2024-07-26T09:08:19Z</time>
      </trkpt>
      <trkpt lat="45.88333" lon="3.03302">
        <ele>626.1</ele>
        <time>2024-07-26T09:08:20Z</time>
      </trkpt>
      <trkpt lat="45.88332" lon="3.033">
        <ele>625.9</ele>
        <time>2024-07-26T09:08:22Z</time>
      </trkpt>
      <trkpt lat="45.88331" lon="3.03299">
        <ele>625.6</ele>
        <time>2024-07-26T09:08:23Z</time>
      </trkpt>
      <trkpt lat="45.8833" lon="3.03297">
        <ele>626.9</ele>
        <time>2024-07-26T09:08:25Z</time>
      </trkpt>
      <trkpt lat="45.8833" lon="3.03296">
        <ele>627.1</ele>
        <time>2024-07-26T09:08:26Z</time>
      </trkpt>
      <trkpt lat="45.88329" lon="3.03294">
        <ele>627.3</ele>
        <time>2024-07-26T09:08:28Z</time>
      </trkpt>
      <trkpt lat="45.88328" lon="3.03292">
        <ele>627.1</ele>
        <time>2024-07-26T09:08:30Z</time>
      </trkpt>
      <trkpt lat="45.88328" lon="3.0329">
        <ele>626.8</ele>
        <time>2024-07-26T09:08:31Z</time>
      </trkpt>
      <trkpt lat="45.88327" lon="3.03289">
        <ele>626.8</ele>
        <time>2024-07-26T09:08:32Z</time>
      </trkpt>
      <trkpt lat="45.88327" lon="3.03288">
        <ele>626.7</ele>
        <time>2024-07-26T09:08:33Z</time>
      </trkpt>
      <trkpt lat="45.88326" lon="3.03287">
        <ele>626.8</ele>
        <time>2024-07-26T09:08:34Z</time>
      </trkpt>
      <trkpt lat="45.88326" lon="3.03285">
        <ele>627.1</ele>
        <time>2024-07-26T09:08:35Z</time>
      </trkpt>
      <trkpt lat="45.88325" lon="3.03284">
        <ele>627</ele>
        <time>2024-07-26T09:08:36Z</time>
      </trkpt>
      <trkpt lat="45.88324" lon="3.03283">
        <ele>627.9</ele>
        <time>2024-07-26T09:08:38Z</time>
      </trkpt>
      <trkpt lat="45.88323" lon="3.03282">
        <ele>627.9</ele>
        <time>2024-07-26T09:08:39Z</time>
      </trkpt>
      <trkpt lat="45.88323" lon="3.0328">
        <ele>627.8</ele>
        <time>2024-07-26T09:08:40Z</time>
      </trkpt>
      <trkpt lat="45.88322" lon="3.03279">
        <ele>629.3</ele>
        <time>2024-07-26T09:08:42Z</time>
      </trkpt>
      <trkpt lat="45.88322" lon="3.03276">
        <ele>630</ele>
        <time>2024-07-26T09:08:44Z</time>
      </trkpt>
      <trkpt lat="45.88321" lon="3.03275">
        <ele>630.3</ele>
        <time>2024-07-26T09:08:46Z</time>
      </trkpt>
      <trkpt lat="45.8832" lon="3.03273">
        <ele>631.6</ele>
        <time>2024-07-26T09:08:48Z</time>
      </trkpt>
      <trkpt lat="45.88319" lon="3.03271">
        <ele>631.6</ele>
        <time>2024-07-26T09:08:50Z</time>
      </trkpt>
      <trkpt lat="45.88318" lon="3.03269">
        <ele>631.3</ele>
        <time>2024-07-26T09:08:52Z</time>
      </trkpt>
      <trkpt lat="45.88318" lon="3.03267">
        <ele>632.4</ele>
        <time>2024-07-26T09:08:54Z</time>
      </trkpt>
      <trkpt lat="45.88318" lon="3.03264">
        <ele>632.2</ele>
        <time>2024-07-26T09:08:56Z</time>
      </trkpt>
      <trkpt lat="45.88317" lon="3.03263">
        <ele>632.3</ele>
        <time>2024-07-26T09:08:57Z</time>
      </trkpt>
      <trkpt lat="45.88316" lon="3.03262">
        <ele>632</ele>
        <time>2024-07-26T09:08:59Z</time>
      </trkpt>
      <trkpt lat="45.88315" lon="3.03261">
        <ele>631.6</ele>
        <time>2024-07-26T09:09:01Z</time>
      </trkpt>
      <trkpt lat="45.88313" lon="3.0326">
        <ele>632.9</ele>
        <time>2024-07-26T09:09:03Z</time>
      </trkpt>
      <trkpt lat="45.88312" lon="3.03259">
        <ele>633.8</ele>
        <time>2024-07-26T09:09:04Z</time>
      </trkpt>
      <trkpt lat="45.88311" lon="3.03257">
        <ele>633.1</ele>
        <time>2024-07-26T09:09:06Z</time>
      </trkpt>
      <trkpt lat="45.8831" lon="3.03255">
        <ele>634.1</ele>
        <time>2024-07-26T09:09:07Z</time>
      </trkpt>
      <trkpt lat="45.88309" lon="3.03254">
        <ele>633.5</ele>
        <time>2024-07-26T09:09:08Z</time>
      </trkpt>
      <trkpt lat="45.88308" lon="3.03253">
        <ele>636</ele>
        <time>2024-07-26T09:09:10Z</time>
      </trkpt>
      <trkpt lat="45.88307" lon="3.03251">
        <ele>635.7</ele>
        <time>2024-07-26T09:09:12Z</time>
      </trkpt>
      <trkpt lat="45.88307" lon="3.03249">
        <ele>636.8</ele>
        <time>2024-07-26T09:09:14Z</time>
      </trkpt>
      <trkpt lat="45.88307" lon="3.03248">
        <ele>636.4</ele>
        <time>2024-07-26T09:09:15Z</time>
      </trkpt>
      <trkpt lat="45.88308" lon="3.03246">
        <ele>635.1</ele>
        <time>2024-07-26T09:09:16Z</time>
      </trkpt>
      <trkpt lat="45.88308" lon="3.03244">
        <ele>634.5</ele>
        <time>2024-07-26T09:09:17Z</time>
      </trkpt>
      <trkpt lat="45.88309" lon="3.03243">
        <ele>632.8</ele>
        <time>2024-07-26T09:09:18Z</time>
      </trkpt>
      <trkpt lat="45.88309" lon="3.03241">
        <ele>633.1</ele>
        <time>2024-07-26T09:09:19Z</time>
      </trkpt>
      <trkpt lat="45.8831" lon="3.03238">
        <ele>630.8</ele>
        <time>2024-07-26T09:09:21Z</time>
      </trkpt>
      <trkpt lat="45.88311" lon="3.03237">
        <ele>631.4</ele>
        <time>2024-07-26T09:09:22Z</time>
      </trkpt>
      <trkpt lat="45.88312" lon="3.03236">
        <ele>630.2</ele>
        <time>2024-07-26T09:09:23Z</time>
      </trkpt>
      <trkpt lat="45.88313" lon="3.03235">
        <ele>630.3</ele>
        <time>2024-07-26T09:09:25Z</time>
      </trkpt>
      <trkpt lat="45.88313" lon="3.03234">
        <ele>630.4</ele>
        <time>2024-07-26T09:09:34Z</time>
      </trkpt>
      <trkpt lat="45.88312" lon="3.03233">
        <ele>632.9</ele>
        <time>2024-07-26T09:09:37Z</time>
      </trkpt>
      <trkpt lat="45.88312" lon="3.0323">
        <ele>632.8</ele>
        <time>2024-07-26T09:09:40Z</time>
      </trkpt>
      <trkpt lat="45.88311" lon="3.03229">
        <ele>631.8</ele>
        <time>2024-07-26T09:09:41Z</time>
      </trkpt>
      <trkpt lat="45.88308" lon="3.03228">
        <ele>632.2</ele>
        <time>2024-07-26T09:09:42Z</time>
      </trkpt>
      <trkpt lat="45.88307" lon="3.03227">
        <ele>632</ele>
        <time>2024-07-26T09:09:43Z</time>
      </trkpt>
      <trkpt lat="45.88305" lon="3.03227">
        <ele>633.9</ele>
        <time>2024-07-26T09:09:44Z</time>
      </trkpt>
      <trkpt lat="45.88303" lon="3.03227">
        <ele>634.2</ele>
        <time>2024-07-26T09:09:45Z</time>
      </trkpt>
      <trkpt lat="45.883" lon="3.03227">
        <ele>635.3</ele>
        <time>2024-07-26T09:09:47Z</time>
      </trkpt>
      <trkpt lat="45.88297" lon="3.03226">
        <ele>635.7</ele>
        <time>2024-07-26T09:09:49Z</time>
      </trkpt>
      <trkpt lat="45.88296" lon="3.03225">
        <ele>635.7</ele>
        <time>2024-07-26T09:09:50Z</time>
      </trkpt>
      <trkpt lat="45.88295" lon="3.03224">
        <ele>636.6</ele>
        <time>2024-07-26T09:09:52Z</time>
      </trkpt>
      <trkpt lat="45.88295" lon="3.03223">
        <ele>636.6</ele>
        <time>2024-07-26T09:09:54Z</time>
      </trkpt>
      <trkpt lat="45.88294" lon="3.0322">
        <ele>635</ele>
        <time>2024-07-26T09:09:56Z</time>
      </trkpt>
      <trkpt lat="45.88293" lon="3.03219">
        <ele>636</ele>
        <time>2024-07-26T09:09:58Z</time>
      </trkpt>
      <trkpt lat="45.88291" lon="3.03218">
        <ele>634.3</ele>
        <time>2024-07-26T09:10:00Z</time>
      </trkpt>
      <trkpt lat="45.88291" lon="3.03217">
        <ele>634.6</ele>
        <time>2024-07-26T09:10:01Z</time>
      </trkpt>
      <trkpt lat="45.8829" lon="3.03216">
        <ele>632.3</ele>
        <time>2024-07-26T09:10:03Z</time>
      </trkpt>
      <trkpt lat="45.88289" lon="3.03213">
        <ele>632.4</ele>
        <time>2024-07-26T09:10:05Z</time>
      </trkpt>
      <trkpt lat="45.88289" lon="3.03212">
        <ele>633.3</ele>
        <time>2024-07-26T09:10:06Z</time>
      </trkpt>
      <trkpt lat="45.88289" lon="3.03209">
        <ele>631.9</ele>
        <time>2024-07-26T09:10:08Z</time>
      </trkpt>
      <trkpt lat="45.88289" lon="3.03208">
        <ele>632.4</ele>
        <time>2024-07-26T09:10:09Z</time>
      </trkpt>
      <trkpt lat="45.88289" lon="3.03207">
        <ele>633.3</ele>
        <time>2024-07-26T09:10:10Z</time>
      </trkpt>
      <trkpt lat="45.88289" lon="3.03205">
        <ele>632.8</ele>
        <time>2024-07-26T09:10:11Z</time>
      </trkpt>
      <trkpt lat="45.88289" lon="3.03204">
        <ele>632.8</ele>
        <time>2024-07-26T09:10:12Z</time>
      </trkpt>
      <trkpt lat="45.8829" lon="3.03201">
        <ele>633.1</ele>
        <time>2024-07-26T09:10:14Z</time>
      </trkpt>
      <trkpt lat="45.8829" lon="3.032">
        <ele>633.3</ele>
        <time>2024-07-26T09:10:15Z</time>
      </trkpt>
      <trkpt lat="45.88291" lon="3.03198">
        <ele>633.9</ele>
        <time>2024-07-26T09:10:17Z</time>
      </trkpt>
      <trkpt lat="45.8829" lon="3.03196">
        <ele>634.9</ele>
        <time>2024-07-26T09:10:18Z</time>
      </trkpt>
      <trkpt lat="45.8829" lon="3.03195">
        <ele>634.8</ele>
        <time>2024-07-26T09:10:19Z</time>
      </trkpt>
      <trkpt lat="45.88289" lon="3.03192">
        <ele>636.3</ele>
        <time>2024-07-26T09:10:21Z</time>
      </trkpt>
      <trkpt lat="45.88289" lon="3.03191">
        <ele>636.1</ele>
        <time>2024-07-26T09:10:22Z</time>
      </trkpt>
      <trkpt lat="45.88289" lon="3.03189">
        <ele>633.8</ele>
        <time>2024-07-26T09:10:23Z</time>
      </trkpt>
      <trkpt lat="45.88289" lon="3.03187">
        <ele>632.9</ele>
        <time>2024-07-26T09:10:24Z</time>
      </trkpt>
      <trkpt lat="45.8829" lon="3.03185">
        <ele>634.2</ele>
        <time>2024-07-26T09:10:26Z</time>
      </trkpt>
      <trkpt lat="45.8829" lon="3.03183">
        <ele>635.5</ele>
        <time>2024-07-26T09:10:28Z</time>
      </trkpt>
      <trkpt lat="45.88289" lon="3.03181">
        <ele>636.9</ele>
        <time>2024-07-26T09:10:30Z</time>
      </trkpt>
      <trkpt lat="45.88289" lon="3.03179">
        <ele>632.1</ele>
        <time>2024-07-26T09:10:32Z</time>
      </trkpt>
      <trkpt lat="45.88289" lon="3.03177">
        <ele>630.2</ele>
        <time>2024-07-26T09:10:34Z</time>
      </trkpt>
      <trkpt lat="45.8829" lon="3.03176">
        <ele>631</ele>
        <time>2024-07-26T09:10:35Z</time>
      </trkpt>
      <trkpt lat="45.88291" lon="3.03175">
        <ele>632.6</ele>
        <time>2024-07-26T09:10:36Z</time>
      </trkpt>
      <trkpt lat="45.88292" lon="3.03174">
        <ele>635.4</ele>
        <time>2024-07-26T09:10:37Z</time>
      </trkpt>
      <trkpt lat="45.88293" lon="3.03173">
        <ele>637.4</ele>
        <time>2024-07-26T09:10:38Z</time>
      </trkpt>
      <trkpt lat="45.88293" lon="3.03171">
        <ele>635.5</ele>
        <time>2024-07-26T09:10:39Z</time>
      </trkpt>
      <trkpt lat="45.88294" lon="3.0317">
        <ele>635.2</ele>
        <time>2024-07-26T09:10:40Z</time>
      </trkpt>
      <trkpt lat="45.88294" lon="3.03168">
        <ele>635.9</ele>
        <time>2024-07-26T09:10:41Z</time>
      </trkpt>
      <trkpt lat="45.88294" lon="3.03167">
        <ele>635.9</ele>
        <time>2024-07-26T09:10:42Z</time>
      </trkpt>
      <trkpt lat="45.88293" lon="3.03165">
        <ele>637.4</ele>
        <time>2024-07-26T09:10:43Z</time>
      </trkpt>
      <trkpt lat="45.88293" lon="3.03164">
        <ele>638.2</ele>
        <time>2024-07-26T09:10:44Z</time>
      </trkpt>
      <trkpt lat="45.88292" lon="3.03163">
        <ele>637.9</ele>
        <time>2024-07-26T09:10:45Z</time>
      </trkpt>
      <trkpt lat="45.88291" lon="3.0316">
        <ele>636.2</ele>
        <time>2024-07-26T09:10:47Z</time>
      </trkpt>
      <trkpt lat="45.88291" lon="3.03159">
        <ele>638.7</ele>
        <time>2024-07-26T09:10:48Z</time>
      </trkpt>
      <trkpt lat="45.88291" lon="3.03157">
        <ele>638.7</ele>
        <time>2024-07-26T09:10:49Z</time>
      </trkpt>
      <trkpt lat="45.88291" lon="3.03156">
        <ele>640.2</ele>
        <time>2024-07-26T09:10:50Z</time>
      </trkpt>
      <trkpt lat="45.88291" lon="3.03154">
        <ele>642.9</ele>
        <time>2024-07-26T09:10:51Z</time>
      </trkpt>
      <trkpt lat="45.88292" lon="3.03152">
        <ele>643.4</ele>
        <time>2024-07-26T09:10:53Z</time>
      </trkpt>
      <trkpt lat="45.88293" lon="3.03149">
        <ele>642</ele>
        <time>2024-07-26T09:10:55Z</time>
      </trkpt>
      <trkpt lat="45.88293" lon="3.03148">
        <ele>641.5</ele>
        <time>2024-07-26T09:10:56Z</time>
      </trkpt>
      <trkpt lat="45.88294" lon="3.03146">
        <ele>642</ele>
        <time>2024-07-26T09:10:57Z</time>
      </trkpt>
      <trkpt lat="45.88294" lon="3.03145">
        <ele>642.1</ele>
        <time>2024-07-26T09:10:58Z</time>
      </trkpt>
      <trkpt lat="45.88294" lon="3.03143">
        <ele>640.3</ele>
        <time>2024-07-26T09:10:59Z</time>
      </trkpt>
      <trkpt lat="45.88293" lon="3.03142">
        <ele>639.1</ele>
        <time>2024-07-26T09:11:00Z</time>
      </trkpt>
      <trkpt lat="45.88293" lon="3.0314">
        <ele>639.2</ele>
        <time>2024-07-26T09:11:01Z</time>
      </trkpt>
      <trkpt lat="45.88293" lon="3.03139">
        <ele>640.4</ele>
        <time>2024-07-26T09:11:02Z</time>
      </trkpt>
      <trkpt lat="45.88292" lon="3.03137">
        <ele>641</ele>
        <time>2024-07-26T09:11:04Z</time>
      </trkpt>
      <trkpt lat="45.88292" lon="3.03134">
        <ele>640.6</ele>
        <time>2024-07-26T09:11:06Z</time>
      </trkpt>
      <trkpt lat="45.88292" lon="3.03133">
        <ele>640</ele>
        <time>2024-07-26T09:11:07Z</time>
      </trkpt>
      <trkpt lat="45.88292" lon="3.0313">
        <ele>639.8</ele>
        <time>2024-07-26T09:11:09Z</time>
      </trkpt>
      <trkpt lat="45.88292" lon="3.03129">
        <ele>636.7</ele>
        <time>2024-07-26T09:11:10Z</time>
      </trkpt>
      <trkpt lat="45.88292" lon="3.03127">
        <ele>636.8</ele>
        <time>2024-07-26T09:11:11Z</time>
      </trkpt>
      <trkpt lat="45.88292" lon="3.03125">
        <ele>637.5</ele>
        <time>2024-07-26T09:11:12Z</time>
      </trkpt>
      <trkpt lat="45.88293" lon="3.03124">
        <ele>641.5</ele>
        <time>2024-07-26T09:11:13Z</time>
      </trkpt>
      <trkpt lat="45.88293" lon="3.03121">
        <ele>641.4</ele>
        <time>2024-07-26T09:11:15Z</time>
      </trkpt>
      <trkpt lat="45.88292" lon="3.0312">
        <ele>640.5</ele>
        <time>2024-07-26T09:11:16Z</time>
      </trkpt>
      <trkpt lat="45.88292" lon="3.03117">
        <ele>639.4</ele>
        <time>2024-07-26T09:11:18Z</time>
      </trkpt>
      <trkpt lat="45.88291" lon="3.03116">
        <ele>639.1</ele>
        <time>2024-07-26T09:11:19Z</time>
      </trkpt>
      <trkpt lat="45.88291" lon="3.03113">
        <ele>635.9</ele>
        <time>2024-07-26T09:11:20Z</time>
      </trkpt>
      <trkpt lat="45.88291" lon="3.03111">
        <ele>635.8</ele>
        <time>2024-07-26T09:11:21Z</time>
      </trkpt>
      <trkpt lat="45.88291" lon="3.03109">
        <ele>634.1</ele>
        <time>2024-07-26T09:11:22Z</time>
      </trkpt>
      <trkpt lat="45.88291" lon="3.03108">
        <ele>635.3</ele>
        <time>2024-07-26T09:11:23Z</time>
      </trkpt>
      <trkpt lat="45.88292" lon="3.03106">
        <ele>639.8</ele>
        <time>2024-07-26T09:11:25Z</time>
      </trkpt>
      <trkpt lat="45.88292" lon="3.03104">
        <ele>636.9</ele>
        <time>2024-07-26T09:11:26Z</time>
      </trkpt>
      <trkpt lat="45.88292" lon="3.03102">
        <ele>637</ele>
        <time>2024-07-26T09:11:27Z</time>
      </trkpt>
      <trkpt lat="45.88292" lon="3.03101">
        <ele>637.3</ele>
        <time>2024-07-26T09:11:28Z</time>
      </trkpt>
      <trkpt lat="45.88292" lon="3.03099">
        <ele>637.7</ele>
        <time>2024-07-26T09:11:29Z</time>
      </trkpt>
      <trkpt lat="45.88293" lon="3.03097">
        <ele>636.2</ele>
        <time>2024-07-26T09:11:31Z</time>
      </trkpt>
      <trkpt lat="45.88294" lon="3.03095">
        <ele>634.9</ele>
        <time>2024-07-26T09:11:32Z</time>
      </trkpt>
      <trkpt lat="45.88294" lon="3.03094">
        <ele>635.5</ele>
        <time>2024-07-26T09:11:33Z</time>
      </trkpt>
      <trkpt lat="45.88294" lon="3.03093">
        <ele>635.9</ele>
        <time>2024-07-26T09:11:34Z</time>
      </trkpt>
      <trkpt lat="45.88294" lon="3.03091">
        <ele>636.1</ele>
        <time>2024-07-26T09:11:36Z</time>
      </trkpt>
      <trkpt lat="45.88294" lon="3.03089">
        <ele>636.9</ele>
        <time>2024-07-26T09:11:38Z</time>
      </trkpt>
      <trkpt lat="45.88294" lon="3.03087">
        <ele>639.2</ele>
        <time>2024-07-26T09:11:40Z</time>
      </trkpt>
      <trkpt lat="45.88294" lon="3.03085">
        <ele>639.1</ele>
        <time>2024-07-26T09:11:42Z</time>
      </trkpt>
      <trkpt lat="45.88295" lon="3.03086">
        <ele>639.8</ele>
        <time>2024-07-26T09:11:46Z</time>
      </trkpt>
      <trkpt lat="45.88295" lon="3.03085">
        <ele>640.8</ele>
        <time>2024-07-26T09:11:48Z</time>
      </trkpt>
      <trkpt lat="45.88296" lon="3.03084">
        <ele>641.2</ele>
        <time>2024-07-26T09:11:49Z</time>
      </trkpt>
      <trkpt lat="45.88296" lon="3.03083">
        <ele>641.2</ele>
        <time>2024-07-26T09:11:50Z</time>
      </trkpt>
      <trkpt lat="45.88297" lon="3.03082">
        <ele>641.9</ele>
        <time>2024-07-26T09:11:51Z</time>
      </trkpt>
      <trkpt lat="45.88298" lon="3.03081">
        <ele>642.3</ele>
        <time>2024-07-26T09:11:52Z</time>
      </trkpt>
      <trkpt lat="45.88299" lon="3.03081">
        <ele>642.2</ele>
        <time>2024-07-26T09:11:53Z</time>
      </trkpt>
      <trkpt lat="45.883" lon="3.0308">
        <ele>642.6</ele>
        <time>2024-07-26T09:11:54Z</time>
      </trkpt>
      <trkpt lat="45.88301" lon="3.03081">
        <ele>642.2</ele>
        <time>2024-07-26T09:11:56Z</time>
      </trkpt>
      <trkpt lat="45.88302" lon="3.03081">
        <ele>642.1</ele>
        <time>2024-07-26T09:11:58Z</time>
      </trkpt>
      <trkpt lat="45.88304" lon="3.03081">
        <ele>642.8</ele>
        <time>2024-07-26T09:12:08Z</time>
      </trkpt>
      <trkpt lat="45.88305" lon="3.0308">
        <ele>641.7</ele>
        <time>2024-07-26T09:12:10Z</time>
      </trkpt>
      <trkpt lat="45.88307" lon="3.03078">
        <ele>639</ele>
        <time>2024-07-26T09:12:11Z</time>
      </trkpt>
      <trkpt lat="45.88308" lon="3.03077">
        <ele>638.7</ele>
        <time>2024-07-26T09:12:12Z</time>
      </trkpt>
      <trkpt lat="45.88309" lon="3.03077">
        <ele>639</ele>
        <time>2024-07-26T09:12:13Z</time>
      </trkpt>
      <trkpt lat="45.8831" lon="3.03076">
        <ele>638.8</ele>
        <time>2024-07-26T09:12:15Z</time>
      </trkpt>
      <trkpt lat="45.88311" lon="3.03077">
        <ele>639.8</ele>
        <time>2024-07-26T09:12:17Z</time>
      </trkpt>
      <trkpt lat="45.88313" lon="3.03078">
        <ele>641.1</ele>
        <time>2024-07-26T09:12:19Z</time>
      </trkpt>
      <trkpt lat="45.88314" lon="3.03078">
        <ele>641.8</ele>
        <time>2024-07-26T09:12:21Z</time>
      </trkpt>
      <trkpt lat="45.88315" lon="3.03079">
        <ele>642.5</ele>
        <time>2024-07-26T09:12:23Z</time>
      </trkpt>
      <trkpt lat="45.88317" lon="3.0308">
        <ele>643.1</ele>
        <time>2024-07-26T09:12:25Z</time>
      </trkpt>
      <trkpt lat="45.88318" lon="3.03082">
        <ele>644.1</ele>
        <time>2024-07-26T09:12:27Z</time>
      </trkpt>
      <trkpt lat="45.88319" lon="3.03083">
        <ele>644.2</ele>
        <time>2024-07-26T09:12:29Z</time>
      </trkpt>
      <trkpt lat="45.88321" lon="3.03084">
        <ele>644.8</ele>
        <time>2024-07-26T09:12:31Z</time>
      </trkpt>
      <trkpt lat="45.88322" lon="3.03085">
        <ele>645.1</ele>
        <time>2024-07-26T09:12:33Z</time>
      </trkpt>
      <trkpt lat="45.88323" lon="3.03086">
        <ele>645.6</ele>
        <time>2024-07-26T09:12:34Z</time>
      </trkpt>
      <trkpt lat="45.88324" lon="3.03087">
        <ele>645.4</ele>
        <time>2024-07-26T09:12:36Z</time>
      </trkpt>
      <trkpt lat="45.88326" lon="3.03089">
        <ele>644.7</ele>
        <time>2024-07-26T09:12:38Z</time>
      </trkpt>
      <trkpt lat="45.88327" lon="3.03089">
        <ele>644.4</ele>
        <time>2024-07-26T09:12:40Z</time>
      </trkpt>
      <trkpt lat="45.88328" lon="3.0309">
        <ele>644.5</ele>
        <time>2024-07-26T09:12:43Z</time>
      </trkpt>
      <trkpt lat="45.88329" lon="3.03091">
        <ele>643.6</ele>
        <time>2024-07-26T09:12:45Z</time>
      </trkpt>
      <trkpt lat="45.8833" lon="3.03092">
        <ele>643</ele>
        <time>2024-07-26T09:12:47Z</time>
      </trkpt>
      <trkpt lat="45.88331" lon="3.03093">
        <ele>643</ele>
        <time>2024-07-26T09:12:49Z</time>
      </trkpt>
      <trkpt lat="45.88332" lon="3.03094">
        <ele>642.8</ele>
        <time>2024-07-26T09:12:51Z</time>
      </trkpt>
      <trkpt lat="45.88332" lon="3.03095">
        <ele>643</ele>
        <time>2024-07-26T09:12:53Z</time>
      </trkpt>
      <trkpt lat="45.88333" lon="3.03096">
        <ele>643</ele>
        <time>2024-07-26T09:12:56Z</time>
      </trkpt>
      <trkpt lat="45.88333" lon="3.03098">
        <ele>640.2</ele>
        <time>2024-07-26T09:13:01Z</time>
      </trkpt>
      <trkpt lat="45.88334" lon="3.03098">
        <ele>636.6</ele>
        <time>2024-07-26T09:13:08Z</time>
      </trkpt>
      <trkpt lat="45.88335" lon="3.03099">
        <ele>637.6</ele>
        <time>2024-07-26T09:13:10Z</time>
      </trkpt>
      <trkpt lat="45.88336" lon="3.031">
        <ele>640</ele>
        <time>2024-07-26T09:13:13Z</time>
      </trkpt>
      <trkpt lat="45.88337" lon="3.03101">
        <ele>639.3</ele>
        <time>2024-07-26T09:13:15Z</time>
      </trkpt>
      <trkpt lat="45.88338" lon="3.03101">
        <ele>638.7</ele>
        <time>2024-07-26T09:13:17Z</time>
      </trkpt>
      <trkpt lat="45.88339" lon="3.03102">
        <ele>637.9</ele>
        <time>2024-07-26T09:13:20Z</time>
      </trkpt>
      <trkpt lat="45.88339" lon="3.03104">
        <ele>639</ele>
        <time>2024-07-26T09:13:21Z</time>
      </trkpt>
      <trkpt lat="45.88339" lon="3.03106">
        <ele>638.9</ele>
        <time>2024-07-26T09:13:23Z</time>
      </trkpt>
      <trkpt lat="45.88339" lon="3.03107">
        <ele>638.3</ele>
        <time>2024-07-26T09:13:25Z</time>
      </trkpt>
      <trkpt lat="45.88339" lon="3.03109">
        <ele>637.6</ele>
        <time>2024-07-26T09:13:28Z</time>
      </trkpt>
      <trkpt lat="45.8834" lon="3.03111">
        <ele>637.4</ele>
        <time>2024-07-26T09:13:30Z</time>
      </trkpt>
      <trkpt lat="45.88341" lon="3.03112">
        <ele>637.7</ele>
        <time>2024-07-26T09:13:32Z</time>
      </trkpt>
      <trkpt lat="45.88342" lon="3.03113">
        <ele>637.1</ele>
        <time>2024-07-26T09:13:34Z</time>
      </trkpt>
      <trkpt lat="45.88342" lon="3.03115">
        <ele>636.8</ele>
        <time>2024-07-26T09:13:36Z</time>
      </trkpt>
      <trkpt lat="45.88343" lon="3.03116">
        <ele>638.3</ele>
        <time>2024-07-26T09:13:38Z</time>
      </trkpt>
      <trkpt lat="45.88343" lon="3.03117">
        <ele>638.4</ele>
        <time>2024-07-26T09:13:39Z</time>
      </trkpt>
      <trkpt lat="45.88344" lon="3.03119">
        <ele>638.6</ele>
        <time>2024-07-26T09:13:40Z</time>
      </trkpt>
      <trkpt lat="45.88345" lon="3.0312">
        <ele>638.4</ele>
        <time>2024-07-26T09:13:42Z</time>
      </trkpt>
      <trkpt lat="45.88345" lon="3.03121">
        <ele>639.7</ele>
        <time>2024-07-26T09:13:44Z</time>
      </trkpt>
      <trkpt lat="45.88346" lon="3.03123">
        <ele>640.9</ele>
        <time>2024-07-26T09:13:46Z</time>
      </trkpt>
      <trkpt lat="45.88348" lon="3.03124">
        <ele>640.2</ele>
        <time>2024-07-26T09:13:48Z</time>
      </trkpt>
      <trkpt lat="45.88349" lon="3.03124">
        <ele>640.1</ele>
        <time>2024-07-26T09:13:49Z</time>
      </trkpt>
      <trkpt lat="45.8835" lon="3.03125">
        <ele>639.2</ele>
        <time>2024-07-26T09:13:50Z</time>
      </trkpt>
      <trkpt lat="45.88351" lon="3.03125">
        <ele>637.8</ele>
        <time>2024-07-26T09:13:51Z</time>
      </trkpt>
      <trkpt lat="45.88352" lon="3.03125">
        <ele>636.5</ele>
        <time>2024-07-26T09:13:52Z</time>
      </trkpt>
      <trkpt lat="45.88354" lon="3.03124">
        <ele>635.6</ele>
        <time>2024-07-26T09:13:54Z</time>
      </trkpt>
      <trkpt lat="45.88355" lon="3.03124">
        <ele>635.6</ele>
        <time>2024-07-26T09:13:55Z</time>
      </trkpt>
      <trkpt lat="45.88357" lon="3.03124">
        <ele>635.5</ele>
        <time>2024-07-26T09:13:57Z</time>
      </trkpt>
      <trkpt lat="45.88359" lon="3.03124">
        <ele>635.9</ele>
        <time>2024-07-26T09:13:59Z</time>
      </trkpt>
      <trkpt lat="45.8836" lon="3.03124">
        <ele>636.3</ele>
        <time>2024-07-26T09:14:00Z</time>
      </trkpt>
      <trkpt lat="45.88362" lon="3.03124">
        <ele>636.8</ele>
        <time>2024-07-26T09:14:02Z</time>
      </trkpt>
      <trkpt lat="45.88363" lon="3.03125">
        <ele>635.9</ele>
        <time>2024-07-26T09:14:04Z</time>
      </trkpt>
      <trkpt lat="45.88364" lon="3.03125">
        <ele>635.6</ele>
        <time>2024-07-26T09:14:06Z</time>
      </trkpt>
      <trkpt lat="45.88366" lon="3.03124">
        <ele>635</ele>
        <time>2024-07-26T09:14:08Z</time>
      </trkpt>
      <trkpt lat="45.88368" lon="3.03124">
        <ele>635.3</ele>
        <time>2024-07-26T09:14:10Z</time>
      </trkpt>
      <trkpt lat="45.8837" lon="3.03123">
        <ele>634.4</ele>
        <time>2024-07-26T09:14:12Z</time>
      </trkpt>
      <trkpt lat="45.88371" lon="3.03122">
        <ele>634.8</ele>
        <time>2024-07-26T09:14:13Z</time>
      </trkpt>
      <trkpt lat="45.88372" lon="3.03122">
        <ele>635</ele>
        <time>2024-07-26T09:14:14Z</time>
      </trkpt>
      <trkpt lat="45.88373" lon="3.03121">
        <ele>635.1</ele>
        <time>2024-07-26T09:14:15Z</time>
      </trkpt>
      <trkpt lat="45.88374" lon="3.03121">
        <ele>635.5</ele>
        <time>2024-07-26T09:14:16Z</time>
      </trkpt>
      <trkpt lat="45.88375" lon="3.03121">
        <ele>635.4</ele>
        <time>2024-07-26T09:14:17Z</time>
      </trkpt>
      <trkpt lat="45.88376" lon="3.03121">
        <ele>634.9</ele>
        <time>2024-07-26T09:14:18Z</time>
      </trkpt>
      <trkpt lat="45.88376" lon="3.0312">
        <ele>633.6</ele>
        <time>2024-07-26T09:14:19Z</time>
      </trkpt>
      <trkpt lat="45.88377" lon="3.03119">
        <ele>632.9</ele>
        <time>2024-07-26T09:14:20Z</time>
      </trkpt>
      <trkpt lat="45.88378" lon="3.03118">
        <ele>632.2</ele>
        <time>2024-07-26T09:14:22Z</time>
      </trkpt>
      <trkpt lat="45.88378" lon="3.03116">
        <ele>632.2</ele>
        <time>2024-07-26T09:14:24Z</time>
      </trkpt>
      <trkpt lat="45.88378" lon="3.03114">
        <ele>627.6</ele>
        <time>2024-07-26T09:14:27Z</time>
      </trkpt>
      <trkpt lat="45.88378" lon="3.03114">
        <ele>625.6</ele>
        <time>2024-07-26T09:14:29Z</time>
      </trkpt>
      <trkpt lat="45.88377" lon="3.03113">
        <ele>626.6</ele>
        <time>2024-07-26T09:14:32Z</time>
      </trkpt>
      <trkpt lat="45.88377" lon="3.03111">
        <ele>626.8</ele>
        <time>2024-07-26T09:14:35Z</time>
      </trkpt>
      <trkpt lat="45.88379" lon="3.03112">
        <ele>627</ele>
        <time>2024-07-26T09:14:50Z</time>
      </trkpt>
      <trkpt lat="45.8838" lon="3.03112">
        <ele>629.1</ele>
        <time>2024-07-26T09:14:51Z</time>
      </trkpt>
      <trkpt lat="45.88382" lon="3.03112">
        <ele>628.8</ele>
        <time>2024-07-26T09:14:53Z</time>
      </trkpt>
      <trkpt lat="45.88383" lon="3.03112">
        <ele>628.7</ele>
        <time>2024-07-26T09:14:55Z</time>
      </trkpt>
      <trkpt lat="45.88384" lon="3.03113">
        <ele>629.3</ele>
        <time>2024-07-26T09:14:59Z</time>
      </trkpt>
      <trkpt lat="45.88385" lon="3.03112">
        <ele>629.3</ele>
        <time>2024-07-26T09:15:01Z</time>
      </trkpt>
      <trkpt lat="45.88386" lon="3.03111">
        <ele>628.9</ele>
        <time>2024-07-26T09:15:03Z</time>
      </trkpt>
      <trkpt lat="45.88388" lon="3.03111">
        <ele>629.2</ele>
        <time>2024-07-26T09:15:05Z</time>
      </trkpt>
      <trkpt lat="45.88389" lon="3.03112">
        <ele>629.7</ele>
        <time>2024-07-26T09:15:07Z</time>
      </trkpt>
      <trkpt lat="45.8839" lon="3.03112">
        <ele>629.7</ele>
        <time>2024-07-26T09:15:08Z</time>
      </trkpt>
      <trkpt lat="45.88392" lon="3.03111">
        <ele>628.9</ele>
        <time>2024-07-26T09:15:10Z</time>
      </trkpt>
      <trkpt lat="45.88393" lon="3.03111">
        <ele>629.7</ele>
        <time>2024-07-26T09:15:11Z</time>
      </trkpt>
      <trkpt lat="45.88394" lon="3.03111">
        <ele>629.5</ele>
        <time>2024-07-26T09:15:12Z</time>
      </trkpt>
      <trkpt lat="45.88394" lon="3.03111">
        <ele>629.7</ele>
        <time>2024-07-26T09:15:13Z</time>
      </trkpt>
      <trkpt lat="45.88395" lon="3.0311">
        <ele>629.4</ele>
        <time>2024-07-26T09:15:14Z</time>
      </trkpt>
      <trkpt lat="45.88396" lon="3.0311">
        <ele>627.9</ele>
        <time>2024-07-26T09:15:15Z</time>
      </trkpt>
      <trkpt lat="45.88397" lon="3.03109">
        <ele>628.6</ele>
        <time>2024-07-26T09:15:16Z</time>
      </trkpt>
      <trkpt lat="45.88398" lon="3.03108">
        <ele>628.8</ele>
        <time>2024-07-26T09:15:17Z</time>
      </trkpt>
      <trkpt lat="45.88399" lon="3.03107">
        <ele>629.2</ele>
        <time>2024-07-26T09:15:18Z</time>
      </trkpt>
      <trkpt lat="45.884" lon="3.03106">
        <ele>629.2</ele>
        <time>2024-07-26T09:15:19Z</time>
      </trkpt>
      <trkpt lat="45.88401" lon="3.03106">
        <ele>628.3</ele>
        <time>2024-07-26T09:15:20Z</time>
      </trkpt>
      <trkpt lat="45.88402" lon="3.03106">
        <ele>628.8</ele>
        <time>2024-07-26T09:15:21Z</time>
      </trkpt>
      <trkpt lat="45.88403" lon="3.03106">
        <ele>629.3</ele>
        <time>2024-07-26T09:15:22Z</time>
      </trkpt>
      <trkpt lat="45.88405" lon="3.03105">
        <ele>628.3</ele>
        <time>2024-07-26T09:15:24Z</time>
      </trkpt>
      <trkpt lat="45.88407" lon="3.03104">
        <ele>629.1</ele>
        <time>2024-07-26T09:15:26Z</time>
      </trkpt>
      <trkpt lat="45.88407" lon="3.03103">
        <ele>629.4</ele>
        <time>2024-07-26T09:15:27Z</time>
      </trkpt>
      <trkpt lat="45.88409" lon="3.03103">
        <ele>627.8</ele>
        <time>2024-07-26T09:15:29Z</time>
      </trkpt>
      <trkpt lat="45.8841" lon="3.03103">
        <ele>628.8</ele>
        <time>2024-07-26T09:15:31Z</time>
      </trkpt>
      <trkpt lat="45.88412" lon="3.03102">
        <ele>627.3</ele>
        <time>2024-07-26T09:15:33Z</time>
      </trkpt>
      <trkpt lat="45.88413" lon="3.03102">
        <ele>627.4</ele>
        <time>2024-07-26T09:15:34Z</time>
      </trkpt>
      <trkpt lat="45.88414" lon="3.03102">
        <ele>627.1</ele>
        <time>2024-07-26T09:15:37Z</time>
      </trkpt>
      <trkpt lat="45.88415" lon="3.03103">
        <ele>627.8</ele>
        <time>2024-07-26T09:15:40Z</time>
      </trkpt>
      <trkpt lat="45.88417" lon="3.03104">
        <ele>627.7</ele>
        <time>2024-07-26T09:15:42Z</time>
      </trkpt>
      <trkpt lat="45.88418" lon="3.03105">
        <ele>628.3</ele>
        <time>2024-07-26T09:15:44Z</time>
      </trkpt>
      <trkpt lat="45.88419" lon="3.03105">
        <ele>628.5</ele>
        <time>2024-07-26T09:15:45Z</time>
      </trkpt>
      <trkpt lat="45.8842" lon="3.03106">
        <ele>626.5</ele>
        <time>2024-07-26T09:15:47Z</time>
      </trkpt>
      <trkpt lat="45.88421" lon="3.03106">
        <ele>627.5</ele>
        <time>2024-07-26T09:15:49Z</time>
      </trkpt>
      <trkpt lat="45.88423" lon="3.03107">
        <ele>626.5</ele>
        <time>2024-07-26T09:15:51Z</time>
      </trkpt>
      <trkpt lat="45.88425" lon="3.03106">
        <ele>627.1</ele>
        <time>2024-07-26T09:15:53Z</time>
      </trkpt>
      <trkpt lat="45.88426" lon="3.03108">
        <ele>626.5</ele>
        <time>2024-07-26T09:15:55Z</time>
      </trkpt>
      <trkpt lat="45.88427" lon="3.03108">
        <ele>627.7</ele>
        <time>2024-07-26T09:15:57Z</time>
      </trkpt>
      <trkpt lat="45.88428" lon="3.03107">
        <ele>627.9</ele>
        <time>2024-07-26T09:15:59Z</time>
      </trkpt>
      <trkpt lat="45.8843" lon="3.03107">
        <ele>628.5</ele>
        <time>2024-07-26T09:16:01Z</time>
      </trkpt>
      <trkpt lat="45.88431" lon="3.03108">
        <ele>628.2</ele>
        <time>2024-07-26T09:16:03Z</time>
      </trkpt>
      <trkpt lat="45.88432" lon="3.0311">
        <ele>628.2</ele>
        <time>2024-07-26T09:16:04Z</time>
      </trkpt>
      <trkpt lat="45.88432" lon="3.03111">
        <ele>625.3</ele>
        <time>2024-07-26T09:16:06Z</time>
      </trkpt>
      <trkpt lat="45.88433" lon="3.03112">
        <ele>626</ele>
        <time>2024-07-26T09:16:08Z</time>
      </trkpt>
      <trkpt lat="45.88433" lon="3.03114">
        <ele>628.3</ele>
        <time>2024-07-26T09:16:10Z</time>
      </trkpt>
      <trkpt lat="45.88434" lon="3.03115">
        <ele>628.7</ele>
        <time>2024-07-26T09:16:12Z</time>
      </trkpt>
      <trkpt lat="45.88435" lon="3.03116">
        <ele>628.1</ele>
        <time>2024-07-26T09:16:13Z</time>
      </trkpt>
      <trkpt lat="45.88436" lon="3.03117">
        <ele>627.1</ele>
        <time>2024-07-26T09:16:14Z</time>
      </trkpt>
      <trkpt lat="45.88438" lon="3.03118">
        <ele>626.1</ele>
        <time>2024-07-26T09:16:16Z</time>
      </trkpt>
      <trkpt lat="45.88439" lon="3.03119">
        <ele>626.7</ele>
        <time>2024-07-26T09:16:18Z</time>
      </trkpt>
      <trkpt lat="45.8844" lon="3.03119">
        <ele>624.9</ele>
        <time>2024-07-26T09:16:20Z</time>
      </trkpt>
      <trkpt lat="45.88442" lon="3.03119">
        <ele>624.3</ele>
        <time>2024-07-26T09:16:22Z</time>
      </trkpt>
      <trkpt lat="45.88443" lon="3.03119">
        <ele>623.6</ele>
        <time>2024-07-26T09:16:24Z</time>
      </trkpt>
      <trkpt lat="45.88444" lon="3.03119">
        <ele>623</ele>
        <time>2024-07-26T09:16:25Z</time>
      </trkpt>
      <trkpt lat="45.88445" lon="3.03118">
        <ele>622.4</ele>
        <time>2024-07-26T09:16:26Z</time>
      </trkpt>
      <trkpt lat="45.88446" lon="3.03118">
        <ele>622.1</ele>
        <time>2024-07-26T09:16:27Z</time>
      </trkpt>
      <trkpt lat="45.88447" lon="3.03117">
        <ele>621.8</ele>
        <time>2024-07-26T09:16:28Z</time>
      </trkpt>
      <trkpt lat="45.88448" lon="3.03116">
        <ele>621.3</ele>
        <time>2024-07-26T09:16:29Z</time>
      </trkpt>
      <trkpt lat="45.88449" lon="3.03115">
        <ele>621.2</ele>
        <time>2024-07-26T09:16:30Z</time>
      </trkpt>
      <trkpt lat="45.8845" lon="3.03114">
        <ele>620.9</ele>
        <time>2024-07-26T09:16:32Z</time>
      </trkpt>
      <trkpt lat="45.88451" lon="3.03113">
        <ele>621.3</ele>
        <time>2024-07-26T09:16:34Z</time>
      </trkpt>
      <trkpt lat="45.88453" lon="3.03112">
        <ele>622.6</ele>
        <time>2024-07-26T09:16:36Z</time>
      </trkpt>
      <trkpt lat="45.88454" lon="3.03112">
        <ele>622.7</ele>
        <time>2024-07-26T09:16:37Z</time>
      </trkpt>
      <trkpt lat="45.88454" lon="3.03111">
        <ele>624.1</ele>
        <time>2024-07-26T09:16:38Z</time>
      </trkpt>
      <trkpt lat="45.88455" lon="3.03109">
        <ele>623.5</ele>
        <time>2024-07-26T09:16:39Z</time>
      </trkpt>
      <trkpt lat="45.88455" lon="3.03108">
        <ele>624.5</ele>
        <time>2024-07-26T09:16:40Z</time>
      </trkpt>
      <trkpt lat="45.88456" lon="3.03107">
        <ele>625</ele>
        <time>2024-07-26T09:16:41Z</time>
      </trkpt>
      <trkpt lat="45.88457" lon="3.03106">
        <ele>625.2</ele>
        <time>2024-07-26T09:16:42Z</time>
      </trkpt>
      <trkpt lat="45.88458" lon="3.03104">
        <ele>624.9</ele>
        <time>2024-07-26T09:16:43Z</time>
      </trkpt>
      <trkpt lat="45.88458" lon="3.03102">
        <ele>624.1</ele>
        <time>2024-07-26T09:16:45Z</time>
      </trkpt>
      <trkpt lat="45.88459" lon="3.031">
        <ele>624.6</ele>
        <time>2024-07-26T09:16:47Z</time>
      </trkpt>
      <trkpt lat="45.88459" lon="3.03099">
        <ele>624.4</ele>
        <time>2024-07-26T09:16:48Z</time>
      </trkpt>
      <trkpt lat="45.88459" lon="3.03097">
        <ele>624</ele>
        <time>2024-07-26T09:16:49Z</time>
      </trkpt>
      <trkpt lat="45.8846" lon="3.03096">
        <ele>622.9</ele>
        <time>2024-07-26T09:16:50Z</time>
      </trkpt>
      <trkpt lat="45.8846" lon="3.03094">
        <ele>622</ele>
        <time>2024-07-26T09:16:51Z</time>
      </trkpt>
      <trkpt lat="45.8846" lon="3.03093">
        <ele>621.6</ele>
        <time>2024-07-26T09:16:52Z</time>
      </trkpt>
      <trkpt lat="45.8846" lon="3.03091">
        <ele>619.2</ele>
        <time>2024-07-26T09:16:53Z</time>
      </trkpt>
      <trkpt lat="45.8846" lon="3.03087">
        <ele>618.2</ele>
        <time>2024-07-26T09:16:55Z</time>
      </trkpt>
      <trkpt lat="45.8846" lon="3.03085">
        <ele>617.9</ele>
        <time>2024-07-26T09:16:56Z</time>
      </trkpt>
      <trkpt lat="45.8846" lon="3.03084">
        <ele>618.1</ele>
        <time>2024-07-26T09:16:58Z</time>
      </trkpt>
      <trkpt lat="45.88462" lon="3.03082">
        <ele>619.2</ele>
        <time>2024-07-26T09:17:00Z</time>
      </trkpt>
      <trkpt lat="45.88462" lon="3.03081">
        <ele>618.6</ele>
        <time>2024-07-26T09:17:01Z</time>
      </trkpt>
      <trkpt lat="45.88463" lon="3.0308">
        <ele>618.3</ele>
        <time>2024-07-26T09:17:02Z</time>
      </trkpt>
      <trkpt lat="45.88463" lon="3.03077">
        <ele>618</ele>
        <time>2024-07-26T09:17:04Z</time>
      </trkpt>
      <trkpt lat="45.88463" lon="3.03076">
        <ele>617.7</ele>
        <time>2024-07-26T09:17:05Z</time>
      </trkpt>
      <trkpt lat="45.88463" lon="3.03074">
        <ele>617.5</ele>
        <time>2024-07-26T09:17:06Z</time>
      </trkpt>
      <trkpt lat="45.88463" lon="3.03073">
        <ele>617.5</ele>
        <time>2024-07-26T09:17:07Z</time>
      </trkpt>
      <trkpt lat="45.88463" lon="3.0307">
        <ele>616.7</ele>
        <time>2024-07-26T09:17:09Z</time>
      </trkpt>
      <trkpt lat="45.88462" lon="3.03068">
        <ele>617</ele>
        <time>2024-07-26T09:17:11Z</time>
      </trkpt>
      <trkpt lat="45.88462" lon="3.03067">
        <ele>617.2</ele>
        <time>2024-07-26T09:17:12Z</time>
      </trkpt>
      <trkpt lat="45.88462" lon="3.03065">
        <ele>617.5</ele>
        <time>2024-07-26T09:17:14Z</time>
      </trkpt>
      <trkpt lat="45.88462" lon="3.03063">
        <ele>617.7</ele>
        <time>2024-07-26T09:17:16Z</time>
      </trkpt>
      <trkpt lat="45.88462" lon="3.03061">
        <ele>618.2</ele>
        <time>2024-07-26T09:17:17Z</time>
      </trkpt>
      <trkpt lat="45.88462" lon="3.03059">
        <ele>619.5</ele>
        <time>2024-07-26T09:17:19Z</time>
      </trkpt>
      <trkpt lat="45.88463" lon="3.03058">
        <ele>619.9</ele>
        <time>2024-07-26T09:17:21Z</time>
      </trkpt>
      <trkpt lat="45.88464" lon="3.03057">
        <ele>620.2</ele>
        <time>2024-07-26T09:17:22Z</time>
      </trkpt>
      <trkpt lat="45.88464" lon="3.03056">
        <ele>620.5</ele>
        <time>2024-07-26T09:17:23Z</time>
      </trkpt>
      <trkpt lat="45.88465" lon="3.03054">
        <ele>621.6</ele>
        <time>2024-07-26T09:17:25Z</time>
      </trkpt>
      <trkpt lat="45.88466" lon="3.03052">
        <ele>622</ele>
        <time>2024-07-26T09:17:27Z</time>
      </trkpt>
      <trkpt lat="45.88466" lon="3.0305">
        <ele>623</ele>
        <time>2024-07-26T09:17:29Z</time>
      </trkpt>
      <trkpt lat="45.88467" lon="3.03049">
        <ele>623.6</ele>
        <time>2024-07-26T09:17:30Z</time>
      </trkpt>
      <trkpt lat="45.88467" lon="3.03047">
        <ele>623.2</ele>
        <time>2024-07-26T09:17:31Z</time>
      </trkpt>
      <trkpt lat="45.88468" lon="3.03045">
        <ele>622</ele>
        <time>2024-07-26T09:17:32Z</time>
      </trkpt>
      <trkpt lat="45.88468" lon="3.03044">
        <ele>620</ele>
        <time>2024-07-26T09:17:33Z</time>
      </trkpt>
      <trkpt lat="45.88468" lon="3.03042">
        <ele>620</ele>
        <time>2024-07-26T09:17:34Z</time>
      </trkpt>
      <trkpt lat="45.88468" lon="3.03041">
        <ele>619.8</ele>
        <time>2024-07-26T09:17:35Z</time>
      </trkpt>
      <trkpt lat="45.88468" lon="3.03039">
        <ele>620.1</ele>
        <time>2024-07-26T09:17:36Z</time>
      </trkpt>
      <trkpt lat="45.88468" lon="3.03038">
        <ele>619.2</ele>
        <time>2024-07-26T09:17:37Z</time>
      </trkpt>
      <trkpt lat="45.88469" lon="3.03035">
        <ele>617.2</ele>
        <time>2024-07-26T09:17:39Z</time>
      </trkpt>
      <trkpt lat="45.88469" lon="3.03034">
        <ele>616</ele>
        <time>2024-07-26T09:17:40Z</time>
      </trkpt>
      <trkpt lat="45.88469" lon="3.03032">
        <ele>615.5</ele>
        <time>2024-07-26T09:17:42Z</time>
      </trkpt>
      <trkpt lat="45.8847" lon="3.03031">
        <ele>614.9</ele>
        <time>2024-07-26T09:17:43Z</time>
      </trkpt>
      <trkpt lat="45.8847" lon="3.03029">
        <ele>614.4</ele>
        <time>2024-07-26T09:17:44Z</time>
      </trkpt>
      <trkpt lat="45.8847" lon="3.03028">
        <ele>614.2</ele>
        <time>2024-07-26T09:17:45Z</time>
      </trkpt>
      <trkpt lat="45.8847" lon="3.03026">
        <ele>614.4</ele>
        <time>2024-07-26T09:17:46Z</time>
      </trkpt>
      <trkpt lat="45.8847" lon="3.03025">
        <ele>614.2</ele>
        <time>2024-07-26T09:17:47Z</time>
      </trkpt>
      <trkpt lat="45.8847" lon="3.03023">
        <ele>615.9</ele>
        <time>2024-07-26T09:17:48Z</time>
      </trkpt>
      <trkpt lat="45.88471" lon="3.03021">
        <ele>618.9</ele>
        <time>2024-07-26T09:17:50Z</time>
      </trkpt>
      <trkpt lat="45.88471" lon="3.0302">
        <ele>617.7</ele>
        <time>2024-07-26T09:17:51Z</time>
      </trkpt>
      <trkpt lat="45.88472" lon="3.03019">
        <ele>617.4</ele>
        <time>2024-07-26T09:17:52Z</time>
      </trkpt>
      <trkpt lat="45.88473" lon="3.03018">
        <ele>617.7</ele>
        <time>2024-07-26T09:17:53Z</time>
      </trkpt>
      <trkpt lat="45.88474" lon="3.03016">
        <ele>614.2</ele>
        <time>2024-07-26T09:17:55Z</time>
      </trkpt>
      <trkpt lat="45.88474" lon="3.03015">
        <ele>614.9</ele>
        <time>2024-07-26T09:17:56Z</time>
      </trkpt>
      <trkpt lat="45.88475" lon="3.03014">
        <ele>616</ele>
        <time>2024-07-26T09:17:59Z</time>
      </trkpt>
      <trkpt lat="45.88475" lon="3.03012">
        <ele>618.5</ele>
        <time>2024-07-26T09:18:01Z</time>
      </trkpt>
      <trkpt lat="45.88476" lon="3.0301">
        <ele>617.1</ele>
        <time>2024-07-26T09:18:03Z</time>
      </trkpt>
      <trkpt lat="45.88477" lon="3.03008">
        <ele>618.9</ele>
        <time>2024-07-26T09:18:04Z</time>
      </trkpt>
      <trkpt lat="45.88478" lon="3.03007">
        <ele>620.7</ele>
        <time>2024-07-26T09:18:06Z</time>
      </trkpt>
      <trkpt lat="45.88479" lon="3.03006">
        <ele>622.5</ele>
        <time>2024-07-26T09:18:08Z</time>
      </trkpt>
      <trkpt lat="45.8848" lon="3.03005">
        <ele>622.3</ele>
        <time>2024-07-26T09:18:09Z</time>
      </trkpt>
      <trkpt lat="45.88481" lon="3.03004">
        <ele>626</ele>
        <time>2024-07-26T09:18:12Z</time>
      </trkpt>
      <trkpt lat="45.88481" lon="3.03003">
        <ele>624.2</ele>
        <time>2024-07-26T09:18:13Z</time>
      </trkpt>
      <trkpt lat="45.88483" lon="3.03002">
        <ele>623.7</ele>
        <time>2024-07-26T09:18:14Z</time>
      </trkpt>
      <trkpt lat="45.88483" lon="3.03001">
        <ele>624.5</ele>
        <time>2024-07-26T09:18:15Z</time>
      </trkpt>
      <trkpt lat="45.88484" lon="3.02999">
        <ele>623.7</ele>
        <time>2024-07-26T09:18:16Z</time>
      </trkpt>
      <trkpt lat="45.88484" lon="3.02998">
        <ele>623.9</ele>
        <time>2024-07-26T09:18:17Z</time>
      </trkpt>
      <trkpt lat="45.88485" lon="3.02996">
        <ele>623.8</ele>
        <time>2024-07-26T09:18:18Z</time>
      </trkpt>
      <trkpt lat="45.88485" lon="3.02994">
        <ele>622.6</ele>
        <time>2024-07-26T09:18:19Z</time>
      </trkpt>
      <trkpt lat="45.88486" lon="3.02992">
        <ele>621.1</ele>
        <time>2024-07-26T09:18:20Z</time>
      </trkpt>
      <trkpt lat="45.88487" lon="3.0299">
        <ele>620.6</ele>
        <time>2024-07-26T09:18:21Z</time>
      </trkpt>
      <trkpt lat="45.88487" lon="3.02988">
        <ele>619.9</ele>
        <time>2024-07-26T09:18:22Z</time>
      </trkpt>
      <trkpt lat="45.88487" lon="3.02987">
        <ele>618.9</ele>
        <time>2024-07-26T09:18:23Z</time>
      </trkpt>
      <trkpt lat="45.88487" lon="3.02985">
        <ele>617.3</ele>
        <time>2024-07-26T09:18:24Z</time>
      </trkpt>
      <trkpt lat="45.88488" lon="3.02983">
        <ele>616.8</ele>
        <time>2024-07-26T09:18:25Z</time>
      </trkpt>
      <trkpt lat="45.88488" lon="3.02982">
        <ele>616.4</ele>
        <time>2024-07-26T09:18:26Z</time>
      </trkpt>
      <trkpt lat="45.88489" lon="3.0298">
        <ele>616.1</ele>
        <time>2024-07-26T09:18:28Z</time>
      </trkpt>
      <trkpt lat="45.88489" lon="3.02979">
        <ele>614.2</ele>
        <time>2024-07-26T09:18:30Z</time>
      </trkpt>
      <trkpt lat="45.8849" lon="3.02977">
        <ele>612.2</ele>
        <time>2024-07-26T09:18:32Z</time>
      </trkpt>
      <trkpt lat="45.8849" lon="3.02975">
        <ele>611.3</ele>
        <time>2024-07-26T09:18:34Z</time>
      </trkpt>
      <trkpt lat="45.88489" lon="3.02973">
        <ele>610.4</ele>
        <time>2024-07-26T09:18:35Z</time>
      </trkpt>
      <trkpt lat="45.8849" lon="3.02972">
        <ele>611.3</ele>
        <time>2024-07-26T09:18:36Z</time>
      </trkpt>
      <trkpt lat="45.8849" lon="3.02971">
        <ele>611</ele>
        <time>2024-07-26T09:18:37Z</time>
      </trkpt>
      <trkpt lat="45.88491" lon="3.0297">
        <ele>611.2</ele>
        <time>2024-07-26T09:18:38Z</time>
      </trkpt>
      <trkpt lat="45.88492" lon="3.02968">
        <ele>610.8</ele>
        <time>2024-07-26T09:18:40Z</time>
      </trkpt>
      <trkpt lat="45.88493" lon="3.02966">
        <ele>610.4</ele>
        <time>2024-07-26T09:18:42Z</time>
      </trkpt>
      <trkpt lat="45.88494" lon="3.02965">
        <ele>609.1</ele>
        <time>2024-07-26T09:18:43Z</time>
      </trkpt>
      <trkpt lat="45.88494" lon="3.02963">
        <ele>609.6</ele>
        <time>2024-07-26T09:18:45Z</time>
      </trkpt>
      <trkpt lat="45.88494" lon="3.02961">
        <ele>608.6</ele>
        <time>2024-07-26T09:18:46Z</time>
      </trkpt>
      <trkpt lat="45.88494" lon="3.0296">
        <ele>607.8</ele>
        <time>2024-07-26T09:18:47Z</time>
      </trkpt>
      <trkpt lat="45.88494" lon="3.02958">
        <ele>607.9</ele>
        <time>2024-07-26T09:18:48Z</time>
      </trkpt>
      <trkpt lat="45.88495" lon="3.02956">
        <ele>608.2</ele>
        <time>2024-07-26T09:18:50Z</time>
      </trkpt>
      <trkpt lat="45.88496" lon="3.02955">
        <ele>607.4</ele>
        <time>2024-07-26T09:18:52Z</time>
      </trkpt>
      <trkpt lat="45.88497" lon="3.02954">
        <ele>607.4</ele>
        <time>2024-07-26T09:18:54Z</time>
      </trkpt>
      <trkpt lat="45.88498" lon="3.02953">
        <ele>611.5</ele>
        <time>2024-07-26T09:18:56Z</time>
      </trkpt>
      <trkpt lat="45.885" lon="3.02953">
        <ele>615.8</ele>
        <time>2024-07-26T09:18:58Z</time>
      </trkpt>
      <trkpt lat="45.88501" lon="3.02952">
        <ele>613.2</ele>
        <time>2024-07-26T09:19:00Z</time>
      </trkpt>
      <trkpt lat="45.88501" lon="3.02951">
        <ele>611.7</ele>
        <time>2024-07-26T09:19:02Z</time>
      </trkpt>
      <trkpt lat="45.88502" lon="3.0295">
        <ele>610.8</ele>
        <time>2024-07-26T09:19:03Z</time>
      </trkpt>
      <trkpt lat="45.88504" lon="3.02949">
        <ele>612.2</ele>
        <time>2024-07-26T09:19:04Z</time>
      </trkpt>
      <trkpt lat="45.88505" lon="3.02949">
        <ele>612.2</ele>
        <time>2024-07-26T09:19:05Z</time>
      </trkpt>
      <trkpt lat="45.88506" lon="3.02949">
        <ele>611.4</ele>
        <time>2024-07-26T09:19:06Z</time>
      </trkpt>
      <trkpt lat="45.88507" lon="3.0295">
        <ele>612.8</ele>
        <time>2024-07-26T09:19:07Z</time>
      </trkpt>
      <trkpt lat="45.88508" lon="3.0295">
        <ele>611.8</ele>
        <time>2024-07-26T09:19:08Z</time>
      </trkpt>
      <trkpt lat="45.88509" lon="3.0295">
        <ele>611.9</ele>
        <time>2024-07-26T09:19:09Z</time>
      </trkpt>
      <trkpt lat="45.88511" lon="3.0295">
        <ele>613.4</ele>
        <time>2024-07-26T09:19:11Z</time>
      </trkpt>
      <trkpt lat="45.88512" lon="3.02949">
        <ele>612.6</ele>
        <time>2024-07-26T09:19:13Z</time>
      </trkpt>
      <trkpt lat="45.88512" lon="3.02951">
        <ele>614.2</ele>
        <time>2024-07-26T09:19:16Z</time>
      </trkpt>
      <trkpt lat="45.88512" lon="3.02952">
        <ele>612.8</ele>
        <time>2024-07-26T09:19:18Z</time>
      </trkpt>
      <trkpt lat="45.88512" lon="3.02954">
        <ele>613.3</ele>
        <time>2024-07-26T09:19:20Z</time>
      </trkpt>
      <trkpt lat="45.88513" lon="3.02955">
        <ele>614.4</ele>
        <time>2024-07-26T09:19:22Z</time>
      </trkpt>
      <trkpt lat="45.88514" lon="3.02955">
        <ele>614.6</ele>
        <time>2024-07-26T09:19:24Z</time>
      </trkpt>
      <trkpt lat="45.88515" lon="3.02956">
        <ele>616.9</ele>
        <time>2024-07-26T09:19:26Z</time>
      </trkpt>
      <trkpt lat="45.88515" lon="3.02958">
        <ele>617.5</ele>
        <time>2024-07-26T09:19:28Z</time>
      </trkpt>
      <trkpt lat="45.88514" lon="3.02958">
        <ele>614.2</ele>
        <time>2024-07-26T09:19:31Z</time>
      </trkpt>
      <trkpt lat="45.88515" lon="3.02959">
        <ele>615.2</ele>
        <time>2024-07-26T09:19:33Z</time>
      </trkpt>
      <trkpt lat="45.88517" lon="3.0296">
        <ele>619.1</ele>
        <time>2024-07-26T09:19:35Z</time>
      </trkpt>
      <trkpt lat="45.88518" lon="3.02961">
        <ele>622.5</ele>
        <time>2024-07-26T09:19:38Z</time>
      </trkpt>
      <trkpt lat="45.88519" lon="3.02961">
        <ele>621.9</ele>
        <time>2024-07-26T09:19:39Z</time>
      </trkpt>
      <trkpt lat="45.8852" lon="3.02963">
        <ele>621.7</ele>
        <time>2024-07-26T09:19:41Z</time>
      </trkpt>
      <trkpt lat="45.8852" lon="3.02964">
        <ele>624.8</ele>
        <time>2024-07-26T09:19:43Z</time>
      </trkpt>
      <trkpt lat="45.88521" lon="3.02966">
        <ele>624.3</ele>
        <time>2024-07-26T09:19:44Z</time>
      </trkpt>
      <trkpt lat="45.88521" lon="3.02968">
        <ele>623.9</ele>
        <time>2024-07-26T09:19:46Z</time>
      </trkpt>
      <trkpt lat="45.88522" lon="3.02969">
        <ele>623.2</ele>
        <time>2024-07-26T09:19:47Z</time>
      </trkpt>
      <trkpt lat="45.88523" lon="3.0297">
        <ele>621.2</ele>
        <time>2024-07-26T09:19:48Z</time>
      </trkpt>
      <trkpt lat="45.88526" lon="3.02971">
        <ele>618.9</ele>
        <time>2024-07-26T09:19:51Z</time>
      </trkpt>
      <trkpt lat="45.88527" lon="3.02972">
        <ele>618.9</ele>
        <time>2024-07-26T09:19:52Z</time>
      </trkpt>
      <trkpt lat="45.88528" lon="3.02974">
        <ele>617.4</ele>
        <time>2024-07-26T09:19:54Z</time>
      </trkpt>
      <trkpt lat="45.88528" lon="3.02976">
        <ele>618.9</ele>
        <time>2024-07-26T09:19:55Z</time>
      </trkpt>
      <trkpt lat="45.88528" lon="3.02978">
        <ele>620.8</ele>
        <time>2024-07-26T09:19:57Z</time>
      </trkpt>
      <trkpt lat="45.88528" lon="3.0298">
        <ele>619.5</ele>
        <time>2024-07-26T09:19:58Z</time>
      </trkpt>
      <trkpt lat="45.88528" lon="3.02982">
        <ele>621.7</ele>
        <time>2024-07-26T09:19:59Z</time>
      </trkpt>
      <trkpt lat="45.88528" lon="3.02983">
        <ele>621.5</ele>
        <time>2024-07-26T09:20:00Z</time>
      </trkpt>
      <trkpt lat="45.88528" lon="3.02985">
        <ele>622.9</ele>
        <time>2024-07-26T09:20:02Z</time>
      </trkpt>
      <trkpt lat="45.88529" lon="3.02987">
        <ele>620.8</ele>
        <time>2024-07-26T09:20:03Z</time>
      </trkpt>
      <trkpt lat="45.88529" lon="3.02988">
        <ele>619.6</ele>
        <time>2024-07-26T09:20:04Z</time>
      </trkpt>
      <trkpt lat="45.88529" lon="3.0299">
        <ele>622.1</ele>
        <time>2024-07-26T09:20:05Z</time>
      </trkpt>
      <trkpt lat="45.88529" lon="3.02993">
        <ele>628.3</ele>
        <time>2024-07-26T09:20:07Z</time>
      </trkpt>
      <trkpt lat="45.8853" lon="3.02995">
        <ele>632</ele>
        <time>2024-07-26T09:20:09Z</time>
      </trkpt>
      <trkpt lat="45.8853" lon="3.02997">
        <ele>631.7</ele>
        <time>2024-07-26T09:20:10Z</time>
      </trkpt>
      <trkpt lat="45.88531" lon="3.02999">
        <ele>632.1</ele>
        <time>2024-07-26T09:20:11Z</time>
      </trkpt>
      <trkpt lat="45.88532" lon="3.03001">
        <ele>629.1</ele>
        <time>2024-07-26T09:20:12Z</time>
      </trkpt>
      <trkpt lat="45.88533" lon="3.03003">
        <ele>628.6</ele>
        <time>2024-07-26T09:20:13Z</time>
      </trkpt>
      <trkpt lat="45.88533" lon="3.03004">
        <ele>630.7</ele>
        <time>2024-07-26T09:20:14Z</time>
      </trkpt>
      <trkpt lat="45.88533" lon="3.03005">
        <ele>629.7</ele>
        <time>2024-07-26T09:20:16Z</time>
      </trkpt>
      <trkpt lat="45.88532" lon="3.03006">
        <ele>632.4</ele>
        <time>2024-07-26T09:20:20Z</time>
      </trkpt>
      <trkpt lat="45.88531" lon="3.03007">
        <ele>631.3</ele>
        <time>2024-07-26T09:20:21Z</time>
      </trkpt>
      <trkpt lat="45.8853" lon="3.03008">
        <ele>630.4</ele>
        <time>2024-07-26T09:20:22Z</time>
      </trkpt>
      <trkpt lat="45.8853" lon="3.0301">
        <ele>629.5</ele>
        <time>2024-07-26T09:20:23Z</time>
      </trkpt>
      <trkpt lat="45.8853" lon="3.03012">
        <ele>630</ele>
        <time>2024-07-26T09:20:24Z</time>
      </trkpt>
      <trkpt lat="45.8853" lon="3.03014">
        <ele>629.9</ele>
        <time>2024-07-26T09:20:25Z</time>
      </trkpt>
      <trkpt lat="45.88531" lon="3.03017">
        <ele>630.7</ele>
        <time>2024-07-26T09:20:26Z</time>
      </trkpt>
      <trkpt lat="45.88531" lon="3.03018">
        <ele>629.5</ele>
        <time>2024-07-26T09:20:27Z</time>
      </trkpt>
      <trkpt lat="45.88532" lon="3.0302">
        <ele>628</ele>
        <time>2024-07-26T09:20:28Z</time>
      </trkpt>
      <trkpt lat="45.88533" lon="3.03023">
        <ele>626.1</ele>
        <time>2024-07-26T09:20:29Z</time>
      </trkpt>
      <trkpt lat="45.88534" lon="3.03024">
        <ele>623.8</ele>
        <time>2024-07-26T09:20:30Z</time>
      </trkpt>
      <trkpt lat="45.88536" lon="3.03026">
        <ele>623.7</ele>
        <time>2024-07-26T09:20:31Z</time>
      </trkpt>
      <trkpt lat="45.88537" lon="3.03027">
        <ele>622.4</ele>
        <time>2024-07-26T09:20:32Z</time>
      </trkpt>
      <trkpt lat="45.88538" lon="3.03028">
        <ele>622.3</ele>
        <time>2024-07-26T09:20:33Z</time>
      </trkpt>
      <trkpt lat="45.88539" lon="3.0303">
        <ele>621.4</ele>
        <time>2024-07-26T09:20:34Z</time>
      </trkpt>
      <trkpt lat="45.8854" lon="3.03031">
        <ele>620.2</ele>
        <time>2024-07-26T09:20:35Z</time>
      </trkpt>
      <trkpt lat="45.8854" lon="3.03032">
        <ele>620.1</ele>
        <time>2024-07-26T09:20:36Z</time>
      </trkpt>
      <trkpt lat="45.8854" lon="3.03033">
        <ele>620.9</ele>
        <time>2024-07-26T09:20:37Z</time>
      </trkpt>
      <trkpt lat="45.88541" lon="3.03035">
        <ele>619.5</ele>
        <time>2024-07-26T09:20:38Z</time>
      </trkpt>
      <trkpt lat="45.88541" lon="3.03036">
        <ele>619.6</ele>
        <time>2024-07-26T09:20:39Z</time>
      </trkpt>
      <trkpt lat="45.88542" lon="3.03038">
        <ele>618.7</ele>
        <time>2024-07-26T09:20:41Z</time>
      </trkpt>
      <trkpt lat="45.88543" lon="3.03039">
        <ele>620.6</ele>
        <time>2024-07-26T09:20:43Z</time>
      </trkpt>
      <trkpt lat="45.88544" lon="3.0304">
        <ele>622.5</ele>
        <time>2024-07-26T09:20:44Z</time>
      </trkpt>
      <trkpt lat="45.88545" lon="3.0304">
        <ele>621.1</ele>
        <time>2024-07-26T09:20:45Z</time>
      </trkpt>
      <trkpt lat="45.88546" lon="3.0304">
        <ele>620.6</ele>
        <time>2024-07-26T09:20:46Z</time>
      </trkpt>
      <trkpt lat="45.88548" lon="3.03041">
        <ele>618.1</ele>
        <time>2024-07-26T09:20:48Z</time>
      </trkpt>
      <trkpt lat="45.88549" lon="3.03043">
        <ele>618.7</ele>
        <time>2024-07-26T09:20:49Z</time>
      </trkpt>
      <trkpt lat="45.88549" lon="3.03044">
        <ele>618.1</ele>
        <time>2024-07-26T09:20:50Z</time>
      </trkpt>
      <trkpt lat="45.8855" lon="3.03046">
        <ele>620.4</ele>
        <time>2024-07-26T09:20:52Z</time>
      </trkpt>
      <trkpt lat="45.88549" lon="3.0305">
        <ele>620.9</ele>
        <time>2024-07-26T09:20:56Z</time>
      </trkpt>
      <trkpt lat="45.88548" lon="3.03051">
        <ele>622.4</ele>
        <time>2024-07-26T09:20:57Z</time>
      </trkpt>
      <trkpt lat="45.88548" lon="3.03052">
        <ele>624.4</ele>
        <time>2024-07-26T09:20:58Z</time>
      </trkpt>
      <trkpt lat="45.88547" lon="3.03054">
        <ele>624.4</ele>
        <time>2024-07-26T09:20:59Z</time>
      </trkpt>
      <trkpt lat="45.88547" lon="3.03056">
        <ele>625.3</ele>
        <time>2024-07-26T09:21:00Z</time>
      </trkpt>
      <trkpt lat="45.88546" lon="3.03058">
        <ele>627.6</ele>
        <time>2024-07-26T09:21:01Z</time>
      </trkpt>
      <trkpt lat="45.88546" lon="3.03061">
        <ele>628.9</ele>
        <time>2024-07-26T09:21:02Z</time>
      </trkpt>
      <trkpt lat="45.88546" lon="3.03063">
        <ele>629.9</ele>
        <time>2024-07-26T09:21:03Z</time>
      </trkpt>
      <trkpt lat="45.88546" lon="3.03064">
        <ele>629.5</ele>
        <time>2024-07-26T09:21:04Z</time>
      </trkpt>
      <trkpt lat="45.88545" lon="3.03066">
        <ele>632.2</ele>
        <time>2024-07-26T09:21:05Z</time>
      </trkpt>
      <trkpt lat="45.88545" lon="3.03067">
        <ele>634.5</ele>
        <time>2024-07-26T09:21:06Z</time>
      </trkpt>
      <trkpt lat="45.88545" lon="3.03069">
        <ele>634.5</ele>
        <time>2024-07-26T09:21:08Z</time>
      </trkpt>
      <trkpt lat="45.88545" lon="3.03071">
        <ele>633.6</ele>
        <time>2024-07-26T09:21:09Z</time>
      </trkpt>
      <trkpt lat="45.88545" lon="3.03073">
        <ele>628.7</ele>
        <time>2024-07-26T09:21:10Z</time>
      </trkpt>
      <trkpt lat="45.88546" lon="3.03075">
        <ele>628.2</ele>
        <time>2024-07-26T09:21:12Z</time>
      </trkpt>
      <trkpt lat="45.88546" lon="3.03076">
        <ele>628.8</ele>
        <time>2024-07-26T09:21:13Z</time>
      </trkpt>
      <trkpt lat="45.88547" lon="3.03077">
        <ele>628.2</ele>
        <time>2024-07-26T09:21:14Z</time>
      </trkpt>
      <trkpt lat="45.88548" lon="3.03079">
        <ele>625.3</ele>
        <time>2024-07-26T09:21:15Z</time>
      </trkpt>
      <trkpt lat="45.88548" lon="3.03081">
        <ele>625.9</ele>
        <time>2024-07-26T09:21:16Z</time>
      </trkpt>
      <trkpt lat="45.88549" lon="3.03082">
        <ele>625.3</ele>
        <time>2024-07-26T09:21:17Z</time>
      </trkpt>
      <trkpt lat="45.8855" lon="3.03084">
        <ele>624.9</ele>
        <time>2024-07-26T09:21:18Z</time>
      </trkpt>
      <trkpt lat="45.88551" lon="3.03086">
        <ele>624.2</ele>
        <time>2024-07-26T09:21:19Z</time>
      </trkpt>
      <trkpt lat="45.88552" lon="3.03087">
        <ele>622.7</ele>
        <time>2024-07-26T09:21:20Z</time>
      </trkpt>
      <trkpt lat="45.88553" lon="3.03089">
        <ele>621.3</ele>
        <time>2024-07-26T09:21:21Z</time>
      </trkpt>
      <trkpt lat="45.88554" lon="3.0309">
        <ele>621.1</ele>
        <time>2024-07-26T09:21:22Z</time>
      </trkpt>
      <trkpt lat="45.88554" lon="3.03092">
        <ele>619.7</ele>
        <time>2024-07-26T09:21:23Z</time>
      </trkpt>
      <trkpt lat="45.88555" lon="3.03093">
        <ele>619</ele>
        <time>2024-07-26T09:21:24Z</time>
      </trkpt>
      <trkpt lat="45.88555" lon="3.03094">
        <ele>619</ele>
        <time>2024-07-26T09:21:25Z</time>
      </trkpt>
      <trkpt lat="45.88556" lon="3.03095">
        <ele>618.4</ele>
        <time>2024-07-26T09:21:26Z</time>
      </trkpt>
      <trkpt lat="45.88557" lon="3.03096">
        <ele>617.4</ele>
        <time>2024-07-26T09:21:27Z</time>
      </trkpt>
      <trkpt lat="45.88558" lon="3.03098">
        <ele>616.7</ele>
        <time>2024-07-26T09:21:29Z</time>
      </trkpt>
      <trkpt lat="45.88559" lon="3.031">
        <ele>615.2</ele>
        <time>2024-07-26T09:21:30Z</time>
      </trkpt>
      <trkpt lat="45.8856" lon="3.03101">
        <ele>615.6</ele>
        <time>2024-07-26T09:21:31Z</time>
      </trkpt>
      <trkpt lat="45.88561" lon="3.03102">
        <ele>615.8</ele>
        <time>2024-07-26T09:21:32Z</time>
      </trkpt>
      <trkpt lat="45.88562" lon="3.03104">
        <ele>612</ele>
        <time>2024-07-26T09:21:34Z</time>
      </trkpt>
      <trkpt lat="45.88563" lon="3.03105">
        <ele>610.9</ele>
        <time>2024-07-26T09:21:35Z</time>
      </trkpt>
      <trkpt lat="45.88564" lon="3.03106">
        <ele>612.3</ele>
        <time>2024-07-26T09:21:36Z</time>
      </trkpt>
      <trkpt lat="45.88564" lon="3.03108">
        <ele>612</ele>
        <time>2024-07-26T09:21:37Z</time>
      </trkpt>
      <trkpt lat="45.88564" lon="3.03109">
        <ele>611.7</ele>
        <time>2024-07-26T09:21:38Z</time>
      </trkpt>
      <trkpt lat="45.88565" lon="3.03111">
        <ele>611.5</ele>
        <time>2024-07-26T09:21:40Z</time>
      </trkpt>
      <trkpt lat="45.88565" lon="3.03113">
        <ele>614.9</ele>
        <time>2024-07-26T09:21:42Z</time>
      </trkpt>
      <trkpt lat="45.88565" lon="3.03115">
        <ele>617.6</ele>
        <time>2024-07-26T09:21:44Z</time>
      </trkpt>
      <trkpt lat="45.88566" lon="3.03117">
        <ele>617.8</ele>
        <time>2024-07-26T09:21:46Z</time>
      </trkpt>
      <trkpt lat="45.88566" lon="3.03118">
        <ele>617.9</ele>
        <time>2024-07-26T09:21:47Z</time>
      </trkpt>
      <trkpt lat="45.88567" lon="3.03119">
        <ele>616.2</ele>
        <time>2024-07-26T09:21:48Z</time>
      </trkpt>
      <trkpt lat="45.88568" lon="3.0312">
        <ele>615.7</ele>
        <time>2024-07-26T09:21:49Z</time>
      </trkpt>
      <trkpt lat="45.88569" lon="3.03122">
        <ele>614.7</ele>
        <time>2024-07-26T09:21:50Z</time>
      </trkpt>
      <trkpt lat="45.8857" lon="3.03123">
        <ele>612.6</ele>
        <time>2024-07-26T09:21:51Z</time>
      </trkpt>
      <trkpt lat="45.88571" lon="3.03124">
        <ele>613.1</ele>
        <time>2024-07-26T09:21:52Z</time>
      </trkpt>
      <trkpt lat="45.88573" lon="3.03126">
        <ele>609.9</ele>
        <time>2024-07-26T09:21:53Z</time>
      </trkpt>
      <trkpt lat="45.88574" lon="3.03127">
        <ele>608.9</ele>
        <time>2024-07-26T09:21:54Z</time>
      </trkpt>
      <trkpt lat="45.88575" lon="3.03128">
        <ele>608</ele>
        <time>2024-07-26T09:21:55Z</time>
      </trkpt>
      <trkpt lat="45.88576" lon="3.03129">
        <ele>609</ele>
        <time>2024-07-26T09:21:56Z</time>
      </trkpt>
      <trkpt lat="45.88576" lon="3.0313">
        <ele>610.8</ele>
        <time>2024-07-26T09:21:57Z</time>
      </trkpt>
      <trkpt lat="45.88578" lon="3.03132">
        <ele>611.1</ele>
        <time>2024-07-26T09:21:59Z</time>
      </trkpt>
      <trkpt lat="45.88579" lon="3.03133">
        <ele>612.2</ele>
        <time>2024-07-26T09:22:00Z</time>
      </trkpt>
      <trkpt lat="45.8858" lon="3.03135">
        <ele>611.4</ele>
        <time>2024-07-26T09:22:02Z</time>
      </trkpt>
      <trkpt lat="45.8858" lon="3.03137">
        <ele>612.1</ele>
        <time>2024-07-26T09:22:04Z</time>
      </trkpt>
      <trkpt lat="45.88581" lon="3.03139">
        <ele>615.1</ele>
        <time>2024-07-26T09:22:06Z</time>
      </trkpt>
      <trkpt lat="45.88582" lon="3.03139">
        <ele>608.7</ele>
        <time>2024-07-26T09:22:08Z</time>
      </trkpt>
      <trkpt lat="45.88583" lon="3.03141">
        <ele>612.1</ele>
        <time>2024-07-26T09:22:13Z</time>
      </trkpt>
      <trkpt lat="45.88583" lon="3.03143">
        <ele>610.6</ele>
        <time>2024-07-26T09:22:15Z</time>
      </trkpt>
      <trkpt lat="45.88584" lon="3.03145">
        <ele>610.2</ele>
        <time>2024-07-26T09:22:16Z</time>
      </trkpt>
      <trkpt lat="45.88585" lon="3.03146">
        <ele>607.6</ele>
        <time>2024-07-26T09:22:17Z</time>
      </trkpt>
      <trkpt lat="45.88586" lon="3.03147">
        <ele>606.9</ele>
        <time>2024-07-26T09:22:18Z</time>
      </trkpt>
      <trkpt lat="45.88587" lon="3.03148">
        <ele>607.2</ele>
        <time>2024-07-26T09:22:19Z</time>
      </trkpt>
      <trkpt lat="45.88589" lon="3.0315">
        <ele>604.8</ele>
        <time>2024-07-26T09:22:20Z</time>
      </trkpt>
      <trkpt lat="45.8859" lon="3.03151">
        <ele>604.7</ele>
        <time>2024-07-26T09:22:21Z</time>
      </trkpt>
      <trkpt lat="45.8859" lon="3.03152">
        <ele>611.4</ele>
        <time>2024-07-26T09:22:22Z</time>
      </trkpt>
      <trkpt lat="45.88591" lon="3.03153">
        <ele>613</ele>
        <time>2024-07-26T09:22:23Z</time>
      </trkpt>
      <trkpt lat="45.88591" lon="3.03154">
        <ele>612.5</ele>
        <time>2024-07-26T09:22:24Z</time>
      </trkpt>
      <trkpt lat="45.88592" lon="3.03157">
        <ele>614.1</ele>
        <time>2024-07-26T09:22:26Z</time>
      </trkpt>
      <trkpt lat="45.88592" lon="3.03158">
        <ele>614</ele>
        <time>2024-07-26T09:22:27Z</time>
      </trkpt>
      <trkpt lat="45.88593" lon="3.0316">
        <ele>612.3</ele>
        <time>2024-07-26T09:22:28Z</time>
      </trkpt>
      <trkpt lat="45.88593" lon="3.03162">
        <ele>611.2</ele>
        <time>2024-07-26T09:22:30Z</time>
      </trkpt>
      <trkpt lat="45.88593" lon="3.03163">
        <ele>606</ele>
        <time>2024-07-26T09:22:31Z</time>
      </trkpt>
      <trkpt lat="45.88594" lon="3.03164">
        <ele>611.1</ele>
        <time>2024-07-26T09:22:33Z</time>
      </trkpt>
      <trkpt lat="45.88596" lon="3.03166">
        <ele>607.6</ele>
        <time>2024-07-26T09:22:35Z</time>
      </trkpt>
      <trkpt lat="45.88598" lon="3.03167">
        <ele>607.8</ele>
        <time>2024-07-26T09:22:36Z</time>
      </trkpt>
      <trkpt lat="45.88599" lon="3.03168">
        <ele>606.6</ele>
        <time>2024-07-26T09:22:37Z</time>
      </trkpt>
      <trkpt lat="45.886" lon="3.0317">
        <ele>603.7</ele>
        <time>2024-07-26T09:22:39Z</time>
      </trkpt>
      <trkpt lat="45.88601" lon="3.03171">
        <ele>604.3</ele>
        <time>2024-07-26T09:22:40Z</time>
      </trkpt>
      <trkpt lat="45.88602" lon="3.03171">
        <ele>607.4</ele>
        <time>2024-07-26T09:22:41Z</time>
      </trkpt>
      <trkpt lat="45.88603" lon="3.03171">
        <ele>607.7</ele>
        <time>2024-07-26T09:22:42Z</time>
      </trkpt>
      <trkpt lat="45.88604" lon="3.03172">
        <ele>605.2</ele>
        <time>2024-07-26T09:22:44Z</time>
      </trkpt>
      <trkpt lat="45.88605" lon="3.03172">
        <ele>604.5</ele>
        <time>2024-07-26T09:22:47Z</time>
      </trkpt>
      <trkpt lat="45.88606" lon="3.03174">
        <ele>605.1</ele>
        <time>2024-07-26T09:22:48Z</time>
      </trkpt>
      <trkpt lat="45.88606" lon="3.03175">
        <ele>607.4</ele>
        <time>2024-07-26T09:22:50Z</time>
      </trkpt>
      <trkpt lat="45.88607" lon="3.03178">
        <ele>609.7</ele>
        <time>2024-07-26T09:22:52Z</time>
      </trkpt>
      <trkpt lat="45.88608" lon="3.03179">
        <ele>607.8</ele>
        <time>2024-07-26T09:22:53Z</time>
      </trkpt>
      <trkpt lat="45.88609" lon="3.0318">
        <ele>608.3</ele>
        <time>2024-07-26T09:22:54Z</time>
      </trkpt>
      <trkpt lat="45.8861" lon="3.03181">
        <ele>608.8</ele>
        <time>2024-07-26T09:22:55Z</time>
      </trkpt>
      <trkpt lat="45.88611" lon="3.03182">
        <ele>608.5</ele>
        <time>2024-07-26T09:22:56Z</time>
      </trkpt>
      <trkpt lat="45.88612" lon="3.03182">
        <ele>609.9</ele>
        <time>2024-07-26T09:22:57Z</time>
      </trkpt>
      <trkpt lat="45.88613" lon="3.03183">
        <ele>610.9</ele>
        <time>2024-07-26T09:22:58Z</time>
      </trkpt>
      <trkpt lat="45.88614" lon="3.03184">
        <ele>611.7</ele>
        <time>2024-07-26T09:22:59Z</time>
      </trkpt>
      <trkpt lat="45.88615" lon="3.03186">
        <ele>610.9</ele>
        <time>2024-07-26T09:23:01Z</time>
      </trkpt>
      <trkpt lat="45.88617" lon="3.03186">
        <ele>612.1</ele>
        <time>2024-07-26T09:23:03Z</time>
      </trkpt>
      <trkpt lat="45.88618" lon="3.03187">
        <ele>611.1</ele>
        <time>2024-07-26T09:23:05Z</time>
      </trkpt>
      <trkpt lat="45.88619" lon="3.03189">
        <ele>610.9</ele>
        <time>2024-07-26T09:23:06Z</time>
      </trkpt>
      <trkpt lat="45.8862" lon="3.0319">
        <ele>610.7</ele>
        <time>2024-07-26T09:23:07Z</time>
      </trkpt>
      <trkpt lat="45.88621" lon="3.03191">
        <ele>612.4</ele>
        <time>2024-07-26T09:23:09Z</time>
      </trkpt>
      <trkpt lat="45.88622" lon="3.03192">
        <ele>609.6</ele>
        <time>2024-07-26T09:23:12Z</time>
      </trkpt>
      <trkpt lat="45.88623" lon="3.03193">
        <ele>612.4</ele>
        <time>2024-07-26T09:23:13Z</time>
      </trkpt>
      <trkpt lat="45.88624" lon="3.03194">
        <ele>612.8</ele>
        <time>2024-07-26T09:23:14Z</time>
      </trkpt>
      <trkpt lat="45.88624" lon="3.03196">
        <ele>610.7</ele>
        <time>2024-07-26T09:23:16Z</time>
      </trkpt>
      <trkpt lat="45.88625" lon="3.03197">
        <ele>610.3</ele>
        <time>2024-07-26T09:23:17Z</time>
      </trkpt>
      <trkpt lat="45.88626" lon="3.03198">
        <ele>609.8</ele>
        <time>2024-07-26T09:23:18Z</time>
      </trkpt>
      <trkpt lat="45.88626" lon="3.03199">
        <ele>608.9</ele>
        <time>2024-07-26T09:23:19Z</time>
      </trkpt>
      <trkpt lat="45.88626" lon="3.03202">
        <ele>608.1</ele>
        <time>2024-07-26T09:23:21Z</time>
      </trkpt>
      <trkpt lat="45.88627" lon="3.03204">
        <ele>609.9</ele>
        <time>2024-07-26T09:23:22Z</time>
      </trkpt>
      <trkpt lat="45.88627" lon="3.03206">
        <ele>613</ele>
        <time>2024-07-26T09:23:23Z</time>
      </trkpt>
      <trkpt lat="45.88628" lon="3.03206">
        <ele>610.4</ele>
        <time>2024-07-26T09:23:24Z</time>
      </trkpt>
      <trkpt lat="45.88629" lon="3.03207">
        <ele>611.8</ele>
        <time>2024-07-26T09:23:25Z</time>
      </trkpt>
      <trkpt lat="45.88631" lon="3.03207">
        <ele>611.3</ele>
        <time>2024-07-26T09:23:28Z</time>
      </trkpt>
      <trkpt lat="45.88632" lon="3.03207">
        <ele>612.3</ele>
        <time>2024-07-26T09:23:30Z</time>
      </trkpt>
      <trkpt lat="45.88633" lon="3.03209">
        <ele>611.4</ele>
        <time>2024-07-26T09:23:32Z</time>
      </trkpt>
      <trkpt lat="45.88633" lon="3.03212">
        <ele>611.9</ele>
        <time>2024-07-26T09:23:34Z</time>
      </trkpt>
      <trkpt lat="45.88633" lon="3.03213">
        <ele>613.5</ele>
        <time>2024-07-26T09:23:36Z</time>
      </trkpt>
      <trkpt lat="45.88633" lon="3.03214">
        <ele>613.8</ele>
        <time>2024-07-26T09:23:38Z</time>
      </trkpt>
      <trkpt lat="45.88634" lon="3.03215">
        <ele>615.4</ele>
        <time>2024-07-26T09:23:40Z</time>
      </trkpt>
      <trkpt lat="45.88635" lon="3.03214">
        <ele>612</ele>
        <time>2024-07-26T09:23:41Z</time>
      </trkpt>
      <trkpt lat="45.88636" lon="3.03213">
        <ele>613</ele>
        <time>2024-07-26T09:23:42Z</time>
      </trkpt>
      <trkpt lat="45.88637" lon="3.03212">
        <ele>614.6</ele>
        <time>2024-07-26T09:23:44Z</time>
      </trkpt>
      <trkpt lat="45.88638" lon="3.03211">
        <ele>610.5</ele>
        <time>2024-07-26T09:23:45Z</time>
      </trkpt>
      <trkpt lat="45.88639" lon="3.03211">
        <ele>612.3</ele>
        <time>2024-07-26T09:23:47Z</time>
      </trkpt>
      <trkpt lat="45.88641" lon="3.03212">
        <ele>612.1</ele>
        <time>2024-07-26T09:23:49Z</time>
      </trkpt>
      <trkpt lat="45.88642" lon="3.03212">
        <ele>612.6</ele>
        <time>2024-07-26T09:23:51Z</time>
      </trkpt>
      <trkpt lat="45.88643" lon="3.03213">
        <ele>611.7</ele>
        <time>2024-07-26T09:23:53Z</time>
      </trkpt>
      <trkpt lat="45.88644" lon="3.03213">
        <ele>612.2</ele>
        <time>2024-07-26T09:23:55Z</time>
      </trkpt>
      <trkpt lat="45.88645" lon="3.03214">
        <ele>612.4</ele>
        <time>2024-07-26T09:23:57Z</time>
      </trkpt>
      <trkpt lat="45.88647" lon="3.03215">
        <ele>613.1</ele>
        <time>2024-07-26T09:24:00Z</time>
      </trkpt>
      <trkpt lat="45.88648" lon="3.03216">
        <ele>614</ele>
        <time>2024-07-26T09:24:02Z</time>
      </trkpt>
      <trkpt lat="45.88649" lon="3.03216">
        <ele>612.4</ele>
        <time>2024-07-26T09:24:04Z</time>
      </trkpt>
      <trkpt lat="45.8865" lon="3.03216">
        <ele>611.1</ele>
        <time>2024-07-26T09:24:05Z</time>
      </trkpt>
      <trkpt lat="45.88651" lon="3.03217">
        <ele>611.6</ele>
        <time>2024-07-26T09:24:06Z</time>
      </trkpt>
      <trkpt lat="45.88652" lon="3.03218">
        <ele>610.7</ele>
        <time>2024-07-26T09:24:08Z</time>
      </trkpt>
      <trkpt lat="45.88654" lon="3.03217">
        <ele>614.8</ele>
        <time>2024-07-26T09:24:11Z</time>
      </trkpt>
      <trkpt lat="45.88654" lon="3.03218">
        <ele>614.9</ele>
        <time>2024-07-26T09:24:13Z</time>
      </trkpt>
      <trkpt lat="45.88655" lon="3.03219">
        <ele>615.4</ele>
        <time>2024-07-26T09:24:15Z</time>
      </trkpt>
      <trkpt lat="45.88656" lon="3.0322">
        <ele>615.4</ele>
        <time>2024-07-26T09:24:17Z</time>
      </trkpt>
      <trkpt lat="45.88657" lon="3.03221">
        <ele>615</ele>
        <time>2024-07-26T09:24:20Z</time>
      </trkpt>
      <trkpt lat="45.88658" lon="3.03222">
        <ele>615.2</ele>
        <time>2024-07-26T09:24:22Z</time>
      </trkpt>
      <trkpt lat="45.88659" lon="3.03223">
        <ele>612.6</ele>
        <time>2024-07-26T09:24:25Z</time>
      </trkpt>
      <trkpt lat="45.88659" lon="3.03224">
        <ele>612.5</ele>
        <time>2024-07-26T09:24:31Z</time>
      </trkpt>
      <trkpt lat="45.8866" lon="3.03225">
        <ele>612.5</ele>
        <time>2024-07-26T09:25:21Z</time>
      </trkpt>
      <trkpt lat="45.88661" lon="3.03226">
        <ele>615.6</ele>
        <time>2024-07-26T09:25:49Z</time>
      </trkpt>
      <trkpt lat="45.88662" lon="3.03228">
        <ele>618.6</ele>
        <time>2024-07-26T09:25:52Z</time>
      </trkpt>
      <trkpt lat="45.88662" lon="3.03229">
        <ele>619.8</ele>
        <time>2024-07-26T09:25:54Z</time>
      </trkpt>
      <trkpt lat="45.88663" lon="3.03229">
        <ele>615.4</ele>
        <time>2024-07-26T09:25:57Z</time>
      </trkpt>
      <trkpt lat="45.88665" lon="3.03228">
        <ele>616.3</ele>
        <time>2024-07-26T09:25:59Z</time>
      </trkpt>
      <trkpt lat="45.88666" lon="3.03228">
        <ele>617.3</ele>
        <time>2024-07-26T09:26:01Z</time>
      </trkpt>
      <trkpt lat="45.88667" lon="3.03228">
        <ele>620.8</ele>
        <time>2024-07-26T09:26:03Z</time>
      </trkpt>
      <trkpt lat="45.88668" lon="3.03227">
        <ele>624</ele>
        <time>2024-07-26T09:26:05Z</time>
      </trkpt>
      <trkpt lat="45.88669" lon="3.03227">
        <ele>623</ele>
        <time>2024-07-26T09:26:08Z</time>
      </trkpt>
      <trkpt lat="45.88672" lon="3.03228">
        <ele>620.4</ele>
        <time>2024-07-26T09:26:11Z</time>
      </trkpt>
      <trkpt lat="45.88673" lon="3.03228">
        <ele>623.6</ele>
        <time>2024-07-26T09:26:12Z</time>
      </trkpt>
      <trkpt lat="45.88674" lon="3.0323">
        <ele>623.6</ele>
        <time>2024-07-26T09:26:13Z</time>
      </trkpt>
      <trkpt lat="45.88676" lon="3.0323">
        <ele>624.9</ele>
        <time>2024-07-26T09:26:15Z</time>
      </trkpt>
      <trkpt lat="45.88677" lon="3.0323">
        <ele>627.3</ele>
        <time>2024-07-26T09:26:17Z</time>
      </trkpt>
      <trkpt lat="45.88678" lon="3.03231">
        <ele>627.8</ele>
        <time>2024-07-26T09:26:19Z</time>
      </trkpt>
      <trkpt lat="45.88678" lon="3.03232">
        <ele>627.8</ele>
        <time>2024-07-26T09:26:20Z</time>
      </trkpt>
      <trkpt lat="45.88679" lon="3.03233">
        <ele>628</ele>
        <time>2024-07-26T09:26:21Z</time>
      </trkpt>
      <trkpt lat="45.8868" lon="3.03235">
        <ele>627.6</ele>
        <time>2024-07-26T09:26:23Z</time>
      </trkpt>
      <trkpt lat="45.88682" lon="3.03236">
        <ele>628.7</ele>
        <time>2024-07-26T09:26:25Z</time>
      </trkpt>
      <trkpt lat="45.88683" lon="3.03238">
        <ele>628.7</ele>
        <time>2024-07-26T09:26:27Z</time>
      </trkpt>
      <trkpt lat="45.88684" lon="3.03239">
        <ele>627.4</ele>
        <time>2024-07-26T09:26:29Z</time>
      </trkpt>
      <trkpt lat="45.88685" lon="3.03239">
        <ele>628.1</ele>
        <time>2024-07-26T09:26:31Z</time>
      </trkpt>
      <trkpt lat="45.88686" lon="3.0324">
        <ele>627.3</ele>
        <time>2024-07-26T09:26:33Z</time>
      </trkpt>
      <trkpt lat="45.88687" lon="3.03241">
        <ele>627</ele>
        <time>2024-07-26T09:26:35Z</time>
      </trkpt>
      <trkpt lat="45.88688" lon="3.03241">
        <ele>627.6</ele>
        <time>2024-07-26T09:26:37Z</time>
      </trkpt>
      <trkpt lat="45.8869" lon="3.03241">
        <ele>627.2</ele>
        <time>2024-07-26T09:26:39Z</time>
      </trkpt>
      <trkpt lat="45.88691" lon="3.03242">
        <ele>627.5</ele>
        <time>2024-07-26T09:26:41Z</time>
      </trkpt>
      <trkpt lat="45.88693" lon="3.03242">
        <ele>629.3</ele>
        <time>2024-07-26T09:26:43Z</time>
      </trkpt>
      <trkpt lat="45.88694" lon="3.03243">
        <ele>629.2</ele>
        <time>2024-07-26T09:26:45Z</time>
      </trkpt>
      <trkpt lat="45.88695" lon="3.03242">
        <ele>628.9</ele>
        <time>2024-07-26T09:26:48Z</time>
      </trkpt>
      <trkpt lat="45.88696" lon="3.03243">
        <ele>628.6</ele>
        <time>2024-07-26T09:26:50Z</time>
      </trkpt>
      <trkpt lat="45.88697" lon="3.03245">
        <ele>627.9</ele>
        <time>2024-07-26T09:26:52Z</time>
      </trkpt>
      <trkpt lat="45.88698" lon="3.03245">
        <ele>627.2</ele>
        <time>2024-07-26T09:26:54Z</time>
      </trkpt>
      <trkpt lat="45.887" lon="3.03246">
        <ele>628.8</ele>
        <time>2024-07-26T09:26:57Z</time>
      </trkpt>
      <trkpt lat="45.88701" lon="3.03247">
        <ele>628.6</ele>
        <time>2024-07-26T09:26:59Z</time>
      </trkpt>
      <trkpt lat="45.88702" lon="3.03248">
        <ele>628.1</ele>
        <time>2024-07-26T09:27:01Z</time>
      </trkpt>
      <trkpt lat="45.88703" lon="3.03249">
        <ele>628.6</ele>
        <time>2024-07-26T09:27:03Z</time>
      </trkpt>
      <trkpt lat="45.88705" lon="3.03249">
        <ele>629.2</ele>
        <time>2024-07-26T09:27:06Z</time>
      </trkpt>
      <trkpt lat="45.88706" lon="3.0325">
        <ele>629.7</ele>
        <time>2024-07-26T09:27:10Z</time>
      </trkpt>
      <trkpt lat="45.88706" lon="3.03251">
        <ele>630.4</ele>
        <time>2024-07-26T09:27:12Z</time>
      </trkpt>
      <trkpt lat="45.88707" lon="3.03252">
        <ele>630</ele>
        <time>2024-07-26T09:27:16Z</time>
      </trkpt>
      <trkpt lat="45.88708" lon="3.03252">
        <ele>630</ele>
        <time>2024-07-26T09:27:18Z</time>
      </trkpt>
      <trkpt lat="45.88709" lon="3.03253">
        <ele>632</ele>
        <time>2024-07-26T09:27:20Z</time>
      </trkpt>
      <trkpt lat="45.88711" lon="3.03253">
        <ele>631.6</ele>
        <time>2024-07-26T09:27:22Z</time>
      </trkpt>
      <trkpt lat="45.88712" lon="3.03253">
        <ele>636.1</ele>
        <time>2024-07-26T09:27:24Z</time>
      </trkpt>
      <trkpt lat="45.88714" lon="3.03252">
        <ele>635.3</ele>
        <time>2024-07-26T09:27:26Z</time>
      </trkpt>
      <trkpt lat="45.88715" lon="3.03253">
        <ele>636.7</ele>
        <time>2024-07-26T09:27:28Z</time>
      </trkpt>
      <trkpt lat="45.88716" lon="3.03255">
        <ele>638.5</ele>
        <time>2024-07-26T09:27:30Z</time>
      </trkpt>
      <trkpt lat="45.88717" lon="3.03256">
        <ele>638.5</ele>
        <time>2024-07-26T09:27:33Z</time>
      </trkpt>
      <trkpt lat="45.88717" lon="3.03257">
        <ele>635.4</ele>
        <time>2024-07-26T09:27:35Z</time>
      </trkpt>
      <trkpt lat="45.88718" lon="3.03258">
        <ele>636.5</ele>
        <time>2024-07-26T09:27:37Z</time>
      </trkpt>
      <trkpt lat="45.88719" lon="3.0326">
        <ele>638.2</ele>
        <time>2024-07-26T09:27:39Z</time>
      </trkpt>
      <trkpt lat="45.8872" lon="3.0326">
        <ele>637.7</ele>
        <time>2024-07-26T09:27:41Z</time>
      </trkpt>
      <trkpt lat="45.88721" lon="3.0326">
        <ele>636.3</ele>
        <time>2024-07-26T09:27:44Z</time>
      </trkpt>
      <trkpt lat="45.88722" lon="3.03258">
        <ele>635.2</ele>
        <time>2024-07-26T09:27:46Z</time>
      </trkpt>
      <trkpt lat="45.88723" lon="3.03258">
        <ele>635.5</ele>
        <time>2024-07-26T09:27:55Z</time>
      </trkpt>
      <trkpt lat="45.88724" lon="3.03259">
        <ele>635.5</ele>
        <time>2024-07-26T09:27:58Z</time>
      </trkpt>
      <trkpt lat="45.88727" lon="3.03259">
        <ele>632.2</ele>
        <time>2024-07-26T09:28:00Z</time>
      </trkpt>
      <trkpt lat="45.88728" lon="3.03258">
        <ele>631.7</ele>
        <time>2024-07-26T09:28:02Z</time>
      </trkpt>
      <trkpt lat="45.88729" lon="3.03258">
        <ele>629.2</ele>
        <time>2024-07-26T09:28:07Z</time>
      </trkpt>
      <trkpt lat="45.88731" lon="3.03258">
        <ele>626.6</ele>
        <time>2024-07-26T09:28:08Z</time>
      </trkpt>
      <trkpt lat="45.88732" lon="3.03258">
        <ele>626.4</ele>
        <time>2024-07-26T09:28:09Z</time>
      </trkpt>
      <trkpt lat="45.88733" lon="3.03258">
        <ele>627.8</ele>
        <time>2024-07-26T09:28:11Z</time>
      </trkpt>
      <trkpt lat="45.88734" lon="3.03259">
        <ele>627.5</ele>
        <time>2024-07-26T09:28:14Z</time>
      </trkpt>
      <trkpt lat="45.88735" lon="3.03259">
        <ele>630.4</ele>
        <time>2024-07-26T09:28:16Z</time>
      </trkpt>
      <trkpt lat="45.88735" lon="3.03257">
        <ele>633.2</ele>
        <time>2024-07-26T09:28:19Z</time>
      </trkpt>
      <trkpt lat="45.88736" lon="3.03257">
        <ele>633.7</ele>
        <time>2024-07-26T09:28:22Z</time>
      </trkpt>
      <trkpt lat="45.88737" lon="3.03259">
        <ele>638.7</ele>
        <time>2024-07-26T09:28:25Z</time>
      </trkpt>
      <trkpt lat="45.88738" lon="3.0326">
        <ele>638.5</ele>
        <time>2024-07-26T09:28:27Z</time>
      </trkpt>
      <trkpt lat="45.88739" lon="3.03261">
        <ele>640</ele>
        <time>2024-07-26T09:28:29Z</time>
      </trkpt>
      <trkpt lat="45.88739" lon="3.03262">
        <ele>640.2</ele>
        <time>2024-07-26T09:28:32Z</time>
      </trkpt>
      <trkpt lat="45.8874" lon="3.03264">
        <ele>640</ele>
        <time>2024-07-26T09:28:40Z</time>
      </trkpt>
      <trkpt lat="45.88741" lon="3.03265">
        <ele>640.4</ele>
        <time>2024-07-26T09:28:46Z</time>
      </trkpt>
      <trkpt lat="45.88742" lon="3.03265">
        <ele>640.8</ele>
        <time>2024-07-26T09:28:47Z</time>
      </trkpt>
      <trkpt lat="45.88743" lon="3.03267">
        <ele>641.9</ele>
        <time>2024-07-26T09:28:49Z</time>
      </trkpt>
      <trkpt lat="45.88744" lon="3.03268">
        <ele>641</ele>
        <time>2024-07-26T09:28:51Z</time>
      </trkpt>
      <trkpt lat="45.88745" lon="3.03268">
        <ele>640.1</ele>
        <time>2024-07-26T09:28:52Z</time>
      </trkpt>
      <trkpt lat="45.88746" lon="3.03268">
        <ele>641.2</ele>
        <time>2024-07-26T09:28:53Z</time>
      </trkpt>
      <trkpt lat="45.88747" lon="3.03268">
        <ele>640.3</ele>
        <time>2024-07-26T09:28:54Z</time>
      </trkpt>
      <trkpt lat="45.88748" lon="3.03267">
        <ele>639.1</ele>
        <time>2024-07-26T09:28:55Z</time>
      </trkpt>
      <trkpt lat="45.88749" lon="3.03266">
        <ele>638.8</ele>
        <time>2024-07-26T09:28:56Z</time>
      </trkpt>
      <trkpt lat="45.8875" lon="3.03265">
        <ele>638.4</ele>
        <time>2024-07-26T09:28:58Z</time>
      </trkpt>
      <trkpt lat="45.88751" lon="3.03265">
        <ele>637.2</ele>
        <time>2024-07-26T09:28:59Z</time>
      </trkpt>
      <trkpt lat="45.88753" lon="3.03265">
        <ele>638.4</ele>
        <time>2024-07-26T09:29:00Z</time>
      </trkpt>
      <trkpt lat="45.88754" lon="3.03265">
        <ele>639.7</ele>
        <time>2024-07-26T09:29:01Z</time>
      </trkpt>
      <trkpt lat="45.88755" lon="3.03266">
        <ele>638.2</ele>
        <time>2024-07-26T09:29:03Z</time>
      </trkpt>
      <trkpt lat="45.88756" lon="3.03265">
        <ele>637.6</ele>
        <time>2024-07-26T09:29:05Z</time>
      </trkpt>
      <trkpt lat="45.88757" lon="3.03263">
        <ele>638.5</ele>
        <time>2024-07-26T09:29:07Z</time>
      </trkpt>
      <trkpt lat="45.88758" lon="3.03262">
        <ele>638.6</ele>
        <time>2024-07-26T09:29:08Z</time>
      </trkpt>
      <trkpt lat="45.88759" lon="3.03262">
        <ele>640.2</ele>
        <time>2024-07-26T09:29:09Z</time>
      </trkpt>
      <trkpt lat="45.88761" lon="3.03262">
        <ele>639.2</ele>
        <time>2024-07-26T09:29:10Z</time>
      </trkpt>
      <trkpt lat="45.88762" lon="3.03262">
        <ele>639.2</ele>
        <time>2024-07-26T09:29:12Z</time>
      </trkpt>
      <trkpt lat="45.88762" lon="3.03264">
        <ele>637.4</ele>
        <time>2024-07-26T09:29:17Z</time>
      </trkpt>
      <trkpt lat="45.88763" lon="3.03265">
        <ele>637.3</ele>
        <time>2024-07-26T09:29:20Z</time>
      </trkpt>
      <trkpt lat="45.88764" lon="3.03266">
        <ele>639</ele>
        <time>2024-07-26T09:29:23Z</time>
      </trkpt>
      <trkpt lat="45.88764" lon="3.03267">
        <ele>641.1</ele>
        <time>2024-07-26T09:29:26Z</time>
      </trkpt>
      <trkpt lat="45.88765" lon="3.03268">
        <ele>640.7</ele>
        <time>2024-07-26T09:29:28Z</time>
      </trkpt>
      <trkpt lat="45.88766" lon="3.03269">
        <ele>642.3</ele>
        <time>2024-07-26T09:29:31Z</time>
      </trkpt>
      <trkpt lat="45.88767" lon="3.0327">
        <ele>642.6</ele>
        <time>2024-07-26T09:29:34Z</time>
      </trkpt>
      <trkpt lat="45.88768" lon="3.03272">
        <ele>641.9</ele>
        <time>2024-07-26T09:29:36Z</time>
      </trkpt>
      <trkpt lat="45.88769" lon="3.03272">
        <ele>641</ele>
        <time>2024-07-26T09:29:39Z</time>
      </trkpt>
      <trkpt lat="45.8877" lon="3.03271">
        <ele>643.6</ele>
        <time>2024-07-26T09:29:42Z</time>
      </trkpt>
      <trkpt lat="45.88771" lon="3.03271">
        <ele>643.8</ele>
        <time>2024-07-26T09:29:45Z</time>
      </trkpt>
      <trkpt lat="45.88772" lon="3.03272">
        <ele>643.9</ele>
        <time>2024-07-26T09:29:47Z</time>
      </trkpt>
      <trkpt lat="45.88773" lon="3.03271">
        <ele>643.5</ele>
        <time>2024-07-26T09:29:49Z</time>
      </trkpt>
      <trkpt lat="45.88774" lon="3.03271">
        <ele>643.8</ele>
        <time>2024-07-26T09:29:51Z</time>
      </trkpt>
      <trkpt lat="45.88775" lon="3.03271">
        <ele>643.8</ele>
        <time>2024-07-26T09:29:53Z</time>
      </trkpt>
      <trkpt lat="45.88776" lon="3.03271">
        <ele>642.7</ele>
        <time>2024-07-26T09:29:55Z</time>
      </trkpt>
      <trkpt lat="45.88778" lon="3.0327">
        <ele>642.6</ele>
        <time>2024-07-26T09:29:58Z</time>
      </trkpt>
      <trkpt lat="45.88779" lon="3.03269">
        <ele>642.3</ele>
        <time>2024-07-26T09:30:00Z</time>
      </trkpt>
      <trkpt lat="45.8878" lon="3.03269">
        <ele>641.3</ele>
        <time>2024-07-26T09:30:02Z</time>
      </trkpt>
      <trkpt lat="45.88781" lon="3.03269">
        <ele>640.8</ele>
        <time>2024-07-26T09:30:03Z</time>
      </trkpt>
      <trkpt lat="45.88783" lon="3.03269">
        <ele>642</ele>
        <time>2024-07-26T09:30:05Z</time>
      </trkpt>
      <trkpt lat="45.88784" lon="3.03269">
        <ele>642</ele>
        <time>2024-07-26T09:30:06Z</time>
      </trkpt>
      <trkpt lat="45.88785" lon="3.03269">
        <ele>644</ele>
        <time>2024-07-26T09:30:08Z</time>
      </trkpt>
      <trkpt lat="45.88787" lon="3.0327">
        <ele>642.6</ele>
        <time>2024-07-26T09:30:10Z</time>
      </trkpt>
      <trkpt lat="45.88788" lon="3.0327">
        <ele>643.1</ele>
        <time>2024-07-26T09:30:11Z</time>
      </trkpt>
      <trkpt lat="45.88789" lon="3.0327">
        <ele>640</ele>
        <time>2024-07-26T09:30:13Z</time>
      </trkpt>
      <trkpt lat="45.8879" lon="3.0327">
        <ele>641.4</ele>
        <time>2024-07-26T09:30:15Z</time>
      </trkpt>
      <trkpt lat="45.8879" lon="3.03269">
        <ele>640.1</ele>
        <time>2024-07-26T09:30:24Z</time>
      </trkpt>
      <trkpt lat="45.88791" lon="3.03269">
        <ele>639.7</ele>
        <time>2024-07-26T09:30:38Z</time>
      </trkpt>
      <trkpt lat="45.88793" lon="3.03269">
        <ele>640.6</ele>
        <time>2024-07-26T09:30:40Z</time>
      </trkpt>
      <trkpt lat="45.88794" lon="3.03269">
        <ele>641.8</ele>
        <time>2024-07-26T09:30:42Z</time>
      </trkpt>
      <trkpt lat="45.88796" lon="3.03269">
        <ele>641.3</ele>
        <time>2024-07-26T09:30:44Z</time>
      </trkpt>
      <trkpt lat="45.88797" lon="3.03269">
        <ele>640.6</ele>
        <time>2024-07-26T09:30:46Z</time>
      </trkpt>
      <trkpt lat="45.88799" lon="3.03268">
        <ele>640.1</ele>
        <time>2024-07-26T09:30:48Z</time>
      </trkpt>
      <trkpt lat="45.888" lon="3.03268">
        <ele>640.2</ele>
        <time>2024-07-26T09:30:50Z</time>
      </trkpt>
      <trkpt lat="45.88801" lon="3.03267">
        <ele>640.1</ele>
        <time>2024-07-26T09:30:52Z</time>
      </trkpt>
      <trkpt lat="45.88803" lon="3.03266">
        <ele>639.3</ele>
        <time>2024-07-26T09:30:54Z</time>
      </trkpt>
      <trkpt lat="45.88804" lon="3.03264">
        <ele>639.8</ele>
        <time>2024-07-26T09:30:56Z</time>
      </trkpt>
      <trkpt lat="45.88805" lon="3.03263">
        <ele>640.6</ele>
        <time>2024-07-26T09:30:57Z</time>
      </trkpt>
      <trkpt lat="45.88806" lon="3.03262">
        <ele>639.9</ele>
        <time>2024-07-26T09:30:59Z</time>
      </trkpt>
      <trkpt lat="45.88807" lon="3.03261">
        <ele>641.3</ele>
        <time>2024-07-26T09:31:01Z</time>
      </trkpt>
      <trkpt lat="45.88809" lon="3.0326">
        <ele>641.9</ele>
        <time>2024-07-26T09:31:03Z</time>
      </trkpt>
      <trkpt lat="45.8881" lon="3.03259">
        <ele>643.2</ele>
        <time>2024-07-26T09:31:04Z</time>
      </trkpt>
      <trkpt lat="45.88811" lon="3.03258">
        <ele>639.9</ele>
        <time>2024-07-26T09:31:05Z</time>
      </trkpt>
      <trkpt lat="45.88814" lon="3.03256">
        <ele>640.1</ele>
        <time>2024-07-26T09:31:07Z</time>
      </trkpt>
      <trkpt lat="45.88815" lon="3.03256">
        <ele>640.9</ele>
        <time>2024-07-26T09:31:08Z</time>
      </trkpt>
      <trkpt lat="45.88816" lon="3.03255">
        <ele>641.2</ele>
        <time>2024-07-26T09:31:09Z</time>
      </trkpt>
      <trkpt lat="45.88817" lon="3.03255">
        <ele>640.8</ele>
        <time>2024-07-26T09:31:10Z</time>
      </trkpt>
      <trkpt lat="45.88818" lon="3.03254">
        <ele>641.4</ele>
        <time>2024-07-26T09:31:11Z</time>
      </trkpt>
      <trkpt lat="45.88819" lon="3.03253">
        <ele>641.4</ele>
        <time>2024-07-26T09:31:12Z</time>
      </trkpt>
      <trkpt lat="45.88821" lon="3.03253">
        <ele>642.9</ele>
        <time>2024-07-26T09:31:13Z</time>
      </trkpt>
      <trkpt lat="45.88822" lon="3.03252">
        <ele>644</ele>
        <time>2024-07-26T09:31:14Z</time>
      </trkpt>
      <trkpt lat="45.88823" lon="3.03252">
        <ele>644.4</ele>
        <time>2024-07-26T09:31:15Z</time>
      </trkpt>
      <trkpt lat="45.88824" lon="3.03252">
        <ele>646.9</ele>
        <time>2024-07-26T09:31:16Z</time>
      </trkpt>
      <trkpt lat="45.88825" lon="3.03252">
        <ele>646.5</ele>
        <time>2024-07-26T09:31:17Z</time>
      </trkpt>
      <trkpt lat="45.88826" lon="3.03251">
        <ele>645.7</ele>
        <time>2024-07-26T09:31:18Z</time>
      </trkpt>
      <trkpt lat="45.88827" lon="3.0325">
        <ele>646.8</ele>
        <time>2024-07-26T09:31:19Z</time>
      </trkpt>
      <trkpt lat="45.88828" lon="3.03248">
        <ele>644.1</ele>
        <time>2024-07-26T09:31:20Z</time>
      </trkpt>
      <trkpt lat="45.88829" lon="3.03248">
        <ele>645.5</ele>
        <time>2024-07-26T09:31:21Z</time>
      </trkpt>
      <trkpt lat="45.88829" lon="3.03246">
        <ele>645.3</ele>
        <time>2024-07-26T09:31:23Z</time>
      </trkpt>
      <trkpt lat="45.88829" lon="3.03245">
        <ele>645.3</ele>
        <time>2024-07-26T09:31:25Z</time>
      </trkpt>
      <trkpt lat="45.8883" lon="3.03243">
        <ele>645.5</ele>
        <time>2024-07-26T09:31:27Z</time>
      </trkpt>
      <trkpt lat="45.88831" lon="3.03241">
        <ele>644.5</ele>
        <time>2024-07-26T09:31:29Z</time>
      </trkpt>
      <trkpt lat="45.88832" lon="3.03239">
        <ele>643.1</ele>
        <time>2024-07-26T09:31:30Z</time>
      </trkpt>
      <trkpt lat="45.88832" lon="3.03238">
        <ele>642.7</ele>
        <time>2024-07-26T09:31:31Z</time>
      </trkpt>
      <trkpt lat="45.88833" lon="3.03236">
        <ele>642.9</ele>
        <time>2024-07-26T09:31:32Z</time>
      </trkpt>
      <trkpt lat="45.88833" lon="3.03235">
        <ele>643.6</ele>
        <time>2024-07-26T09:31:33Z</time>
      </trkpt>
      <trkpt lat="45.88834" lon="3.03233">
        <ele>645.1</ele>
        <time>2024-07-26T09:31:34Z</time>
      </trkpt>
      <trkpt lat="45.88835" lon="3.03232">
        <ele>645.5</ele>
        <time>2024-07-26T09:31:35Z</time>
      </trkpt>
      <trkpt lat="45.88835" lon="3.0323">
        <ele>644.3</ele>
        <time>2024-07-26T09:31:37Z</time>
      </trkpt>
      <trkpt lat="45.88836" lon="3.03228">
        <ele>644.2</ele>
        <time>2024-07-26T09:31:39Z</time>
      </trkpt>
      <trkpt lat="45.88837" lon="3.03228">
        <ele>644.4</ele>
        <time>2024-07-26T09:31:42Z</time>
      </trkpt>
      <trkpt lat="45.88838" lon="3.03226">
        <ele>643.6</ele>
        <time>2024-07-26T09:31:44Z</time>
      </trkpt>
      <trkpt lat="45.88839" lon="3.03224">
        <ele>642.9</ele>
        <time>2024-07-26T09:31:46Z</time>
      </trkpt>
      <trkpt lat="45.8884" lon="3.03223">
        <ele>643.2</ele>
        <time>2024-07-26T09:31:48Z</time>
      </trkpt>
      <trkpt lat="45.88841" lon="3.03221">
        <ele>642.1</ele>
        <time>2024-07-26T09:31:50Z</time>
      </trkpt>
      <trkpt lat="45.88842" lon="3.03219">
        <ele>642.3</ele>
        <time>2024-07-26T09:31:52Z</time>
      </trkpt>
      <trkpt lat="45.88842" lon="3.03217">
        <ele>642</ele>
        <time>2024-07-26T09:31:54Z</time>
      </trkpt>
      <trkpt lat="45.88841" lon="3.03217">
        <ele>643.1</ele>
        <time>2024-07-26T09:32:10Z</time>
      </trkpt>
      <trkpt lat="45.88842" lon="3.03216">
        <ele>642.7</ele>
        <time>2024-07-26T09:32:31Z</time>
      </trkpt>
      <trkpt lat="45.88843" lon="3.03215">
        <ele>641.3</ele>
        <time>2024-07-26T09:32:39Z</time>
      </trkpt>
      <trkpt lat="45.88843" lon="3.03213">
        <ele>641.4</ele>
        <time>2024-07-26T09:32:51Z</time>
      </trkpt>
      <trkpt lat="45.88845" lon="3.0321">
        <ele>645.8</ele>
        <time>2024-07-26T09:32:53Z</time>
      </trkpt>
      <trkpt lat="45.88846" lon="3.03209">
        <ele>645.9</ele>
        <time>2024-07-26T09:32:55Z</time>
      </trkpt>
      <trkpt lat="45.88847" lon="3.03208">
        <ele>645.3</ele>
        <time>2024-07-26T09:33:07Z</time>
      </trkpt>
      <trkpt lat="45.88847" lon="3.03206">
        <ele>644.4</ele>
        <time>2024-07-26T09:33:11Z</time>
      </trkpt>
      <trkpt lat="45.88847" lon="3.03204">
        <ele>643.8</ele>
        <time>2024-07-26T09:33:14Z</time>
      </trkpt>
      <trkpt lat="45.88847" lon="3.03202">
        <ele>642.9</ele>
        <time>2024-07-26T09:33:16Z</time>
      </trkpt>
      <trkpt lat="45.88848" lon="3.03199">
        <ele>642.5</ele>
        <time>2024-07-26T09:33:19Z</time>
      </trkpt>
      <trkpt lat="45.88848" lon="3.03196">
        <ele>642.7</ele>
        <time>2024-07-26T09:33:22Z</time>
      </trkpt>
      <trkpt lat="45.88848" lon="3.03194">
        <ele>642.5</ele>
        <time>2024-07-26T09:33:24Z</time>
      </trkpt>
      <trkpt lat="45.88849" lon="3.03192">
        <ele>642.8</ele>
        <time>2024-07-26T09:33:26Z</time>
      </trkpt>
      <trkpt lat="45.8885" lon="3.03191">
        <ele>644.8</ele>
        <time>2024-07-26T09:33:28Z</time>
      </trkpt>
      <trkpt lat="45.88851" lon="3.0319">
        <ele>644.8</ele>
        <time>2024-07-26T09:33:30Z</time>
      </trkpt>
      <trkpt lat="45.88852" lon="3.03188">
        <ele>646.5</ele>
        <time>2024-07-26T09:33:32Z</time>
      </trkpt>
      <trkpt lat="45.88852" lon="3.03186">
        <ele>646.9</ele>
        <time>2024-07-26T09:33:33Z</time>
      </trkpt>
      <trkpt lat="45.88853" lon="3.03184">
        <ele>640.3</ele>
        <time>2024-07-26T09:33:34Z</time>
      </trkpt>
      <trkpt lat="45.88853" lon="3.03182">
        <ele>639.7</ele>
        <time>2024-07-26T09:33:35Z</time>
      </trkpt>
      <trkpt lat="45.88853" lon="3.0318">
        <ele>641.1</ele>
        <time>2024-07-26T09:33:36Z</time>
      </trkpt>
      <trkpt lat="45.88853" lon="3.03179">
        <ele>641.4</ele>
        <time>2024-07-26T09:33:37Z</time>
      </trkpt>
      <trkpt lat="45.88853" lon="3.03178">
        <ele>641.5</ele>
        <time>2024-07-26T09:33:38Z</time>
      </trkpt>
      <trkpt lat="45.88854" lon="3.03176">
        <ele>642.6</ele>
        <time>2024-07-26T09:33:40Z</time>
      </trkpt>
      <trkpt lat="45.88854" lon="3.03175">
        <ele>642.5</ele>
        <time>2024-07-26T09:33:41Z</time>
      </trkpt>
      <trkpt lat="45.88855" lon="3.03174">
        <ele>642.8</ele>
        <time>2024-07-26T09:33:42Z</time>
      </trkpt>
      <trkpt lat="45.88855" lon="3.03172">
        <ele>641.7</ele>
        <time>2024-07-26T09:33:44Z</time>
      </trkpt>
      <trkpt lat="45.88855" lon="3.03171">
        <ele>644.7</ele>
        <time>2024-07-26T09:33:46Z</time>
      </trkpt>
      <trkpt lat="45.88856" lon="3.0317">
        <ele>643.3</ele>
        <time>2024-07-26T09:33:48Z</time>
      </trkpt>
      <trkpt lat="45.88857" lon="3.03169">
        <ele>645.5</ele>
        <time>2024-07-26T09:33:50Z</time>
      </trkpt>
      <trkpt lat="45.88858" lon="3.03168">
        <ele>643.9</ele>
        <time>2024-07-26T09:33:51Z</time>
      </trkpt>
      <trkpt lat="45.88859" lon="3.03167">
        <ele>643.2</ele>
        <time>2024-07-26T09:33:52Z</time>
      </trkpt>
      <trkpt lat="45.8886" lon="3.03165">
        <ele>642.3</ele>
        <time>2024-07-26T09:33:53Z</time>
      </trkpt>
      <trkpt lat="45.8886" lon="3.03164">
        <ele>642.8</ele>
        <time>2024-07-26T09:33:54Z</time>
      </trkpt>
      <trkpt lat="45.88861" lon="3.03161">
        <ele>635.9</ele>
        <time>2024-07-26T09:33:56Z</time>
      </trkpt>
      <trkpt lat="45.88861" lon="3.03159">
        <ele>636.1</ele>
        <time>2024-07-26T09:33:57Z</time>
      </trkpt>
      <trkpt lat="45.8886" lon="3.03157">
        <ele>636.3</ele>
        <time>2024-07-26T09:33:58Z</time>
      </trkpt>
      <trkpt lat="45.8886" lon="3.03155">
        <ele>637.6</ele>
        <time>2024-07-26T09:33:59Z</time>
      </trkpt>
      <trkpt lat="45.88861" lon="3.03154">
        <ele>640.2</ele>
        <time>2024-07-26T09:34:00Z</time>
      </trkpt>
      <trkpt lat="45.88861" lon="3.03153">
        <ele>640.5</ele>
        <time>2024-07-26T09:34:01Z</time>
      </trkpt>
      <trkpt lat="45.88861" lon="3.03151">
        <ele>639.6</ele>
        <time>2024-07-26T09:34:02Z</time>
      </trkpt>
      <trkpt lat="45.88862" lon="3.03149">
        <ele>639.9</ele>
        <time>2024-07-26T09:34:04Z</time>
      </trkpt>
      <trkpt lat="45.88862" lon="3.03147">
        <ele>639.9</ele>
        <time>2024-07-26T09:34:05Z</time>
      </trkpt>
      <trkpt lat="45.88863" lon="3.03146">
        <ele>641</ele>
        <time>2024-07-26T09:34:06Z</time>
      </trkpt>
      <trkpt lat="45.88864" lon="3.03145">
        <ele>639.8</ele>
        <time>2024-07-26T09:34:08Z</time>
      </trkpt>
      <trkpt lat="45.88864" lon="3.03142">
        <ele>637.4</ele>
        <time>2024-07-26T09:34:10Z</time>
      </trkpt>
      <trkpt lat="45.88864" lon="3.03141">
        <ele>636.8</ele>
        <time>2024-07-26T09:34:11Z</time>
      </trkpt>
      <trkpt lat="45.88864" lon="3.03139">
        <ele>636.5</ele>
        <time>2024-07-26T09:34:12Z</time>
      </trkpt>
      <trkpt lat="45.88864" lon="3.03137">
        <ele>636.8</ele>
        <time>2024-07-26T09:34:13Z</time>
      </trkpt>
      <trkpt lat="45.88865" lon="3.03135">
        <ele>636.3</ele>
        <time>2024-07-26T09:34:15Z</time>
      </trkpt>
      <trkpt lat="45.88866" lon="3.03134">
        <ele>636.3</ele>
        <time>2024-07-26T09:34:17Z</time>
      </trkpt>
      <trkpt lat="45.88867" lon="3.03132">
        <ele>637.1</ele>
        <time>2024-07-26T09:34:19Z</time>
      </trkpt>
      <trkpt lat="45.88868" lon="3.03131">
        <ele>637.1</ele>
        <time>2024-07-26T09:34:21Z</time>
      </trkpt>
      <trkpt lat="45.88869" lon="3.03128">
        <ele>637.6</ele>
        <time>2024-07-26T09:34:23Z</time>
      </trkpt>
      <trkpt lat="45.88869" lon="3.03127">
        <ele>638.5</ele>
        <time>2024-07-26T09:34:25Z</time>
      </trkpt>
      <trkpt lat="45.8887" lon="3.03125">
        <ele>638</ele>
        <time>2024-07-26T09:34:27Z</time>
      </trkpt>
      <trkpt lat="45.88871" lon="3.03123">
        <ele>638.1</ele>
        <time>2024-07-26T09:34:29Z</time>
      </trkpt>
      <trkpt lat="45.88872" lon="3.03122">
        <ele>637.8</ele>
        <time>2024-07-26T09:34:30Z</time>
      </trkpt>
      <trkpt lat="45.88872" lon="3.03119">
        <ele>637.5</ele>
        <time>2024-07-26T09:34:32Z</time>
      </trkpt>
      <trkpt lat="45.88873" lon="3.03117">
        <ele>636.9</ele>
        <time>2024-07-26T09:34:34Z</time>
      </trkpt>
      <trkpt lat="45.88873" lon="3.03116">
        <ele>636.9</ele>
        <time>2024-07-26T09:34:35Z</time>
      </trkpt>
      <trkpt lat="45.88873" lon="3.03114">
        <ele>637.6</ele>
        <time>2024-07-26T09:34:36Z</time>
      </trkpt>
      <trkpt lat="45.88874" lon="3.03112">
        <ele>637.7</ele>
        <time>2024-07-26T09:34:38Z</time>
      </trkpt>
      <trkpt lat="45.88874" lon="3.03111">
        <ele>639.3</ele>
        <time>2024-07-26T09:34:40Z</time>
      </trkpt>
      <trkpt lat="45.88875" lon="3.03109">
        <ele>639</ele>
        <time>2024-07-26T09:34:42Z</time>
      </trkpt>
      <trkpt lat="45.88875" lon="3.03106">
        <ele>638.5</ele>
        <time>2024-07-26T09:34:44Z</time>
      </trkpt>
      <trkpt lat="45.88875" lon="3.03103">
        <ele>636.3</ele>
        <time>2024-07-26T09:34:46Z</time>
      </trkpt>
      <trkpt lat="45.88876" lon="3.031">
        <ele>636.4</ele>
        <time>2024-07-26T09:34:47Z</time>
      </trkpt>
      <trkpt lat="45.88876" lon="3.03098">
        <ele>637</ele>
        <time>2024-07-26T09:34:48Z</time>
      </trkpt>
      <trkpt lat="45.88877" lon="3.03095">
        <ele>636.6</ele>
        <time>2024-07-26T09:34:49Z</time>
      </trkpt>
      <trkpt lat="45.88877" lon="3.03093">
        <ele>636.6</ele>
        <time>2024-07-26T09:34:50Z</time>
      </trkpt>
      <trkpt lat="45.88878" lon="3.03091">
        <ele>636.8</ele>
        <time>2024-07-26T09:34:51Z</time>
      </trkpt>
      <trkpt lat="45.88878" lon="3.03089">
        <ele>637.1</ele>
        <time>2024-07-26T09:34:53Z</time>
      </trkpt>
      <trkpt lat="45.88878" lon="3.03087">
        <ele>636.9</ele>
        <time>2024-07-26T09:34:54Z</time>
      </trkpt>
      <trkpt lat="45.88878" lon="3.03086">
        <ele>637.3</ele>
        <time>2024-07-26T09:34:55Z</time>
      </trkpt>
      <trkpt lat="45.88877" lon="3.03084">
        <ele>638.1</ele>
        <time>2024-07-26T09:34:56Z</time>
      </trkpt>
      <trkpt lat="45.88876" lon="3.03083">
        <ele>637.7</ele>
        <time>2024-07-26T09:34:57Z</time>
      </trkpt>
      <trkpt lat="45.88876" lon="3.03082">
        <ele>637.1</ele>
        <time>2024-07-26T09:34:59Z</time>
      </trkpt>
      <trkpt lat="45.88876" lon="3.0308">
        <ele>640.1</ele>
        <time>2024-07-26T09:35:01Z</time>
      </trkpt>
      <trkpt lat="45.88877" lon="3.0308">
        <ele>642.3</ele>
        <time>2024-07-26T09:35:02Z</time>
      </trkpt>
      <trkpt lat="45.88879" lon="3.03079">
        <ele>643.8</ele>
        <time>2024-07-26T09:35:03Z</time>
      </trkpt>
      <trkpt lat="45.8888" lon="3.03078">
        <ele>643.7</ele>
        <time>2024-07-26T09:35:04Z</time>
      </trkpt>
      <trkpt lat="45.88881" lon="3.03076">
        <ele>644.5</ele>
        <time>2024-07-26T09:35:05Z</time>
      </trkpt>
      <trkpt lat="45.88882" lon="3.03075">
        <ele>644.2</ele>
        <time>2024-07-26T09:35:06Z</time>
      </trkpt>
      <trkpt lat="45.88883" lon="3.03073">
        <ele>643</ele>
        <time>2024-07-26T09:35:07Z</time>
      </trkpt>
      <trkpt lat="45.88884" lon="3.03072">
        <ele>644.5</ele>
        <time>2024-07-26T09:35:08Z</time>
      </trkpt>
      <trkpt lat="45.88885" lon="3.03071">
        <ele>646.1</ele>
        <time>2024-07-26T09:35:09Z</time>
      </trkpt>
      <trkpt lat="45.88886" lon="3.0307">
        <ele>646.2</ele>
        <time>2024-07-26T09:35:10Z</time>
      </trkpt>
      <trkpt lat="45.88888" lon="3.03069">
        <ele>646.1</ele>
        <time>2024-07-26T09:35:11Z</time>
      </trkpt>
      <trkpt lat="45.88889" lon="3.03069">
        <ele>646.1</ele>
        <time>2024-07-26T09:35:12Z</time>
      </trkpt>
      <trkpt lat="45.88891" lon="3.03068">
        <ele>644.4</ele>
        <time>2024-07-26T09:35:13Z</time>
      </trkpt>
      <trkpt lat="45.88892" lon="3.03068">
        <ele>645</ele>
        <time>2024-07-26T09:35:14Z</time>
      </trkpt>
      <trkpt lat="45.88893" lon="3.03067">
        <ele>647.4</ele>
        <time>2024-07-26T09:35:15Z</time>
      </trkpt>
      <trkpt lat="45.88894" lon="3.03066">
        <ele>646.3</ele>
        <time>2024-07-26T09:35:16Z</time>
      </trkpt>
      <trkpt lat="45.88896" lon="3.03065">
        <ele>646.4</ele>
        <time>2024-07-26T09:35:17Z</time>
      </trkpt>
      <trkpt lat="45.88896" lon="3.03064">
        <ele>646.2</ele>
        <time>2024-07-26T09:35:18Z</time>
      </trkpt>
      <trkpt lat="45.88897" lon="3.03063">
        <ele>650.6</ele>
        <time>2024-07-26T09:35:20Z</time>
      </trkpt>
      <trkpt lat="45.88898" lon="3.03062">
        <ele>650.2</ele>
        <time>2024-07-26T09:35:22Z</time>
      </trkpt>
      <trkpt lat="45.88899" lon="3.0306">
        <ele>652.9</ele>
        <time>2024-07-26T09:35:24Z</time>
      </trkpt>
      <trkpt lat="45.88899" lon="3.03058">
        <ele>648.7</ele>
        <time>2024-07-26T09:35:26Z</time>
      </trkpt>
      <trkpt lat="45.88899" lon="3.03056">
        <ele>645.3</ele>
        <time>2024-07-26T09:35:28Z</time>
      </trkpt>
      <trkpt lat="45.889" lon="3.03054">
        <ele>644.1</ele>
        <time>2024-07-26T09:35:30Z</time>
      </trkpt>
      <trkpt lat="45.88901" lon="3.03053">
        <ele>644.8</ele>
        <time>2024-07-26T09:35:31Z</time>
      </trkpt>
      <trkpt lat="45.88902" lon="3.03051">
        <ele>642.6</ele>
        <time>2024-07-26T09:35:32Z</time>
      </trkpt>
      <trkpt lat="45.88903" lon="3.03049">
        <ele>643.7</ele>
        <time>2024-07-26T09:35:33Z</time>
      </trkpt>
      <trkpt lat="45.88903" lon="3.03048">
        <ele>643.4</ele>
        <time>2024-07-26T09:35:35Z</time>
      </trkpt>
      <trkpt lat="45.88905" lon="3.03048">
        <ele>644.5</ele>
        <time>2024-07-26T09:35:37Z</time>
      </trkpt>
      <trkpt lat="45.88906" lon="3.03047">
        <ele>644.5</ele>
        <time>2024-07-26T09:35:39Z</time>
      </trkpt>
      <trkpt lat="45.88906" lon="3.03045">
        <ele>643.2</ele>
        <time>2024-07-26T09:35:41Z</time>
      </trkpt>
      <trkpt lat="45.88907" lon="3.03044">
        <ele>643.4</ele>
        <time>2024-07-26T09:35:43Z</time>
      </trkpt>
      <trkpt lat="45.88909" lon="3.03042">
        <ele>641.7</ele>
        <time>2024-07-26T09:35:45Z</time>
      </trkpt>
      <trkpt lat="45.8891" lon="3.03041">
        <ele>643.1</ele>
        <time>2024-07-26T09:35:47Z</time>
      </trkpt>
      <trkpt lat="45.8891" lon="3.0304">
        <ele>643.6</ele>
        <time>2024-07-26T09:35:49Z</time>
      </trkpt>
      <trkpt lat="45.88911" lon="3.03039">
        <ele>642.7</ele>
        <time>2024-07-26T09:35:52Z</time>
      </trkpt>
      <trkpt lat="45.88913" lon="3.03039">
        <ele>643.5</ele>
        <time>2024-07-26T09:35:54Z</time>
      </trkpt>
      <trkpt lat="45.88914" lon="3.03039">
        <ele>642.7</ele>
        <time>2024-07-26T09:35:56Z</time>
      </trkpt>
      <trkpt lat="45.88916" lon="3.03039">
        <ele>642.5</ele>
        <time>2024-07-26T09:35:58Z</time>
      </trkpt>
      <trkpt lat="45.88918" lon="3.03039">
        <ele>642.6</ele>
        <time>2024-07-26T09:36:00Z</time>
      </trkpt>
      <trkpt lat="45.88919" lon="3.03039">
        <ele>643.3</ele>
        <time>2024-07-26T09:36:02Z</time>
      </trkpt>
      <trkpt lat="45.8892" lon="3.03038">
        <ele>642.6</ele>
        <time>2024-07-26T09:36:04Z</time>
      </trkpt>
      <trkpt lat="45.88921" lon="3.03036">
        <ele>641.3</ele>
        <time>2024-07-26T09:36:05Z</time>
      </trkpt>
      <trkpt lat="45.88923" lon="3.03035">
        <ele>639.6</ele>
        <time>2024-07-26T09:36:06Z</time>
      </trkpt>
      <trkpt lat="45.88925" lon="3.03033">
        <ele>638</ele>
        <time>2024-07-26T09:36:08Z</time>
      </trkpt>
      <trkpt lat="45.88926" lon="3.03033">
        <ele>637.5</ele>
        <time>2024-07-26T09:36:09Z</time>
      </trkpt>
      <trkpt lat="45.88928" lon="3.03033">
        <ele>636.7</ele>
        <time>2024-07-26T09:36:11Z</time>
      </trkpt>
      <trkpt lat="45.88929" lon="3.03035">
        <ele>638.6</ele>
        <time>2024-07-26T09:36:13Z</time>
      </trkpt>
      <trkpt lat="45.8893" lon="3.03036">
        <ele>641.8</ele>
        <time>2024-07-26T09:36:15Z</time>
      </trkpt>
      <trkpt lat="45.88931" lon="3.03038">
        <ele>644.6</ele>
        <time>2024-07-26T09:36:17Z</time>
      </trkpt>
      <trkpt lat="45.88932" lon="3.03039">
        <ele>643.5</ele>
        <time>2024-07-26T09:36:18Z</time>
      </trkpt>
      <trkpt lat="45.88933" lon="3.03039">
        <ele>642.7</ele>
        <time>2024-07-26T09:36:19Z</time>
      </trkpt>
      <trkpt lat="45.88934" lon="3.0304">
        <ele>643.6</ele>
        <time>2024-07-26T09:36:20Z</time>
      </trkpt>
      <trkpt lat="45.88935" lon="3.0304">
        <ele>644.9</ele>
        <time>2024-07-26T09:36:21Z</time>
      </trkpt>
      <trkpt lat="45.88935" lon="3.03041">
        <ele>645.4</ele>
        <time>2024-07-26T09:36:22Z</time>
      </trkpt>
      <trkpt lat="45.88936" lon="3.03041">
        <ele>644.8</ele>
        <time>2024-07-26T09:36:23Z</time>
      </trkpt>
      <trkpt lat="45.88937" lon="3.03042">
        <ele>645.7</ele>
        <time>2024-07-26T09:36:24Z</time>
      </trkpt>
      <trkpt lat="45.88938" lon="3.03042">
        <ele>646.2</ele>
        <time>2024-07-26T09:36:25Z</time>
      </trkpt>
      <trkpt lat="45.88939" lon="3.03043">
        <ele>647.9</ele>
        <time>2024-07-26T09:36:26Z</time>
      </trkpt>
      <trkpt lat="45.88941" lon="3.03043">
        <ele>646.4</ele>
        <time>2024-07-26T09:36:28Z</time>
      </trkpt>
      <trkpt lat="45.88943" lon="3.03044">
        <ele>647.2</ele>
        <time>2024-07-26T09:36:30Z</time>
      </trkpt>
      <trkpt lat="45.88943" lon="3.03045">
        <ele>648.8</ele>
        <time>2024-07-26T09:36:31Z</time>
      </trkpt>
      <trkpt lat="45.88944" lon="3.03045">
        <ele>648.6</ele>
        <time>2024-07-26T09:36:32Z</time>
      </trkpt>
      <trkpt lat="45.88945" lon="3.03046">
        <ele>649.1</ele>
        <time>2024-07-26T09:36:33Z</time>
      </trkpt>
      <trkpt lat="45.88947" lon="3.03047">
        <ele>649.9</ele>
        <time>2024-07-26T09:36:35Z</time>
      </trkpt>
      <trkpt lat="45.88948" lon="3.03049">
        <ele>651.3</ele>
        <time>2024-07-26T09:36:37Z</time>
      </trkpt>
      <trkpt lat="45.88949" lon="3.0305">
        <ele>651.5</ele>
        <time>2024-07-26T09:36:39Z</time>
      </trkpt>
      <trkpt lat="45.8895" lon="3.0305">
        <ele>648.8</ele>
        <time>2024-07-26T09:36:41Z</time>
      </trkpt>
      <trkpt lat="45.88952" lon="3.03051">
        <ele>651.3</ele>
        <time>2024-07-26T09:36:43Z</time>
      </trkpt>
      <trkpt lat="45.88953" lon="3.03051">
        <ele>646</ele>
        <time>2024-07-26T09:36:44Z</time>
      </trkpt>
      <trkpt lat="45.88954" lon="3.03051">
        <ele>646.4</ele>
        <time>2024-07-26T09:36:45Z</time>
      </trkpt>
      <trkpt lat="45.88955" lon="3.0305">
        <ele>645.1</ele>
        <time>2024-07-26T09:36:46Z</time>
      </trkpt>
      <trkpt lat="45.88957" lon="3.03048">
        <ele>643.9</ele>
        <time>2024-07-26T09:36:47Z</time>
      </trkpt>
      <trkpt lat="45.88958" lon="3.03047">
        <ele>645.1</ele>
        <time>2024-07-26T09:36:48Z</time>
      </trkpt>
      <trkpt lat="45.88958" lon="3.03046">
        <ele>643.9</ele>
        <time>2024-07-26T09:36:49Z</time>
      </trkpt>
      <trkpt lat="45.88959" lon="3.03044">
        <ele>645.6</ele>
        <time>2024-07-26T09:36:51Z</time>
      </trkpt>
      <trkpt lat="45.8896" lon="3.03044">
        <ele>643.5</ele>
        <time>2024-07-26T09:36:52Z</time>
      </trkpt>
      <trkpt lat="45.88961" lon="3.03043">
        <ele>642.8</ele>
        <time>2024-07-26T09:36:53Z</time>
      </trkpt>
      <trkpt lat="45.88962" lon="3.03042">
        <ele>641.4</ele>
        <time>2024-07-26T09:36:54Z</time>
      </trkpt>
      <trkpt lat="45.88963" lon="3.03041">
        <ele>641.5</ele>
        <time>2024-07-26T09:36:56Z</time>
      </trkpt>
      <trkpt lat="45.88964" lon="3.03041">
        <ele>641.7</ele>
        <time>2024-07-26T09:36:58Z</time>
      </trkpt>
      <trkpt lat="45.88966" lon="3.0304">
        <ele>642.4</ele>
        <time>2024-07-26T09:37:00Z</time>
      </trkpt>
      <trkpt lat="45.88966" lon="3.03039">
        <ele>642.5</ele>
        <time>2024-07-26T09:37:01Z</time>
      </trkpt>
      <trkpt lat="45.88967" lon="3.03039">
        <ele>642.8</ele>
        <time>2024-07-26T09:37:02Z</time>
      </trkpt>
      <trkpt lat="45.88968" lon="3.03038">
        <ele>643.1</ele>
        <time>2024-07-26T09:37:03Z</time>
      </trkpt>
      <trkpt lat="45.88969" lon="3.03038">
        <ele>642.5</ele>
        <time>2024-07-26T09:37:04Z</time>
      </trkpt>
      <trkpt lat="45.88971" lon="3.03036">
        <ele>642.8</ele>
        <time>2024-07-26T09:37:06Z</time>
      </trkpt>
      <trkpt lat="45.88971" lon="3.03036">
        <ele>642.6</ele>
        <time>2024-07-26T09:37:07Z</time>
      </trkpt>
      <trkpt lat="45.88973" lon="3.03035">
        <ele>643.8</ele>
        <time>2024-07-26T09:37:09Z</time>
      </trkpt>
      <trkpt lat="45.88973" lon="3.03034">
        <ele>644.3</ele>
        <time>2024-07-26T09:37:11Z</time>
      </trkpt>
      <trkpt lat="45.88974" lon="3.03032">
        <ele>644.2</ele>
        <time>2024-07-26T09:37:13Z</time>
      </trkpt>
      <trkpt lat="45.88975" lon="3.0303">
        <ele>645</ele>
        <time>2024-07-26T09:37:15Z</time>
      </trkpt>
      <trkpt lat="45.88975" lon="3.03029">
        <ele>645.8</ele>
        <time>2024-07-26T09:37:17Z</time>
      </trkpt>
      <trkpt lat="45.88977" lon="3.03027">
        <ele>646.4</ele>
        <time>2024-07-26T09:37:19Z</time>
      </trkpt>
      <trkpt lat="45.88977" lon="3.03026">
        <ele>646.3</ele>
        <time>2024-07-26T09:37:27Z</time>
      </trkpt>
      <trkpt lat="45.88978" lon="3.03024">
        <ele>646.3</ele>
        <time>2024-07-26T09:37:30Z</time>
      </trkpt>
      <trkpt lat="45.88978" lon="3.03023">
        <ele>647.2</ele>
        <time>2024-07-26T09:37:32Z</time>
      </trkpt>
      <trkpt lat="45.88979" lon="3.03022">
        <ele>647.7</ele>
        <time>2024-07-26T09:37:34Z</time>
      </trkpt>
      <trkpt lat="45.8898" lon="3.0302">
        <ele>648.1</ele>
        <time>2024-07-26T09:37:35Z</time>
      </trkpt>
      <trkpt lat="45.8898" lon="3.03019">
        <ele>649</ele>
        <time>2024-07-26T09:37:36Z</time>
      </trkpt>
      <trkpt lat="45.88982" lon="3.03017">
        <ele>650.2</ele>
        <time>2024-07-26T09:37:38Z</time>
      </trkpt>
      <trkpt lat="45.88983" lon="3.03016">
        <ele>650.4</ele>
        <time>2024-07-26T09:37:40Z</time>
      </trkpt>
      <trkpt lat="45.88984" lon="3.03015">
        <ele>650.8</ele>
        <time>2024-07-26T09:37:41Z</time>
      </trkpt>
      <trkpt lat="45.88984" lon="3.03013">
        <ele>652.4</ele>
        <time>2024-07-26T09:37:42Z</time>
      </trkpt>
      <trkpt lat="45.88985" lon="3.03012">
        <ele>653</ele>
        <time>2024-07-26T09:37:43Z</time>
      </trkpt>
      <trkpt lat="45.88985" lon="3.03011">
        <ele>652.7</ele>
        <time>2024-07-26T09:37:44Z</time>
      </trkpt>
      <trkpt lat="45.88986" lon="3.0301">
        <ele>652.7</ele>
        <time>2024-07-26T09:37:45Z</time>
      </trkpt>
      <trkpt lat="45.88987" lon="3.03008">
        <ele>653.3</ele>
        <time>2024-07-26T09:37:46Z</time>
      </trkpt>
      <trkpt lat="45.88987" lon="3.03008">
        <ele>653</ele>
        <time>2024-07-26T09:37:47Z</time>
      </trkpt>
      <trkpt lat="45.88988" lon="3.03007">
        <ele>652.6</ele>
        <time>2024-07-26T09:37:48Z</time>
      </trkpt>
      <trkpt lat="45.88989" lon="3.03005">
        <ele>653</ele>
        <time>2024-07-26T09:37:49Z</time>
      </trkpt>
      <trkpt lat="45.8899" lon="3.03003">
        <ele>651.9</ele>
        <time>2024-07-26T09:37:50Z</time>
      </trkpt>
      <trkpt lat="45.8899" lon="3.03001">
        <ele>650.4</ele>
        <time>2024-07-26T09:37:51Z</time>
      </trkpt>
      <trkpt lat="45.8899" lon="3.03">
        <ele>649.7</ele>
        <time>2024-07-26T09:37:52Z</time>
      </trkpt>
      <trkpt lat="45.8899" lon="3.02998">
        <ele>649.3</ele>
        <time>2024-07-26T09:37:54Z</time>
      </trkpt>
      <trkpt lat="45.8899" lon="3.02997">
        <ele>648.9</ele>
        <time>2024-07-26T09:37:56Z</time>
      </trkpt>
      <trkpt lat="45.88991" lon="3.02995">
        <ele>648.8</ele>
        <time>2024-07-26T09:37:58Z</time>
      </trkpt>
      <trkpt lat="45.88992" lon="3.02994">
        <ele>649.2</ele>
        <time>2024-07-26T09:38:00Z</time>
      </trkpt>
      <trkpt lat="45.88993" lon="3.02992">
        <ele>648.7</ele>
        <time>2024-07-26T09:38:02Z</time>
      </trkpt>
      <trkpt lat="45.88994" lon="3.02991">
        <ele>648.6</ele>
        <time>2024-07-26T09:38:04Z</time>
      </trkpt>
      <trkpt lat="45.88995" lon="3.02989">
        <ele>648.7</ele>
        <time>2024-07-26T09:38:06Z</time>
      </trkpt>
      <trkpt lat="45.88996" lon="3.02988">
        <ele>648.8</ele>
        <time>2024-07-26T09:38:08Z</time>
      </trkpt>
      <trkpt lat="45.88997" lon="3.02986">
        <ele>649.1</ele>
        <time>2024-07-26T09:38:10Z</time>
      </trkpt>
      <trkpt lat="45.88998" lon="3.02985">
        <ele>649.5</ele>
        <time>2024-07-26T09:38:12Z</time>
      </trkpt>
      <trkpt lat="45.88999" lon="3.02983">
        <ele>649</ele>
        <time>2024-07-26T09:38:14Z</time>
      </trkpt>
      <trkpt lat="45.89001" lon="3.02981">
        <ele>649.9</ele>
        <time>2024-07-26T09:38:16Z</time>
      </trkpt>
      <trkpt lat="45.89002" lon="3.0298">
        <ele>650.3</ele>
        <time>2024-07-26T09:38:18Z</time>
      </trkpt>
      <trkpt lat="45.89003" lon="3.02979">
        <ele>650.9</ele>
        <time>2024-07-26T09:38:20Z</time>
      </trkpt>
      <trkpt lat="45.89004" lon="3.02978">
        <ele>651.1</ele>
        <time>2024-07-26T09:38:22Z</time>
      </trkpt>
      <trkpt lat="45.89006" lon="3.02976">
        <ele>651.6</ele>
        <time>2024-07-26T09:38:25Z</time>
      </trkpt>
      <trkpt lat="45.89008" lon="3.02975">
        <ele>653.4</ele>
        <time>2024-07-26T09:38:27Z</time>
      </trkpt>
      <trkpt lat="45.89009" lon="3.02973">
        <ele>652.8</ele>
        <time>2024-07-26T09:38:29Z</time>
      </trkpt>
      <trkpt lat="45.89009" lon="3.02973">
        <ele>652.4</ele>
        <time>2024-07-26T09:38:30Z</time>
      </trkpt>
      <trkpt lat="45.8901" lon="3.02972">
        <ele>652.6</ele>
        <time>2024-07-26T09:38:31Z</time>
      </trkpt>
      <trkpt lat="45.89011" lon="3.02971">
        <ele>652.4</ele>
        <time>2024-07-26T09:38:32Z</time>
      </trkpt>
      <trkpt lat="45.89012" lon="3.0297">
        <ele>652.8</ele>
        <time>2024-07-26T09:38:33Z</time>
      </trkpt>
      <trkpt lat="45.89013" lon="3.02969">
        <ele>653.2</ele>
        <time>2024-07-26T09:38:34Z</time>
      </trkpt>
      <trkpt lat="45.89013" lon="3.02968">
        <ele>653.7</ele>
        <time>2024-07-26T09:38:35Z</time>
      </trkpt>
      <trkpt lat="45.89015" lon="3.02967">
        <ele>653.4</ele>
        <time>2024-07-26T09:38:37Z</time>
      </trkpt>
      <trkpt lat="45.89015" lon="3.02966">
        <ele>654</ele>
        <time>2024-07-26T09:38:38Z</time>
      </trkpt>
      <trkpt lat="45.89017" lon="3.02964">
        <ele>653.6</ele>
        <time>2024-07-26T09:38:40Z</time>
      </trkpt>
      <trkpt lat="45.89017" lon="3.02963">
        <ele>653.5</ele>
        <time>2024-07-26T09:38:41Z</time>
      </trkpt>
      <trkpt lat="45.89019" lon="3.02961">
        <ele>653.4</ele>
        <time>2024-07-26T09:38:43Z</time>
      </trkpt>
      <trkpt lat="45.89019" lon="3.0296">
        <ele>653.8</ele>
        <time>2024-07-26T09:38:44Z</time>
      </trkpt>
      <trkpt lat="45.8902" lon="3.02959">
        <ele>653.5</ele>
        <time>2024-07-26T09:38:45Z</time>
      </trkpt>
      <trkpt lat="45.89021" lon="3.02958">
        <ele>653.8</ele>
        <time>2024-07-26T09:38:46Z</time>
      </trkpt>
      <trkpt lat="45.89021" lon="3.02957">
        <ele>653.6</ele>
        <time>2024-07-26T09:38:47Z</time>
      </trkpt>
      <trkpt lat="45.89022" lon="3.02956">
        <ele>653.6</ele>
        <time>2024-07-26T09:38:48Z</time>
      </trkpt>
      <trkpt lat="45.89023" lon="3.02954">
        <ele>653.8</ele>
        <time>2024-07-26T09:38:50Z</time>
      </trkpt>
      <trkpt lat="45.89024" lon="3.02952">
        <ele>653.9</ele>
        <time>2024-07-26T09:38:52Z</time>
      </trkpt>
      <trkpt lat="45.89025" lon="3.0295">
        <ele>655</ele>
        <time>2024-07-26T09:38:54Z</time>
      </trkpt>
      <trkpt lat="45.89025" lon="3.02948">
        <ele>655.2</ele>
        <time>2024-07-26T09:38:56Z</time>
      </trkpt>
      <trkpt lat="45.89026" lon="3.02948">
        <ele>656.9</ele>
        <time>2024-07-26T09:38:59Z</time>
      </trkpt>
      <trkpt lat="45.89027" lon="3.02946">
        <ele>657.2</ele>
        <time>2024-07-26T09:39:04Z</time>
      </trkpt>
      <trkpt lat="45.89028" lon="3.02944">
        <ele>656.9</ele>
        <time>2024-07-26T09:39:06Z</time>
      </trkpt>
      <trkpt lat="45.89028" lon="3.02943">
        <ele>657</ele>
        <time>2024-07-26T09:39:07Z</time>
      </trkpt>
      <trkpt lat="45.89028" lon="3.02941">
        <ele>656.2</ele>
        <time>2024-07-26T09:39:09Z</time>
      </trkpt>
      <trkpt lat="45.89028" lon="3.02939">
        <ele>657.8</ele>
        <time>2024-07-26T09:39:11Z</time>
      </trkpt>
      <trkpt lat="45.89028" lon="3.02937">
        <ele>658.5</ele>
        <time>2024-07-26T09:39:13Z</time>
      </trkpt>
      <trkpt lat="45.89029" lon="3.02936">
        <ele>658.7</ele>
        <time>2024-07-26T09:39:14Z</time>
      </trkpt>
      <trkpt lat="45.89028" lon="3.02934">
        <ele>656.1</ele>
        <time>2024-07-26T09:39:15Z</time>
      </trkpt>
      <trkpt lat="45.89029" lon="3.02933">
        <ele>656.5</ele>
        <time>2024-07-26T09:39:16Z</time>
      </trkpt>
      <trkpt lat="45.89029" lon="3.0293">
        <ele>657.3</ele>
        <time>2024-07-26T09:39:18Z</time>
      </trkpt>
      <trkpt lat="45.89029" lon="3.02929">
        <ele>656.8</ele>
        <time>2024-07-26T09:39:19Z</time>
      </trkpt>
      <trkpt lat="45.8903" lon="3.02927">
        <ele>655.7</ele>
        <time>2024-07-26T09:39:20Z</time>
      </trkpt>
      <trkpt lat="45.89031" lon="3.02926">
        <ele>658.5</ele>
        <time>2024-07-26T09:39:22Z</time>
      </trkpt>
      <trkpt lat="45.89032" lon="3.02924">
        <ele>658.6</ele>
        <time>2024-07-26T09:39:24Z</time>
      </trkpt>
      <trkpt lat="45.89033" lon="3.02923">
        <ele>661.2</ele>
        <time>2024-07-26T09:39:26Z</time>
      </trkpt>
      <trkpt lat="45.89034" lon="3.02922">
        <ele>662.2</ele>
        <time>2024-07-26T09:39:27Z</time>
      </trkpt>
      <trkpt lat="45.89035" lon="3.02921">
        <ele>661.1</ele>
        <time>2024-07-26T09:39:29Z</time>
      </trkpt>
      <trkpt lat="45.89036" lon="3.02919">
        <ele>661.4</ele>
        <time>2024-07-26T09:39:31Z</time>
      </trkpt>
      <trkpt lat="45.89037" lon="3.02918">
        <ele>663</ele>
        <time>2024-07-26T09:39:33Z</time>
      </trkpt>
      <trkpt lat="45.89037" lon="3.02916">
        <ele>665.6</ele>
        <time>2024-07-26T09:39:36Z</time>
      </trkpt>
      <trkpt lat="45.89038" lon="3.02916">
        <ele>666.8</ele>
        <time>2024-07-26T09:39:38Z</time>
      </trkpt>
      <trkpt lat="45.89038" lon="3.02914">
        <ele>666.1</ele>
        <time>2024-07-26T09:39:40Z</time>
      </trkpt>
      <trkpt lat="45.89038" lon="3.02912">
        <ele>665.3</ele>
        <time>2024-07-26T09:39:42Z</time>
      </trkpt>
      <trkpt lat="45.89037" lon="3.02912">
        <ele>664.2</ele>
        <time>2024-07-26T09:39:44Z</time>
      </trkpt>
      <trkpt lat="45.89038" lon="3.0291">
        <ele>666</ele>
        <time>2024-07-26T09:39:46Z</time>
      </trkpt>
      <trkpt lat="45.89039" lon="3.02909">
        <ele>666.8</ele>
        <time>2024-07-26T09:39:47Z</time>
      </trkpt>
      <trkpt lat="45.89039" lon="3.02907">
        <ele>666.5</ele>
        <time>2024-07-26T09:39:48Z</time>
      </trkpt>
      <trkpt lat="45.8904" lon="3.02906">
        <ele>665.7</ele>
        <time>2024-07-26T09:39:50Z</time>
      </trkpt>
      <trkpt lat="45.89042" lon="3.02905">
        <ele>666.3</ele>
        <time>2024-07-26T09:39:51Z</time>
      </trkpt>
      <trkpt lat="45.89043" lon="3.02905">
        <ele>666.3</ele>
        <time>2024-07-26T09:39:53Z</time>
      </trkpt>
      <trkpt lat="45.89043" lon="3.02903">
        <ele>662.4</ele>
        <time>2024-07-26T09:39:56Z</time>
      </trkpt>
      <trkpt lat="45.89043" lon="3.02902">
        <ele>661.8</ele>
        <time>2024-07-26T09:39:57Z</time>
      </trkpt>
      <trkpt lat="45.89043" lon="3.029">
        <ele>663.2</ele>
        <time>2024-07-26T09:39:59Z</time>
      </trkpt>
      <trkpt lat="45.89043" lon="3.02898">
        <ele>663.3</ele>
        <time>2024-07-26T09:40:01Z</time>
      </trkpt>
      <trkpt lat="45.89043" lon="3.02895">
        <ele>664.2</ele>
        <time>2024-07-26T09:40:03Z</time>
      </trkpt>
      <trkpt lat="45.89044" lon="3.02893">
        <ele>665.3</ele>
        <time>2024-07-26T09:40:04Z</time>
      </trkpt>
      <trkpt lat="45.89044" lon="3.0289">
        <ele>664.7</ele>
        <time>2024-07-26T09:40:05Z</time>
      </trkpt>
      <trkpt lat="45.89045" lon="3.02889">
        <ele>663.5</ele>
        <time>2024-07-26T09:40:06Z</time>
      </trkpt>
      <trkpt lat="45.89045" lon="3.02887">
        <ele>664.2</ele>
        <time>2024-07-26T09:40:10Z</time>
      </trkpt>
      <trkpt lat="45.89044" lon="3.02887">
        <ele>662.7</ele>
        <time>2024-07-26T09:40:18Z</time>
      </trkpt>
      <trkpt lat="45.89044" lon="3.02886">
        <ele>665.2</ele>
        <time>2024-07-26T09:40:21Z</time>
      </trkpt>
      <trkpt lat="45.89044" lon="3.02884">
        <ele>668.7</ele>
        <time>2024-07-26T09:40:24Z</time>
      </trkpt>
      <trkpt lat="45.89045" lon="3.02882">
        <ele>673.3</ele>
        <time>2024-07-26T09:40:30Z</time>
      </trkpt>
      <trkpt lat="45.89045" lon="3.02881">
        <ele>668.4</ele>
        <time>2024-07-26T09:40:31Z</time>
      </trkpt>
      <trkpt lat="45.89044" lon="3.02879">
        <ele>670.2</ele>
        <time>2024-07-26T09:40:32Z</time>
      </trkpt>
      <trkpt lat="45.89044" lon="3.02877">
        <ele>670.3</ele>
        <time>2024-07-26T09:40:33Z</time>
      </trkpt>
      <trkpt lat="45.89043" lon="3.02876">
        <ele>670</ele>
        <time>2024-07-26T09:40:34Z</time>
      </trkpt>
      <trkpt lat="45.89043" lon="3.02875">
        <ele>670.7</ele>
        <time>2024-07-26T09:40:35Z</time>
      </trkpt>
      <trkpt lat="45.89043" lon="3.02873">
        <ele>669.9</ele>
        <time>2024-07-26T09:40:36Z</time>
      </trkpt>
      <trkpt lat="45.89043" lon="3.02871">
        <ele>670.4</ele>
        <time>2024-07-26T09:40:38Z</time>
      </trkpt>
      <trkpt lat="45.89043" lon="3.0287">
        <ele>670.9</ele>
        <time>2024-07-26T09:40:40Z</time>
      </trkpt>
      <trkpt lat="45.89043" lon="3.02867">
        <ele>672.4</ele>
        <time>2024-07-26T09:40:42Z</time>
      </trkpt>
      <trkpt lat="45.89042" lon="3.02866">
        <ele>672.4</ele>
        <time>2024-07-26T09:40:43Z</time>
      </trkpt>
      <trkpt lat="45.89042" lon="3.02864">
        <ele>671.6</ele>
        <time>2024-07-26T09:40:44Z</time>
      </trkpt>
      <trkpt lat="45.89043" lon="3.02863">
        <ele>671.2</ele>
        <time>2024-07-26T09:40:45Z</time>
      </trkpt>
      <trkpt lat="45.89043" lon="3.02861">
        <ele>671.6</ele>
        <time>2024-07-26T09:40:46Z</time>
      </trkpt>
      <trkpt lat="45.89043" lon="3.0286">
        <ele>671.9</ele>
        <time>2024-07-26T09:40:47Z</time>
      </trkpt>
      <trkpt lat="45.89043" lon="3.02858">
        <ele>670.9</ele>
        <time>2024-07-26T09:40:48Z</time>
      </trkpt>
      <trkpt lat="45.89043" lon="3.02856">
        <ele>669.2</ele>
        <time>2024-07-26T09:40:49Z</time>
      </trkpt>
      <trkpt lat="45.89042" lon="3.02854">
        <ele>669.4</ele>
        <time>2024-07-26T09:40:50Z</time>
      </trkpt>
      <trkpt lat="45.89042" lon="3.02853">
        <ele>669.2</ele>
        <time>2024-07-26T09:40:51Z</time>
      </trkpt>
      <trkpt lat="45.89042" lon="3.0285">
        <ele>668.3</ele>
        <time>2024-07-26T09:40:53Z</time>
      </trkpt>
      <trkpt lat="45.89041" lon="3.02849">
        <ele>668.1</ele>
        <time>2024-07-26T09:40:54Z</time>
      </trkpt>
      <trkpt lat="45.89041" lon="3.02848">
        <ele>667.7</ele>
        <time>2024-07-26T09:40:55Z</time>
      </trkpt>
      <trkpt lat="45.89041" lon="3.02846">
        <ele>668.2</ele>
        <time>2024-07-26T09:40:56Z</time>
      </trkpt>
      <trkpt lat="45.89041" lon="3.02845">
        <ele>668.4</ele>
        <time>2024-07-26T09:40:58Z</time>
      </trkpt>
      <trkpt lat="45.89041" lon="3.02843">
        <ele>669.3</ele>
        <time>2024-07-26T09:41:00Z</time>
      </trkpt>
      <trkpt lat="45.89041" lon="3.02842">
        <ele>668.5</ele>
        <time>2024-07-26T09:41:02Z</time>
      </trkpt>
      <trkpt lat="45.89042" lon="3.0284">
        <ele>669.6</ele>
        <time>2024-07-26T09:41:12Z</time>
      </trkpt>
      <trkpt lat="45.89043" lon="3.02839">
        <ele>669.6</ele>
        <time>2024-07-26T09:41:14Z</time>
      </trkpt>
      <trkpt lat="45.89044" lon="3.02837">
        <ele>670.9</ele>
        <time>2024-07-26T09:41:16Z</time>
      </trkpt>
      <trkpt lat="45.89045" lon="3.02836">
        <ele>672.3</ele>
        <time>2024-07-26T09:41:18Z</time>
      </trkpt>
      <trkpt lat="45.89046" lon="3.02835">
        <ele>673.8</ele>
        <time>2024-07-26T09:41:20Z</time>
      </trkpt>
      <trkpt lat="45.89045" lon="3.02833">
        <ele>673.9</ele>
        <time>2024-07-26T09:41:22Z</time>
      </trkpt>
      <trkpt lat="45.89047" lon="3.02831">
        <ele>673.3</ele>
        <time>2024-07-26T09:41:25Z</time>
      </trkpt>
      <trkpt lat="45.89047" lon="3.0283">
        <ele>673.4</ele>
        <time>2024-07-26T09:41:27Z</time>
      </trkpt>
      <trkpt lat="45.89048" lon="3.02828">
        <ele>675.6</ele>
        <time>2024-07-26T09:41:29Z</time>
      </trkpt>
      <trkpt lat="45.89047" lon="3.02826">
        <ele>674.9</ele>
        <time>2024-07-26T09:41:31Z</time>
      </trkpt>
      <trkpt lat="45.89046" lon="3.02825">
        <ele>674.1</ele>
        <time>2024-07-26T09:41:33Z</time>
      </trkpt>
      <trkpt lat="45.89047" lon="3.02825">
        <ele>672.2</ele>
        <time>2024-07-26T09:41:34Z</time>
      </trkpt>
      <trkpt lat="45.89047" lon="3.02823">
        <ele>674.3</ele>
        <time>2024-07-26T09:41:39Z</time>
      </trkpt>
      <trkpt lat="45.89048" lon="3.02821">
        <ele>674.4</ele>
        <time>2024-07-26T09:41:41Z</time>
      </trkpt>
      <trkpt lat="45.89048" lon="3.0282">
        <ele>676.8</ele>
        <time>2024-07-26T09:41:43Z</time>
      </trkpt>
      <trkpt lat="45.89049" lon="3.02818">
        <ele>678.4</ele>
        <time>2024-07-26T09:41:45Z</time>
      </trkpt>
      <trkpt lat="45.8905" lon="3.02816">
        <ele>680.2</ele>
        <time>2024-07-26T09:41:47Z</time>
      </trkpt>
      <trkpt lat="45.89051" lon="3.02815">
        <ele>680.1</ele>
        <time>2024-07-26T09:41:49Z</time>
      </trkpt>
      <trkpt lat="45.89051" lon="3.02813">
        <ele>683.1</ele>
        <time>2024-07-26T09:41:51Z</time>
      </trkpt>
      <trkpt lat="45.89051" lon="3.0281">
        <ele>681.6</ele>
        <time>2024-07-26T09:41:53Z</time>
      </trkpt>
      <trkpt lat="45.8905" lon="3.02808">
        <ele>681.1</ele>
        <time>2024-07-26T09:41:55Z</time>
      </trkpt>
      <trkpt lat="45.89049" lon="3.02806">
        <ele>682.4</ele>
        <time>2024-07-26T09:41:56Z</time>
      </trkpt>
      <trkpt lat="45.89048" lon="3.02805">
        <ele>683.3</ele>
        <time>2024-07-26T09:41:58Z</time>
      </trkpt>
      <trkpt lat="45.89047" lon="3.02805">
        <ele>682.2</ele>
        <time>2024-07-26T09:41:59Z</time>
      </trkpt>
      <trkpt lat="45.89046" lon="3.02802">
        <ele>680.2</ele>
        <time>2024-07-26T09:42:01Z</time>
      </trkpt>
      <trkpt lat="45.89046" lon="3.02801">
        <ele>683.2</ele>
        <time>2024-07-26T09:42:02Z</time>
      </trkpt>
      <trkpt lat="45.89047" lon="3.02799">
        <ele>683.8</ele>
        <time>2024-07-26T09:42:03Z</time>
      </trkpt>
      <trkpt lat="45.89047" lon="3.02797">
        <ele>686.6</ele>
        <time>2024-07-26T09:42:06Z</time>
      </trkpt>
      <trkpt lat="45.89047" lon="3.02795">
        <ele>684.9</ele>
        <time>2024-07-26T09:42:08Z</time>
      </trkpt>
      <trkpt lat="45.89047" lon="3.02794">
        <ele>684.2</ele>
        <time>2024-07-26T09:42:10Z</time>
      </trkpt>
      <trkpt lat="45.89047" lon="3.02791">
        <ele>683.2</ele>
        <time>2024-07-26T09:42:12Z</time>
      </trkpt>
      <trkpt lat="45.89047" lon="3.0279">
        <ele>683.3</ele>
        <time>2024-07-26T09:42:14Z</time>
      </trkpt>
      <trkpt lat="45.89048" lon="3.02788">
        <ele>685.8</ele>
        <time>2024-07-26T09:42:16Z</time>
      </trkpt>
      <trkpt lat="45.89048" lon="3.02787">
        <ele>682.9</ele>
        <time>2024-07-26T09:42:17Z</time>
      </trkpt>
      <trkpt lat="45.89049" lon="3.02785">
        <ele>683.7</ele>
        <time>2024-07-26T09:42:18Z</time>
      </trkpt>
      <trkpt lat="45.89048" lon="3.02783">
        <ele>681.6</ele>
        <time>2024-07-26T09:42:20Z</time>
      </trkpt>
      <trkpt lat="45.89047" lon="3.02781">
        <ele>677.4</ele>
        <time>2024-07-26T09:42:21Z</time>
      </trkpt>
      <trkpt lat="45.89046" lon="3.0278">
        <ele>677</ele>
        <time>2024-07-26T09:42:22Z</time>
      </trkpt>
      <trkpt lat="45.89045" lon="3.02778">
        <ele>676</ele>
        <time>2024-07-26T09:42:23Z</time>
      </trkpt>
      <trkpt lat="45.89044" lon="3.02776">
        <ele>676.3</ele>
        <time>2024-07-26T09:42:25Z</time>
      </trkpt>
      <trkpt lat="45.89045" lon="3.02774">
        <ele>674.9</ele>
        <time>2024-07-26T09:42:27Z</time>
      </trkpt>
      <trkpt lat="45.89046" lon="3.02774">
        <ele>675.4</ele>
        <time>2024-07-26T09:42:28Z</time>
      </trkpt>
      <trkpt lat="45.89047" lon="3.02774">
        <ele>676.1</ele>
        <time>2024-07-26T09:42:29Z</time>
      </trkpt>
      <trkpt lat="45.89048" lon="3.02772">
        <ele>676.6</ele>
        <time>2024-07-26T09:42:31Z</time>
      </trkpt>
      <trkpt lat="45.89048" lon="3.02771">
        <ele>676.4</ele>
        <time>2024-07-26T09:42:32Z</time>
      </trkpt>
      <trkpt lat="45.89048" lon="3.02769">
        <ele>676.1</ele>
        <time>2024-07-26T09:42:33Z</time>
      </trkpt>
      <trkpt lat="45.89048" lon="3.02768">
        <ele>675.2</ele>
        <time>2024-07-26T09:42:34Z</time>
      </trkpt>
      <trkpt lat="45.89049" lon="3.02767">
        <ele>675.1</ele>
        <time>2024-07-26T09:42:35Z</time>
      </trkpt>
      <trkpt lat="45.89049" lon="3.02765">
        <ele>673.6</ele>
        <time>2024-07-26T09:42:36Z</time>
      </trkpt>
      <trkpt lat="45.8905" lon="3.02764">
        <ele>672.9</ele>
        <time>2024-07-26T09:42:37Z</time>
      </trkpt>
      <trkpt lat="45.8905" lon="3.02762">
        <ele>671.2</ele>
        <time>2024-07-26T09:42:39Z</time>
      </trkpt>
      <trkpt lat="45.89051" lon="3.02763">
        <ele>672.9</ele>
        <time>2024-07-26T09:42:42Z</time>
      </trkpt>
      <trkpt lat="45.89053" lon="3.02763">
        <ele>676</ele>
        <time>2024-07-26T09:42:44Z</time>
      </trkpt>
      <trkpt lat="45.89054" lon="3.02763">
        <ele>676.5</ele>
        <time>2024-07-26T09:42:45Z</time>
      </trkpt>
      <trkpt lat="45.89055" lon="3.02764">
        <ele>671.9</ele>
        <time>2024-07-26T09:42:47Z</time>
      </trkpt>
      <trkpt lat="45.89056" lon="3.02767">
        <ele>676.1</ele>
        <time>2024-07-26T09:42:49Z</time>
      </trkpt>
      <trkpt lat="45.89057" lon="3.02769">
        <ele>674.2</ele>
        <time>2024-07-26T09:42:51Z</time>
      </trkpt>
      <trkpt lat="45.89058" lon="3.0277">
        <ele>669.9</ele>
        <time>2024-07-26T09:42:53Z</time>
      </trkpt>
      <trkpt lat="45.8906" lon="3.0277">
        <ele>669.2</ele>
        <time>2024-07-26T09:42:55Z</time>
      </trkpt>
      <trkpt lat="45.89061" lon="3.02773">
        <ele>672.8</ele>
        <time>2024-07-26T09:42:57Z</time>
      </trkpt>
      <trkpt lat="45.89061" lon="3.02775">
        <ele>671.3</ele>
        <time>2024-07-26T09:42:59Z</time>
      </trkpt>
      <trkpt lat="45.89061" lon="3.02777">
        <ele>671.8</ele>
        <time>2024-07-26T09:43:00Z</time>
      </trkpt>
      <trkpt lat="45.89059" lon="3.02778">
        <ele>671.4</ele>
        <time>2024-07-26T09:43:03Z</time>
      </trkpt>
      <trkpt lat="45.89062" lon="3.02778">
        <ele>664.2</ele>
        <time>2024-07-26T09:43:06Z</time>
      </trkpt>
      <trkpt lat="45.89063" lon="3.02778">
        <ele>665.5</ele>
        <time>2024-07-26T09:43:07Z</time>
      </trkpt>
      <trkpt lat="45.89066" lon="3.02779">
        <ele>666.6</ele>
        <time>2024-07-26T09:43:09Z</time>
      </trkpt>
      <trkpt lat="45.89067" lon="3.02779">
        <ele>667.8</ele>
        <time>2024-07-26T09:43:10Z</time>
      </trkpt>
      <trkpt lat="45.89068" lon="3.0278">
        <ele>668.2</ele>
        <time>2024-07-26T09:43:11Z</time>
      </trkpt>
      <trkpt lat="45.89069" lon="3.02782">
        <ele>666.1</ele>
        <time>2024-07-26T09:43:12Z</time>
      </trkpt>
      <trkpt lat="45.89069" lon="3.02783">
        <ele>667</ele>
        <time>2024-07-26T09:43:13Z</time>
      </trkpt>
      <trkpt lat="45.89069" lon="3.02785">
        <ele>670.1</ele>
        <time>2024-07-26T09:43:15Z</time>
      </trkpt>
      <trkpt lat="45.89069" lon="3.02786">
        <ele>670.3</ele>
        <time>2024-07-26T09:43:17Z</time>
      </trkpt>
      <trkpt lat="45.8907" lon="3.02788">
        <ele>674.2</ele>
        <time>2024-07-26T09:43:20Z</time>
      </trkpt>
      <trkpt lat="45.89072" lon="3.02789">
        <ele>675</ele>
        <time>2024-07-26T09:43:22Z</time>
      </trkpt>
      <trkpt lat="45.89072" lon="3.02791">
        <ele>676.4</ele>
        <time>2024-07-26T09:43:23Z</time>
      </trkpt>
      <trkpt lat="45.89073" lon="3.02792">
        <ele>675.6</ele>
        <time>2024-07-26T09:43:24Z</time>
      </trkpt>
      <trkpt lat="45.89073" lon="3.02794">
        <ele>676.7</ele>
        <time>2024-07-26T09:43:25Z</time>
      </trkpt>
      <trkpt lat="45.89073" lon="3.02795">
        <ele>677.5</ele>
        <time>2024-07-26T09:43:26Z</time>
      </trkpt>
      <trkpt lat="45.89073" lon="3.02796">
        <ele>679.7</ele>
        <time>2024-07-26T09:43:27Z</time>
      </trkpt>
      <trkpt lat="45.89074" lon="3.02797">
        <ele>682.2</ele>
        <time>2024-07-26T09:43:28Z</time>
      </trkpt>
      <trkpt lat="45.89075" lon="3.02799">
        <ele>681.8</ele>
        <time>2024-07-26T09:43:30Z</time>
      </trkpt>
      <trkpt lat="45.89076" lon="3.02799">
        <ele>684.7</ele>
        <time>2024-07-26T09:43:31Z</time>
      </trkpt>
      <trkpt lat="45.89078" lon="3.02801">
        <ele>683.9</ele>
        <time>2024-07-26T09:43:33Z</time>
      </trkpt>
      <trkpt lat="45.89079" lon="3.02802">
        <ele>683.2</ele>
        <time>2024-07-26T09:43:34Z</time>
      </trkpt>
      <trkpt lat="45.8908" lon="3.02802">
        <ele>685</ele>
        <time>2024-07-26T09:43:36Z</time>
      </trkpt>
      <trkpt lat="45.89081" lon="3.02801">
        <ele>681</ele>
        <time>2024-07-26T09:43:38Z</time>
      </trkpt>
      <trkpt lat="45.89082" lon="3.02801">
        <ele>681.5</ele>
        <time>2024-07-26T09:43:39Z</time>
      </trkpt>
      <trkpt lat="45.89083" lon="3.02801">
        <ele>683.2</ele>
        <time>2024-07-26T09:43:40Z</time>
      </trkpt>
      <trkpt lat="45.89084" lon="3.02802">
        <ele>681.9</ele>
        <time>2024-07-26T09:43:41Z</time>
      </trkpt>
      <trkpt lat="45.89085" lon="3.02803">
        <ele>681.1</ele>
        <time>2024-07-26T09:43:42Z</time>
      </trkpt>
      <trkpt lat="45.89086" lon="3.02804">
        <ele>679.7</ele>
        <time>2024-07-26T09:43:44Z</time>
      </trkpt>
      <trkpt lat="45.89087" lon="3.02805">
        <ele>678.8</ele>
        <time>2024-07-26T09:43:46Z</time>
      </trkpt>
      <trkpt lat="45.89089" lon="3.02806">
        <ele>675.5</ele>
        <time>2024-07-26T09:43:47Z</time>
      </trkpt>
      <trkpt lat="45.8909" lon="3.02807">
        <ele>678.7</ele>
        <time>2024-07-26T09:43:48Z</time>
      </trkpt>
      <trkpt lat="45.89091" lon="3.02808">
        <ele>677.5</ele>
        <time>2024-07-26T09:43:49Z</time>
      </trkpt>
      <trkpt lat="45.89092" lon="3.02809">
        <ele>679.2</ele>
        <time>2024-07-26T09:43:50Z</time>
      </trkpt>
      <trkpt lat="45.89093" lon="3.0281">
        <ele>677.9</ele>
        <time>2024-07-26T09:43:51Z</time>
      </trkpt>
      <trkpt lat="45.89094" lon="3.0281">
        <ele>677.6</ele>
        <time>2024-07-26T09:43:52Z</time>
      </trkpt>
      <trkpt lat="45.89095" lon="3.0281">
        <ele>678</ele>
        <time>2024-07-26T09:43:53Z</time>
      </trkpt>
      <trkpt lat="45.89097" lon="3.02811">
        <ele>677.5</ele>
        <time>2024-07-26T09:43:54Z</time>
      </trkpt>
      <trkpt lat="45.89098" lon="3.02811">
        <ele>676.8</ele>
        <time>2024-07-26T09:43:55Z</time>
      </trkpt>
      <trkpt lat="45.89099" lon="3.02811">
        <ele>677.6</ele>
        <time>2024-07-26T09:43:56Z</time>
      </trkpt>
      <trkpt lat="45.891" lon="3.02811">
        <ele>680.9</ele>
        <time>2024-07-26T09:43:59Z</time>
      </trkpt>
      <trkpt lat="45.89101" lon="3.02811">
        <ele>681.6</ele>
        <time>2024-07-26T09:44:01Z</time>
      </trkpt>
      <trkpt lat="45.89101" lon="3.02812">
        <ele>680.8</ele>
        <time>2024-07-26T09:44:02Z</time>
      </trkpt>
      <trkpt lat="45.89102" lon="3.02814">
        <ele>681.8</ele>
        <time>2024-07-26T09:44:03Z</time>
      </trkpt>
      <trkpt lat="45.89103" lon="3.02815">
        <ele>678.3</ele>
        <time>2024-07-26T09:44:04Z</time>
      </trkpt>
      <trkpt lat="45.89104" lon="3.02817">
        <ele>677.2</ele>
        <time>2024-07-26T09:44:06Z</time>
      </trkpt>
      <trkpt lat="45.89105" lon="3.02818">
        <ele>676.3</ele>
        <time>2024-07-26T09:44:08Z</time>
      </trkpt>
      <trkpt lat="45.89108" lon="3.02819">
        <ele>675.4</ele>
        <time>2024-07-26T09:44:10Z</time>
      </trkpt>
      <trkpt lat="45.89109" lon="3.0282">
        <ele>674.3</ele>
        <time>2024-07-26T09:44:11Z</time>
      </trkpt>
      <trkpt lat="45.89109" lon="3.02821">
        <ele>675.4</ele>
        <time>2024-07-26T09:44:12Z</time>
      </trkpt>
      <trkpt lat="45.8911" lon="3.02822">
        <ele>674.5</ele>
        <time>2024-07-26T09:44:13Z</time>
      </trkpt>
      <trkpt lat="45.89112" lon="3.02823">
        <ele>672.6</ele>
        <time>2024-07-26T09:44:14Z</time>
      </trkpt>
      <trkpt lat="45.89112" lon="3.02824">
        <ele>671.3</ele>
        <time>2024-07-26T09:44:15Z</time>
      </trkpt>
      <trkpt lat="45.89113" lon="3.02826">
        <ele>672.1</ele>
        <time>2024-07-26T09:44:16Z</time>
      </trkpt>
      <trkpt lat="45.89113" lon="3.02827">
        <ele>674.9</ele>
        <time>2024-07-26T09:44:17Z</time>
      </trkpt>
      <trkpt lat="45.89113" lon="3.02829">
        <ele>675.2</ele>
        <time>2024-07-26T09:44:18Z</time>
      </trkpt>
      <trkpt lat="45.89114" lon="3.0283">
        <ele>675.4</ele>
        <time>2024-07-26T09:44:19Z</time>
      </trkpt>
      <trkpt lat="45.89115" lon="3.02831">
        <ele>675.4</ele>
        <time>2024-07-26T09:44:20Z</time>
      </trkpt>
      <trkpt lat="45.89116" lon="3.02832">
        <ele>675.6</ele>
        <time>2024-07-26T09:44:21Z</time>
      </trkpt>
      <trkpt lat="45.89117" lon="3.02834">
        <ele>675.6</ele>
        <time>2024-07-26T09:44:22Z</time>
      </trkpt>
      <trkpt lat="45.89117" lon="3.02835">
        <ele>674.9</ele>
        <time>2024-07-26T09:44:23Z</time>
      </trkpt>
      <trkpt lat="45.89118" lon="3.02836">
        <ele>673</ele>
        <time>2024-07-26T09:44:24Z</time>
      </trkpt>
      <trkpt lat="45.89119" lon="3.02837">
        <ele>673.3</ele>
        <time>2024-07-26T09:44:25Z</time>
      </trkpt>
      <trkpt lat="45.8912" lon="3.02838">
        <ele>673.6</ele>
        <time>2024-07-26T09:44:26Z</time>
      </trkpt>
      <trkpt lat="45.89121" lon="3.02839">
        <ele>673.6</ele>
        <time>2024-07-26T09:44:27Z</time>
      </trkpt>
      <trkpt lat="45.89122" lon="3.02839">
        <ele>673.4</ele>
        <time>2024-07-26T09:44:28Z</time>
      </trkpt>
      <trkpt lat="45.89123" lon="3.02839">
        <ele>672.8</ele>
        <time>2024-07-26T09:44:29Z</time>
      </trkpt>
      <trkpt lat="45.89124" lon="3.0284">
        <ele>673.1</ele>
        <time>2024-07-26T09:44:30Z</time>
      </trkpt>
      <trkpt lat="45.89125" lon="3.02842">
        <ele>673.2</ele>
        <time>2024-07-26T09:44:31Z</time>
      </trkpt>
      <trkpt lat="45.89126" lon="3.02843">
        <ele>673.3</ele>
        <time>2024-07-26T09:44:32Z</time>
      </trkpt>
      <trkpt lat="45.89126" lon="3.02844">
        <ele>674.5</ele>
        <time>2024-07-26T09:44:33Z</time>
      </trkpt>
      <trkpt lat="45.89127" lon="3.02846">
        <ele>675.4</ele>
        <time>2024-07-26T09:44:35Z</time>
      </trkpt>
      <trkpt lat="45.89128" lon="3.02847">
        <ele>674</ele>
        <time>2024-07-26T09:44:37Z</time>
      </trkpt>
      <trkpt lat="45.89129" lon="3.02849">
        <ele>674.5</ele>
        <time>2024-07-26T09:44:39Z</time>
      </trkpt>
      <trkpt lat="45.8913" lon="3.0285">
        <ele>674.6</ele>
        <time>2024-07-26T09:44:40Z</time>
      </trkpt>
      <trkpt lat="45.89131" lon="3.02852">
        <ele>674.1</ele>
        <time>2024-07-26T09:44:41Z</time>
      </trkpt>
      <trkpt lat="45.89131" lon="3.02853">
        <ele>674</ele>
        <time>2024-07-26T09:44:42Z</time>
      </trkpt>
      <trkpt lat="45.89132" lon="3.02854">
        <ele>675.2</ele>
        <time>2024-07-26T09:44:43Z</time>
      </trkpt>
      <trkpt lat="45.89132" lon="3.02855">
        <ele>675.2</ele>
        <time>2024-07-26T09:44:44Z</time>
      </trkpt>
      <trkpt lat="45.89133" lon="3.02856">
        <ele>673</ele>
        <time>2024-07-26T09:44:45Z</time>
      </trkpt>
      <trkpt lat="45.89134" lon="3.02857">
        <ele>674.3</ele>
        <time>2024-07-26T09:44:46Z</time>
      </trkpt>
      <trkpt lat="45.89134" lon="3.02859">
        <ele>674</ele>
        <time>2024-07-26T09:44:47Z</time>
      </trkpt>
      <trkpt lat="45.89135" lon="3.0286">
        <ele>673.9</ele>
        <time>2024-07-26T09:44:49Z</time>
      </trkpt>
      <trkpt lat="45.89136" lon="3.02861">
        <ele>673.7</ele>
        <time>2024-07-26T09:44:50Z</time>
      </trkpt>
      <trkpt lat="45.89137" lon="3.02863">
        <ele>673.4</ele>
        <time>2024-07-26T09:44:51Z</time>
      </trkpt>
      <trkpt lat="45.89138" lon="3.02863">
        <ele>672.5</ele>
        <time>2024-07-26T09:44:52Z</time>
      </trkpt>
      <trkpt lat="45.89139" lon="3.02865">
        <ele>672.1</ele>
        <time>2024-07-26T09:44:54Z</time>
      </trkpt>
      <trkpt lat="45.8914" lon="3.02867">
        <ele>673</ele>
        <time>2024-07-26T09:44:56Z</time>
      </trkpt>
      <trkpt lat="45.89141" lon="3.02868">
        <ele>672</ele>
        <time>2024-07-26T09:44:57Z</time>
      </trkpt>
      <trkpt lat="45.89142" lon="3.02868">
        <ele>672.4</ele>
        <time>2024-07-26T09:44:58Z</time>
      </trkpt>
      <trkpt lat="45.89143" lon="3.02869">
        <ele>672.3</ele>
        <time>2024-07-26T09:44:59Z</time>
      </trkpt>
      <trkpt lat="45.89144" lon="3.0287">
        <ele>670.9</ele>
        <time>2024-07-26T09:45:00Z</time>
      </trkpt>
      <trkpt lat="45.89145" lon="3.02871">
        <ele>672.3</ele>
        <time>2024-07-26T09:45:01Z</time>
      </trkpt>
      <trkpt lat="45.89145" lon="3.02873">
        <ele>674.8</ele>
        <time>2024-07-26T09:45:02Z</time>
      </trkpt>
      <trkpt lat="45.89145" lon="3.02874">
        <ele>676.2</ele>
        <time>2024-07-26T09:45:03Z</time>
      </trkpt>
      <trkpt lat="45.89144" lon="3.02876">
        <ele>677.1</ele>
        <time>2024-07-26T09:45:04Z</time>
      </trkpt>
      <trkpt lat="45.89144" lon="3.02877">
        <ele>677.7</ele>
        <time>2024-07-26T09:45:05Z</time>
      </trkpt>
      <trkpt lat="45.89144" lon="3.02879">
        <ele>678</ele>
        <time>2024-07-26T09:45:06Z</time>
      </trkpt>
      <trkpt lat="45.89143" lon="3.02881">
        <ele>678</ele>
        <time>2024-07-26T09:45:07Z</time>
      </trkpt>
      <trkpt lat="45.89144" lon="3.02882">
        <ele>678.2</ele>
        <time>2024-07-26T09:45:08Z</time>
      </trkpt>
      <trkpt lat="45.89144" lon="3.02884">
        <ele>679.6</ele>
        <time>2024-07-26T09:45:09Z</time>
      </trkpt>
      <trkpt lat="45.89145" lon="3.02885">
        <ele>678.8</ele>
        <time>2024-07-26T09:45:11Z</time>
      </trkpt>
      <trkpt lat="45.89147" lon="3.02886">
        <ele>680.8</ele>
        <time>2024-07-26T09:45:13Z</time>
      </trkpt>
      <trkpt lat="45.89148" lon="3.02887">
        <ele>680.7</ele>
        <time>2024-07-26T09:45:15Z</time>
      </trkpt>
      <trkpt lat="45.89149" lon="3.02888">
        <ele>679.8</ele>
        <time>2024-07-26T09:45:16Z</time>
      </trkpt>
      <trkpt lat="45.8915" lon="3.02889">
        <ele>678.6</ele>
        <time>2024-07-26T09:45:17Z</time>
      </trkpt>
      <trkpt lat="45.89151" lon="3.0289">
        <ele>678.6</ele>
        <time>2024-07-26T09:45:18Z</time>
      </trkpt>
      <trkpt lat="45.89152" lon="3.0289">
        <ele>677</ele>
        <time>2024-07-26T09:45:19Z</time>
      </trkpt>
      <trkpt lat="45.89153" lon="3.02891">
        <ele>675.6</ele>
        <time>2024-07-26T09:45:20Z</time>
      </trkpt>
      <trkpt lat="45.89154" lon="3.02893">
        <ele>668</ele>
        <time>2024-07-26T09:45:21Z</time>
      </trkpt>
      <trkpt lat="45.89155" lon="3.02894">
        <ele>671.6</ele>
        <time>2024-07-26T09:45:22Z</time>
      </trkpt>
      <trkpt lat="45.89156" lon="3.02896">
        <ele>673.1</ele>
        <time>2024-07-26T09:45:24Z</time>
      </trkpt>
      <trkpt lat="45.89156" lon="3.02897">
        <ele>677.5</ele>
        <time>2024-07-26T09:45:26Z</time>
      </trkpt>
      <trkpt lat="45.89157" lon="3.029">
        <ele>681.7</ele>
        <time>2024-07-26T09:45:28Z</time>
      </trkpt>
      <trkpt lat="45.89158" lon="3.02901">
        <ele>682.6</ele>
        <time>2024-07-26T09:45:30Z</time>
      </trkpt>
      <trkpt lat="45.8916" lon="3.02901">
        <ele>681.8</ele>
        <time>2024-07-26T09:45:32Z</time>
      </trkpt>
      <trkpt lat="45.8916" lon="3.02902">
        <ele>681.4</ele>
        <time>2024-07-26T09:45:33Z</time>
      </trkpt>
      <trkpt lat="45.89161" lon="3.02903">
        <ele>682.2</ele>
        <time>2024-07-26T09:45:34Z</time>
      </trkpt>
      <trkpt lat="45.89162" lon="3.02904">
        <ele>682.7</ele>
        <time>2024-07-26T09:45:35Z</time>
      </trkpt>
      <trkpt lat="45.89163" lon="3.02906">
        <ele>685.3</ele>
        <time>2024-07-26T09:45:37Z</time>
      </trkpt>
      <trkpt lat="45.89163" lon="3.02908">
        <ele>685.2</ele>
        <time>2024-07-26T09:45:38Z</time>
      </trkpt>
      <trkpt lat="45.89164" lon="3.0291">
        <ele>685.1</ele>
        <time>2024-07-26T09:45:40Z</time>
      </trkpt>
      <trkpt lat="45.89164" lon="3.02913">
        <ele>682.7</ele>
        <time>2024-07-26T09:45:41Z</time>
      </trkpt>
      <trkpt lat="45.89163" lon="3.02915">
        <ele>681</ele>
        <time>2024-07-26T09:45:42Z</time>
      </trkpt>
      <trkpt lat="45.89164" lon="3.02916">
        <ele>679.4</ele>
        <time>2024-07-26T09:45:43Z</time>
      </trkpt>
      <trkpt lat="45.89165" lon="3.02918">
        <ele>679</ele>
        <time>2024-07-26T09:45:45Z</time>
      </trkpt>
      <trkpt lat="45.89165" lon="3.02919">
        <ele>680.1</ele>
        <time>2024-07-26T09:45:47Z</time>
      </trkpt>
      <trkpt lat="45.89165" lon="3.02921">
        <ele>680</ele>
        <time>2024-07-26T09:45:48Z</time>
      </trkpt>
      <trkpt lat="45.89165" lon="3.02923">
        <ele>679.8</ele>
        <time>2024-07-26T09:45:49Z</time>
      </trkpt>
      <trkpt lat="45.89165" lon="3.02925">
        <ele>682.3</ele>
        <time>2024-07-26T09:45:51Z</time>
      </trkpt>
      <trkpt lat="45.89166" lon="3.02926">
        <ele>686.7</ele>
        <time>2024-07-26T09:45:52Z</time>
      </trkpt>
      <trkpt lat="45.89167" lon="3.02928">
        <ele>686.8</ele>
        <time>2024-07-26T09:45:54Z</time>
      </trkpt>
      <trkpt lat="45.89168" lon="3.02928">
        <ele>685.7</ele>
        <time>2024-07-26T09:45:55Z</time>
      </trkpt>
      <trkpt lat="45.89169" lon="3.02929">
        <ele>686.9</ele>
        <time>2024-07-26T09:45:56Z</time>
      </trkpt>
      <trkpt lat="45.89169" lon="3.0293">
        <ele>687.7</ele>
        <time>2024-07-26T09:45:57Z</time>
      </trkpt>
      <trkpt lat="45.8917" lon="3.02931">
        <ele>687.2</ele>
        <time>2024-07-26T09:45:58Z</time>
      </trkpt>
      <trkpt lat="45.89171" lon="3.02932">
        <ele>687.7</ele>
        <time>2024-07-26T09:45:59Z</time>
      </trkpt>
      <trkpt lat="45.89172" lon="3.02933">
        <ele>687</ele>
        <time>2024-07-26T09:46:00Z</time>
      </trkpt>
      <trkpt lat="45.89173" lon="3.02934">
        <ele>687.1</ele>
        <time>2024-07-26T09:46:01Z</time>
      </trkpt>
      <trkpt lat="45.89174" lon="3.02935">
        <ele>690</ele>
        <time>2024-07-26T09:46:02Z</time>
      </trkpt>
      <trkpt lat="45.89175" lon="3.02937">
        <ele>688.2</ele>
        <time>2024-07-26T09:46:03Z</time>
      </trkpt>
      <trkpt lat="45.89176" lon="3.02938">
        <ele>684</ele>
        <time>2024-07-26T09:46:04Z</time>
      </trkpt>
      <trkpt lat="45.89178" lon="3.02938">
        <ele>685.1</ele>
        <time>2024-07-26T09:46:05Z</time>
      </trkpt>
      <trkpt lat="45.89179" lon="3.02939">
        <ele>682.2</ele>
        <time>2024-07-26T09:46:06Z</time>
      </trkpt>
      <trkpt lat="45.89181" lon="3.0294">
        <ele>680.7</ele>
        <time>2024-07-26T09:46:07Z</time>
      </trkpt>
      <trkpt lat="45.89182" lon="3.0294">
        <ele>681.6</ele>
        <time>2024-07-26T09:46:08Z</time>
      </trkpt>
      <trkpt lat="45.89183" lon="3.02941">
        <ele>677.3</ele>
        <time>2024-07-26T09:46:09Z</time>
      </trkpt>
      <trkpt lat="45.89185" lon="3.02942">
        <ele>676.3</ele>
        <time>2024-07-26T09:46:10Z</time>
      </trkpt>
      <trkpt lat="45.89186" lon="3.02942">
        <ele>677.4</ele>
        <time>2024-07-26T09:46:11Z</time>
      </trkpt>
      <trkpt lat="45.89187" lon="3.02942">
        <ele>677.1</ele>
        <time>2024-07-26T09:46:12Z</time>
      </trkpt>
      <trkpt lat="45.89189" lon="3.02942">
        <ele>677.7</ele>
        <time>2024-07-26T09:46:13Z</time>
      </trkpt>
      <trkpt lat="45.8919" lon="3.02941">
        <ele>678</ele>
        <time>2024-07-26T09:46:14Z</time>
      </trkpt>
      <trkpt lat="45.89191" lon="3.0294">
        <ele>679.7</ele>
        <time>2024-07-26T09:46:15Z</time>
      </trkpt>
      <trkpt lat="45.89192" lon="3.0294">
        <ele>679.4</ele>
        <time>2024-07-26T09:46:16Z</time>
      </trkpt>
      <trkpt lat="45.89193" lon="3.02939">
        <ele>680.1</ele>
        <time>2024-07-26T09:46:17Z</time>
      </trkpt>
      <trkpt lat="45.89195" lon="3.02939">
        <ele>679.7</ele>
        <time>2024-07-26T09:46:18Z</time>
      </trkpt>
      <trkpt lat="45.89196" lon="3.02938">
        <ele>678.9</ele>
        <time>2024-07-26T09:46:19Z</time>
      </trkpt>
      <trkpt lat="45.89197" lon="3.02939">
        <ele>679</ele>
        <time>2024-07-26T09:46:20Z</time>
      </trkpt>
      <trkpt lat="45.89196" lon="3.0294">
        <ele>680.1</ele>
        <time>2024-07-26T09:46:22Z</time>
      </trkpt>
      <trkpt lat="45.89197" lon="3.0294">
        <ele>679.8</ele>
        <time>2024-07-26T09:46:24Z</time>
      </trkpt>
      <trkpt lat="45.89198" lon="3.0294">
        <ele>679.2</ele>
        <time>2024-07-26T09:46:25Z</time>
      </trkpt>
      <trkpt lat="45.89199" lon="3.0294">
        <ele>678.7</ele>
        <time>2024-07-26T09:46:26Z</time>
      </trkpt>
      <trkpt lat="45.89201" lon="3.02941">
        <ele>680</ele>
        <time>2024-07-26T09:46:27Z</time>
      </trkpt>
      <trkpt lat="45.89201" lon="3.02941">
        <ele>681.1</ele>
        <time>2024-07-26T09:46:28Z</time>
      </trkpt>
      <trkpt lat="45.89202" lon="3.02942">
        <ele>680.3</ele>
        <time>2024-07-26T09:46:29Z</time>
      </trkpt>
      <trkpt lat="45.89203" lon="3.02943">
        <ele>679.2</ele>
        <time>2024-07-26T09:46:30Z</time>
      </trkpt>
      <trkpt lat="45.89205" lon="3.02944">
        <ele>679.8</ele>
        <time>2024-07-26T09:46:31Z</time>
      </trkpt>
      <trkpt lat="45.89206" lon="3.02944">
        <ele>679</ele>
        <time>2024-07-26T09:46:32Z</time>
      </trkpt>
      <trkpt lat="45.89208" lon="3.02945">
        <ele>679.3</ele>
        <time>2024-07-26T09:46:33Z</time>
      </trkpt>
      <trkpt lat="45.89209" lon="3.02945">
        <ele>678.4</ele>
        <time>2024-07-26T09:46:34Z</time>
      </trkpt>
      <trkpt lat="45.89211" lon="3.02945">
        <ele>677.3</ele>
        <time>2024-07-26T09:46:35Z</time>
      </trkpt>
      <trkpt lat="45.89212" lon="3.02946">
        <ele>676.2</ele>
        <time>2024-07-26T09:46:36Z</time>
      </trkpt>
      <trkpt lat="45.89214" lon="3.02947">
        <ele>675.9</ele>
        <time>2024-07-26T09:46:37Z</time>
      </trkpt>
      <trkpt lat="45.89214" lon="3.02947">
        <ele>675.5</ele>
        <time>2024-07-26T09:46:38Z</time>
      </trkpt>
      <trkpt lat="45.89216" lon="3.02948">
        <ele>672.9</ele>
        <time>2024-07-26T09:46:40Z</time>
      </trkpt>
      <trkpt lat="45.89217" lon="3.02949">
        <ele>671.6</ele>
        <time>2024-07-26T09:46:41Z</time>
      </trkpt>
      <trkpt lat="45.89219" lon="3.0295">
        <ele>669.7</ele>
        <time>2024-07-26T09:46:42Z</time>
      </trkpt>
      <trkpt lat="45.89219" lon="3.02951">
        <ele>670.8</ele>
        <time>2024-07-26T09:46:43Z</time>
      </trkpt>
      <trkpt lat="45.89221" lon="3.02952">
        <ele>671.9</ele>
        <time>2024-07-26T09:46:44Z</time>
      </trkpt>
      <trkpt lat="45.89222" lon="3.02952">
        <ele>671.5</ele>
        <time>2024-07-26T09:46:45Z</time>
      </trkpt>
      <trkpt lat="45.89224" lon="3.02952">
        <ele>669.3</ele>
        <time>2024-07-26T09:46:46Z</time>
      </trkpt>
      <trkpt lat="45.89225" lon="3.02953">
        <ele>669.8</ele>
        <time>2024-07-26T09:46:47Z</time>
      </trkpt>
      <trkpt lat="45.89227" lon="3.02954">
        <ele>672.5</ele>
        <time>2024-07-26T09:46:48Z</time>
      </trkpt>
      <trkpt lat="45.89228" lon="3.02955">
        <ele>672.3</ele>
        <time>2024-07-26T09:46:49Z</time>
      </trkpt>
      <trkpt lat="45.89229" lon="3.02956">
        <ele>672.6</ele>
        <time>2024-07-26T09:46:50Z</time>
      </trkpt>
      <trkpt lat="45.89231" lon="3.02958">
        <ele>672.8</ele>
        <time>2024-07-26T09:46:51Z</time>
      </trkpt>
      <trkpt lat="45.89232" lon="3.02959">
        <ele>674.7</ele>
        <time>2024-07-26T09:46:52Z</time>
      </trkpt>
      <trkpt lat="45.89234" lon="3.02959">
        <ele>675.5</ele>
        <time>2024-07-26T09:46:53Z</time>
      </trkpt>
      <trkpt lat="45.89235" lon="3.02959">
        <ele>676.3</ele>
        <time>2024-07-26T09:46:54Z</time>
      </trkpt>
      <trkpt lat="45.89236" lon="3.0296">
        <ele>675.8</ele>
        <time>2024-07-26T09:46:55Z</time>
      </trkpt>
      <trkpt lat="45.89237" lon="3.0296">
        <ele>677</ele>
        <time>2024-07-26T09:46:56Z</time>
      </trkpt>
      <trkpt lat="45.89239" lon="3.02961">
        <ele>675.3</ele>
        <time>2024-07-26T09:46:58Z</time>
      </trkpt>
      <trkpt lat="45.89239" lon="3.02959">
        <ele>674.4</ele>
        <time>2024-07-26T09:47:00Z</time>
      </trkpt>
      <trkpt lat="45.8924" lon="3.02957">
        <ele>671.8</ele>
        <time>2024-07-26T09:47:01Z</time>
      </trkpt>
      <trkpt lat="45.8924" lon="3.02955">
        <ele>670.6</ele>
        <time>2024-07-26T09:47:02Z</time>
      </trkpt>
      <trkpt lat="45.89241" lon="3.02954">
        <ele>670.3</ele>
        <time>2024-07-26T09:47:04Z</time>
      </trkpt>
      <trkpt lat="45.89242" lon="3.02954">
        <ele>670.6</ele>
        <time>2024-07-26T09:47:05Z</time>
      </trkpt>
      <trkpt lat="45.89243" lon="3.02955">
        <ele>671.5</ele>
        <time>2024-07-26T09:47:06Z</time>
      </trkpt>
      <trkpt lat="45.89244" lon="3.02956">
        <ele>670.9</ele>
        <time>2024-07-26T09:47:07Z</time>
      </trkpt>
      <trkpt lat="45.89245" lon="3.02956">
        <ele>668.3</ele>
        <time>2024-07-26T09:47:08Z</time>
      </trkpt>
      <trkpt lat="45.89247" lon="3.02956">
        <ele>663.7</ele>
        <time>2024-07-26T09:47:10Z</time>
      </trkpt>
      <trkpt lat="45.89248" lon="3.02957">
        <ele>664.2</ele>
        <time>2024-07-26T09:47:11Z</time>
      </trkpt>
      <trkpt lat="45.89249" lon="3.02958">
        <ele>666.2</ele>
        <time>2024-07-26T09:47:12Z</time>
      </trkpt>
      <trkpt lat="45.8925" lon="3.02959">
        <ele>668.2</ele>
        <time>2024-07-26T09:47:14Z</time>
      </trkpt>
      <trkpt lat="45.8925" lon="3.02961">
        <ele>667.1</ele>
        <time>2024-07-26T09:47:16Z</time>
      </trkpt>
      <trkpt lat="45.89251" lon="3.02962">
        <ele>669.4</ele>
        <time>2024-07-26T09:47:18Z</time>
      </trkpt>
      <trkpt lat="45.89252" lon="3.02963">
        <ele>669.6</ele>
        <time>2024-07-26T09:47:19Z</time>
      </trkpt>
      <trkpt lat="45.89254" lon="3.02964">
        <ele>669.2</ele>
        <time>2024-07-26T09:47:20Z</time>
      </trkpt>
      <trkpt lat="45.89256" lon="3.02966">
        <ele>668.5</ele>
        <time>2024-07-26T09:47:22Z</time>
      </trkpt>
      <trkpt lat="45.89257" lon="3.02967">
        <ele>668.6</ele>
        <time>2024-07-26T09:47:23Z</time>
      </trkpt>
      <trkpt lat="45.89259" lon="3.02968">
        <ele>668.6</ele>
        <time>2024-07-26T09:47:24Z</time>
      </trkpt>
      <trkpt lat="45.8926" lon="3.02969">
        <ele>665.7</ele>
        <time>2024-07-26T09:47:25Z</time>
      </trkpt>
      <trkpt lat="45.89263" lon="3.0297">
        <ele>666.5</ele>
        <time>2024-07-26T09:47:27Z</time>
      </trkpt>
      <trkpt lat="45.89264" lon="3.0297">
        <ele>666</ele>
        <time>2024-07-26T09:47:28Z</time>
      </trkpt>
      <trkpt lat="45.89265" lon="3.0297">
        <ele>666</ele>
        <time>2024-07-26T09:47:29Z</time>
      </trkpt>
      <trkpt lat="45.89266" lon="3.0297">
        <ele>665.4</ele>
        <time>2024-07-26T09:47:30Z</time>
      </trkpt>
      <trkpt lat="45.89267" lon="3.0297">
        <ele>665</ele>
        <time>2024-07-26T09:47:31Z</time>
      </trkpt>
      <trkpt lat="45.89269" lon="3.0297">
        <ele>664.9</ele>
        <time>2024-07-26T09:47:33Z</time>
      </trkpt>
      <trkpt lat="45.8927" lon="3.02971">
        <ele>665.4</ele>
        <time>2024-07-26T09:47:34Z</time>
      </trkpt>
      <trkpt lat="45.89271" lon="3.02971">
        <ele>666.1</ele>
        <time>2024-07-26T09:47:35Z</time>
      </trkpt>
      <trkpt lat="45.89272" lon="3.02971">
        <ele>666.4</ele>
        <time>2024-07-26T09:47:36Z</time>
      </trkpt>
      <trkpt lat="45.89273" lon="3.02972">
        <ele>666.8</ele>
        <time>2024-07-26T09:47:37Z</time>
      </trkpt>
      <trkpt lat="45.89274" lon="3.02972">
        <ele>666.3</ele>
        <time>2024-07-26T09:47:38Z</time>
      </trkpt>
      <trkpt lat="45.89275" lon="3.02973">
        <ele>666</ele>
        <time>2024-07-26T09:47:39Z</time>
      </trkpt>
      <trkpt lat="45.89276" lon="3.02974">
        <ele>667.4</ele>
        <time>2024-07-26T09:47:40Z</time>
      </trkpt>
      <trkpt lat="45.89276" lon="3.02975">
        <ele>667.6</ele>
        <time>2024-07-26T09:47:41Z</time>
      </trkpt>
      <trkpt lat="45.89277" lon="3.02977">
        <ele>667.2</ele>
        <time>2024-07-26T09:47:42Z</time>
      </trkpt>
      <trkpt lat="45.89278" lon="3.02978">
        <ele>667.5</ele>
        <time>2024-07-26T09:47:43Z</time>
      </trkpt>
      <trkpt lat="45.89278" lon="3.02979">
        <ele>668</ele>
        <time>2024-07-26T09:47:44Z</time>
      </trkpt>
      <trkpt lat="45.89279" lon="3.0298">
        <ele>667.1</ele>
        <time>2024-07-26T09:47:45Z</time>
      </trkpt>
      <trkpt lat="45.8928" lon="3.02981">
        <ele>666.7</ele>
        <time>2024-07-26T09:47:46Z</time>
      </trkpt>
      <trkpt lat="45.89281" lon="3.02982">
        <ele>667.3</ele>
        <time>2024-07-26T09:47:48Z</time>
      </trkpt>
      <trkpt lat="45.89282" lon="3.02983">
        <ele>665</ele>
        <time>2024-07-26T09:47:50Z</time>
      </trkpt>
      <trkpt lat="45.89283" lon="3.02983">
        <ele>665.5</ele>
        <time>2024-07-26T09:47:51Z</time>
      </trkpt>
      <trkpt lat="45.89284" lon="3.02983">
        <ele>665.4</ele>
        <time>2024-07-26T09:47:52Z</time>
      </trkpt>
      <trkpt lat="45.89285" lon="3.02983">
        <ele>665.4</ele>
        <time>2024-07-26T09:47:53Z</time>
      </trkpt>
      <trkpt lat="45.89287" lon="3.02983">
        <ele>665.3</ele>
        <time>2024-07-26T09:47:55Z</time>
      </trkpt>
      <trkpt lat="45.89288" lon="3.02984">
        <ele>665.5</ele>
        <time>2024-07-26T09:47:56Z</time>
      </trkpt>
      <trkpt lat="45.89289" lon="3.02984">
        <ele>665</ele>
        <time>2024-07-26T09:47:57Z</time>
      </trkpt>
      <trkpt lat="45.8929" lon="3.02985">
        <ele>663.8</ele>
        <time>2024-07-26T09:47:58Z</time>
      </trkpt>
      <trkpt lat="45.89291" lon="3.02986">
        <ele>664.6</ele>
        <time>2024-07-26T09:47:59Z</time>
      </trkpt>
      <trkpt lat="45.89292" lon="3.02986">
        <ele>664.4</ele>
        <time>2024-07-26T09:48:00Z</time>
      </trkpt>
      <trkpt lat="45.89292" lon="3.02987">
        <ele>665.5</ele>
        <time>2024-07-26T09:48:01Z</time>
      </trkpt>
      <trkpt lat="45.89293" lon="3.02988">
        <ele>664.7</ele>
        <time>2024-07-26T09:48:02Z</time>
      </trkpt>
      <trkpt lat="45.89294" lon="3.02988">
        <ele>664.2</ele>
        <time>2024-07-26T09:48:03Z</time>
      </trkpt>
      <trkpt lat="45.89295" lon="3.02988">
        <ele>663.4</ele>
        <time>2024-07-26T09:48:04Z</time>
      </trkpt>
      <trkpt lat="45.89297" lon="3.02988">
        <ele>664.5</ele>
        <time>2024-07-26T09:48:05Z</time>
      </trkpt>
      <trkpt lat="45.89298" lon="3.02988">
        <ele>664.1</ele>
        <time>2024-07-26T09:48:06Z</time>
      </trkpt>
      <trkpt lat="45.89299" lon="3.02989">
        <ele>664.3</ele>
        <time>2024-07-26T09:48:07Z</time>
      </trkpt>
      <trkpt lat="45.893" lon="3.02989">
        <ele>663.2</ele>
        <time>2024-07-26T09:48:08Z</time>
      </trkpt>
      <trkpt lat="45.89301" lon="3.02989">
        <ele>663.1</ele>
        <time>2024-07-26T09:48:09Z</time>
      </trkpt>
      <trkpt lat="45.89302" lon="3.02989">
        <ele>663.2</ele>
        <time>2024-07-26T09:48:10Z</time>
      </trkpt>
      <trkpt lat="45.89303" lon="3.02989">
        <ele>662</ele>
        <time>2024-07-26T09:48:11Z</time>
      </trkpt>
      <trkpt lat="45.89304" lon="3.02989">
        <ele>663.2</ele>
        <time>2024-07-26T09:48:12Z</time>
      </trkpt>
      <trkpt lat="45.89306" lon="3.02989">
        <ele>663.8</ele>
        <time>2024-07-26T09:48:14Z</time>
      </trkpt>
      <trkpt lat="45.89307" lon="3.02989">
        <ele>663.7</ele>
        <time>2024-07-26T09:48:16Z</time>
      </trkpt>
      <trkpt lat="45.89308" lon="3.0299">
        <ele>663.4</ele>
        <time>2024-07-26T09:48:17Z</time>
      </trkpt>
      <trkpt lat="45.89309" lon="3.02991">
        <ele>663.4</ele>
        <time>2024-07-26T09:48:18Z</time>
      </trkpt>
      <trkpt lat="45.8931" lon="3.02992">
        <ele>665</ele>
        <time>2024-07-26T09:48:20Z</time>
      </trkpt>
      <trkpt lat="45.89311" lon="3.02993">
        <ele>666.5</ele>
        <time>2024-07-26T09:48:22Z</time>
      </trkpt>
      <trkpt lat="45.89312" lon="3.02995">
        <ele>666.5</ele>
        <time>2024-07-26T09:48:24Z</time>
      </trkpt>
      <trkpt lat="45.89312" lon="3.02996">
        <ele>667.2</ele>
        <time>2024-07-26T09:48:25Z</time>
      </trkpt>
      <trkpt lat="45.89313" lon="3.02997">
        <ele>667.1</ele>
        <time>2024-07-26T09:48:26Z</time>
      </trkpt>
      <trkpt lat="45.89314" lon="3.02999">
        <ele>667.3</ele>
        <time>2024-07-26T09:48:27Z</time>
      </trkpt>
      <trkpt lat="45.89314" lon="3.03">
        <ele>667.4</ele>
        <time>2024-07-26T09:48:28Z</time>
      </trkpt>
      <trkpt lat="45.89315" lon="3.03001">
        <ele>666.7</ele>
        <time>2024-07-26T09:48:29Z</time>
      </trkpt>
      <trkpt lat="45.89316" lon="3.03002">
        <ele>666.8</ele>
        <time>2024-07-26T09:48:30Z</time>
      </trkpt>
      <trkpt lat="45.89316" lon="3.03003">
        <ele>666.3</ele>
        <time>2024-07-26T09:48:31Z</time>
      </trkpt>
      <trkpt lat="45.89317" lon="3.03004">
        <ele>665.7</ele>
        <time>2024-07-26T09:48:32Z</time>
      </trkpt>
      <trkpt lat="45.89318" lon="3.03005">
        <ele>665.8</ele>
        <time>2024-07-26T09:48:33Z</time>
      </trkpt>
      <trkpt lat="45.89319" lon="3.03006">
        <ele>665.3</ele>
        <time>2024-07-26T09:48:34Z</time>
      </trkpt>
      <trkpt lat="45.8932" lon="3.03008">
        <ele>664.2</ele>
        <time>2024-07-26T09:48:36Z</time>
      </trkpt>
      <trkpt lat="45.8932" lon="3.03009">
        <ele>664.3</ele>
        <time>2024-07-26T09:48:37Z</time>
      </trkpt>
      <trkpt lat="45.89321" lon="3.03011">
        <ele>664.7</ele>
        <time>2024-07-26T09:48:38Z</time>
      </trkpt>
      <trkpt lat="45.89322" lon="3.03012">
        <ele>663.7</ele>
        <time>2024-07-26T09:48:40Z</time>
      </trkpt>
      <trkpt lat="45.89323" lon="3.03013">
        <ele>664.1</ele>
        <time>2024-07-26T09:48:41Z</time>
      </trkpt>
      <trkpt lat="45.89323" lon="3.03014">
        <ele>663.5</ele>
        <time>2024-07-26T09:48:42Z</time>
      </trkpt>
      <trkpt lat="45.89324" lon="3.03016">
        <ele>663.5</ele>
        <time>2024-07-26T09:48:43Z</time>
      </trkpt>
      <trkpt lat="45.89325" lon="3.03017">
        <ele>663.2</ele>
        <time>2024-07-26T09:48:44Z</time>
      </trkpt>
      <trkpt lat="45.89325" lon="3.03018">
        <ele>663.3</ele>
        <time>2024-07-26T09:48:45Z</time>
      </trkpt>
      <trkpt lat="45.89326" lon="3.0302">
        <ele>662.4</ele>
        <time>2024-07-26T09:48:47Z</time>
      </trkpt>
      <trkpt lat="45.89327" lon="3.03022">
        <ele>663.1</ele>
        <time>2024-07-26T09:48:49Z</time>
      </trkpt>
      <trkpt lat="45.89328" lon="3.03024">
        <ele>662.5</ele>
        <time>2024-07-26T09:48:51Z</time>
      </trkpt>
      <trkpt lat="45.89329" lon="3.03026">
        <ele>662.4</ele>
        <time>2024-07-26T09:48:53Z</time>
      </trkpt>
      <trkpt lat="45.8933" lon="3.03028">
        <ele>662.2</ele>
        <time>2024-07-26T09:48:55Z</time>
      </trkpt>
      <trkpt lat="45.89331" lon="3.03029">
        <ele>662.6</ele>
        <time>2024-07-26T09:48:56Z</time>
      </trkpt>
      <trkpt lat="45.89332" lon="3.0303">
        <ele>662.5</ele>
        <time>2024-07-26T09:48:57Z</time>
      </trkpt>
      <trkpt lat="45.89332" lon="3.03031">
        <ele>662.2</ele>
        <time>2024-07-26T09:48:58Z</time>
      </trkpt>
      <trkpt lat="45.89333" lon="3.03032">
        <ele>662.1</ele>
        <time>2024-07-26T09:48:59Z</time>
      </trkpt>
      <trkpt lat="45.89333" lon="3.03034">
        <ele>661.9</ele>
        <time>2024-07-26T09:49:00Z</time>
      </trkpt>
      <trkpt lat="45.89333" lon="3.03035">
        <ele>662.3</ele>
        <time>2024-07-26T09:49:01Z</time>
      </trkpt>
      <trkpt lat="45.89334" lon="3.03036">
        <ele>662.4</ele>
        <time>2024-07-26T09:49:02Z</time>
      </trkpt>
      <trkpt lat="45.89334" lon="3.03037">
        <ele>662.5</ele>
        <time>2024-07-26T09:49:03Z</time>
      </trkpt>
      <trkpt lat="45.89335" lon="3.03039">
        <ele>662.3</ele>
        <time>2024-07-26T09:49:04Z</time>
      </trkpt>
      <trkpt lat="45.89335" lon="3.0304">
        <ele>662.3</ele>
        <time>2024-07-26T09:49:05Z</time>
      </trkpt>
      <trkpt lat="45.89336" lon="3.03041">
        <ele>662.6</ele>
        <time>2024-07-26T09:49:06Z</time>
      </trkpt>
      <trkpt lat="45.89336" lon="3.03042">
        <ele>662.7</ele>
        <time>2024-07-26T09:49:07Z</time>
      </trkpt>
      <trkpt lat="45.89337" lon="3.03044">
        <ele>662.6</ele>
        <time>2024-07-26T09:49:08Z</time>
      </trkpt>
      <trkpt lat="45.89337" lon="3.03045">
        <ele>662.7</ele>
        <time>2024-07-26T09:49:09Z</time>
      </trkpt>
      <trkpt lat="45.89337" lon="3.03046">
        <ele>662.5</ele>
        <time>2024-07-26T09:49:10Z</time>
      </trkpt>
      <trkpt lat="45.89338" lon="3.03047">
        <ele>662.2</ele>
        <time>2024-07-26T09:49:11Z</time>
      </trkpt>
      <trkpt lat="45.89338" lon="3.03049">
        <ele>662</ele>
        <time>2024-07-26T09:49:12Z</time>
      </trkpt>
      <trkpt lat="45.89339" lon="3.0305">
        <ele>661.7</ele>
        <time>2024-07-26T09:49:13Z</time>
      </trkpt>
      <trkpt lat="45.89339" lon="3.03051">
        <ele>661.6</ele>
        <time>2024-07-26T09:49:14Z</time>
      </trkpt>
      <trkpt lat="45.8934" lon="3.03052">
        <ele>661</ele>
        <time>2024-07-26T09:49:15Z</time>
      </trkpt>
      <trkpt lat="45.8934" lon="3.03054">
        <ele>660.6</ele>
        <time>2024-07-26T09:49:16Z</time>
      </trkpt>
      <trkpt lat="45.89341" lon="3.03055">
        <ele>661.2</ele>
        <time>2024-07-26T09:49:17Z</time>
      </trkpt>
      <trkpt lat="45.89341" lon="3.03056">
        <ele>661.3</ele>
        <time>2024-07-26T09:49:18Z</time>
      </trkpt>
      <trkpt lat="45.89342" lon="3.03058">
        <ele>661.2</ele>
        <time>2024-07-26T09:49:19Z</time>
      </trkpt>
      <trkpt lat="45.89342" lon="3.03059">
        <ele>660.8</ele>
        <time>2024-07-26T09:49:20Z</time>
      </trkpt>
      <trkpt lat="45.89342" lon="3.03061">
        <ele>660.5</ele>
        <time>2024-07-26T09:49:21Z</time>
      </trkpt>
      <trkpt lat="45.89343" lon="3.03062">
        <ele>660.8</ele>
        <time>2024-07-26T09:49:22Z</time>
      </trkpt>
      <trkpt lat="45.89343" lon="3.03063">
        <ele>660.5</ele>
        <time>2024-07-26T09:49:23Z</time>
      </trkpt>
      <trkpt lat="45.89344" lon="3.03064">
        <ele>660.4</ele>
        <time>2024-07-26T09:49:24Z</time>
      </trkpt>
      <trkpt lat="45.89344" lon="3.03065">
        <ele>660.7</ele>
        <time>2024-07-26T09:49:25Z</time>
      </trkpt>
      <trkpt lat="45.89344" lon="3.03067">
        <ele>660.4</ele>
        <time>2024-07-26T09:49:26Z</time>
      </trkpt>
      <trkpt lat="45.89344" lon="3.03068">
        <ele>660.3</ele>
        <time>2024-07-26T09:49:27Z</time>
      </trkpt>
      <trkpt lat="45.89345" lon="3.0307">
        <ele>660.2</ele>
        <time>2024-07-26T09:49:28Z</time>
      </trkpt>
      <trkpt lat="45.89345" lon="3.03071">
        <ele>660.1</ele>
        <time>2024-07-26T09:49:29Z</time>
      </trkpt>
      <trkpt lat="45.89345" lon="3.03072">
        <ele>659.9</ele>
        <time>2024-07-26T09:49:30Z</time>
      </trkpt>
      <trkpt lat="45.89345" lon="3.03074">
        <ele>659.7</ele>
        <time>2024-07-26T09:49:31Z</time>
      </trkpt>
      <trkpt lat="45.89346" lon="3.03075">
        <ele>660.3</ele>
        <time>2024-07-26T09:49:32Z</time>
      </trkpt>
      <trkpt lat="45.89346" lon="3.03076">
        <ele>660</ele>
        <time>2024-07-26T09:49:33Z</time>
      </trkpt>
      <trkpt lat="45.89346" lon="3.03078">
        <ele>659.8</ele>
        <time>2024-07-26T09:49:34Z</time>
      </trkpt>
      <trkpt lat="45.89347" lon="3.03079">
        <ele>659.4</ele>
        <time>2024-07-26T09:49:35Z</time>
      </trkpt>
      <trkpt lat="45.89347" lon="3.03081">
        <ele>659</ele>
        <time>2024-07-26T09:49:36Z</time>
      </trkpt>
      <trkpt lat="45.89347" lon="3.03082">
        <ele>659</ele>
        <time>2024-07-26T09:49:37Z</time>
      </trkpt>
      <trkpt lat="45.89348" lon="3.03084">
        <ele>658.9</ele>
        <time>2024-07-26T09:49:38Z</time>
      </trkpt>
      <trkpt lat="45.89348" lon="3.03085">
        <ele>659.1</ele>
        <time>2024-07-26T09:49:39Z</time>
      </trkpt>
      <trkpt lat="45.89348" lon="3.03086">
        <ele>658.6</ele>
        <time>2024-07-26T09:49:40Z</time>
      </trkpt>
      <trkpt lat="45.89349" lon="3.03088">
        <ele>658.6</ele>
        <time>2024-07-26T09:49:41Z</time>
      </trkpt>
      <trkpt lat="45.89349" lon="3.03089">
        <ele>658.9</ele>
        <time>2024-07-26T09:49:42Z</time>
      </trkpt>
      <trkpt lat="45.89349" lon="3.03091">
        <ele>659.2</ele>
        <time>2024-07-26T09:49:43Z</time>
      </trkpt>
      <trkpt lat="45.89349" lon="3.03092">
        <ele>658.6</ele>
        <time>2024-07-26T09:49:44Z</time>
      </trkpt>
      <trkpt lat="45.8935" lon="3.03093">
        <ele>658.3</ele>
        <time>2024-07-26T09:49:45Z</time>
      </trkpt>
      <trkpt lat="45.8935" lon="3.03095">
        <ele>658.5</ele>
        <time>2024-07-26T09:49:46Z</time>
      </trkpt>
      <trkpt lat="45.8935" lon="3.03096">
        <ele>658.5</ele>
        <time>2024-07-26T09:49:47Z</time>
      </trkpt>
      <trkpt lat="45.8935" lon="3.03098">
        <ele>657.9</ele>
        <time>2024-07-26T09:49:48Z</time>
      </trkpt>
      <trkpt lat="45.89351" lon="3.03099">
        <ele>657.6</ele>
        <time>2024-07-26T09:49:49Z</time>
      </trkpt>
      <trkpt lat="45.89351" lon="3.03101">
        <ele>657.6</ele>
        <time>2024-07-26T09:49:50Z</time>
      </trkpt>
      <trkpt lat="45.89351" lon="3.03102">
        <ele>657.2</ele>
        <time>2024-07-26T09:49:51Z</time>
      </trkpt>
      <trkpt lat="45.89352" lon="3.03104">
        <ele>657.6</ele>
        <time>2024-07-26T09:49:52Z</time>
      </trkpt>
      <trkpt lat="45.89352" lon="3.03105">
        <ele>657.9</ele>
        <time>2024-07-26T09:49:53Z</time>
      </trkpt>
      <trkpt lat="45.89352" lon="3.03107">
        <ele>657.8</ele>
        <time>2024-07-26T09:49:54Z</time>
      </trkpt>
      <trkpt lat="45.89353" lon="3.03108">
        <ele>658</ele>
        <time>2024-07-26T09:49:55Z</time>
      </trkpt>
      <trkpt lat="45.89353" lon="3.0311">
        <ele>658.9</ele>
        <time>2024-07-26T09:49:56Z</time>
      </trkpt>
      <trkpt lat="45.89353" lon="3.03111">
        <ele>657.7</ele>
        <time>2024-07-26T09:49:57Z</time>
      </trkpt>
      <trkpt lat="45.89353" lon="3.03112">
        <ele>657.6</ele>
        <time>2024-07-26T09:49:58Z</time>
      </trkpt>
      <trkpt lat="45.89353" lon="3.03114">
        <ele>657.7</ele>
        <time>2024-07-26T09:49:59Z</time>
      </trkpt>
      <trkpt lat="45.89353" lon="3.03115">
        <ele>657.5</ele>
        <time>2024-07-26T09:50:00Z</time>
      </trkpt>
      <trkpt lat="45.89354" lon="3.03117">
        <ele>657.4</ele>
        <time>2024-07-26T09:50:01Z</time>
      </trkpt>
      <trkpt lat="45.89354" lon="3.03118">
        <ele>657.5</ele>
        <time>2024-07-26T09:50:02Z</time>
      </trkpt>
      <trkpt lat="45.89354" lon="3.0312">
        <ele>657.2</ele>
        <time>2024-07-26T09:50:03Z</time>
      </trkpt>
      <trkpt lat="45.89355" lon="3.03121">
        <ele>656.9</ele>
        <time>2024-07-26T09:50:04Z</time>
      </trkpt>
      <trkpt lat="45.89355" lon="3.03122">
        <ele>656.8</ele>
        <time>2024-07-26T09:50:05Z</time>
      </trkpt>
      <trkpt lat="45.89355" lon="3.03124">
        <ele>656.7</ele>
        <time>2024-07-26T09:50:06Z</time>
      </trkpt>
      <trkpt lat="45.89355" lon="3.03125">
        <ele>656.8</ele>
        <time>2024-07-26T09:50:07Z</time>
      </trkpt>
      <trkpt lat="45.89355" lon="3.03127">
        <ele>656.2</ele>
        <time>2024-07-26T09:50:08Z</time>
      </trkpt>
      <trkpt lat="45.89356" lon="3.03128">
        <ele>656.2</ele>
        <time>2024-07-26T09:50:09Z</time>
      </trkpt>
      <trkpt lat="45.89356" lon="3.0313">
        <ele>656.3</ele>
        <time>2024-07-26T09:50:10Z</time>
      </trkpt>
      <trkpt lat="45.89356" lon="3.03131">
        <ele>656.7</ele>
        <time>2024-07-26T09:50:11Z</time>
      </trkpt>
      <trkpt lat="45.89356" lon="3.03133">
        <ele>656.7</ele>
        <time>2024-07-26T09:50:12Z</time>
      </trkpt>
      <trkpt lat="45.89356" lon="3.03134">
        <ele>656.3</ele>
        <time>2024-07-26T09:50:13Z</time>
      </trkpt>
      <trkpt lat="45.89356" lon="3.03135">
        <ele>656.5</ele>
        <time>2024-07-26T09:50:14Z</time>
      </trkpt>
      <trkpt lat="45.89357" lon="3.03137">
        <ele>656.9</ele>
        <time>2024-07-26T09:50:15Z</time>
      </trkpt>
      <trkpt lat="45.89357" lon="3.03138">
        <ele>657.1</ele>
        <time>2024-07-26T09:50:16Z</time>
      </trkpt>
      <trkpt lat="45.89357" lon="3.0314">
        <ele>657.1</ele>
        <time>2024-07-26T09:50:17Z</time>
      </trkpt>
      <trkpt lat="45.89357" lon="3.03141">
        <ele>656.9</ele>
        <time>2024-07-26T09:50:18Z</time>
      </trkpt>
      <trkpt lat="45.89357" lon="3.03142">
        <ele>657.3</ele>
        <time>2024-07-26T09:50:19Z</time>
      </trkpt>
      <trkpt lat="45.89358" lon="3.03144">
        <ele>657.2</ele>
        <time>2024-07-26T09:50:20Z</time>
      </trkpt>
      <trkpt lat="45.89358" lon="3.03146">
        <ele>657.4</ele>
        <time>2024-07-26T09:50:21Z</time>
      </trkpt>
      <trkpt lat="45.89358" lon="3.03147">
        <ele>657.6</ele>
        <time>2024-07-26T09:50:22Z</time>
      </trkpt>
      <trkpt lat="45.89358" lon="3.03148">
        <ele>657.6</ele>
        <time>2024-07-26T09:50:23Z</time>
      </trkpt>
      <trkpt lat="45.89358" lon="3.03151">
        <ele>657.5</ele>
        <time>2024-07-26T09:50:25Z</time>
      </trkpt>
      <trkpt lat="45.89359" lon="3.03153">
        <ele>657.5</ele>
        <time>2024-07-26T09:50:26Z</time>
      </trkpt>
      <trkpt lat="45.89359" lon="3.03155">
        <ele>657.6</ele>
        <time>2024-07-26T09:50:28Z</time>
      </trkpt>
      <trkpt lat="45.89359" lon="3.03157">
        <ele>657.6</ele>
        <time>2024-07-26T09:50:29Z</time>
      </trkpt>
      <trkpt lat="45.8936" lon="3.03158">
        <ele>657.3</ele>
        <time>2024-07-26T09:50:30Z</time>
      </trkpt>
      <trkpt lat="45.8936" lon="3.0316">
        <ele>657.1</ele>
        <time>2024-07-26T09:50:31Z</time>
      </trkpt>
      <trkpt lat="45.89361" lon="3.03162">
        <ele>657.1</ele>
        <time>2024-07-26T09:50:33Z</time>
      </trkpt>
      <trkpt lat="45.89361" lon="3.03164">
        <ele>657.1</ele>
        <time>2024-07-26T09:50:34Z</time>
      </trkpt>
      <trkpt lat="45.89362" lon="3.03165">
        <ele>656.9</ele>
        <time>2024-07-26T09:50:35Z</time>
      </trkpt>
      <trkpt lat="45.89362" lon="3.03166">
        <ele>657.1</ele>
        <time>2024-07-26T09:50:36Z</time>
      </trkpt>
      <trkpt lat="45.89363" lon="3.03169">
        <ele>656.4</ele>
        <time>2024-07-26T09:50:38Z</time>
      </trkpt>
      <trkpt lat="45.89364" lon="3.0317">
        <ele>656.4</ele>
        <time>2024-07-26T09:50:39Z</time>
      </trkpt>
      <trkpt lat="45.89364" lon="3.03171">
        <ele>656.5</ele>
        <time>2024-07-26T09:50:40Z</time>
      </trkpt>
      <trkpt lat="45.89365" lon="3.03173">
        <ele>656.7</ele>
        <time>2024-07-26T09:50:42Z</time>
      </trkpt>
      <trkpt lat="45.89365" lon="3.03176">
        <ele>656.7</ele>
        <time>2024-07-26T09:50:44Z</time>
      </trkpt>
      <trkpt lat="45.89366" lon="3.03178">
        <ele>656.6</ele>
        <time>2024-07-26T09:50:46Z</time>
      </trkpt>
      <trkpt lat="45.89366" lon="3.0318">
        <ele>657.1</ele>
        <time>2024-07-26T09:50:48Z</time>
      </trkpt>
      <trkpt lat="45.89366" lon="3.03182">
        <ele>657.3</ele>
        <time>2024-07-26T09:50:49Z</time>
      </trkpt>
      <trkpt lat="45.89366" lon="3.03183">
        <ele>657.4</ele>
        <time>2024-07-26T09:50:50Z</time>
      </trkpt>
      <trkpt lat="45.89367" lon="3.03184">
        <ele>657.1</ele>
        <time>2024-07-26T09:50:51Z</time>
      </trkpt>
      <trkpt lat="45.89368" lon="3.03186">
        <ele>657.3</ele>
        <time>2024-07-26T09:50:53Z</time>
      </trkpt>
      <trkpt lat="45.89368" lon="3.03189">
        <ele>657</ele>
        <time>2024-07-26T09:50:55Z</time>
      </trkpt>
      <trkpt lat="45.89368" lon="3.0319">
        <ele>656.9</ele>
        <time>2024-07-26T09:50:56Z</time>
      </trkpt>
      <trkpt lat="45.89369" lon="3.03192">
        <ele>657</ele>
        <time>2024-07-26T09:50:57Z</time>
      </trkpt>
      <trkpt lat="45.89369" lon="3.03193">
        <ele>657.3</ele>
        <time>2024-07-26T09:50:58Z</time>
      </trkpt>
      <trkpt lat="45.8937" lon="3.03195">
        <ele>657.5</ele>
        <time>2024-07-26T09:50:59Z</time>
      </trkpt>
      <trkpt lat="45.89371" lon="3.03196">
        <ele>657.8</ele>
        <time>2024-07-26T09:51:00Z</time>
      </trkpt>
      <trkpt lat="45.89371" lon="3.03197">
        <ele>658.4</ele>
        <time>2024-07-26T09:51:01Z</time>
      </trkpt>
      <trkpt lat="45.89372" lon="3.03198">
        <ele>658.3</ele>
        <time>2024-07-26T09:51:02Z</time>
      </trkpt>
      <trkpt lat="45.89373" lon="3.032">
        <ele>658.5</ele>
        <time>2024-07-26T09:51:03Z</time>
      </trkpt>
      <trkpt lat="45.89374" lon="3.03201">
        <ele>658.6</ele>
        <time>2024-07-26T09:51:04Z</time>
      </trkpt>
      <trkpt lat="45.89374" lon="3.03202">
        <ele>659</ele>
        <time>2024-07-26T09:51:05Z</time>
      </trkpt>
      <trkpt lat="45.89375" lon="3.03203">
        <ele>658.6</ele>
        <time>2024-07-26T09:51:06Z</time>
      </trkpt>
      <trkpt lat="45.89376" lon="3.03203">
        <ele>658.5</ele>
        <time>2024-07-26T09:51:07Z</time>
      </trkpt>
      <trkpt lat="45.89377" lon="3.03204">
        <ele>658</ele>
        <time>2024-07-26T09:51:09Z</time>
      </trkpt>
      <trkpt lat="45.89378" lon="3.03204">
        <ele>658</ele>
        <time>2024-07-26T09:51:18Z</time>
      </trkpt>
      <trkpt lat="45.89379" lon="3.03206">
        <ele>657.8</ele>
        <time>2024-07-26T09:51:27Z</time>
      </trkpt>
      <trkpt lat="45.89379" lon="3.03207">
        <ele>657.8</ele>
        <time>2024-07-26T09:51:28Z</time>
      </trkpt>
      <trkpt lat="45.89379" lon="3.03209">
        <ele>657.8</ele>
        <time>2024-07-26T09:51:29Z</time>
      </trkpt>
      <trkpt lat="45.89379" lon="3.0321">
        <ele>657.5</ele>
        <time>2024-07-26T09:51:30Z</time>
      </trkpt>
      <trkpt lat="45.89379" lon="3.03212">
        <ele>657</ele>
        <time>2024-07-26T09:51:31Z</time>
      </trkpt>
      <trkpt lat="45.89379" lon="3.03213">
        <ele>657</ele>
        <time>2024-07-26T09:51:32Z</time>
      </trkpt>
      <trkpt lat="45.8938" lon="3.03214">
        <ele>657.2</ele>
        <time>2024-07-26T09:51:33Z</time>
      </trkpt>
      <trkpt lat="45.8938" lon="3.03216">
        <ele>657.1</ele>
        <time>2024-07-26T09:51:34Z</time>
      </trkpt>
      <trkpt lat="45.8938" lon="3.03217">
        <ele>657</ele>
        <time>2024-07-26T09:51:35Z</time>
      </trkpt>
      <trkpt lat="45.8938" lon="3.03219">
        <ele>657</ele>
        <time>2024-07-26T09:51:36Z</time>
      </trkpt>
      <trkpt lat="45.89381" lon="3.03221">
        <ele>657.2</ele>
        <time>2024-07-26T09:51:37Z</time>
      </trkpt>
      <trkpt lat="45.89381" lon="3.03222">
        <ele>657.3</ele>
        <time>2024-07-26T09:51:38Z</time>
      </trkpt>
      <trkpt lat="45.89381" lon="3.03224">
        <ele>657.6</ele>
        <time>2024-07-26T09:51:39Z</time>
      </trkpt>
      <trkpt lat="45.89382" lon="3.03226">
        <ele>657.4</ele>
        <time>2024-07-26T09:51:40Z</time>
      </trkpt>
      <trkpt lat="45.89382" lon="3.03227">
        <ele>656.9</ele>
        <time>2024-07-26T09:51:41Z</time>
      </trkpt>
      <trkpt lat="45.89382" lon="3.03229">
        <ele>657.1</ele>
        <time>2024-07-26T09:51:42Z</time>
      </trkpt>
      <trkpt lat="45.89383" lon="3.0323">
        <ele>657.1</ele>
        <time>2024-07-26T09:51:43Z</time>
      </trkpt>
      <trkpt lat="45.89383" lon="3.03232">
        <ele>657.1</ele>
        <time>2024-07-26T09:51:44Z</time>
      </trkpt>
      <trkpt lat="45.89383" lon="3.03234">
        <ele>657.1</ele>
        <time>2024-07-26T09:51:45Z</time>
      </trkpt>
      <trkpt lat="45.89383" lon="3.03235">
        <ele>657</ele>
        <time>2024-07-26T09:51:46Z</time>
      </trkpt>
      <trkpt lat="45.89384" lon="3.03237">
        <ele>657.2</ele>
        <time>2024-07-26T09:51:47Z</time>
      </trkpt>
      <trkpt lat="45.89384" lon="3.03238">
        <ele>657.2</ele>
        <time>2024-07-26T09:51:48Z</time>
      </trkpt>
      <trkpt lat="45.89384" lon="3.0324">
        <ele>657.6</ele>
        <time>2024-07-26T09:51:49Z</time>
      </trkpt>
      <trkpt lat="45.89384" lon="3.03242">
        <ele>657.6</ele>
        <time>2024-07-26T09:51:50Z</time>
      </trkpt>
      <trkpt lat="45.89384" lon="3.03243">
        <ele>657.9</ele>
        <time>2024-07-26T09:51:51Z</time>
      </trkpt>
      <trkpt lat="45.89384" lon="3.03245">
        <ele>657.7</ele>
        <time>2024-07-26T09:51:52Z</time>
      </trkpt>
      <trkpt lat="45.89385" lon="3.03246">
        <ele>657.8</ele>
        <time>2024-07-26T09:51:53Z</time>
      </trkpt>
      <trkpt lat="45.89385" lon="3.03248">
        <ele>657.5</ele>
        <time>2024-07-26T09:51:54Z</time>
      </trkpt>
      <trkpt lat="45.89385" lon="3.03249">
        <ele>657.6</ele>
        <time>2024-07-26T09:51:55Z</time>
      </trkpt>
      <trkpt lat="45.89385" lon="3.03251">
        <ele>657.8</ele>
        <time>2024-07-26T09:51:56Z</time>
      </trkpt>
      <trkpt lat="45.89386" lon="3.03252">
        <ele>658</ele>
        <time>2024-07-26T09:51:57Z</time>
      </trkpt>
      <trkpt lat="45.89386" lon="3.03254">
        <ele>657.7</ele>
        <time>2024-07-26T09:51:58Z</time>
      </trkpt>
      <trkpt lat="45.89386" lon="3.03256">
        <ele>657.3</ele>
        <time>2024-07-26T09:51:59Z</time>
      </trkpt>
      <trkpt lat="45.89386" lon="3.03257">
        <ele>657.6</ele>
        <time>2024-07-26T09:52:00Z</time>
      </trkpt>
      <trkpt lat="45.89386" lon="3.03259">
        <ele>657.2</ele>
        <time>2024-07-26T09:52:01Z</time>
      </trkpt>
      <trkpt lat="45.89386" lon="3.0326">
        <ele>657</ele>
        <time>2024-07-26T09:52:02Z</time>
      </trkpt>
      <trkpt lat="45.89386" lon="3.03262">
        <ele>657.2</ele>
        <time>2024-07-26T09:52:03Z</time>
      </trkpt>
      <trkpt lat="45.89386" lon="3.03263">
        <ele>657.2</ele>
        <time>2024-07-26T09:52:04Z</time>
      </trkpt>
      <trkpt lat="45.89386" lon="3.03265">
        <ele>657.3</ele>
        <time>2024-07-26T09:52:05Z</time>
      </trkpt>
      <trkpt lat="45.89386" lon="3.03266">
        <ele>657.2</ele>
        <time>2024-07-26T09:52:06Z</time>
      </trkpt>
      <trkpt lat="45.89386" lon="3.03268">
        <ele>657.3</ele>
        <time>2024-07-26T09:52:07Z</time>
      </trkpt>
      <trkpt lat="45.89386" lon="3.03269">
        <ele>657.1</ele>
        <time>2024-07-26T09:52:08Z</time>
      </trkpt>
      <trkpt lat="45.89386" lon="3.03271">
        <ele>657.1</ele>
        <time>2024-07-26T09:52:09Z</time>
      </trkpt>
      <trkpt lat="45.89386" lon="3.03273">
        <ele>657.1</ele>
        <time>2024-07-26T09:52:10Z</time>
      </trkpt>
      <trkpt lat="45.89386" lon="3.03274">
        <ele>657</ele>
        <time>2024-07-26T09:52:11Z</time>
      </trkpt>
      <trkpt lat="45.89386" lon="3.03276">
        <ele>657.2</ele>
        <time>2024-07-26T09:52:12Z</time>
      </trkpt>
      <trkpt lat="45.89386" lon="3.03277">
        <ele>657</ele>
        <time>2024-07-26T09:52:13Z</time>
      </trkpt>
      <trkpt lat="45.89386" lon="3.03279">
        <ele>657</ele>
        <time>2024-07-26T09:52:14Z</time>
      </trkpt>
      <trkpt lat="45.89386" lon="3.0328">
        <ele>656.7</ele>
        <time>2024-07-26T09:52:15Z</time>
      </trkpt>
      <trkpt lat="45.89386" lon="3.03282">
        <ele>656.5</ele>
        <time>2024-07-26T09:52:16Z</time>
      </trkpt>
      <trkpt lat="45.89386" lon="3.03283">
        <ele>656.3</ele>
        <time>2024-07-26T09:52:17Z</time>
      </trkpt>
      <trkpt lat="45.89386" lon="3.03285">
        <ele>656.3</ele>
        <time>2024-07-26T09:52:18Z</time>
      </trkpt>
      <trkpt lat="45.89386" lon="3.03286">
        <ele>656.5</ele>
        <time>2024-07-26T09:52:19Z</time>
      </trkpt>
      <trkpt lat="45.89386" lon="3.03288">
        <ele>656.4</ele>
        <time>2024-07-26T09:52:20Z</time>
      </trkpt>
      <trkpt lat="45.89386" lon="3.0329">
        <ele>656.1</ele>
        <time>2024-07-26T09:52:21Z</time>
      </trkpt>
      <trkpt lat="45.89387" lon="3.03291">
        <ele>655.9</ele>
        <time>2024-07-26T09:52:22Z</time>
      </trkpt>
      <trkpt lat="45.89387" lon="3.03293">
        <ele>655.8</ele>
        <time>2024-07-26T09:52:23Z</time>
      </trkpt>
      <trkpt lat="45.89387" lon="3.03294">
        <ele>655.8</ele>
        <time>2024-07-26T09:52:24Z</time>
      </trkpt>
      <trkpt lat="45.89387" lon="3.03296">
        <ele>655.8</ele>
        <time>2024-07-26T09:52:25Z</time>
      </trkpt>
      <trkpt lat="45.89387" lon="3.03298">
        <ele>655.5</ele>
        <time>2024-07-26T09:52:26Z</time>
      </trkpt>
      <trkpt lat="45.89387" lon="3.03299">
        <ele>655.6</ele>
        <time>2024-07-26T09:52:27Z</time>
      </trkpt>
      <trkpt lat="45.89387" lon="3.03301">
        <ele>655.3</ele>
        <time>2024-07-26T09:52:28Z</time>
      </trkpt>
      <trkpt lat="45.89387" lon="3.03303">
        <ele>655.1</ele>
        <time>2024-07-26T09:52:29Z</time>
      </trkpt>
      <trkpt lat="45.89387" lon="3.03304">
        <ele>655.3</ele>
        <time>2024-07-26T09:52:30Z</time>
      </trkpt>
      <trkpt lat="45.89387" lon="3.03306">
        <ele>655.4</ele>
        <time>2024-07-26T09:52:31Z</time>
      </trkpt>
      <trkpt lat="45.89387" lon="3.03308">
        <ele>655.9</ele>
        <time>2024-07-26T09:52:32Z</time>
      </trkpt>
      <trkpt lat="45.89387" lon="3.03309">
        <ele>655.8</ele>
        <time>2024-07-26T09:52:33Z</time>
      </trkpt>
      <trkpt lat="45.89387" lon="3.03311">
        <ele>655.6</ele>
        <time>2024-07-26T09:52:34Z</time>
      </trkpt>
      <trkpt lat="45.89387" lon="3.03312">
        <ele>656</ele>
        <time>2024-07-26T09:52:35Z</time>
      </trkpt>
      <trkpt lat="45.89387" lon="3.03314">
        <ele>656.1</ele>
        <time>2024-07-26T09:52:36Z</time>
      </trkpt>
      <trkpt lat="45.89387" lon="3.03316">
        <ele>655.8</ele>
        <time>2024-07-26T09:52:37Z</time>
      </trkpt>
      <trkpt lat="45.89387" lon="3.03317">
        <ele>655.6</ele>
        <time>2024-07-26T09:52:38Z</time>
      </trkpt>
      <trkpt lat="45.89387" lon="3.03319">
        <ele>655.8</ele>
        <time>2024-07-26T09:52:39Z</time>
      </trkpt>
      <trkpt lat="45.89386" lon="3.0332">
        <ele>655.7</ele>
        <time>2024-07-26T09:52:40Z</time>
      </trkpt>
      <trkpt lat="45.89386" lon="3.03322">
        <ele>655.8</ele>
        <time>2024-07-26T09:52:41Z</time>
      </trkpt>
      <trkpt lat="45.89386" lon="3.03323">
        <ele>655.8</ele>
        <time>2024-07-26T09:52:42Z</time>
      </trkpt>
      <trkpt lat="45.89386" lon="3.03325">
        <ele>655.9</ele>
        <time>2024-07-26T09:52:43Z</time>
      </trkpt>
      <trkpt lat="45.89386" lon="3.03327">
        <ele>654.7</ele>
        <time>2024-07-26T09:52:44Z</time>
      </trkpt>
      <trkpt lat="45.89387" lon="3.03328">
        <ele>654.4</ele>
        <time>2024-07-26T09:52:45Z</time>
      </trkpt>
      <trkpt lat="45.89387" lon="3.0333">
        <ele>654.6</ele>
        <time>2024-07-26T09:52:46Z</time>
      </trkpt>
      <trkpt lat="45.89386" lon="3.03331">
        <ele>654.7</ele>
        <time>2024-07-26T09:52:47Z</time>
      </trkpt>
      <trkpt lat="45.89386" lon="3.03333">
        <ele>654.6</ele>
        <time>2024-07-26T09:52:48Z</time>
      </trkpt>
      <trkpt lat="45.89386" lon="3.03334">
        <ele>654.5</ele>
        <time>2024-07-26T09:52:49Z</time>
      </trkpt>
      <trkpt lat="45.89386" lon="3.03336">
        <ele>654.5</ele>
        <time>2024-07-26T09:52:50Z</time>
      </trkpt>
      <trkpt lat="45.89386" lon="3.03337">
        <ele>654.4</ele>
        <time>2024-07-26T09:52:51Z</time>
      </trkpt>
      <trkpt lat="45.89386" lon="3.03339">
        <ele>654.5</ele>
        <time>2024-07-26T09:52:52Z</time>
      </trkpt>
      <trkpt lat="45.89386" lon="3.03341">
        <ele>654.4</ele>
        <time>2024-07-26T09:52:53Z</time>
      </trkpt>
      <trkpt lat="45.89385" lon="3.03342">
        <ele>654.4</ele>
        <time>2024-07-26T09:52:54Z</time>
      </trkpt>
      <trkpt lat="45.89385" lon="3.03343">
        <ele>654.3</ele>
        <time>2024-07-26T09:52:55Z</time>
      </trkpt>
      <trkpt lat="45.89385" lon="3.03345">
        <ele>654.4</ele>
        <time>2024-07-26T09:52:56Z</time>
      </trkpt>
      <trkpt lat="45.89385" lon="3.03346">
        <ele>654.4</ele>
        <time>2024-07-26T09:52:57Z</time>
      </trkpt>
      <trkpt lat="45.89385" lon="3.03348">
        <ele>654.4</ele>
        <time>2024-07-26T09:52:58Z</time>
      </trkpt>
      <trkpt lat="45.89385" lon="3.03349">
        <ele>654.2</ele>
        <time>2024-07-26T09:52:59Z</time>
      </trkpt>
      <trkpt lat="45.89384" lon="3.03351">
        <ele>654</ele>
        <time>2024-07-26T09:53:00Z</time>
      </trkpt>
      <trkpt lat="45.89385" lon="3.03353">
        <ele>654.2</ele>
        <time>2024-07-26T09:53:01Z</time>
      </trkpt>
      <trkpt lat="45.89385" lon="3.03354">
        <ele>654.2</ele>
        <time>2024-07-26T09:53:02Z</time>
      </trkpt>
      <trkpt lat="45.89385" lon="3.03356">
        <ele>654.3</ele>
        <time>2024-07-26T09:53:03Z</time>
      </trkpt>
      <trkpt lat="45.89384" lon="3.03357">
        <ele>654</ele>
        <time>2024-07-26T09:53:04Z</time>
      </trkpt>
      <trkpt lat="45.89384" lon="3.03359">
        <ele>654.1</ele>
        <time>2024-07-26T09:53:05Z</time>
      </trkpt>
      <trkpt lat="45.89384" lon="3.0336">
        <ele>653.6</ele>
        <time>2024-07-26T09:53:06Z</time>
      </trkpt>
      <trkpt lat="45.89384" lon="3.03362">
        <ele>653.8</ele>
        <time>2024-07-26T09:53:07Z</time>
      </trkpt>
      <trkpt lat="45.89384" lon="3.03363">
        <ele>653.9</ele>
        <time>2024-07-26T09:53:08Z</time>
      </trkpt>
      <trkpt lat="45.89384" lon="3.03365">
        <ele>654.3</ele>
        <time>2024-07-26T09:53:09Z</time>
      </trkpt>
      <trkpt lat="45.89384" lon="3.03366">
        <ele>654.2</ele>
        <time>2024-07-26T09:53:10Z</time>
      </trkpt>
      <trkpt lat="45.89384" lon="3.03368">
        <ele>654.4</ele>
        <time>2024-07-26T09:53:11Z</time>
      </trkpt>
      <trkpt lat="45.89384" lon="3.0337">
        <ele>654.5</ele>
        <time>2024-07-26T09:53:12Z</time>
      </trkpt>
      <trkpt lat="45.89384" lon="3.03371">
        <ele>654.3</ele>
        <time>2024-07-26T09:53:13Z</time>
      </trkpt>
      <trkpt lat="45.89383" lon="3.03373">
        <ele>654.5</ele>
        <time>2024-07-26T09:53:14Z</time>
      </trkpt>
      <trkpt lat="45.89383" lon="3.03374">
        <ele>654.8</ele>
        <time>2024-07-26T09:53:15Z</time>
      </trkpt>
      <trkpt lat="45.89383" lon="3.03375">
        <ele>654.9</ele>
        <time>2024-07-26T09:53:16Z</time>
      </trkpt>
      <trkpt lat="45.89382" lon="3.03377">
        <ele>654.9</ele>
        <time>2024-07-26T09:53:17Z</time>
      </trkpt>
      <trkpt lat="45.89382" lon="3.03378">
        <ele>654.9</ele>
        <time>2024-07-26T09:53:18Z</time>
      </trkpt>
      <trkpt lat="45.89382" lon="3.03381">
        <ele>654.9</ele>
        <time>2024-07-26T09:53:20Z</time>
      </trkpt>
      <trkpt lat="45.89382" lon="3.03383">
        <ele>654.7</ele>
        <time>2024-07-26T09:53:21Z</time>
      </trkpt>
      <trkpt lat="45.89381" lon="3.03384">
        <ele>654.7</ele>
        <time>2024-07-26T09:53:22Z</time>
      </trkpt>
      <trkpt lat="45.89381" lon="3.03386">
        <ele>654.5</ele>
        <time>2024-07-26T09:53:23Z</time>
      </trkpt>
      <trkpt lat="45.89381" lon="3.03387">
        <ele>654.4</ele>
        <time>2024-07-26T09:53:24Z</time>
      </trkpt>
      <trkpt lat="45.89381" lon="3.03389">
        <ele>654.4</ele>
        <time>2024-07-26T09:53:25Z</time>
      </trkpt>
      <trkpt lat="45.89381" lon="3.0339">
        <ele>654.4</ele>
        <time>2024-07-26T09:53:26Z</time>
      </trkpt>
      <trkpt lat="45.8938" lon="3.03391">
        <ele>654.3</ele>
        <time>2024-07-26T09:53:27Z</time>
      </trkpt>
      <trkpt lat="45.8938" lon="3.03393">
        <ele>654.2</ele>
        <time>2024-07-26T09:53:28Z</time>
      </trkpt>
      <trkpt lat="45.8938" lon="3.03394">
        <ele>654.5</ele>
        <time>2024-07-26T09:53:29Z</time>
      </trkpt>
      <trkpt lat="45.8938" lon="3.03395">
        <ele>654.6</ele>
        <time>2024-07-26T09:53:30Z</time>
      </trkpt>
      <trkpt lat="45.8938" lon="3.03397">
        <ele>654.6</ele>
        <time>2024-07-26T09:53:31Z</time>
      </trkpt>
      <trkpt lat="45.89379" lon="3.03398">
        <ele>654.6</ele>
        <time>2024-07-26T09:53:32Z</time>
      </trkpt>
      <trkpt lat="45.89379" lon="3.03399">
        <ele>654.7</ele>
        <time>2024-07-26T09:53:33Z</time>
      </trkpt>
      <trkpt lat="45.89379" lon="3.03401">
        <ele>654.7</ele>
        <time>2024-07-26T09:53:34Z</time>
      </trkpt>
      <trkpt lat="45.89378" lon="3.03402">
        <ele>654.9</ele>
        <time>2024-07-26T09:53:36Z</time>
      </trkpt>
      <trkpt lat="45.89379" lon="3.03404">
        <ele>656.4</ele>
        <time>2024-07-26T09:53:44Z</time>
      </trkpt>
      <trkpt lat="45.89379" lon="3.03404">
        <ele>656.6</ele>
        <time>2024-07-26T09:53:45Z</time>
      </trkpt>
      <trkpt lat="45.8938" lon="3.03405">
        <ele>656.1</ele>
        <time>2024-07-26T09:53:46Z</time>
      </trkpt>
      <trkpt lat="45.89381" lon="3.03405">
        <ele>657.1</ele>
        <time>2024-07-26T09:53:50Z</time>
      </trkpt>
      <trkpt lat="45.89383" lon="3.03406">
        <ele>656.7</ele>
        <time>2024-07-26T09:53:52Z</time>
      </trkpt>
      <trkpt lat="45.89384" lon="3.03406">
        <ele>656.7</ele>
        <time>2024-07-26T09:53:53Z</time>
      </trkpt>
      <trkpt lat="45.89385" lon="3.03406">
        <ele>656.8</ele>
        <time>2024-07-26T09:53:54Z</time>
      </trkpt>
      <trkpt lat="45.89386" lon="3.03406">
        <ele>656.5</ele>
        <time>2024-07-26T09:53:55Z</time>
      </trkpt>
      <trkpt lat="45.89387" lon="3.03406">
        <ele>656.6</ele>
        <time>2024-07-26T09:53:56Z</time>
      </trkpt>
      <trkpt lat="45.89388" lon="3.03407">
        <ele>656.8</ele>
        <time>2024-07-26T09:53:57Z</time>
      </trkpt>
      <trkpt lat="45.89389" lon="3.03407">
        <ele>657</ele>
        <time>2024-07-26T09:53:58Z</time>
      </trkpt>
      <trkpt lat="45.89391" lon="3.03407">
        <ele>657.9</ele>
        <time>2024-07-26T09:54:00Z</time>
      </trkpt>
      <trkpt lat="45.89392" lon="3.03407">
        <ele>658.1</ele>
        <time>2024-07-26T09:54:01Z</time>
      </trkpt>
      <trkpt lat="45.89393" lon="3.03407">
        <ele>657.7</ele>
        <time>2024-07-26T09:54:02Z</time>
      </trkpt>
      <trkpt lat="45.89394" lon="3.03407">
        <ele>658.1</ele>
        <time>2024-07-26T09:54:03Z</time>
      </trkpt>
      <trkpt lat="45.89396" lon="3.03407">
        <ele>658.1</ele>
        <time>2024-07-26T09:54:05Z</time>
      </trkpt>
      <trkpt lat="45.89397" lon="3.03407">
        <ele>658.3</ele>
        <time>2024-07-26T09:54:06Z</time>
      </trkpt>
      <trkpt lat="45.89398" lon="3.03407">
        <ele>658.4</ele>
        <time>2024-07-26T09:54:07Z</time>
      </trkpt>
      <trkpt lat="45.89399" lon="3.03407">
        <ele>658.3</ele>
        <time>2024-07-26T09:54:08Z</time>
      </trkpt>
      <trkpt lat="45.894" lon="3.03407">
        <ele>658.2</ele>
        <time>2024-07-26T09:54:09Z</time>
      </trkpt>
      <trkpt lat="45.89401" lon="3.03407">
        <ele>657.9</ele>
        <time>2024-07-26T09:54:10Z</time>
      </trkpt>
      <trkpt lat="45.89402" lon="3.03407">
        <ele>658.2</ele>
        <time>2024-07-26T09:54:11Z</time>
      </trkpt>
      <trkpt lat="45.89403" lon="3.03407">
        <ele>659.1</ele>
        <time>2024-07-26T09:54:12Z</time>
      </trkpt>
      <trkpt lat="45.89403" lon="3.03406">
        <ele>659.1</ele>
        <time>2024-07-26T09:54:13Z</time>
      </trkpt>
      <trkpt lat="45.89404" lon="3.03406">
        <ele>659</ele>
        <time>2024-07-26T09:54:14Z</time>
      </trkpt>
      <trkpt lat="45.89406" lon="3.03406">
        <ele>658.8</ele>
        <time>2024-07-26T09:54:15Z</time>
      </trkpt>
      <trkpt lat="45.89407" lon="3.03406">
        <ele>658.8</ele>
        <time>2024-07-26T09:54:16Z</time>
      </trkpt>
      <trkpt lat="45.89408" lon="3.03406">
        <ele>658.8</ele>
        <time>2024-07-26T09:54:17Z</time>
      </trkpt>
      <trkpt lat="45.89409" lon="3.03406">
        <ele>658.8</ele>
        <time>2024-07-26T09:54:18Z</time>
      </trkpt>
      <trkpt lat="45.8941" lon="3.03405">
        <ele>658.6</ele>
        <time>2024-07-26T09:54:19Z</time>
      </trkpt>
      <trkpt lat="45.89411" lon="3.03405">
        <ele>658.5</ele>
        <time>2024-07-26T09:54:20Z</time>
      </trkpt>
      <trkpt lat="45.89412" lon="3.03405">
        <ele>658.2</ele>
        <time>2024-07-26T09:54:21Z</time>
      </trkpt>
      <trkpt lat="45.89413" lon="3.03405">
        <ele>658.4</ele>
        <time>2024-07-26T09:54:22Z</time>
      </trkpt>
      <trkpt lat="45.89414" lon="3.03404">
        <ele>658.3</ele>
        <time>2024-07-26T09:54:23Z</time>
      </trkpt>
      <trkpt lat="45.89415" lon="3.03404">
        <ele>658.1</ele>
        <time>2024-07-26T09:54:24Z</time>
      </trkpt>
      <trkpt lat="45.89416" lon="3.03404">
        <ele>658.1</ele>
        <time>2024-07-26T09:54:25Z</time>
      </trkpt>
      <trkpt lat="45.89418" lon="3.03404">
        <ele>657.9</ele>
        <time>2024-07-26T09:54:26Z</time>
      </trkpt>
      <trkpt lat="45.89419" lon="3.03404">
        <ele>658</ele>
        <time>2024-07-26T09:54:27Z</time>
      </trkpt>
      <trkpt lat="45.8942" lon="3.03404">
        <ele>657.7</ele>
        <time>2024-07-26T09:54:28Z</time>
      </trkpt>
      <trkpt lat="45.89421" lon="3.03404">
        <ele>658.1</ele>
        <time>2024-07-26T09:54:32Z</time>
      </trkpt>
      <trkpt lat="45.89422" lon="3.03404">
        <ele>658</ele>
        <time>2024-07-26T09:54:34Z</time>
      </trkpt>
      <trkpt lat="45.89423" lon="3.03404">
        <ele>657.9</ele>
        <time>2024-07-26T09:54:35Z</time>
      </trkpt>
      <trkpt lat="45.89424" lon="3.03403">
        <ele>658</ele>
        <time>2024-07-26T09:54:36Z</time>
      </trkpt>
      <trkpt lat="45.89425" lon="3.03403">
        <ele>658.4</ele>
        <time>2024-07-26T09:54:37Z</time>
      </trkpt>
      <trkpt lat="45.89426" lon="3.03403">
        <ele>658.4</ele>
        <time>2024-07-26T09:54:38Z</time>
      </trkpt>
      <trkpt lat="45.89427" lon="3.03403">
        <ele>658.4</ele>
        <time>2024-07-26T09:54:39Z</time>
      </trkpt>
      <trkpt lat="45.89428" lon="3.03403">
        <ele>658.4</ele>
        <time>2024-07-26T09:54:40Z</time>
      </trkpt>
      <trkpt lat="45.89429" lon="3.03402">
        <ele>658.4</ele>
        <time>2024-07-26T09:54:41Z</time>
      </trkpt>
      <trkpt lat="45.8943" lon="3.03402">
        <ele>658.4</ele>
        <time>2024-07-26T09:54:42Z</time>
      </trkpt>
      <trkpt lat="45.89431" lon="3.03402">
        <ele>657.9</ele>
        <time>2024-07-26T09:54:44Z</time>
      </trkpt>
      <trkpt lat="45.89432" lon="3.03401">
        <ele>658.8</ele>
        <time>2024-07-26T09:54:45Z</time>
      </trkpt>
      <trkpt lat="45.89433" lon="3.03401">
        <ele>658.5</ele>
        <time>2024-07-26T09:54:46Z</time>
      </trkpt>
      <trkpt lat="45.89434" lon="3.034">
        <ele>658.8</ele>
        <time>2024-07-26T09:54:47Z</time>
      </trkpt>
      <trkpt lat="45.89435" lon="3.034">
        <ele>658.7</ele>
        <time>2024-07-26T09:54:48Z</time>
      </trkpt>
      <trkpt lat="45.89436" lon="3.034">
        <ele>658.2</ele>
        <time>2024-07-26T09:54:49Z</time>
      </trkpt>
      <trkpt lat="45.89437" lon="3.034">
        <ele>657.9</ele>
        <time>2024-07-26T09:54:50Z</time>
      </trkpt>
      <trkpt lat="45.89438" lon="3.034">
        <ele>658</ele>
        <time>2024-07-26T09:54:51Z</time>
      </trkpt>
      <trkpt lat="45.89439" lon="3.034">
        <ele>658.2</ele>
        <time>2024-07-26T09:54:52Z</time>
      </trkpt>
      <trkpt lat="45.8944" lon="3.03399">
        <ele>657.4</ele>
        <time>2024-07-26T09:54:53Z</time>
      </trkpt>
      <trkpt lat="45.89441" lon="3.03399">
        <ele>657.6</ele>
        <time>2024-07-26T09:54:54Z</time>
      </trkpt>
      <trkpt lat="45.89442" lon="3.03399">
        <ele>657.6</ele>
        <time>2024-07-26T09:54:55Z</time>
      </trkpt>
      <trkpt lat="45.89443" lon="3.03399">
        <ele>657.6</ele>
        <time>2024-07-26T09:54:57Z</time>
      </trkpt>
      <trkpt lat="45.89445" lon="3.03398">
        <ele>657.3</ele>
        <time>2024-07-26T09:54:59Z</time>
      </trkpt>
      <trkpt lat="45.89446" lon="3.03397">
        <ele>655</ele>
        <time>2024-07-26T09:55:01Z</time>
      </trkpt>
      <trkpt lat="45.89447" lon="3.03396">
        <ele>654.4</ele>
        <time>2024-07-26T09:55:03Z</time>
      </trkpt>
      <trkpt lat="45.89448" lon="3.03396">
        <ele>654.8</ele>
        <time>2024-07-26T09:55:04Z</time>
      </trkpt>
      <trkpt lat="45.89449" lon="3.03396">
        <ele>654.8</ele>
        <time>2024-07-26T09:55:05Z</time>
      </trkpt>
      <trkpt lat="45.8945" lon="3.03396">
        <ele>654.5</ele>
        <time>2024-07-26T09:55:06Z</time>
      </trkpt>
      <trkpt lat="45.89451" lon="3.03395">
        <ele>653.8</ele>
        <time>2024-07-26T09:55:19Z</time>
      </trkpt>
      <trkpt lat="45.89453" lon="3.03395">
        <ele>653.5</ele>
        <time>2024-07-26T09:55:21Z</time>
      </trkpt>
      <trkpt lat="45.89455" lon="3.03394">
        <ele>653.2</ele>
        <time>2024-07-26T09:55:23Z</time>
      </trkpt>
      <trkpt lat="45.89455" lon="3.03394">
        <ele>653.8</ele>
        <time>2024-07-26T09:55:24Z</time>
      </trkpt>
      <trkpt lat="45.89458" lon="3.03395">
        <ele>655.1</ele>
        <time>2024-07-26T09:55:27Z</time>
      </trkpt>
      <trkpt lat="45.8946" lon="3.03395">
        <ele>656.2</ele>
        <time>2024-07-26T09:55:29Z</time>
      </trkpt>
      <trkpt lat="45.89461" lon="3.03395">
        <ele>656.1</ele>
        <time>2024-07-26T09:55:31Z</time>
      </trkpt>
      <trkpt lat="45.89462" lon="3.03395">
        <ele>655.7</ele>
        <time>2024-07-26T09:55:32Z</time>
      </trkpt>
      <trkpt lat="45.89465" lon="3.03394">
        <ele>655.3</ele>
        <time>2024-07-26T09:55:34Z</time>
      </trkpt>
      <trkpt lat="45.89466" lon="3.03394">
        <ele>654.4</ele>
        <time>2024-07-26T09:55:35Z</time>
      </trkpt>
      <trkpt lat="45.89467" lon="3.03394">
        <ele>654.4</ele>
        <time>2024-07-26T09:55:36Z</time>
      </trkpt>
      <trkpt lat="45.89468" lon="3.03394">
        <ele>653.6</ele>
        <time>2024-07-26T09:55:37Z</time>
      </trkpt>
      <trkpt lat="45.89469" lon="3.03393">
        <ele>653.4</ele>
        <time>2024-07-26T09:55:38Z</time>
      </trkpt>
      <trkpt lat="45.8947" lon="3.03393">
        <ele>653.4</ele>
        <time>2024-07-26T09:55:39Z</time>
      </trkpt>
      <trkpt lat="45.89472" lon="3.03393">
        <ele>653.4</ele>
        <time>2024-07-26T09:55:41Z</time>
      </trkpt>
      <trkpt lat="45.89473" lon="3.03393">
        <ele>653.2</ele>
        <time>2024-07-26T09:55:43Z</time>
      </trkpt>
      <trkpt lat="45.89474" lon="3.03393">
        <ele>652.9</ele>
        <time>2024-07-26T09:55:44Z</time>
      </trkpt>
      <trkpt lat="45.89475" lon="3.03392">
        <ele>652.8</ele>
        <time>2024-07-26T09:55:45Z</time>
      </trkpt>
      <trkpt lat="45.89476" lon="3.03392">
        <ele>652.4</ele>
        <time>2024-07-26T09:55:46Z</time>
      </trkpt>
      <trkpt lat="45.89477" lon="3.03392">
        <ele>652.2</ele>
        <time>2024-07-26T09:55:47Z</time>
      </trkpt>
      <trkpt lat="45.89479" lon="3.03392">
        <ele>652.1</ele>
        <time>2024-07-26T09:55:48Z</time>
      </trkpt>
      <trkpt lat="45.8948" lon="3.03392">
        <ele>651.9</ele>
        <time>2024-07-26T09:55:49Z</time>
      </trkpt>
      <trkpt lat="45.89481" lon="3.03393">
        <ele>652</ele>
        <time>2024-07-26T09:55:50Z</time>
      </trkpt>
      <trkpt lat="45.89482" lon="3.03393">
        <ele>651.9</ele>
        <time>2024-07-26T09:55:51Z</time>
      </trkpt>
      <trkpt lat="45.89483" lon="3.03393">
        <ele>651.8</ele>
        <time>2024-07-26T09:55:52Z</time>
      </trkpt>
      <trkpt lat="45.89484" lon="3.03393">
        <ele>651.7</ele>
        <time>2024-07-26T09:55:53Z</time>
      </trkpt>
      <trkpt lat="45.89485" lon="3.03393">
        <ele>651.7</ele>
        <time>2024-07-26T09:55:54Z</time>
      </trkpt>
      <trkpt lat="45.89486" lon="3.03393">
        <ele>651.8</ele>
        <time>2024-07-26T09:55:55Z</time>
      </trkpt>
      <trkpt lat="45.89487" lon="3.03393">
        <ele>651.6</ele>
        <time>2024-07-26T09:55:56Z</time>
      </trkpt>
      <trkpt lat="45.89488" lon="3.03394">
        <ele>651.5</ele>
        <time>2024-07-26T09:55:57Z</time>
      </trkpt>
      <trkpt lat="45.89489" lon="3.03394">
        <ele>651.7</ele>
        <time>2024-07-26T09:55:58Z</time>
      </trkpt>
      <trkpt lat="45.8949" lon="3.03394">
        <ele>651.4</ele>
        <time>2024-07-26T09:55:59Z</time>
      </trkpt>
      <trkpt lat="45.89491" lon="3.03394">
        <ele>651.5</ele>
        <time>2024-07-26T09:56:00Z</time>
      </trkpt>
      <trkpt lat="45.89492" lon="3.03394">
        <ele>651.4</ele>
        <time>2024-07-26T09:56:01Z</time>
      </trkpt>
      <trkpt lat="45.89493" lon="3.03395">
        <ele>651.3</ele>
        <time>2024-07-26T09:56:02Z</time>
      </trkpt>
      <trkpt lat="45.89494" lon="3.03395">
        <ele>651.3</ele>
        <time>2024-07-26T09:56:03Z</time>
      </trkpt>
      <trkpt lat="45.89496" lon="3.03395">
        <ele>650.6</ele>
        <time>2024-07-26T09:56:04Z</time>
      </trkpt>
      <trkpt lat="45.89497" lon="3.03396">
        <ele>650.5</ele>
        <time>2024-07-26T09:56:06Z</time>
      </trkpt>
      <trkpt lat="45.89498" lon="3.03396">
        <ele>650.3</ele>
        <time>2024-07-26T09:56:07Z</time>
      </trkpt>
      <trkpt lat="45.89499" lon="3.03397">
        <ele>650.9</ele>
        <time>2024-07-26T09:56:08Z</time>
      </trkpt>
      <trkpt lat="45.89501" lon="3.03397">
        <ele>650.8</ele>
        <time>2024-07-26T09:56:09Z</time>
      </trkpt>
      <trkpt lat="45.89502" lon="3.03398">
        <ele>650.9</ele>
        <time>2024-07-26T09:56:10Z</time>
      </trkpt>
      <trkpt lat="45.89503" lon="3.03398">
        <ele>650.7</ele>
        <time>2024-07-26T09:56:11Z</time>
      </trkpt>
      <trkpt lat="45.89504" lon="3.03398">
        <ele>650.6</ele>
        <time>2024-07-26T09:56:12Z</time>
      </trkpt>
      <trkpt lat="45.89505" lon="3.03399">
        <ele>651</ele>
        <time>2024-07-26T09:56:13Z</time>
      </trkpt>
      <trkpt lat="45.89506" lon="3.034">
        <ele>651.4</ele>
        <time>2024-07-26T09:56:15Z</time>
      </trkpt>
      <trkpt lat="45.89507" lon="3.034">
        <ele>651.7</ele>
        <time>2024-07-26T09:56:17Z</time>
      </trkpt>
      <trkpt lat="45.89508" lon="3.034">
        <ele>652.4</ele>
        <time>2024-07-26T09:56:18Z</time>
      </trkpt>
      <trkpt lat="45.89509" lon="3.034">
        <ele>651.2</ele>
        <time>2024-07-26T09:56:19Z</time>
      </trkpt>
      <trkpt lat="45.89511" lon="3.03399">
        <ele>652.8</ele>
        <time>2024-07-26T09:56:21Z</time>
      </trkpt>
      <trkpt lat="45.89512" lon="3.03399">
        <ele>653.5</ele>
        <time>2024-07-26T09:56:27Z</time>
      </trkpt>
      <trkpt lat="45.89514" lon="3.03399">
        <ele>651.7</ele>
        <time>2024-07-26T09:56:29Z</time>
      </trkpt>
      <trkpt lat="45.89515" lon="3.03399">
        <ele>652.7</ele>
        <time>2024-07-26T09:56:31Z</time>
      </trkpt>
      <trkpt lat="45.89516" lon="3.03398">
        <ele>653.1</ele>
        <time>2024-07-26T09:56:32Z</time>
      </trkpt>
      <trkpt lat="45.89518" lon="3.03398">
        <ele>651</ele>
        <time>2024-07-26T09:56:34Z</time>
      </trkpt>
      <trkpt lat="45.8952" lon="3.03398">
        <ele>651.6</ele>
        <time>2024-07-26T09:56:35Z</time>
      </trkpt>
      <trkpt lat="45.89521" lon="3.03398">
        <ele>650.6</ele>
        <time>2024-07-26T09:56:36Z</time>
      </trkpt>
      <trkpt lat="45.89522" lon="3.03397">
        <ele>650.6</ele>
        <time>2024-07-26T09:56:37Z</time>
      </trkpt>
      <trkpt lat="45.89523" lon="3.03397">
        <ele>650.4</ele>
        <time>2024-07-26T09:56:38Z</time>
      </trkpt>
      <trkpt lat="45.89525" lon="3.03396">
        <ele>650.4</ele>
        <time>2024-07-26T09:56:39Z</time>
      </trkpt>
      <trkpt lat="45.89526" lon="3.03396">
        <ele>650.6</ele>
        <time>2024-07-26T09:56:40Z</time>
      </trkpt>
      <trkpt lat="45.89528" lon="3.03395">
        <ele>647.7</ele>
        <time>2024-07-26T09:56:42Z</time>
      </trkpt>
      <trkpt lat="45.89529" lon="3.03394">
        <ele>648.1</ele>
        <time>2024-07-26T09:56:43Z</time>
      </trkpt>
      <trkpt lat="45.8953" lon="3.03393">
        <ele>647.5</ele>
        <time>2024-07-26T09:56:44Z</time>
      </trkpt>
      <trkpt lat="45.89531" lon="3.03392">
        <ele>647.9</ele>
        <time>2024-07-26T09:56:45Z</time>
      </trkpt>
      <trkpt lat="45.89532" lon="3.03392">
        <ele>648.6</ele>
        <time>2024-07-26T09:56:46Z</time>
      </trkpt>
      <trkpt lat="45.89533" lon="3.03391">
        <ele>649</ele>
        <time>2024-07-26T09:56:47Z</time>
      </trkpt>
      <trkpt lat="45.89535" lon="3.0339">
        <ele>648.9</ele>
        <time>2024-07-26T09:56:48Z</time>
      </trkpt>
      <trkpt lat="45.89536" lon="3.0339">
        <ele>649.5</ele>
        <time>2024-07-26T09:56:49Z</time>
      </trkpt>
      <trkpt lat="45.89537" lon="3.03389">
        <ele>649.1</ele>
        <time>2024-07-26T09:56:50Z</time>
      </trkpt>
      <trkpt lat="45.89539" lon="3.03388">
        <ele>649.2</ele>
        <time>2024-07-26T09:56:51Z</time>
      </trkpt>
      <trkpt lat="45.8954" lon="3.03388">
        <ele>649</ele>
        <time>2024-07-26T09:56:52Z</time>
      </trkpt>
      <trkpt lat="45.89541" lon="3.03387">
        <ele>649.3</ele>
        <time>2024-07-26T09:56:53Z</time>
      </trkpt>
      <trkpt lat="45.89542" lon="3.03387">
        <ele>649</ele>
        <time>2024-07-26T09:56:54Z</time>
      </trkpt>
      <trkpt lat="45.89544" lon="3.03386">
        <ele>648.8</ele>
        <time>2024-07-26T09:56:55Z</time>
      </trkpt>
      <trkpt lat="45.89545" lon="3.03385">
        <ele>648.9</ele>
        <time>2024-07-26T09:56:56Z</time>
      </trkpt>
      <trkpt lat="45.89546" lon="3.03385">
        <ele>646.3</ele>
        <time>2024-07-26T09:56:57Z</time>
      </trkpt>
      <trkpt lat="45.89548" lon="3.03384">
        <ele>646.3</ele>
        <time>2024-07-26T09:56:58Z</time>
      </trkpt>
      <trkpt lat="45.89549" lon="3.03383">
        <ele>644.7</ele>
        <time>2024-07-26T09:56:59Z</time>
      </trkpt>
      <trkpt lat="45.8955" lon="3.03382">
        <ele>645.9</ele>
        <time>2024-07-26T09:57:00Z</time>
      </trkpt>
      <trkpt lat="45.89551" lon="3.03382">
        <ele>646</ele>
        <time>2024-07-26T09:57:01Z</time>
      </trkpt>
      <trkpt lat="45.89553" lon="3.03382">
        <ele>646.4</ele>
        <time>2024-07-26T09:57:02Z</time>
      </trkpt>
      <trkpt lat="45.89554" lon="3.03381">
        <ele>645.9</ele>
        <time>2024-07-26T09:57:03Z</time>
      </trkpt>
      <trkpt lat="45.89555" lon="3.03381">
        <ele>645.9</ele>
        <time>2024-07-26T09:57:04Z</time>
      </trkpt>
      <trkpt lat="45.89556" lon="3.03381">
        <ele>646.5</ele>
        <time>2024-07-26T09:57:05Z</time>
      </trkpt>
      <trkpt lat="45.89557" lon="3.03381">
        <ele>646.1</ele>
        <time>2024-07-26T09:57:06Z</time>
      </trkpt>
      <trkpt lat="45.89558" lon="3.03381">
        <ele>646.1</ele>
        <time>2024-07-26T09:57:07Z</time>
      </trkpt>
      <trkpt lat="45.89559" lon="3.03381">
        <ele>646.9</ele>
        <time>2024-07-26T09:57:08Z</time>
      </trkpt>
      <trkpt lat="45.8956" lon="3.03381">
        <ele>646.8</ele>
        <time>2024-07-26T09:57:09Z</time>
      </trkpt>
      <trkpt lat="45.89562" lon="3.03381">
        <ele>647.8</ele>
        <time>2024-07-26T09:57:11Z</time>
      </trkpt>
      <trkpt lat="45.89563" lon="3.0338">
        <ele>648.3</ele>
        <time>2024-07-26T09:57:12Z</time>
      </trkpt>
      <trkpt lat="45.89564" lon="3.0338">
        <ele>648.5</ele>
        <time>2024-07-26T09:57:13Z</time>
      </trkpt>
      <trkpt lat="45.89565" lon="3.0338">
        <ele>649</ele>
        <time>2024-07-26T09:57:14Z</time>
      </trkpt>
      <trkpt lat="45.89566" lon="3.0338">
        <ele>649.5</ele>
        <time>2024-07-26T09:57:15Z</time>
      </trkpt>
      <trkpt lat="45.89567" lon="3.0338">
        <ele>649</ele>
        <time>2024-07-26T09:57:16Z</time>
      </trkpt>
      <trkpt lat="45.89568" lon="3.03379">
        <ele>648.5</ele>
        <time>2024-07-26T09:57:17Z</time>
      </trkpt>
      <trkpt lat="45.8957" lon="3.03379">
        <ele>647.6</ele>
        <time>2024-07-26T09:57:18Z</time>
      </trkpt>
      <trkpt lat="45.89571" lon="3.03379">
        <ele>647</ele>
        <time>2024-07-26T09:57:19Z</time>
      </trkpt>
      <trkpt lat="45.89572" lon="3.03379">
        <ele>646.9</ele>
        <time>2024-07-26T09:57:20Z</time>
      </trkpt>
      <trkpt lat="45.89573" lon="3.0338">
        <ele>646.7</ele>
        <time>2024-07-26T09:57:21Z</time>
      </trkpt>
      <trkpt lat="45.89574" lon="3.0338">
        <ele>647</ele>
        <time>2024-07-26T09:57:22Z</time>
      </trkpt>
      <trkpt lat="45.89575" lon="3.03379">
        <ele>646.8</ele>
        <time>2024-07-26T09:57:23Z</time>
      </trkpt>
      <trkpt lat="45.89576" lon="3.03379">
        <ele>646.7</ele>
        <time>2024-07-26T09:57:24Z</time>
      </trkpt>
      <trkpt lat="45.89578" lon="3.03379">
        <ele>646.8</ele>
        <time>2024-07-26T09:57:25Z</time>
      </trkpt>
      <trkpt lat="45.89579" lon="3.03379">
        <ele>646.4</ele>
        <time>2024-07-26T09:57:26Z</time>
      </trkpt>
      <trkpt lat="45.8958" lon="3.03379">
        <ele>646.1</ele>
        <time>2024-07-26T09:57:27Z</time>
      </trkpt>
      <trkpt lat="45.89581" lon="3.03378">
        <ele>645.9</ele>
        <time>2024-07-26T09:57:28Z</time>
      </trkpt>
      <trkpt lat="45.89582" lon="3.03378">
        <ele>645.8</ele>
        <time>2024-07-26T09:57:29Z</time>
      </trkpt>
      <trkpt lat="45.89583" lon="3.03378">
        <ele>645.6</ele>
        <time>2024-07-26T09:57:30Z</time>
      </trkpt>
      <trkpt lat="45.89585" lon="3.03377">
        <ele>645.4</ele>
        <time>2024-07-26T09:57:31Z</time>
      </trkpt>
      <trkpt lat="45.89586" lon="3.03377">
        <ele>644.9</ele>
        <time>2024-07-26T09:57:32Z</time>
      </trkpt>
      <trkpt lat="45.89587" lon="3.03376">
        <ele>645</ele>
        <time>2024-07-26T09:57:33Z</time>
      </trkpt>
      <trkpt lat="45.89588" lon="3.03376">
        <ele>645</ele>
        <time>2024-07-26T09:57:34Z</time>
      </trkpt>
      <trkpt lat="45.89589" lon="3.03376">
        <ele>644.8</ele>
        <time>2024-07-26T09:57:35Z</time>
      </trkpt>
      <trkpt lat="45.8959" lon="3.03375">
        <ele>645</ele>
        <time>2024-07-26T09:57:36Z</time>
      </trkpt>
      <trkpt lat="45.89591" lon="3.03374">
        <ele>645</ele>
        <time>2024-07-26T09:57:37Z</time>
      </trkpt>
      <trkpt lat="45.89592" lon="3.03374">
        <ele>644.5</ele>
        <time>2024-07-26T09:57:38Z</time>
      </trkpt>
      <trkpt lat="45.89593" lon="3.03373">
        <ele>644.4</ele>
        <time>2024-07-26T09:57:39Z</time>
      </trkpt>
      <trkpt lat="45.89594" lon="3.03372">
        <ele>644.3</ele>
        <time>2024-07-26T09:57:40Z</time>
      </trkpt>
      <trkpt lat="45.89595" lon="3.03372">
        <ele>644.4</ele>
        <time>2024-07-26T09:57:41Z</time>
      </trkpt>
      <trkpt lat="45.89596" lon="3.03372">
        <ele>644.4</ele>
        <time>2024-07-26T09:57:42Z</time>
      </trkpt>
      <trkpt lat="45.89597" lon="3.03371">
        <ele>644.1</ele>
        <time>2024-07-26T09:57:43Z</time>
      </trkpt>
      <trkpt lat="45.89599" lon="3.03371">
        <ele>643.8</ele>
        <time>2024-07-26T09:57:44Z</time>
      </trkpt>
      <trkpt lat="45.896" lon="3.0337">
        <ele>643.8</ele>
        <time>2024-07-26T09:57:45Z</time>
      </trkpt>
      <trkpt lat="45.89601" lon="3.0337">
        <ele>643.9</ele>
        <time>2024-07-26T09:57:46Z</time>
      </trkpt>
      <trkpt lat="45.89602" lon="3.03369">
        <ele>644</ele>
        <time>2024-07-26T09:57:47Z</time>
      </trkpt>
      <trkpt lat="45.89603" lon="3.03369">
        <ele>644.1</ele>
        <time>2024-07-26T09:57:48Z</time>
      </trkpt>
      <trkpt lat="45.89604" lon="3.03368">
        <ele>644.2</ele>
        <time>2024-07-26T09:57:49Z</time>
      </trkpt>
      <trkpt lat="45.89605" lon="3.03368">
        <ele>644</ele>
        <time>2024-07-26T09:57:50Z</time>
      </trkpt>
      <trkpt lat="45.89606" lon="3.03368">
        <ele>643.8</ele>
        <time>2024-07-26T09:57:51Z</time>
      </trkpt>
      <trkpt lat="45.89608" lon="3.03367">
        <ele>643.5</ele>
        <time>2024-07-26T09:57:52Z</time>
      </trkpt>
      <trkpt lat="45.89609" lon="3.03367">
        <ele>643.2</ele>
        <time>2024-07-26T09:57:53Z</time>
      </trkpt>
      <trkpt lat="45.8961" lon="3.03367">
        <ele>642.9</ele>
        <time>2024-07-26T09:57:54Z</time>
      </trkpt>
      <trkpt lat="45.89611" lon="3.03368">
        <ele>642.6</ele>
        <time>2024-07-26T09:57:55Z</time>
      </trkpt>
      <trkpt lat="45.89612" lon="3.03368">
        <ele>642.6</ele>
        <time>2024-07-26T09:57:56Z</time>
      </trkpt>
      <trkpt lat="45.89613" lon="3.03368">
        <ele>642.8</ele>
        <time>2024-07-26T09:57:57Z</time>
      </trkpt>
      <trkpt lat="45.89614" lon="3.03369">
        <ele>642.7</ele>
        <time>2024-07-26T09:57:58Z</time>
      </trkpt>
      <trkpt lat="45.89615" lon="3.03369">
        <ele>642</ele>
        <time>2024-07-26T09:57:59Z</time>
      </trkpt>
      <trkpt lat="45.89616" lon="3.03369">
        <ele>642.3</ele>
        <time>2024-07-26T09:58:00Z</time>
      </trkpt>
      <trkpt lat="45.89617" lon="3.0337">
        <ele>642.5</ele>
        <time>2024-07-26T09:58:01Z</time>
      </trkpt>
      <trkpt lat="45.89618" lon="3.0337">
        <ele>642.3</ele>
        <time>2024-07-26T09:58:02Z</time>
      </trkpt>
      <trkpt lat="45.89619" lon="3.03371">
        <ele>642.9</ele>
        <time>2024-07-26T09:58:03Z</time>
      </trkpt>
      <trkpt lat="45.8962" lon="3.03372">
        <ele>643.1</ele>
        <time>2024-07-26T09:58:04Z</time>
      </trkpt>
      <trkpt lat="45.89621" lon="3.03372">
        <ele>642.8</ele>
        <time>2024-07-26T09:58:05Z</time>
      </trkpt>
      <trkpt lat="45.89621" lon="3.03373">
        <ele>643.1</ele>
        <time>2024-07-26T09:58:06Z</time>
      </trkpt>
      <trkpt lat="45.89622" lon="3.03374">
        <ele>643</ele>
        <time>2024-07-26T09:58:07Z</time>
      </trkpt>
      <trkpt lat="45.89623" lon="3.03375">
        <ele>642.8</ele>
        <time>2024-07-26T09:58:08Z</time>
      </trkpt>
      <trkpt lat="45.89624" lon="3.03376">
        <ele>642.9</ele>
        <time>2024-07-26T09:58:09Z</time>
      </trkpt>
      <trkpt lat="45.89625" lon="3.03377">
        <ele>642.9</ele>
        <time>2024-07-26T09:58:10Z</time>
      </trkpt>
      <trkpt lat="45.89626" lon="3.03377">
        <ele>642.6</ele>
        <time>2024-07-26T09:58:11Z</time>
      </trkpt>
      <trkpt lat="45.89627" lon="3.03378">
        <ele>642.5</ele>
        <time>2024-07-26T09:58:12Z</time>
      </trkpt>
      <trkpt lat="45.89628" lon="3.03379">
        <ele>642.6</ele>
        <time>2024-07-26T09:58:13Z</time>
      </trkpt>
      <trkpt lat="45.89629" lon="3.0338">
        <ele>642.6</ele>
        <time>2024-07-26T09:58:14Z</time>
      </trkpt>
      <trkpt lat="45.8963" lon="3.03381">
        <ele>643</ele>
        <time>2024-07-26T09:58:15Z</time>
      </trkpt>
      <trkpt lat="45.8963" lon="3.03381">
        <ele>642.8</ele>
        <time>2024-07-26T09:58:16Z</time>
      </trkpt>
      <trkpt lat="45.89631" lon="3.03382">
        <ele>642.6</ele>
        <time>2024-07-26T09:58:17Z</time>
      </trkpt>
      <trkpt lat="45.89632" lon="3.03383">
        <ele>642.4</ele>
        <time>2024-07-26T09:58:18Z</time>
      </trkpt>
      <trkpt lat="45.89633" lon="3.03384">
        <ele>642.6</ele>
        <time>2024-07-26T09:58:19Z</time>
      </trkpt>
      <trkpt lat="45.89634" lon="3.03385">
        <ele>642.8</ele>
        <time>2024-07-26T09:58:20Z</time>
      </trkpt>
      <trkpt lat="45.89635" lon="3.03386">
        <ele>642.9</ele>
        <time>2024-07-26T09:58:21Z</time>
      </trkpt>
      <trkpt lat="45.89636" lon="3.03387">
        <ele>642.8</ele>
        <time>2024-07-26T09:58:22Z</time>
      </trkpt>
      <trkpt lat="45.89637" lon="3.03387">
        <ele>643</ele>
        <time>2024-07-26T09:58:23Z</time>
      </trkpt>
      <trkpt lat="45.89638" lon="3.03388">
        <ele>643.2</ele>
        <time>2024-07-26T09:58:24Z</time>
      </trkpt>
      <trkpt lat="45.89638" lon="3.03389">
        <ele>643.1</ele>
        <time>2024-07-26T09:58:25Z</time>
      </trkpt>
      <trkpt lat="45.89639" lon="3.0339">
        <ele>643.1</ele>
        <time>2024-07-26T09:58:26Z</time>
      </trkpt>
      <trkpt lat="45.8964" lon="3.03391">
        <ele>642.9</ele>
        <time>2024-07-26T09:58:27Z</time>
      </trkpt>
      <trkpt lat="45.89641" lon="3.03392">
        <ele>642.8</ele>
        <time>2024-07-26T09:58:28Z</time>
      </trkpt>
      <trkpt lat="45.89642" lon="3.03392">
        <ele>642.7</ele>
        <time>2024-07-26T09:58:29Z</time>
      </trkpt>
      <trkpt lat="45.89643" lon="3.03393">
        <ele>643.1</ele>
        <time>2024-07-26T09:58:30Z</time>
      </trkpt>
      <trkpt lat="45.89644" lon="3.03394">
        <ele>643.1</ele>
        <time>2024-07-26T09:58:31Z</time>
      </trkpt>
      <trkpt lat="45.89645" lon="3.03395">
        <ele>643.5</ele>
        <time>2024-07-26T09:58:32Z</time>
      </trkpt>
      <trkpt lat="45.89646" lon="3.03395">
        <ele>643.5</ele>
        <time>2024-07-26T09:58:33Z</time>
      </trkpt>
      <trkpt lat="45.89647" lon="3.03396">
        <ele>642.3</ele>
        <time>2024-07-26T09:58:34Z</time>
      </trkpt>
      <trkpt lat="45.89648" lon="3.03397">
        <ele>642.4</ele>
        <time>2024-07-26T09:58:35Z</time>
      </trkpt>
      <trkpt lat="45.89649" lon="3.03397">
        <ele>642.1</ele>
        <time>2024-07-26T09:58:36Z</time>
      </trkpt>
      <trkpt lat="45.8965" lon="3.03398">
        <ele>641.5</ele>
        <time>2024-07-26T09:58:37Z</time>
      </trkpt>
      <trkpt lat="45.89651" lon="3.03398">
        <ele>641.2</ele>
        <time>2024-07-26T09:58:38Z</time>
      </trkpt>
      <trkpt lat="45.89652" lon="3.03399">
        <ele>641.5</ele>
        <time>2024-07-26T09:58:39Z</time>
      </trkpt>
      <trkpt lat="45.89653" lon="3.034">
        <ele>641.5</ele>
        <time>2024-07-26T09:58:40Z</time>
      </trkpt>
      <trkpt lat="45.89655" lon="3.034">
        <ele>641.5</ele>
        <time>2024-07-26T09:58:41Z</time>
      </trkpt>
      <trkpt lat="45.89656" lon="3.03401">
        <ele>641.4</ele>
        <time>2024-07-26T09:58:42Z</time>
      </trkpt>
      <trkpt lat="45.89657" lon="3.03401">
        <ele>641.7</ele>
        <time>2024-07-26T09:58:43Z</time>
      </trkpt>
      <trkpt lat="45.89658" lon="3.03402">
        <ele>641.8</ele>
        <time>2024-07-26T09:58:44Z</time>
      </trkpt>
      <trkpt lat="45.89659" lon="3.03402">
        <ele>641.7</ele>
        <time>2024-07-26T09:58:45Z</time>
      </trkpt>
      <trkpt lat="45.8966" lon="3.03403">
        <ele>641.7</ele>
        <time>2024-07-26T09:58:46Z</time>
      </trkpt>
      <trkpt lat="45.89661" lon="3.03403">
        <ele>641.3</ele>
        <time>2024-07-26T09:58:47Z</time>
      </trkpt>
      <trkpt lat="45.89662" lon="3.03404">
        <ele>641.4</ele>
        <time>2024-07-26T09:58:48Z</time>
      </trkpt>
      <trkpt lat="45.89663" lon="3.03404">
        <ele>641.2</ele>
        <time>2024-07-26T09:58:49Z</time>
      </trkpt>
      <trkpt lat="45.89665" lon="3.03404">
        <ele>641.1</ele>
        <time>2024-07-26T09:58:50Z</time>
      </trkpt>
      <trkpt lat="45.89666" lon="3.03405">
        <ele>641</ele>
        <time>2024-07-26T09:58:51Z</time>
      </trkpt>
      <trkpt lat="45.89667" lon="3.03405">
        <ele>640.6</ele>
        <time>2024-07-26T09:58:52Z</time>
      </trkpt>
      <trkpt lat="45.89668" lon="3.03404">
        <ele>640.4</ele>
        <time>2024-07-26T09:58:53Z</time>
      </trkpt>
      <trkpt lat="45.89669" lon="3.03404">
        <ele>640.3</ele>
        <time>2024-07-26T09:58:54Z</time>
      </trkpt>
      <trkpt lat="45.89671" lon="3.03404">
        <ele>640.2</ele>
        <time>2024-07-26T09:58:55Z</time>
      </trkpt>
      <trkpt lat="45.89672" lon="3.03403">
        <ele>640</ele>
        <time>2024-07-26T09:58:56Z</time>
      </trkpt>
      <trkpt lat="45.89673" lon="3.03403">
        <ele>639.8</ele>
        <time>2024-07-26T09:58:57Z</time>
      </trkpt>
      <trkpt lat="45.89674" lon="3.03402">
        <ele>639.6</ele>
        <time>2024-07-26T09:58:58Z</time>
      </trkpt>
      <trkpt lat="45.89675" lon="3.03401">
        <ele>639.5</ele>
        <time>2024-07-26T09:58:59Z</time>
      </trkpt>
      <trkpt lat="45.89676" lon="3.034">
        <ele>639.9</ele>
        <time>2024-07-26T09:59:00Z</time>
      </trkpt>
      <trkpt lat="45.89677" lon="3.03399">
        <ele>639.7</ele>
        <time>2024-07-26T09:59:01Z</time>
      </trkpt>
      <trkpt lat="45.89678" lon="3.03398">
        <ele>639.7</ele>
        <time>2024-07-26T09:59:02Z</time>
      </trkpt>
      <trkpt lat="45.89679" lon="3.03397">
        <ele>639</ele>
        <time>2024-07-26T09:59:03Z</time>
      </trkpt>
      <trkpt lat="45.89679" lon="3.03396">
        <ele>639.2</ele>
        <time>2024-07-26T09:59:04Z</time>
      </trkpt>
      <trkpt lat="45.8968" lon="3.03395">
        <ele>639.4</ele>
        <time>2024-07-26T09:59:05Z</time>
      </trkpt>
      <trkpt lat="45.89681" lon="3.03394">
        <ele>638.9</ele>
        <time>2024-07-26T09:59:06Z</time>
      </trkpt>
      <trkpt lat="45.89681" lon="3.03393">
        <ele>638.4</ele>
        <time>2024-07-26T09:59:07Z</time>
      </trkpt>
      <trkpt lat="45.89681" lon="3.03391">
        <ele>638.1</ele>
        <time>2024-07-26T09:59:08Z</time>
      </trkpt>
      <trkpt lat="45.89681" lon="3.0339">
        <ele>637.6</ele>
        <time>2024-07-26T09:59:09Z</time>
      </trkpt>
      <trkpt lat="45.89681" lon="3.03388">
        <ele>637.7</ele>
        <time>2024-07-26T09:59:10Z</time>
      </trkpt>
      <trkpt lat="45.89681" lon="3.03387">
        <ele>637.6</ele>
        <time>2024-07-26T09:59:11Z</time>
      </trkpt>
      <trkpt lat="45.89682" lon="3.03385">
        <ele>637.3</ele>
        <time>2024-07-26T09:59:12Z</time>
      </trkpt>
      <trkpt lat="45.89682" lon="3.03384">
        <ele>637.5</ele>
        <time>2024-07-26T09:59:13Z</time>
      </trkpt>
      <trkpt lat="45.89682" lon="3.03382">
        <ele>637.1</ele>
        <time>2024-07-26T09:59:14Z</time>
      </trkpt>
      <trkpt lat="45.89683" lon="3.03381">
        <ele>637.2</ele>
        <time>2024-07-26T09:59:15Z</time>
      </trkpt>
      <trkpt lat="45.89683" lon="3.0338">
        <ele>637.2</ele>
        <time>2024-07-26T09:59:16Z</time>
      </trkpt>
      <trkpt lat="45.89684" lon="3.03378">
        <ele>637.5</ele>
        <time>2024-07-26T09:59:17Z</time>
      </trkpt>
      <trkpt lat="45.89684" lon="3.03377">
        <ele>637.4</ele>
        <time>2024-07-26T09:59:18Z</time>
      </trkpt>
      <trkpt lat="45.89684" lon="3.03376">
        <ele>637.4</ele>
        <time>2024-07-26T09:59:19Z</time>
      </trkpt>
      <trkpt lat="45.89685" lon="3.03374">
        <ele>637.9</ele>
        <time>2024-07-26T09:59:20Z</time>
      </trkpt>
      <trkpt lat="45.89685" lon="3.03373">
        <ele>638.3</ele>
        <time>2024-07-26T09:59:21Z</time>
      </trkpt>
      <trkpt lat="45.89685" lon="3.03372">
        <ele>638.6</ele>
        <time>2024-07-26T09:59:22Z</time>
      </trkpt>
      <trkpt lat="45.89686" lon="3.0337">
        <ele>638.8</ele>
        <time>2024-07-26T09:59:23Z</time>
      </trkpt>
      <trkpt lat="45.89686" lon="3.03369">
        <ele>638.9</ele>
        <time>2024-07-26T09:59:24Z</time>
      </trkpt>
      <trkpt lat="45.89687" lon="3.03368">
        <ele>638.4</ele>
        <time>2024-07-26T09:59:25Z</time>
      </trkpt>
      <trkpt lat="45.89687" lon="3.03366">
        <ele>638.3</ele>
        <time>2024-07-26T09:59:26Z</time>
      </trkpt>
      <trkpt lat="45.89687" lon="3.03365">
        <ele>638.1</ele>
        <time>2024-07-26T09:59:27Z</time>
      </trkpt>
      <trkpt lat="45.89687" lon="3.03363">
        <ele>638.4</ele>
        <time>2024-07-26T09:59:28Z</time>
      </trkpt>
      <trkpt lat="45.89687" lon="3.03362">
        <ele>638.3</ele>
        <time>2024-07-26T09:59:29Z</time>
      </trkpt>
      <trkpt lat="45.89687" lon="3.03361">
        <ele>638</ele>
        <time>2024-07-26T09:59:30Z</time>
      </trkpt>
      <trkpt lat="45.89687" lon="3.03359">
        <ele>637.9</ele>
        <time>2024-07-26T09:59:31Z</time>
      </trkpt>
      <trkpt lat="45.89687" lon="3.03357">
        <ele>637.2</ele>
        <time>2024-07-26T09:59:33Z</time>
      </trkpt>
      <trkpt lat="45.89687" lon="3.03355">
        <ele>636.4</ele>
        <time>2024-07-26T09:59:35Z</time>
      </trkpt>
      <trkpt lat="45.89687" lon="3.03353">
        <ele>636.5</ele>
        <time>2024-07-26T09:59:48Z</time>
      </trkpt>
      <trkpt lat="45.89688" lon="3.03352">
        <ele>636.7</ele>
        <time>2024-07-26T10:00:07Z</time>
      </trkpt>
      <trkpt lat="45.89687" lon="3.0335">
        <ele>636.2</ele>
        <time>2024-07-26T10:00:09Z</time>
      </trkpt>
      <trkpt lat="45.89687" lon="3.03348">
        <ele>636.1</ele>
        <time>2024-07-26T10:00:11Z</time>
      </trkpt>
      <trkpt lat="45.89687" lon="3.03346">
        <ele>636.3</ele>
        <time>2024-07-26T10:00:13Z</time>
      </trkpt>
      <trkpt lat="45.89686" lon="3.03344">
        <ele>635.7</ele>
        <time>2024-07-26T10:00:15Z</time>
      </trkpt>
      <trkpt lat="45.89686" lon="3.03342">
        <ele>635.7</ele>
        <time>2024-07-26T10:00:17Z</time>
      </trkpt>
      <trkpt lat="45.89686" lon="3.03339">
        <ele>636.8</ele>
        <time>2024-07-26T10:00:19Z</time>
      </trkpt>
      <trkpt lat="45.89688" lon="3.03338">
        <ele>637.7</ele>
        <time>2024-07-26T10:00:21Z</time>
      </trkpt>
      <trkpt lat="45.89688" lon="3.03335">
        <ele>637.3</ele>
        <time>2024-07-26T10:00:23Z</time>
      </trkpt>
      <trkpt lat="45.89688" lon="3.03334">
        <ele>636.6</ele>
        <time>2024-07-26T10:00:24Z</time>
      </trkpt>
      <trkpt lat="45.89688" lon="3.03332">
        <ele>636.6</ele>
        <time>2024-07-26T10:00:26Z</time>
      </trkpt>
      <trkpt lat="45.89688" lon="3.03329">
        <ele>636.6</ele>
        <time>2024-07-26T10:00:28Z</time>
      </trkpt>
      <trkpt lat="45.89689" lon="3.03328">
        <ele>636.4</ele>
        <time>2024-07-26T10:00:29Z</time>
      </trkpt>
      <trkpt lat="45.89689" lon="3.03327">
        <ele>636.9</ele>
        <time>2024-07-26T10:00:30Z</time>
      </trkpt>
      <trkpt lat="45.89689" lon="3.03325">
        <ele>636.4</ele>
        <time>2024-07-26T10:00:31Z</time>
      </trkpt>
      <trkpt lat="45.89689" lon="3.03324">
        <ele>636.1</ele>
        <time>2024-07-26T10:00:32Z</time>
      </trkpt>
      <trkpt lat="45.89689" lon="3.03322">
        <ele>636</ele>
        <time>2024-07-26T10:00:33Z</time>
      </trkpt>
      <trkpt lat="45.8969" lon="3.03321">
        <ele>635.8</ele>
        <time>2024-07-26T10:00:34Z</time>
      </trkpt>
      <trkpt lat="45.8969" lon="3.0332">
        <ele>636.3</ele>
        <time>2024-07-26T10:00:35Z</time>
      </trkpt>
      <trkpt lat="45.89691" lon="3.03318">
        <ele>635.8</ele>
        <time>2024-07-26T10:00:36Z</time>
      </trkpt>
      <trkpt lat="45.89691" lon="3.03317">
        <ele>635.7</ele>
        <time>2024-07-26T10:00:37Z</time>
      </trkpt>
      <trkpt lat="45.89691" lon="3.03316">
        <ele>635.7</ele>
        <time>2024-07-26T10:00:38Z</time>
      </trkpt>
      <trkpt lat="45.89692" lon="3.03314">
        <ele>635.4</ele>
        <time>2024-07-26T10:00:40Z</time>
      </trkpt>
      <trkpt lat="45.89693" lon="3.03312">
        <ele>635.8</ele>
        <time>2024-07-26T10:00:42Z</time>
      </trkpt>
      <trkpt lat="45.89693" lon="3.0331">
        <ele>635.4</ele>
        <time>2024-07-26T10:00:43Z</time>
      </trkpt>
      <trkpt lat="45.89693" lon="3.03309">
        <ele>635.2</ele>
        <time>2024-07-26T10:00:44Z</time>
      </trkpt>
      <trkpt lat="45.89693" lon="3.03308">
        <ele>635.2</ele>
        <time>2024-07-26T10:00:45Z</time>
      </trkpt>
      <trkpt lat="45.89694" lon="3.03305">
        <ele>634.8</ele>
        <time>2024-07-26T10:00:47Z</time>
      </trkpt>
      <trkpt lat="45.89695" lon="3.03303">
        <ele>635.3</ele>
        <time>2024-07-26T10:00:49Z</time>
      </trkpt>
      <trkpt lat="45.89695" lon="3.03302">
        <ele>635</ele>
        <time>2024-07-26T10:00:50Z</time>
      </trkpt>
      <trkpt lat="45.89695" lon="3.033">
        <ele>634.7</ele>
        <time>2024-07-26T10:00:51Z</time>
      </trkpt>
      <trkpt lat="45.89695" lon="3.03298">
        <ele>634.7</ele>
        <time>2024-07-26T10:00:53Z</time>
      </trkpt>
      <trkpt lat="45.89695" lon="3.03296">
        <ele>634.7</ele>
        <time>2024-07-26T10:00:55Z</time>
      </trkpt>
      <trkpt lat="45.89696" lon="3.03293">
        <ele>634.4</ele>
        <time>2024-07-26T10:00:57Z</time>
      </trkpt>
      <trkpt lat="45.89696" lon="3.03292">
        <ele>634.8</ele>
        <time>2024-07-26T10:00:58Z</time>
      </trkpt>
      <trkpt lat="45.89697" lon="3.03291">
        <ele>634.4</ele>
        <time>2024-07-26T10:00:59Z</time>
      </trkpt>
      <trkpt lat="45.89697" lon="3.0329">
        <ele>635.2</ele>
        <time>2024-07-26T10:01:00Z</time>
      </trkpt>
      <trkpt lat="45.89698" lon="3.03289">
        <ele>636.1</ele>
        <time>2024-07-26T10:01:01Z</time>
      </trkpt>
      <trkpt lat="45.89699" lon="3.03287">
        <ele>636.6</ele>
        <time>2024-07-26T10:01:03Z</time>
      </trkpt>
      <trkpt lat="45.897" lon="3.03285">
        <ele>636.6</ele>
        <time>2024-07-26T10:01:05Z</time>
      </trkpt>
      <trkpt lat="45.89701" lon="3.03284">
        <ele>637.7</ele>
        <time>2024-07-26T10:01:07Z</time>
      </trkpt>
      <trkpt lat="45.89702" lon="3.03282">
        <ele>637.2</ele>
        <time>2024-07-26T10:01:09Z</time>
      </trkpt>
      <trkpt lat="45.89703" lon="3.03279">
        <ele>636.8</ele>
        <time>2024-07-26T10:01:11Z</time>
      </trkpt>
      <trkpt lat="45.89703" lon="3.03278">
        <ele>636.8</ele>
        <time>2024-07-26T10:01:12Z</time>
      </trkpt>
      <trkpt lat="45.89704" lon="3.03276">
        <ele>637.1</ele>
        <time>2024-07-26T10:01:14Z</time>
      </trkpt>
      <trkpt lat="45.89704" lon="3.03275">
        <ele>636.6</ele>
        <time>2024-07-26T10:01:15Z</time>
      </trkpt>
      <trkpt lat="45.89704" lon="3.03273">
        <ele>636.3</ele>
        <time>2024-07-26T10:01:16Z</time>
      </trkpt>
      <trkpt lat="45.89704" lon="3.03272">
        <ele>635</ele>
        <time>2024-07-26T10:01:17Z</time>
      </trkpt>
      <trkpt lat="45.89704" lon="3.0327">
        <ele>635.4</ele>
        <time>2024-07-26T10:01:18Z</time>
      </trkpt>
      <trkpt lat="45.89704" lon="3.03269">
        <ele>635.6</ele>
        <time>2024-07-26T10:01:19Z</time>
      </trkpt>
      <trkpt lat="45.89704" lon="3.03267">
        <ele>634.3</ele>
        <time>2024-07-26T10:01:20Z</time>
      </trkpt>
      <trkpt lat="45.89704" lon="3.03266">
        <ele>633.8</ele>
        <time>2024-07-26T10:01:21Z</time>
      </trkpt>
      <trkpt lat="45.89703" lon="3.03264">
        <ele>633.3</ele>
        <time>2024-07-26T10:01:22Z</time>
      </trkpt>
      <trkpt lat="45.89703" lon="3.03263">
        <ele>633.2</ele>
        <time>2024-07-26T10:01:23Z</time>
      </trkpt>
      <trkpt lat="45.89702" lon="3.03261">
        <ele>633.7</ele>
        <time>2024-07-26T10:01:24Z</time>
      </trkpt>
      <trkpt lat="45.89702" lon="3.0326">
        <ele>633.7</ele>
        <time>2024-07-26T10:01:25Z</time>
      </trkpt>
      <trkpt lat="45.89702" lon="3.03258">
        <ele>632.9</ele>
        <time>2024-07-26T10:01:26Z</time>
      </trkpt>
      <trkpt lat="45.89702" lon="3.03257">
        <ele>632.7</ele>
        <time>2024-07-26T10:01:27Z</time>
      </trkpt>
      <trkpt lat="45.89702" lon="3.03255">
        <ele>632.1</ele>
        <time>2024-07-26T10:01:28Z</time>
      </trkpt>
      <trkpt lat="45.89701" lon="3.03254">
        <ele>631.4</ele>
        <time>2024-07-26T10:01:29Z</time>
      </trkpt>
      <trkpt lat="45.89701" lon="3.03252">
        <ele>630.8</ele>
        <time>2024-07-26T10:01:30Z</time>
      </trkpt>
      <trkpt lat="45.89701" lon="3.0325">
        <ele>630</ele>
        <time>2024-07-26T10:01:31Z</time>
      </trkpt>
      <trkpt lat="45.89701" lon="3.03249">
        <ele>629.6</ele>
        <time>2024-07-26T10:01:32Z</time>
      </trkpt>
      <trkpt lat="45.89701" lon="3.03247">
        <ele>629.8</ele>
        <time>2024-07-26T10:01:33Z</time>
      </trkpt>
      <trkpt lat="45.897" lon="3.03246">
        <ele>629.8</ele>
        <time>2024-07-26T10:01:34Z</time>
      </trkpt>
      <trkpt lat="45.897" lon="3.03245">
        <ele>629.2</ele>
        <time>2024-07-26T10:01:35Z</time>
      </trkpt>
      <trkpt lat="45.89699" lon="3.03243">
        <ele>629</ele>
        <time>2024-07-26T10:01:36Z</time>
      </trkpt>
      <trkpt lat="45.89698" lon="3.03242">
        <ele>628.6</ele>
        <time>2024-07-26T10:01:37Z</time>
      </trkpt>
      <trkpt lat="45.89698" lon="3.03241">
        <ele>628.9</ele>
        <time>2024-07-26T10:01:38Z</time>
      </trkpt>
      <trkpt lat="45.89697" lon="3.03239">
        <ele>629</ele>
        <time>2024-07-26T10:01:39Z</time>
      </trkpt>
      <trkpt lat="45.89697" lon="3.03238">
        <ele>628</ele>
        <time>2024-07-26T10:01:40Z</time>
      </trkpt>
      <trkpt lat="45.89696" lon="3.03236">
        <ele>627.7</ele>
        <time>2024-07-26T10:01:41Z</time>
      </trkpt>
      <trkpt lat="45.89696" lon="3.03234">
        <ele>627.8</ele>
        <time>2024-07-26T10:01:43Z</time>
      </trkpt>
      <trkpt lat="45.89695" lon="3.03232">
        <ele>627.5</ele>
        <time>2024-07-26T10:01:45Z</time>
      </trkpt>
      <trkpt lat="45.89695" lon="3.0323">
        <ele>627.1</ele>
        <time>2024-07-26T10:01:46Z</time>
      </trkpt>
      <trkpt lat="45.89694" lon="3.03229">
        <ele>626.6</ele>
        <time>2024-07-26T10:01:47Z</time>
      </trkpt>
      <trkpt lat="45.89694" lon="3.03228">
        <ele>627.6</ele>
        <time>2024-07-26T10:01:48Z</time>
      </trkpt>
      <trkpt lat="45.89693" lon="3.03227">
        <ele>627.1</ele>
        <time>2024-07-26T10:01:49Z</time>
      </trkpt>
      <trkpt lat="45.89693" lon="3.03225">
        <ele>626.4</ele>
        <time>2024-07-26T10:01:50Z</time>
      </trkpt>
      <trkpt lat="45.89692" lon="3.03224">
        <ele>626.2</ele>
        <time>2024-07-26T10:01:51Z</time>
      </trkpt>
      <trkpt lat="45.89691" lon="3.03223">
        <ele>626.3</ele>
        <time>2024-07-26T10:01:52Z</time>
      </trkpt>
      <trkpt lat="45.89691" lon="3.03221">
        <ele>626.5</ele>
        <time>2024-07-26T10:01:54Z</time>
      </trkpt>
      <trkpt lat="45.89691" lon="3.03219">
        <ele>626</ele>
        <time>2024-07-26T10:01:55Z</time>
      </trkpt>
      <trkpt lat="45.8969" lon="3.03218">
        <ele>626.2</ele>
        <time>2024-07-26T10:01:56Z</time>
      </trkpt>
      <trkpt lat="45.8969" lon="3.03217">
        <ele>625.9</ele>
        <time>2024-07-26T10:01:57Z</time>
      </trkpt>
      <trkpt lat="45.8969" lon="3.03215">
        <ele>625.8</ele>
        <time>2024-07-26T10:01:59Z</time>
      </trkpt>
      <trkpt lat="45.89689" lon="3.03212">
        <ele>626</ele>
        <time>2024-07-26T10:02:01Z</time>
      </trkpt>
      <trkpt lat="45.89689" lon="3.03211">
        <ele>626.4</ele>
        <time>2024-07-26T10:02:02Z</time>
      </trkpt>
      <trkpt lat="45.89689" lon="3.03209">
        <ele>626.1</ele>
        <time>2024-07-26T10:02:04Z</time>
      </trkpt>
      <trkpt lat="45.89688" lon="3.03207">
        <ele>625.3</ele>
        <time>2024-07-26T10:02:05Z</time>
      </trkpt>
      <trkpt lat="45.89688" lon="3.03206">
        <ele>625.4</ele>
        <time>2024-07-26T10:02:06Z</time>
      </trkpt>
      <trkpt lat="45.89687" lon="3.03204">
        <ele>625.4</ele>
        <time>2024-07-26T10:02:08Z</time>
      </trkpt>
      <trkpt lat="45.89687" lon="3.03202">
        <ele>624.7</ele>
        <time>2024-07-26T10:02:10Z</time>
      </trkpt>
      <trkpt lat="45.89686" lon="3.032">
        <ele>625</ele>
        <time>2024-07-26T10:02:12Z</time>
      </trkpt>
      <trkpt lat="45.89686" lon="3.03198">
        <ele>624.6</ele>
        <time>2024-07-26T10:02:14Z</time>
      </trkpt>
      <trkpt lat="45.89685" lon="3.03196">
        <ele>624.4</ele>
        <time>2024-07-26T10:02:16Z</time>
      </trkpt>
      <trkpt lat="45.89684" lon="3.03195">
        <ele>624</ele>
        <time>2024-07-26T10:02:17Z</time>
      </trkpt>
      <trkpt lat="45.89684" lon="3.03194">
        <ele>624.1</ele>
        <time>2024-07-26T10:02:18Z</time>
      </trkpt>
      <trkpt lat="45.89683" lon="3.03192">
        <ele>623.4</ele>
        <time>2024-07-26T10:02:19Z</time>
      </trkpt>
      <trkpt lat="45.89682" lon="3.03191">
        <ele>623.2</ele>
        <time>2024-07-26T10:02:20Z</time>
      </trkpt>
      <trkpt lat="45.89681" lon="3.0319">
        <ele>622.9</ele>
        <time>2024-07-26T10:02:21Z</time>
      </trkpt>
      <trkpt lat="45.8968" lon="3.03189">
        <ele>622.7</ele>
        <time>2024-07-26T10:02:22Z</time>
      </trkpt>
      <trkpt lat="45.8968" lon="3.03188">
        <ele>622.4</ele>
        <time>2024-07-26T10:02:23Z</time>
      </trkpt>
      <trkpt lat="45.89679" lon="3.03187">
        <ele>621.9</ele>
        <time>2024-07-26T10:02:24Z</time>
      </trkpt>
      <trkpt lat="45.89678" lon="3.03185">
        <ele>621.4</ele>
        <time>2024-07-26T10:02:25Z</time>
      </trkpt>
      <trkpt lat="45.89677" lon="3.03184">
        <ele>621</ele>
        <time>2024-07-26T10:02:26Z</time>
      </trkpt>
      <trkpt lat="45.89677" lon="3.03182">
        <ele>621</ele>
        <time>2024-07-26T10:02:27Z</time>
      </trkpt>
      <trkpt lat="45.89676" lon="3.03181">
        <ele>620</ele>
        <time>2024-07-26T10:02:28Z</time>
      </trkpt>
      <trkpt lat="45.89675" lon="3.03179">
        <ele>619.8</ele>
        <time>2024-07-26T10:02:29Z</time>
      </trkpt>
      <trkpt lat="45.89674" lon="3.03177">
        <ele>621</ele>
        <time>2024-07-26T10:02:31Z</time>
      </trkpt>
      <trkpt lat="45.89675" lon="3.03176">
        <ele>621.8</ele>
        <time>2024-07-26T10:02:32Z</time>
      </trkpt>
      <trkpt lat="45.89676" lon="3.03175">
        <ele>622</ele>
        <time>2024-07-26T10:02:33Z</time>
      </trkpt>
      <trkpt lat="45.89676" lon="3.03173">
        <ele>621.3</ele>
        <time>2024-07-26T10:02:35Z</time>
      </trkpt>
      <trkpt lat="45.89676" lon="3.03172">
        <ele>621.1</ele>
        <time>2024-07-26T10:02:36Z</time>
      </trkpt>
      <trkpt lat="45.89675" lon="3.03171">
        <ele>620.1</ele>
        <time>2024-07-26T10:02:37Z</time>
      </trkpt>
      <trkpt lat="45.89674" lon="3.0317">
        <ele>620.6</ele>
        <time>2024-07-26T10:02:38Z</time>
      </trkpt>
      <trkpt lat="45.89673" lon="3.03168">
        <ele>621.6</ele>
        <time>2024-07-26T10:02:40Z</time>
      </trkpt>
      <trkpt lat="45.89672" lon="3.03167">
        <ele>621.8</ele>
        <time>2024-07-26T10:02:41Z</time>
      </trkpt>
      <trkpt lat="45.89671" lon="3.03165">
        <ele>621.9</ele>
        <time>2024-07-26T10:02:43Z</time>
      </trkpt>
      <trkpt lat="45.8967" lon="3.03164">
        <ele>622.9</ele>
        <time>2024-07-26T10:02:44Z</time>
      </trkpt>
      <trkpt lat="45.89669" lon="3.03162">
        <ele>622</ele>
        <time>2024-07-26T10:02:46Z</time>
      </trkpt>
      <trkpt lat="45.89669" lon="3.03161">
        <ele>621.9</ele>
        <time>2024-07-26T10:02:47Z</time>
      </trkpt>
      <trkpt lat="45.89668" lon="3.03159">
        <ele>621.8</ele>
        <time>2024-07-26T10:02:49Z</time>
      </trkpt>
      <trkpt lat="45.89668" lon="3.03158">
        <ele>621.2</ele>
        <time>2024-07-26T10:02:50Z</time>
      </trkpt>
      <trkpt lat="45.89667" lon="3.03157">
        <ele>621</ele>
        <time>2024-07-26T10:02:51Z</time>
      </trkpt>
      <trkpt lat="45.89666" lon="3.03155">
        <ele>622</ele>
        <time>2024-07-26T10:02:53Z</time>
      </trkpt>
      <trkpt lat="45.89665" lon="3.03154">
        <ele>621.2</ele>
        <time>2024-07-26T10:02:54Z</time>
      </trkpt>
      <trkpt lat="45.89665" lon="3.03152">
        <ele>621.7</ele>
        <time>2024-07-26T10:02:56Z</time>
      </trkpt>
      <trkpt lat="45.89664" lon="3.0315">
        <ele>622.3</ele>
        <time>2024-07-26T10:02:58Z</time>
      </trkpt>
      <trkpt lat="45.89664" lon="3.03147">
        <ele>622.2</ele>
        <time>2024-07-26T10:03:00Z</time>
      </trkpt>
      <trkpt lat="45.89664" lon="3.03146">
        <ele>622.1</ele>
        <time>2024-07-26T10:03:01Z</time>
      </trkpt>
      <trkpt lat="45.89664" lon="3.03145">
        <ele>621.8</ele>
        <time>2024-07-26T10:03:02Z</time>
      </trkpt>
      <trkpt lat="45.89664" lon="3.03143">
        <ele>621.7</ele>
        <time>2024-07-26T10:03:03Z</time>
      </trkpt>
      <trkpt lat="45.89664" lon="3.03142">
        <ele>621.5</ele>
        <time>2024-07-26T10:03:04Z</time>
      </trkpt>
      <trkpt lat="45.89664" lon="3.03141">
        <ele>621.1</ele>
        <time>2024-07-26T10:03:05Z</time>
      </trkpt>
      <trkpt lat="45.89665" lon="3.0314">
        <ele>620.8</ele>
        <time>2024-07-26T10:03:06Z</time>
      </trkpt>
      <trkpt lat="45.89666" lon="3.03138">
        <ele>620.1</ele>
        <time>2024-07-26T10:03:08Z</time>
      </trkpt>
      <trkpt lat="45.89666" lon="3.03136">
        <ele>618.8</ele>
        <time>2024-07-26T10:03:10Z</time>
      </trkpt>
      <trkpt lat="45.89666" lon="3.03134">
        <ele>617.7</ele>
        <time>2024-07-26T10:03:12Z</time>
      </trkpt>
      <trkpt lat="45.89667" lon="3.03133">
        <ele>617.4</ele>
        <time>2024-07-26T10:03:14Z</time>
      </trkpt>
      <trkpt lat="45.89668" lon="3.03132">
        <ele>616.8</ele>
        <time>2024-07-26T10:03:16Z</time>
      </trkpt>
      <trkpt lat="45.89669" lon="3.03131">
        <ele>615.5</ele>
        <time>2024-07-26T10:03:18Z</time>
      </trkpt>
      <trkpt lat="45.8967" lon="3.03131">
        <ele>615.5</ele>
        <time>2024-07-26T10:03:20Z</time>
      </trkpt>
      <trkpt lat="45.89671" lon="3.0313">
        <ele>614.2</ele>
        <time>2024-07-26T10:03:23Z</time>
      </trkpt>
      <trkpt lat="45.89672" lon="3.0313">
        <ele>615.1</ele>
        <time>2024-07-26T10:03:26Z</time>
      </trkpt>
      <trkpt lat="45.89673" lon="3.03131">
        <ele>615.2</ele>
        <time>2024-07-26T10:03:28Z</time>
      </trkpt>
      <trkpt lat="45.89674" lon="3.03132">
        <ele>616.7</ele>
        <time>2024-07-26T10:03:30Z</time>
      </trkpt>
      <trkpt lat="45.89675" lon="3.03133">
        <ele>616.4</ele>
        <time>2024-07-26T10:03:32Z</time>
      </trkpt>
      <trkpt lat="45.89676" lon="3.03133">
        <ele>617.5</ele>
        <time>2024-07-26T10:03:34Z</time>
      </trkpt>
      <trkpt lat="45.89677" lon="3.03133">
        <ele>618</ele>
        <time>2024-07-26T10:03:35Z</time>
      </trkpt>
      <trkpt lat="45.89678" lon="3.03134">
        <ele>618.4</ele>
        <time>2024-07-26T10:03:36Z</time>
      </trkpt>
      <trkpt lat="45.89679" lon="3.03135">
        <ele>619.2</ele>
        <time>2024-07-26T10:03:37Z</time>
      </trkpt>
      <trkpt lat="45.8968" lon="3.03136">
        <ele>619.1</ele>
        <time>2024-07-26T10:03:38Z</time>
      </trkpt>
      <trkpt lat="45.89682" lon="3.03137">
        <ele>618.4</ele>
        <time>2024-07-26T10:03:40Z</time>
      </trkpt>
      <trkpt lat="45.89683" lon="3.03137">
        <ele>617.8</ele>
        <time>2024-07-26T10:03:41Z</time>
      </trkpt>
      <trkpt lat="45.89684" lon="3.03137">
        <ele>618.7</ele>
        <time>2024-07-26T10:03:42Z</time>
      </trkpt>
      <trkpt lat="45.89685" lon="3.03139">
        <ele>619.6</ele>
        <time>2024-07-26T10:03:44Z</time>
      </trkpt>
      <trkpt lat="45.89687" lon="3.03139">
        <ele>618.9</ele>
        <time>2024-07-26T10:03:46Z</time>
      </trkpt>
      <trkpt lat="45.89688" lon="3.0314">
        <ele>618.4</ele>
        <time>2024-07-26T10:03:48Z</time>
      </trkpt>
      <trkpt lat="45.89689" lon="3.0314">
        <ele>617.7</ele>
        <time>2024-07-26T10:03:49Z</time>
      </trkpt>
      <trkpt lat="45.8969" lon="3.03141">
        <ele>618.1</ele>
        <time>2024-07-26T10:03:50Z</time>
      </trkpt>
      <trkpt lat="45.89691" lon="3.03141">
        <ele>617.4</ele>
        <time>2024-07-26T10:03:51Z</time>
      </trkpt>
      <trkpt lat="45.89692" lon="3.03142">
        <ele>617.3</ele>
        <time>2024-07-26T10:03:52Z</time>
      </trkpt>
      <trkpt lat="45.89693" lon="3.03143">
        <ele>617.3</ele>
        <time>2024-07-26T10:03:53Z</time>
      </trkpt>
      <trkpt lat="45.89694" lon="3.03144">
        <ele>617.3</ele>
        <time>2024-07-26T10:04:04Z</time>
      </trkpt>
      <trkpt lat="45.89695" lon="3.03144">
        <ele>617.5</ele>
        <time>2024-07-26T10:04:05Z</time>
      </trkpt>
      <trkpt lat="45.89696" lon="3.03145">
        <ele>617.9</ele>
        <time>2024-07-26T10:04:06Z</time>
      </trkpt>
      <trkpt lat="45.89697" lon="3.03145">
        <ele>617.5</ele>
        <time>2024-07-26T10:04:07Z</time>
      </trkpt>
      <trkpt lat="45.89698" lon="3.03145">
        <ele>617.7</ele>
        <time>2024-07-26T10:04:08Z</time>
      </trkpt>
      <trkpt lat="45.89699" lon="3.03146">
        <ele>617.9</ele>
        <time>2024-07-26T10:04:09Z</time>
      </trkpt>
      <trkpt lat="45.89699" lon="3.03146">
        <ele>618.7</ele>
        <time>2024-07-26T10:04:10Z</time>
      </trkpt>
      <trkpt lat="45.89701" lon="3.03147">
        <ele>619</ele>
        <time>2024-07-26T10:04:12Z</time>
      </trkpt>
      <trkpt lat="45.89702" lon="3.03148">
        <ele>619.7</ele>
        <time>2024-07-26T10:04:14Z</time>
      </trkpt>
      <trkpt lat="45.89704" lon="3.03149">
        <ele>620.6</ele>
        <time>2024-07-26T10:04:16Z</time>
      </trkpt>
      <trkpt lat="45.89705" lon="3.0315">
        <ele>621.4</ele>
        <time>2024-07-26T10:04:17Z</time>
      </trkpt>
      <trkpt lat="45.89706" lon="3.03151">
        <ele>620.9</ele>
        <time>2024-07-26T10:04:18Z</time>
      </trkpt>
      <trkpt lat="45.89707" lon="3.03152">
        <ele>622.2</ele>
        <time>2024-07-26T10:04:20Z</time>
      </trkpt>
      <trkpt lat="45.89708" lon="3.03153">
        <ele>621.2</ele>
        <time>2024-07-26T10:04:22Z</time>
      </trkpt>
      <trkpt lat="45.8971" lon="3.03154">
        <ele>620.7</ele>
        <time>2024-07-26T10:04:24Z</time>
      </trkpt>
      <trkpt lat="45.89711" lon="3.03155">
        <ele>621.1</ele>
        <time>2024-07-26T10:04:25Z</time>
      </trkpt>
      <trkpt lat="45.89712" lon="3.03155">
        <ele>620.5</ele>
        <time>2024-07-26T10:04:26Z</time>
      </trkpt>
      <trkpt lat="45.89713" lon="3.03156">
        <ele>620.6</ele>
        <time>2024-07-26T10:04:27Z</time>
      </trkpt>
      <trkpt lat="45.89714" lon="3.03156">
        <ele>620.3</ele>
        <time>2024-07-26T10:04:28Z</time>
      </trkpt>
      <trkpt lat="45.89715" lon="3.03156">
        <ele>621</ele>
        <time>2024-07-26T10:04:29Z</time>
      </trkpt>
      <trkpt lat="45.89716" lon="3.03157">
        <ele>620.8</ele>
        <time>2024-07-26T10:04:30Z</time>
      </trkpt>
      <trkpt lat="45.89717" lon="3.03157">
        <ele>621.2</ele>
        <time>2024-07-26T10:04:31Z</time>
      </trkpt>
      <trkpt lat="45.89718" lon="3.03157">
        <ele>622.1</ele>
        <time>2024-07-26T10:04:33Z</time>
      </trkpt>
      <trkpt lat="45.89719" lon="3.03158">
        <ele>620.2</ele>
        <time>2024-07-26T10:04:35Z</time>
      </trkpt>
      <trkpt lat="45.8972" lon="3.03159">
        <ele>619.5</ele>
        <time>2024-07-26T10:04:36Z</time>
      </trkpt>
      <trkpt lat="45.89721" lon="3.0316">
        <ele>618</ele>
        <time>2024-07-26T10:04:37Z</time>
      </trkpt>
      <trkpt lat="45.89722" lon="3.0316">
        <ele>616.5</ele>
        <time>2024-07-26T10:04:38Z</time>
      </trkpt>
      <trkpt lat="45.89723" lon="3.03161">
        <ele>616.3</ele>
        <time>2024-07-26T10:04:39Z</time>
      </trkpt>
      <trkpt lat="45.89724" lon="3.03161">
        <ele>613.8</ele>
        <time>2024-07-26T10:04:40Z</time>
      </trkpt>
      <trkpt lat="45.89725" lon="3.03162">
        <ele>613.5</ele>
        <time>2024-07-26T10:04:41Z</time>
      </trkpt>
      <trkpt lat="45.89726" lon="3.03162">
        <ele>613.6</ele>
        <time>2024-07-26T10:04:42Z</time>
      </trkpt>
      <trkpt lat="45.89727" lon="3.03163">
        <ele>614.1</ele>
        <time>2024-07-26T10:04:43Z</time>
      </trkpt>
      <trkpt lat="45.89727" lon="3.03164">
        <ele>614</ele>
        <time>2024-07-26T10:04:44Z</time>
      </trkpt>
      <trkpt lat="45.89728" lon="3.03165">
        <ele>613.5</ele>
        <time>2024-07-26T10:04:45Z</time>
      </trkpt>
      <trkpt lat="45.89729" lon="3.03165">
        <ele>612.6</ele>
        <time>2024-07-26T10:04:46Z</time>
      </trkpt>
      <trkpt lat="45.8973" lon="3.03166">
        <ele>612.6</ele>
        <time>2024-07-26T10:04:47Z</time>
      </trkpt>
      <trkpt lat="45.89731" lon="3.03167">
        <ele>611.9</ele>
        <time>2024-07-26T10:04:48Z</time>
      </trkpt>
      <trkpt lat="45.89732" lon="3.03167">
        <ele>611.7</ele>
        <time>2024-07-26T10:04:49Z</time>
      </trkpt>
      <trkpt lat="45.89733" lon="3.03168">
        <ele>610.3</ele>
        <time>2024-07-26T10:04:50Z</time>
      </trkpt>
      <trkpt lat="45.89734" lon="3.03169">
        <ele>612.9</ele>
        <time>2024-07-26T10:04:52Z</time>
      </trkpt>
      <trkpt lat="45.89736" lon="3.0317">
        <ele>613.3</ele>
        <time>2024-07-26T10:04:54Z</time>
      </trkpt>
      <trkpt lat="45.89736" lon="3.0317">
        <ele>612</ele>
        <time>2024-07-26T10:04:55Z</time>
      </trkpt>
      <trkpt lat="45.89737" lon="3.03171">
        <ele>611.3</ele>
        <time>2024-07-26T10:04:56Z</time>
      </trkpt>
      <trkpt lat="45.89738" lon="3.03171">
        <ele>611.4</ele>
        <time>2024-07-26T10:04:57Z</time>
      </trkpt>
      <trkpt lat="45.89739" lon="3.03172">
        <ele>612.5</ele>
        <time>2024-07-26T10:04:58Z</time>
      </trkpt>
      <trkpt lat="45.8974" lon="3.03173">
        <ele>612.2</ele>
        <time>2024-07-26T10:04:59Z</time>
      </trkpt>
      <trkpt lat="45.89741" lon="3.03174">
        <ele>611.7</ele>
        <time>2024-07-26T10:05:00Z</time>
      </trkpt>
      <trkpt lat="45.89742" lon="3.03175">
        <ele>611.6</ele>
        <time>2024-07-26T10:05:01Z</time>
      </trkpt>
      <trkpt lat="45.89743" lon="3.03175">
        <ele>611.9</ele>
        <time>2024-07-26T10:05:02Z</time>
      </trkpt>
      <trkpt lat="45.89744" lon="3.03176">
        <ele>611.4</ele>
        <time>2024-07-26T10:05:03Z</time>
      </trkpt>
      <trkpt lat="45.89744" lon="3.03177">
        <ele>611.3</ele>
        <time>2024-07-26T10:05:04Z</time>
      </trkpt>
      <trkpt lat="45.89745" lon="3.03178">
        <ele>611.3</ele>
        <time>2024-07-26T10:05:05Z</time>
      </trkpt>
      <trkpt lat="45.89746" lon="3.03179">
        <ele>611.3</ele>
        <time>2024-07-26T10:05:06Z</time>
      </trkpt>
      <trkpt lat="45.89747" lon="3.0318">
        <ele>612.7</ele>
        <time>2024-07-26T10:05:08Z</time>
      </trkpt>
      <trkpt lat="45.89748" lon="3.03181">
        <ele>612.1</ele>
        <time>2024-07-26T10:05:09Z</time>
      </trkpt>
      <trkpt lat="45.89749" lon="3.03182">
        <ele>612.4</ele>
        <time>2024-07-26T10:05:10Z</time>
      </trkpt>
      <trkpt lat="45.8975" lon="3.03182">
        <ele>611.3</ele>
        <time>2024-07-26T10:05:11Z</time>
      </trkpt>
      <trkpt lat="45.89751" lon="3.03183">
        <ele>611.3</ele>
        <time>2024-07-26T10:05:12Z</time>
      </trkpt>
      <trkpt lat="45.89751" lon="3.03184">
        <ele>611</ele>
        <time>2024-07-26T10:05:13Z</time>
      </trkpt>
      <trkpt lat="45.89752" lon="3.03185">
        <ele>610.5</ele>
        <time>2024-07-26T10:05:14Z</time>
      </trkpt>
      <trkpt lat="45.89753" lon="3.03185">
        <ele>610.4</ele>
        <time>2024-07-26T10:05:15Z</time>
      </trkpt>
      <trkpt lat="45.89754" lon="3.03186">
        <ele>609.6</ele>
        <time>2024-07-26T10:05:16Z</time>
      </trkpt>
      <trkpt lat="45.89755" lon="3.03186">
        <ele>608.7</ele>
        <time>2024-07-26T10:05:17Z</time>
      </trkpt>
      <trkpt lat="45.89757" lon="3.03188">
        <ele>608.5</ele>
        <time>2024-07-26T10:05:19Z</time>
      </trkpt>
      <trkpt lat="45.89758" lon="3.03188">
        <ele>608.6</ele>
        <time>2024-07-26T10:05:21Z</time>
      </trkpt>
      <trkpt lat="45.8976" lon="3.03189">
        <ele>608.6</ele>
        <time>2024-07-26T10:05:23Z</time>
      </trkpt>
      <trkpt lat="45.89761" lon="3.0319">
        <ele>609.2</ele>
        <time>2024-07-26T10:05:25Z</time>
      </trkpt>
      <trkpt lat="45.89762" lon="3.03191">
        <ele>609.3</ele>
        <time>2024-07-26T10:05:27Z</time>
      </trkpt>
      <trkpt lat="45.89763" lon="3.03192">
        <ele>608.1</ele>
        <time>2024-07-26T10:05:28Z</time>
      </trkpt>
      <trkpt lat="45.89764" lon="3.03193">
        <ele>607</ele>
        <time>2024-07-26T10:05:29Z</time>
      </trkpt>
      <trkpt lat="45.89766" lon="3.03193">
        <ele>605.7</ele>
        <time>2024-07-26T10:05:30Z</time>
      </trkpt>
      <trkpt lat="45.89767" lon="3.03194">
        <ele>605.8</ele>
        <time>2024-07-26T10:05:31Z</time>
      </trkpt>
      <trkpt lat="45.89768" lon="3.03194">
        <ele>605.2</ele>
        <time>2024-07-26T10:05:32Z</time>
      </trkpt>
      <trkpt lat="45.89769" lon="3.03195">
        <ele>604.5</ele>
        <time>2024-07-26T10:05:33Z</time>
      </trkpt>
      <trkpt lat="45.8977" lon="3.03196">
        <ele>604.1</ele>
        <time>2024-07-26T10:05:34Z</time>
      </trkpt>
      <trkpt lat="45.89771" lon="3.03196">
        <ele>604.1</ele>
        <time>2024-07-26T10:05:35Z</time>
      </trkpt>
      <trkpt lat="45.89772" lon="3.03197">
        <ele>603.2</ele>
        <time>2024-07-26T10:05:36Z</time>
      </trkpt>
      <trkpt lat="45.89773" lon="3.03198">
        <ele>602.4</ele>
        <time>2024-07-26T10:05:37Z</time>
      </trkpt>
      <trkpt lat="45.89774" lon="3.03198">
        <ele>602.3</ele>
        <time>2024-07-26T10:05:38Z</time>
      </trkpt>
      <trkpt lat="45.89775" lon="3.03199">
        <ele>601</ele>
        <time>2024-07-26T10:05:39Z</time>
      </trkpt>
      <trkpt lat="45.89776" lon="3.032">
        <ele>600.1</ele>
        <time>2024-07-26T10:05:40Z</time>
      </trkpt>
      <trkpt lat="45.89777" lon="3.032">
        <ele>599.6</ele>
        <time>2024-07-26T10:05:41Z</time>
      </trkpt>
      <trkpt lat="45.89778" lon="3.032">
        <ele>599.3</ele>
        <time>2024-07-26T10:05:42Z</time>
      </trkpt>
      <trkpt lat="45.89779" lon="3.03201">
        <ele>598.9</ele>
        <time>2024-07-26T10:05:43Z</time>
      </trkpt>
      <trkpt lat="45.8978" lon="3.03201">
        <ele>598.1</ele>
        <time>2024-07-26T10:05:44Z</time>
      </trkpt>
      <trkpt lat="45.89781" lon="3.03202">
        <ele>597.6</ele>
        <time>2024-07-26T10:05:45Z</time>
      </trkpt>
      <trkpt lat="45.89782" lon="3.03202">
        <ele>597.4</ele>
        <time>2024-07-26T10:05:46Z</time>
      </trkpt>
      <trkpt lat="45.89783" lon="3.03203">
        <ele>597</ele>
        <time>2024-07-26T10:05:47Z</time>
      </trkpt>
      <trkpt lat="45.89784" lon="3.03203">
        <ele>597.3</ele>
        <time>2024-07-26T10:05:48Z</time>
      </trkpt>
      <trkpt lat="45.89785" lon="3.03204">
        <ele>596.8</ele>
        <time>2024-07-26T10:05:49Z</time>
      </trkpt>
      <trkpt lat="45.89786" lon="3.03205">
        <ele>596.5</ele>
        <time>2024-07-26T10:05:50Z</time>
      </trkpt>
      <trkpt lat="45.89787" lon="3.03206">
        <ele>595.8</ele>
        <time>2024-07-26T10:05:51Z</time>
      </trkpt>
      <trkpt lat="45.89789" lon="3.03206">
        <ele>595.9</ele>
        <time>2024-07-26T10:05:52Z</time>
      </trkpt>
      <trkpt lat="45.8979" lon="3.03207">
        <ele>596.1</ele>
        <time>2024-07-26T10:05:53Z</time>
      </trkpt>
      <trkpt lat="45.89791" lon="3.03207">
        <ele>596.1</ele>
        <time>2024-07-26T10:05:54Z</time>
      </trkpt>
      <trkpt lat="45.89792" lon="3.03208">
        <ele>595.8</ele>
        <time>2024-07-26T10:05:55Z</time>
      </trkpt>
      <trkpt lat="45.89793" lon="3.03208">
        <ele>596</ele>
        <time>2024-07-26T10:05:56Z</time>
      </trkpt>
      <trkpt lat="45.89794" lon="3.03208">
        <ele>596</ele>
        <time>2024-07-26T10:05:57Z</time>
      </trkpt>
      <trkpt lat="45.89795" lon="3.03208">
        <ele>595.9</ele>
        <time>2024-07-26T10:05:58Z</time>
      </trkpt>
      <trkpt lat="45.89796" lon="3.03207">
        <ele>595.6</ele>
        <time>2024-07-26T10:05:59Z</time>
      </trkpt>
      <trkpt lat="45.89797" lon="3.03207">
        <ele>596.3</ele>
        <time>2024-07-26T10:06:02Z</time>
      </trkpt>
      <trkpt lat="45.89799" lon="3.03207">
        <ele>595.4</ele>
        <time>2024-07-26T10:06:04Z</time>
      </trkpt>
      <trkpt lat="45.898" lon="3.03207">
        <ele>595.4</ele>
        <time>2024-07-26T10:06:05Z</time>
      </trkpt>
      <trkpt lat="45.89801" lon="3.03207">
        <ele>595.3</ele>
        <time>2024-07-26T10:06:06Z</time>
      </trkpt>
      <trkpt lat="45.89802" lon="3.03207">
        <ele>594.9</ele>
        <time>2024-07-26T10:06:07Z</time>
      </trkpt>
      <trkpt lat="45.89803" lon="3.03206">
        <ele>594.3</ele>
        <time>2024-07-26T10:06:08Z</time>
      </trkpt>
      <trkpt lat="45.89804" lon="3.03206">
        <ele>593.9</ele>
        <time>2024-07-26T10:06:09Z</time>
      </trkpt>
      <trkpt lat="45.89806" lon="3.03205">
        <ele>593.1</ele>
        <time>2024-07-26T10:06:10Z</time>
      </trkpt>
      <trkpt lat="45.89807" lon="3.03204">
        <ele>592.9</ele>
        <time>2024-07-26T10:06:11Z</time>
      </trkpt>
      <trkpt lat="45.89808" lon="3.03204">
        <ele>592.7</ele>
        <time>2024-07-26T10:06:12Z</time>
      </trkpt>
      <trkpt lat="45.89809" lon="3.03203">
        <ele>592.4</ele>
        <time>2024-07-26T10:06:13Z</time>
      </trkpt>
      <trkpt lat="45.8981" lon="3.03203">
        <ele>592.6</ele>
        <time>2024-07-26T10:06:14Z</time>
      </trkpt>
      <trkpt lat="45.89811" lon="3.03203">
        <ele>592.7</ele>
        <time>2024-07-26T10:06:15Z</time>
      </trkpt>
      <trkpt lat="45.89812" lon="3.03203">
        <ele>592.5</ele>
        <time>2024-07-26T10:06:16Z</time>
      </trkpt>
      <trkpt lat="45.89813" lon="3.03203">
        <ele>592</ele>
        <time>2024-07-26T10:06:17Z</time>
      </trkpt>
      <trkpt lat="45.89814" lon="3.03202">
        <ele>591.2</ele>
        <time>2024-07-26T10:06:18Z</time>
      </trkpt>
      <trkpt lat="45.89815" lon="3.03202">
        <ele>590.9</ele>
        <time>2024-07-26T10:06:19Z</time>
      </trkpt>
      <trkpt lat="45.89816" lon="3.03201">
        <ele>590.6</ele>
        <time>2024-07-26T10:06:20Z</time>
      </trkpt>
      <trkpt lat="45.89817" lon="3.03201">
        <ele>590.4</ele>
        <time>2024-07-26T10:06:21Z</time>
      </trkpt>
      <trkpt lat="45.89818" lon="3.032">
        <ele>590.2</ele>
        <time>2024-07-26T10:06:22Z</time>
      </trkpt>
      <trkpt lat="45.89819" lon="3.03199">
        <ele>590.1</ele>
        <time>2024-07-26T10:06:23Z</time>
      </trkpt>
      <trkpt lat="45.8982" lon="3.03199">
        <ele>589.9</ele>
        <time>2024-07-26T10:06:24Z</time>
      </trkpt>
      <trkpt lat="45.89821" lon="3.03198">
        <ele>590</ele>
        <time>2024-07-26T10:06:25Z</time>
      </trkpt>
      <trkpt lat="45.89822" lon="3.03198">
        <ele>589.6</ele>
        <time>2024-07-26T10:06:26Z</time>
      </trkpt>
      <trkpt lat="45.89823" lon="3.03198">
        <ele>589.6</ele>
        <time>2024-07-26T10:06:27Z</time>
      </trkpt>
      <trkpt lat="45.89824" lon="3.03197">
        <ele>589.7</ele>
        <time>2024-07-26T10:06:28Z</time>
      </trkpt>
      <trkpt lat="45.89825" lon="3.03196">
        <ele>588.3</ele>
        <time>2024-07-26T10:06:29Z</time>
      </trkpt>
      <trkpt lat="45.89826" lon="3.03196">
        <ele>588.6</ele>
        <time>2024-07-26T10:06:30Z</time>
      </trkpt>
      <trkpt lat="45.89827" lon="3.03194">
        <ele>588.3</ele>
        <time>2024-07-26T10:06:31Z</time>
      </trkpt>
      <trkpt lat="45.89828" lon="3.03193">
        <ele>588.1</ele>
        <time>2024-07-26T10:06:32Z</time>
      </trkpt>
      <trkpt lat="45.89828" lon="3.03191">
        <ele>588.4</ele>
        <time>2024-07-26T10:06:33Z</time>
      </trkpt>
      <trkpt lat="45.89829" lon="3.0319">
        <ele>587.9</ele>
        <time>2024-07-26T10:06:34Z</time>
      </trkpt>
      <trkpt lat="45.8983" lon="3.0319">
        <ele>588.6</ele>
        <time>2024-07-26T10:06:35Z</time>
      </trkpt>
      <trkpt lat="45.89831" lon="3.03189">
        <ele>588.6</ele>
        <time>2024-07-26T10:06:36Z</time>
      </trkpt>
      <trkpt lat="45.89832" lon="3.03188">
        <ele>588.7</ele>
        <time>2024-07-26T10:06:37Z</time>
      </trkpt>
      <trkpt lat="45.89832" lon="3.03186">
        <ele>589</ele>
        <time>2024-07-26T10:06:38Z</time>
      </trkpt>
      <trkpt lat="45.89833" lon="3.03185">
        <ele>588.7</ele>
        <time>2024-07-26T10:06:39Z</time>
      </trkpt>
      <trkpt lat="45.89833" lon="3.03184">
        <ele>588.6</ele>
        <time>2024-07-26T10:06:40Z</time>
      </trkpt>
      <trkpt lat="45.89834" lon="3.03183">
        <ele>588.9</ele>
        <time>2024-07-26T10:06:41Z</time>
      </trkpt>
      <trkpt lat="45.89835" lon="3.03182">
        <ele>588.7</ele>
        <time>2024-07-26T10:06:42Z</time>
      </trkpt>
      <trkpt lat="45.89835" lon="3.03181">
        <ele>588.6</ele>
        <time>2024-07-26T10:06:43Z</time>
      </trkpt>
      <trkpt lat="45.89836" lon="3.0318">
        <ele>588.4</ele>
        <time>2024-07-26T10:06:44Z</time>
      </trkpt>
      <trkpt lat="45.89837" lon="3.03179">
        <ele>588.3</ele>
        <time>2024-07-26T10:06:45Z</time>
      </trkpt>
      <trkpt lat="45.89837" lon="3.03178">
        <ele>588.8</ele>
        <time>2024-07-26T10:06:46Z</time>
      </trkpt>
      <trkpt lat="45.89838" lon="3.03177">
        <ele>588.7</ele>
        <time>2024-07-26T10:06:47Z</time>
      </trkpt>
      <trkpt lat="45.89839" lon="3.03176">
        <ele>588.4</ele>
        <time>2024-07-26T10:06:48Z</time>
      </trkpt>
      <trkpt lat="45.8984" lon="3.03175">
        <ele>588.8</ele>
        <time>2024-07-26T10:06:49Z</time>
      </trkpt>
      <trkpt lat="45.89841" lon="3.03174">
        <ele>588</ele>
        <time>2024-07-26T10:06:50Z</time>
      </trkpt>
      <trkpt lat="45.89842" lon="3.03174">
        <ele>588</ele>
        <time>2024-07-26T10:06:51Z</time>
      </trkpt>
      <trkpt lat="45.89843" lon="3.03173">
        <ele>588.3</ele>
        <time>2024-07-26T10:06:52Z</time>
      </trkpt>
      <trkpt lat="45.89844" lon="3.03172">
        <ele>588.2</ele>
        <time>2024-07-26T10:06:53Z</time>
      </trkpt>
      <trkpt lat="45.89844" lon="3.03171">
        <ele>586.9</ele>
        <time>2024-07-26T10:06:54Z</time>
      </trkpt>
      <trkpt lat="45.89845" lon="3.0317">
        <ele>586.5</ele>
        <time>2024-07-26T10:06:55Z</time>
      </trkpt>
      <trkpt lat="45.89846" lon="3.0317">
        <ele>587</ele>
        <time>2024-07-26T10:06:56Z</time>
      </trkpt>
      <trkpt lat="45.89847" lon="3.03169">
        <ele>587</ele>
        <time>2024-07-26T10:06:57Z</time>
      </trkpt>
      <trkpt lat="45.89848" lon="3.03169">
        <ele>586.6</ele>
        <time>2024-07-26T10:06:58Z</time>
      </trkpt>
      <trkpt lat="45.89849" lon="3.03169">
        <ele>586.5</ele>
        <time>2024-07-26T10:07:01Z</time>
      </trkpt>
      <trkpt lat="45.8985" lon="3.03169">
        <ele>586.4</ele>
        <time>2024-07-26T10:07:03Z</time>
      </trkpt>
      <trkpt lat="45.89851" lon="3.0317">
        <ele>588.2</ele>
        <time>2024-07-26T10:07:05Z</time>
      </trkpt>
      <trkpt lat="45.89852" lon="3.03171">
        <ele>588.8</ele>
        <time>2024-07-26T10:07:07Z</time>
      </trkpt>
      <trkpt lat="45.89852" lon="3.03173">
        <ele>588.1</ele>
        <time>2024-07-26T10:07:11Z</time>
      </trkpt>
      <trkpt lat="45.89853" lon="3.03174">
        <ele>587.1</ele>
        <time>2024-07-26T10:07:12Z</time>
      </trkpt>
      <trkpt lat="45.89854" lon="3.03175">
        <ele>586.2</ele>
        <time>2024-07-26T10:07:13Z</time>
      </trkpt>
      <trkpt lat="45.89854" lon="3.03177">
        <ele>586</ele>
        <time>2024-07-26T10:07:14Z</time>
      </trkpt>
      <trkpt lat="45.89855" lon="3.03179">
        <ele>585.5</ele>
        <time>2024-07-26T10:07:16Z</time>
      </trkpt>
      <trkpt lat="45.89855" lon="3.03181">
        <ele>585.7</ele>
        <time>2024-07-26T10:07:17Z</time>
      </trkpt>
      <trkpt lat="45.89855" lon="3.03182">
        <ele>585.7</ele>
        <time>2024-07-26T10:07:18Z</time>
      </trkpt>
      <trkpt lat="45.89855" lon="3.03183">
        <ele>585.1</ele>
        <time>2024-07-26T10:07:19Z</time>
      </trkpt>
      <trkpt lat="45.89855" lon="3.03185">
        <ele>585.3</ele>
        <time>2024-07-26T10:07:20Z</time>
      </trkpt>
      <trkpt lat="45.89855" lon="3.03186">
        <ele>585.5</ele>
        <time>2024-07-26T10:07:21Z</time>
      </trkpt>
      <trkpt lat="45.89855" lon="3.03188">
        <ele>585.6</ele>
        <time>2024-07-26T10:07:22Z</time>
      </trkpt>
      <trkpt lat="45.89855" lon="3.03189">
        <ele>585.3</ele>
        <time>2024-07-26T10:07:23Z</time>
      </trkpt>
      <trkpt lat="45.89855" lon="3.0319">
        <ele>585.3</ele>
        <time>2024-07-26T10:07:24Z</time>
      </trkpt>
      <trkpt lat="45.89855" lon="3.03192">
        <ele>585.2</ele>
        <time>2024-07-26T10:07:25Z</time>
      </trkpt>
      <trkpt lat="45.89855" lon="3.03193">
        <ele>585.3</ele>
        <time>2024-07-26T10:07:26Z</time>
      </trkpt>
      <trkpt lat="45.89854" lon="3.03195">
        <ele>585.7</ele>
        <time>2024-07-26T10:07:27Z</time>
      </trkpt>
      <trkpt lat="45.89854" lon="3.03196">
        <ele>585.5</ele>
        <time>2024-07-26T10:07:28Z</time>
      </trkpt>
      <trkpt lat="45.89854" lon="3.03197">
        <ele>585.5</ele>
        <time>2024-07-26T10:07:29Z</time>
      </trkpt>
      <trkpt lat="45.89855" lon="3.03199">
        <ele>585.5</ele>
        <time>2024-07-26T10:07:30Z</time>
      </trkpt>
      <trkpt lat="45.89855" lon="3.032">
        <ele>585.3</ele>
        <time>2024-07-26T10:07:31Z</time>
      </trkpt>
      <trkpt lat="45.89855" lon="3.03202">
        <ele>585.5</ele>
        <time>2024-07-26T10:07:32Z</time>
      </trkpt>
      <trkpt lat="45.89854" lon="3.03204">
        <ele>585.8</ele>
        <time>2024-07-26T10:07:34Z</time>
      </trkpt>
      <trkpt lat="45.89854" lon="3.03206">
        <ele>586.1</ele>
        <time>2024-07-26T10:07:36Z</time>
      </trkpt>
      <trkpt lat="45.89854" lon="3.03208">
        <ele>585.9</ele>
        <time>2024-07-26T10:07:44Z</time>
      </trkpt>
      <trkpt lat="45.89855" lon="3.03208">
        <ele>585.6</ele>
        <time>2024-07-26T10:07:47Z</time>
      </trkpt>
      <trkpt lat="45.89855" lon="3.03209">
        <ele>585.1</ele>
        <time>2024-07-26T10:07:51Z</time>
      </trkpt>
      <trkpt lat="45.89854" lon="3.03211">
        <ele>584.4</ele>
        <time>2024-07-26T10:07:57Z</time>
      </trkpt>
      <trkpt lat="45.89854" lon="3.03212">
        <ele>585.1</ele>
        <time>2024-07-26T10:08:02Z</time>
      </trkpt>
      <trkpt lat="45.89853" lon="3.03213">
        <ele>584.6</ele>
        <time>2024-07-26T10:08:04Z</time>
      </trkpt>
      <trkpt lat="45.89853" lon="3.03215">
        <ele>586.3</ele>
        <time>2024-07-26T10:08:06Z</time>
      </trkpt>
      <trkpt lat="45.89853" lon="3.03217">
        <ele>586</ele>
        <time>2024-07-26T10:08:08Z</time>
      </trkpt>
      <trkpt lat="45.89852" lon="3.03219">
        <ele>584.8</ele>
        <time>2024-07-26T10:08:10Z</time>
      </trkpt>
      <trkpt lat="45.8985" lon="3.0322">
        <ele>583.7</ele>
        <time>2024-07-26T10:08:12Z</time>
      </trkpt>
      <trkpt lat="45.89849" lon="3.03221">
        <ele>583.8</ele>
        <time>2024-07-26T10:08:14Z</time>
      </trkpt>
      <trkpt lat="45.89847" lon="3.03221">
        <ele>584.2</ele>
        <time>2024-07-26T10:08:17Z</time>
      </trkpt>
      <trkpt lat="45.89846" lon="3.03221">
        <ele>583.6</ele>
        <time>2024-07-26T10:08:20Z</time>
      </trkpt>
      <trkpt lat="45.89845" lon="3.03221">
        <ele>583.9</ele>
        <time>2024-07-26T10:08:21Z</time>
      </trkpt>
      <trkpt lat="45.89844" lon="3.0322">
        <ele>583.8</ele>
        <time>2024-07-26T10:08:22Z</time>
      </trkpt>
      <trkpt lat="45.89843" lon="3.0322">
        <ele>584.9</ele>
        <time>2024-07-26T10:08:23Z</time>
      </trkpt>
      <trkpt lat="45.89841" lon="3.03221">
        <ele>584.5</ele>
        <time>2024-07-26T10:08:25Z</time>
      </trkpt>
      <trkpt lat="45.8984" lon="3.03221">
        <ele>585.1</ele>
        <time>2024-07-26T10:08:26Z</time>
      </trkpt>
      <trkpt lat="45.89839" lon="3.03221">
        <ele>586.3</ele>
        <time>2024-07-26T10:08:28Z</time>
      </trkpt>
      <trkpt lat="45.89838" lon="3.03222">
        <ele>586.6</ele>
        <time>2024-07-26T10:08:30Z</time>
      </trkpt>
      <trkpt lat="45.89838" lon="3.03223">
        <ele>586.9</ele>
        <time>2024-07-26T10:08:32Z</time>
      </trkpt>
      <trkpt lat="45.89837" lon="3.03224">
        <ele>586.9</ele>
        <time>2024-07-26T10:08:35Z</time>
      </trkpt>
      <trkpt lat="45.89835" lon="3.03224">
        <ele>587.3</ele>
        <time>2024-07-26T10:08:37Z</time>
      </trkpt>
      <trkpt lat="45.89836" lon="3.03226">
        <ele>586.8</ele>
        <time>2024-07-26T10:08:42Z</time>
      </trkpt>
      <trkpt lat="45.89835" lon="3.03227">
        <ele>586.4</ele>
        <time>2024-07-26T10:08:45Z</time>
      </trkpt>
      <trkpt lat="45.89834" lon="3.03229">
        <ele>586.6</ele>
        <time>2024-07-26T10:08:48Z</time>
      </trkpt>
      <trkpt lat="45.89834" lon="3.0323">
        <ele>587</ele>
        <time>2024-07-26T10:08:57Z</time>
      </trkpt>
      <trkpt lat="45.89835" lon="3.03229">
        <ele>587.5</ele>
        <time>2024-07-26T10:10:41Z</time>
      </trkpt>
      <trkpt lat="45.89836" lon="3.03229">
        <ele>587.4</ele>
        <time>2024-07-26T10:10:44Z</time>
      </trkpt>
      <trkpt lat="45.89836" lon="3.0323">
        <ele>586.5</ele>
        <time>2024-07-26T10:10:51Z</time>
      </trkpt>
      <trkpt lat="45.89835" lon="3.03231">
        <ele>585.9</ele>
        <time>2024-07-26T10:10:53Z</time>
      </trkpt>
      <trkpt lat="45.89834" lon="3.03231">
        <ele>585.9</ele>
        <time>2024-07-26T10:10:57Z</time>
      </trkpt>
      <trkpt lat="45.89833" lon="3.03231">
        <ele>585.6</ele>
        <time>2024-07-26T10:11:03Z</time>
      </trkpt>
      <trkpt lat="45.89832" lon="3.0323">
        <ele>585</ele>
        <time>2024-07-26T10:11:05Z</time>
      </trkpt>
      <trkpt lat="45.89831" lon="3.0323">
        <ele>585.1</ele>
        <time>2024-07-26T10:11:09Z</time>
      </trkpt>
      <trkpt lat="45.8983" lon="3.0323">
        <ele>585.4</ele>
        <time>2024-07-26T10:11:12Z</time>
      </trkpt>
      <trkpt lat="45.89829" lon="3.0323">
        <ele>585.8</ele>
        <time>2024-07-26T10:11:14Z</time>
      </trkpt>
      <trkpt lat="45.89828" lon="3.03229">
        <ele>586.2</ele>
        <time>2024-07-26T10:11:15Z</time>
      </trkpt>
      <trkpt lat="45.89827" lon="3.03229">
        <ele>585.8</ele>
        <time>2024-07-26T10:11:17Z</time>
      </trkpt>
      <trkpt lat="45.89825" lon="3.03229">
        <ele>585.8</ele>
        <time>2024-07-26T10:11:20Z</time>
      </trkpt>
      <trkpt lat="45.89825" lon="3.03231">
        <ele>586.8</ele>
        <time>2024-07-26T10:11:32Z</time>
      </trkpt>
      <trkpt lat="45.89825" lon="3.0323">
        <ele>585.6</ele>
        <time>2024-07-26T10:11:40Z</time>
      </trkpt>
      <trkpt lat="45.89824" lon="3.03231">
        <ele>583.5</ele>
        <time>2024-07-26T10:11:45Z</time>
      </trkpt>
      <trkpt lat="45.89823" lon="3.03232">
        <ele>583.6</ele>
        <time>2024-07-26T10:11:46Z</time>
      </trkpt>
      <trkpt lat="45.89822" lon="3.03232">
        <ele>581.4</ele>
        <time>2024-07-26T10:11:49Z</time>
      </trkpt>
      <trkpt lat="45.89821" lon="3.03232">
        <ele>582.7</ele>
        <time>2024-07-26T10:11:54Z</time>
      </trkpt>
      <trkpt lat="45.8982" lon="3.0323">
        <ele>581.8</ele>
        <time>2024-07-26T10:12:00Z</time>
      </trkpt>
      <trkpt lat="45.89819" lon="3.03232">
        <ele>582.4</ele>
        <time>2024-07-26T10:12:02Z</time>
      </trkpt>
      <trkpt lat="45.89818" lon="3.03233">
        <ele>582.1</ele>
        <time>2024-07-26T10:12:03Z</time>
      </trkpt>
      <trkpt lat="45.89817" lon="3.03234">
        <ele>581.1</ele>
        <time>2024-07-26T10:12:05Z</time>
      </trkpt>
      <trkpt lat="45.89816" lon="3.03236">
        <ele>581.1</ele>
        <time>2024-07-26T10:12:07Z</time>
      </trkpt>
      <trkpt lat="45.89816" lon="3.03237">
        <ele>581.1</ele>
        <time>2024-07-26T10:12:08Z</time>
      </trkpt>
      <trkpt lat="45.89815" lon="3.03238">
        <ele>581.7</ele>
        <time>2024-07-26T10:12:09Z</time>
      </trkpt>
      <trkpt lat="45.89815" lon="3.0324">
        <ele>583.6</ele>
        <time>2024-07-26T10:12:12Z</time>
      </trkpt>
      <trkpt lat="45.89814" lon="3.03241">
        <ele>583.1</ele>
        <time>2024-07-26T10:12:14Z</time>
      </trkpt>
      <trkpt lat="45.89813" lon="3.03242">
        <ele>583.5</ele>
        <time>2024-07-26T10:12:15Z</time>
      </trkpt>
      <trkpt lat="45.89813" lon="3.03244">
        <ele>578.8</ele>
        <time>2024-07-26T10:12:16Z</time>
      </trkpt>
      <trkpt lat="45.89813" lon="3.03245">
        <ele>578.8</ele>
        <time>2024-07-26T10:12:17Z</time>
      </trkpt>
      <trkpt lat="45.89813" lon="3.03247">
        <ele>580.7</ele>
        <time>2024-07-26T10:12:20Z</time>
      </trkpt>
      <trkpt lat="45.89812" lon="3.03248">
        <ele>579.5</ele>
        <time>2024-07-26T10:12:22Z</time>
      </trkpt>
      <trkpt lat="45.89811" lon="3.03249">
        <ele>579.5</ele>
        <time>2024-07-26T10:12:25Z</time>
      </trkpt>
      <trkpt lat="45.8981" lon="3.0325">
        <ele>581.2</ele>
        <time>2024-07-26T10:12:27Z</time>
      </trkpt>
      <trkpt lat="45.89809" lon="3.03251">
        <ele>582.5</ele>
        <time>2024-07-26T10:12:29Z</time>
      </trkpt>
      <trkpt lat="45.89807" lon="3.03252">
        <ele>583.1</ele>
        <time>2024-07-26T10:12:31Z</time>
      </trkpt>
      <trkpt lat="45.89806" lon="3.03253">
        <ele>583.6</ele>
        <time>2024-07-26T10:12:33Z</time>
      </trkpt>
      <trkpt lat="45.89806" lon="3.03254">
        <ele>584.2</ele>
        <time>2024-07-26T10:12:35Z</time>
      </trkpt>
      <trkpt lat="45.89805" lon="3.03257">
        <ele>582.7</ele>
        <time>2024-07-26T10:12:37Z</time>
      </trkpt>
      <trkpt lat="45.89806" lon="3.03257">
        <ele>584.7</ele>
        <time>2024-07-26T10:12:40Z</time>
      </trkpt>
      <trkpt lat="45.89805" lon="3.03258">
        <ele>586.8</ele>
        <time>2024-07-26T10:12:44Z</time>
      </trkpt>
      <trkpt lat="45.89804" lon="3.03259">
        <ele>586.8</ele>
        <time>2024-07-26T10:12:45Z</time>
      </trkpt>
      <trkpt lat="45.89804" lon="3.0326">
        <ele>586.1</ele>
        <time>2024-07-26T10:12:46Z</time>
      </trkpt>
      <trkpt lat="45.89803" lon="3.03262">
        <ele>586.3</ele>
        <time>2024-07-26T10:12:47Z</time>
      </trkpt>
      <trkpt lat="45.89802" lon="3.03264">
        <ele>585.9</ele>
        <time>2024-07-26T10:12:49Z</time>
      </trkpt>
      <trkpt lat="45.89803" lon="3.03266">
        <ele>584.7</ele>
        <time>2024-07-26T10:12:51Z</time>
      </trkpt>
      <trkpt lat="45.89803" lon="3.03267">
        <ele>584.7</ele>
        <time>2024-07-26T10:12:54Z</time>
      </trkpt>
      <trkpt lat="45.89803" lon="3.03268">
        <ele>584.2</ele>
        <time>2024-07-26T10:12:58Z</time>
      </trkpt>
      <trkpt lat="45.89803" lon="3.0327">
        <ele>582.5</ele>
        <time>2024-07-26T10:13:01Z</time>
      </trkpt>
      <trkpt lat="45.89803" lon="3.03272">
        <ele>582.3</ele>
        <time>2024-07-26T10:13:03Z</time>
      </trkpt>
      <trkpt lat="45.89802" lon="3.03273">
        <ele>585.4</ele>
        <time>2024-07-26T10:13:06Z</time>
      </trkpt>
      <trkpt lat="45.898" lon="3.03273">
        <ele>586.6</ele>
        <time>2024-07-26T10:13:08Z</time>
      </trkpt>
      <trkpt lat="45.89799" lon="3.03274">
        <ele>588.5</ele>
        <time>2024-07-26T10:13:10Z</time>
      </trkpt>
      <trkpt lat="45.89799" lon="3.03276">
        <ele>592.1</ele>
        <time>2024-07-26T10:13:12Z</time>
      </trkpt>
      <trkpt lat="45.898" lon="3.03276">
        <ele>595.9</ele>
        <time>2024-07-26T10:13:15Z</time>
      </trkpt>
      <trkpt lat="45.89801" lon="3.03276">
        <ele>594.9</ele>
        <time>2024-07-26T10:13:19Z</time>
      </trkpt>
      <trkpt lat="45.898" lon="3.03277">
        <ele>595.1</ele>
        <time>2024-07-26T10:13:22Z</time>
      </trkpt>
      <trkpt lat="45.898" lon="3.03278">
        <ele>596.2</ele>
        <time>2024-07-26T10:13:25Z</time>
      </trkpt>
      <trkpt lat="45.898" lon="3.03277">
        <ele>598.6</ele>
        <time>2024-07-26T10:13:30Z</time>
      </trkpt>
      <trkpt lat="45.89801" lon="3.03278">
        <ele>599.7</ele>
        <time>2024-07-26T10:13:34Z</time>
      </trkpt>
      <trkpt lat="45.89801" lon="3.03279">
        <ele>597.8</ele>
        <time>2024-07-26T10:13:35Z</time>
      </trkpt>
      <trkpt lat="45.89801" lon="3.03281">
        <ele>597.2</ele>
        <time>2024-07-26T10:13:36Z</time>
      </trkpt>
      <trkpt lat="45.898" lon="3.03283">
        <ele>596.3</ele>
        <time>2024-07-26T10:13:37Z</time>
      </trkpt>
      <trkpt lat="45.898" lon="3.03284">
        <ele>595.2</ele>
        <time>2024-07-26T10:13:38Z</time>
      </trkpt>
      <trkpt lat="45.89799" lon="3.03286">
        <ele>596</ele>
        <time>2024-07-26T10:13:39Z</time>
      </trkpt>
      <trkpt lat="45.89799" lon="3.03288">
        <ele>595.3</ele>
        <time>2024-07-26T10:13:41Z</time>
      </trkpt>
      <trkpt lat="45.89798" lon="3.03291">
        <ele>594.3</ele>
        <time>2024-07-26T10:13:43Z</time>
      </trkpt>
      <trkpt lat="45.89798" lon="3.03292">
        <ele>594.2</ele>
        <time>2024-07-26T10:13:44Z</time>
      </trkpt>
      <trkpt lat="45.89797" lon="3.03293">
        <ele>595.4</ele>
        <time>2024-07-26T10:13:45Z</time>
      </trkpt>
      <trkpt lat="45.89796" lon="3.03295">
        <ele>595</ele>
        <time>2024-07-26T10:13:46Z</time>
      </trkpt>
      <trkpt lat="45.89795" lon="3.03297">
        <ele>595.5</ele>
        <time>2024-07-26T10:13:47Z</time>
      </trkpt>
      <trkpt lat="45.89795" lon="3.03299">
        <ele>595.8</ele>
        <time>2024-07-26T10:13:48Z</time>
      </trkpt>
      <trkpt lat="45.89795" lon="3.03302">
        <ele>595.1</ele>
        <time>2024-07-26T10:13:50Z</time>
      </trkpt>
      <trkpt lat="45.89794" lon="3.03303">
        <ele>595.1</ele>
        <time>2024-07-26T10:13:51Z</time>
      </trkpt>
      <trkpt lat="45.89794" lon="3.03305">
        <ele>593.7</ele>
        <time>2024-07-26T10:13:52Z</time>
      </trkpt>
      <trkpt lat="45.89793" lon="3.03306">
        <ele>593.4</ele>
        <time>2024-07-26T10:13:53Z</time>
      </trkpt>
      <trkpt lat="45.89792" lon="3.03308">
        <ele>592.7</ele>
        <time>2024-07-26T10:13:55Z</time>
      </trkpt>
      <trkpt lat="45.89791" lon="3.03309">
        <ele>591.4</ele>
        <time>2024-07-26T10:13:57Z</time>
      </trkpt>
      <trkpt lat="45.89791" lon="3.03311">
        <ele>591</ele>
        <time>2024-07-26T10:13:58Z</time>
      </trkpt>
      <trkpt lat="45.89791" lon="3.03312">
        <ele>590.9</ele>
        <time>2024-07-26T10:13:59Z</time>
      </trkpt>
      <trkpt lat="45.89791" lon="3.03314">
        <ele>590.8</ele>
        <time>2024-07-26T10:14:00Z</time>
      </trkpt>
      <trkpt lat="45.89791" lon="3.03315">
        <ele>590.2</ele>
        <time>2024-07-26T10:14:01Z</time>
      </trkpt>
      <trkpt lat="45.89791" lon="3.03317">
        <ele>588.6</ele>
        <time>2024-07-26T10:14:02Z</time>
      </trkpt>
      <trkpt lat="45.8979" lon="3.03318">
        <ele>588</ele>
        <time>2024-07-26T10:14:03Z</time>
      </trkpt>
      <trkpt lat="45.8979" lon="3.03319">
        <ele>587.6</ele>
        <time>2024-07-26T10:14:04Z</time>
      </trkpt>
      <trkpt lat="45.89789" lon="3.03321">
        <ele>586.5</ele>
        <time>2024-07-26T10:14:05Z</time>
      </trkpt>
      <trkpt lat="45.89789" lon="3.03322">
        <ele>586</ele>
        <time>2024-07-26T10:14:06Z</time>
      </trkpt>
      <trkpt lat="45.89788" lon="3.03324">
        <ele>585.8</ele>
        <time>2024-07-26T10:14:08Z</time>
      </trkpt>
      <trkpt lat="45.89787" lon="3.03326">
        <ele>586.1</ele>
        <time>2024-07-26T10:14:09Z</time>
      </trkpt>
      <trkpt lat="45.89788" lon="3.03328">
        <ele>584.2</ele>
        <time>2024-07-26T10:14:10Z</time>
      </trkpt>
      <trkpt lat="45.89788" lon="3.0333">
        <ele>583.6</ele>
        <time>2024-07-26T10:14:11Z</time>
      </trkpt>
      <trkpt lat="45.89788" lon="3.03332">
        <ele>582.9</ele>
        <time>2024-07-26T10:14:12Z</time>
      </trkpt>
      <trkpt lat="45.89789" lon="3.03334">
        <ele>584.1</ele>
        <time>2024-07-26T10:14:13Z</time>
      </trkpt>
      <trkpt lat="45.89788" lon="3.03335">
        <ele>584.5</ele>
        <time>2024-07-26T10:14:14Z</time>
      </trkpt>
      <trkpt lat="45.89787" lon="3.03337">
        <ele>587.1</ele>
        <time>2024-07-26T10:14:16Z</time>
      </trkpt>
      <trkpt lat="45.89786" lon="3.03338">
        <ele>586.7</ele>
        <time>2024-07-26T10:14:18Z</time>
      </trkpt>
      <trkpt lat="45.89785" lon="3.0334">
        <ele>590.8</ele>
        <time>2024-07-26T10:14:21Z</time>
      </trkpt>
      <trkpt lat="45.89785" lon="3.03341">
        <ele>588.3</ele>
        <time>2024-07-26T10:14:22Z</time>
      </trkpt>
      <trkpt lat="45.89785" lon="3.03343">
        <ele>589.2</ele>
        <time>2024-07-26T10:14:23Z</time>
      </trkpt>
      <trkpt lat="45.89785" lon="3.03346">
        <ele>590.2</ele>
        <time>2024-07-26T10:14:25Z</time>
      </trkpt>
      <trkpt lat="45.89786" lon="3.03347">
        <ele>590</ele>
        <time>2024-07-26T10:14:26Z</time>
      </trkpt>
      <trkpt lat="45.89787" lon="3.0335">
        <ele>586.8</ele>
        <time>2024-07-26T10:14:28Z</time>
      </trkpt>
      <trkpt lat="45.89787" lon="3.03352">
        <ele>587.7</ele>
        <time>2024-07-26T10:14:29Z</time>
      </trkpt>
      <trkpt lat="45.89787" lon="3.03353">
        <ele>587.1</ele>
        <time>2024-07-26T10:14:30Z</time>
      </trkpt>
      <trkpt lat="45.89786" lon="3.03354">
        <ele>584.6</ele>
        <time>2024-07-26T10:14:31Z</time>
      </trkpt>
      <trkpt lat="45.89785" lon="3.03356">
        <ele>584.5</ele>
        <time>2024-07-26T10:14:32Z</time>
      </trkpt>
      <trkpt lat="45.89784" lon="3.03357">
        <ele>584.9</ele>
        <time>2024-07-26T10:14:33Z</time>
      </trkpt>
      <trkpt lat="45.89783" lon="3.03358">
        <ele>587</ele>
        <time>2024-07-26T10:14:34Z</time>
      </trkpt>
      <trkpt lat="45.89781" lon="3.03359">
        <ele>587.8</ele>
        <time>2024-07-26T10:14:36Z</time>
      </trkpt>
      <trkpt lat="45.8978" lon="3.03359">
        <ele>588</ele>
        <time>2024-07-26T10:14:37Z</time>
      </trkpt>
      <trkpt lat="45.89779" lon="3.0336">
        <ele>588.6</ele>
        <time>2024-07-26T10:14:39Z</time>
      </trkpt>
      <trkpt lat="45.89779" lon="3.03363">
        <ele>589.7</ele>
        <time>2024-07-26T10:14:41Z</time>
      </trkpt>
      <trkpt lat="45.8978" lon="3.03364">
        <ele>590.3</ele>
        <time>2024-07-26T10:14:42Z</time>
      </trkpt>
      <trkpt lat="45.89779" lon="3.03366">
        <ele>588.9</ele>
        <time>2024-07-26T10:14:44Z</time>
      </trkpt>
      <trkpt lat="45.89779" lon="3.03369">
        <ele>587.5</ele>
        <time>2024-07-26T10:14:46Z</time>
      </trkpt>
      <trkpt lat="45.8978" lon="3.03371">
        <ele>587.9</ele>
        <time>2024-07-26T10:14:47Z</time>
      </trkpt>
      <trkpt lat="45.8978" lon="3.03372">
        <ele>587.7</ele>
        <time>2024-07-26T10:14:48Z</time>
      </trkpt>
      <trkpt lat="45.89781" lon="3.03373">
        <ele>586.6</ele>
        <time>2024-07-26T10:14:49Z</time>
      </trkpt>
      <trkpt lat="45.89782" lon="3.03374">
        <ele>588.7</ele>
        <time>2024-07-26T10:14:50Z</time>
      </trkpt>
      <trkpt lat="45.89784" lon="3.03374">
        <ele>590.1</ele>
        <time>2024-07-26T10:14:51Z</time>
      </trkpt>
      <trkpt lat="45.89786" lon="3.03374">
        <ele>592.8</ele>
        <time>2024-07-26T10:14:52Z</time>
      </trkpt>
      <trkpt lat="45.89787" lon="3.03374">
        <ele>593</ele>
        <time>2024-07-26T10:14:53Z</time>
      </trkpt>
      <trkpt lat="45.89788" lon="3.03374">
        <ele>593.6</ele>
        <time>2024-07-26T10:14:54Z</time>
      </trkpt>
      <trkpt lat="45.89789" lon="3.03376">
        <ele>596.1</ele>
        <time>2024-07-26T10:14:56Z</time>
      </trkpt>
      <trkpt lat="45.89789" lon="3.03378">
        <ele>597</ele>
        <time>2024-07-26T10:14:58Z</time>
      </trkpt>
      <trkpt lat="45.89789" lon="3.03379">
        <ele>596.7</ele>
        <time>2024-07-26T10:14:59Z</time>
      </trkpt>
      <trkpt lat="45.89788" lon="3.03383">
        <ele>595.5</ele>
        <time>2024-07-26T10:15:01Z</time>
      </trkpt>
      <trkpt lat="45.89787" lon="3.03385">
        <ele>597.2</ele>
        <time>2024-07-26T10:15:02Z</time>
      </trkpt>
      <trkpt lat="45.89786" lon="3.03387">
        <ele>596.1</ele>
        <time>2024-07-26T10:15:03Z</time>
      </trkpt>
      <trkpt lat="45.89786" lon="3.03389">
        <ele>594.2</ele>
        <time>2024-07-26T10:15:04Z</time>
      </trkpt>
      <trkpt lat="45.89785" lon="3.03391">
        <ele>594.3</ele>
        <time>2024-07-26T10:15:05Z</time>
      </trkpt>
      <trkpt lat="45.89785" lon="3.03392">
        <ele>594.7</ele>
        <time>2024-07-26T10:15:06Z</time>
      </trkpt>
      <trkpt lat="45.89785" lon="3.03394">
        <ele>594.2</ele>
        <time>2024-07-26T10:15:07Z</time>
      </trkpt>
      <trkpt lat="45.89785" lon="3.03396">
        <ele>594.1</ele>
        <time>2024-07-26T10:15:08Z</time>
      </trkpt>
      <trkpt lat="45.89786" lon="3.03397">
        <ele>591.6</ele>
        <time>2024-07-26T10:15:09Z</time>
      </trkpt>
      <trkpt lat="45.89786" lon="3.03399">
        <ele>591.2</ele>
        <time>2024-07-26T10:15:10Z</time>
      </trkpt>
      <trkpt lat="45.89787" lon="3.03401">
        <ele>589.9</ele>
        <time>2024-07-26T10:15:11Z</time>
      </trkpt>
      <trkpt lat="45.89787" lon="3.03402">
        <ele>589.6</ele>
        <time>2024-07-26T10:15:12Z</time>
      </trkpt>
      <trkpt lat="45.89787" lon="3.03404">
        <ele>589.3</ele>
        <time>2024-07-26T10:15:13Z</time>
      </trkpt>
      <trkpt lat="45.89788" lon="3.03405">
        <ele>590.7</ele>
        <time>2024-07-26T10:15:15Z</time>
      </trkpt>
      <trkpt lat="45.89788" lon="3.03407">
        <ele>590.2</ele>
        <time>2024-07-26T10:15:17Z</time>
      </trkpt>
      <trkpt lat="45.89787" lon="3.03409">
        <ele>590.4</ele>
        <time>2024-07-26T10:15:19Z</time>
      </trkpt>
      <trkpt lat="45.89787" lon="3.0341">
        <ele>588.7</ele>
        <time>2024-07-26T10:15:20Z</time>
      </trkpt>
      <trkpt lat="45.89787" lon="3.03412">
        <ele>588.6</ele>
        <time>2024-07-26T10:15:21Z</time>
      </trkpt>
      <trkpt lat="45.89786" lon="3.03413">
        <ele>588</ele>
        <time>2024-07-26T10:15:22Z</time>
      </trkpt>
      <trkpt lat="45.89786" lon="3.03415">
        <ele>588.6</ele>
        <time>2024-07-26T10:15:23Z</time>
      </trkpt>
      <trkpt lat="45.89786" lon="3.03417">
        <ele>588.6</ele>
        <time>2024-07-26T10:15:25Z</time>
      </trkpt>
      <trkpt lat="45.89786" lon="3.0342">
        <ele>588.8</ele>
        <time>2024-07-26T10:15:27Z</time>
      </trkpt>
      <trkpt lat="45.89787" lon="3.03421">
        <ele>589.9</ele>
        <time>2024-07-26T10:15:29Z</time>
      </trkpt>
      <trkpt lat="45.89789" lon="3.03423">
        <ele>589.2</ele>
        <time>2024-07-26T10:15:31Z</time>
      </trkpt>
      <trkpt lat="45.89789" lon="3.03424">
        <ele>589.9</ele>
        <time>2024-07-26T10:15:32Z</time>
      </trkpt>
      <trkpt lat="45.8979" lon="3.03425">
        <ele>591.1</ele>
        <time>2024-07-26T10:15:34Z</time>
      </trkpt>
      <trkpt lat="45.89791" lon="3.03427">
        <ele>592.7</ele>
        <time>2024-07-26T10:15:36Z</time>
      </trkpt>
      <trkpt lat="45.89793" lon="3.03429">
        <ele>591.7</ele>
        <time>2024-07-26T10:15:38Z</time>
      </trkpt>
      <trkpt lat="45.89794" lon="3.0343">
        <ele>591.3</ele>
        <time>2024-07-26T10:15:39Z</time>
      </trkpt>
      <trkpt lat="45.89794" lon="3.03431">
        <ele>590.5</ele>
        <time>2024-07-26T10:15:40Z</time>
      </trkpt>
      <trkpt lat="45.89796" lon="3.03432">
        <ele>590.7</ele>
        <time>2024-07-26T10:15:41Z</time>
      </trkpt>
      <trkpt lat="45.89797" lon="3.03433">
        <ele>590.7</ele>
        <time>2024-07-26T10:15:42Z</time>
      </trkpt>
      <trkpt lat="45.89797" lon="3.03435">
        <ele>592.3</ele>
        <time>2024-07-26T10:15:44Z</time>
      </trkpt>
      <trkpt lat="45.89797" lon="3.03437">
        <ele>592.6</ele>
        <time>2024-07-26T10:15:45Z</time>
      </trkpt>
      <trkpt lat="45.89796" lon="3.03438">
        <ele>593.2</ele>
        <time>2024-07-26T10:15:46Z</time>
      </trkpt>
      <trkpt lat="45.89796" lon="3.0344">
        <ele>591.2</ele>
        <time>2024-07-26T10:15:47Z</time>
      </trkpt>
      <trkpt lat="45.89796" lon="3.03442">
        <ele>590.5</ele>
        <time>2024-07-26T10:15:48Z</time>
      </trkpt>
      <trkpt lat="45.89796" lon="3.03443">
        <ele>590.5</ele>
        <time>2024-07-26T10:15:49Z</time>
      </trkpt>
      <trkpt lat="45.89795" lon="3.03445">
        <ele>589.6</ele>
        <time>2024-07-26T10:15:50Z</time>
      </trkpt>
      <trkpt lat="45.89795" lon="3.03446">
        <ele>592.1</ele>
        <time>2024-07-26T10:15:52Z</time>
      </trkpt>
      <trkpt lat="45.89794" lon="3.03447">
        <ele>592.9</ele>
        <time>2024-07-26T10:15:54Z</time>
      </trkpt>
      <trkpt lat="45.89794" lon="3.03446">
        <ele>592.5</ele>
        <time>2024-07-26T10:15:57Z</time>
      </trkpt>
      <trkpt lat="45.89795" lon="3.03446">
        <ele>594.7</ele>
        <time>2024-07-26T10:16:02Z</time>
      </trkpt>
      <trkpt lat="45.89794" lon="3.03447">
        <ele>595.2</ele>
        <time>2024-07-26T10:16:05Z</time>
      </trkpt>
      <trkpt lat="45.89795" lon="3.03448">
        <ele>595.8</ele>
        <time>2024-07-26T10:16:08Z</time>
      </trkpt>
      <trkpt lat="45.89794" lon="3.03449">
        <ele>595.3</ele>
        <time>2024-07-26T10:16:10Z</time>
      </trkpt>
      <trkpt lat="45.89793" lon="3.0345">
        <ele>592.5</ele>
        <time>2024-07-26T10:16:11Z</time>
      </trkpt>
      <trkpt lat="45.89792" lon="3.03451">
        <ele>594.4</ele>
        <time>2024-07-26T10:16:12Z</time>
      </trkpt>
      <trkpt lat="45.89791" lon="3.0345">
        <ele>595.4</ele>
        <time>2024-07-26T10:16:14Z</time>
      </trkpt>
      <trkpt lat="45.89792" lon="3.0345">
        <ele>593.7</ele>
        <time>2024-07-26T10:16:22Z</time>
      </trkpt>
      <trkpt lat="45.89793" lon="3.03451">
        <ele>594.9</ele>
        <time>2024-07-26T10:16:25Z</time>
      </trkpt>
      <trkpt lat="45.89793" lon="3.03453">
        <ele>595.3</ele>
        <time>2024-07-26T10:16:27Z</time>
      </trkpt>
      <trkpt lat="45.89794" lon="3.03455">
        <ele>593.8</ele>
        <time>2024-07-26T10:16:29Z</time>
      </trkpt>
      <trkpt lat="45.89795" lon="3.03457">
        <ele>591.8</ele>
        <time>2024-07-26T10:16:31Z</time>
      </trkpt>
      <trkpt lat="45.89795" lon="3.03458">
        <ele>591.8</ele>
        <time>2024-07-26T10:16:32Z</time>
      </trkpt>
      <trkpt lat="45.89795" lon="3.03459">
        <ele>591.5</ele>
        <time>2024-07-26T10:16:34Z</time>
      </trkpt>
      <trkpt lat="45.89794" lon="3.0346">
        <ele>590.8</ele>
        <time>2024-07-26T10:16:35Z</time>
      </trkpt>
      <trkpt lat="45.89792" lon="3.03461">
        <ele>592.4</ele>
        <time>2024-07-26T10:16:37Z</time>
      </trkpt>
      <trkpt lat="45.89792" lon="3.03463">
        <ele>591.6</ele>
        <time>2024-07-26T10:16:39Z</time>
      </trkpt>
      <trkpt lat="45.89792" lon="3.03465">
        <ele>591.6</ele>
        <time>2024-07-26T10:16:41Z</time>
      </trkpt>
      <trkpt lat="45.89793" lon="3.03467">
        <ele>592</ele>
        <time>2024-07-26T10:16:42Z</time>
      </trkpt>
      <trkpt lat="45.89794" lon="3.03468">
        <ele>591.2</ele>
        <time>2024-07-26T10:16:43Z</time>
      </trkpt>
      <trkpt lat="45.89794" lon="3.0347">
        <ele>592.1</ele>
        <time>2024-07-26T10:16:45Z</time>
      </trkpt>
      <trkpt lat="45.89794" lon="3.03472">
        <ele>590.2</ele>
        <time>2024-07-26T10:16:46Z</time>
      </trkpt>
      <trkpt lat="45.89794" lon="3.03473">
        <ele>591.2</ele>
        <time>2024-07-26T10:16:47Z</time>
      </trkpt>
      <trkpt lat="45.89795" lon="3.03476">
        <ele>587.8</ele>
        <time>2024-07-26T10:16:49Z</time>
      </trkpt>
      <trkpt lat="45.89795" lon="3.03478">
        <ele>587.4</ele>
        <time>2024-07-26T10:16:50Z</time>
      </trkpt>
      <trkpt lat="45.89795" lon="3.0348">
        <ele>587.2</ele>
        <time>2024-07-26T10:16:51Z</time>
      </trkpt>
      <trkpt lat="45.89797" lon="3.03482">
        <ele>588.7</ele>
        <time>2024-07-26T10:16:53Z</time>
      </trkpt>
      <trkpt lat="45.89798" lon="3.03482">
        <ele>588.8</ele>
        <time>2024-07-26T10:16:54Z</time>
      </trkpt>
      <trkpt lat="45.89799" lon="3.03482">
        <ele>589.1</ele>
        <time>2024-07-26T10:16:55Z</time>
      </trkpt>
      <trkpt lat="45.898" lon="3.03482">
        <ele>589.1</ele>
        <time>2024-07-26T10:16:56Z</time>
      </trkpt>
      <trkpt lat="45.89801" lon="3.03483">
        <ele>586.4</ele>
        <time>2024-07-26T10:16:58Z</time>
      </trkpt>
      <trkpt lat="45.89802" lon="3.03484">
        <ele>586</ele>
        <time>2024-07-26T10:17:00Z</time>
      </trkpt>
      <trkpt lat="45.898" lon="3.03485">
        <ele>587.3</ele>
        <time>2024-07-26T10:17:02Z</time>
      </trkpt>
      <trkpt lat="45.89799" lon="3.03486">
        <ele>586.9</ele>
        <time>2024-07-26T10:17:03Z</time>
      </trkpt>
      <trkpt lat="45.89798" lon="3.03488">
        <ele>588.1</ele>
        <time>2024-07-26T10:17:05Z</time>
      </trkpt>
      <trkpt lat="45.89799" lon="3.03489">
        <ele>587.5</ele>
        <time>2024-07-26T10:17:06Z</time>
      </trkpt>
      <trkpt lat="45.898" lon="3.03491">
        <ele>587.4</ele>
        <time>2024-07-26T10:17:07Z</time>
      </trkpt>
      <trkpt lat="45.898" lon="3.03492">
        <ele>586.7</ele>
        <time>2024-07-26T10:17:08Z</time>
      </trkpt>
      <trkpt lat="45.89801" lon="3.03494">
        <ele>588.9</ele>
        <time>2024-07-26T10:17:10Z</time>
      </trkpt>
      <trkpt lat="45.89801" lon="3.03496">
        <ele>589.7</ele>
        <time>2024-07-26T10:17:13Z</time>
      </trkpt>
      <trkpt lat="45.89801" lon="3.03498">
        <ele>588.1</ele>
        <time>2024-07-26T10:17:15Z</time>
      </trkpt>
      <trkpt lat="45.89801" lon="3.035">
        <ele>587.3</ele>
        <time>2024-07-26T10:17:17Z</time>
      </trkpt>
      <trkpt lat="45.89801" lon="3.03501">
        <ele>587.7</ele>
        <time>2024-07-26T10:17:18Z</time>
      </trkpt>
      <trkpt lat="45.89802" lon="3.03503">
        <ele>587.4</ele>
        <time>2024-07-26T10:17:19Z</time>
      </trkpt>
      <trkpt lat="45.89802" lon="3.03504">
        <ele>587</ele>
        <time>2024-07-26T10:17:20Z</time>
      </trkpt>
      <trkpt lat="45.89802" lon="3.03506">
        <ele>587.3</ele>
        <time>2024-07-26T10:17:21Z</time>
      </trkpt>
      <trkpt lat="45.89802" lon="3.03508">
        <ele>585.9</ele>
        <time>2024-07-26T10:17:22Z</time>
      </trkpt>
      <trkpt lat="45.89803" lon="3.03509">
        <ele>586.4</ele>
        <time>2024-07-26T10:17:24Z</time>
      </trkpt>
      <trkpt lat="45.89804" lon="3.03511">
        <ele>587.7</ele>
        <time>2024-07-26T10:17:27Z</time>
      </trkpt>
      <trkpt lat="45.89804" lon="3.03512">
        <ele>582.5</ele>
        <time>2024-07-26T10:17:32Z</time>
      </trkpt>
      <trkpt lat="45.89805" lon="3.03514">
        <ele>582.7</ele>
        <time>2024-07-26T10:17:34Z</time>
      </trkpt>
      <trkpt lat="45.89804" lon="3.03516">
        <ele>584.1</ele>
        <time>2024-07-26T10:17:44Z</time>
      </trkpt>
      <trkpt lat="45.89804" lon="3.03518">
        <ele>584.6</ele>
        <time>2024-07-26T10:17:47Z</time>
      </trkpt>
      <trkpt lat="45.89805" lon="3.03519">
        <ele>582.6</ele>
        <time>2024-07-26T10:17:48Z</time>
      </trkpt>
      <trkpt lat="45.89805" lon="3.0352">
        <ele>582.6</ele>
        <time>2024-07-26T10:17:49Z</time>
      </trkpt>
      <trkpt lat="45.89806" lon="3.03523">
        <ele>583.8</ele>
        <time>2024-07-26T10:17:51Z</time>
      </trkpt>
      <trkpt lat="45.89806" lon="3.03524">
        <ele>585.7</ele>
        <time>2024-07-26T10:17:53Z</time>
      </trkpt>
      <trkpt lat="45.89806" lon="3.03526">
        <ele>586.3</ele>
        <time>2024-07-26T10:17:56Z</time>
      </trkpt>
      <trkpt lat="45.89806" lon="3.03528">
        <ele>583.7</ele>
        <time>2024-07-26T10:17:58Z</time>
      </trkpt>
      <trkpt lat="45.89808" lon="3.03529">
        <ele>583.7</ele>
        <time>2024-07-26T10:17:59Z</time>
      </trkpt>
      <trkpt lat="45.89809" lon="3.0353">
        <ele>583.7</ele>
        <time>2024-07-26T10:18:01Z</time>
      </trkpt>
      <trkpt lat="45.89809" lon="3.03528">
        <ele>585.8</ele>
        <time>2024-07-26T10:18:10Z</time>
      </trkpt>
      <trkpt lat="45.89809" lon="3.03528">
        <ele>583.7</ele>
        <time>2024-07-26T10:18:22Z</time>
      </trkpt>
      <trkpt lat="45.89811" lon="3.03527">
        <ele>583.7</ele>
        <time>2024-07-26T10:18:23Z</time>
      </trkpt>
      <trkpt lat="45.89813" lon="3.03527">
        <ele>579.5</ele>
        <time>2024-07-26T10:18:25Z</time>
      </trkpt>
      <trkpt lat="45.89812" lon="3.03526">
        <ele>579.1</ele>
        <time>2024-07-26T10:18:27Z</time>
      </trkpt>
      <trkpt lat="45.89813" lon="3.03525">
        <ele>581.5</ele>
        <time>2024-07-26T10:18:28Z</time>
      </trkpt>
      <trkpt lat="45.89813" lon="3.03524">
        <ele>581.5</ele>
        <time>2024-07-26T10:18:31Z</time>
      </trkpt>
      <trkpt lat="45.89813" lon="3.03525">
        <ele>578.9</ele>
        <time>2024-07-26T10:18:48Z</time>
      </trkpt>
      <trkpt lat="45.89814" lon="3.03525">
        <ele>577.8</ele>
        <time>2024-07-26T10:19:03Z</time>
      </trkpt>
      <trkpt lat="45.89815" lon="3.03524">
        <ele>577.5</ele>
        <time>2024-07-26T10:19:39Z</time>
      </trkpt>
      <trkpt lat="45.89816" lon="3.03523">
        <ele>577.5</ele>
        <time>2024-07-26T10:19:47Z</time>
      </trkpt>
      <trkpt lat="45.89815" lon="3.03525">
        <ele>575.5</ele>
        <time>2024-07-26T10:20:21Z</time>
      </trkpt>
      <trkpt lat="45.89814" lon="3.03525">
        <ele>574.9</ele>
        <time>2024-07-26T10:20:23Z</time>
      </trkpt>
      <trkpt lat="45.89815" lon="3.03525">
        <ele>569.3</ele>
        <time>2024-07-26T10:20:25Z</time>
      </trkpt>
      <trkpt lat="45.89816" lon="3.03524">
        <ele>568.5</ele>
        <time>2024-07-26T10:20:26Z</time>
      </trkpt>
      <trkpt lat="45.89814" lon="3.03524">
        <ele>567.6</ele>
        <time>2024-07-26T10:20:27Z</time>
      </trkpt>
      <trkpt lat="45.89812" lon="3.03525">
        <ele>566.7</ele>
        <time>2024-07-26T10:20:29Z</time>
      </trkpt>
      <trkpt lat="45.89812" lon="3.03524">
        <ele>565.4</ele>
        <time>2024-07-26T10:20:32Z</time>
      </trkpt>
      <trkpt lat="45.89813" lon="3.03522">
        <ele>564.6</ele>
        <time>2024-07-26T10:20:33Z</time>
      </trkpt>
      <trkpt lat="45.89815" lon="3.03522">
        <ele>561.7</ele>
        <time>2024-07-26T10:20:35Z</time>
      </trkpt>
      <trkpt lat="45.89816" lon="3.03522">
        <ele>561.5</ele>
        <time>2024-07-26T10:20:37Z</time>
      </trkpt>
      <trkpt lat="45.89817" lon="3.0352">
        <ele>563.2</ele>
        <time>2024-07-26T10:22:13Z</time>
      </trkpt>
      <trkpt lat="45.89817" lon="3.03519">
        <ele>564.9</ele>
        <time>2024-07-26T10:22:47Z</time>
      </trkpt>
      <trkpt lat="45.89818" lon="3.03518">
        <ele>568.2</ele>
        <time>2024-07-26T10:22:50Z</time>
      </trkpt>
      <trkpt lat="45.89817" lon="3.03516">
        <ele>570.6</ele>
        <time>2024-07-26T10:22:52Z</time>
      </trkpt>
      <trkpt lat="45.89818" lon="3.03514">
        <ele>571.2</ele>
        <time>2024-07-26T10:22:55Z</time>
      </trkpt>
      <trkpt lat="45.89818" lon="3.03515">
        <ele>571.7</ele>
        <time>2024-07-26T10:23:06Z</time>
      </trkpt>
      <trkpt lat="45.89819" lon="3.03515">
        <ele>571.5</ele>
        <time>2024-07-26T10:23:09Z</time>
      </trkpt>
      <trkpt lat="45.8982" lon="3.03516">
        <ele>572.8</ele>
        <time>2024-07-26T10:23:11Z</time>
      </trkpt>
      <trkpt lat="45.8982" lon="3.03518">
        <ele>573.4</ele>
        <time>2024-07-26T10:23:13Z</time>
      </trkpt>
      <trkpt lat="45.89821" lon="3.03521">
        <ele>570</ele>
        <time>2024-07-26T10:23:14Z</time>
      </trkpt>
      <trkpt lat="45.89822" lon="3.03522">
        <ele>570.9</ele>
        <time>2024-07-26T10:23:15Z</time>
      </trkpt>
      <trkpt lat="45.89823" lon="3.03523">
        <ele>570.6</ele>
        <time>2024-07-26T10:23:16Z</time>
      </trkpt>
      <trkpt lat="45.89824" lon="3.03523">
        <ele>572.6</ele>
        <time>2024-07-26T10:23:17Z</time>
      </trkpt>
      <trkpt lat="45.89825" lon="3.03523">
        <ele>573.7</ele>
        <time>2024-07-26T10:23:19Z</time>
      </trkpt>
      <trkpt lat="45.89827" lon="3.03522">
        <ele>575.4</ele>
        <time>2024-07-26T10:23:21Z</time>
      </trkpt>
      <trkpt lat="45.89825" lon="3.03522">
        <ele>574.5</ele>
        <time>2024-07-26T10:23:23Z</time>
      </trkpt>
      <trkpt lat="45.89826" lon="3.03521">
        <ele>572.6</ele>
        <time>2024-07-26T10:23:25Z</time>
      </trkpt>
      <trkpt lat="45.89827" lon="3.03521">
        <ele>573.3</ele>
        <time>2024-07-26T10:23:27Z</time>
      </trkpt>
      <trkpt lat="45.89828" lon="3.03522">
        <ele>572.9</ele>
        <time>2024-07-26T10:23:28Z</time>
      </trkpt>
      <trkpt lat="45.89829" lon="3.03523">
        <ele>570</ele>
        <time>2024-07-26T10:23:29Z</time>
      </trkpt>
      <trkpt lat="45.8983" lon="3.03524">
        <ele>569.6</ele>
        <time>2024-07-26T10:23:30Z</time>
      </trkpt>
      <trkpt lat="45.89831" lon="3.03525">
        <ele>570.9</ele>
        <time>2024-07-26T10:23:31Z</time>
      </trkpt>
      <trkpt lat="45.89832" lon="3.03527">
        <ele>576.2</ele>
        <time>2024-07-26T10:23:33Z</time>
      </trkpt>
      <trkpt lat="45.89833" lon="3.03528">
        <ele>575.8</ele>
        <time>2024-07-26T10:23:34Z</time>
      </trkpt>
      <trkpt lat="45.89833" lon="3.03529">
        <ele>572.6</ele>
        <time>2024-07-26T10:23:35Z</time>
      </trkpt>
      <trkpt lat="45.89834" lon="3.03531">
        <ele>577.1</ele>
        <time>2024-07-26T10:23:37Z</time>
      </trkpt>
      <trkpt lat="45.89835" lon="3.03533">
        <ele>581.9</ele>
        <time>2024-07-26T10:23:39Z</time>
      </trkpt>
      <trkpt lat="45.89836" lon="3.03534">
        <ele>582.5</ele>
        <time>2024-07-26T10:23:40Z</time>
      </trkpt>
      <trkpt lat="45.89837" lon="3.03537">
        <ele>581.9</ele>
        <time>2024-07-26T10:23:42Z</time>
      </trkpt>
      <trkpt lat="45.89838" lon="3.0354">
        <ele>580.2</ele>
        <time>2024-07-26T10:23:44Z</time>
      </trkpt>
      <trkpt lat="45.89838" lon="3.03544">
        <ele>581.8</ele>
        <time>2024-07-26T10:23:46Z</time>
      </trkpt>
      <trkpt lat="45.89836" lon="3.03546">
        <ele>582.6</ele>
        <time>2024-07-26T10:23:50Z</time>
      </trkpt>
      <trkpt lat="45.89834" lon="3.03548">
        <ele>579.5</ele>
        <time>2024-07-26T10:23:51Z</time>
      </trkpt>
      <trkpt lat="45.89833" lon="3.0355">
        <ele>579.7</ele>
        <time>2024-07-26T10:23:52Z</time>
      </trkpt>
      <trkpt lat="45.89831" lon="3.03551">
        <ele>578</ele>
        <time>2024-07-26T10:23:53Z</time>
      </trkpt>
      <trkpt lat="45.8983" lon="3.03552">
        <ele>577.7</ele>
        <time>2024-07-26T10:23:54Z</time>
      </trkpt>
      <trkpt lat="45.8983" lon="3.03553">
        <ele>577.7</ele>
        <time>2024-07-26T10:23:55Z</time>
      </trkpt>
      <trkpt lat="45.89829" lon="3.03554">
        <ele>578.7</ele>
        <time>2024-07-26T10:23:56Z</time>
      </trkpt>
      <trkpt lat="45.89828" lon="3.03555">
        <ele>581.4</ele>
        <time>2024-07-26T10:23:57Z</time>
      </trkpt>
      <trkpt lat="45.89828" lon="3.03558">
        <ele>583.8</ele>
        <time>2024-07-26T10:23:59Z</time>
      </trkpt>
      <trkpt lat="45.8983" lon="3.03559">
        <ele>583.8</ele>
        <time>2024-07-26T10:24:00Z</time>
      </trkpt>
      <trkpt lat="45.89831" lon="3.03559">
        <ele>581.7</ele>
        <time>2024-07-26T10:24:01Z</time>
      </trkpt>
      <trkpt lat="45.89833" lon="3.03559">
        <ele>579</ele>
        <time>2024-07-26T10:24:02Z</time>
      </trkpt>
      <trkpt lat="45.89835" lon="3.0356">
        <ele>578.8</ele>
        <time>2024-07-26T10:24:03Z</time>
      </trkpt>
      <trkpt lat="45.89836" lon="3.0356">
        <ele>579.9</ele>
        <time>2024-07-26T10:24:04Z</time>
      </trkpt>
      <trkpt lat="45.89838" lon="3.03559">
        <ele>580.6</ele>
        <time>2024-07-26T10:24:05Z</time>
      </trkpt>
      <trkpt lat="45.89839" lon="3.03558">
        <ele>581</ele>
        <time>2024-07-26T10:24:06Z</time>
      </trkpt>
      <trkpt lat="45.8984" lon="3.03557">
        <ele>581.5</ele>
        <time>2024-07-26T10:24:07Z</time>
      </trkpt>
      <trkpt lat="45.89842" lon="3.03556">
        <ele>579.8</ele>
        <time>2024-07-26T10:24:09Z</time>
      </trkpt>
      <trkpt lat="45.89843" lon="3.03556">
        <ele>581.1</ele>
        <time>2024-07-26T10:24:10Z</time>
      </trkpt>
      <trkpt lat="45.89844" lon="3.03555">
        <ele>581</ele>
        <time>2024-07-26T10:24:11Z</time>
      </trkpt>
      <trkpt lat="45.89845" lon="3.03556">
        <ele>580.2</ele>
        <time>2024-07-26T10:24:13Z</time>
      </trkpt>
      <trkpt lat="45.89847" lon="3.03557">
        <ele>580.5</ele>
        <time>2024-07-26T10:24:14Z</time>
      </trkpt>
      <trkpt lat="45.89848" lon="3.03558">
        <ele>581.9</ele>
        <time>2024-07-26T10:24:15Z</time>
      </trkpt>
      <trkpt lat="45.89849" lon="3.03559">
        <ele>581.2</ele>
        <time>2024-07-26T10:24:16Z</time>
      </trkpt>
      <trkpt lat="45.8985" lon="3.0356">
        <ele>582.3</ele>
        <time>2024-07-26T10:24:17Z</time>
      </trkpt>
      <trkpt lat="45.89852" lon="3.03561">
        <ele>581.1</ele>
        <time>2024-07-26T10:24:19Z</time>
      </trkpt>
      <trkpt lat="45.89853" lon="3.03561">
        <ele>580.4</ele>
        <time>2024-07-26T10:24:20Z</time>
      </trkpt>
      <trkpt lat="45.89854" lon="3.03561">
        <ele>581.4</ele>
        <time>2024-07-26T10:24:21Z</time>
      </trkpt>
      <trkpt lat="45.89855" lon="3.03561">
        <ele>581.2</ele>
        <time>2024-07-26T10:24:22Z</time>
      </trkpt>
      <trkpt lat="45.89856" lon="3.03562">
        <ele>579.9</ele>
        <time>2024-07-26T10:24:23Z</time>
      </trkpt>
      <trkpt lat="45.89857" lon="3.03563">
        <ele>578</ele>
        <time>2024-07-26T10:24:25Z</time>
      </trkpt>
      <trkpt lat="45.89857" lon="3.03565">
        <ele>582</ele>
        <time>2024-07-26T10:24:27Z</time>
      </trkpt>
      <trkpt lat="45.89858" lon="3.03566">
        <ele>579.8</ele>
        <time>2024-07-26T10:24:28Z</time>
      </trkpt>
      <trkpt lat="45.89859" lon="3.03568">
        <ele>581.6</ele>
        <time>2024-07-26T10:24:29Z</time>
      </trkpt>
      <trkpt lat="45.89859" lon="3.03569">
        <ele>581</ele>
        <time>2024-07-26T10:24:30Z</time>
      </trkpt>
      <trkpt lat="45.8986" lon="3.03571">
        <ele>581.4</ele>
        <time>2024-07-26T10:24:31Z</time>
      </trkpt>
      <trkpt lat="45.8986" lon="3.03572">
        <ele>580.9</ele>
        <time>2024-07-26T10:24:32Z</time>
      </trkpt>
      <trkpt lat="45.89861" lon="3.03573">
        <ele>581.4</ele>
        <time>2024-07-26T10:24:34Z</time>
      </trkpt>
      <trkpt lat="45.89862" lon="3.03573">
        <ele>582.7</ele>
        <time>2024-07-26T10:24:35Z</time>
      </trkpt>
      <trkpt lat="45.89863" lon="3.03573">
        <ele>583.1</ele>
        <time>2024-07-26T10:24:36Z</time>
      </trkpt>
      <trkpt lat="45.89865" lon="3.03572">
        <ele>581.5</ele>
        <time>2024-07-26T10:24:37Z</time>
      </trkpt>
      <trkpt lat="45.89866" lon="3.03572">
        <ele>578.8</ele>
        <time>2024-07-26T10:24:38Z</time>
      </trkpt>
      <trkpt lat="45.89867" lon="3.03573">
        <ele>579</ele>
        <time>2024-07-26T10:24:39Z</time>
      </trkpt>
      <trkpt lat="45.89869" lon="3.03574">
        <ele>578.1</ele>
        <time>2024-07-26T10:24:40Z</time>
      </trkpt>
      <trkpt lat="45.8987" lon="3.03575">
        <ele>579.2</ele>
        <time>2024-07-26T10:24:41Z</time>
      </trkpt>
      <trkpt lat="45.8987" lon="3.03575">
        <ele>576.6</ele>
        <time>2024-07-26T10:24:42Z</time>
      </trkpt>
      <trkpt lat="45.89872" lon="3.03574">
        <ele>577.8</ele>
        <time>2024-07-26T10:24:44Z</time>
      </trkpt>
      <trkpt lat="45.89873" lon="3.03573">
        <ele>579.3</ele>
        <time>2024-07-26T10:24:45Z</time>
      </trkpt>
      <trkpt lat="45.89874" lon="3.03573">
        <ele>576.8</ele>
        <time>2024-07-26T10:24:46Z</time>
      </trkpt>
      <trkpt lat="45.89875" lon="3.03573">
        <ele>580.1</ele>
        <time>2024-07-26T10:24:48Z</time>
      </trkpt>
      <trkpt lat="45.89876" lon="3.03571">
        <ele>579</ele>
        <time>2024-07-26T10:24:50Z</time>
      </trkpt>
      <trkpt lat="45.89875" lon="3.03571">
        <ele>580.2</ele>
        <time>2024-07-26T10:24:52Z</time>
      </trkpt>
      <trkpt lat="45.89874" lon="3.03572">
        <ele>579.3</ele>
        <time>2024-07-26T10:24:53Z</time>
      </trkpt>
      <trkpt lat="45.89873" lon="3.03573">
        <ele>578.8</ele>
        <time>2024-07-26T10:24:54Z</time>
      </trkpt>
      <trkpt lat="45.89871" lon="3.03574">
        <ele>579.1</ele>
        <time>2024-07-26T10:24:55Z</time>
      </trkpt>
      <trkpt lat="45.89871" lon="3.03575">
        <ele>578.7</ele>
        <time>2024-07-26T10:24:56Z</time>
      </trkpt>
      <trkpt lat="45.8987" lon="3.03577">
        <ele>578.6</ele>
        <time>2024-07-26T10:24:57Z</time>
      </trkpt>
      <trkpt lat="45.89871" lon="3.03578">
        <ele>579.2</ele>
        <time>2024-07-26T10:24:58Z</time>
      </trkpt>
      <trkpt lat="45.89871" lon="3.0358">
        <ele>580.1</ele>
        <time>2024-07-26T10:24:59Z</time>
      </trkpt>
      <trkpt lat="45.8987" lon="3.03582">
        <ele>582</ele>
        <time>2024-07-26T10:25:01Z</time>
      </trkpt>
      <trkpt lat="45.8987" lon="3.03584">
        <ele>582.3</ele>
        <time>2024-07-26T10:25:04Z</time>
      </trkpt>
      <trkpt lat="45.89869" lon="3.03585">
        <ele>585.8</ele>
        <time>2024-07-26T10:25:10Z</time>
      </trkpt>
      <trkpt lat="45.89869" lon="3.03587">
        <ele>585.3</ele>
        <time>2024-07-26T10:25:12Z</time>
      </trkpt>
      <trkpt lat="45.8987" lon="3.03589">
        <ele>583.4</ele>
        <time>2024-07-26T10:25:14Z</time>
      </trkpt>
      <trkpt lat="45.89869" lon="3.0359">
        <ele>584.2</ele>
        <time>2024-07-26T10:25:16Z</time>
      </trkpt>
      <trkpt lat="45.89869" lon="3.03593">
        <ele>584.5</ele>
        <time>2024-07-26T10:25:20Z</time>
      </trkpt>
      <trkpt lat="45.89869" lon="3.03594">
        <ele>584.8</ele>
        <time>2024-07-26T10:25:21Z</time>
      </trkpt>
      <trkpt lat="45.8987" lon="3.03595">
        <ele>586.8</ele>
        <time>2024-07-26T10:25:22Z</time>
      </trkpt>
      <trkpt lat="45.8987" lon="3.03596">
        <ele>587.8</ele>
        <time>2024-07-26T10:25:23Z</time>
      </trkpt>
      <trkpt lat="45.89871" lon="3.03597">
        <ele>588.2</ele>
        <time>2024-07-26T10:25:24Z</time>
      </trkpt>
      <trkpt lat="45.89872" lon="3.03598">
        <ele>588</ele>
        <time>2024-07-26T10:25:25Z</time>
      </trkpt>
      <trkpt lat="45.89873" lon="3.03599">
        <ele>584.6</ele>
        <time>2024-07-26T10:25:26Z</time>
      </trkpt>
      <trkpt lat="45.89875" lon="3.036">
        <ele>583.4</ele>
        <time>2024-07-26T10:25:27Z</time>
      </trkpt>
      <trkpt lat="45.89877" lon="3.03601">
        <ele>580.2</ele>
        <time>2024-07-26T10:25:28Z</time>
      </trkpt>
      <trkpt lat="45.89879" lon="3.03602">
        <ele>581.1</ele>
        <time>2024-07-26T10:25:29Z</time>
      </trkpt>
      <trkpt lat="45.89882" lon="3.03603">
        <ele>579.4</ele>
        <time>2024-07-26T10:25:30Z</time>
      </trkpt>
      <trkpt lat="45.89884" lon="3.03605">
        <ele>579.3</ele>
        <time>2024-07-26T10:25:31Z</time>
      </trkpt>
      <trkpt lat="45.89885" lon="3.03605">
        <ele>581.6</ele>
        <time>2024-07-26T10:25:32Z</time>
      </trkpt>
      <trkpt lat="45.89887" lon="3.03606">
        <ele>577.6</ele>
        <time>2024-07-26T10:25:33Z</time>
      </trkpt>
      <trkpt lat="45.89889" lon="3.03607">
        <ele>577.2</ele>
        <time>2024-07-26T10:25:34Z</time>
      </trkpt>
      <trkpt lat="45.8989" lon="3.03608">
        <ele>576</ele>
        <time>2024-07-26T10:25:35Z</time>
      </trkpt>
      <trkpt lat="45.89892" lon="3.03609">
        <ele>574.3</ele>
        <time>2024-07-26T10:25:36Z</time>
      </trkpt>
      <trkpt lat="45.89892" lon="3.0361">
        <ele>579.9</ele>
        <time>2024-07-26T10:25:37Z</time>
      </trkpt>
      <trkpt lat="45.89894" lon="3.03611">
        <ele>576.5</ele>
        <time>2024-07-26T10:25:39Z</time>
      </trkpt>
      <trkpt lat="45.89896" lon="3.03612">
        <ele>576.8</ele>
        <time>2024-07-26T10:25:40Z</time>
      </trkpt>
      <trkpt lat="45.89897" lon="3.03613">
        <ele>576.9</ele>
        <time>2024-07-26T10:25:41Z</time>
      </trkpt>
      <trkpt lat="45.89898" lon="3.03614">
        <ele>578.1</ele>
        <time>2024-07-26T10:25:42Z</time>
      </trkpt>
      <trkpt lat="45.89897" lon="3.03616">
        <ele>581.4</ele>
        <time>2024-07-26T10:25:43Z</time>
      </trkpt>
      <trkpt lat="45.89897" lon="3.03618">
        <ele>580.3</ele>
        <time>2024-07-26T10:25:44Z</time>
      </trkpt>
      <trkpt lat="45.89896" lon="3.0362">
        <ele>581.2</ele>
        <time>2024-07-26T10:25:45Z</time>
      </trkpt>
      <trkpt lat="45.89895" lon="3.03622">
        <ele>581.4</ele>
        <time>2024-07-26T10:25:46Z</time>
      </trkpt>
      <trkpt lat="45.89894" lon="3.03624">
        <ele>580.7</ele>
        <time>2024-07-26T10:25:47Z</time>
      </trkpt>
      <trkpt lat="45.89893" lon="3.03626">
        <ele>578.3</ele>
        <time>2024-07-26T10:25:48Z</time>
      </trkpt>
      <trkpt lat="45.89891" lon="3.03627">
        <ele>578.2</ele>
        <time>2024-07-26T10:25:49Z</time>
      </trkpt>
      <trkpt lat="45.8989" lon="3.03629">
        <ele>579.8</ele>
        <time>2024-07-26T10:25:50Z</time>
      </trkpt>
      <trkpt lat="45.8989" lon="3.0363">
        <ele>581.3</ele>
        <time>2024-07-26T10:25:51Z</time>
      </trkpt>
      <trkpt lat="45.89889" lon="3.03632">
        <ele>581</ele>
        <time>2024-07-26T10:25:54Z</time>
      </trkpt>
      <trkpt lat="45.89888" lon="3.03633">
        <ele>581.7</ele>
        <time>2024-07-26T10:25:55Z</time>
      </trkpt>
      <trkpt lat="45.89887" lon="3.03634">
        <ele>581.9</ele>
        <time>2024-07-26T10:25:56Z</time>
      </trkpt>
      <trkpt lat="45.89886" lon="3.03635">
        <ele>582.2</ele>
        <time>2024-07-26T10:25:57Z</time>
      </trkpt>
      <trkpt lat="45.89885" lon="3.03637">
        <ele>582.6</ele>
        <time>2024-07-26T10:25:58Z</time>
      </trkpt>
      <trkpt lat="45.89884" lon="3.03638">
        <ele>584.9</ele>
        <time>2024-07-26T10:25:59Z</time>
      </trkpt>
      <trkpt lat="45.89884" lon="3.0364">
        <ele>586.1</ele>
        <time>2024-07-26T10:26:00Z</time>
      </trkpt>
      <trkpt lat="45.89883" lon="3.03642">
        <ele>584.6</ele>
        <time>2024-07-26T10:26:01Z</time>
      </trkpt>
      <trkpt lat="45.89882" lon="3.03642">
        <ele>583.8</ele>
        <time>2024-07-26T10:26:02Z</time>
      </trkpt>
      <trkpt lat="45.89881" lon="3.03643">
        <ele>583.8</ele>
        <time>2024-07-26T10:26:05Z</time>
      </trkpt>
      <trkpt lat="45.89881" lon="3.03644">
        <ele>583.9</ele>
        <time>2024-07-26T10:26:06Z</time>
      </trkpt>
      <trkpt lat="45.89881" lon="3.03646">
        <ele>584.1</ele>
        <time>2024-07-26T10:26:07Z</time>
      </trkpt>
      <trkpt lat="45.89882" lon="3.03648">
        <ele>584</ele>
        <time>2024-07-26T10:26:08Z</time>
      </trkpt>
      <trkpt lat="45.89882" lon="3.03649">
        <ele>584.3</ele>
        <time>2024-07-26T10:26:09Z</time>
      </trkpt>
      <trkpt lat="45.89883" lon="3.03651">
        <ele>583.4</ele>
        <time>2024-07-26T10:26:10Z</time>
      </trkpt>
      <trkpt lat="45.89884" lon="3.03652">
        <ele>581.8</ele>
        <time>2024-07-26T10:26:12Z</time>
      </trkpt>
      <trkpt lat="45.89884" lon="3.03654">
        <ele>582.2</ele>
        <time>2024-07-26T10:26:14Z</time>
      </trkpt>
      <trkpt lat="45.89884" lon="3.03655">
        <ele>582.5</ele>
        <time>2024-07-26T10:26:15Z</time>
      </trkpt>
      <trkpt lat="45.89883" lon="3.03657">
        <ele>583.2</ele>
        <time>2024-07-26T10:26:16Z</time>
      </trkpt>
      <trkpt lat="45.89881" lon="3.03658">
        <ele>583.1</ele>
        <time>2024-07-26T10:26:17Z</time>
      </trkpt>
      <trkpt lat="45.8988" lon="3.03659">
        <ele>582.9</ele>
        <time>2024-07-26T10:26:18Z</time>
      </trkpt>
      <trkpt lat="45.89879" lon="3.03661">
        <ele>582.7</ele>
        <time>2024-07-26T10:26:19Z</time>
      </trkpt>
      <trkpt lat="45.89878" lon="3.03662">
        <ele>582.9</ele>
        <time>2024-07-26T10:26:20Z</time>
      </trkpt>
      <trkpt lat="45.89877" lon="3.03663">
        <ele>582</ele>
        <time>2024-07-26T10:26:21Z</time>
      </trkpt>
      <trkpt lat="45.89877" lon="3.03664">
        <ele>582.9</ele>
        <time>2024-07-26T10:26:22Z</time>
      </trkpt>
      <trkpt lat="45.89875" lon="3.03665">
        <ele>582.4</ele>
        <time>2024-07-26T10:26:23Z</time>
      </trkpt>
      <trkpt lat="45.89875" lon="3.03666">
        <ele>582.5</ele>
        <time>2024-07-26T10:26:25Z</time>
      </trkpt>
      <trkpt lat="45.89874" lon="3.03667">
        <ele>580.2</ele>
        <time>2024-07-26T10:26:27Z</time>
      </trkpt>
      <trkpt lat="45.89874" lon="3.03669">
        <ele>577.7</ele>
        <time>2024-07-26T10:26:29Z</time>
      </trkpt>
      <trkpt lat="45.89874" lon="3.03671">
        <ele>577.2</ele>
        <time>2024-07-26T10:26:31Z</time>
      </trkpt>
      <trkpt lat="45.89875" lon="3.03672">
        <ele>578.4</ele>
        <time>2024-07-26T10:26:33Z</time>
      </trkpt>
      <trkpt lat="45.89875" lon="3.03673">
        <ele>578.3</ele>
        <time>2024-07-26T10:26:34Z</time>
      </trkpt>
      <trkpt lat="45.89876" lon="3.03673">
        <ele>577.2</ele>
        <time>2024-07-26T10:26:35Z</time>
      </trkpt>
      <trkpt lat="45.89878" lon="3.03673">
        <ele>576.8</ele>
        <time>2024-07-26T10:26:37Z</time>
      </trkpt>
      <trkpt lat="45.89879" lon="3.03673">
        <ele>577.7</ele>
        <time>2024-07-26T10:26:38Z</time>
      </trkpt>
      <trkpt lat="45.8988" lon="3.03672">
        <ele>579.1</ele>
        <time>2024-07-26T10:26:40Z</time>
      </trkpt>
      <trkpt lat="45.89881" lon="3.0367">
        <ele>580.5</ele>
        <time>2024-07-26T10:26:42Z</time>
      </trkpt>
      <trkpt lat="45.89883" lon="3.0367">
        <ele>580.3</ele>
        <time>2024-07-26T10:26:44Z</time>
      </trkpt>
      <trkpt lat="45.89884" lon="3.03669">
        <ele>577.2</ele>
        <time>2024-07-26T10:26:46Z</time>
      </trkpt>
      <trkpt lat="45.89883" lon="3.03671">
        <ele>575.9</ele>
        <time>2024-07-26T10:26:48Z</time>
      </trkpt>
      <trkpt lat="45.89883" lon="3.03672">
        <ele>576.3</ele>
        <time>2024-07-26T10:26:49Z</time>
      </trkpt>
      <trkpt lat="45.89882" lon="3.03673">
        <ele>576</ele>
        <time>2024-07-26T10:26:50Z</time>
      </trkpt>
      <trkpt lat="45.89881" lon="3.03675">
        <ele>575.5</ele>
        <time>2024-07-26T10:26:51Z</time>
      </trkpt>
      <trkpt lat="45.89881" lon="3.03676">
        <ele>575.7</ele>
        <time>2024-07-26T10:26:52Z</time>
      </trkpt>
      <trkpt lat="45.89879" lon="3.03678">
        <ele>573.2</ele>
        <time>2024-07-26T10:26:53Z</time>
      </trkpt>
      <trkpt lat="45.89878" lon="3.0368">
        <ele>574.2</ele>
        <time>2024-07-26T10:26:54Z</time>
      </trkpt>
      <trkpt lat="45.89876" lon="3.03682">
        <ele>576.1</ele>
        <time>2024-07-26T10:26:55Z</time>
      </trkpt>
      <trkpt lat="45.89875" lon="3.03683">
        <ele>576.6</ele>
        <time>2024-07-26T10:26:56Z</time>
      </trkpt>
      <trkpt lat="45.89873" lon="3.03685">
        <ele>576.2</ele>
        <time>2024-07-26T10:26:57Z</time>
      </trkpt>
      <trkpt lat="45.89873" lon="3.03687">
        <ele>574.3</ele>
        <time>2024-07-26T10:26:58Z</time>
      </trkpt>
      <trkpt lat="45.89872" lon="3.03689">
        <ele>576</ele>
        <time>2024-07-26T10:26:59Z</time>
      </trkpt>
      <trkpt lat="45.89872" lon="3.03691">
        <ele>577</ele>
        <time>2024-07-26T10:27:00Z</time>
      </trkpt>
      <trkpt lat="45.89872" lon="3.03693">
        <ele>582.4</ele>
        <time>2024-07-26T10:27:01Z</time>
      </trkpt>
      <trkpt lat="45.89872" lon="3.03695">
        <ele>582.1</ele>
        <time>2024-07-26T10:27:02Z</time>
      </trkpt>
      <trkpt lat="45.89872" lon="3.03696">
        <ele>582.3</ele>
        <time>2024-07-26T10:27:03Z</time>
      </trkpt>
      <trkpt lat="45.89871" lon="3.03698">
        <ele>581.7</ele>
        <time>2024-07-26T10:27:04Z</time>
      </trkpt>
      <trkpt lat="45.8987" lon="3.037">
        <ele>582.4</ele>
        <time>2024-07-26T10:27:05Z</time>
      </trkpt>
      <trkpt lat="45.89869" lon="3.03702">
        <ele>582.5</ele>
        <time>2024-07-26T10:27:06Z</time>
      </trkpt>
      <trkpt lat="45.89869" lon="3.03703">
        <ele>578.6</ele>
        <time>2024-07-26T10:27:09Z</time>
      </trkpt>
      <trkpt lat="45.8987" lon="3.03705">
        <ele>576.3</ele>
        <time>2024-07-26T10:27:11Z</time>
      </trkpt>
      <trkpt lat="45.8987" lon="3.03707">
        <ele>575.5</ele>
        <time>2024-07-26T10:27:12Z</time>
      </trkpt>
      <trkpt lat="45.8987" lon="3.03708">
        <ele>574.5</ele>
        <time>2024-07-26T10:27:13Z</time>
      </trkpt>
      <trkpt lat="45.8987" lon="3.0371">
        <ele>574.7</ele>
        <time>2024-07-26T10:27:14Z</time>
      </trkpt>
      <trkpt lat="45.89869" lon="3.03712">
        <ele>572.5</ele>
        <time>2024-07-26T10:27:16Z</time>
      </trkpt>
      <trkpt lat="45.89869" lon="3.03713">
        <ele>571.1</ele>
        <time>2024-07-26T10:27:18Z</time>
      </trkpt>
      <trkpt lat="45.89869" lon="3.03715">
        <ele>570.7</ele>
        <time>2024-07-26T10:27:19Z</time>
      </trkpt>
      <trkpt lat="45.89869" lon="3.03716">
        <ele>569.1</ele>
        <time>2024-07-26T10:27:25Z</time>
      </trkpt>
      <trkpt lat="45.89869" lon="3.03718">
        <ele>566.5</ele>
        <time>2024-07-26T10:27:27Z</time>
      </trkpt>
      <trkpt lat="45.8987" lon="3.03719">
        <ele>565.5</ele>
        <time>2024-07-26T10:27:29Z</time>
      </trkpt>
      <trkpt lat="45.89871" lon="3.0372">
        <ele>565.2</ele>
        <time>2024-07-26T10:27:31Z</time>
      </trkpt>
      <trkpt lat="45.89872" lon="3.03722">
        <ele>566.4</ele>
        <time>2024-07-26T10:27:33Z</time>
      </trkpt>
      <trkpt lat="45.89871" lon="3.03724">
        <ele>566.5</ele>
        <time>2024-07-26T10:27:35Z</time>
      </trkpt>
      <trkpt lat="45.89871" lon="3.03725">
        <ele>565.9</ele>
        <time>2024-07-26T10:27:38Z</time>
      </trkpt>
      <trkpt lat="45.8987" lon="3.03727">
        <ele>566.1</ele>
        <time>2024-07-26T10:27:40Z</time>
      </trkpt>
      <trkpt lat="45.89869" lon="3.03729">
        <ele>566</ele>
        <time>2024-07-26T10:27:42Z</time>
      </trkpt>
      <trkpt lat="45.89869" lon="3.0373">
        <ele>566.2</ele>
        <time>2024-07-26T10:27:43Z</time>
      </trkpt>
      <trkpt lat="45.89868" lon="3.03732">
        <ele>565.5</ele>
        <time>2024-07-26T10:27:44Z</time>
      </trkpt>
      <trkpt lat="45.89867" lon="3.03734">
        <ele>565.4</ele>
        <time>2024-07-26T10:27:46Z</time>
      </trkpt>
      <trkpt lat="45.89866" lon="3.03735">
        <ele>565.3</ele>
        <time>2024-07-26T10:27:47Z</time>
      </trkpt>
      <trkpt lat="45.89865" lon="3.03737">
        <ele>564</ele>
        <time>2024-07-26T10:27:48Z</time>
      </trkpt>
      <trkpt lat="45.89865" lon="3.03738">
        <ele>563.6</ele>
        <time>2024-07-26T10:27:49Z</time>
      </trkpt>
      <trkpt lat="45.89864" lon="3.0374">
        <ele>567.7</ele>
        <time>2024-07-26T10:27:51Z</time>
      </trkpt>
      <trkpt lat="45.89864" lon="3.03741">
        <ele>568</ele>
        <time>2024-07-26T10:27:52Z</time>
      </trkpt>
      <trkpt lat="45.89864" lon="3.03742">
        <ele>568.4</ele>
        <time>2024-07-26T10:27:54Z</time>
      </trkpt>
      <trkpt lat="45.89865" lon="3.03743">
        <ele>567.1</ele>
        <time>2024-07-26T10:27:55Z</time>
      </trkpt>
      <trkpt lat="45.89867" lon="3.03744">
        <ele>570</ele>
        <time>2024-07-26T10:27:56Z</time>
      </trkpt>
      <trkpt lat="45.89868" lon="3.03744">
        <ele>570.7</ele>
        <time>2024-07-26T10:27:57Z</time>
      </trkpt>
      <trkpt lat="45.89869" lon="3.03744">
        <ele>570.6</ele>
        <time>2024-07-26T10:27:58Z</time>
      </trkpt>
      <trkpt lat="45.8987" lon="3.03744">
        <ele>570.2</ele>
        <time>2024-07-26T10:27:59Z</time>
      </trkpt>
      <trkpt lat="45.89871" lon="3.03744">
        <ele>571.2</ele>
        <time>2024-07-26T10:28:00Z</time>
      </trkpt>
      <trkpt lat="45.89872" lon="3.03744">
        <ele>570.9</ele>
        <time>2024-07-26T10:28:01Z</time>
      </trkpt>
      <trkpt lat="45.89873" lon="3.03744">
        <ele>568.8</ele>
        <time>2024-07-26T10:28:02Z</time>
      </trkpt>
      <trkpt lat="45.89875" lon="3.03745">
        <ele>568.7</ele>
        <time>2024-07-26T10:28:03Z</time>
      </trkpt>
      <trkpt lat="45.89876" lon="3.03745">
        <ele>567.8</ele>
        <time>2024-07-26T10:28:04Z</time>
      </trkpt>
      <trkpt lat="45.89878" lon="3.03746">
        <ele>567.6</ele>
        <time>2024-07-26T10:28:05Z</time>
      </trkpt>
      <trkpt lat="45.89879" lon="3.03747">
        <ele>568.9</ele>
        <time>2024-07-26T10:28:06Z</time>
      </trkpt>
      <trkpt lat="45.89879" lon="3.03749">
        <ele>570.2</ele>
        <time>2024-07-26T10:28:10Z</time>
      </trkpt>
      <trkpt lat="45.8988" lon="3.0375">
        <ele>571.1</ele>
        <time>2024-07-26T10:28:12Z</time>
      </trkpt>
      <trkpt lat="45.8988" lon="3.03753">
        <ele>571</ele>
        <time>2024-07-26T10:28:14Z</time>
      </trkpt>
      <trkpt lat="45.8988" lon="3.03754">
        <ele>571.1</ele>
        <time>2024-07-26T10:28:15Z</time>
      </trkpt>
      <trkpt lat="45.89879" lon="3.03756">
        <ele>574.9</ele>
        <time>2024-07-26T10:28:16Z</time>
      </trkpt>
      <trkpt lat="45.89878" lon="3.03757">
        <ele>575.6</ele>
        <time>2024-07-26T10:28:17Z</time>
      </trkpt>
      <trkpt lat="45.89878" lon="3.0376">
        <ele>574.7</ele>
        <time>2024-07-26T10:28:18Z</time>
      </trkpt>
      <trkpt lat="45.89877" lon="3.03762">
        <ele>574.6</ele>
        <time>2024-07-26T10:28:19Z</time>
      </trkpt>
      <trkpt lat="45.89876" lon="3.03763">
        <ele>573.6</ele>
        <time>2024-07-26T10:28:20Z</time>
      </trkpt>
      <trkpt lat="45.89876" lon="3.03765">
        <ele>576.7</ele>
        <time>2024-07-26T10:28:21Z</time>
      </trkpt>
      <trkpt lat="45.89876" lon="3.03767">
        <ele>576.5</ele>
        <time>2024-07-26T10:28:23Z</time>
      </trkpt>
      <trkpt lat="45.89877" lon="3.03768">
        <ele>576.9</ele>
        <time>2024-07-26T10:28:24Z</time>
      </trkpt>
      <trkpt lat="45.89877" lon="3.03771">
        <ele>576.2</ele>
        <time>2024-07-26T10:28:26Z</time>
      </trkpt>
      <trkpt lat="45.89877" lon="3.03772">
        <ele>575.3</ele>
        <time>2024-07-26T10:28:27Z</time>
      </trkpt>
      <trkpt lat="45.89877" lon="3.03774">
        <ele>575.1</ele>
        <time>2024-07-26T10:28:29Z</time>
      </trkpt>
      <trkpt lat="45.89877" lon="3.03776">
        <ele>575.8</ele>
        <time>2024-07-26T10:28:31Z</time>
      </trkpt>
      <trkpt lat="45.89877" lon="3.03777">
        <ele>578.2</ele>
        <time>2024-07-26T10:28:33Z</time>
      </trkpt>
      <trkpt lat="45.89878" lon="3.03779">
        <ele>578.7</ele>
        <time>2024-07-26T10:28:35Z</time>
      </trkpt>
      <trkpt lat="45.89878" lon="3.03781">
        <ele>579.1</ele>
        <time>2024-07-26T10:28:37Z</time>
      </trkpt>
      <trkpt lat="45.89879" lon="3.03783">
        <ele>582</ele>
        <time>2024-07-26T10:28:38Z</time>
      </trkpt>
      <trkpt lat="45.89881" lon="3.03784">
        <ele>584</ele>
        <time>2024-07-26T10:28:41Z</time>
      </trkpt>
      <trkpt lat="45.89883" lon="3.03784">
        <ele>583.2</ele>
        <time>2024-07-26T10:28:42Z</time>
      </trkpt>
      <trkpt lat="45.89885" lon="3.03784">
        <ele>582.7</ele>
        <time>2024-07-26T10:28:43Z</time>
      </trkpt>
      <trkpt lat="45.89885" lon="3.03785">
        <ele>584.7</ele>
        <time>2024-07-26T10:28:45Z</time>
      </trkpt>
      <trkpt lat="45.89887" lon="3.03787">
        <ele>584.3</ele>
        <time>2024-07-26T10:28:47Z</time>
      </trkpt>
      <trkpt lat="45.89887" lon="3.03788">
        <ele>585</ele>
        <time>2024-07-26T10:28:48Z</time>
      </trkpt>
      <trkpt lat="45.89888" lon="3.0379">
        <ele>582.1</ele>
        <time>2024-07-26T10:28:49Z</time>
      </trkpt>
      <trkpt lat="45.89889" lon="3.03792">
        <ele>581.4</ele>
        <time>2024-07-26T10:28:50Z</time>
      </trkpt>
      <trkpt lat="45.89889" lon="3.03794">
        <ele>581.4</ele>
        <time>2024-07-26T10:28:51Z</time>
      </trkpt>
      <trkpt lat="45.89889" lon="3.03796">
        <ele>582.2</ele>
        <time>2024-07-26T10:28:52Z</time>
      </trkpt>
      <trkpt lat="45.89889" lon="3.03797">
        <ele>585</ele>
        <time>2024-07-26T10:28:53Z</time>
      </trkpt>
      <trkpt lat="45.89887" lon="3.03798">
        <ele>585.2</ele>
        <time>2024-07-26T10:28:55Z</time>
      </trkpt>
      <trkpt lat="45.89886" lon="3.03799">
        <ele>582.7</ele>
        <time>2024-07-26T10:28:56Z</time>
      </trkpt>
      <trkpt lat="45.89884" lon="3.03801">
        <ele>580.7</ele>
        <time>2024-07-26T10:28:57Z</time>
      </trkpt>
      <trkpt lat="45.89883" lon="3.03803">
        <ele>579.6</ele>
        <time>2024-07-26T10:28:58Z</time>
      </trkpt>
      <trkpt lat="45.89881" lon="3.03804">
        <ele>573.5</ele>
        <time>2024-07-26T10:28:59Z</time>
      </trkpt>
      <trkpt lat="45.89879" lon="3.03805">
        <ele>573.3</ele>
        <time>2024-07-26T10:29:00Z</time>
      </trkpt>
      <trkpt lat="45.89878" lon="3.03806">
        <ele>574.1</ele>
        <time>2024-07-26T10:29:01Z</time>
      </trkpt>
      <trkpt lat="45.89877" lon="3.03808">
        <ele>571.5</ele>
        <time>2024-07-26T10:29:02Z</time>
      </trkpt>
      <trkpt lat="45.89876" lon="3.0381">
        <ele>571.1</ele>
        <time>2024-07-26T10:29:03Z</time>
      </trkpt>
      <trkpt lat="45.89874" lon="3.03811">
        <ele>575.1</ele>
        <time>2024-07-26T10:29:05Z</time>
      </trkpt>
      <trkpt lat="45.89872" lon="3.03812">
        <ele>575.5</ele>
        <time>2024-07-26T10:29:07Z</time>
      </trkpt>
      <trkpt lat="45.89872" lon="3.03813">
        <ele>576.9</ele>
        <time>2024-07-26T10:29:09Z</time>
      </trkpt>
      <trkpt lat="45.89872" lon="3.03815">
        <ele>576.9</ele>
        <time>2024-07-26T10:29:10Z</time>
      </trkpt>
      <trkpt lat="45.89872" lon="3.03816">
        <ele>577</ele>
        <time>2024-07-26T10:29:11Z</time>
      </trkpt>
      <trkpt lat="45.89873" lon="3.03818">
        <ele>575.9</ele>
        <time>2024-07-26T10:29:12Z</time>
      </trkpt>
      <trkpt lat="45.89873" lon="3.0382">
        <ele>575.2</ele>
        <time>2024-07-26T10:29:13Z</time>
      </trkpt>
      <trkpt lat="45.89874" lon="3.03821">
        <ele>575.5</ele>
        <time>2024-07-26T10:29:14Z</time>
      </trkpt>
      <trkpt lat="45.89874" lon="3.03824">
        <ele>568</ele>
        <time>2024-07-26T10:29:15Z</time>
      </trkpt>
      <trkpt lat="45.89874" lon="3.03826">
        <ele>568</ele>
        <time>2024-07-26T10:29:16Z</time>
      </trkpt>
      <trkpt lat="45.89875" lon="3.03828">
        <ele>568.4</ele>
        <time>2024-07-26T10:29:17Z</time>
      </trkpt>
      <trkpt lat="45.89875" lon="3.0383">
        <ele>570.1</ele>
        <time>2024-07-26T10:29:18Z</time>
      </trkpt>
      <trkpt lat="45.89875" lon="3.03831">
        <ele>571</ele>
        <time>2024-07-26T10:29:19Z</time>
      </trkpt>
      <trkpt lat="45.89876" lon="3.03833">
        <ele>570.6</ele>
        <time>2024-07-26T10:29:21Z</time>
      </trkpt>
      <trkpt lat="45.89876" lon="3.03835">
        <ele>569.1</ele>
        <time>2024-07-26T10:29:23Z</time>
      </trkpt>
      <trkpt lat="45.89876" lon="3.03837">
        <ele>570.6</ele>
        <time>2024-07-26T10:29:24Z</time>
      </trkpt>
      <trkpt lat="45.89876" lon="3.0384">
        <ele>570.6</ele>
        <time>2024-07-26T10:29:25Z</time>
      </trkpt>
      <trkpt lat="45.89876" lon="3.03841">
        <ele>569.3</ele>
        <time>2024-07-26T10:29:26Z</time>
      </trkpt>
      <trkpt lat="45.89877" lon="3.03843">
        <ele>566.3</ele>
        <time>2024-07-26T10:29:27Z</time>
      </trkpt>
      <trkpt lat="45.89878" lon="3.03844">
        <ele>565.8</ele>
        <time>2024-07-26T10:29:28Z</time>
      </trkpt>
      <trkpt lat="45.89878" lon="3.03846">
        <ele>566</ele>
        <time>2024-07-26T10:29:29Z</time>
      </trkpt>
      <trkpt lat="45.89879" lon="3.03848">
        <ele>563.1</ele>
        <time>2024-07-26T10:29:30Z</time>
      </trkpt>
      <trkpt lat="45.8988" lon="3.0385">
        <ele>563</ele>
        <time>2024-07-26T10:29:31Z</time>
      </trkpt>
      <trkpt lat="45.8988" lon="3.03852">
        <ele>563.2</ele>
        <time>2024-07-26T10:29:32Z</time>
      </trkpt>
      <trkpt lat="45.89879" lon="3.03854">
        <ele>562.8</ele>
        <time>2024-07-26T10:29:34Z</time>
      </trkpt>
      <trkpt lat="45.89879" lon="3.03855">
        <ele>564.5</ele>
        <time>2024-07-26T10:29:35Z</time>
      </trkpt>
      <trkpt lat="45.89879" lon="3.03857">
        <ele>567.8</ele>
        <time>2024-07-26T10:29:37Z</time>
      </trkpt>
      <trkpt lat="45.89879" lon="3.03859">
        <ele>568.8</ele>
        <time>2024-07-26T10:29:38Z</time>
      </trkpt>
      <trkpt lat="45.89879" lon="3.0386">
        <ele>568.2</ele>
        <time>2024-07-26T10:29:39Z</time>
      </trkpt>
      <trkpt lat="45.89881" lon="3.03862">
        <ele>571.8</ele>
        <time>2024-07-26T10:29:40Z</time>
      </trkpt>
      <trkpt lat="45.89883" lon="3.03862">
        <ele>569.3</ele>
        <time>2024-07-26T10:29:41Z</time>
      </trkpt>
      <trkpt lat="45.89885" lon="3.03862">
        <ele>568.5</ele>
        <time>2024-07-26T10:29:42Z</time>
      </trkpt>
      <trkpt lat="45.89886" lon="3.03862">
        <ele>568.5</ele>
        <time>2024-07-26T10:29:43Z</time>
      </trkpt>
      <trkpt lat="45.89887" lon="3.03861">
        <ele>567.7</ele>
        <time>2024-07-26T10:29:44Z</time>
      </trkpt>
      <trkpt lat="45.89888" lon="3.03861">
        <ele>567.3</ele>
        <time>2024-07-26T10:29:45Z</time>
      </trkpt>
      <trkpt lat="45.89889" lon="3.03862">
        <ele>571.2</ele>
        <time>2024-07-26T10:29:47Z</time>
      </trkpt>
      <trkpt lat="45.89889" lon="3.03864">
        <ele>571.6</ele>
        <time>2024-07-26T10:29:49Z</time>
      </trkpt>
      <trkpt lat="45.89889" lon="3.03865">
        <ele>572.3</ele>
        <time>2024-07-26T10:29:51Z</time>
      </trkpt>
      <trkpt lat="45.89889" lon="3.03867">
        <ele>571.8</ele>
        <time>2024-07-26T10:29:53Z</time>
      </trkpt>
      <trkpt lat="45.8989" lon="3.03869">
        <ele>572.3</ele>
        <time>2024-07-26T10:29:55Z</time>
      </trkpt>
      <trkpt lat="45.8989" lon="3.0387">
        <ele>571.7</ele>
        <time>2024-07-26T10:29:56Z</time>
      </trkpt>
      <trkpt lat="45.89891" lon="3.03872">
        <ele>571.7</ele>
        <time>2024-07-26T10:29:58Z</time>
      </trkpt>
      <trkpt lat="45.89891" lon="3.03873">
        <ele>573.2</ele>
        <time>2024-07-26T10:30:00Z</time>
      </trkpt>
      <trkpt lat="45.89892" lon="3.03874">
        <ele>574</ele>
        <time>2024-07-26T10:30:02Z</time>
      </trkpt>
      <trkpt lat="45.89892" lon="3.03876">
        <ele>575.2</ele>
        <time>2024-07-26T10:30:04Z</time>
      </trkpt>
      <trkpt lat="45.89892" lon="3.03878">
        <ele>575.1</ele>
        <time>2024-07-26T10:30:05Z</time>
      </trkpt>
      <trkpt lat="45.89892" lon="3.03879">
        <ele>575.2</ele>
        <time>2024-07-26T10:30:06Z</time>
      </trkpt>
      <trkpt lat="45.89892" lon="3.03881">
        <ele>575.4</ele>
        <time>2024-07-26T10:30:07Z</time>
      </trkpt>
      <trkpt lat="45.89892" lon="3.03882">
        <ele>576.2</ele>
        <time>2024-07-26T10:30:08Z</time>
      </trkpt>
      <trkpt lat="45.89891" lon="3.03885">
        <ele>578.3</ele>
        <time>2024-07-26T10:30:10Z</time>
      </trkpt>
      <trkpt lat="45.8989" lon="3.03886">
        <ele>574.5</ele>
        <time>2024-07-26T10:30:12Z</time>
      </trkpt>
      <trkpt lat="45.8989" lon="3.03888">
        <ele>574.2</ele>
        <time>2024-07-26T10:30:14Z</time>
      </trkpt>
      <trkpt lat="45.8989" lon="3.0389">
        <ele>574.5</ele>
        <time>2024-07-26T10:30:16Z</time>
      </trkpt>
      <trkpt lat="45.8989" lon="3.03892">
        <ele>575.4</ele>
        <time>2024-07-26T10:30:18Z</time>
      </trkpt>
      <trkpt lat="45.8989" lon="3.03894">
        <ele>571.4</ele>
        <time>2024-07-26T10:30:19Z</time>
      </trkpt>
      <trkpt lat="45.8989" lon="3.03895">
        <ele>571.7</ele>
        <time>2024-07-26T10:30:20Z</time>
      </trkpt>
      <trkpt lat="45.8989" lon="3.03897">
        <ele>571.3</ele>
        <time>2024-07-26T10:30:21Z</time>
      </trkpt>
      <trkpt lat="45.89889" lon="3.03898">
        <ele>570.9</ele>
        <time>2024-07-26T10:30:22Z</time>
      </trkpt>
      <trkpt lat="45.89888" lon="3.039">
        <ele>569.4</ele>
        <time>2024-07-26T10:30:24Z</time>
      </trkpt>
      <trkpt lat="45.89887" lon="3.039">
        <ele>567.2</ele>
        <time>2024-07-26T10:30:25Z</time>
      </trkpt>
      <trkpt lat="45.89886" lon="3.03899">
        <ele>567.4</ele>
        <time>2024-07-26T10:30:26Z</time>
      </trkpt>
      <trkpt lat="45.89885" lon="3.03899">
        <ele>569.8</ele>
        <time>2024-07-26T10:30:27Z</time>
      </trkpt>
      <trkpt lat="45.89885" lon="3.03901">
        <ele>573.2</ele>
        <time>2024-07-26T10:30:29Z</time>
      </trkpt>
      <trkpt lat="45.89884" lon="3.03902">
        <ele>571.7</ele>
        <time>2024-07-26T10:30:32Z</time>
      </trkpt>
      <trkpt lat="45.89883" lon="3.03903">
        <ele>572.2</ele>
        <time>2024-07-26T10:30:34Z</time>
      </trkpt>
      <trkpt lat="45.89882" lon="3.03904">
        <ele>571.8</ele>
        <time>2024-07-26T10:30:35Z</time>
      </trkpt>
      <trkpt lat="45.89882" lon="3.03906">
        <ele>574.2</ele>
        <time>2024-07-26T10:30:36Z</time>
      </trkpt>
      <trkpt lat="45.89882" lon="3.03909">
        <ele>575.7</ele>
        <time>2024-07-26T10:30:38Z</time>
      </trkpt>
      <trkpt lat="45.89882" lon="3.03911">
        <ele>571.7</ele>
        <time>2024-07-26T10:30:40Z</time>
      </trkpt>
      <trkpt lat="45.89881" lon="3.03911">
        <ele>569.9</ele>
        <time>2024-07-26T10:30:43Z</time>
      </trkpt>
      <trkpt lat="45.89882" lon="3.03913">
        <ele>571.6</ele>
        <time>2024-07-26T10:30:45Z</time>
      </trkpt>
      <trkpt lat="45.89882" lon="3.03915">
        <ele>571.7</ele>
        <time>2024-07-26T10:30:47Z</time>
      </trkpt>
      <trkpt lat="45.89884" lon="3.03917">
        <ele>574.6</ele>
        <time>2024-07-26T10:30:49Z</time>
      </trkpt>
      <trkpt lat="45.89884" lon="3.0392">
        <ele>573.9</ele>
        <time>2024-07-26T10:30:51Z</time>
      </trkpt>
      <trkpt lat="45.89884" lon="3.03921">
        <ele>574.2</ele>
        <time>2024-07-26T10:30:52Z</time>
      </trkpt>
      <trkpt lat="45.89884" lon="3.03923">
        <ele>572.9</ele>
        <time>2024-07-26T10:30:53Z</time>
      </trkpt>
      <trkpt lat="45.89884" lon="3.03925">
        <ele>575.3</ele>
        <time>2024-07-26T10:30:55Z</time>
      </trkpt>
      <trkpt lat="45.89885" lon="3.03927">
        <ele>579.4</ele>
        <time>2024-07-26T10:30:56Z</time>
      </trkpt>
      <trkpt lat="45.89886" lon="3.03928">
        <ele>578.6</ele>
        <time>2024-07-26T10:30:57Z</time>
      </trkpt>
      <trkpt lat="45.89885" lon="3.0393">
        <ele>572.7</ele>
        <time>2024-07-26T10:30:59Z</time>
      </trkpt>
      <trkpt lat="45.89884" lon="3.03932">
        <ele>571.7</ele>
        <time>2024-07-26T10:31:00Z</time>
      </trkpt>
      <trkpt lat="45.89882" lon="3.03933">
        <ele>570.9</ele>
        <time>2024-07-26T10:31:01Z</time>
      </trkpt>
      <trkpt lat="45.8988" lon="3.03934">
        <ele>570.7</ele>
        <time>2024-07-26T10:31:02Z</time>
      </trkpt>
      <trkpt lat="45.89879" lon="3.03935">
        <ele>574.3</ele>
        <time>2024-07-26T10:31:03Z</time>
      </trkpt>
      <trkpt lat="45.89878" lon="3.03936">
        <ele>573.7</ele>
        <time>2024-07-26T10:31:04Z</time>
      </trkpt>
      <trkpt lat="45.89878" lon="3.03938">
        <ele>571.5</ele>
        <time>2024-07-26T10:31:05Z</time>
      </trkpt>
      <trkpt lat="45.89878" lon="3.03941">
        <ele>569.9</ele>
        <time>2024-07-26T10:31:06Z</time>
      </trkpt>
      <trkpt lat="45.89878" lon="3.03943">
        <ele>570.7</ele>
        <time>2024-07-26T10:31:07Z</time>
      </trkpt>
      <trkpt lat="45.89877" lon="3.03945">
        <ele>570.7</ele>
        <time>2024-07-26T10:31:08Z</time>
      </trkpt>
      <trkpt lat="45.89876" lon="3.03946">
        <ele>570.7</ele>
        <time>2024-07-26T10:31:09Z</time>
      </trkpt>
      <trkpt lat="45.89875" lon="3.03948">
        <ele>571</ele>
        <time>2024-07-26T10:31:10Z</time>
      </trkpt>
      <trkpt lat="45.89873" lon="3.03949">
        <ele>570.5</ele>
        <time>2024-07-26T10:31:11Z</time>
      </trkpt>
      <trkpt lat="45.89873" lon="3.0395">
        <ele>570.8</ele>
        <time>2024-07-26T10:31:12Z</time>
      </trkpt>
      <trkpt lat="45.89873" lon="3.03952">
        <ele>569.3</ele>
        <time>2024-07-26T10:31:13Z</time>
      </trkpt>
      <trkpt lat="45.89873" lon="3.03954">
        <ele>569.1</ele>
        <time>2024-07-26T10:31:14Z</time>
      </trkpt>
      <trkpt lat="45.89873" lon="3.03956">
        <ele>570.1</ele>
        <time>2024-07-26T10:31:15Z</time>
      </trkpt>
      <trkpt lat="45.89874" lon="3.03957">
        <ele>569.7</ele>
        <time>2024-07-26T10:31:16Z</time>
      </trkpt>
      <trkpt lat="45.89874" lon="3.03959">
        <ele>570.1</ele>
        <time>2024-07-26T10:31:17Z</time>
      </trkpt>
      <trkpt lat="45.89874" lon="3.0396">
        <ele>569.5</ele>
        <time>2024-07-26T10:31:18Z</time>
      </trkpt>
      <trkpt lat="45.89874" lon="3.03961">
        <ele>568.7</ele>
        <time>2024-07-26T10:31:19Z</time>
      </trkpt>
      <trkpt lat="45.89873" lon="3.03963">
        <ele>569.2</ele>
        <time>2024-07-26T10:31:21Z</time>
      </trkpt>
      <trkpt lat="45.89873" lon="3.03965">
        <ele>570.7</ele>
        <time>2024-07-26T10:31:23Z</time>
      </trkpt>
      <trkpt lat="45.89872" lon="3.03967">
        <ele>569.3</ele>
        <time>2024-07-26T10:31:25Z</time>
      </trkpt>
      <trkpt lat="45.89871" lon="3.03967">
        <ele>569.4</ele>
        <time>2024-07-26T10:31:27Z</time>
      </trkpt>
      <trkpt lat="45.89871" lon="3.03968">
        <ele>570.4</ele>
        <time>2024-07-26T10:31:46Z</time>
      </trkpt>
      <trkpt lat="45.89872" lon="3.03967">
        <ele>569.6</ele>
        <time>2024-07-26T10:32:02Z</time>
      </trkpt>
      <trkpt lat="45.89873" lon="3.03966">
        <ele>569.6</ele>
        <time>2024-07-26T10:32:03Z</time>
      </trkpt>
      <trkpt lat="45.89874" lon="3.03965">
        <ele>569.3</ele>
        <time>2024-07-26T10:32:04Z</time>
      </trkpt>
      <trkpt lat="45.89875" lon="3.03964">
        <ele>567.3</ele>
        <time>2024-07-26T10:32:06Z</time>
      </trkpt>
      <trkpt lat="45.89876" lon="3.03964">
        <ele>569.1</ele>
        <time>2024-07-26T10:32:08Z</time>
      </trkpt>
      <trkpt lat="45.89877" lon="3.03967">
        <ele>570.1</ele>
        <time>2024-07-26T10:32:10Z</time>
      </trkpt>
      <trkpt lat="45.89878" lon="3.03969">
        <ele>570</ele>
        <time>2024-07-26T10:32:12Z</time>
      </trkpt>
      <trkpt lat="45.89879" lon="3.03969">
        <ele>570.6</ele>
        <time>2024-07-26T10:32:14Z</time>
      </trkpt>
      <trkpt lat="45.89879" lon="3.03969">
        <ele>570.7</ele>
        <time>2024-07-26T10:32:16Z</time>
      </trkpt>
      <trkpt lat="45.89879" lon="3.03971">
        <ele>569.6</ele>
        <time>2024-07-26T10:32:19Z</time>
      </trkpt>
      <trkpt lat="45.89879" lon="3.0397">
        <ele>569.4</ele>
        <time>2024-07-26T10:32:22Z</time>
      </trkpt>
      <trkpt lat="45.89876" lon="3.03969">
        <ele>569.3</ele>
        <time>2024-07-26T10:32:27Z</time>
      </trkpt>
      <trkpt lat="45.89875" lon="3.03968">
        <ele>569.3</ele>
        <time>2024-07-26T10:32:28Z</time>
      </trkpt>
      <trkpt lat="45.89874" lon="3.03968">
        <ele>569.3</ele>
        <time>2024-07-26T10:32:30Z</time>
      </trkpt>
      <trkpt lat="45.89874" lon="3.03969">
        <ele>568.3</ele>
        <time>2024-07-26T10:32:53Z</time>
      </trkpt>
      <trkpt lat="45.89875" lon="3.03968">
        <ele>569.1</ele>
        <time>2024-07-26T10:33:20Z</time>
      </trkpt>
      <trkpt lat="45.89874" lon="3.03967">
        <ele>568.4</ele>
        <time>2024-07-26T10:33:23Z</time>
      </trkpt>
      <trkpt lat="45.89874" lon="3.03965">
        <ele>568.1</ele>
        <time>2024-07-26T10:33:31Z</time>
      </trkpt>
      <trkpt lat="45.89874" lon="3.03967">
        <ele>567</ele>
        <time>2024-07-26T10:33:34Z</time>
      </trkpt>
      <trkpt lat="45.89873" lon="3.03967">
        <ele>566.9</ele>
        <time>2024-07-26T10:33:36Z</time>
      </trkpt>
      <trkpt lat="45.89875" lon="3.03966">
        <ele>559</ele>
        <time>2024-07-26T10:33:37Z</time>
      </trkpt>
      <trkpt lat="45.8988" lon="3.03963">
        <ele>559.5</ele>
        <time>2024-07-26T10:33:38Z</time>
      </trkpt>
      <trkpt lat="45.89882" lon="3.03961">
        <ele>559.5</ele>
        <time>2024-07-26T10:33:39Z</time>
      </trkpt>
      <trkpt lat="45.89884" lon="3.03961">
        <ele>559.4</ele>
        <time>2024-07-26T10:33:40Z</time>
      </trkpt>
      <trkpt lat="45.89885" lon="3.0396">
        <ele>559.9</ele>
        <time>2024-07-26T10:33:42Z</time>
      </trkpt>
      <trkpt lat="45.89886" lon="3.0396">
        <ele>560</ele>
        <time>2024-07-26T10:33:44Z</time>
      </trkpt>
      <trkpt lat="45.89887" lon="3.03961">
        <ele>560.8</ele>
        <time>2024-07-26T10:33:48Z</time>
      </trkpt>
      <trkpt lat="45.89886" lon="3.03963">
        <ele>560</ele>
        <time>2024-07-26T10:33:51Z</time>
      </trkpt>
      <trkpt lat="45.89886" lon="3.03964">
        <ele>559</ele>
        <time>2024-07-26T10:33:55Z</time>
      </trkpt>
      <trkpt lat="45.89885" lon="3.03965">
        <ele>559.1</ele>
        <time>2024-07-26T10:34:31Z</time>
      </trkpt>
      <trkpt lat="45.89883" lon="3.03965">
        <ele>553.9</ele>
        <time>2024-07-26T10:34:48Z</time>
      </trkpt>
      <trkpt lat="45.89882" lon="3.03965">
        <ele>554.7</ele>
        <time>2024-07-26T10:34:49Z</time>
      </trkpt>
      <trkpt lat="45.89881" lon="3.03965">
        <ele>554.8</ele>
        <time>2024-07-26T10:34:51Z</time>
      </trkpt>
      <trkpt lat="45.89882" lon="3.03965">
        <ele>554.8</ele>
        <time>2024-07-26T10:35:03Z</time>
      </trkpt>
      <trkpt lat="45.89883" lon="3.03964">
        <ele>558</ele>
        <time>2024-07-26T10:35:19Z</time>
      </trkpt>
      <trkpt lat="45.89882" lon="3.03965">
        <ele>557.8</ele>
        <time>2024-07-26T10:35:24Z</time>
      </trkpt>
      <trkpt lat="45.89881" lon="3.03964">
        <ele>556.2</ele>
        <time>2024-07-26T10:35:25Z</time>
      </trkpt>
      <trkpt lat="45.8988" lon="3.03964">
        <ele>556.2</ele>
        <time>2024-07-26T10:35:28Z</time>
      </trkpt>
      <trkpt lat="45.89879" lon="3.03963">
        <ele>556.6</ele>
        <time>2024-07-26T10:36:45Z</time>
      </trkpt>
      <trkpt lat="45.89878" lon="3.03962">
        <ele>558.1</ele>
        <time>2024-07-26T10:38:26Z</time>
      </trkpt>
      <trkpt lat="45.89878" lon="3.03962">
        <ele>559.1</ele>
        <time>2024-07-26T10:40:27Z</time>
      </trkpt>
      <trkpt lat="45.89878" lon="3.03962">
        <ele>560.2</ele>
        <time>2024-07-26T10:42:28Z</time>
      </trkpt>
      <trkpt lat="45.89878" lon="3.03962">
        <ele>560.9</ele>
        <time>2024-07-26T10:44:29Z</time>
      </trkpt>
      <trkpt lat="45.89878" lon="3.03961">
        <ele>562.2</ele>
        <time>2024-07-26T10:46:30Z</time>
      </trkpt>
      <trkpt lat="45.89877" lon="3.03961">
        <ele>561.3</ele>
        <time>2024-07-26T10:47:09Z</time>
      </trkpt>
      <trkpt lat="45.89878" lon="3.0396">
        <ele>560.8</ele>
        <time>2024-07-26T10:47:17Z</time>
      </trkpt>
      <trkpt lat="45.89879" lon="3.0396">
        <ele>559.7</ele>
        <time>2024-07-26T10:47:37Z</time>
      </trkpt>
      <trkpt lat="45.89878" lon="3.03962">
        <ele>560.2</ele>
        <time>2024-07-26T10:48:27Z</time>
      </trkpt>
      <trkpt lat="45.89878" lon="3.03962">
        <ele>560.6</ele>
        <time>2024-07-26T10:49:16Z</time>
      </trkpt>
      <trkpt lat="45.89877" lon="3.03961">
        <ele>561.8</ele>
        <time>2024-07-26T10:49:34Z</time>
      </trkpt>
      <trkpt lat="45.89877" lon="3.03959">
        <ele>562.3</ele>
        <time>2024-07-26T10:50:40Z</time>
      </trkpt>
      <trkpt lat="45.89877" lon="3.03958">
        <ele>562.9</ele>
        <time>2024-07-26T10:52:24Z</time>
      </trkpt>
      <trkpt lat="45.89877" lon="3.03958">
        <ele>564.1</ele>
        <time>2024-07-26T10:54:25Z</time>
      </trkpt>
      <trkpt lat="45.89876" lon="3.03957">
        <ele>565.3</ele>
        <time>2024-07-26T10:56:26Z</time>
      </trkpt>
      <trkpt lat="45.89876" lon="3.03957">
        <ele>565.9</ele>
        <time>2024-07-26T10:58:27Z</time>
      </trkpt>
      <trkpt lat="45.89876" lon="3.03957">
        <ele>566.6</ele>
        <time>2024-07-26T11:00:28Z</time>
      </trkpt>
      <trkpt lat="45.89876" lon="3.03957">
        <ele>566.6</ele>
        <time>2024-07-26T11:02:29Z</time>
      </trkpt>
      <trkpt lat="45.89875" lon="3.03958">
        <ele>566.8</ele>
        <time>2024-07-26T11:04:30Z</time>
      </trkpt>
      <trkpt lat="45.89875" lon="3.03959">
        <ele>567.4</ele>
        <time>2024-07-26T11:04:46Z</time>
      </trkpt>
      <trkpt lat="45.89873" lon="3.03959">
        <ele>568</ele>
        <time>2024-07-26T11:04:47Z</time>
      </trkpt>
      <trkpt lat="45.89872" lon="3.0396">
        <ele>568.6</ele>
        <time>2024-07-26T11:04:48Z</time>
      </trkpt>
      <trkpt lat="45.8987" lon="3.0396">
        <ele>568</ele>
        <time>2024-07-26T11:04:49Z</time>
      </trkpt>
      <trkpt lat="45.89872" lon="3.03958">
        <ele>565.5</ele>
        <time>2024-07-26T11:04:52Z</time>
      </trkpt>
      <trkpt lat="45.89873" lon="3.03957">
        <ele>565.4</ele>
        <time>2024-07-26T11:04:53Z</time>
      </trkpt>
      <trkpt lat="45.89874" lon="3.03957">
        <ele>566.8</ele>
        <time>2024-07-26T11:04:56Z</time>
      </trkpt>
      <trkpt lat="45.89875" lon="3.03957">
        <ele>567.3</ele>
        <time>2024-07-26T11:05:03Z</time>
      </trkpt>
      <trkpt lat="45.89876" lon="3.03959">
        <ele>566.8</ele>
        <time>2024-07-26T11:05:04Z</time>
      </trkpt>
      <trkpt lat="45.89878" lon="3.0396">
        <ele>566.3</ele>
        <time>2024-07-26T11:05:05Z</time>
      </trkpt>
      <trkpt lat="45.89879" lon="3.03961">
        <ele>566.3</ele>
        <time>2024-07-26T11:05:06Z</time>
      </trkpt>
      <trkpt lat="45.89881" lon="3.03962">
        <ele>566.3</ele>
        <time>2024-07-26T11:05:09Z</time>
      </trkpt>
      <trkpt lat="45.89882" lon="3.03963">
        <ele>566</ele>
        <time>2024-07-26T11:05:12Z</time>
      </trkpt>
      <trkpt lat="45.89881" lon="3.03963">
        <ele>567</ele>
        <time>2024-07-26T11:05:20Z</time>
      </trkpt>
      <trkpt lat="45.8988" lon="3.03965">
        <ele>568.7</ele>
        <time>2024-07-26T11:05:27Z</time>
      </trkpt>
      <trkpt lat="45.8988" lon="3.03966">
        <ele>568.9</ele>
        <time>2024-07-26T11:05:29Z</time>
      </trkpt>
      <trkpt lat="45.89882" lon="3.03967">
        <ele>569.3</ele>
        <time>2024-07-26T11:05:41Z</time>
      </trkpt>
      <trkpt lat="45.89882" lon="3.03968">
        <ele>570.5</ele>
        <time>2024-07-26T11:05:44Z</time>
      </trkpt>
      <trkpt lat="45.89884" lon="3.03967">
        <ele>571.2</ele>
        <time>2024-07-26T11:05:52Z</time>
      </trkpt>
      <trkpt lat="45.89884" lon="3.03965">
        <ele>572.1</ele>
        <time>2024-07-26T11:05:56Z</time>
      </trkpt>
      <trkpt lat="45.89883" lon="3.03964">
        <ele>572.6</ele>
        <time>2024-07-26T11:06:01Z</time>
      </trkpt>
      <trkpt lat="45.89882" lon="3.03963">
        <ele>571.2</ele>
        <time>2024-07-26T11:06:07Z</time>
      </trkpt>
      <trkpt lat="45.89881" lon="3.03963">
        <ele>571.2</ele>
        <time>2024-07-26T11:06:09Z</time>
      </trkpt>
      <trkpt lat="45.8988" lon="3.03963">
        <ele>571.3</ele>
        <time>2024-07-26T11:06:22Z</time>
      </trkpt>
      <trkpt lat="45.89879" lon="3.03962">
        <ele>571.8</ele>
        <time>2024-07-26T11:06:52Z</time>
      </trkpt>
      <trkpt lat="45.89879" lon="3.03961">
        <ele>570.5</ele>
        <time>2024-07-26T11:07:03Z</time>
      </trkpt>
      <trkpt lat="45.8988" lon="3.0396">
        <ele>570.3</ele>
        <time>2024-07-26T11:07:05Z</time>
      </trkpt>
      <trkpt lat="45.89881" lon="3.03964">
        <ele>564.6</ele>
        <time>2024-07-26T11:07:07Z</time>
      </trkpt>
      <trkpt lat="45.89882" lon="3.03965">
        <ele>566</ele>
        <time>2024-07-26T11:07:09Z</time>
      </trkpt>
      <trkpt lat="45.89883" lon="3.03966">
        <ele>566.1</ele>
        <time>2024-07-26T11:07:12Z</time>
      </trkpt>
      <trkpt lat="45.89884" lon="3.03966">
        <ele>566.2</ele>
        <time>2024-07-26T11:07:18Z</time>
      </trkpt>
      <trkpt lat="45.89884" lon="3.03965">
        <ele>566.5</ele>
        <time>2024-07-26T11:07:26Z</time>
      </trkpt>
      <trkpt lat="45.89885" lon="3.03964">
        <ele>566.5</ele>
        <time>2024-07-26T11:07:29Z</time>
      </trkpt>
      <trkpt lat="45.89884" lon="3.03963">
        <ele>570.6</ele>
        <time>2024-07-26T11:07:32Z</time>
      </trkpt>
      <trkpt lat="45.89883" lon="3.03962">
        <ele>570.5</ele>
        <time>2024-07-26T11:07:33Z</time>
      </trkpt>
      <trkpt lat="45.89882" lon="3.03962">
        <ele>571.8</ele>
        <time>2024-07-26T11:07:35Z</time>
      </trkpt>
      <trkpt lat="45.8988" lon="3.0396">
        <ele>570.2</ele>
        <time>2024-07-26T11:07:37Z</time>
      </trkpt>
      <trkpt lat="45.89879" lon="3.0396">
        <ele>571.9</ele>
        <time>2024-07-26T11:07:41Z</time>
      </trkpt>
      <trkpt lat="45.89878" lon="3.0396">
        <ele>571.2</ele>
        <time>2024-07-26T11:07:43Z</time>
      </trkpt>
      <trkpt lat="45.89877" lon="3.0396">
        <ele>570.6</ele>
        <time>2024-07-26T11:07:45Z</time>
      </trkpt>
      <trkpt lat="45.89876" lon="3.0396">
        <ele>573.5</ele>
        <time>2024-07-26T11:07:47Z</time>
      </trkpt>
      <trkpt lat="45.89875" lon="3.03959">
        <ele>572.7</ele>
        <time>2024-07-26T11:07:49Z</time>
      </trkpt>
      <trkpt lat="45.89875" lon="3.03957">
        <ele>572.4</ele>
        <time>2024-07-26T11:07:50Z</time>
      </trkpt>
      <trkpt lat="45.89875" lon="3.03955">
        <ele>572.1</ele>
        <time>2024-07-26T11:07:52Z</time>
      </trkpt>
      <trkpt lat="45.89874" lon="3.03954">
        <ele>572.3</ele>
        <time>2024-07-26T11:07:59Z</time>
      </trkpt>
      <trkpt lat="45.89874" lon="3.03952">
        <ele>572.8</ele>
        <time>2024-07-26T11:08:02Z</time>
      </trkpt>
      <trkpt lat="45.89875" lon="3.03954">
        <ele>572.8</ele>
        <time>2024-07-26T11:08:05Z</time>
      </trkpt>
      <trkpt lat="45.89875" lon="3.03955">
        <ele>575.5</ele>
        <time>2024-07-26T11:08:07Z</time>
      </trkpt>
      <trkpt lat="45.89876" lon="3.03955">
        <ele>576.4</ele>
        <time>2024-07-26T11:08:10Z</time>
      </trkpt>
      <trkpt lat="45.89876" lon="3.03958">
        <ele>577.6</ele>
        <time>2024-07-26T11:08:12Z</time>
      </trkpt>
      <trkpt lat="45.89875" lon="3.03959">
        <ele>577.3</ele>
        <time>2024-07-26T11:08:13Z</time>
      </trkpt>
      <trkpt lat="45.89874" lon="3.03961">
        <ele>577.3</ele>
        <time>2024-07-26T11:08:14Z</time>
      </trkpt>
      <trkpt lat="45.89874" lon="3.03963">
        <ele>577.3</ele>
        <time>2024-07-26T11:08:15Z</time>
      </trkpt>
      <trkpt lat="45.89873" lon="3.03964">
        <ele>576.9</ele>
        <time>2024-07-26T11:08:16Z</time>
      </trkpt>
      <trkpt lat="45.89874" lon="3.03966">
        <ele>577.7</ele>
        <time>2024-07-26T11:08:17Z</time>
      </trkpt>
      <trkpt lat="45.89873" lon="3.03967">
        <ele>572.2</ele>
        <time>2024-07-26T11:08:18Z</time>
      </trkpt>
      <trkpt lat="45.89872" lon="3.03968">
        <ele>571.8</ele>
        <time>2024-07-26T11:08:19Z</time>
      </trkpt>
      <trkpt lat="45.89871" lon="3.03969">
        <ele>571.3</ele>
        <time>2024-07-26T11:08:20Z</time>
      </trkpt>
      <trkpt lat="45.8987" lon="3.03969">
        <ele>574</ele>
        <time>2024-07-26T11:08:21Z</time>
      </trkpt>
      <trkpt lat="45.89869" lon="3.03971">
        <ele>575.7</ele>
        <time>2024-07-26T11:08:23Z</time>
      </trkpt>
      <trkpt lat="45.89868" lon="3.03971">
        <ele>576.3</ele>
        <time>2024-07-26T11:08:25Z</time>
      </trkpt>
      <trkpt lat="45.89867" lon="3.03971">
        <ele>575.7</ele>
        <time>2024-07-26T11:08:27Z</time>
      </trkpt>
      <trkpt lat="45.89864" lon="3.03972">
        <ele>567.4</ele>
        <time>2024-07-26T11:08:29Z</time>
      </trkpt>
      <trkpt lat="45.89863" lon="3.03972">
        <ele>570</ele>
        <time>2024-07-26T11:08:30Z</time>
      </trkpt>
      <trkpt lat="45.89862" lon="3.03972">
        <ele>569.4</ele>
        <time>2024-07-26T11:08:32Z</time>
      </trkpt>
      <trkpt lat="45.89861" lon="3.03973">
        <ele>568.7</ele>
        <time>2024-07-26T11:08:33Z</time>
      </trkpt>
      <trkpt lat="45.8986" lon="3.03974">
        <ele>569.2</ele>
        <time>2024-07-26T11:08:34Z</time>
      </trkpt>
      <trkpt lat="45.89859" lon="3.03974">
        <ele>570.3</ele>
        <time>2024-07-26T11:08:35Z</time>
      </trkpt>
      <trkpt lat="45.89857" lon="3.03975">
        <ele>572.1</ele>
        <time>2024-07-26T11:08:37Z</time>
      </trkpt>
      <trkpt lat="45.89856" lon="3.03976">
        <ele>571.6</ele>
        <time>2024-07-26T11:08:38Z</time>
      </trkpt>
      <trkpt lat="45.89855" lon="3.03977">
        <ele>570.6</ele>
        <time>2024-07-26T11:08:39Z</time>
      </trkpt>
      <trkpt lat="45.89854" lon="3.03977">
        <ele>570.9</ele>
        <time>2024-07-26T11:08:40Z</time>
      </trkpt>
      <trkpt lat="45.89852" lon="3.03977">
        <ele>570</ele>
        <time>2024-07-26T11:08:42Z</time>
      </trkpt>
      <trkpt lat="45.89852" lon="3.03976">
        <ele>568.5</ele>
        <time>2024-07-26T11:08:43Z</time>
      </trkpt>
      <trkpt lat="45.8985" lon="3.03977">
        <ele>567</ele>
        <time>2024-07-26T11:08:45Z</time>
      </trkpt>
      <trkpt lat="45.8985" lon="3.03979">
        <ele>566.1</ele>
        <time>2024-07-26T11:08:47Z</time>
      </trkpt>
      <trkpt lat="45.89849" lon="3.0398">
        <ele>564.4</ele>
        <time>2024-07-26T11:08:49Z</time>
      </trkpt>
      <trkpt lat="45.89848" lon="3.03982">
        <ele>562.9</ele>
        <time>2024-07-26T11:08:51Z</time>
      </trkpt>
      <trkpt lat="45.89849" lon="3.03984">
        <ele>567.8</ele>
        <time>2024-07-26T11:08:53Z</time>
      </trkpt>
      <trkpt lat="45.89848" lon="3.03986">
        <ele>566.6</ele>
        <time>2024-07-26T11:08:55Z</time>
      </trkpt>
      <trkpt lat="45.89849" lon="3.03988">
        <ele>566.3</ele>
        <time>2024-07-26T11:08:57Z</time>
      </trkpt>
      <trkpt lat="45.89848" lon="3.0399">
        <ele>564.6</ele>
        <time>2024-07-26T11:08:59Z</time>
      </trkpt>
      <trkpt lat="45.89847" lon="3.03991">
        <ele>566</ele>
        <time>2024-07-26T11:09:01Z</time>
      </trkpt>
      <trkpt lat="45.89846" lon="3.03993">
        <ele>566.3</ele>
        <time>2024-07-26T11:09:03Z</time>
      </trkpt>
      <trkpt lat="45.89846" lon="3.03994">
        <ele>565.5</ele>
        <time>2024-07-26T11:09:05Z</time>
      </trkpt>
      <trkpt lat="45.89845" lon="3.03995">
        <ele>565.8</ele>
        <time>2024-07-26T11:09:07Z</time>
      </trkpt>
      <trkpt lat="45.89845" lon="3.03997">
        <ele>566.2</ele>
        <time>2024-07-26T11:09:10Z</time>
      </trkpt>
      <trkpt lat="45.89846" lon="3.03998">
        <ele>567.5</ele>
        <time>2024-07-26T11:09:11Z</time>
      </trkpt>
      <trkpt lat="45.89847" lon="3.03999">
        <ele>567</ele>
        <time>2024-07-26T11:09:12Z</time>
      </trkpt>
      <trkpt lat="45.89848" lon="3.04">
        <ele>567.6</ele>
        <time>2024-07-26T11:09:13Z</time>
      </trkpt>
      <trkpt lat="45.89849" lon="3.04001">
        <ele>568.5</ele>
        <time>2024-07-26T11:09:14Z</time>
      </trkpt>
      <trkpt lat="45.89849" lon="3.04003">
        <ele>570.6</ele>
        <time>2024-07-26T11:09:16Z</time>
      </trkpt>
      <trkpt lat="45.89848" lon="3.04004">
        <ele>568.7</ele>
        <time>2024-07-26T11:09:18Z</time>
      </trkpt>
      <trkpt lat="45.89846" lon="3.04004">
        <ele>568.4</ele>
        <time>2024-07-26T11:09:20Z</time>
      </trkpt>
      <trkpt lat="45.89845" lon="3.04004">
        <ele>568.7</ele>
        <time>2024-07-26T11:09:21Z</time>
      </trkpt>
      <trkpt lat="45.89844" lon="3.04005">
        <ele>569.5</ele>
        <time>2024-07-26T11:09:22Z</time>
      </trkpt>
      <trkpt lat="45.89843" lon="3.04006">
        <ele>569.7</ele>
        <time>2024-07-26T11:09:24Z</time>
      </trkpt>
      <trkpt lat="45.89843" lon="3.04008">
        <ele>570.3</ele>
        <time>2024-07-26T11:09:26Z</time>
      </trkpt>
      <trkpt lat="45.89843" lon="3.04009">
        <ele>571.8</ele>
        <time>2024-07-26T11:09:28Z</time>
      </trkpt>
      <trkpt lat="45.89844" lon="3.04011">
        <ele>571.7</ele>
        <time>2024-07-26T11:09:30Z</time>
      </trkpt>
      <trkpt lat="45.89845" lon="3.04012">
        <ele>572</ele>
        <time>2024-07-26T11:09:32Z</time>
      </trkpt>
      <trkpt lat="45.89844" lon="3.04013">
        <ele>573.1</ele>
        <time>2024-07-26T11:09:34Z</time>
      </trkpt>
      <trkpt lat="45.89844" lon="3.04015">
        <ele>574</ele>
        <time>2024-07-26T11:09:36Z</time>
      </trkpt>
      <trkpt lat="45.89843" lon="3.04016">
        <ele>573.3</ele>
        <time>2024-07-26T11:09:38Z</time>
      </trkpt>
      <trkpt lat="45.89843" lon="3.04017">
        <ele>575</ele>
        <time>2024-07-26T11:09:43Z</time>
      </trkpt>
      <trkpt lat="45.89844" lon="3.04019">
        <ele>576.5</ele>
        <time>2024-07-26T11:09:44Z</time>
      </trkpt>
      <trkpt lat="45.89845" lon="3.0402">
        <ele>576.9</ele>
        <time>2024-07-26T11:09:45Z</time>
      </trkpt>
      <trkpt lat="45.89845" lon="3.04022">
        <ele>576.7</ele>
        <time>2024-07-26T11:09:46Z</time>
      </trkpt>
      <trkpt lat="45.89846" lon="3.04024">
        <ele>579.6</ele>
        <time>2024-07-26T11:09:47Z</time>
      </trkpt>
      <trkpt lat="45.89847" lon="3.04025">
        <ele>580.4</ele>
        <time>2024-07-26T11:09:48Z</time>
      </trkpt>
      <trkpt lat="45.89848" lon="3.04026">
        <ele>579.1</ele>
        <time>2024-07-26T11:09:50Z</time>
      </trkpt>
      <trkpt lat="45.89848" lon="3.04028">
        <ele>578.7</ele>
        <time>2024-07-26T11:09:53Z</time>
      </trkpt>
      <trkpt lat="45.89847" lon="3.04029">
        <ele>573.8</ele>
        <time>2024-07-26T11:09:54Z</time>
      </trkpt>
      <trkpt lat="45.89846" lon="3.04029">
        <ele>575.7</ele>
        <time>2024-07-26T11:09:55Z</time>
      </trkpt>
      <trkpt lat="45.89843" lon="3.04029">
        <ele>568.8</ele>
        <time>2024-07-26T11:09:56Z</time>
      </trkpt>
      <trkpt lat="45.89841" lon="3.04028">
        <ele>570.5</ele>
        <time>2024-07-26T11:09:57Z</time>
      </trkpt>
      <trkpt lat="45.8984" lon="3.04028">
        <ele>571.8</ele>
        <time>2024-07-26T11:09:58Z</time>
      </trkpt>
      <trkpt lat="45.89839" lon="3.04027">
        <ele>572.9</ele>
        <time>2024-07-26T11:09:59Z</time>
      </trkpt>
      <trkpt lat="45.89838" lon="3.04026">
        <ele>572.8</ele>
        <time>2024-07-26T11:10:00Z</time>
      </trkpt>
      <trkpt lat="45.89837" lon="3.04025">
        <ele>572.5</ele>
        <time>2024-07-26T11:10:01Z</time>
      </trkpt>
      <trkpt lat="45.89835" lon="3.04025">
        <ele>574</ele>
        <time>2024-07-26T11:10:02Z</time>
      </trkpt>
      <trkpt lat="45.89834" lon="3.04024">
        <ele>574.2</ele>
        <time>2024-07-26T11:10:03Z</time>
      </trkpt>
      <trkpt lat="45.89833" lon="3.04024">
        <ele>574.8</ele>
        <time>2024-07-26T11:10:04Z</time>
      </trkpt>
      <trkpt lat="45.89832" lon="3.04023">
        <ele>573.5</ele>
        <time>2024-07-26T11:10:05Z</time>
      </trkpt>
      <trkpt lat="45.89833" lon="3.04024">
        <ele>570.8</ele>
        <time>2024-07-26T11:10:10Z</time>
      </trkpt>
      <trkpt lat="45.89834" lon="3.04028">
        <ele>571.8</ele>
        <time>2024-07-26T11:10:12Z</time>
      </trkpt>
      <trkpt lat="45.89834" lon="3.0403">
        <ele>572.8</ele>
        <time>2024-07-26T11:10:14Z</time>
      </trkpt>
      <trkpt lat="45.89834" lon="3.04032">
        <ele>572.6</ele>
        <time>2024-07-26T11:10:16Z</time>
      </trkpt>
      <trkpt lat="45.89833" lon="3.04034">
        <ele>573.1</ele>
        <time>2024-07-26T11:10:18Z</time>
      </trkpt>
      <trkpt lat="45.89833" lon="3.04035">
        <ele>573.8</ele>
        <time>2024-07-26T11:10:19Z</time>
      </trkpt>
      <trkpt lat="45.89833" lon="3.04037">
        <ele>572.8</ele>
        <time>2024-07-26T11:10:21Z</time>
      </trkpt>
      <trkpt lat="45.89834" lon="3.04039">
        <ele>572.7</ele>
        <time>2024-07-26T11:10:22Z</time>
      </trkpt>
      <trkpt lat="45.89834" lon="3.0404">
        <ele>574.8</ele>
        <time>2024-07-26T11:10:24Z</time>
      </trkpt>
      <trkpt lat="45.89835" lon="3.04042">
        <ele>573.2</ele>
        <time>2024-07-26T11:10:25Z</time>
      </trkpt>
      <trkpt lat="45.89835" lon="3.04044">
        <ele>572.4</ele>
        <time>2024-07-26T11:10:27Z</time>
      </trkpt>
      <trkpt lat="45.89834" lon="3.04045">
        <ele>571.7</ele>
        <time>2024-07-26T11:10:29Z</time>
      </trkpt>
      <trkpt lat="45.89833" lon="3.04047">
        <ele>572.8</ele>
        <time>2024-07-26T11:10:31Z</time>
      </trkpt>
      <trkpt lat="45.89832" lon="3.04048">
        <ele>574.9</ele>
        <time>2024-07-26T11:10:33Z</time>
      </trkpt>
      <trkpt lat="45.89833" lon="3.0405">
        <ele>573.4</ele>
        <time>2024-07-26T11:10:35Z</time>
      </trkpt>
      <trkpt lat="45.89834" lon="3.04052">
        <ele>574.1</ele>
        <time>2024-07-26T11:10:36Z</time>
      </trkpt>
      <trkpt lat="45.89834" lon="3.04053">
        <ele>574.8</ele>
        <time>2024-07-26T11:10:37Z</time>
      </trkpt>
      <trkpt lat="45.89835" lon="3.04055">
        <ele>575.4</ele>
        <time>2024-07-26T11:10:39Z</time>
      </trkpt>
      <trkpt lat="45.89835" lon="3.04056">
        <ele>577.8</ele>
        <time>2024-07-26T11:10:44Z</time>
      </trkpt>
      <trkpt lat="45.89836" lon="3.04057">
        <ele>578.7</ele>
        <time>2024-07-26T11:10:47Z</time>
      </trkpt>
      <trkpt lat="45.89835" lon="3.04059">
        <ele>577.7</ele>
        <time>2024-07-26T11:10:49Z</time>
      </trkpt>
      <trkpt lat="45.89834" lon="3.0406">
        <ele>577.7</ele>
        <time>2024-07-26T11:10:52Z</time>
      </trkpt>
      <trkpt lat="45.89832" lon="3.0406">
        <ele>576.8</ele>
        <time>2024-07-26T11:10:54Z</time>
      </trkpt>
      <trkpt lat="45.89831" lon="3.04062">
        <ele>577</ele>
        <time>2024-07-26T11:10:57Z</time>
      </trkpt>
      <trkpt lat="45.8983" lon="3.04063">
        <ele>578.4</ele>
        <time>2024-07-26T11:11:02Z</time>
      </trkpt>
      <trkpt lat="45.89829" lon="3.04065">
        <ele>578.6</ele>
        <time>2024-07-26T11:11:04Z</time>
      </trkpt>
      <trkpt lat="45.89828" lon="3.04066">
        <ele>581.9</ele>
        <time>2024-07-26T11:11:07Z</time>
      </trkpt>
      <trkpt lat="45.89828" lon="3.04067">
        <ele>581.4</ele>
        <time>2024-07-26T11:11:10Z</time>
      </trkpt>
      <trkpt lat="45.89828" lon="3.04069">
        <ele>581.8</ele>
        <time>2024-07-26T11:11:12Z</time>
      </trkpt>
      <trkpt lat="45.89828" lon="3.0407">
        <ele>582.1</ele>
        <time>2024-07-26T11:11:13Z</time>
      </trkpt>
      <trkpt lat="45.89827" lon="3.04072">
        <ele>581.1</ele>
        <time>2024-07-26T11:11:14Z</time>
      </trkpt>
      <trkpt lat="45.89826" lon="3.04073">
        <ele>581</ele>
        <time>2024-07-26T11:11:16Z</time>
      </trkpt>
      <trkpt lat="45.89825" lon="3.04075">
        <ele>580.6</ele>
        <time>2024-07-26T11:11:18Z</time>
      </trkpt>
      <trkpt lat="45.89825" lon="3.04077">
        <ele>580.1</ele>
        <time>2024-07-26T11:11:19Z</time>
      </trkpt>
      <trkpt lat="45.89825" lon="3.04079">
        <ele>581.6</ele>
        <time>2024-07-26T11:11:20Z</time>
      </trkpt>
      <trkpt lat="45.89824" lon="3.0408">
        <ele>581.8</ele>
        <time>2024-07-26T11:11:21Z</time>
      </trkpt>
      <trkpt lat="45.89824" lon="3.04081">
        <ele>582</ele>
        <time>2024-07-26T11:11:22Z</time>
      </trkpt>
      <trkpt lat="45.89823" lon="3.04083">
        <ele>582.6</ele>
        <time>2024-07-26T11:11:24Z</time>
      </trkpt>
      <trkpt lat="45.89822" lon="3.04084">
        <ele>582.4</ele>
        <time>2024-07-26T11:11:26Z</time>
      </trkpt>
      <trkpt lat="45.89822" lon="3.04085">
        <ele>583.2</ele>
        <time>2024-07-26T11:11:29Z</time>
      </trkpt>
      <trkpt lat="45.8982" lon="3.04084">
        <ele>579.7</ele>
        <time>2024-07-26T11:11:32Z</time>
      </trkpt>
      <trkpt lat="45.89819" lon="3.04083">
        <ele>580.8</ele>
        <time>2024-07-26T11:11:34Z</time>
      </trkpt>
      <trkpt lat="45.89818" lon="3.04084">
        <ele>580.6</ele>
        <time>2024-07-26T11:11:35Z</time>
      </trkpt>
      <trkpt lat="45.89816" lon="3.04085">
        <ele>580.4</ele>
        <time>2024-07-26T11:11:37Z</time>
      </trkpt>
      <trkpt lat="45.89816" lon="3.04086">
        <ele>583.1</ele>
        <time>2024-07-26T11:11:39Z</time>
      </trkpt>
      <trkpt lat="45.89815" lon="3.04087">
        <ele>582.8</ele>
        <time>2024-07-26T11:11:41Z</time>
      </trkpt>
      <trkpt lat="45.89814" lon="3.04087">
        <ele>582.1</ele>
        <time>2024-07-26T11:11:43Z</time>
      </trkpt>
      <trkpt lat="45.89812" lon="3.04086">
        <ele>582.2</ele>
        <time>2024-07-26T11:11:45Z</time>
      </trkpt>
      <trkpt lat="45.89812" lon="3.04086">
        <ele>582.3</ele>
        <time>2024-07-26T11:11:46Z</time>
      </trkpt>
      <trkpt lat="45.8981" lon="3.04087">
        <ele>582</ele>
        <time>2024-07-26T11:11:47Z</time>
      </trkpt>
      <trkpt lat="45.89809" lon="3.04087">
        <ele>583</ele>
        <time>2024-07-26T11:11:48Z</time>
      </trkpt>
      <trkpt lat="45.89808" lon="3.04086">
        <ele>582.2</ele>
        <time>2024-07-26T11:11:49Z</time>
      </trkpt>
      <trkpt lat="45.89806" lon="3.04086">
        <ele>581.3</ele>
        <time>2024-07-26T11:11:51Z</time>
      </trkpt>
      <trkpt lat="45.89805" lon="3.04086">
        <ele>584.2</ele>
        <time>2024-07-26T11:11:53Z</time>
      </trkpt>
      <trkpt lat="45.89805" lon="3.04087">
        <ele>584.1</ele>
        <time>2024-07-26T11:11:55Z</time>
      </trkpt>
      <trkpt lat="45.89804" lon="3.04087">
        <ele>577.7</ele>
        <time>2024-07-26T11:11:56Z</time>
      </trkpt>
      <trkpt lat="45.89802" lon="3.04087">
        <ele>578.6</ele>
        <time>2024-07-26T11:11:57Z</time>
      </trkpt>
      <trkpt lat="45.89801" lon="3.04087">
        <ele>578.5</ele>
        <time>2024-07-26T11:11:58Z</time>
      </trkpt>
      <trkpt lat="45.898" lon="3.04086">
        <ele>578.2</ele>
        <time>2024-07-26T11:12:00Z</time>
      </trkpt>
      <trkpt lat="45.89801" lon="3.04087">
        <ele>573.6</ele>
        <time>2024-07-26T11:12:03Z</time>
      </trkpt>
      <trkpt lat="45.89803" lon="3.04089">
        <ele>573.1</ele>
        <time>2024-07-26T11:12:05Z</time>
      </trkpt>
      <trkpt lat="45.89803" lon="3.04091">
        <ele>574.5</ele>
        <time>2024-07-26T11:12:06Z</time>
      </trkpt>
      <trkpt lat="45.89804" lon="3.04092">
        <ele>581.3</ele>
        <time>2024-07-26T11:12:10Z</time>
      </trkpt>
      <trkpt lat="45.89804" lon="3.04094">
        <ele>581</ele>
        <time>2024-07-26T11:12:12Z</time>
      </trkpt>
      <trkpt lat="45.89805" lon="3.04096">
        <ele>581.1</ele>
        <time>2024-07-26T11:12:15Z</time>
      </trkpt>
      <trkpt lat="45.89806" lon="3.04099">
        <ele>581.5</ele>
        <time>2024-07-26T11:12:17Z</time>
      </trkpt>
      <trkpt lat="45.89806" lon="3.04101">
        <ele>582</ele>
        <time>2024-07-26T11:12:19Z</time>
      </trkpt>
      <trkpt lat="45.89806" lon="3.04104">
        <ele>581.7</ele>
        <time>2024-07-26T11:12:20Z</time>
      </trkpt>
      <trkpt lat="45.89806" lon="3.04107">
        <ele>582.9</ele>
        <time>2024-07-26T11:12:22Z</time>
      </trkpt>
      <trkpt lat="45.89806" lon="3.04109">
        <ele>583</ele>
        <time>2024-07-26T11:12:23Z</time>
      </trkpt>
      <trkpt lat="45.89807" lon="3.04111">
        <ele>581</ele>
        <time>2024-07-26T11:12:24Z</time>
      </trkpt>
      <trkpt lat="45.89808" lon="3.04114">
        <ele>581.7</ele>
        <time>2024-07-26T11:12:25Z</time>
      </trkpt>
      <trkpt lat="45.89809" lon="3.04115">
        <ele>583.3</ele>
        <time>2024-07-26T11:12:26Z</time>
      </trkpt>
      <trkpt lat="45.89809" lon="3.04117">
        <ele>586.9</ele>
        <time>2024-07-26T11:12:28Z</time>
      </trkpt>
      <trkpt lat="45.8981" lon="3.04118">
        <ele>583.8</ele>
        <time>2024-07-26T11:12:30Z</time>
      </trkpt>
      <trkpt lat="45.89811" lon="3.0412">
        <ele>582.2</ele>
        <time>2024-07-26T11:12:32Z</time>
      </trkpt>
      <trkpt lat="45.89812" lon="3.04122">
        <ele>583.6</ele>
        <time>2024-07-26T11:12:33Z</time>
      </trkpt>
      <trkpt lat="45.89813" lon="3.04124">
        <ele>583.7</ele>
        <time>2024-07-26T11:12:34Z</time>
      </trkpt>
      <trkpt lat="45.89813" lon="3.04126">
        <ele>585.8</ele>
        <time>2024-07-26T11:12:36Z</time>
      </trkpt>
      <trkpt lat="45.89813" lon="3.04127">
        <ele>583.8</ele>
        <time>2024-07-26T11:12:37Z</time>
      </trkpt>
      <trkpt lat="45.89812" lon="3.04128">
        <ele>582.9</ele>
        <time>2024-07-26T11:12:38Z</time>
      </trkpt>
      <trkpt lat="45.89812" lon="3.04129">
        <ele>584</ele>
        <time>2024-07-26T11:12:40Z</time>
      </trkpt>
      <trkpt lat="45.89811" lon="3.04129">
        <ele>582.9</ele>
        <time>2024-07-26T11:12:43Z</time>
      </trkpt>
      <trkpt lat="45.89811" lon="3.0413">
        <ele>579.5</ele>
        <time>2024-07-26T11:12:46Z</time>
      </trkpt>
      <trkpt lat="45.89811" lon="3.04133">
        <ele>579.3</ele>
        <time>2024-07-26T11:12:48Z</time>
      </trkpt>
      <trkpt lat="45.89811" lon="3.04135">
        <ele>580.3</ele>
        <time>2024-07-26T11:12:50Z</time>
      </trkpt>
      <trkpt lat="45.89811" lon="3.04133">
        <ele>576.5</ele>
        <time>2024-07-26T11:12:54Z</time>
      </trkpt>
      <trkpt lat="45.8981" lon="3.04132">
        <ele>578.3</ele>
        <time>2024-07-26T11:12:56Z</time>
      </trkpt>
      <trkpt lat="45.89808" lon="3.04133">
        <ele>584.6</ele>
        <time>2024-07-26T11:12:58Z</time>
      </trkpt>
      <trkpt lat="45.89808" lon="3.04135">
        <ele>584.4</ele>
        <time>2024-07-26T11:12:59Z</time>
      </trkpt>
      <trkpt lat="45.89808" lon="3.04136">
        <ele>583.9</ele>
        <time>2024-07-26T11:13:00Z</time>
      </trkpt>
      <trkpt lat="45.89807" lon="3.04138">
        <ele>583.1</ele>
        <time>2024-07-26T11:13:01Z</time>
      </trkpt>
      <trkpt lat="45.89807" lon="3.0414">
        <ele>581.7</ele>
        <time>2024-07-26T11:13:03Z</time>
      </trkpt>
      <trkpt lat="45.89806" lon="3.04141">
        <ele>583.7</ele>
        <time>2024-07-26T11:13:05Z</time>
      </trkpt>
      <trkpt lat="45.89806" lon="3.04142">
        <ele>583.2</ele>
        <time>2024-07-26T11:13:06Z</time>
      </trkpt>
      <trkpt lat="45.89805" lon="3.04144">
        <ele>579.4</ele>
        <time>2024-07-26T11:13:08Z</time>
      </trkpt>
      <trkpt lat="45.89804" lon="3.04144">
        <ele>580.5</ele>
        <time>2024-07-26T11:13:09Z</time>
      </trkpt>
      <trkpt lat="45.89803" lon="3.04145">
        <ele>580.9</ele>
        <time>2024-07-26T11:13:10Z</time>
      </trkpt>
      <trkpt lat="45.89802" lon="3.04146">
        <ele>580.6</ele>
        <time>2024-07-26T11:13:11Z</time>
      </trkpt>
      <trkpt lat="45.89801" lon="3.04147">
        <ele>580.9</ele>
        <time>2024-07-26T11:13:12Z</time>
      </trkpt>
      <trkpt lat="45.898" lon="3.04148">
        <ele>582.2</ele>
        <time>2024-07-26T11:13:13Z</time>
      </trkpt>
      <trkpt lat="45.89798" lon="3.04148">
        <ele>580.6</ele>
        <time>2024-07-26T11:13:14Z</time>
      </trkpt>
      <trkpt lat="45.89796" lon="3.04148">
        <ele>580.4</ele>
        <time>2024-07-26T11:13:15Z</time>
      </trkpt>
      <trkpt lat="45.89795" lon="3.04148">
        <ele>580</ele>
        <time>2024-07-26T11:13:16Z</time>
      </trkpt>
      <trkpt lat="45.89794" lon="3.04149">
        <ele>583.8</ele>
        <time>2024-07-26T11:13:19Z</time>
      </trkpt>
      <trkpt lat="45.89794" lon="3.04151">
        <ele>583.9</ele>
        <time>2024-07-26T11:13:20Z</time>
      </trkpt>
      <trkpt lat="45.89794" lon="3.04152">
        <ele>584</ele>
        <time>2024-07-26T11:13:22Z</time>
      </trkpt>
      <trkpt lat="45.89794" lon="3.04153">
        <ele>584.7</ele>
        <time>2024-07-26T11:13:27Z</time>
      </trkpt>
      <trkpt lat="45.89794" lon="3.04154">
        <ele>584.7</ele>
        <time>2024-07-26T11:13:30Z</time>
      </trkpt>
      <trkpt lat="45.89793" lon="3.04154">
        <ele>584.6</ele>
        <time>2024-07-26T11:13:36Z</time>
      </trkpt>
      <trkpt lat="45.89792" lon="3.04156">
        <ele>585</ele>
        <time>2024-07-26T11:13:39Z</time>
      </trkpt>
      <trkpt lat="45.89791" lon="3.04157">
        <ele>585.8</ele>
        <time>2024-07-26T11:13:42Z</time>
      </trkpt>
      <trkpt lat="45.89791" lon="3.04159">
        <ele>585.7</ele>
        <time>2024-07-26T11:13:45Z</time>
      </trkpt>
      <trkpt lat="45.8979" lon="3.0416">
        <ele>586.4</ele>
        <time>2024-07-26T11:13:47Z</time>
      </trkpt>
      <trkpt lat="45.8979" lon="3.0416">
        <ele>586.1</ele>
        <time>2024-07-26T11:13:50Z</time>
      </trkpt>
      <trkpt lat="45.89789" lon="3.04161">
        <ele>585.3</ele>
        <time>2024-07-26T11:13:52Z</time>
      </trkpt>
      <trkpt lat="45.89788" lon="3.04161">
        <ele>585.5</ele>
        <time>2024-07-26T11:13:54Z</time>
      </trkpt>
      <trkpt lat="45.89787" lon="3.04162">
        <ele>585.5</ele>
        <time>2024-07-26T11:13:56Z</time>
      </trkpt>
      <trkpt lat="45.89786" lon="3.04163">
        <ele>585.8</ele>
        <time>2024-07-26T11:13:58Z</time>
      </trkpt>
      <trkpt lat="45.89786" lon="3.04165">
        <ele>585.9</ele>
        <time>2024-07-26T11:14:00Z</time>
      </trkpt>
      <trkpt lat="45.89785" lon="3.04166">
        <ele>586.6</ele>
        <time>2024-07-26T11:14:03Z</time>
      </trkpt>
      <trkpt lat="45.89785" lon="3.04167">
        <ele>588.1</ele>
        <time>2024-07-26T11:14:05Z</time>
      </trkpt>
      <trkpt lat="45.89785" lon="3.04169">
        <ele>588.7</ele>
        <time>2024-07-26T11:14:07Z</time>
      </trkpt>
      <trkpt lat="45.89785" lon="3.0417">
        <ele>589.3</ele>
        <time>2024-07-26T11:14:10Z</time>
      </trkpt>
      <trkpt lat="45.89784" lon="3.04171">
        <ele>589</ele>
        <time>2024-07-26T11:14:13Z</time>
      </trkpt>
      <trkpt lat="45.89783" lon="3.04172">
        <ele>588.2</ele>
        <time>2024-07-26T11:14:14Z</time>
      </trkpt>
      <trkpt lat="45.89782" lon="3.04172">
        <ele>588.7</ele>
        <time>2024-07-26T11:14:15Z</time>
      </trkpt>
      <trkpt lat="45.89781" lon="3.04172">
        <ele>589.8</ele>
        <time>2024-07-26T11:14:17Z</time>
      </trkpt>
      <trkpt lat="45.8978" lon="3.04173">
        <ele>590.1</ele>
        <time>2024-07-26T11:14:19Z</time>
      </trkpt>
      <trkpt lat="45.89779" lon="3.04175">
        <ele>589.3</ele>
        <time>2024-07-26T11:14:21Z</time>
      </trkpt>
      <trkpt lat="45.89779" lon="3.04176">
        <ele>590.1</ele>
        <time>2024-07-26T11:14:23Z</time>
      </trkpt>
      <trkpt lat="45.89778" lon="3.04178">
        <ele>589.1</ele>
        <time>2024-07-26T11:14:25Z</time>
      </trkpt>
      <trkpt lat="45.89777" lon="3.04179">
        <ele>589.7</ele>
        <time>2024-07-26T11:14:27Z</time>
      </trkpt>
      <trkpt lat="45.89776" lon="3.04181">
        <ele>589.4</ele>
        <time>2024-07-26T11:14:29Z</time>
      </trkpt>
      <trkpt lat="45.89776" lon="3.04182">
        <ele>590.4</ele>
        <time>2024-07-26T11:14:31Z</time>
      </trkpt>
      <trkpt lat="45.89775" lon="3.04183">
        <ele>590.1</ele>
        <time>2024-07-26T11:14:33Z</time>
      </trkpt>
      <trkpt lat="45.89775" lon="3.04184">
        <ele>589.6</ele>
        <time>2024-07-26T11:14:35Z</time>
      </trkpt>
      <trkpt lat="45.89774" lon="3.04185">
        <ele>589.6</ele>
        <time>2024-07-26T11:14:37Z</time>
      </trkpt>
      <trkpt lat="45.89773" lon="3.04186">
        <ele>589.9</ele>
        <time>2024-07-26T11:14:39Z</time>
      </trkpt>
      <trkpt lat="45.89772" lon="3.04186">
        <ele>590.7</ele>
        <time>2024-07-26T11:14:41Z</time>
      </trkpt>
      <trkpt lat="45.89771" lon="3.04187">
        <ele>591.1</ele>
        <time>2024-07-26T11:14:43Z</time>
      </trkpt>
      <trkpt lat="45.89771" lon="3.04188">
        <ele>591.3</ele>
        <time>2024-07-26T11:14:45Z</time>
      </trkpt>
      <trkpt lat="45.8977" lon="3.0419">
        <ele>590.9</ele>
        <time>2024-07-26T11:14:47Z</time>
      </trkpt>
      <trkpt lat="45.8977" lon="3.04191">
        <ele>591.2</ele>
        <time>2024-07-26T11:14:49Z</time>
      </trkpt>
      <trkpt lat="45.8977" lon="3.04193">
        <ele>590.6</ele>
        <time>2024-07-26T11:14:51Z</time>
      </trkpt>
      <trkpt lat="45.8977" lon="3.04194">
        <ele>590.4</ele>
        <time>2024-07-26T11:14:53Z</time>
      </trkpt>
      <trkpt lat="45.8977" lon="3.04196">
        <ele>590.3</ele>
        <time>2024-07-26T11:14:54Z</time>
      </trkpt>
      <trkpt lat="45.89771" lon="3.04198">
        <ele>589</ele>
        <time>2024-07-26T11:14:56Z</time>
      </trkpt>
      <trkpt lat="45.8977" lon="3.042">
        <ele>588.5</ele>
        <time>2024-07-26T11:14:58Z</time>
      </trkpt>
      <trkpt lat="45.8977" lon="3.04202">
        <ele>587.7</ele>
        <time>2024-07-26T11:15:01Z</time>
      </trkpt>
      <trkpt lat="45.8977" lon="3.04204">
        <ele>587.6</ele>
        <time>2024-07-26T11:15:03Z</time>
      </trkpt>
      <trkpt lat="45.89769" lon="3.04204">
        <ele>587.3</ele>
        <time>2024-07-26T11:15:05Z</time>
      </trkpt>
      <trkpt lat="45.89768" lon="3.04206">
        <ele>587.3</ele>
        <time>2024-07-26T11:15:07Z</time>
      </trkpt>
      <trkpt lat="45.89767" lon="3.04208">
        <ele>587.6</ele>
        <time>2024-07-26T11:15:08Z</time>
      </trkpt>
      <trkpt lat="45.89767" lon="3.04209">
        <ele>587.6</ele>
        <time>2024-07-26T11:15:09Z</time>
      </trkpt>
      <trkpt lat="45.89766" lon="3.04211">
        <ele>587.3</ele>
        <time>2024-07-26T11:15:11Z</time>
      </trkpt>
      <trkpt lat="45.89765" lon="3.04211">
        <ele>588.3</ele>
        <time>2024-07-26T11:15:13Z</time>
      </trkpt>
      <trkpt lat="45.89764" lon="3.04212">
        <ele>589.6</ele>
        <time>2024-07-26T11:15:16Z</time>
      </trkpt>
      <trkpt lat="45.89764" lon="3.04214">
        <ele>589.5</ele>
        <time>2024-07-26T11:15:19Z</time>
      </trkpt>
      <trkpt lat="45.89763" lon="3.04216">
        <ele>590.8</ele>
        <time>2024-07-26T11:15:21Z</time>
      </trkpt>
      <trkpt lat="45.89762" lon="3.04217">
        <ele>590.1</ele>
        <time>2024-07-26T11:15:23Z</time>
      </trkpt>
      <trkpt lat="45.89762" lon="3.04218">
        <ele>588.3</ele>
        <time>2024-07-26T11:15:26Z</time>
      </trkpt>
      <trkpt lat="45.8976" lon="3.04219">
        <ele>587.2</ele>
        <time>2024-07-26T11:15:29Z</time>
      </trkpt>
      <trkpt lat="45.89759" lon="3.04219">
        <ele>587.2</ele>
        <time>2024-07-26T11:16:09Z</time>
      </trkpt>
      <trkpt lat="45.89759" lon="3.04221">
        <ele>587.6</ele>
        <time>2024-07-26T11:16:11Z</time>
      </trkpt>
      <trkpt lat="45.89758" lon="3.04222">
        <ele>587.7</ele>
        <time>2024-07-26T11:16:13Z</time>
      </trkpt>
      <trkpt lat="45.89757" lon="3.04224">
        <ele>588.4</ele>
        <time>2024-07-26T11:16:16Z</time>
      </trkpt>
      <trkpt lat="45.89756" lon="3.04226">
        <ele>589.8</ele>
        <time>2024-07-26T11:16:19Z</time>
      </trkpt>
      <trkpt lat="45.89756" lon="3.04228">
        <ele>589.9</ele>
        <time>2024-07-26T11:16:21Z</time>
      </trkpt>
      <trkpt lat="45.89755" lon="3.0423">
        <ele>590.7</ele>
        <time>2024-07-26T11:16:23Z</time>
      </trkpt>
      <trkpt lat="45.89754" lon="3.04231">
        <ele>591.4</ele>
        <time>2024-07-26T11:16:25Z</time>
      </trkpt>
      <trkpt lat="45.89754" lon="3.04233">
        <ele>592.5</ele>
        <time>2024-07-26T11:16:27Z</time>
      </trkpt>
      <trkpt lat="45.89753" lon="3.04234">
        <ele>593.5</ele>
        <time>2024-07-26T11:16:30Z</time>
      </trkpt>
      <trkpt lat="45.89752" lon="3.04235">
        <ele>593.5</ele>
        <time>2024-07-26T11:16:32Z</time>
      </trkpt>
      <trkpt lat="45.89751" lon="3.04237">
        <ele>593.6</ele>
        <time>2024-07-26T11:16:34Z</time>
      </trkpt>
      <trkpt lat="45.8975" lon="3.04239">
        <ele>593.8</ele>
        <time>2024-07-26T11:16:36Z</time>
      </trkpt>
      <trkpt lat="45.89749" lon="3.04241">
        <ele>594.3</ele>
        <time>2024-07-26T11:16:38Z</time>
      </trkpt>
      <trkpt lat="45.89749" lon="3.04243">
        <ele>594.5</ele>
        <time>2024-07-26T11:16:40Z</time>
      </trkpt>
      <trkpt lat="45.89749" lon="3.04245">
        <ele>594.1</ele>
        <time>2024-07-26T11:16:42Z</time>
      </trkpt>
      <trkpt lat="45.89748" lon="3.04246">
        <ele>593.8</ele>
        <time>2024-07-26T11:16:44Z</time>
      </trkpt>
      <trkpt lat="45.89747" lon="3.04248">
        <ele>594.6</ele>
        <time>2024-07-26T11:16:46Z</time>
      </trkpt>
      <trkpt lat="45.89747" lon="3.0425">
        <ele>595.7</ele>
        <time>2024-07-26T11:16:48Z</time>
      </trkpt>
      <trkpt lat="45.89747" lon="3.04251">
        <ele>596.3</ele>
        <time>2024-07-26T11:16:50Z</time>
      </trkpt>
      <trkpt lat="45.89747" lon="3.04253">
        <ele>596.1</ele>
        <time>2024-07-26T11:16:52Z</time>
      </trkpt>
      <trkpt lat="45.89746" lon="3.04254">
        <ele>595.5</ele>
        <time>2024-07-26T11:16:54Z</time>
      </trkpt>
      <trkpt lat="45.89745" lon="3.04254">
        <ele>593</ele>
        <time>2024-07-26T11:16:57Z</time>
      </trkpt>
      <trkpt lat="45.89745" lon="3.04256">
        <ele>593.2</ele>
        <time>2024-07-26T11:17:02Z</time>
      </trkpt>
      <trkpt lat="45.89744" lon="3.04258">
        <ele>593.3</ele>
        <time>2024-07-26T11:17:04Z</time>
      </trkpt>
      <trkpt lat="45.89745" lon="3.0426">
        <ele>594.2</ele>
        <time>2024-07-26T11:17:06Z</time>
      </trkpt>
      <trkpt lat="45.89746" lon="3.04261">
        <ele>593.5</ele>
        <time>2024-07-26T11:17:08Z</time>
      </trkpt>
      <trkpt lat="45.89748" lon="3.04263">
        <ele>593.8</ele>
        <time>2024-07-26T11:17:10Z</time>
      </trkpt>
      <trkpt lat="45.89748" lon="3.04264">
        <ele>593.7</ele>
        <time>2024-07-26T11:17:11Z</time>
      </trkpt>
      <trkpt lat="45.89748" lon="3.04266">
        <ele>593.8</ele>
        <time>2024-07-26T11:17:13Z</time>
      </trkpt>
      <trkpt lat="45.89748" lon="3.04267">
        <ele>593.2</ele>
        <time>2024-07-26T11:17:15Z</time>
      </trkpt>
      <trkpt lat="45.89748" lon="3.04269">
        <ele>593.7</ele>
        <time>2024-07-26T11:17:17Z</time>
      </trkpt>
      <trkpt lat="45.89747" lon="3.0427">
        <ele>592</ele>
        <time>2024-07-26T11:17:19Z</time>
      </trkpt>
      <trkpt lat="45.89747" lon="3.04271">
        <ele>592.6</ele>
        <time>2024-07-26T11:17:21Z</time>
      </trkpt>
      <trkpt lat="45.89746" lon="3.04272">
        <ele>592.7</ele>
        <time>2024-07-26T11:17:23Z</time>
      </trkpt>
      <trkpt lat="45.89745" lon="3.04273">
        <ele>592.9</ele>
        <time>2024-07-26T11:17:25Z</time>
      </trkpt>
      <trkpt lat="45.89743" lon="3.04274">
        <ele>591.8</ele>
        <time>2024-07-26T11:17:27Z</time>
      </trkpt>
      <trkpt lat="45.89743" lon="3.04274">
        <ele>591.6</ele>
        <time>2024-07-26T11:17:30Z</time>
      </trkpt>
      <trkpt lat="45.89742" lon="3.04275">
        <ele>591.5</ele>
        <time>2024-07-26T11:17:38Z</time>
      </trkpt>
      <trkpt lat="45.8974" lon="3.04276">
        <ele>591.5</ele>
        <time>2024-07-26T11:17:40Z</time>
      </trkpt>
      <trkpt lat="45.8974" lon="3.04275">
        <ele>591.8</ele>
        <time>2024-07-26T11:17:42Z</time>
      </trkpt>
      <trkpt lat="45.89738" lon="3.04275">
        <ele>593.2</ele>
        <time>2024-07-26T11:17:45Z</time>
      </trkpt>
      <trkpt lat="45.89737" lon="3.04275">
        <ele>593.8</ele>
        <time>2024-07-26T11:17:47Z</time>
      </trkpt>
      <trkpt lat="45.89736" lon="3.04276">
        <ele>592.8</ele>
        <time>2024-07-26T11:17:48Z</time>
      </trkpt>
      <trkpt lat="45.89735" lon="3.04276">
        <ele>592.3</ele>
        <time>2024-07-26T11:17:49Z</time>
      </trkpt>
      <trkpt lat="45.89734" lon="3.04276">
        <ele>592.1</ele>
        <time>2024-07-26T11:17:51Z</time>
      </trkpt>
      <trkpt lat="45.89733" lon="3.04276">
        <ele>592.2</ele>
        <time>2024-07-26T11:17:52Z</time>
      </trkpt>
      <trkpt lat="45.89732" lon="3.04277">
        <ele>593.2</ele>
        <time>2024-07-26T11:17:53Z</time>
      </trkpt>
      <trkpt lat="45.89731" lon="3.04277">
        <ele>592.5</ele>
        <time>2024-07-26T11:17:54Z</time>
      </trkpt>
      <trkpt lat="45.8973" lon="3.04277">
        <ele>590.9</ele>
        <time>2024-07-26T11:17:56Z</time>
      </trkpt>
      <trkpt lat="45.8973" lon="3.04278">
        <ele>593.9</ele>
        <time>2024-07-26T11:17:59Z</time>
      </trkpt>
      <trkpt lat="45.89731" lon="3.04278">
        <ele>597.6</ele>
        <time>2024-07-26T11:18:01Z</time>
      </trkpt>
      <trkpt lat="45.89732" lon="3.04279">
        <ele>598.8</ele>
        <time>2024-07-26T11:18:03Z</time>
      </trkpt>
      <trkpt lat="45.89733" lon="3.0428">
        <ele>600.1</ele>
        <time>2024-07-26T11:18:07Z</time>
      </trkpt>
      <trkpt lat="45.89733" lon="3.04281">
        <ele>600</ele>
        <time>2024-07-26T11:18:08Z</time>
      </trkpt>
      <trkpt lat="45.89733" lon="3.04283">
        <ele>599.8</ele>
        <time>2024-07-26T11:18:09Z</time>
      </trkpt>
      <trkpt lat="45.89733" lon="3.04284">
        <ele>599.5</ele>
        <time>2024-07-26T11:18:10Z</time>
      </trkpt>
      <trkpt lat="45.89733" lon="3.04286">
        <ele>599.6</ele>
        <time>2024-07-26T11:18:11Z</time>
      </trkpt>
      <trkpt lat="45.89732" lon="3.04288">
        <ele>599.4</ele>
        <time>2024-07-26T11:18:12Z</time>
      </trkpt>
      <trkpt lat="45.89732" lon="3.0429">
        <ele>599</ele>
        <time>2024-07-26T11:18:13Z</time>
      </trkpt>
      <trkpt lat="45.89731" lon="3.04293">
        <ele>600.7</ele>
        <time>2024-07-26T11:18:15Z</time>
      </trkpt>
      <trkpt lat="45.8973" lon="3.04294">
        <ele>601.2</ele>
        <time>2024-07-26T11:18:16Z</time>
      </trkpt>
      <trkpt lat="45.89729" lon="3.04295">
        <ele>597.5</ele>
        <time>2024-07-26T11:18:18Z</time>
      </trkpt>
      <trkpt lat="45.89728" lon="3.04296">
        <ele>597.5</ele>
        <time>2024-07-26T11:18:19Z</time>
      </trkpt>
      <trkpt lat="45.89728" lon="3.04297">
        <ele>597.8</ele>
        <time>2024-07-26T11:18:20Z</time>
      </trkpt>
      <trkpt lat="45.89726" lon="3.04299">
        <ele>597.3</ele>
        <time>2024-07-26T11:18:22Z</time>
      </trkpt>
      <trkpt lat="45.89725" lon="3.04301">
        <ele>597.2</ele>
        <time>2024-07-26T11:18:24Z</time>
      </trkpt>
      <trkpt lat="45.89724" lon="3.04303">
        <ele>596.8</ele>
        <time>2024-07-26T11:18:26Z</time>
      </trkpt>
      <trkpt lat="45.89723" lon="3.04304">
        <ele>596.8</ele>
        <time>2024-07-26T11:18:27Z</time>
      </trkpt>
      <trkpt lat="45.89722" lon="3.04305">
        <ele>595.3</ele>
        <time>2024-07-26T11:18:29Z</time>
      </trkpt>
      <trkpt lat="45.8972" lon="3.04307">
        <ele>594.8</ele>
        <time>2024-07-26T11:18:31Z</time>
      </trkpt>
      <trkpt lat="45.89719" lon="3.04308">
        <ele>595</ele>
        <time>2024-07-26T11:18:32Z</time>
      </trkpt>
      <trkpt lat="45.89718" lon="3.04308">
        <ele>594.4</ele>
        <time>2024-07-26T11:18:33Z</time>
      </trkpt>
      <trkpt lat="45.89717" lon="3.04309">
        <ele>593.5</ele>
        <time>2024-07-26T11:18:34Z</time>
      </trkpt>
      <trkpt lat="45.89716" lon="3.04309">
        <ele>592.9</ele>
        <time>2024-07-26T11:18:36Z</time>
      </trkpt>
      <trkpt lat="45.89715" lon="3.0431">
        <ele>593</ele>
        <time>2024-07-26T11:18:37Z</time>
      </trkpt>
      <trkpt lat="45.89714" lon="3.04311">
        <ele>592.4</ele>
        <time>2024-07-26T11:18:38Z</time>
      </trkpt>
      <trkpt lat="45.89713" lon="3.04312">
        <ele>591.4</ele>
        <time>2024-07-26T11:18:39Z</time>
      </trkpt>
      <trkpt lat="45.89711" lon="3.04313">
        <ele>589.8</ele>
        <time>2024-07-26T11:18:41Z</time>
      </trkpt>
      <trkpt lat="45.8971" lon="3.04314">
        <ele>587.5</ele>
        <time>2024-07-26T11:18:42Z</time>
      </trkpt>
      <trkpt lat="45.89709" lon="3.04315">
        <ele>587.1</ele>
        <time>2024-07-26T11:18:43Z</time>
      </trkpt>
      <trkpt lat="45.89708" lon="3.04316">
        <ele>587</ele>
        <time>2024-07-26T11:18:44Z</time>
      </trkpt>
      <trkpt lat="45.89708" lon="3.04317">
        <ele>586.7</ele>
        <time>2024-07-26T11:18:45Z</time>
      </trkpt>
      <trkpt lat="45.89706" lon="3.04319">
        <ele>586.9</ele>
        <time>2024-07-26T11:18:47Z</time>
      </trkpt>
      <trkpt lat="45.89706" lon="3.0432">
        <ele>586.8</ele>
        <time>2024-07-26T11:18:48Z</time>
      </trkpt>
      <trkpt lat="45.89705" lon="3.04322">
        <ele>587.3</ele>
        <time>2024-07-26T11:18:49Z</time>
      </trkpt>
      <trkpt lat="45.89704" lon="3.04323">
        <ele>584.7</ele>
        <time>2024-07-26T11:18:51Z</time>
      </trkpt>
      <trkpt lat="45.89706" lon="3.04326">
        <ele>584.5</ele>
        <time>2024-07-26T11:18:54Z</time>
      </trkpt>
      <trkpt lat="45.89708" lon="3.04327">
        <ele>584.2</ele>
        <time>2024-07-26T11:18:55Z</time>
      </trkpt>
      <trkpt lat="45.89709" lon="3.04328">
        <ele>584.4</ele>
        <time>2024-07-26T11:18:56Z</time>
      </trkpt>
      <trkpt lat="45.8971" lon="3.0433">
        <ele>584.2</ele>
        <time>2024-07-26T11:18:57Z</time>
      </trkpt>
      <trkpt lat="45.89711" lon="3.04331">
        <ele>584.8</ele>
        <time>2024-07-26T11:18:58Z</time>
      </trkpt>
      <trkpt lat="45.89713" lon="3.04332">
        <ele>585.7</ele>
        <time>2024-07-26T11:18:59Z</time>
      </trkpt>
      <trkpt lat="45.89715" lon="3.04332">
        <ele>585.4</ele>
        <time>2024-07-26T11:19:00Z</time>
      </trkpt>
      <trkpt lat="45.89717" lon="3.04333">
        <ele>586.2</ele>
        <time>2024-07-26T11:19:01Z</time>
      </trkpt>
      <trkpt lat="45.89718" lon="3.04334">
        <ele>582.8</ele>
        <time>2024-07-26T11:19:02Z</time>
      </trkpt>
      <trkpt lat="45.89719" lon="3.04335">
        <ele>582.8</ele>
        <time>2024-07-26T11:19:03Z</time>
      </trkpt>
      <trkpt lat="45.89721" lon="3.04336">
        <ele>582.7</ele>
        <time>2024-07-26T11:19:04Z</time>
      </trkpt>
      <trkpt lat="45.89722" lon="3.04337">
        <ele>583.5</ele>
        <time>2024-07-26T11:19:05Z</time>
      </trkpt>
      <trkpt lat="45.89723" lon="3.04338">
        <ele>585.7</ele>
        <time>2024-07-26T11:19:07Z</time>
      </trkpt>
      <trkpt lat="45.89723" lon="3.04339">
        <ele>588.1</ele>
        <time>2024-07-26T11:19:09Z</time>
      </trkpt>
      <trkpt lat="45.89722" lon="3.0434">
        <ele>588.9</ele>
        <time>2024-07-26T11:19:10Z</time>
      </trkpt>
      <trkpt lat="45.89723" lon="3.04342">
        <ele>585.8</ele>
        <time>2024-07-26T11:19:12Z</time>
      </trkpt>
      <trkpt lat="45.89723" lon="3.04344">
        <ele>587.8</ele>
        <time>2024-07-26T11:19:13Z</time>
      </trkpt>
      <trkpt lat="45.89724" lon="3.04345">
        <ele>587.3</ele>
        <time>2024-07-26T11:19:14Z</time>
      </trkpt>
      <trkpt lat="45.89723" lon="3.04346">
        <ele>587.4</ele>
        <time>2024-07-26T11:19:16Z</time>
      </trkpt>
      <trkpt lat="45.89722" lon="3.04347">
        <ele>587.7</ele>
        <time>2024-07-26T11:19:18Z</time>
      </trkpt>
      <trkpt lat="45.89721" lon="3.04347">
        <ele>588.1</ele>
        <time>2024-07-26T11:19:19Z</time>
      </trkpt>
      <trkpt lat="45.8972" lon="3.04346">
        <ele>587.6</ele>
        <time>2024-07-26T11:19:21Z</time>
      </trkpt>
      <trkpt lat="45.89719" lon="3.04347">
        <ele>589.8</ele>
        <time>2024-07-26T11:19:23Z</time>
      </trkpt>
      <trkpt lat="45.89718" lon="3.04348">
        <ele>586.8</ele>
        <time>2024-07-26T11:19:35Z</time>
      </trkpt>
      <trkpt lat="45.89717" lon="3.04348">
        <ele>586.5</ele>
        <time>2024-07-26T11:19:44Z</time>
      </trkpt>
      <trkpt lat="45.89716" lon="3.04348">
        <ele>586.2</ele>
        <time>2024-07-26T11:19:46Z</time>
      </trkpt>
      <trkpt lat="45.89715" lon="3.04349">
        <ele>586.8</ele>
        <time>2024-07-26T11:19:48Z</time>
      </trkpt>
      <trkpt lat="45.89714" lon="3.0435">
        <ele>583.5</ele>
        <time>2024-07-26T11:19:49Z</time>
      </trkpt>
      <trkpt lat="45.89713" lon="3.0435">
        <ele>582.8</ele>
        <time>2024-07-26T11:19:52Z</time>
      </trkpt>
      <trkpt lat="45.89711" lon="3.0435">
        <ele>580.4</ele>
        <time>2024-07-26T11:19:53Z</time>
      </trkpt>
      <trkpt lat="45.8971" lon="3.04351">
        <ele>578.6</ele>
        <time>2024-07-26T11:19:54Z</time>
      </trkpt>
      <trkpt lat="45.89709" lon="3.04351">
        <ele>577</ele>
        <time>2024-07-26T11:19:55Z</time>
      </trkpt>
      <trkpt lat="45.89709" lon="3.04353">
        <ele>579.1</ele>
        <time>2024-07-26T11:19:58Z</time>
      </trkpt>
      <trkpt lat="45.89709" lon="3.04354">
        <ele>578.8</ele>
        <time>2024-07-26T11:20:00Z</time>
      </trkpt>
      <trkpt lat="45.89709" lon="3.04356">
        <ele>577.9</ele>
        <time>2024-07-26T11:20:05Z</time>
      </trkpt>
      <trkpt lat="45.89711" lon="3.04357">
        <ele>577.9</ele>
        <time>2024-07-26T11:20:08Z</time>
      </trkpt>
      <trkpt lat="45.89712" lon="3.04357">
        <ele>577</ele>
        <time>2024-07-26T11:20:09Z</time>
      </trkpt>
      <trkpt lat="45.89712" lon="3.04359">
        <ele>577.2</ele>
        <time>2024-07-26T11:20:15Z</time>
      </trkpt>
      <trkpt lat="45.89713" lon="3.04361">
        <ele>579.7</ele>
        <time>2024-07-26T11:20:16Z</time>
      </trkpt>
      <trkpt lat="45.89714" lon="3.04362">
        <ele>581.6</ele>
        <time>2024-07-26T11:20:17Z</time>
      </trkpt>
      <trkpt lat="45.89716" lon="3.04363">
        <ele>582.6</ele>
        <time>2024-07-26T11:20:18Z</time>
      </trkpt>
      <trkpt lat="45.89717" lon="3.04364">
        <ele>582.9</ele>
        <time>2024-07-26T11:20:19Z</time>
      </trkpt>
      <trkpt lat="45.8972" lon="3.04364">
        <ele>582.7</ele>
        <time>2024-07-26T11:20:20Z</time>
      </trkpt>
      <trkpt lat="45.89721" lon="3.04364">
        <ele>583.6</ele>
        <time>2024-07-26T11:20:22Z</time>
      </trkpt>
      <trkpt lat="45.89721" lon="3.04365">
        <ele>583.2</ele>
        <time>2024-07-26T11:20:24Z</time>
      </trkpt>
      <trkpt lat="45.89721" lon="3.04366">
        <ele>583.3</ele>
        <time>2024-07-26T11:20:28Z</time>
      </trkpt>
      <trkpt lat="45.89719" lon="3.04366">
        <ele>582.6</ele>
        <time>2024-07-26T11:20:34Z</time>
      </trkpt>
      <trkpt lat="45.89719" lon="3.04367">
        <ele>580.3</ele>
        <time>2024-07-26T11:20:37Z</time>
      </trkpt>
      <trkpt lat="45.89718" lon="3.04369">
        <ele>578.6</ele>
        <time>2024-07-26T11:20:38Z</time>
      </trkpt>
      <trkpt lat="45.89717" lon="3.0437">
        <ele>578.9</ele>
        <time>2024-07-26T11:20:40Z</time>
      </trkpt>
      <trkpt lat="45.89718" lon="3.04371">
        <ele>579.4</ele>
        <time>2024-07-26T11:20:45Z</time>
      </trkpt>
      <trkpt lat="45.89719" lon="3.04372">
        <ele>577.7</ele>
        <time>2024-07-26T11:20:47Z</time>
      </trkpt>
      <trkpt lat="45.89719" lon="3.04374">
        <ele>574.1</ele>
        <time>2024-07-26T11:20:50Z</time>
      </trkpt>
      <trkpt lat="45.89719" lon="3.04377">
        <ele>578.9</ele>
        <time>2024-07-26T11:20:52Z</time>
      </trkpt>
      <trkpt lat="45.89718" lon="3.04379">
        <ele>579</ele>
        <time>2024-07-26T11:20:54Z</time>
      </trkpt>
      <trkpt lat="45.89719" lon="3.04381">
        <ele>576.8</ele>
        <time>2024-07-26T11:21:00Z</time>
      </trkpt>
      <trkpt lat="45.8972" lon="3.04381">
        <ele>577.1</ele>
        <time>2024-07-26T11:21:01Z</time>
      </trkpt>
      <trkpt lat="45.8972" lon="3.04382">
        <ele>577</ele>
        <time>2024-07-26T11:21:02Z</time>
      </trkpt>
      <trkpt lat="45.89721" lon="3.04385">
        <ele>577.3</ele>
        <time>2024-07-26T11:21:04Z</time>
      </trkpt>
      <trkpt lat="45.89721" lon="3.04387">
        <ele>577.2</ele>
        <time>2024-07-26T11:21:06Z</time>
      </trkpt>
      <trkpt lat="45.8972" lon="3.04388">
        <ele>577.7</ele>
        <time>2024-07-26T11:21:08Z</time>
      </trkpt>
      <trkpt lat="45.8972" lon="3.0439">
        <ele>578.7</ele>
        <time>2024-07-26T11:21:10Z</time>
      </trkpt>
      <trkpt lat="45.89721" lon="3.04392">
        <ele>577.7</ele>
        <time>2024-07-26T11:21:12Z</time>
      </trkpt>
      <trkpt lat="45.89721" lon="3.04394">
        <ele>577.3</ele>
        <time>2024-07-26T11:21:14Z</time>
      </trkpt>
      <trkpt lat="45.8972" lon="3.04395">
        <ele>578</ele>
        <time>2024-07-26T11:21:16Z</time>
      </trkpt>
      <trkpt lat="45.89719" lon="3.04396">
        <ele>578</ele>
        <time>2024-07-26T11:21:18Z</time>
      </trkpt>
      <trkpt lat="45.89719" lon="3.04398">
        <ele>579.4</ele>
        <time>2024-07-26T11:21:20Z</time>
      </trkpt>
      <trkpt lat="45.89719" lon="3.044">
        <ele>579.9</ele>
        <time>2024-07-26T11:21:22Z</time>
      </trkpt>
      <trkpt lat="45.8972" lon="3.04402">
        <ele>582.3</ele>
        <time>2024-07-26T11:21:24Z</time>
      </trkpt>
      <trkpt lat="45.89721" lon="3.04403">
        <ele>580.8</ele>
        <time>2024-07-26T11:21:26Z</time>
      </trkpt>
      <trkpt lat="45.89722" lon="3.04405">
        <ele>579.1</ele>
        <time>2024-07-26T11:21:28Z</time>
      </trkpt>
      <trkpt lat="45.89723" lon="3.04406">
        <ele>583.1</ele>
        <time>2024-07-26T11:21:31Z</time>
      </trkpt>
      <trkpt lat="45.89725" lon="3.04405">
        <ele>583.8</ele>
        <time>2024-07-26T11:21:32Z</time>
      </trkpt>
      <trkpt lat="45.89726" lon="3.04405">
        <ele>583.5</ele>
        <time>2024-07-26T11:21:33Z</time>
      </trkpt>
      <trkpt lat="45.89727" lon="3.04405">
        <ele>586.2</ele>
        <time>2024-07-26T11:21:34Z</time>
      </trkpt>
      <trkpt lat="45.89728" lon="3.04406">
        <ele>586.3</ele>
        <time>2024-07-26T11:21:36Z</time>
      </trkpt>
      <trkpt lat="45.8973" lon="3.04407">
        <ele>588.8</ele>
        <time>2024-07-26T11:21:38Z</time>
      </trkpt>
      <trkpt lat="45.89731" lon="3.04409">
        <ele>589.7</ele>
        <time>2024-07-26T11:21:40Z</time>
      </trkpt>
      <trkpt lat="45.89731" lon="3.04411">
        <ele>588.9</ele>
        <time>2024-07-26T11:21:42Z</time>
      </trkpt>
      <trkpt lat="45.8973" lon="3.04412">
        <ele>587.7</ele>
        <time>2024-07-26T11:21:43Z</time>
      </trkpt>
      <trkpt lat="45.89728" lon="3.04413">
        <ele>585.2</ele>
        <time>2024-07-26T11:21:45Z</time>
      </trkpt>
      <trkpt lat="45.89727" lon="3.04414">
        <ele>584.7</ele>
        <time>2024-07-26T11:21:47Z</time>
      </trkpt>
      <trkpt lat="45.89726" lon="3.04415">
        <ele>586.1</ele>
        <time>2024-07-26T11:21:48Z</time>
      </trkpt>
      <trkpt lat="45.89725" lon="3.04415">
        <ele>585.6</ele>
        <time>2024-07-26T11:21:49Z</time>
      </trkpt>
      <trkpt lat="45.89723" lon="3.04415">
        <ele>584.3</ele>
        <time>2024-07-26T11:21:50Z</time>
      </trkpt>
      <trkpt lat="45.89722" lon="3.04415">
        <ele>583.6</ele>
        <time>2024-07-26T11:21:51Z</time>
      </trkpt>
      <trkpt lat="45.89721" lon="3.04415">
        <ele>582.3</ele>
        <time>2024-07-26T11:21:52Z</time>
      </trkpt>
      <trkpt lat="45.8972" lon="3.04414">
        <ele>583.2</ele>
        <time>2024-07-26T11:21:53Z</time>
      </trkpt>
      <trkpt lat="45.89719" lon="3.04414">
        <ele>581.8</ele>
        <time>2024-07-26T11:21:54Z</time>
      </trkpt>
      <trkpt lat="45.89717" lon="3.04413">
        <ele>574.3</ele>
        <time>2024-07-26T11:21:55Z</time>
      </trkpt>
      <trkpt lat="45.89715" lon="3.04412">
        <ele>574.3</ele>
        <time>2024-07-26T11:21:56Z</time>
      </trkpt>
      <trkpt lat="45.89713" lon="3.04411">
        <ele>573.1</ele>
        <time>2024-07-26T11:21:57Z</time>
      </trkpt>
      <trkpt lat="45.89711" lon="3.04412">
        <ele>574.4</ele>
        <time>2024-07-26T11:21:58Z</time>
      </trkpt>
      <trkpt lat="45.8971" lon="3.04412">
        <ele>573.7</ele>
        <time>2024-07-26T11:21:59Z</time>
      </trkpt>
      <trkpt lat="45.89708" lon="3.04412">
        <ele>575.1</ele>
        <time>2024-07-26T11:22:00Z</time>
      </trkpt>
      <trkpt lat="45.89707" lon="3.04413">
        <ele>574.9</ele>
        <time>2024-07-26T11:22:01Z</time>
      </trkpt>
      <trkpt lat="45.89706" lon="3.04414">
        <ele>575</ele>
        <time>2024-07-26T11:22:03Z</time>
      </trkpt>
      <trkpt lat="45.89706" lon="3.04416">
        <ele>574.4</ele>
        <time>2024-07-26T11:22:04Z</time>
      </trkpt>
      <trkpt lat="45.89706" lon="3.04417">
        <ele>573.4</ele>
        <time>2024-07-26T11:22:05Z</time>
      </trkpt>
      <trkpt lat="45.89707" lon="3.04418">
        <ele>574.2</ele>
        <time>2024-07-26T11:22:06Z</time>
      </trkpt>
      <trkpt lat="45.89705" lon="3.04419">
        <ele>571.2</ele>
        <time>2024-07-26T11:22:09Z</time>
      </trkpt>
      <trkpt lat="45.89704" lon="3.04419">
        <ele>571.1</ele>
        <time>2024-07-26T11:22:11Z</time>
      </trkpt>
      <trkpt lat="45.89703" lon="3.04419">
        <ele>569.4</ele>
        <time>2024-07-26T11:22:12Z</time>
      </trkpt>
      <trkpt lat="45.89702" lon="3.04419">
        <ele>570.3</ele>
        <time>2024-07-26T11:22:13Z</time>
      </trkpt>
      <trkpt lat="45.89701" lon="3.0442">
        <ele>570.1</ele>
        <time>2024-07-26T11:22:15Z</time>
      </trkpt>
      <trkpt lat="45.897" lon="3.04421">
        <ele>568.6</ele>
        <time>2024-07-26T11:22:17Z</time>
      </trkpt>
      <trkpt lat="45.89701" lon="3.04423">
        <ele>567.2</ele>
        <time>2024-07-26T11:22:18Z</time>
      </trkpt>
      <trkpt lat="45.897" lon="3.04425">
        <ele>565.5</ele>
        <time>2024-07-26T11:22:20Z</time>
      </trkpt>
      <trkpt lat="45.897" lon="3.04427">
        <ele>566.9</ele>
        <time>2024-07-26T11:22:22Z</time>
      </trkpt>
      <trkpt lat="45.897" lon="3.04429">
        <ele>568.3</ele>
        <time>2024-07-26T11:22:27Z</time>
      </trkpt>
      <trkpt lat="45.89701" lon="3.0443">
        <ele>565.9</ele>
        <time>2024-07-26T11:22:29Z</time>
      </trkpt>
      <trkpt lat="45.897" lon="3.0443">
        <ele>565.2</ele>
        <time>2024-07-26T11:22:34Z</time>
      </trkpt>
      <trkpt lat="45.89699" lon="3.0443">
        <ele>566.4</ele>
        <time>2024-07-26T11:22:36Z</time>
      </trkpt>
      <trkpt lat="45.89698" lon="3.04428">
        <ele>564.3</ele>
        <time>2024-07-26T11:22:37Z</time>
      </trkpt>
      <trkpt lat="45.89697" lon="3.04427">
        <ele>562.5</ele>
        <time>2024-07-26T11:22:38Z</time>
      </trkpt>
      <trkpt lat="45.89696" lon="3.04426">
        <ele>562.7</ele>
        <time>2024-07-26T11:22:39Z</time>
      </trkpt>
      <trkpt lat="45.89695" lon="3.04426">
        <ele>562.5</ele>
        <time>2024-07-26T11:22:40Z</time>
      </trkpt>
      <trkpt lat="45.89693" lon="3.04427">
        <ele>562.2</ele>
        <time>2024-07-26T11:22:41Z</time>
      </trkpt>
      <trkpt lat="45.89692" lon="3.04427">
        <ele>562.8</ele>
        <time>2024-07-26T11:22:42Z</time>
      </trkpt>
      <trkpt lat="45.89692" lon="3.04428">
        <ele>562.9</ele>
        <time>2024-07-26T11:22:45Z</time>
      </trkpt>
      <trkpt lat="45.89691" lon="3.0443">
        <ele>563</ele>
        <time>2024-07-26T11:22:47Z</time>
      </trkpt>
      <trkpt lat="45.89691" lon="3.04431">
        <ele>563.8</ele>
        <time>2024-07-26T11:22:49Z</time>
      </trkpt>
      <trkpt lat="45.89692" lon="3.04433">
        <ele>562.5</ele>
        <time>2024-07-26T11:22:50Z</time>
      </trkpt>
      <trkpt lat="45.89692" lon="3.04434">
        <ele>561.1</ele>
        <time>2024-07-26T11:22:51Z</time>
      </trkpt>
      <trkpt lat="45.89693" lon="3.04436">
        <ele>561.8</ele>
        <time>2024-07-26T11:22:52Z</time>
      </trkpt>
      <trkpt lat="45.89694" lon="3.04437">
        <ele>562.7</ele>
        <time>2024-07-26T11:22:53Z</time>
      </trkpt>
      <trkpt lat="45.89694" lon="3.04439">
        <ele>562</ele>
        <time>2024-07-26T11:22:55Z</time>
      </trkpt>
      <trkpt lat="45.89693" lon="3.0444">
        <ele>563.2</ele>
        <time>2024-07-26T11:22:56Z</time>
      </trkpt>
      <trkpt lat="45.89693" lon="3.04442">
        <ele>565.3</ele>
        <time>2024-07-26T11:22:57Z</time>
      </trkpt>
      <trkpt lat="45.89692" lon="3.04444">
        <ele>566.3</ele>
        <time>2024-07-26T11:22:59Z</time>
      </trkpt>
      <trkpt lat="45.89692" lon="3.04446">
        <ele>564.9</ele>
        <time>2024-07-26T11:23:01Z</time>
      </trkpt>
      <trkpt lat="45.89694" lon="3.04447">
        <ele>565.2</ele>
        <time>2024-07-26T11:23:03Z</time>
      </trkpt>
      <trkpt lat="45.89695" lon="3.04447">
        <ele>565</ele>
        <time>2024-07-26T11:23:04Z</time>
      </trkpt>
      <trkpt lat="45.89698" lon="3.04448">
        <ele>569</ele>
        <time>2024-07-26T11:23:05Z</time>
      </trkpt>
      <trkpt lat="45.897" lon="3.04448">
        <ele>570.3</ele>
        <time>2024-07-26T11:23:06Z</time>
      </trkpt>
      <trkpt lat="45.89701" lon="3.04449">
        <ele>570.8</ele>
        <time>2024-07-26T11:23:07Z</time>
      </trkpt>
      <trkpt lat="45.89703" lon="3.0445">
        <ele>571.1</ele>
        <time>2024-07-26T11:23:08Z</time>
      </trkpt>
      <trkpt lat="45.89707" lon="3.04451">
        <ele>571.5</ele>
        <time>2024-07-26T11:23:10Z</time>
      </trkpt>
      <trkpt lat="45.89709" lon="3.04452">
        <ele>574.2</ele>
        <time>2024-07-26T11:23:11Z</time>
      </trkpt>
      <trkpt lat="45.89709" lon="3.04453">
        <ele>573</ele>
        <time>2024-07-26T11:23:12Z</time>
      </trkpt>
      <trkpt lat="45.8971" lon="3.04454">
        <ele>573.6</ele>
        <time>2024-07-26T11:23:14Z</time>
      </trkpt>
      <trkpt lat="45.89708" lon="3.04454">
        <ele>574.4</ele>
        <time>2024-07-26T11:23:16Z</time>
      </trkpt>
      <trkpt lat="45.89706" lon="3.04455">
        <ele>573.9</ele>
        <time>2024-07-26T11:23:19Z</time>
      </trkpt>
      <trkpt lat="45.89705" lon="3.04455">
        <ele>573.9</ele>
        <time>2024-07-26T11:23:20Z</time>
      </trkpt>
      <trkpt lat="45.89704" lon="3.04457">
        <ele>573.7</ele>
        <time>2024-07-26T11:23:22Z</time>
      </trkpt>
      <trkpt lat="45.89704" lon="3.04459">
        <ele>573</ele>
        <time>2024-07-26T11:23:24Z</time>
      </trkpt>
      <trkpt lat="45.89702" lon="3.04459">
        <ele>574.3</ele>
        <time>2024-07-26T11:23:26Z</time>
      </trkpt>
      <trkpt lat="45.89701" lon="3.04458">
        <ele>573.6</ele>
        <time>2024-07-26T11:23:27Z</time>
      </trkpt>
      <trkpt lat="45.897" lon="3.04457">
        <ele>573.6</ele>
        <time>2024-07-26T11:23:28Z</time>
      </trkpt>
      <trkpt lat="45.89699" lon="3.04457">
        <ele>575.1</ele>
        <time>2024-07-26T11:23:31Z</time>
      </trkpt>
      <trkpt lat="45.89698" lon="3.04459">
        <ele>572</ele>
        <time>2024-07-26T11:23:32Z</time>
      </trkpt>
      <trkpt lat="45.89697" lon="3.04459">
        <ele>569.7</ele>
        <time>2024-07-26T11:23:35Z</time>
      </trkpt>
      <trkpt lat="45.89695" lon="3.04458">
        <ele>569.5</ele>
        <time>2024-07-26T11:23:36Z</time>
      </trkpt>
      <trkpt lat="45.89693" lon="3.04457">
        <ele>569.6</ele>
        <time>2024-07-26T11:23:38Z</time>
      </trkpt>
      <trkpt lat="45.89692" lon="3.04457">
        <ele>569.8</ele>
        <time>2024-07-26T11:23:39Z</time>
      </trkpt>
      <trkpt lat="45.89691" lon="3.04458">
        <ele>569.1</ele>
        <time>2024-07-26T11:23:40Z</time>
      </trkpt>
      <trkpt lat="45.8969" lon="3.04458">
        <ele>568.3</ele>
        <time>2024-07-26T11:23:41Z</time>
      </trkpt>
      <trkpt lat="45.89689" lon="3.04459">
        <ele>569.2</ele>
        <time>2024-07-26T11:23:42Z</time>
      </trkpt>
      <trkpt lat="45.89688" lon="3.04461">
        <ele>568.2</ele>
        <time>2024-07-26T11:23:43Z</time>
      </trkpt>
      <trkpt lat="45.89689" lon="3.04463">
        <ele>565.6</ele>
        <time>2024-07-26T11:23:44Z</time>
      </trkpt>
      <trkpt lat="45.89689" lon="3.04466">
        <ele>566.6</ele>
        <time>2024-07-26T11:23:45Z</time>
      </trkpt>
      <trkpt lat="45.8969" lon="3.04468">
        <ele>567.1</ele>
        <time>2024-07-26T11:23:46Z</time>
      </trkpt>
      <trkpt lat="45.8969" lon="3.04469">
        <ele>567.2</ele>
        <time>2024-07-26T11:23:47Z</time>
      </trkpt>
      <trkpt lat="45.89692" lon="3.04471">
        <ele>568</ele>
        <time>2024-07-26T11:23:48Z</time>
      </trkpt>
      <trkpt lat="45.89693" lon="3.04472">
        <ele>566.4</ele>
        <time>2024-07-26T11:23:49Z</time>
      </trkpt>
      <trkpt lat="45.89694" lon="3.04474">
        <ele>567.1</ele>
        <time>2024-07-26T11:23:50Z</time>
      </trkpt>
      <trkpt lat="45.89696" lon="3.04475">
        <ele>568.9</ele>
        <time>2024-07-26T11:23:51Z</time>
      </trkpt>
      <trkpt lat="45.89697" lon="3.04476">
        <ele>567.7</ele>
        <time>2024-07-26T11:23:52Z</time>
      </trkpt>
      <trkpt lat="45.89698" lon="3.04477">
        <ele>568.3</ele>
        <time>2024-07-26T11:23:53Z</time>
      </trkpt>
      <trkpt lat="45.89699" lon="3.04479">
        <ele>569.8</ele>
        <time>2024-07-26T11:23:55Z</time>
      </trkpt>
      <trkpt lat="45.897" lon="3.04479">
        <ele>570.4</ele>
        <time>2024-07-26T11:23:57Z</time>
      </trkpt>
      <trkpt lat="45.89701" lon="3.0448">
        <ele>569.3</ele>
        <time>2024-07-26T11:23:59Z</time>
      </trkpt>
      <trkpt lat="45.89702" lon="3.0448">
        <ele>573.3</ele>
        <time>2024-07-26T11:24:02Z</time>
      </trkpt>
      <trkpt lat="45.89703" lon="3.0448">
        <ele>574.4</ele>
        <time>2024-07-26T11:24:04Z</time>
      </trkpt>
      <trkpt lat="45.89704" lon="3.04481">
        <ele>575.9</ele>
        <time>2024-07-26T11:24:07Z</time>
      </trkpt>
      <trkpt lat="45.89703" lon="3.04482">
        <ele>575.5</ele>
        <time>2024-07-26T11:24:10Z</time>
      </trkpt>
      <trkpt lat="45.89701" lon="3.04482">
        <ele>575</ele>
        <time>2024-07-26T11:24:11Z</time>
      </trkpt>
      <trkpt lat="45.897" lon="3.04483">
        <ele>573.2</ele>
        <time>2024-07-26T11:24:13Z</time>
      </trkpt>
      <trkpt lat="45.897" lon="3.04485">
        <ele>573.9</ele>
        <time>2024-07-26T11:24:15Z</time>
      </trkpt>
      <trkpt lat="45.897" lon="3.04486">
        <ele>573.2</ele>
        <time>2024-07-26T11:24:19Z</time>
      </trkpt>
      <trkpt lat="45.89701" lon="3.04487">
        <ele>574.7</ele>
        <time>2024-07-26T11:24:22Z</time>
      </trkpt>
      <trkpt lat="45.89702" lon="3.04487">
        <ele>573.7</ele>
        <time>2024-07-26T11:24:24Z</time>
      </trkpt>
      <trkpt lat="45.89703" lon="3.04488">
        <ele>571.8</ele>
        <time>2024-07-26T11:24:27Z</time>
      </trkpt>
      <trkpt lat="45.89703" lon="3.04489">
        <ele>570</ele>
        <time>2024-07-26T11:24:28Z</time>
      </trkpt>
      <trkpt lat="45.89703" lon="3.04492">
        <ele>571.5</ele>
        <time>2024-07-26T11:24:30Z</time>
      </trkpt>
      <trkpt lat="45.89703" lon="3.04494">
        <ele>571.8</ele>
        <time>2024-07-26T11:24:31Z</time>
      </trkpt>
      <trkpt lat="45.89703" lon="3.04496">
        <ele>571.2</ele>
        <time>2024-07-26T11:24:32Z</time>
      </trkpt>
      <trkpt lat="45.89701" lon="3.04497">
        <ele>569.5</ele>
        <time>2024-07-26T11:24:35Z</time>
      </trkpt>
      <trkpt lat="45.89699" lon="3.04496">
        <ele>565.7</ele>
        <time>2024-07-26T11:24:36Z</time>
      </trkpt>
      <trkpt lat="45.89697" lon="3.04495">
        <ele>565</ele>
        <time>2024-07-26T11:24:37Z</time>
      </trkpt>
      <trkpt lat="45.89695" lon="3.04495">
        <ele>565.3</ele>
        <time>2024-07-26T11:24:38Z</time>
      </trkpt>
      <trkpt lat="45.89692" lon="3.04493">
        <ele>565.6</ele>
        <time>2024-07-26T11:24:39Z</time>
      </trkpt>
      <trkpt lat="45.89691" lon="3.04493">
        <ele>565.6</ele>
        <time>2024-07-26T11:24:40Z</time>
      </trkpt>
      <trkpt lat="45.89692" lon="3.04495">
        <ele>561.4</ele>
        <time>2024-07-26T11:24:45Z</time>
      </trkpt>
      <trkpt lat="45.89693" lon="3.04497">
        <ele>562.3</ele>
        <time>2024-07-26T11:24:47Z</time>
      </trkpt>
      <trkpt lat="45.89695" lon="3.045">
        <ele>560</ele>
        <time>2024-07-26T11:24:48Z</time>
      </trkpt>
      <trkpt lat="45.89697" lon="3.04502">
        <ele>559.7</ele>
        <time>2024-07-26T11:24:49Z</time>
      </trkpt>
      <trkpt lat="45.89697" lon="3.04503">
        <ele>557.9</ele>
        <time>2024-07-26T11:24:50Z</time>
      </trkpt>
      <trkpt lat="45.89697" lon="3.04504">
        <ele>557.4</ele>
        <time>2024-07-26T11:24:51Z</time>
      </trkpt>
      <trkpt lat="45.89697" lon="3.04506">
        <ele>555.4</ele>
        <time>2024-07-26T11:24:55Z</time>
      </trkpt>
      <trkpt lat="45.89699" lon="3.04506">
        <ele>556.2</ele>
        <time>2024-07-26T11:24:58Z</time>
      </trkpt>
      <trkpt lat="45.89697" lon="3.04504">
        <ele>556.8</ele>
        <time>2024-07-26T11:25:00Z</time>
      </trkpt>
      <trkpt lat="45.89696" lon="3.04504">
        <ele>558.8</ele>
        <time>2024-07-26T11:25:01Z</time>
      </trkpt>
      <trkpt lat="45.89697" lon="3.04503">
        <ele>557.6</ele>
        <time>2024-07-26T11:25:04Z</time>
      </trkpt>
      <trkpt lat="45.89699" lon="3.04502">
        <ele>560.8</ele>
        <time>2024-07-26T11:25:05Z</time>
      </trkpt>
      <trkpt lat="45.89701" lon="3.04503">
        <ele>561.7</ele>
        <time>2024-07-26T11:25:06Z</time>
      </trkpt>
      <trkpt lat="45.89702" lon="3.04504">
        <ele>562.2</ele>
        <time>2024-07-26T11:25:07Z</time>
      </trkpt>
      <trkpt lat="45.89704" lon="3.04504">
        <ele>562.4</ele>
        <time>2024-07-26T11:25:08Z</time>
      </trkpt>
      <trkpt lat="45.89705" lon="3.04505">
        <ele>561.4</ele>
        <time>2024-07-26T11:25:09Z</time>
      </trkpt>
      <trkpt lat="45.89706" lon="3.04505">
        <ele>561.1</ele>
        <time>2024-07-26T11:25:10Z</time>
      </trkpt>
      <trkpt lat="45.89705" lon="3.04506">
        <ele>553.3</ele>
        <time>2024-07-26T11:25:12Z</time>
      </trkpt>
      <trkpt lat="45.89703" lon="3.04506">
        <ele>552.9</ele>
        <time>2024-07-26T11:25:13Z</time>
      </trkpt>
      <trkpt lat="45.89702" lon="3.04506">
        <ele>553.4</ele>
        <time>2024-07-26T11:25:14Z</time>
      </trkpt>
      <trkpt lat="45.89701" lon="3.04506">
        <ele>557.6</ele>
        <time>2024-07-26T11:25:16Z</time>
      </trkpt>
      <trkpt lat="45.897" lon="3.04507">
        <ele>559.3</ele>
        <time>2024-07-26T11:25:18Z</time>
      </trkpt>
      <trkpt lat="45.89702" lon="3.04509">
        <ele>563.2</ele>
        <time>2024-07-26T11:25:24Z</time>
      </trkpt>
      <trkpt lat="45.89703" lon="3.0451">
        <ele>562.9</ele>
        <time>2024-07-26T11:25:26Z</time>
      </trkpt>
      <trkpt lat="45.89704" lon="3.04511">
        <ele>562.6</ele>
        <time>2024-07-26T11:25:32Z</time>
      </trkpt>
      <trkpt lat="45.89705" lon="3.04512">
        <ele>562.4</ele>
        <time>2024-07-26T11:25:34Z</time>
      </trkpt>
      <trkpt lat="45.89706" lon="3.04512">
        <ele>561.9</ele>
        <time>2024-07-26T11:25:35Z</time>
      </trkpt>
      <trkpt lat="45.89707" lon="3.04513">
        <ele>561.7</ele>
        <time>2024-07-26T11:25:37Z</time>
      </trkpt>
      <trkpt lat="45.89708" lon="3.04514">
        <ele>564.4</ele>
        <time>2024-07-26T11:25:39Z</time>
      </trkpt>
      <trkpt lat="45.89709" lon="3.04515">
        <ele>562.9</ele>
        <time>2024-07-26T11:25:41Z</time>
      </trkpt>
      <trkpt lat="45.8971" lon="3.04514">
        <ele>563.3</ele>
        <time>2024-07-26T11:25:42Z</time>
      </trkpt>
      <trkpt lat="45.89711" lon="3.04515">
        <ele>562</ele>
        <time>2024-07-26T11:25:43Z</time>
      </trkpt>
      <trkpt lat="45.89712" lon="3.04516">
        <ele>561</ele>
        <time>2024-07-26T11:25:44Z</time>
      </trkpt>
      <trkpt lat="45.89713" lon="3.04517">
        <ele>560</ele>
        <time>2024-07-26T11:25:45Z</time>
      </trkpt>
      <trkpt lat="45.89714" lon="3.04519">
        <ele>559.7</ele>
        <time>2024-07-26T11:25:46Z</time>
      </trkpt>
      <trkpt lat="45.89714" lon="3.0452">
        <ele>556.5</ele>
        <time>2024-07-26T11:25:51Z</time>
      </trkpt>
      <trkpt lat="45.89715" lon="3.04521">
        <ele>557.7</ele>
        <time>2024-07-26T11:25:53Z</time>
      </trkpt>
      <trkpt lat="45.89716" lon="3.04521">
        <ele>556.7</ele>
        <time>2024-07-26T11:25:55Z</time>
      </trkpt>
      <trkpt lat="45.89717" lon="3.04523">
        <ele>556.9</ele>
        <time>2024-07-26T11:25:59Z</time>
      </trkpt>
      <trkpt lat="45.89717" lon="3.04523">
        <ele>556</ele>
        <time>2024-07-26T11:26:01Z</time>
      </trkpt>
      <trkpt lat="45.89718" lon="3.04524">
        <ele>552.5</ele>
        <time>2024-07-26T11:26:04Z</time>
      </trkpt>
      <trkpt lat="45.89718" lon="3.04526">
        <ele>554</ele>
        <time>2024-07-26T11:26:07Z</time>
      </trkpt>
      <trkpt lat="45.8972" lon="3.04527">
        <ele>550.5</ele>
        <time>2024-07-26T11:26:09Z</time>
      </trkpt>
      <trkpt lat="45.89721" lon="3.04527">
        <ele>550.4</ele>
        <time>2024-07-26T11:26:10Z</time>
      </trkpt>
      <trkpt lat="45.89722" lon="3.04527">
        <ele>550.9</ele>
        <time>2024-07-26T11:26:12Z</time>
      </trkpt>
      <trkpt lat="45.89722" lon="3.04529">
        <ele>553.9</ele>
        <time>2024-07-26T11:26:14Z</time>
      </trkpt>
      <trkpt lat="45.89721" lon="3.0453">
        <ele>553.9</ele>
        <time>2024-07-26T11:26:16Z</time>
      </trkpt>
      <trkpt lat="45.89721" lon="3.04531">
        <ele>552.8</ele>
        <time>2024-07-26T11:26:19Z</time>
      </trkpt>
      <trkpt lat="45.89721" lon="3.04532">
        <ele>552.5</ele>
        <time>2024-07-26T11:26:21Z</time>
      </trkpt>
      <trkpt lat="45.89722" lon="3.04534">
        <ele>549.4</ele>
        <time>2024-07-26T11:26:24Z</time>
      </trkpt>
      <trkpt lat="45.89723" lon="3.04535">
        <ele>549.5</ele>
        <time>2024-07-26T11:26:25Z</time>
      </trkpt>
      <trkpt lat="45.89725" lon="3.04536">
        <ele>548.1</ele>
        <time>2024-07-26T11:26:26Z</time>
      </trkpt>
      <trkpt lat="45.89726" lon="3.04537">
        <ele>547.6</ele>
        <time>2024-07-26T11:26:28Z</time>
      </trkpt>
      <trkpt lat="45.89727" lon="3.04538">
        <ele>547.2</ele>
        <time>2024-07-26T11:26:30Z</time>
      </trkpt>
      <trkpt lat="45.89728" lon="3.04537">
        <ele>546.8</ele>
        <time>2024-07-26T11:26:32Z</time>
      </trkpt>
      <trkpt lat="45.8973" lon="3.04537">
        <ele>547</ele>
        <time>2024-07-26T11:26:34Z</time>
      </trkpt>
      <trkpt lat="45.8973" lon="3.04539">
        <ele>547.1</ele>
        <time>2024-07-26T11:26:36Z</time>
      </trkpt>
      <trkpt lat="45.89731" lon="3.04541">
        <ele>547.9</ele>
        <time>2024-07-26T11:26:38Z</time>
      </trkpt>
      <trkpt lat="45.89732" lon="3.04542">
        <ele>546.5</ele>
        <time>2024-07-26T11:26:40Z</time>
      </trkpt>
      <trkpt lat="45.89733" lon="3.04544">
        <ele>545.9</ele>
        <time>2024-07-26T11:26:42Z</time>
      </trkpt>
      <trkpt lat="45.89733" lon="3.04546">
        <ele>545.4</ele>
        <time>2024-07-26T11:26:43Z</time>
      </trkpt>
      <trkpt lat="45.89733" lon="3.04548">
        <ele>545.7</ele>
        <time>2024-07-26T11:26:45Z</time>
      </trkpt>
      <trkpt lat="45.89734" lon="3.04549">
        <ele>546.2</ele>
        <time>2024-07-26T11:26:48Z</time>
      </trkpt>
      <trkpt lat="45.89734" lon="3.04551">
        <ele>546.3</ele>
        <time>2024-07-26T11:26:51Z</time>
      </trkpt>
      <trkpt lat="45.89734" lon="3.04552">
        <ele>546.4</ele>
        <time>2024-07-26T11:26:53Z</time>
      </trkpt>
      <trkpt lat="45.89735" lon="3.04554">
        <ele>547.4</ele>
        <time>2024-07-26T11:26:55Z</time>
      </trkpt>
      <trkpt lat="45.89735" lon="3.04556">
        <ele>549.7</ele>
        <time>2024-07-26T11:26:58Z</time>
      </trkpt>
      <trkpt lat="45.89735" lon="3.04557">
        <ele>551.4</ele>
        <time>2024-07-26T11:27:04Z</time>
      </trkpt>
      <trkpt lat="45.89736" lon="3.04558">
        <ele>550.4</ele>
        <time>2024-07-26T11:27:06Z</time>
      </trkpt>
      <trkpt lat="45.89735" lon="3.04558">
        <ele>547.8</ele>
        <time>2024-07-26T11:27:08Z</time>
      </trkpt>
      <trkpt lat="45.89735" lon="3.0456">
        <ele>545.7</ele>
        <time>2024-07-26T11:27:12Z</time>
      </trkpt>
      <trkpt lat="45.89736" lon="3.04561">
        <ele>545.6</ele>
        <time>2024-07-26T11:27:14Z</time>
      </trkpt>
      <trkpt lat="45.89736" lon="3.04563">
        <ele>543.1</ele>
        <time>2024-07-26T11:27:16Z</time>
      </trkpt>
      <trkpt lat="45.89738" lon="3.04565">
        <ele>541.5</ele>
        <time>2024-07-26T11:27:18Z</time>
      </trkpt>
      <trkpt lat="45.89738" lon="3.04567">
        <ele>540.9</ele>
        <time>2024-07-26T11:27:21Z</time>
      </trkpt>
      <trkpt lat="45.89737" lon="3.04567">
        <ele>540.6</ele>
        <time>2024-07-26T11:27:23Z</time>
      </trkpt>
      <trkpt lat="45.89736" lon="3.04566">
        <ele>542.2</ele>
        <time>2024-07-26T11:27:26Z</time>
      </trkpt>
      <trkpt lat="45.89735" lon="3.04568">
        <ele>542</ele>
        <time>2024-07-26T11:28:08Z</time>
      </trkpt>
      <trkpt lat="45.89735" lon="3.04569">
        <ele>541.9</ele>
        <time>2024-07-26T11:28:10Z</time>
      </trkpt>
      <trkpt lat="45.89734" lon="3.04571">
        <ele>541.8</ele>
        <time>2024-07-26T11:28:49Z</time>
      </trkpt>
      <trkpt lat="45.89733" lon="3.04572">
        <ele>542.3</ele>
        <time>2024-07-26T11:28:52Z</time>
      </trkpt>
      <trkpt lat="45.89735" lon="3.04575">
        <ele>542.2</ele>
        <time>2024-07-26T11:28:53Z</time>
      </trkpt>
      <trkpt lat="45.89736" lon="3.04575">
        <ele>541.8</ele>
        <time>2024-07-26T11:28:54Z</time>
      </trkpt>
      <trkpt lat="45.89737" lon="3.04575">
        <ele>541.5</ele>
        <time>2024-07-26T11:28:55Z</time>
      </trkpt>
      <trkpt lat="45.89737" lon="3.04576">
        <ele>540.8</ele>
        <time>2024-07-26T11:28:58Z</time>
      </trkpt>
      <trkpt lat="45.89738" lon="3.04578">
        <ele>542.7</ele>
        <time>2024-07-26T11:29:00Z</time>
      </trkpt>
      <trkpt lat="45.89738" lon="3.04579">
        <ele>543.2</ele>
        <time>2024-07-26T11:29:01Z</time>
      </trkpt>
      <trkpt lat="45.8974" lon="3.0458">
        <ele>543.8</ele>
        <time>2024-07-26T11:29:02Z</time>
      </trkpt>
      <trkpt lat="45.89741" lon="3.04581">
        <ele>542.8</ele>
        <time>2024-07-26T11:29:03Z</time>
      </trkpt>
      <trkpt lat="45.8974" lon="3.04579">
        <ele>540.4</ele>
        <time>2024-07-26T11:29:05Z</time>
      </trkpt>
      <trkpt lat="45.89738" lon="3.04579">
        <ele>538.2</ele>
        <time>2024-07-26T11:29:06Z</time>
      </trkpt>
      <trkpt lat="45.89737" lon="3.04578">
        <ele>537.7</ele>
        <time>2024-07-26T11:29:07Z</time>
      </trkpt>
      <trkpt lat="45.89737" lon="3.0458">
        <ele>535.4</ele>
        <time>2024-07-26T11:29:10Z</time>
      </trkpt>
      <trkpt lat="45.89737" lon="3.04582">
        <ele>537.2</ele>
        <time>2024-07-26T11:29:12Z</time>
      </trkpt>
      <trkpt lat="45.89738" lon="3.04583">
        <ele>537.7</ele>
        <time>2024-07-26T11:29:14Z</time>
      </trkpt>
      <trkpt lat="45.8974" lon="3.04583">
        <ele>539.1</ele>
        <time>2024-07-26T11:29:16Z</time>
      </trkpt>
      <trkpt lat="45.89741" lon="3.04583">
        <ele>539.8</ele>
        <time>2024-07-26T11:29:17Z</time>
      </trkpt>
      <trkpt lat="45.89742" lon="3.04583">
        <ele>538.1</ele>
        <time>2024-07-26T11:29:19Z</time>
      </trkpt>
      <trkpt lat="45.89741" lon="3.04585">
        <ele>539.9</ele>
        <time>2024-07-26T11:29:22Z</time>
      </trkpt>
      <trkpt lat="45.89741" lon="3.04586">
        <ele>543.4</ele>
        <time>2024-07-26T11:29:23Z</time>
      </trkpt>
      <trkpt lat="45.8974" lon="3.04588">
        <ele>543.4</ele>
        <time>2024-07-26T11:29:24Z</time>
      </trkpt>
      <trkpt lat="45.89739" lon="3.04589">
        <ele>543.1</ele>
        <time>2024-07-26T11:29:25Z</time>
      </trkpt>
      <trkpt lat="45.89739" lon="3.04592">
        <ele>544</ele>
        <time>2024-07-26T11:29:27Z</time>
      </trkpt>
      <trkpt lat="45.89737" lon="3.04594">
        <ele>543.3</ele>
        <time>2024-07-26T11:29:28Z</time>
      </trkpt>
      <trkpt lat="45.89736" lon="3.04596">
        <ele>543.6</ele>
        <time>2024-07-26T11:29:29Z</time>
      </trkpt>
      <trkpt lat="45.89736" lon="3.04597">
        <ele>545.1</ele>
        <time>2024-07-26T11:29:30Z</time>
      </trkpt>
      <trkpt lat="45.89735" lon="3.04598">
        <ele>544.7</ele>
        <time>2024-07-26T11:29:31Z</time>
      </trkpt>
      <trkpt lat="45.89735" lon="3.046">
        <ele>545</ele>
        <time>2024-07-26T11:29:32Z</time>
      </trkpt>
      <trkpt lat="45.89733" lon="3.04599">
        <ele>539.8</ele>
        <time>2024-07-26T11:29:33Z</time>
      </trkpt>
      <trkpt lat="45.89732" lon="3.04599">
        <ele>540.4</ele>
        <time>2024-07-26T11:29:34Z</time>
      </trkpt>
      <trkpt lat="45.89731" lon="3.046">
        <ele>540.6</ele>
        <time>2024-07-26T11:29:35Z</time>
      </trkpt>
      <trkpt lat="45.89732" lon="3.04602">
        <ele>539.2</ele>
        <time>2024-07-26T11:29:38Z</time>
      </trkpt>
      <trkpt lat="45.89734" lon="3.04603">
        <ele>541.1</ele>
        <time>2024-07-26T11:29:39Z</time>
      </trkpt>
      <trkpt lat="45.89735" lon="3.04604">
        <ele>541.3</ele>
        <time>2024-07-26T11:29:40Z</time>
      </trkpt>
      <trkpt lat="45.89737" lon="3.04606">
        <ele>540.6</ele>
        <time>2024-07-26T11:29:42Z</time>
      </trkpt>
      <trkpt lat="45.89738" lon="3.04606">
        <ele>543.5</ele>
        <time>2024-07-26T11:29:43Z</time>
      </trkpt>
      <trkpt lat="45.89738" lon="3.04606">
        <ele>545.6</ele>
        <time>2024-07-26T11:29:45Z</time>
      </trkpt>
      <trkpt lat="45.89739" lon="3.04607">
        <ele>543.3</ele>
        <time>2024-07-26T11:29:47Z</time>
      </trkpt>
      <trkpt lat="45.8974" lon="3.04608">
        <ele>545.5</ele>
        <time>2024-07-26T11:29:49Z</time>
      </trkpt>
      <trkpt lat="45.89741" lon="3.04609">
        <ele>541.7</ele>
        <time>2024-07-26T11:29:50Z</time>
      </trkpt>
      <trkpt lat="45.89741" lon="3.0461">
        <ele>544.6</ele>
        <time>2024-07-26T11:29:51Z</time>
      </trkpt>
      <trkpt lat="45.89741" lon="3.04611">
        <ele>545.4</ele>
        <time>2024-07-26T11:29:52Z</time>
      </trkpt>
      <trkpt lat="45.89741" lon="3.04613">
        <ele>543.6</ele>
        <time>2024-07-26T11:29:54Z</time>
      </trkpt>
      <trkpt lat="45.89739" lon="3.04614">
        <ele>543.6</ele>
        <time>2024-07-26T11:29:56Z</time>
      </trkpt>
      <trkpt lat="45.89737" lon="3.04615">
        <ele>542.3</ele>
        <time>2024-07-26T11:29:57Z</time>
      </trkpt>
      <trkpt lat="45.89736" lon="3.04615">
        <ele>542.8</ele>
        <time>2024-07-26T11:29:59Z</time>
      </trkpt>
      <trkpt lat="45.89734" lon="3.04616">
        <ele>539.8</ele>
        <time>2024-07-26T11:30:01Z</time>
      </trkpt>
      <trkpt lat="45.89733" lon="3.04617">
        <ele>538.7</ele>
        <time>2024-07-26T11:30:02Z</time>
      </trkpt>
      <trkpt lat="45.89732" lon="3.04618">
        <ele>537.7</ele>
        <time>2024-07-26T11:30:03Z</time>
      </trkpt>
      <trkpt lat="45.89732" lon="3.04619">
        <ele>536.8</ele>
        <time>2024-07-26T11:30:04Z</time>
      </trkpt>
      <trkpt lat="45.89731" lon="3.04621">
        <ele>536.7</ele>
        <time>2024-07-26T11:30:05Z</time>
      </trkpt>
      <trkpt lat="45.8973" lon="3.04622">
        <ele>536.3</ele>
        <time>2024-07-26T11:30:06Z</time>
      </trkpt>
      <trkpt lat="45.8973" lon="3.04624">
        <ele>537</ele>
        <time>2024-07-26T11:30:07Z</time>
      </trkpt>
      <trkpt lat="45.89729" lon="3.04625">
        <ele>537.2</ele>
        <time>2024-07-26T11:30:08Z</time>
      </trkpt>
      <trkpt lat="45.89729" lon="3.04626">
        <ele>536.1</ele>
        <time>2024-07-26T11:30:09Z</time>
      </trkpt>
      <trkpt lat="45.89728" lon="3.04628">
        <ele>535.8</ele>
        <time>2024-07-26T11:30:10Z</time>
      </trkpt>
      <trkpt lat="45.89728" lon="3.04629">
        <ele>535.8</ele>
        <time>2024-07-26T11:30:11Z</time>
      </trkpt>
      <trkpt lat="45.89727" lon="3.0463">
        <ele>534.9</ele>
        <time>2024-07-26T11:30:12Z</time>
      </trkpt>
      <trkpt lat="45.89726" lon="3.04632">
        <ele>535.2</ele>
        <time>2024-07-26T11:30:14Z</time>
      </trkpt>
      <trkpt lat="45.89725" lon="3.04633">
        <ele>533.9</ele>
        <time>2024-07-26T11:30:15Z</time>
      </trkpt>
      <trkpt lat="45.89725" lon="3.04634">
        <ele>534.2</ele>
        <time>2024-07-26T11:30:16Z</time>
      </trkpt>
      <trkpt lat="45.89724" lon="3.04636">
        <ele>533.6</ele>
        <time>2024-07-26T11:30:17Z</time>
      </trkpt>
      <trkpt lat="45.89723" lon="3.04637">
        <ele>532</ele>
        <time>2024-07-26T11:30:18Z</time>
      </trkpt>
      <trkpt lat="45.89723" lon="3.04639">
        <ele>531</ele>
        <time>2024-07-26T11:30:19Z</time>
      </trkpt>
      <trkpt lat="45.89722" lon="3.0464">
        <ele>531</ele>
        <time>2024-07-26T11:30:20Z</time>
      </trkpt>
      <trkpt lat="45.89721" lon="3.04642">
        <ele>532</ele>
        <time>2024-07-26T11:30:22Z</time>
      </trkpt>
      <trkpt lat="45.8972" lon="3.04643">
        <ele>531.8</ele>
        <time>2024-07-26T11:30:23Z</time>
      </trkpt>
      <trkpt lat="45.89719" lon="3.04644">
        <ele>531.7</ele>
        <time>2024-07-26T11:30:24Z</time>
      </trkpt>
      <trkpt lat="45.89718" lon="3.04645">
        <ele>532.3</ele>
        <time>2024-07-26T11:30:26Z</time>
      </trkpt>
      <trkpt lat="45.89717" lon="3.04646">
        <ele>533.8</ele>
        <time>2024-07-26T11:30:29Z</time>
      </trkpt>
      <trkpt lat="45.89716" lon="3.04647">
        <ele>533.4</ele>
        <time>2024-07-26T11:30:31Z</time>
      </trkpt>
      <trkpt lat="45.89714" lon="3.04647">
        <ele>533.5</ele>
        <time>2024-07-26T11:30:33Z</time>
      </trkpt>
      <trkpt lat="45.89714" lon="3.04649">
        <ele>532.5</ele>
        <time>2024-07-26T11:30:35Z</time>
      </trkpt>
      <trkpt lat="45.89714" lon="3.04651">
        <ele>532.1</ele>
        <time>2024-07-26T11:30:36Z</time>
      </trkpt>
      <trkpt lat="45.89713" lon="3.04653">
        <ele>532.1</ele>
        <time>2024-07-26T11:30:37Z</time>
      </trkpt>
      <trkpt lat="45.89713" lon="3.04654">
        <ele>532.4</ele>
        <time>2024-07-26T11:30:38Z</time>
      </trkpt>
      <trkpt lat="45.89712" lon="3.04655">
        <ele>532.7</ele>
        <time>2024-07-26T11:30:39Z</time>
      </trkpt>
      <trkpt lat="45.89711" lon="3.04656">
        <ele>532.2</ele>
        <time>2024-07-26T11:30:40Z</time>
      </trkpt>
      <trkpt lat="45.8971" lon="3.04657">
        <ele>532.3</ele>
        <time>2024-07-26T11:30:41Z</time>
      </trkpt>
      <trkpt lat="45.89709" lon="3.04658">
        <ele>532.4</ele>
        <time>2024-07-26T11:30:42Z</time>
      </trkpt>
      <trkpt lat="45.89708" lon="3.04659">
        <ele>533.2</ele>
        <time>2024-07-26T11:30:44Z</time>
      </trkpt>
      <trkpt lat="45.89708" lon="3.04661">
        <ele>534.5</ele>
        <time>2024-07-26T11:30:46Z</time>
      </trkpt>
      <trkpt lat="45.89708" lon="3.04662">
        <ele>534.1</ele>
        <time>2024-07-26T11:30:48Z</time>
      </trkpt>
      <trkpt lat="45.89706" lon="3.04664">
        <ele>533.5</ele>
        <time>2024-07-26T11:30:50Z</time>
      </trkpt>
      <trkpt lat="45.89705" lon="3.04664">
        <ele>531.6</ele>
        <time>2024-07-26T11:30:51Z</time>
      </trkpt>
      <trkpt lat="45.89704" lon="3.04663">
        <ele>530.9</ele>
        <time>2024-07-26T11:30:52Z</time>
      </trkpt>
      <trkpt lat="45.89701" lon="3.04662">
        <ele>528.2</ele>
        <time>2024-07-26T11:30:54Z</time>
      </trkpt>
      <trkpt lat="45.897" lon="3.04662">
        <ele>529.5</ele>
        <time>2024-07-26T11:30:55Z</time>
      </trkpt>
      <trkpt lat="45.89699" lon="3.04662">
        <ele>530.3</ele>
        <time>2024-07-26T11:30:56Z</time>
      </trkpt>
      <trkpt lat="45.89698" lon="3.04662">
        <ele>530.2</ele>
        <time>2024-07-26T11:30:57Z</time>
      </trkpt>
      <trkpt lat="45.89696" lon="3.04662">
        <ele>530.1</ele>
        <time>2024-07-26T11:30:58Z</time>
      </trkpt>
      <trkpt lat="45.89695" lon="3.04662">
        <ele>530.2</ele>
        <time>2024-07-26T11:30:59Z</time>
      </trkpt>
      <trkpt lat="45.89694" lon="3.04662">
        <ele>530.8</ele>
        <time>2024-07-26T11:31:00Z</time>
      </trkpt>
      <trkpt lat="45.89692" lon="3.04663">
        <ele>530.1</ele>
        <time>2024-07-26T11:31:01Z</time>
      </trkpt>
      <trkpt lat="45.89691" lon="3.04664">
        <ele>526.7</ele>
        <time>2024-07-26T11:31:02Z</time>
      </trkpt>
      <trkpt lat="45.8969" lon="3.04665">
        <ele>526.1</ele>
        <time>2024-07-26T11:31:03Z</time>
      </trkpt>
      <trkpt lat="45.89689" lon="3.04666">
        <ele>527.7</ele>
        <time>2024-07-26T11:31:04Z</time>
      </trkpt>
      <trkpt lat="45.89689" lon="3.04668">
        <ele>529.3</ele>
        <time>2024-07-26T11:31:06Z</time>
      </trkpt>
      <trkpt lat="45.89688" lon="3.04669">
        <ele>533.1</ele>
        <time>2024-07-26T11:31:08Z</time>
      </trkpt>
      <trkpt lat="45.89687" lon="3.04672">
        <ele>533.2</ele>
        <time>2024-07-26T11:31:10Z</time>
      </trkpt>
      <trkpt lat="45.89687" lon="3.04673">
        <ele>533.1</ele>
        <time>2024-07-26T11:31:12Z</time>
      </trkpt>
      <trkpt lat="45.89685" lon="3.04673">
        <ele>535</ele>
        <time>2024-07-26T11:31:16Z</time>
      </trkpt>
      <trkpt lat="45.89684" lon="3.04675">
        <ele>538.4</ele>
        <time>2024-07-26T11:31:18Z</time>
      </trkpt>
      <trkpt lat="45.89683" lon="3.04676">
        <ele>537.4</ele>
        <time>2024-07-26T11:31:20Z</time>
      </trkpt>
      <trkpt lat="45.89681" lon="3.04676">
        <ele>536.6</ele>
        <time>2024-07-26T11:31:21Z</time>
      </trkpt>
      <trkpt lat="45.8968" lon="3.04675">
        <ele>537.4</ele>
        <time>2024-07-26T11:31:22Z</time>
      </trkpt>
      <trkpt lat="45.89679" lon="3.04675">
        <ele>541.1</ele>
        <time>2024-07-26T11:31:23Z</time>
      </trkpt>
      <trkpt lat="45.89678" lon="3.04675">
        <ele>542</ele>
        <time>2024-07-26T11:31:25Z</time>
      </trkpt>
      <trkpt lat="45.89676" lon="3.04676">
        <ele>541.8</ele>
        <time>2024-07-26T11:31:27Z</time>
      </trkpt>
      <trkpt lat="45.89675" lon="3.04676">
        <ele>542.7</ele>
        <time>2024-07-26T11:31:28Z</time>
      </trkpt>
      <trkpt lat="45.89674" lon="3.04677">
        <ele>541.6</ele>
        <time>2024-07-26T11:31:29Z</time>
      </trkpt>
      <trkpt lat="45.89673" lon="3.04678">
        <ele>541.2</ele>
        <time>2024-07-26T11:31:30Z</time>
      </trkpt>
      <trkpt lat="45.89672" lon="3.04678">
        <ele>541.5</ele>
        <time>2024-07-26T11:31:31Z</time>
      </trkpt>
      <trkpt lat="45.89671" lon="3.04678">
        <ele>541.1</ele>
        <time>2024-07-26T11:31:32Z</time>
      </trkpt>
      <trkpt lat="45.89669" lon="3.04677">
        <ele>542</ele>
        <time>2024-07-26T11:31:33Z</time>
      </trkpt>
      <trkpt lat="45.89668" lon="3.04676">
        <ele>542.6</ele>
        <time>2024-07-26T11:31:34Z</time>
      </trkpt>
      <trkpt lat="45.89667" lon="3.04675">
        <ele>542.8</ele>
        <time>2024-07-26T11:31:35Z</time>
      </trkpt>
      <trkpt lat="45.89666" lon="3.04675">
        <ele>544.8</ele>
        <time>2024-07-26T11:31:36Z</time>
      </trkpt>
      <trkpt lat="45.89664" lon="3.04675">
        <ele>543</ele>
        <time>2024-07-26T11:31:37Z</time>
      </trkpt>
      <trkpt lat="45.89663" lon="3.04674">
        <ele>544.4</ele>
        <time>2024-07-26T11:31:38Z</time>
      </trkpt>
      <trkpt lat="45.89661" lon="3.04673">
        <ele>543.8</ele>
        <time>2024-07-26T11:31:40Z</time>
      </trkpt>
      <trkpt lat="45.8966" lon="3.04673">
        <ele>542.7</ele>
        <time>2024-07-26T11:31:41Z</time>
      </trkpt>
      <trkpt lat="45.89659" lon="3.04673">
        <ele>546.8</ele>
        <time>2024-07-26T11:31:42Z</time>
      </trkpt>
      <trkpt lat="45.89658" lon="3.04674">
        <ele>546.8</ele>
        <time>2024-07-26T11:31:43Z</time>
      </trkpt>
      <trkpt lat="45.89657" lon="3.04674">
        <ele>546.8</ele>
        <time>2024-07-26T11:31:45Z</time>
      </trkpt>
      <trkpt lat="45.89656" lon="3.04674">
        <ele>548</ele>
        <time>2024-07-26T11:31:49Z</time>
      </trkpt>
      <trkpt lat="45.89655" lon="3.04674">
        <ele>544.9</ele>
        <time>2024-07-26T11:31:51Z</time>
      </trkpt>
      <trkpt lat="45.89654" lon="3.04673">
        <ele>546.4</ele>
        <time>2024-07-26T11:31:54Z</time>
      </trkpt>
      <trkpt lat="45.89653" lon="3.04673">
        <ele>544.8</ele>
        <time>2024-07-26T11:31:55Z</time>
      </trkpt>
      <trkpt lat="45.89652" lon="3.04672">
        <ele>543.2</ele>
        <time>2024-07-26T11:31:56Z</time>
      </trkpt>
      <trkpt lat="45.89651" lon="3.04672">
        <ele>543</ele>
        <time>2024-07-26T11:31:57Z</time>
      </trkpt>
      <trkpt lat="45.89649" lon="3.04671">
        <ele>543</ele>
        <time>2024-07-26T11:31:58Z</time>
      </trkpt>
      <trkpt lat="45.89648" lon="3.04671">
        <ele>543.6</ele>
        <time>2024-07-26T11:31:59Z</time>
      </trkpt>
      <trkpt lat="45.89648" lon="3.0467">
        <ele>542.4</ele>
        <time>2024-07-26T11:32:00Z</time>
      </trkpt>
      <trkpt lat="45.89647" lon="3.04669">
        <ele>540.2</ele>
        <time>2024-07-26T11:32:01Z</time>
      </trkpt>
      <trkpt lat="45.89646" lon="3.04668">
        <ele>539.1</ele>
        <time>2024-07-26T11:32:02Z</time>
      </trkpt>
      <trkpt lat="45.89645" lon="3.04668">
        <ele>540.8</ele>
        <time>2024-07-26T11:32:03Z</time>
      </trkpt>
      <trkpt lat="45.89644" lon="3.04668">
        <ele>541.2</ele>
        <time>2024-07-26T11:32:04Z</time>
      </trkpt>
      <trkpt lat="45.89643" lon="3.04668">
        <ele>540.8</ele>
        <time>2024-07-26T11:32:05Z</time>
      </trkpt>
      <trkpt lat="45.89641" lon="3.04667">
        <ele>537.3</ele>
        <time>2024-07-26T11:32:07Z</time>
      </trkpt>
      <trkpt lat="45.8964" lon="3.04666">
        <ele>536</ele>
        <time>2024-07-26T11:32:08Z</time>
      </trkpt>
      <trkpt lat="45.89639" lon="3.04664">
        <ele>534.3</ele>
        <time>2024-07-26T11:32:09Z</time>
      </trkpt>
      <trkpt lat="45.89638" lon="3.04664">
        <ele>534.6</ele>
        <time>2024-07-26T11:32:11Z</time>
      </trkpt>
      <trkpt lat="45.89638" lon="3.04665">
        <ele>536.6</ele>
        <time>2024-07-26T11:32:12Z</time>
      </trkpt>
      <trkpt lat="45.89637" lon="3.04667">
        <ele>536.7</ele>
        <time>2024-07-26T11:32:14Z</time>
      </trkpt>
      <trkpt lat="45.89636" lon="3.04668">
        <ele>535.5</ele>
        <time>2024-07-26T11:32:20Z</time>
      </trkpt>
      <trkpt lat="45.89637" lon="3.04666">
        <ele>534</ele>
        <time>2024-07-26T11:32:22Z</time>
      </trkpt>
      <trkpt lat="45.89638" lon="3.04665">
        <ele>533.3</ele>
        <time>2024-07-26T11:32:24Z</time>
      </trkpt>
      <trkpt lat="45.89639" lon="3.04663">
        <ele>533.5</ele>
        <time>2024-07-26T11:32:25Z</time>
      </trkpt>
      <trkpt lat="45.89638" lon="3.04661">
        <ele>532.9</ele>
        <time>2024-07-26T11:32:27Z</time>
      </trkpt>
      <trkpt lat="45.89636" lon="3.0466">
        <ele>533.9</ele>
        <time>2024-07-26T11:32:28Z</time>
      </trkpt>
      <trkpt lat="45.89635" lon="3.0466">
        <ele>534.5</ele>
        <time>2024-07-26T11:32:29Z</time>
      </trkpt>
      <trkpt lat="45.89634" lon="3.04661">
        <ele>535.6</ele>
        <time>2024-07-26T11:32:30Z</time>
      </trkpt>
      <trkpt lat="45.89633" lon="3.04662">
        <ele>535.4</ele>
        <time>2024-07-26T11:32:32Z</time>
      </trkpt>
      <trkpt lat="45.89632" lon="3.04663">
        <ele>535.1</ele>
        <time>2024-07-26T11:32:33Z</time>
      </trkpt>
      <trkpt lat="45.89631" lon="3.04664">
        <ele>535</ele>
        <time>2024-07-26T11:32:34Z</time>
      </trkpt>
      <trkpt lat="45.8963" lon="3.04664">
        <ele>533.5</ele>
        <time>2024-07-26T11:32:35Z</time>
      </trkpt>
      <trkpt lat="45.89629" lon="3.04664">
        <ele>533.5</ele>
        <time>2024-07-26T11:32:36Z</time>
      </trkpt>
      <trkpt lat="45.89627" lon="3.04664">
        <ele>531.6</ele>
        <time>2024-07-26T11:32:38Z</time>
      </trkpt>
      <trkpt lat="45.89626" lon="3.04665">
        <ele>532.4</ele>
        <time>2024-07-26T11:32:40Z</time>
      </trkpt>
      <trkpt lat="45.89625" lon="3.04665">
        <ele>530</ele>
        <time>2024-07-26T11:32:42Z</time>
      </trkpt>
      <trkpt lat="45.89624" lon="3.04664">
        <ele>528.9</ele>
        <time>2024-07-26T11:32:44Z</time>
      </trkpt>
      <trkpt lat="45.89623" lon="3.04664">
        <ele>531</ele>
        <time>2024-07-26T11:32:47Z</time>
      </trkpt>
      <trkpt lat="45.89624" lon="3.04664">
        <ele>530.2</ele>
        <time>2024-07-26T11:32:52Z</time>
      </trkpt>
      <trkpt lat="45.89624" lon="3.04665">
        <ele>530.5</ele>
        <time>2024-07-26T11:32:57Z</time>
      </trkpt>
      <trkpt lat="45.89623" lon="3.04666">
        <ele>529.3</ele>
        <time>2024-07-26T11:32:59Z</time>
      </trkpt>
      <trkpt lat="45.89622" lon="3.04667">
        <ele>531.7</ele>
        <time>2024-07-26T11:33:01Z</time>
      </trkpt>
      <trkpt lat="45.89621" lon="3.04668">
        <ele>531.7</ele>
        <time>2024-07-26T11:33:02Z</time>
      </trkpt>
      <trkpt lat="45.89619" lon="3.04668">
        <ele>532.1</ele>
        <time>2024-07-26T11:33:04Z</time>
      </trkpt>
      <trkpt lat="45.89618" lon="3.04669">
        <ele>531.9</ele>
        <time>2024-07-26T11:33:05Z</time>
      </trkpt>
      <trkpt lat="45.89617" lon="3.04669">
        <ele>531.5</ele>
        <time>2024-07-26T11:33:06Z</time>
      </trkpt>
      <trkpt lat="45.89616" lon="3.04669">
        <ele>530.8</ele>
        <time>2024-07-26T11:33:08Z</time>
      </trkpt>
      <trkpt lat="45.89615" lon="3.04669">
        <ele>531.7</ele>
        <time>2024-07-26T11:33:10Z</time>
      </trkpt>
      <trkpt lat="45.89614" lon="3.04667">
        <ele>532.4</ele>
        <time>2024-07-26T11:33:12Z</time>
      </trkpt>
      <trkpt lat="45.89612" lon="3.04667">
        <ele>529.9</ele>
        <time>2024-07-26T11:33:15Z</time>
      </trkpt>
      <trkpt lat="45.8961" lon="3.04668">
        <ele>530.4</ele>
        <time>2024-07-26T11:33:17Z</time>
      </trkpt>
      <trkpt lat="45.89609" lon="3.04669">
        <ele>530.2</ele>
        <time>2024-07-26T11:33:18Z</time>
      </trkpt>
      <trkpt lat="45.89609" lon="3.0467">
        <ele>527.7</ele>
        <time>2024-07-26T11:33:19Z</time>
      </trkpt>
      <trkpt lat="45.89608" lon="3.04671">
        <ele>526.7</ele>
        <time>2024-07-26T11:33:20Z</time>
      </trkpt>
      <trkpt lat="45.89606" lon="3.04671">
        <ele>526.5</ele>
        <time>2024-07-26T11:33:22Z</time>
      </trkpt>
      <trkpt lat="45.89605" lon="3.04671">
        <ele>530.4</ele>
        <time>2024-07-26T11:33:24Z</time>
      </trkpt>
      <trkpt lat="45.89604" lon="3.0467">
        <ele>527.3</ele>
        <time>2024-07-26T11:33:28Z</time>
      </trkpt>
      <trkpt lat="45.89603" lon="3.0467">
        <ele>527.9</ele>
        <time>2024-07-26T11:33:29Z</time>
      </trkpt>
      <trkpt lat="45.89601" lon="3.0467">
        <ele>527.1</ele>
        <time>2024-07-26T11:33:31Z</time>
      </trkpt>
      <trkpt lat="45.896" lon="3.04669">
        <ele>527.9</ele>
        <time>2024-07-26T11:33:33Z</time>
      </trkpt>
      <trkpt lat="45.89599" lon="3.04667">
        <ele>526.8</ele>
        <time>2024-07-26T11:33:35Z</time>
      </trkpt>
      <trkpt lat="45.89597" lon="3.04665">
        <ele>523.9</ele>
        <time>2024-07-26T11:33:36Z</time>
      </trkpt>
      <trkpt lat="45.89596" lon="3.04663">
        <ele>520.5</ele>
        <time>2024-07-26T11:33:37Z</time>
      </trkpt>
      <trkpt lat="45.89595" lon="3.04662">
        <ele>521.2</ele>
        <time>2024-07-26T11:33:38Z</time>
      </trkpt>
      <trkpt lat="45.89595" lon="3.04661">
        <ele>521</ele>
        <time>2024-07-26T11:33:39Z</time>
      </trkpt>
      <trkpt lat="45.89594" lon="3.04659">
        <ele>523</ele>
        <time>2024-07-26T11:33:41Z</time>
      </trkpt>
      <trkpt lat="45.89593" lon="3.04657">
        <ele>521.8</ele>
        <time>2024-07-26T11:33:43Z</time>
      </trkpt>
      <trkpt lat="45.89592" lon="3.04656">
        <ele>522.8</ele>
        <time>2024-07-26T11:33:44Z</time>
      </trkpt>
      <trkpt lat="45.8959" lon="3.04655">
        <ele>523.7</ele>
        <time>2024-07-26T11:33:46Z</time>
      </trkpt>
      <trkpt lat="45.8959" lon="3.04654">
        <ele>524.2</ele>
        <time>2024-07-26T11:33:49Z</time>
      </trkpt>
      <trkpt lat="45.8959" lon="3.04652">
        <ele>518.6</ele>
        <time>2024-07-26T11:33:51Z</time>
      </trkpt>
      <trkpt lat="45.8959" lon="3.04657">
        <ele>523.2</ele>
        <time>2024-07-26T11:33:56Z</time>
      </trkpt>
      <trkpt lat="45.89589" lon="3.04658">
        <ele>524.8</ele>
        <time>2024-07-26T11:33:57Z</time>
      </trkpt>
      <trkpt lat="45.89587" lon="3.04659">
        <ele>523.5</ele>
        <time>2024-07-26T11:33:59Z</time>
      </trkpt>
      <trkpt lat="45.89586" lon="3.04658">
        <ele>520.5</ele>
        <time>2024-07-26T11:34:00Z</time>
      </trkpt>
      <trkpt lat="45.89584" lon="3.04658">
        <ele>520.4</ele>
        <time>2024-07-26T11:34:01Z</time>
      </trkpt>
      <trkpt lat="45.89583" lon="3.04657">
        <ele>518.2</ele>
        <time>2024-07-26T11:34:02Z</time>
      </trkpt>
      <trkpt lat="45.89581" lon="3.04658">
        <ele>520.5</ele>
        <time>2024-07-26T11:34:03Z</time>
      </trkpt>
      <trkpt lat="45.8958" lon="3.04658">
        <ele>520.5</ele>
        <time>2024-07-26T11:34:04Z</time>
      </trkpt>
      <trkpt lat="45.8958" lon="3.04658">
        <ele>522.2</ele>
        <time>2024-07-26T11:34:08Z</time>
      </trkpt>
      <trkpt lat="45.89579" lon="3.04658">
        <ele>527.5</ele>
        <time>2024-07-26T11:34:14Z</time>
      </trkpt>
      <trkpt lat="45.89578" lon="3.04658">
        <ele>527.4</ele>
        <time>2024-07-26T11:34:15Z</time>
      </trkpt>
      <trkpt lat="45.89576" lon="3.0466">
        <ele>525.8</ele>
        <time>2024-07-26T11:34:17Z</time>
      </trkpt>
      <trkpt lat="45.89575" lon="3.04661">
        <ele>523.3</ele>
        <time>2024-07-26T11:34:19Z</time>
      </trkpt>
      <trkpt lat="45.89575" lon="3.04662">
        <ele>522.7</ele>
        <time>2024-07-26T11:34:21Z</time>
      </trkpt>
      <trkpt lat="45.89574" lon="3.04663">
        <ele>522.9</ele>
        <time>2024-07-26T11:34:27Z</time>
      </trkpt>
      <trkpt lat="45.89573" lon="3.04663">
        <ele>524</ele>
        <time>2024-07-26T11:34:28Z</time>
      </trkpt>
      <trkpt lat="45.89571" lon="3.04663">
        <ele>523.8</ele>
        <time>2024-07-26T11:34:29Z</time>
      </trkpt>
      <trkpt lat="45.8957" lon="3.04663">
        <ele>523.8</ele>
        <time>2024-07-26T11:34:30Z</time>
      </trkpt>
      <trkpt lat="45.89569" lon="3.04663">
        <ele>523.7</ele>
        <time>2024-07-26T11:34:31Z</time>
      </trkpt>
      <trkpt lat="45.89568" lon="3.04663">
        <ele>521</ele>
        <time>2024-07-26T11:34:32Z</time>
      </trkpt>
      <trkpt lat="45.89567" lon="3.04663">
        <ele>520</ele>
        <time>2024-07-26T11:34:33Z</time>
      </trkpt>
      <trkpt lat="45.89565" lon="3.04664">
        <ele>519.6</ele>
        <time>2024-07-26T11:34:35Z</time>
      </trkpt>
      <trkpt lat="45.89564" lon="3.04664">
        <ele>521.1</ele>
        <time>2024-07-26T11:34:37Z</time>
      </trkpt>
      <trkpt lat="45.89563" lon="3.04664">
        <ele>522.1</ele>
        <time>2024-07-26T11:34:39Z</time>
      </trkpt>
      <trkpt lat="45.89562" lon="3.04663">
        <ele>520.8</ele>
        <time>2024-07-26T11:34:41Z</time>
      </trkpt>
      <trkpt lat="45.89561" lon="3.04662">
        <ele>521.6</ele>
        <time>2024-07-26T11:34:42Z</time>
      </trkpt>
      <trkpt lat="45.8956" lon="3.04662">
        <ele>524.9</ele>
        <time>2024-07-26T11:34:44Z</time>
      </trkpt>
      <trkpt lat="45.89558" lon="3.04663">
        <ele>525.8</ele>
        <time>2024-07-26T11:34:46Z</time>
      </trkpt>
      <trkpt lat="45.89556" lon="3.04664">
        <ele>525.3</ele>
        <time>2024-07-26T11:34:48Z</time>
      </trkpt>
      <trkpt lat="45.89555" lon="3.04664">
        <ele>524.4</ele>
        <time>2024-07-26T11:34:50Z</time>
      </trkpt>
      <trkpt lat="45.89553" lon="3.04662">
        <ele>520.1</ele>
        <time>2024-07-26T11:34:52Z</time>
      </trkpt>
      <trkpt lat="45.89552" lon="3.04661">
        <ele>519.4</ele>
        <time>2024-07-26T11:34:53Z</time>
      </trkpt>
      <trkpt lat="45.8955" lon="3.0466">
        <ele>519.3</ele>
        <time>2024-07-26T11:34:54Z</time>
      </trkpt>
      <trkpt lat="45.89549" lon="3.0466">
        <ele>518.8</ele>
        <time>2024-07-26T11:34:55Z</time>
      </trkpt>
      <trkpt lat="45.89548" lon="3.04661">
        <ele>513.8</ele>
        <time>2024-07-26T11:34:57Z</time>
      </trkpt>
      <trkpt lat="45.89547" lon="3.0466">
        <ele>514.4</ele>
        <time>2024-07-26T11:34:59Z</time>
      </trkpt>
      <trkpt lat="45.89546" lon="3.04659">
        <ele>515.1</ele>
        <time>2024-07-26T11:35:01Z</time>
      </trkpt>
      <trkpt lat="45.89545" lon="3.04659">
        <ele>515.1</ele>
        <time>2024-07-26T11:35:03Z</time>
      </trkpt>
      <trkpt lat="45.89543" lon="3.04658">
        <ele>517</ele>
        <time>2024-07-26T11:35:05Z</time>
      </trkpt>
      <trkpt lat="45.89543" lon="3.04657">
        <ele>515.4</ele>
        <time>2024-07-26T11:35:07Z</time>
      </trkpt>
      <trkpt lat="45.89542" lon="3.04656">
        <ele>512.7</ele>
        <time>2024-07-26T11:35:10Z</time>
      </trkpt>
      <trkpt lat="45.8954" lon="3.04655">
        <ele>514.4</ele>
        <time>2024-07-26T11:35:12Z</time>
      </trkpt>
      <trkpt lat="45.89539" lon="3.04654">
        <ele>514.3</ele>
        <time>2024-07-26T11:35:14Z</time>
      </trkpt>
      <trkpt lat="45.89538" lon="3.04657">
        <ele>513.8</ele>
        <time>2024-07-26T11:35:17Z</time>
      </trkpt>
      <trkpt lat="45.89539" lon="3.04658">
        <ele>514.3</ele>
        <time>2024-07-26T11:35:18Z</time>
      </trkpt>
      <trkpt lat="45.89538" lon="3.0466">
        <ele>515.7</ele>
        <time>2024-07-26T11:35:19Z</time>
      </trkpt>
      <trkpt lat="45.89538" lon="3.04661">
        <ele>517.2</ele>
        <time>2024-07-26T11:35:20Z</time>
      </trkpt>
      <trkpt lat="45.89537" lon="3.04663">
        <ele>517.2</ele>
        <time>2024-07-26T11:35:21Z</time>
      </trkpt>
      <trkpt lat="45.89536" lon="3.04664">
        <ele>519.2</ele>
        <time>2024-07-26T11:35:22Z</time>
      </trkpt>
      <trkpt lat="45.89535" lon="3.04664">
        <ele>519.7</ele>
        <time>2024-07-26T11:35:24Z</time>
      </trkpt>
      <trkpt lat="45.89534" lon="3.04666">
        <ele>516.9</ele>
        <time>2024-07-26T11:35:28Z</time>
      </trkpt>
      <trkpt lat="45.89532" lon="3.04665">
        <ele>514.6</ele>
        <time>2024-07-26T11:35:30Z</time>
      </trkpt>
      <trkpt lat="45.89531" lon="3.04664">
        <ele>515.3</ele>
        <time>2024-07-26T11:35:31Z</time>
      </trkpt>
      <trkpt lat="45.8953" lon="3.04663">
        <ele>514.8</ele>
        <time>2024-07-26T11:35:32Z</time>
      </trkpt>
      <trkpt lat="45.8953" lon="3.04662">
        <ele>516.5</ele>
        <time>2024-07-26T11:35:34Z</time>
      </trkpt>
      <trkpt lat="45.89529" lon="3.04661">
        <ele>517.8</ele>
        <time>2024-07-26T11:35:37Z</time>
      </trkpt>
      <trkpt lat="45.89528" lon="3.04661">
        <ele>517.2</ele>
        <time>2024-07-26T11:35:39Z</time>
      </trkpt>
      <trkpt lat="45.89526" lon="3.04661">
        <ele>514.4</ele>
        <time>2024-07-26T11:35:40Z</time>
      </trkpt>
      <trkpt lat="45.89525" lon="3.04661">
        <ele>513.1</ele>
        <time>2024-07-26T11:35:41Z</time>
      </trkpt>
      <trkpt lat="45.89524" lon="3.04661">
        <ele>514</ele>
        <time>2024-07-26T11:35:42Z</time>
      </trkpt>
      <trkpt lat="45.89523" lon="3.0466">
        <ele>513.4</ele>
        <time>2024-07-26T11:35:43Z</time>
      </trkpt>
      <trkpt lat="45.89522" lon="3.04659">
        <ele>511.7</ele>
        <time>2024-07-26T11:35:44Z</time>
      </trkpt>
      <trkpt lat="45.89521" lon="3.04658">
        <ele>511.3</ele>
        <time>2024-07-26T11:35:45Z</time>
      </trkpt>
      <trkpt lat="45.8952" lon="3.04657">
        <ele>510.6</ele>
        <time>2024-07-26T11:35:46Z</time>
      </trkpt>
      <trkpt lat="45.89519" lon="3.04657">
        <ele>512.3</ele>
        <time>2024-07-26T11:35:47Z</time>
      </trkpt>
      <trkpt lat="45.89518" lon="3.04658">
        <ele>514.5</ele>
        <time>2024-07-26T11:35:48Z</time>
      </trkpt>
      <trkpt lat="45.89517" lon="3.04659">
        <ele>514.5</ele>
        <time>2024-07-26T11:35:49Z</time>
      </trkpt>
      <trkpt lat="45.89516" lon="3.0466">
        <ele>513.9</ele>
        <time>2024-07-26T11:35:50Z</time>
      </trkpt>
      <trkpt lat="45.89516" lon="3.04661">
        <ele>515.1</ele>
        <time>2024-07-26T11:35:55Z</time>
      </trkpt>
      <trkpt lat="45.89515" lon="3.04663">
        <ele>514.8</ele>
        <time>2024-07-26T11:35:57Z</time>
      </trkpt>
      <trkpt lat="45.89513" lon="3.04662">
        <ele>513.4</ele>
        <time>2024-07-26T11:35:59Z</time>
      </trkpt>
      <trkpt lat="45.89512" lon="3.04661">
        <ele>514.5</ele>
        <time>2024-07-26T11:36:01Z</time>
      </trkpt>
      <trkpt lat="45.89513" lon="3.04662">
        <ele>517.2</ele>
        <time>2024-07-26T11:36:06Z</time>
      </trkpt>
      <trkpt lat="45.89513" lon="3.04663">
        <ele>515.5</ele>
        <time>2024-07-26T11:36:07Z</time>
      </trkpt>
      <trkpt lat="45.89514" lon="3.04665">
        <ele>516.6</ele>
        <time>2024-07-26T11:36:08Z</time>
      </trkpt>
      <trkpt lat="45.89514" lon="3.04666">
        <ele>517</ele>
        <time>2024-07-26T11:36:09Z</time>
      </trkpt>
      <trkpt lat="45.89515" lon="3.04667">
        <ele>517.7</ele>
        <time>2024-07-26T11:36:10Z</time>
      </trkpt>
      <trkpt lat="45.89516" lon="3.04667">
        <ele>517.3</ele>
        <time>2024-07-26T11:36:11Z</time>
      </trkpt>
      <trkpt lat="45.89517" lon="3.04668">
        <ele>519.2</ele>
        <time>2024-07-26T11:36:12Z</time>
      </trkpt>
      <trkpt lat="45.89518" lon="3.04668">
        <ele>520</ele>
        <time>2024-07-26T11:36:13Z</time>
      </trkpt>
      <trkpt lat="45.89519" lon="3.04669">
        <ele>521.2</ele>
        <time>2024-07-26T11:36:14Z</time>
      </trkpt>
      <trkpt lat="45.89519" lon="3.0467">
        <ele>521.2</ele>
        <time>2024-07-26T11:36:16Z</time>
      </trkpt>
      <trkpt lat="45.89518" lon="3.0467">
        <ele>520</ele>
        <time>2024-07-26T11:36:30Z</time>
      </trkpt>
      <trkpt lat="45.89517" lon="3.0467">
        <ele>520.5</ele>
        <time>2024-07-26T11:36:32Z</time>
      </trkpt>
      <trkpt lat="45.89515" lon="3.04669">
        <ele>520.5</ele>
        <time>2024-07-26T11:36:34Z</time>
      </trkpt>
      <trkpt lat="45.89514" lon="3.04669">
        <ele>520.5</ele>
        <time>2024-07-26T11:36:35Z</time>
      </trkpt>
      <trkpt lat="45.89513" lon="3.04668">
        <ele>519.6</ele>
        <time>2024-07-26T11:36:36Z</time>
      </trkpt>
      <trkpt lat="45.89511" lon="3.04668">
        <ele>521.1</ele>
        <time>2024-07-26T11:36:37Z</time>
      </trkpt>
      <trkpt lat="45.8951" lon="3.04669">
        <ele>519.9</ele>
        <time>2024-07-26T11:36:39Z</time>
      </trkpt>
      <trkpt lat="45.89509" lon="3.0467">
        <ele>520.2</ele>
        <time>2024-07-26T11:36:41Z</time>
      </trkpt>
      <trkpt lat="45.89508" lon="3.04669">
        <ele>519</ele>
        <time>2024-07-26T11:36:43Z</time>
      </trkpt>
      <trkpt lat="45.89508" lon="3.04667">
        <ele>518.8</ele>
        <time>2024-07-26T11:36:44Z</time>
      </trkpt>
      <trkpt lat="45.89508" lon="3.04666">
        <ele>517.2</ele>
        <time>2024-07-26T11:36:45Z</time>
      </trkpt>
      <trkpt lat="45.89507" lon="3.04665">
        <ele>516.1</ele>
        <time>2024-07-26T11:36:46Z</time>
      </trkpt>
      <trkpt lat="45.89505" lon="3.04663">
        <ele>516.5</ele>
        <time>2024-07-26T11:36:48Z</time>
      </trkpt>
      <trkpt lat="45.89504" lon="3.04664">
        <ele>517.9</ele>
        <time>2024-07-26T11:36:49Z</time>
      </trkpt>
      <trkpt lat="45.89502" lon="3.04663">
        <ele>515.1</ele>
        <time>2024-07-26T11:36:50Z</time>
      </trkpt>
      <trkpt lat="45.89501" lon="3.04663">
        <ele>514.8</ele>
        <time>2024-07-26T11:36:51Z</time>
      </trkpt>
      <trkpt lat="45.895" lon="3.04663">
        <ele>515.2</ele>
        <time>2024-07-26T11:36:52Z</time>
      </trkpt>
      <trkpt lat="45.89499" lon="3.04663">
        <ele>516.5</ele>
        <time>2024-07-26T11:36:53Z</time>
      </trkpt>
      <trkpt lat="45.89498" lon="3.04663">
        <ele>515.7</ele>
        <time>2024-07-26T11:36:54Z</time>
      </trkpt>
      <trkpt lat="45.89496" lon="3.04663">
        <ele>515.6</ele>
        <time>2024-07-26T11:36:56Z</time>
      </trkpt>
      <trkpt lat="45.89495" lon="3.04663">
        <ele>514.9</ele>
        <time>2024-07-26T11:36:58Z</time>
      </trkpt>
      <trkpt lat="45.89493" lon="3.04664">
        <ele>516.6</ele>
        <time>2024-07-26T11:37:00Z</time>
      </trkpt>
      <trkpt lat="45.89494" lon="3.04663">
        <ele>519.3</ele>
        <time>2024-07-26T11:37:04Z</time>
      </trkpt>
      <trkpt lat="45.89493" lon="3.04662">
        <ele>518.8</ele>
        <time>2024-07-26T11:37:06Z</time>
      </trkpt>
      <trkpt lat="45.89492" lon="3.04662">
        <ele>519.5</ele>
        <time>2024-07-26T11:37:08Z</time>
      </trkpt>
      <trkpt lat="45.89491" lon="3.04661">
        <ele>517.3</ele>
        <time>2024-07-26T11:37:10Z</time>
      </trkpt>
      <trkpt lat="45.89489" lon="3.04659">
        <ele>517.1</ele>
        <time>2024-07-26T11:37:12Z</time>
      </trkpt>
      <trkpt lat="45.89488" lon="3.04659">
        <ele>518.7</ele>
        <time>2024-07-26T11:37:13Z</time>
      </trkpt>
      <trkpt lat="45.89487" lon="3.04658">
        <ele>520.2</ele>
        <time>2024-07-26T11:37:15Z</time>
      </trkpt>
      <trkpt lat="45.89486" lon="3.04658">
        <ele>521.2</ele>
        <time>2024-07-26T11:37:21Z</time>
      </trkpt>
      <trkpt lat="45.89485" lon="3.04659">
        <ele>519.9</ele>
        <time>2024-07-26T11:37:22Z</time>
      </trkpt>
      <trkpt lat="45.89484" lon="3.0466">
        <ele>518.7</ele>
        <time>2024-07-26T11:37:23Z</time>
      </trkpt>
      <trkpt lat="45.89483" lon="3.04662">
        <ele>517</ele>
        <time>2024-07-26T11:37:24Z</time>
      </trkpt>
      <trkpt lat="45.89482" lon="3.04664">
        <ele>517.4</ele>
        <time>2024-07-26T11:37:25Z</time>
      </trkpt>
      <trkpt lat="45.89482" lon="3.04666">
        <ele>516.9</ele>
        <time>2024-07-26T11:37:27Z</time>
      </trkpt>
      <trkpt lat="45.89481" lon="3.04665">
        <ele>516.9</ele>
        <time>2024-07-26T11:37:31Z</time>
      </trkpt>
      <trkpt lat="45.8948" lon="3.04664">
        <ele>515.3</ele>
        <time>2024-07-26T11:37:32Z</time>
      </trkpt>
      <trkpt lat="45.89479" lon="3.04663">
        <ele>515.5</ele>
        <time>2024-07-26T11:37:33Z</time>
      </trkpt>
      <trkpt lat="45.89478" lon="3.04663">
        <ele>517.5</ele>
        <time>2024-07-26T11:37:35Z</time>
      </trkpt>
      <trkpt lat="45.89477" lon="3.04662">
        <ele>515.9</ele>
        <time>2024-07-26T11:37:37Z</time>
      </trkpt>
      <trkpt lat="45.89477" lon="3.04661">
        <ele>516.6</ele>
        <time>2024-07-26T11:37:39Z</time>
      </trkpt>
      <trkpt lat="45.89476" lon="3.04661">
        <ele>513.9</ele>
        <time>2024-07-26T11:37:40Z</time>
      </trkpt>
      <trkpt lat="45.89474" lon="3.04662">
        <ele>515.4</ele>
        <time>2024-07-26T11:37:42Z</time>
      </trkpt>
      <trkpt lat="45.89473" lon="3.04662">
        <ele>514.6</ele>
        <time>2024-07-26T11:37:43Z</time>
      </trkpt>
      <trkpt lat="45.89472" lon="3.04662">
        <ele>514.5</ele>
        <time>2024-07-26T11:37:44Z</time>
      </trkpt>
      <trkpt lat="45.89471" lon="3.04663">
        <ele>515.5</ele>
        <time>2024-07-26T11:37:45Z</time>
      </trkpt>
      <trkpt lat="45.8947" lon="3.04666">
        <ele>516.2</ele>
        <time>2024-07-26T11:37:47Z</time>
      </trkpt>
      <trkpt lat="45.8947" lon="3.04667">
        <ele>516.2</ele>
        <time>2024-07-26T11:37:48Z</time>
      </trkpt>
      <trkpt lat="45.89469" lon="3.04669">
        <ele>514.7</ele>
        <time>2024-07-26T11:37:50Z</time>
      </trkpt>
      <trkpt lat="45.89468" lon="3.04669">
        <ele>513.8</ele>
        <time>2024-07-26T11:37:51Z</time>
      </trkpt>
      <trkpt lat="45.89467" lon="3.04671">
        <ele>516.1</ele>
        <time>2024-07-26T11:37:53Z</time>
      </trkpt>
      <trkpt lat="45.89466" lon="3.04672">
        <ele>516.1</ele>
        <time>2024-07-26T11:37:54Z</time>
      </trkpt>
      <trkpt lat="45.89465" lon="3.04674">
        <ele>516.6</ele>
        <time>2024-07-26T11:37:55Z</time>
      </trkpt>
      <trkpt lat="45.89464" lon="3.04676">
        <ele>515</ele>
        <time>2024-07-26T11:37:57Z</time>
      </trkpt>
      <trkpt lat="45.89463" lon="3.04677">
        <ele>515.6</ele>
        <time>2024-07-26T11:37:58Z</time>
      </trkpt>
      <trkpt lat="45.89462" lon="3.04678">
        <ele>515.6</ele>
        <time>2024-07-26T11:37:59Z</time>
      </trkpt>
      <trkpt lat="45.89461" lon="3.04679">
        <ele>516.8</ele>
        <time>2024-07-26T11:38:00Z</time>
      </trkpt>
      <trkpt lat="45.89459" lon="3.04679">
        <ele>517.3</ele>
        <time>2024-07-26T11:38:01Z</time>
      </trkpt>
      <trkpt lat="45.8946" lon="3.0468">
        <ele>508.5</ele>
        <time>2024-07-26T11:38:02Z</time>
      </trkpt>
      <trkpt lat="45.8946" lon="3.04681">
        <ele>507.8</ele>
        <time>2024-07-26T11:38:03Z</time>
      </trkpt>
      <trkpt lat="45.89462" lon="3.04684">
        <ele>508.4</ele>
        <time>2024-07-26T11:38:05Z</time>
      </trkpt>
      <trkpt lat="45.89463" lon="3.04685">
        <ele>507.2</ele>
        <time>2024-07-26T11:38:06Z</time>
      </trkpt>
      <trkpt lat="45.89463" lon="3.04683">
        <ele>503.9</ele>
        <time>2024-07-26T11:38:09Z</time>
      </trkpt>
      <trkpt lat="45.89464" lon="3.04685">
        <ele>504.3</ele>
        <time>2024-07-26T11:38:12Z</time>
      </trkpt>
      <trkpt lat="45.89464" lon="3.04686">
        <ele>505.4</ele>
        <time>2024-07-26T11:38:13Z</time>
      </trkpt>
      <trkpt lat="45.89464" lon="3.04687">
        <ele>504.8</ele>
        <time>2024-07-26T11:38:15Z</time>
      </trkpt>
      <trkpt lat="45.89463" lon="3.04688">
        <ele>504.9</ele>
        <time>2024-07-26T11:38:18Z</time>
      </trkpt>
      <trkpt lat="45.89464" lon="3.04689">
        <ele>504.3</ele>
        <time>2024-07-26T11:38:22Z</time>
      </trkpt>
      <trkpt lat="45.89463" lon="3.04689">
        <ele>500.4</ele>
        <time>2024-07-26T11:38:23Z</time>
      </trkpt>
      <trkpt lat="45.89462" lon="3.04689">
        <ele>500.7</ele>
        <time>2024-07-26T11:38:24Z</time>
      </trkpt>
      <trkpt lat="45.89462" lon="3.04687">
        <ele>500.8</ele>
        <time>2024-07-26T11:38:26Z</time>
      </trkpt>
      <trkpt lat="45.89462" lon="3.04686">
        <ele>500.8</ele>
        <time>2024-07-26T11:38:29Z</time>
      </trkpt>
      <trkpt lat="45.89462" lon="3.04687">
        <ele>501.4</ele>
        <time>2024-07-26T11:38:39Z</time>
      </trkpt>
      <trkpt lat="45.89462" lon="3.04685">
        <ele>504.6</ele>
        <time>2024-07-26T11:38:48Z</time>
      </trkpt>
      <trkpt lat="45.89463" lon="3.04684">
        <ele>505.4</ele>
        <time>2024-07-26T11:38:50Z</time>
      </trkpt>
      <trkpt lat="45.89464" lon="3.04684">
        <ele>506.6</ele>
        <time>2024-07-26T11:38:51Z</time>
      </trkpt>
      <trkpt lat="45.89464" lon="3.04682">
        <ele>503.4</ele>
        <time>2024-07-26T11:38:53Z</time>
      </trkpt>
      <trkpt lat="45.89463" lon="3.04681">
        <ele>506.2</ele>
        <time>2024-07-26T11:38:56Z</time>
      </trkpt>
      <trkpt lat="45.89464" lon="3.04679">
        <ele>505.5</ele>
        <time>2024-07-26T11:38:58Z</time>
      </trkpt>
      <trkpt lat="45.89463" lon="3.04678">
        <ele>504.4</ele>
        <time>2024-07-26T11:39:00Z</time>
      </trkpt>
      <trkpt lat="45.89462" lon="3.04677">
        <ele>505.2</ele>
        <time>2024-07-26T11:39:02Z</time>
      </trkpt>
      <trkpt lat="45.89463" lon="3.04679">
        <ele>508.4</ele>
        <time>2024-07-26T11:39:07Z</time>
      </trkpt>
      <trkpt lat="45.89464" lon="3.04681">
        <ele>508</ele>
        <time>2024-07-26T11:39:08Z</time>
      </trkpt>
      <trkpt lat="45.89462" lon="3.04681">
        <ele>508.6</ele>
        <time>2024-07-26T11:39:09Z</time>
      </trkpt>
      <trkpt lat="45.89461" lon="3.04681">
        <ele>508.2</ele>
        <time>2024-07-26T11:39:10Z</time>
      </trkpt>
      <trkpt lat="45.89459" lon="3.04681">
        <ele>508.2</ele>
        <time>2024-07-26T11:39:11Z</time>
      </trkpt>
      <trkpt lat="45.89457" lon="3.04681">
        <ele>507.6</ele>
        <time>2024-07-26T11:39:12Z</time>
      </trkpt>
      <trkpt lat="45.89455" lon="3.04681">
        <ele>507.4</ele>
        <time>2024-07-26T11:39:13Z</time>
      </trkpt>
      <trkpt lat="45.89454" lon="3.04681">
        <ele>508.4</ele>
        <time>2024-07-26T11:39:14Z</time>
      </trkpt>
      <trkpt lat="45.89451" lon="3.04683">
        <ele>511.8</ele>
        <time>2024-07-26T11:39:16Z</time>
      </trkpt>
      <trkpt lat="45.89449" lon="3.04683">
        <ele>513</ele>
        <time>2024-07-26T11:39:17Z</time>
      </trkpt>
      <trkpt lat="45.89448" lon="3.04684">
        <ele>512.8</ele>
        <time>2024-07-26T11:39:18Z</time>
      </trkpt>
      <trkpt lat="45.89447" lon="3.04685">
        <ele>513.2</ele>
        <time>2024-07-26T11:39:19Z</time>
      </trkpt>
      <trkpt lat="45.89446" lon="3.04687">
        <ele>511</ele>
        <time>2024-07-26T11:39:20Z</time>
      </trkpt>
      <trkpt lat="45.89445" lon="3.04688">
        <ele>512</ele>
        <time>2024-07-26T11:39:21Z</time>
      </trkpt>
      <trkpt lat="45.89444" lon="3.04689">
        <ele>511.2</ele>
        <time>2024-07-26T11:39:22Z</time>
      </trkpt>
      <trkpt lat="45.89442" lon="3.0469">
        <ele>509.4</ele>
        <time>2024-07-26T11:39:23Z</time>
      </trkpt>
      <trkpt lat="45.89441" lon="3.0469">
        <ele>509.4</ele>
        <time>2024-07-26T11:39:24Z</time>
      </trkpt>
      <trkpt lat="45.89439" lon="3.04691">
        <ele>511.6</ele>
        <time>2024-07-26T11:39:25Z</time>
      </trkpt>
      <trkpt lat="45.89438" lon="3.04691">
        <ele>511.4</ele>
        <time>2024-07-26T11:39:26Z</time>
      </trkpt>
      <trkpt lat="45.89437" lon="3.04692">
        <ele>510.9</ele>
        <time>2024-07-26T11:39:27Z</time>
      </trkpt>
      <trkpt lat="45.89436" lon="3.04692">
        <ele>510.3</ele>
        <time>2024-07-26T11:39:28Z</time>
      </trkpt>
      <trkpt lat="45.89435" lon="3.04692">
        <ele>510.2</ele>
        <time>2024-07-26T11:39:29Z</time>
      </trkpt>
      <trkpt lat="45.89434" lon="3.04693">
        <ele>510.1</ele>
        <time>2024-07-26T11:39:30Z</time>
      </trkpt>
      <trkpt lat="45.89433" lon="3.04692">
        <ele>509.5</ele>
        <time>2024-07-26T11:39:31Z</time>
      </trkpt>
      <trkpt lat="45.89431" lon="3.04692">
        <ele>510.3</ele>
        <time>2024-07-26T11:39:33Z</time>
      </trkpt>
      <trkpt lat="45.8943" lon="3.04692">
        <ele>510</ele>
        <time>2024-07-26T11:39:35Z</time>
      </trkpt>
      <trkpt lat="45.89429" lon="3.04692">
        <ele>508.2</ele>
        <time>2024-07-26T11:39:37Z</time>
      </trkpt>
      <trkpt lat="45.89427" lon="3.04694">
        <ele>507.6</ele>
        <time>2024-07-26T11:39:40Z</time>
      </trkpt>
      <trkpt lat="45.89427" lon="3.04695">
        <ele>508.3</ele>
        <time>2024-07-26T11:39:41Z</time>
      </trkpt>
      <trkpt lat="45.89426" lon="3.04697">
        <ele>507.6</ele>
        <time>2024-07-26T11:39:42Z</time>
      </trkpt>
      <trkpt lat="45.89426" lon="3.04699">
        <ele>505.5</ele>
        <time>2024-07-26T11:39:43Z</time>
      </trkpt>
      <trkpt lat="45.89425" lon="3.04701">
        <ele>504.9</ele>
        <time>2024-07-26T11:39:44Z</time>
      </trkpt>
      <trkpt lat="45.89424" lon="3.04702">
        <ele>504.8</ele>
        <time>2024-07-26T11:39:45Z</time>
      </trkpt>
      <trkpt lat="45.89423" lon="3.04703">
        <ele>505.6</ele>
        <time>2024-07-26T11:39:46Z</time>
      </trkpt>
      <trkpt lat="45.89421" lon="3.04704">
        <ele>505.3</ele>
        <time>2024-07-26T11:39:48Z</time>
      </trkpt>
      <trkpt lat="45.8942" lon="3.04704">
        <ele>505.3</ele>
        <time>2024-07-26T11:39:49Z</time>
      </trkpt>
      <trkpt lat="45.89419" lon="3.04704">
        <ele>504.6</ele>
        <time>2024-07-26T11:39:50Z</time>
      </trkpt>
      <trkpt lat="45.89418" lon="3.04705">
        <ele>503.1</ele>
        <time>2024-07-26T11:39:53Z</time>
      </trkpt>
      <trkpt lat="45.89417" lon="3.04707">
        <ele>502.8</ele>
        <time>2024-07-26T11:39:55Z</time>
      </trkpt>
      <trkpt lat="45.89417" lon="3.04708">
        <ele>503.5</ele>
        <time>2024-07-26T11:39:56Z</time>
      </trkpt>
      <trkpt lat="45.89416" lon="3.0471">
        <ele>502.6</ele>
        <time>2024-07-26T11:39:57Z</time>
      </trkpt>
      <trkpt lat="45.89415" lon="3.04711">
        <ele>504.6</ele>
        <time>2024-07-26T11:39:59Z</time>
      </trkpt>
      <trkpt lat="45.89413" lon="3.0471">
        <ele>506.5</ele>
        <time>2024-07-26T11:40:01Z</time>
      </trkpt>
      <trkpt lat="45.89413" lon="3.04711">
        <ele>505.2</ele>
        <time>2024-07-26T11:40:03Z</time>
      </trkpt>
      <trkpt lat="45.89412" lon="3.04713">
        <ele>504.5</ele>
        <time>2024-07-26T11:40:05Z</time>
      </trkpt>
      <trkpt lat="45.89411" lon="3.04714">
        <ele>504.6</ele>
        <time>2024-07-26T11:40:07Z</time>
      </trkpt>
      <trkpt lat="45.8941" lon="3.04715">
        <ele>505.1</ele>
        <time>2024-07-26T11:40:09Z</time>
      </trkpt>
      <trkpt lat="45.89409" lon="3.04717">
        <ele>504.3</ele>
        <time>2024-07-26T11:40:11Z</time>
      </trkpt>
      <trkpt lat="45.89408" lon="3.04718">
        <ele>503.6</ele>
        <time>2024-07-26T11:40:13Z</time>
      </trkpt>
      <trkpt lat="45.89407" lon="3.0472">
        <ele>504.1</ele>
        <time>2024-07-26T11:40:15Z</time>
      </trkpt>
      <trkpt lat="45.89408" lon="3.04722">
        <ele>504.5</ele>
        <time>2024-07-26T11:40:17Z</time>
      </trkpt>
      <trkpt lat="45.89408" lon="3.04724">
        <ele>504.2</ele>
        <time>2024-07-26T11:40:18Z</time>
      </trkpt>
      <trkpt lat="45.89409" lon="3.04725">
        <ele>505.4</ele>
        <time>2024-07-26T11:40:20Z</time>
      </trkpt>
      <trkpt lat="45.8941" lon="3.04727">
        <ele>505.5</ele>
        <time>2024-07-26T11:40:23Z</time>
      </trkpt>
      <trkpt lat="45.8941" lon="3.04729">
        <ele>506.8</ele>
        <time>2024-07-26T11:40:25Z</time>
      </trkpt>
      <trkpt lat="45.89409" lon="3.04731">
        <ele>509.4</ele>
        <time>2024-07-26T11:40:27Z</time>
      </trkpt>
      <trkpt lat="45.89408" lon="3.04731">
        <ele>506.4</ele>
        <time>2024-07-26T11:40:28Z</time>
      </trkpt>
      <trkpt lat="45.89407" lon="3.04732">
        <ele>506.4</ele>
        <time>2024-07-26T11:40:29Z</time>
      </trkpt>
      <trkpt lat="45.89406" lon="3.04732">
        <ele>503.5</ele>
        <time>2024-07-26T11:40:30Z</time>
      </trkpt>
      <trkpt lat="45.89405" lon="3.04732">
        <ele>502.6</ele>
        <time>2024-07-26T11:40:31Z</time>
      </trkpt>
      <trkpt lat="45.89403" lon="3.04732">
        <ele>502.2</ele>
        <time>2024-07-26T11:40:32Z</time>
      </trkpt>
      <trkpt lat="45.89402" lon="3.04731">
        <ele>501.3</ele>
        <time>2024-07-26T11:40:33Z</time>
      </trkpt>
      <trkpt lat="45.89399" lon="3.0473">
        <ele>496.9</ele>
        <time>2024-07-26T11:40:34Z</time>
      </trkpt>
      <trkpt lat="45.89397" lon="3.04728">
        <ele>496.6</ele>
        <time>2024-07-26T11:40:35Z</time>
      </trkpt>
      <trkpt lat="45.89395" lon="3.04727">
        <ele>496.4</ele>
        <time>2024-07-26T11:40:36Z</time>
      </trkpt>
      <trkpt lat="45.89394" lon="3.04726">
        <ele>498.5</ele>
        <time>2024-07-26T11:40:37Z</time>
      </trkpt>
      <trkpt lat="45.89393" lon="3.04725">
        <ele>498.6</ele>
        <time>2024-07-26T11:40:38Z</time>
      </trkpt>
      <trkpt lat="45.89392" lon="3.04725">
        <ele>497.8</ele>
        <time>2024-07-26T11:40:39Z</time>
      </trkpt>
      <trkpt lat="45.89391" lon="3.04724">
        <ele>496.7</ele>
        <time>2024-07-26T11:40:40Z</time>
      </trkpt>
      <trkpt lat="45.8939" lon="3.04723">
        <ele>496.6</ele>
        <time>2024-07-26T11:40:41Z</time>
      </trkpt>
      <trkpt lat="45.89389" lon="3.04723">
        <ele>496</ele>
        <time>2024-07-26T11:40:42Z</time>
      </trkpt>
      <trkpt lat="45.89387" lon="3.04722">
        <ele>493.1</ele>
        <time>2024-07-26T11:40:44Z</time>
      </trkpt>
      <trkpt lat="45.89386" lon="3.0472">
        <ele>496.8</ele>
        <time>2024-07-26T11:40:46Z</time>
      </trkpt>
      <trkpt lat="45.89385" lon="3.04719">
        <ele>498.1</ele>
        <time>2024-07-26T11:40:47Z</time>
      </trkpt>
      <trkpt lat="45.89385" lon="3.04718">
        <ele>498</ele>
        <time>2024-07-26T11:40:48Z</time>
      </trkpt>
      <trkpt lat="45.89384" lon="3.04718">
        <ele>497.7</ele>
        <time>2024-07-26T11:40:49Z</time>
      </trkpt>
      <trkpt lat="45.89383" lon="3.04716">
        <ele>498.6</ele>
        <time>2024-07-26T11:40:51Z</time>
      </trkpt>
      <trkpt lat="45.89382" lon="3.04715">
        <ele>499.5</ele>
        <time>2024-07-26T11:40:52Z</time>
      </trkpt>
      <trkpt lat="45.89381" lon="3.04714">
        <ele>499.6</ele>
        <time>2024-07-26T11:40:53Z</time>
      </trkpt>
      <trkpt lat="45.89381" lon="3.04712">
        <ele>496.2</ele>
        <time>2024-07-26T11:40:56Z</time>
      </trkpt>
      <trkpt lat="45.89379" lon="3.04711">
        <ele>496.7</ele>
        <time>2024-07-26T11:40:58Z</time>
      </trkpt>
      <trkpt lat="45.89378" lon="3.0471">
        <ele>494.6</ele>
        <time>2024-07-26T11:41:00Z</time>
      </trkpt>
      <trkpt lat="45.89376" lon="3.0471">
        <ele>495.3</ele>
        <time>2024-07-26T11:41:02Z</time>
      </trkpt>
      <trkpt lat="45.89375" lon="3.0471">
        <ele>495.8</ele>
        <time>2024-07-26T11:41:04Z</time>
      </trkpt>
      <trkpt lat="45.89374" lon="3.04708">
        <ele>496</ele>
        <time>2024-07-26T11:41:06Z</time>
      </trkpt>
      <trkpt lat="45.89373" lon="3.04708">
        <ele>495.7</ele>
        <time>2024-07-26T11:41:07Z</time>
      </trkpt>
      <trkpt lat="45.89372" lon="3.04707">
        <ele>495.2</ele>
        <time>2024-07-26T11:41:08Z</time>
      </trkpt>
      <trkpt lat="45.89371" lon="3.04706">
        <ele>495.1</ele>
        <time>2024-07-26T11:41:09Z</time>
      </trkpt>
      <trkpt lat="45.8937" lon="3.04706">
        <ele>496.1</ele>
        <time>2024-07-26T11:41:10Z</time>
      </trkpt>
      <trkpt lat="45.89368" lon="3.04707">
        <ele>497</ele>
        <time>2024-07-26T11:41:11Z</time>
      </trkpt>
      <trkpt lat="45.89367" lon="3.04708">
        <ele>497.2</ele>
        <time>2024-07-26T11:41:12Z</time>
      </trkpt>
      <trkpt lat="45.89364" lon="3.04708">
        <ele>496.4</ele>
        <time>2024-07-26T11:41:14Z</time>
      </trkpt>
      <trkpt lat="45.89362" lon="3.04708">
        <ele>496.6</ele>
        <time>2024-07-26T11:41:16Z</time>
      </trkpt>
      <trkpt lat="45.89361" lon="3.04707">
        <ele>499</ele>
        <time>2024-07-26T11:41:18Z</time>
      </trkpt>
      <trkpt lat="45.8936" lon="3.04706">
        <ele>500.9</ele>
        <time>2024-07-26T11:41:20Z</time>
      </trkpt>
      <trkpt lat="45.89358" lon="3.04705">
        <ele>502.4</ele>
        <time>2024-07-26T11:41:23Z</time>
      </trkpt>
      <trkpt lat="45.89357" lon="3.04704">
        <ele>502.9</ele>
        <time>2024-07-26T11:41:25Z</time>
      </trkpt>
      <trkpt lat="45.89356" lon="3.04703">
        <ele>503.1</ele>
        <time>2024-07-26T11:41:26Z</time>
      </trkpt>
      <trkpt lat="45.89356" lon="3.04702">
        <ele>503.8</ele>
        <time>2024-07-26T11:41:27Z</time>
      </trkpt>
      <trkpt lat="45.89355" lon="3.04701">
        <ele>503.5</ele>
        <time>2024-07-26T11:41:28Z</time>
      </trkpt>
      <trkpt lat="45.89354" lon="3.04699">
        <ele>504.5</ele>
        <time>2024-07-26T11:41:30Z</time>
      </trkpt>
      <trkpt lat="45.89354" lon="3.04697">
        <ele>504.4</ele>
        <time>2024-07-26T11:41:32Z</time>
      </trkpt>
      <trkpt lat="45.89353" lon="3.04696">
        <ele>504.8</ele>
        <time>2024-07-26T11:41:34Z</time>
      </trkpt>
      <trkpt lat="45.89352" lon="3.04695">
        <ele>505.2</ele>
        <time>2024-07-26T11:41:35Z</time>
      </trkpt>
      <trkpt lat="45.8935" lon="3.04694">
        <ele>504.8</ele>
        <time>2024-07-26T11:41:37Z</time>
      </trkpt>
      <trkpt lat="45.89349" lon="3.04693">
        <ele>505</ele>
        <time>2024-07-26T11:41:38Z</time>
      </trkpt>
      <trkpt lat="45.89348" lon="3.04693">
        <ele>505.1</ele>
        <time>2024-07-26T11:41:39Z</time>
      </trkpt>
      <trkpt lat="45.89347" lon="3.04692">
        <ele>503.9</ele>
        <time>2024-07-26T11:41:41Z</time>
      </trkpt>
      <trkpt lat="45.89346" lon="3.04691">
        <ele>504.1</ele>
        <time>2024-07-26T11:41:42Z</time>
      </trkpt>
      <trkpt lat="45.89345" lon="3.0469">
        <ele>503</ele>
        <time>2024-07-26T11:41:43Z</time>
      </trkpt>
      <trkpt lat="45.89345" lon="3.04689">
        <ele>502.1</ele>
        <time>2024-07-26T11:41:44Z</time>
      </trkpt>
      <trkpt lat="45.89344" lon="3.04688">
        <ele>502.6</ele>
        <time>2024-07-26T11:41:45Z</time>
      </trkpt>
      <trkpt lat="45.89343" lon="3.04687">
        <ele>503.3</ele>
        <time>2024-07-26T11:41:46Z</time>
      </trkpt>
      <trkpt lat="45.89342" lon="3.04687">
        <ele>502.9</ele>
        <time>2024-07-26T11:41:47Z</time>
      </trkpt>
      <trkpt lat="45.8934" lon="3.04686">
        <ele>501.1</ele>
        <time>2024-07-26T11:41:49Z</time>
      </trkpt>
      <trkpt lat="45.89339" lon="3.04685">
        <ele>501</ele>
        <time>2024-07-26T11:41:50Z</time>
      </trkpt>
      <trkpt lat="45.89338" lon="3.04684">
        <ele>503.5</ele>
        <time>2024-07-26T11:41:52Z</time>
      </trkpt>
      <trkpt lat="45.89337" lon="3.04682">
        <ele>504.8</ele>
        <time>2024-07-26T11:41:54Z</time>
      </trkpt>
      <trkpt lat="45.89335" lon="3.04682">
        <ele>504.1</ele>
        <time>2024-07-26T11:41:56Z</time>
      </trkpt>
      <trkpt lat="45.89334" lon="3.04682">
        <ele>505.2</ele>
        <time>2024-07-26T11:41:57Z</time>
      </trkpt>
      <trkpt lat="45.89333" lon="3.04682">
        <ele>505.9</ele>
        <time>2024-07-26T11:41:58Z</time>
      </trkpt>
      <trkpt lat="45.89332" lon="3.04681">
        <ele>506.1</ele>
        <time>2024-07-26T11:41:59Z</time>
      </trkpt>
      <trkpt lat="45.89331" lon="3.04682">
        <ele>505.5</ele>
        <time>2024-07-26T11:42:00Z</time>
      </trkpt>
      <trkpt lat="45.89329" lon="3.04682">
        <ele>505.4</ele>
        <time>2024-07-26T11:42:01Z</time>
      </trkpt>
      <trkpt lat="45.89328" lon="3.04682">
        <ele>504.7</ele>
        <time>2024-07-26T11:42:02Z</time>
      </trkpt>
      <trkpt lat="45.89327" lon="3.04681">
        <ele>505.6</ele>
        <time>2024-07-26T11:42:04Z</time>
      </trkpt>
      <trkpt lat="45.89326" lon="3.0468">
        <ele>504.2</ele>
        <time>2024-07-26T11:42:05Z</time>
      </trkpt>
      <trkpt lat="45.89325" lon="3.04679">
        <ele>504.5</ele>
        <time>2024-07-26T11:42:06Z</time>
      </trkpt>
      <trkpt lat="45.89324" lon="3.04678">
        <ele>504.1</ele>
        <time>2024-07-26T11:42:07Z</time>
      </trkpt>
      <trkpt lat="45.89323" lon="3.04677">
        <ele>503.7</ele>
        <time>2024-07-26T11:42:08Z</time>
      </trkpt>
      <trkpt lat="45.89322" lon="3.04676">
        <ele>503.5</ele>
        <time>2024-07-26T11:42:09Z</time>
      </trkpt>
      <trkpt lat="45.89321" lon="3.04675">
        <ele>502.9</ele>
        <time>2024-07-26T11:42:10Z</time>
      </trkpt>
      <trkpt lat="45.89321" lon="3.04674">
        <ele>500.9</ele>
        <time>2024-07-26T11:42:11Z</time>
      </trkpt>
      <trkpt lat="45.8932" lon="3.04673">
        <ele>504.3</ele>
        <time>2024-07-26T11:42:13Z</time>
      </trkpt>
      <trkpt lat="45.89318" lon="3.04671">
        <ele>503.4</ele>
        <time>2024-07-26T11:42:15Z</time>
      </trkpt>
      <trkpt lat="45.89318" lon="3.0467">
        <ele>502.3</ele>
        <time>2024-07-26T11:42:16Z</time>
      </trkpt>
      <trkpt lat="45.89317" lon="3.04669">
        <ele>502.1</ele>
        <time>2024-07-26T11:42:17Z</time>
      </trkpt>
      <trkpt lat="45.89317" lon="3.04668">
        <ele>500.6</ele>
        <time>2024-07-26T11:42:18Z</time>
      </trkpt>
      <trkpt lat="45.89316" lon="3.04667">
        <ele>500.3</ele>
        <time>2024-07-26T11:42:19Z</time>
      </trkpt>
      <trkpt lat="45.89315" lon="3.04666">
        <ele>501.6</ele>
        <time>2024-07-26T11:42:20Z</time>
      </trkpt>
      <trkpt lat="45.89314" lon="3.04665">
        <ele>500.8</ele>
        <time>2024-07-26T11:42:21Z</time>
      </trkpt>
      <trkpt lat="45.89314" lon="3.04664">
        <ele>503.9</ele>
        <time>2024-07-26T11:42:23Z</time>
      </trkpt>
      <trkpt lat="45.89313" lon="3.04662">
        <ele>502.9</ele>
        <time>2024-07-26T11:42:25Z</time>
      </trkpt>
      <trkpt lat="45.89313" lon="3.04661">
        <ele>501.7</ele>
        <time>2024-07-26T11:42:26Z</time>
      </trkpt>
      <trkpt lat="45.89312" lon="3.0466">
        <ele>500.9</ele>
        <time>2024-07-26T11:42:27Z</time>
      </trkpt>
      <trkpt lat="45.89311" lon="3.04658">
        <ele>503</ele>
        <time>2024-07-26T11:42:29Z</time>
      </trkpt>
      <trkpt lat="45.8931" lon="3.04657">
        <ele>504.4</ele>
        <time>2024-07-26T11:42:30Z</time>
      </trkpt>
      <trkpt lat="45.8931" lon="3.04655">
        <ele>503.4</ele>
        <time>2024-07-26T11:42:31Z</time>
      </trkpt>
      <trkpt lat="45.89309" lon="3.04654">
        <ele>502.2</ele>
        <time>2024-07-26T11:42:32Z</time>
      </trkpt>
      <trkpt lat="45.89308" lon="3.04652">
        <ele>502.5</ele>
        <time>2024-07-26T11:42:33Z</time>
      </trkpt>
      <trkpt lat="45.89307" lon="3.04651">
        <ele>499.5</ele>
        <time>2024-07-26T11:42:34Z</time>
      </trkpt>
      <trkpt lat="45.89307" lon="3.04649">
        <ele>499.9</ele>
        <time>2024-07-26T11:42:35Z</time>
      </trkpt>
      <trkpt lat="45.89306" lon="3.04647">
        <ele>499.1</ele>
        <time>2024-07-26T11:42:36Z</time>
      </trkpt>
      <trkpt lat="45.89306" lon="3.04645">
        <ele>498.4</ele>
        <time>2024-07-26T11:42:37Z</time>
      </trkpt>
      <trkpt lat="45.89306" lon="3.04643">
        <ele>500.6</ele>
        <time>2024-07-26T11:42:38Z</time>
      </trkpt>
      <trkpt lat="45.89306" lon="3.04641">
        <ele>501</ele>
        <time>2024-07-26T11:42:39Z</time>
      </trkpt>
      <trkpt lat="45.89305" lon="3.0464">
        <ele>500.3</ele>
        <time>2024-07-26T11:42:41Z</time>
      </trkpt>
      <trkpt lat="45.89304" lon="3.04638">
        <ele>500.7</ele>
        <time>2024-07-26T11:42:43Z</time>
      </trkpt>
      <trkpt lat="45.89304" lon="3.04636">
        <ele>501.1</ele>
        <time>2024-07-26T11:42:45Z</time>
      </trkpt>
      <trkpt lat="45.89303" lon="3.04634">
        <ele>501.1</ele>
        <time>2024-07-26T11:42:47Z</time>
      </trkpt>
      <trkpt lat="45.89301" lon="3.04633">
        <ele>499.9</ele>
        <time>2024-07-26T11:42:49Z</time>
      </trkpt>
      <trkpt lat="45.89301" lon="3.04632">
        <ele>499.2</ele>
        <time>2024-07-26T11:42:50Z</time>
      </trkpt>
      <trkpt lat="45.893" lon="3.04631">
        <ele>498.5</ele>
        <time>2024-07-26T11:42:51Z</time>
      </trkpt>
      <trkpt lat="45.89298" lon="3.0463">
        <ele>499.3</ele>
        <time>2024-07-26T11:42:52Z</time>
      </trkpt>
      <trkpt lat="45.89297" lon="3.0463">
        <ele>500</ele>
        <time>2024-07-26T11:42:53Z</time>
      </trkpt>
      <trkpt lat="45.89295" lon="3.04631">
        <ele>499.1</ele>
        <time>2024-07-26T11:42:54Z</time>
      </trkpt>
      <trkpt lat="45.89294" lon="3.04631">
        <ele>500.2</ele>
        <time>2024-07-26T11:42:55Z</time>
      </trkpt>
      <trkpt lat="45.89293" lon="3.04631">
        <ele>503.5</ele>
        <time>2024-07-26T11:42:56Z</time>
      </trkpt>
      <trkpt lat="45.89292" lon="3.0463">
        <ele>508.5</ele>
        <time>2024-07-26T11:43:00Z</time>
      </trkpt>
      <trkpt lat="45.89291" lon="3.04628">
        <ele>508.6</ele>
        <time>2024-07-26T11:43:02Z</time>
      </trkpt>
      <trkpt lat="45.8929" lon="3.04627">
        <ele>507.1</ele>
        <time>2024-07-26T11:43:04Z</time>
      </trkpt>
      <trkpt lat="45.8929" lon="3.04624">
        <ele>507.5</ele>
        <time>2024-07-26T11:43:06Z</time>
      </trkpt>
      <trkpt lat="45.8929" lon="3.04623">
        <ele>505.3</ele>
        <time>2024-07-26T11:43:08Z</time>
      </trkpt>
      <trkpt lat="45.8929" lon="3.04622">
        <ele>506.5</ele>
        <time>2024-07-26T11:43:10Z</time>
      </trkpt>
      <trkpt lat="45.89289" lon="3.04621">
        <ele>507.5</ele>
        <time>2024-07-26T11:43:13Z</time>
      </trkpt>
      <trkpt lat="45.89288" lon="3.0462">
        <ele>508</ele>
        <time>2024-07-26T11:43:14Z</time>
      </trkpt>
      <trkpt lat="45.89286" lon="3.04619">
        <ele>507.6</ele>
        <time>2024-07-26T11:43:15Z</time>
      </trkpt>
      <trkpt lat="45.89284" lon="3.04619">
        <ele>505.8</ele>
        <time>2024-07-26T11:43:16Z</time>
      </trkpt>
      <trkpt lat="45.89283" lon="3.04619">
        <ele>507</ele>
        <time>2024-07-26T11:43:17Z</time>
      </trkpt>
      <trkpt lat="45.89281" lon="3.04618">
        <ele>503.3</ele>
        <time>2024-07-26T11:43:18Z</time>
      </trkpt>
      <trkpt lat="45.8928" lon="3.04617">
        <ele>501.6</ele>
        <time>2024-07-26T11:43:19Z</time>
      </trkpt>
      <trkpt lat="45.89279" lon="3.04616">
        <ele>503.1</ele>
        <time>2024-07-26T11:43:20Z</time>
      </trkpt>
      <trkpt lat="45.89278" lon="3.04615">
        <ele>504.6</ele>
        <time>2024-07-26T11:43:22Z</time>
      </trkpt>
      <trkpt lat="45.89277" lon="3.04614">
        <ele>504.4</ele>
        <time>2024-07-26T11:43:23Z</time>
      </trkpt>
      <trkpt lat="45.89277" lon="3.04612">
        <ele>505.2</ele>
        <time>2024-07-26T11:43:24Z</time>
      </trkpt>
      <trkpt lat="45.89276" lon="3.0461">
        <ele>505.4</ele>
        <time>2024-07-26T11:43:25Z</time>
      </trkpt>
      <trkpt lat="45.89276" lon="3.04609">
        <ele>503.4</ele>
        <time>2024-07-26T11:43:26Z</time>
      </trkpt>
      <trkpt lat="45.89276" lon="3.04607">
        <ele>503.8</ele>
        <time>2024-07-26T11:43:27Z</time>
      </trkpt>
      <trkpt lat="45.89276" lon="3.04605">
        <ele>503</ele>
        <time>2024-07-26T11:43:28Z</time>
      </trkpt>
      <trkpt lat="45.89276" lon="3.04604">
        <ele>500.9</ele>
        <time>2024-07-26T11:43:29Z</time>
      </trkpt>
      <trkpt lat="45.89276" lon="3.04602">
        <ele>502.4</ele>
        <time>2024-07-26T11:43:31Z</time>
      </trkpt>
      <trkpt lat="45.89275" lon="3.046">
        <ele>503</ele>
        <time>2024-07-26T11:43:32Z</time>
      </trkpt>
      <trkpt lat="45.89275" lon="3.04598">
        <ele>502.1</ele>
        <time>2024-07-26T11:43:33Z</time>
      </trkpt>
      <trkpt lat="45.89275" lon="3.04596">
        <ele>502.8</ele>
        <time>2024-07-26T11:43:34Z</time>
      </trkpt>
      <trkpt lat="45.89275" lon="3.04594">
        <ele>502.4</ele>
        <time>2024-07-26T11:43:35Z</time>
      </trkpt>
      <trkpt lat="45.89275" lon="3.04592">
        <ele>501.4</ele>
        <time>2024-07-26T11:43:36Z</time>
      </trkpt>
      <trkpt lat="45.89274" lon="3.04591">
        <ele>500.8</ele>
        <time>2024-07-26T11:43:39Z</time>
      </trkpt>
      <trkpt lat="45.89273" lon="3.04589">
        <ele>501.1</ele>
        <time>2024-07-26T11:43:40Z</time>
      </trkpt>
      <trkpt lat="45.89273" lon="3.04587">
        <ele>499.5</ele>
        <time>2024-07-26T11:43:42Z</time>
      </trkpt>
      <trkpt lat="45.89271" lon="3.04585">
        <ele>501.6</ele>
        <time>2024-07-26T11:43:44Z</time>
      </trkpt>
      <trkpt lat="45.89271" lon="3.04582">
        <ele>499.2</ele>
        <time>2024-07-26T11:43:45Z</time>
      </trkpt>
      <trkpt lat="45.89271" lon="3.0458">
        <ele>498.4</ele>
        <time>2024-07-26T11:43:46Z</time>
      </trkpt>
      <trkpt lat="45.89271" lon="3.04578">
        <ele>499.9</ele>
        <time>2024-07-26T11:43:47Z</time>
      </trkpt>
      <trkpt lat="45.8927" lon="3.04575">
        <ele>499.4</ele>
        <time>2024-07-26T11:43:48Z</time>
      </trkpt>
      <trkpt lat="45.8927" lon="3.04573">
        <ele>499.2</ele>
        <time>2024-07-26T11:43:49Z</time>
      </trkpt>
      <trkpt lat="45.8927" lon="3.04571">
        <ele>500.1</ele>
        <time>2024-07-26T11:43:50Z</time>
      </trkpt>
      <trkpt lat="45.89269" lon="3.0457">
        <ele>501.1</ele>
        <time>2024-07-26T11:43:51Z</time>
      </trkpt>
      <trkpt lat="45.89267" lon="3.04569">
        <ele>502.6</ele>
        <time>2024-07-26T11:43:52Z</time>
      </trkpt>
      <trkpt lat="45.89267" lon="3.04567">
        <ele>499.9</ele>
        <time>2024-07-26T11:43:53Z</time>
      </trkpt>
      <trkpt lat="45.89267" lon="3.04564">
        <ele>501</ele>
        <time>2024-07-26T11:43:54Z</time>
      </trkpt>
      <trkpt lat="45.89265" lon="3.04561">
        <ele>499.6</ele>
        <time>2024-07-26T11:43:55Z</time>
      </trkpt>
      <trkpt lat="45.89263" lon="3.04557">
        <ele>499</ele>
        <time>2024-07-26T11:43:56Z</time>
      </trkpt>
      <trkpt lat="45.89261" lon="3.04555">
        <ele>498</ele>
        <time>2024-07-26T11:43:57Z</time>
      </trkpt>
      <trkpt lat="45.8926" lon="3.04552">
        <ele>497.9</ele>
        <time>2024-07-26T11:43:58Z</time>
      </trkpt>
      <trkpt lat="45.89258" lon="3.0455">
        <ele>497.7</ele>
        <time>2024-07-26T11:43:59Z</time>
      </trkpt>
      <trkpt lat="45.89256" lon="3.04548">
        <ele>497</ele>
        <time>2024-07-26T11:44:00Z</time>
      </trkpt>
      <trkpt lat="45.89255" lon="3.04546">
        <ele>495.7</ele>
        <time>2024-07-26T11:44:01Z</time>
      </trkpt>
      <trkpt lat="45.89258" lon="3.04548">
        <ele>482</ele>
        <time>2024-07-26T11:44:04Z</time>
      </trkpt>
      <trkpt lat="45.89259" lon="3.04549">
        <ele>482</ele>
        <time>2024-07-26T11:44:05Z</time>
      </trkpt>
      <trkpt lat="45.89258" lon="3.04549">
        <ele>483</ele>
        <time>2024-07-26T11:44:07Z</time>
      </trkpt>
      <trkpt lat="45.89257" lon="3.04549">
        <ele>482.6</ele>
        <time>2024-07-26T11:44:09Z</time>
      </trkpt>
      <trkpt lat="45.89258" lon="3.0455">
        <ele>485.9</ele>
        <time>2024-07-26T11:44:12Z</time>
      </trkpt>
      <trkpt lat="45.89259" lon="3.0455">
        <ele>487.6</ele>
        <time>2024-07-26T11:44:13Z</time>
      </trkpt>
      <trkpt lat="45.89262" lon="3.04549">
        <ele>487.8</ele>
        <time>2024-07-26T11:44:14Z</time>
      </trkpt>
      <trkpt lat="45.89263" lon="3.04549">
        <ele>487.7</ele>
        <time>2024-07-26T11:44:15Z</time>
      </trkpt>
      <trkpt lat="45.89261" lon="3.04546">
        <ele>484.5</ele>
        <time>2024-07-26T11:44:20Z</time>
      </trkpt>
      <trkpt lat="45.89258" lon="3.04544">
        <ele>484.5</ele>
        <time>2024-07-26T11:44:21Z</time>
      </trkpt>
      <trkpt lat="45.89256" lon="3.04543">
        <ele>483.5</ele>
        <time>2024-07-26T11:44:22Z</time>
      </trkpt>
      <trkpt lat="45.89253" lon="3.04542">
        <ele>483.8</ele>
        <time>2024-07-26T11:44:23Z</time>
      </trkpt>
      <trkpt lat="45.89251" lon="3.0454">
        <ele>487.6</ele>
        <time>2024-07-26T11:44:24Z</time>
      </trkpt>
      <trkpt lat="45.89249" lon="3.04539">
        <ele>489.6</ele>
        <time>2024-07-26T11:44:25Z</time>
      </trkpt>
      <trkpt lat="45.89248" lon="3.04539">
        <ele>490.9</ele>
        <time>2024-07-26T11:44:26Z</time>
      </trkpt>
      <trkpt lat="45.89247" lon="3.04539">
        <ele>490.9</ele>
        <time>2024-07-26T11:44:27Z</time>
      </trkpt>
      <trkpt lat="45.89245" lon="3.04539">
        <ele>491.1</ele>
        <time>2024-07-26T11:44:28Z</time>
      </trkpt>
      <trkpt lat="45.89244" lon="3.04541">
        <ele>491.2</ele>
        <time>2024-07-26T11:44:29Z</time>
      </trkpt>
      <trkpt lat="45.89244" lon="3.04543">
        <ele>493.6</ele>
        <time>2024-07-26T11:44:30Z</time>
      </trkpt>
      <trkpt lat="45.89244" lon="3.04546">
        <ele>491.6</ele>
        <time>2024-07-26T11:44:32Z</time>
      </trkpt>
      <trkpt lat="45.89245" lon="3.04548">
        <ele>489.8</ele>
        <time>2024-07-26T11:44:33Z</time>
      </trkpt>
      <trkpt lat="45.89245" lon="3.0455">
        <ele>489.5</ele>
        <time>2024-07-26T11:44:34Z</time>
      </trkpt>
      <trkpt lat="45.89247" lon="3.04551">
        <ele>494.2</ele>
        <time>2024-07-26T11:44:36Z</time>
      </trkpt>
      <trkpt lat="45.89248" lon="3.04552">
        <ele>496</ele>
        <time>2024-07-26T11:44:38Z</time>
      </trkpt>
      <trkpt lat="45.89249" lon="3.04553">
        <ele>495.9</ele>
        <time>2024-07-26T11:44:39Z</time>
      </trkpt>
      <trkpt lat="45.89249" lon="3.04555">
        <ele>493.4</ele>
        <time>2024-07-26T11:44:41Z</time>
      </trkpt>
      <trkpt lat="45.89248" lon="3.04556">
        <ele>490.5</ele>
        <time>2024-07-26T11:44:43Z</time>
      </trkpt>
      <trkpt lat="45.89247" lon="3.04557">
        <ele>486.1</ele>
        <time>2024-07-26T11:44:44Z</time>
      </trkpt>
      <trkpt lat="45.89248" lon="3.04559">
        <ele>488.2</ele>
        <time>2024-07-26T11:44:45Z</time>
      </trkpt>
      <trkpt lat="45.89249" lon="3.04561">
        <ele>488.5</ele>
        <time>2024-07-26T11:44:46Z</time>
      </trkpt>
      <trkpt lat="45.89249" lon="3.04562">
        <ele>487.8</ele>
        <time>2024-07-26T11:44:47Z</time>
      </trkpt>
      <trkpt lat="45.8925" lon="3.04564">
        <ele>488.1</ele>
        <time>2024-07-26T11:44:48Z</time>
      </trkpt>
      <trkpt lat="45.89249" lon="3.04565">
        <ele>485.1</ele>
        <time>2024-07-26T11:44:49Z</time>
      </trkpt>
      <trkpt lat="45.89247" lon="3.04565">
        <ele>484.9</ele>
        <time>2024-07-26T11:44:50Z</time>
      </trkpt>
      <trkpt lat="45.89246" lon="3.04566">
        <ele>483.1</ele>
        <time>2024-07-26T11:44:51Z</time>
      </trkpt>
      <trkpt lat="45.89245" lon="3.04566">
        <ele>483.3</ele>
        <time>2024-07-26T11:44:52Z</time>
      </trkpt>
      <trkpt lat="45.89243" lon="3.04567">
        <ele>481.5</ele>
        <time>2024-07-26T11:44:53Z</time>
      </trkpt>
      <trkpt lat="45.89242" lon="3.04568">
        <ele>481.4</ele>
        <time>2024-07-26T11:44:54Z</time>
      </trkpt>
      <trkpt lat="45.89241" lon="3.0457">
        <ele>482.2</ele>
        <time>2024-07-26T11:44:55Z</time>
      </trkpt>
      <trkpt lat="45.89241" lon="3.04571">
        <ele>485.5</ele>
        <time>2024-07-26T11:44:56Z</time>
      </trkpt>
      <trkpt lat="45.8924" lon="3.04572">
        <ele>489.3</ele>
        <time>2024-07-26T11:44:58Z</time>
      </trkpt>
      <trkpt lat="45.89239" lon="3.04574">
        <ele>489.2</ele>
        <time>2024-07-26T11:45:00Z</time>
      </trkpt>
      <trkpt lat="45.89238" lon="3.04575">
        <ele>492.8</ele>
        <time>2024-07-26T11:45:02Z</time>
      </trkpt>
      <trkpt lat="45.89237" lon="3.04576">
        <ele>494.2</ele>
        <time>2024-07-26T11:45:03Z</time>
      </trkpt>
      <trkpt lat="45.89238" lon="3.04579">
        <ele>495.3</ele>
        <time>2024-07-26T11:45:04Z</time>
      </trkpt>
      <trkpt lat="45.89238" lon="3.04581">
        <ele>494.6</ele>
        <time>2024-07-26T11:45:05Z</time>
      </trkpt>
      <trkpt lat="45.89237" lon="3.04583">
        <ele>493.9</ele>
        <time>2024-07-26T11:45:07Z</time>
      </trkpt>
      <trkpt lat="45.89237" lon="3.04585">
        <ele>498</ele>
        <time>2024-07-26T11:45:09Z</time>
      </trkpt>
      <trkpt lat="45.89236" lon="3.04586">
        <ele>498.2</ele>
        <time>2024-07-26T11:45:11Z</time>
      </trkpt>
      <trkpt lat="45.89235" lon="3.04587">
        <ele>496.3</ele>
        <time>2024-07-26T11:45:12Z</time>
      </trkpt>
      <trkpt lat="45.89234" lon="3.04586">
        <ele>498.6</ele>
        <time>2024-07-26T11:45:13Z</time>
      </trkpt>
      <trkpt lat="45.89232" lon="3.04586">
        <ele>500.4</ele>
        <time>2024-07-26T11:45:14Z</time>
      </trkpt>
      <trkpt lat="45.89231" lon="3.04585">
        <ele>500.1</ele>
        <time>2024-07-26T11:45:15Z</time>
      </trkpt>
      <trkpt lat="45.8923" lon="3.04584">
        <ele>499.4</ele>
        <time>2024-07-26T11:45:16Z</time>
      </trkpt>
      <trkpt lat="45.89228" lon="3.04584">
        <ele>501.1</ele>
        <time>2024-07-26T11:45:18Z</time>
      </trkpt>
      <trkpt lat="45.89226" lon="3.04585">
        <ele>503.3</ele>
        <time>2024-07-26T11:45:20Z</time>
      </trkpt>
      <trkpt lat="45.89226" lon="3.04586">
        <ele>501.8</ele>
        <time>2024-07-26T11:45:22Z</time>
      </trkpt>
      <trkpt lat="45.89225" lon="3.04589">
        <ele>502.4</ele>
        <time>2024-07-26T11:45:24Z</time>
      </trkpt>
      <trkpt lat="45.89225" lon="3.0459">
        <ele>503.2</ele>
        <time>2024-07-26T11:45:25Z</time>
      </trkpt>
      <trkpt lat="45.89224" lon="3.04591">
        <ele>502.1</ele>
        <time>2024-07-26T11:45:27Z</time>
      </trkpt>
      <trkpt lat="45.89222" lon="3.04592">
        <ele>500.5</ele>
        <time>2024-07-26T11:45:29Z</time>
      </trkpt>
      <trkpt lat="45.89221" lon="3.04593">
        <ele>500</ele>
        <time>2024-07-26T11:45:30Z</time>
      </trkpt>
      <trkpt lat="45.8922" lon="3.04594">
        <ele>499.9</ele>
        <time>2024-07-26T11:45:31Z</time>
      </trkpt>
      <trkpt lat="45.89218" lon="3.04594">
        <ele>502.9</ele>
        <time>2024-07-26T11:45:33Z</time>
      </trkpt>
      <trkpt lat="45.89217" lon="3.04593">
        <ele>502.3</ele>
        <time>2024-07-26T11:45:35Z</time>
      </trkpt>
      <trkpt lat="45.89216" lon="3.04595">
        <ele>502.4</ele>
        <time>2024-07-26T11:45:36Z</time>
      </trkpt>
      <trkpt lat="45.89215" lon="3.04597">
        <ele>501.8</ele>
        <time>2024-07-26T11:45:37Z</time>
      </trkpt>
      <trkpt lat="45.89215" lon="3.04599">
        <ele>502.3</ele>
        <time>2024-07-26T11:45:38Z</time>
      </trkpt>
      <trkpt lat="45.89214" lon="3.04601">
        <ele>503</ele>
        <time>2024-07-26T11:45:39Z</time>
      </trkpt>
      <trkpt lat="45.89214" lon="3.04603">
        <ele>504</ele>
        <time>2024-07-26T11:45:41Z</time>
      </trkpt>
      <trkpt lat="45.89212" lon="3.04604">
        <ele>504.3</ele>
        <time>2024-07-26T11:45:44Z</time>
      </trkpt>
      <trkpt lat="45.89211" lon="3.04605">
        <ele>503</ele>
        <time>2024-07-26T11:45:46Z</time>
      </trkpt>
      <trkpt lat="45.8921" lon="3.04606">
        <ele>502.6</ele>
        <time>2024-07-26T11:45:47Z</time>
      </trkpt>
      <trkpt lat="45.89209" lon="3.04607">
        <ele>502.7</ele>
        <time>2024-07-26T11:45:49Z</time>
      </trkpt>
      <trkpt lat="45.89208" lon="3.04607">
        <ele>503.6</ele>
        <time>2024-07-26T11:45:50Z</time>
      </trkpt>
      <trkpt lat="45.89206" lon="3.04606">
        <ele>504.1</ele>
        <time>2024-07-26T11:45:51Z</time>
      </trkpt>
      <trkpt lat="45.89205" lon="3.04604">
        <ele>504.4</ele>
        <time>2024-07-26T11:45:53Z</time>
      </trkpt>
      <trkpt lat="45.89204" lon="3.04604">
        <ele>504.3</ele>
        <time>2024-07-26T11:45:54Z</time>
      </trkpt>
      <trkpt lat="45.89202" lon="3.04603">
        <ele>507.3</ele>
        <time>2024-07-26T11:45:56Z</time>
      </trkpt>
      <trkpt lat="45.89201" lon="3.04603">
        <ele>507.7</ele>
        <time>2024-07-26T11:45:57Z</time>
      </trkpt>
      <trkpt lat="45.892" lon="3.04603">
        <ele>506.5</ele>
        <time>2024-07-26T11:45:58Z</time>
      </trkpt>
      <trkpt lat="45.89199" lon="3.04605">
        <ele>512</ele>
        <time>2024-07-26T11:46:01Z</time>
      </trkpt>
      <trkpt lat="45.89198" lon="3.04606">
        <ele>512.3</ele>
        <time>2024-07-26T11:46:03Z</time>
      </trkpt>
      <trkpt lat="45.89198" lon="3.04608">
        <ele>511.2</ele>
        <time>2024-07-26T11:46:04Z</time>
      </trkpt>
      <trkpt lat="45.89197" lon="3.04609">
        <ele>510.8</ele>
        <time>2024-07-26T11:46:05Z</time>
      </trkpt>
      <trkpt lat="45.89197" lon="3.04611">
        <ele>510.8</ele>
        <time>2024-07-26T11:46:06Z</time>
      </trkpt>
      <trkpt lat="45.89196" lon="3.04613">
        <ele>509.7</ele>
        <time>2024-07-26T11:46:07Z</time>
      </trkpt>
      <trkpt lat="45.89196" lon="3.04614">
        <ele>509.4</ele>
        <time>2024-07-26T11:46:08Z</time>
      </trkpt>
      <trkpt lat="45.89195" lon="3.04616">
        <ele>508.7</ele>
        <time>2024-07-26T11:46:09Z</time>
      </trkpt>
      <trkpt lat="45.89195" lon="3.04617">
        <ele>506.8</ele>
        <time>2024-07-26T11:46:10Z</time>
      </trkpt>
      <trkpt lat="45.89194" lon="3.04619">
        <ele>505.9</ele>
        <time>2024-07-26T11:46:12Z</time>
      </trkpt>
      <trkpt lat="45.89193" lon="3.0462">
        <ele>505.7</ele>
        <time>2024-07-26T11:46:13Z</time>
      </trkpt>
      <trkpt lat="45.89192" lon="3.04621">
        <ele>506.4</ele>
        <time>2024-07-26T11:46:14Z</time>
      </trkpt>
      <trkpt lat="45.89191" lon="3.04623">
        <ele>506.4</ele>
        <time>2024-07-26T11:46:15Z</time>
      </trkpt>
      <trkpt lat="45.89191" lon="3.04624">
        <ele>506.1</ele>
        <time>2024-07-26T11:46:16Z</time>
      </trkpt>
      <trkpt lat="45.8919" lon="3.04625">
        <ele>505.5</ele>
        <time>2024-07-26T11:46:17Z</time>
      </trkpt>
      <trkpt lat="45.89189" lon="3.04626">
        <ele>504.8</ele>
        <time>2024-07-26T11:46:18Z</time>
      </trkpt>
      <trkpt lat="45.89188" lon="3.04627">
        <ele>505.1</ele>
        <time>2024-07-26T11:46:19Z</time>
      </trkpt>
      <trkpt lat="45.89187" lon="3.04628">
        <ele>503.8</ele>
        <time>2024-07-26T11:46:20Z</time>
      </trkpt>
      <trkpt lat="45.89186" lon="3.0463">
        <ele>503.7</ele>
        <time>2024-07-26T11:46:21Z</time>
      </trkpt>
      <trkpt lat="45.89186" lon="3.04631">
        <ele>504.2</ele>
        <time>2024-07-26T11:46:22Z</time>
      </trkpt>
      <trkpt lat="45.89186" lon="3.04633">
        <ele>503.9</ele>
        <time>2024-07-26T11:46:23Z</time>
      </trkpt>
      <trkpt lat="45.89185" lon="3.04635">
        <ele>504.2</ele>
        <time>2024-07-26T11:46:24Z</time>
      </trkpt>
      <trkpt lat="45.89184" lon="3.04636">
        <ele>503.2</ele>
        <time>2024-07-26T11:46:25Z</time>
      </trkpt>
      <trkpt lat="45.89182" lon="3.04637">
        <ele>503.1</ele>
        <time>2024-07-26T11:46:26Z</time>
      </trkpt>
      <trkpt lat="45.89181" lon="3.04638">
        <ele>503.7</ele>
        <time>2024-07-26T11:46:27Z</time>
      </trkpt>
      <trkpt lat="45.8918" lon="3.04638">
        <ele>505.7</ele>
        <time>2024-07-26T11:46:28Z</time>
      </trkpt>
      <trkpt lat="45.89179" lon="3.04638">
        <ele>507.9</ele>
        <time>2024-07-26T11:46:31Z</time>
      </trkpt>
      <trkpt lat="45.89178" lon="3.0464">
        <ele>504.6</ele>
        <time>2024-07-26T11:46:33Z</time>
      </trkpt>
      <trkpt lat="45.89178" lon="3.04641">
        <ele>505.5</ele>
        <time>2024-07-26T11:46:34Z</time>
      </trkpt>
      <trkpt lat="45.89177" lon="3.04643">
        <ele>506.2</ele>
        <time>2024-07-26T11:46:36Z</time>
      </trkpt>
      <trkpt lat="45.89176" lon="3.04644">
        <ele>508.4</ele>
        <time>2024-07-26T11:46:38Z</time>
      </trkpt>
      <trkpt lat="45.89175" lon="3.04644">
        <ele>508.3</ele>
        <time>2024-07-26T11:46:39Z</time>
      </trkpt>
      <trkpt lat="45.89173" lon="3.04644">
        <ele>507.4</ele>
        <time>2024-07-26T11:46:41Z</time>
      </trkpt>
      <trkpt lat="45.89172" lon="3.04645">
        <ele>507.6</ele>
        <time>2024-07-26T11:46:42Z</time>
      </trkpt>
      <trkpt lat="45.89171" lon="3.04646">
        <ele>506.3</ele>
        <time>2024-07-26T11:46:43Z</time>
      </trkpt>
      <trkpt lat="45.8917" lon="3.04647">
        <ele>504.2</ele>
        <time>2024-07-26T11:46:45Z</time>
      </trkpt>
      <trkpt lat="45.89171" lon="3.04646">
        <ele>501.1</ele>
        <time>2024-07-26T11:46:49Z</time>
      </trkpt>
      <trkpt lat="45.89172" lon="3.04645">
        <ele>503.9</ele>
        <time>2024-07-26T11:46:51Z</time>
      </trkpt>
      <trkpt lat="45.89171" lon="3.04643">
        <ele>502.3</ele>
        <time>2024-07-26T11:46:52Z</time>
      </trkpt>
      <trkpt lat="45.8917" lon="3.04642">
        <ele>502.8</ele>
        <time>2024-07-26T11:46:53Z</time>
      </trkpt>
      <trkpt lat="45.89169" lon="3.04641">
        <ele>502.5</ele>
        <time>2024-07-26T11:46:54Z</time>
      </trkpt>
      <trkpt lat="45.89168" lon="3.0464">
        <ele>501.5</ele>
        <time>2024-07-26T11:46:55Z</time>
      </trkpt>
      <trkpt lat="45.89167" lon="3.04639">
        <ele>500</ele>
        <time>2024-07-26T11:46:56Z</time>
      </trkpt>
      <trkpt lat="45.89165" lon="3.04638">
        <ele>497.8</ele>
        <time>2024-07-26T11:46:57Z</time>
      </trkpt>
      <trkpt lat="45.89164" lon="3.04638">
        <ele>497.5</ele>
        <time>2024-07-26T11:46:58Z</time>
      </trkpt>
      <trkpt lat="45.89162" lon="3.04637">
        <ele>496.8</ele>
        <time>2024-07-26T11:46:59Z</time>
      </trkpt>
      <trkpt lat="45.89161" lon="3.04637">
        <ele>499.1</ele>
        <time>2024-07-26T11:47:00Z</time>
      </trkpt>
      <trkpt lat="45.8916" lon="3.04636">
        <ele>502.9</ele>
        <time>2024-07-26T11:47:02Z</time>
      </trkpt>
      <trkpt lat="45.89158" lon="3.04636">
        <ele>502.2</ele>
        <time>2024-07-26T11:47:04Z</time>
      </trkpt>
      <trkpt lat="45.89157" lon="3.04635">
        <ele>502</ele>
        <time>2024-07-26T11:47:05Z</time>
      </trkpt>
      <trkpt lat="45.89156" lon="3.04636">
        <ele>500.5</ele>
        <time>2024-07-26T11:47:06Z</time>
      </trkpt>
      <trkpt lat="45.89154" lon="3.04636">
        <ele>498.3</ele>
        <time>2024-07-26T11:47:07Z</time>
      </trkpt>
      <trkpt lat="45.89153" lon="3.04636">
        <ele>501.8</ele>
        <time>2024-07-26T11:47:08Z</time>
      </trkpt>
      <trkpt lat="45.89152" lon="3.04637">
        <ele>502.2</ele>
        <time>2024-07-26T11:47:09Z</time>
      </trkpt>
      <trkpt lat="45.89151" lon="3.04639">
        <ele>498.9</ele>
        <time>2024-07-26T11:47:11Z</time>
      </trkpt>
      <trkpt lat="45.89152" lon="3.04637">
        <ele>496.9</ele>
        <time>2024-07-26T11:47:14Z</time>
      </trkpt>
      <trkpt lat="45.89152" lon="3.04635">
        <ele>496.3</ele>
        <time>2024-07-26T11:47:16Z</time>
      </trkpt>
      <trkpt lat="45.89151" lon="3.04632">
        <ele>496.5</ele>
        <time>2024-07-26T11:47:18Z</time>
      </trkpt>
      <trkpt lat="45.8915" lon="3.04632">
        <ele>496.5</ele>
        <time>2024-07-26T11:47:19Z</time>
      </trkpt>
      <trkpt lat="45.89149" lon="3.04631">
        <ele>497.4</ele>
        <time>2024-07-26T11:47:20Z</time>
      </trkpt>
      <trkpt lat="45.89148" lon="3.0463">
        <ele>498.3</ele>
        <time>2024-07-26T11:47:21Z</time>
      </trkpt>
      <trkpt lat="45.89146" lon="3.04629">
        <ele>499.4</ele>
        <time>2024-07-26T11:47:23Z</time>
      </trkpt>
      <trkpt lat="45.89146" lon="3.04628">
        <ele>498</ele>
        <time>2024-07-26T11:47:24Z</time>
      </trkpt>
      <trkpt lat="45.89145" lon="3.04626">
        <ele>498.5</ele>
        <time>2024-07-26T11:47:25Z</time>
      </trkpt>
      <trkpt lat="45.89144" lon="3.04624">
        <ele>495.7</ele>
        <time>2024-07-26T11:47:27Z</time>
      </trkpt>
      <trkpt lat="45.89144" lon="3.04622">
        <ele>496.5</ele>
        <time>2024-07-26T11:47:28Z</time>
      </trkpt>
      <trkpt lat="45.89143" lon="3.04622">
        <ele>498.7</ele>
        <time>2024-07-26T11:47:29Z</time>
      </trkpt>
      <trkpt lat="45.89141" lon="3.04621">
        <ele>500.4</ele>
        <time>2024-07-26T11:47:31Z</time>
      </trkpt>
      <trkpt lat="45.8914" lon="3.0462">
        <ele>500.8</ele>
        <time>2024-07-26T11:47:32Z</time>
      </trkpt>
      <trkpt lat="45.89138" lon="3.0462">
        <ele>498.9</ele>
        <time>2024-07-26T11:47:34Z</time>
      </trkpt>
      <trkpt lat="45.89137" lon="3.04619">
        <ele>496.5</ele>
        <time>2024-07-26T11:47:35Z</time>
      </trkpt>
      <trkpt lat="45.89136" lon="3.04619">
        <ele>498.9</ele>
        <time>2024-07-26T11:47:36Z</time>
      </trkpt>
      <trkpt lat="45.89135" lon="3.04618">
        <ele>498.4</ele>
        <time>2024-07-26T11:47:37Z</time>
      </trkpt>
      <trkpt lat="45.89134" lon="3.04617">
        <ele>498.8</ele>
        <time>2024-07-26T11:47:38Z</time>
      </trkpt>
      <trkpt lat="45.89133" lon="3.04615">
        <ele>500.3</ele>
        <time>2024-07-26T11:47:40Z</time>
      </trkpt>
      <trkpt lat="45.89133" lon="3.04613">
        <ele>501.4</ele>
        <time>2024-07-26T11:47:42Z</time>
      </trkpt>
      <trkpt lat="45.89132" lon="3.04612">
        <ele>500.4</ele>
        <time>2024-07-26T11:47:43Z</time>
      </trkpt>
      <trkpt lat="45.8913" lon="3.04612">
        <ele>501.4</ele>
        <time>2024-07-26T11:47:44Z</time>
      </trkpt>
      <trkpt lat="45.89129" lon="3.04612">
        <ele>501</ele>
        <time>2024-07-26T11:47:45Z</time>
      </trkpt>
      <trkpt lat="45.89128" lon="3.04612">
        <ele>500.7</ele>
        <time>2024-07-26T11:47:46Z</time>
      </trkpt>
      <trkpt lat="45.89127" lon="3.04611">
        <ele>500.6</ele>
        <time>2024-07-26T11:47:47Z</time>
      </trkpt>
      <trkpt lat="45.89126" lon="3.0461">
        <ele>500.4</ele>
        <time>2024-07-26T11:47:49Z</time>
      </trkpt>
      <trkpt lat="45.89125" lon="3.04609">
        <ele>497.2</ele>
        <time>2024-07-26T11:47:51Z</time>
      </trkpt>
      <trkpt lat="45.89123" lon="3.04608">
        <ele>498.3</ele>
        <time>2024-07-26T11:47:52Z</time>
      </trkpt>
      <trkpt lat="45.89122" lon="3.04608">
        <ele>496.7</ele>
        <time>2024-07-26T11:47:53Z</time>
      </trkpt>
      <trkpt lat="45.89121" lon="3.04608">
        <ele>494.8</ele>
        <time>2024-07-26T11:47:54Z</time>
      </trkpt>
      <trkpt lat="45.89119" lon="3.04607">
        <ele>494.2</ele>
        <time>2024-07-26T11:47:55Z</time>
      </trkpt>
      <trkpt lat="45.89118" lon="3.04607">
        <ele>494.9</ele>
        <time>2024-07-26T11:47:56Z</time>
      </trkpt>
      <trkpt lat="45.89116" lon="3.04608">
        <ele>496.4</ele>
        <time>2024-07-26T11:47:57Z</time>
      </trkpt>
      <trkpt lat="45.89115" lon="3.04608">
        <ele>496.5</ele>
        <time>2024-07-26T11:47:58Z</time>
      </trkpt>
      <trkpt lat="45.89114" lon="3.04608">
        <ele>496</ele>
        <time>2024-07-26T11:47:59Z</time>
      </trkpt>
      <trkpt lat="45.89113" lon="3.04607">
        <ele>497.1</ele>
        <time>2024-07-26T11:48:00Z</time>
      </trkpt>
      <trkpt lat="45.89112" lon="3.04606">
        <ele>496.8</ele>
        <time>2024-07-26T11:48:01Z</time>
      </trkpt>
      <trkpt lat="45.89111" lon="3.04604">
        <ele>496.3</ele>
        <time>2024-07-26T11:48:02Z</time>
      </trkpt>
      <trkpt lat="45.89111" lon="3.04602">
        <ele>496.3</ele>
        <time>2024-07-26T11:48:03Z</time>
      </trkpt>
      <trkpt lat="45.8911" lon="3.046">
        <ele>497.1</ele>
        <time>2024-07-26T11:48:04Z</time>
      </trkpt>
      <trkpt lat="45.89109" lon="3.04599">
        <ele>498.7</ele>
        <time>2024-07-26T11:48:05Z</time>
      </trkpt>
      <trkpt lat="45.89107" lon="3.04598">
        <ele>498.2</ele>
        <time>2024-07-26T11:48:06Z</time>
      </trkpt>
      <trkpt lat="45.89106" lon="3.04596">
        <ele>497.9</ele>
        <time>2024-07-26T11:48:07Z</time>
      </trkpt>
      <trkpt lat="45.89104" lon="3.04596">
        <ele>496.7</ele>
        <time>2024-07-26T11:48:08Z</time>
      </trkpt>
      <trkpt lat="45.89103" lon="3.04595">
        <ele>496.9</ele>
        <time>2024-07-26T11:48:09Z</time>
      </trkpt>
      <trkpt lat="45.89102" lon="3.04594">
        <ele>496.8</ele>
        <time>2024-07-26T11:48:11Z</time>
      </trkpt>
      <trkpt lat="45.89101" lon="3.04592">
        <ele>498.7</ele>
        <time>2024-07-26T11:48:13Z</time>
      </trkpt>
      <trkpt lat="45.89101" lon="3.0459">
        <ele>495.9</ele>
        <time>2024-07-26T11:48:15Z</time>
      </trkpt>
      <trkpt lat="45.89099" lon="3.0459">
        <ele>500.3</ele>
        <time>2024-07-26T11:48:21Z</time>
      </trkpt>
      <trkpt lat="45.89098" lon="3.04589">
        <ele>501.5</ele>
        <time>2024-07-26T11:48:23Z</time>
      </trkpt>
      <trkpt lat="45.89097" lon="3.04589">
        <ele>500.7</ele>
        <time>2024-07-26T11:48:26Z</time>
      </trkpt>
      <trkpt lat="45.89095" lon="3.04589">
        <ele>502.5</ele>
        <time>2024-07-26T11:48:28Z</time>
      </trkpt>
      <trkpt lat="45.89094" lon="3.04587">
        <ele>500.1</ele>
        <time>2024-07-26T11:48:30Z</time>
      </trkpt>
      <trkpt lat="45.89093" lon="3.04586">
        <ele>499.7</ele>
        <time>2024-07-26T11:48:31Z</time>
      </trkpt>
      <trkpt lat="45.89093" lon="3.04584">
        <ele>500.2</ele>
        <time>2024-07-26T11:48:32Z</time>
      </trkpt>
      <trkpt lat="45.89092" lon="3.04583">
        <ele>498.6</ele>
        <time>2024-07-26T11:48:34Z</time>
      </trkpt>
      <trkpt lat="45.89092" lon="3.04581">
        <ele>497.9</ele>
        <time>2024-07-26T11:48:36Z</time>
      </trkpt>
      <trkpt lat="45.8909" lon="3.0458">
        <ele>498.8</ele>
        <time>2024-07-26T11:48:38Z</time>
      </trkpt>
      <trkpt lat="45.8909" lon="3.04578">
        <ele>496.5</ele>
        <time>2024-07-26T11:48:40Z</time>
      </trkpt>
      <trkpt lat="45.8909" lon="3.04576">
        <ele>497.6</ele>
        <time>2024-07-26T11:48:42Z</time>
      </trkpt>
      <trkpt lat="45.89089" lon="3.04576">
        <ele>497.1</ele>
        <time>2024-07-26T11:48:44Z</time>
      </trkpt>
      <trkpt lat="45.89088" lon="3.04576">
        <ele>493</ele>
        <time>2024-07-26T11:48:47Z</time>
      </trkpt>
      <trkpt lat="45.89086" lon="3.04577">
        <ele>493.4</ele>
        <time>2024-07-26T11:48:49Z</time>
      </trkpt>
      <trkpt lat="45.89085" lon="3.04577">
        <ele>491.4</ele>
        <time>2024-07-26T11:48:50Z</time>
      </trkpt>
      <trkpt lat="45.89084" lon="3.04577">
        <ele>493.2</ele>
        <time>2024-07-26T11:48:51Z</time>
      </trkpt>
      <trkpt lat="45.89083" lon="3.04577">
        <ele>495.8</ele>
        <time>2024-07-26T11:48:52Z</time>
      </trkpt>
      <trkpt lat="45.89082" lon="3.04577">
        <ele>497.8</ele>
        <time>2024-07-26T11:48:54Z</time>
      </trkpt>
      <trkpt lat="45.89081" lon="3.04577">
        <ele>499.4</ele>
        <time>2024-07-26T11:48:57Z</time>
      </trkpt>
      <trkpt lat="45.8908" lon="3.04576">
        <ele>499</ele>
        <time>2024-07-26T11:48:59Z</time>
      </trkpt>
      <trkpt lat="45.89079" lon="3.04575">
        <ele>495.2</ele>
        <time>2024-07-26T11:49:00Z</time>
      </trkpt>
      <trkpt lat="45.89078" lon="3.04574">
        <ele>493.5</ele>
        <time>2024-07-26T11:49:02Z</time>
      </trkpt>
      <trkpt lat="45.89076" lon="3.04573">
        <ele>495.3</ele>
        <time>2024-07-26T11:49:04Z</time>
      </trkpt>
      <trkpt lat="45.89075" lon="3.04572">
        <ele>495.7</ele>
        <time>2024-07-26T11:49:06Z</time>
      </trkpt>
      <trkpt lat="45.89075" lon="3.0457">
        <ele>496.3</ele>
        <time>2024-07-26T11:49:08Z</time>
      </trkpt>
      <trkpt lat="45.89075" lon="3.04567">
        <ele>497.1</ele>
        <time>2024-07-26T11:49:10Z</time>
      </trkpt>
      <trkpt lat="45.89074" lon="3.04566">
        <ele>497.7</ele>
        <time>2024-07-26T11:49:11Z</time>
      </trkpt>
      <trkpt lat="45.89073" lon="3.04565">
        <ele>498.8</ele>
        <time>2024-07-26T11:49:12Z</time>
      </trkpt>
      <trkpt lat="45.89072" lon="3.04565">
        <ele>499.5</ele>
        <time>2024-07-26T11:49:13Z</time>
      </trkpt>
      <trkpt lat="45.89071" lon="3.04566">
        <ele>500.3</ele>
        <time>2024-07-26T11:49:15Z</time>
      </trkpt>
      <trkpt lat="45.8907" lon="3.04564">
        <ele>500.8</ele>
        <time>2024-07-26T11:49:16Z</time>
      </trkpt>
      <trkpt lat="45.89069" lon="3.04563">
        <ele>499.6</ele>
        <time>2024-07-26T11:49:17Z</time>
      </trkpt>
      <trkpt lat="45.89068" lon="3.04562">
        <ele>499</ele>
        <time>2024-07-26T11:49:18Z</time>
      </trkpt>
      <trkpt lat="45.89067" lon="3.04562">
        <ele>502.6</ele>
        <time>2024-07-26T11:49:20Z</time>
      </trkpt>
      <trkpt lat="45.89067" lon="3.04561">
        <ele>502.6</ele>
        <time>2024-07-26T11:49:23Z</time>
      </trkpt>
      <trkpt lat="45.89066" lon="3.04558">
        <ele>500.1</ele>
        <time>2024-07-26T11:49:25Z</time>
      </trkpt>
      <trkpt lat="45.89065" lon="3.04557">
        <ele>500.3</ele>
        <time>2024-07-26T11:49:26Z</time>
      </trkpt>
      <trkpt lat="45.89063" lon="3.04556">
        <ele>504.2</ele>
        <time>2024-07-26T11:49:28Z</time>
      </trkpt>
      <trkpt lat="45.89062" lon="3.04556">
        <ele>505.1</ele>
        <time>2024-07-26T11:49:29Z</time>
      </trkpt>
      <trkpt lat="45.89061" lon="3.04556">
        <ele>505.6</ele>
        <time>2024-07-26T11:49:30Z</time>
      </trkpt>
      <trkpt lat="45.8906" lon="3.04555">
        <ele>505.8</ele>
        <time>2024-07-26T11:49:31Z</time>
      </trkpt>
      <trkpt lat="45.89059" lon="3.04555">
        <ele>506.5</ele>
        <time>2024-07-26T11:49:32Z</time>
      </trkpt>
      <trkpt lat="45.89057" lon="3.04555">
        <ele>504.4</ele>
        <time>2024-07-26T11:49:34Z</time>
      </trkpt>
      <trkpt lat="45.89056" lon="3.04555">
        <ele>504</ele>
        <time>2024-07-26T11:49:36Z</time>
      </trkpt>
      <trkpt lat="45.89055" lon="3.04555">
        <ele>501.7</ele>
        <time>2024-07-26T11:49:38Z</time>
      </trkpt>
      <trkpt lat="45.89054" lon="3.04555">
        <ele>503.2</ele>
        <time>2024-07-26T11:49:39Z</time>
      </trkpt>
      <trkpt lat="45.89053" lon="3.04553">
        <ele>503.9</ele>
        <time>2024-07-26T11:49:41Z</time>
      </trkpt>
      <trkpt lat="45.89052" lon="3.04553">
        <ele>501.7</ele>
        <time>2024-07-26T11:49:44Z</time>
      </trkpt>
      <trkpt lat="45.89051" lon="3.0455">
        <ele>501.5</ele>
        <time>2024-07-26T11:49:46Z</time>
      </trkpt>
      <trkpt lat="45.89051" lon="3.04548">
        <ele>502.5</ele>
        <time>2024-07-26T11:49:47Z</time>
      </trkpt>
      <trkpt lat="45.89052" lon="3.04546">
        <ele>502.8</ele>
        <time>2024-07-26T11:49:48Z</time>
      </trkpt>
      <trkpt lat="45.8905" lon="3.04546">
        <ele>506.3</ele>
        <time>2024-07-26T11:49:54Z</time>
      </trkpt>
      <trkpt lat="45.89049" lon="3.04546">
        <ele>506.7</ele>
        <time>2024-07-26T11:49:55Z</time>
      </trkpt>
      <trkpt lat="45.89048" lon="3.04547">
        <ele>506.8</ele>
        <time>2024-07-26T11:49:57Z</time>
      </trkpt>
      <trkpt lat="45.89047" lon="3.04548">
        <ele>507.4</ele>
        <time>2024-07-26T11:49:58Z</time>
      </trkpt>
      <trkpt lat="45.89046" lon="3.04548">
        <ele>508.5</ele>
        <time>2024-07-26T11:50:00Z</time>
      </trkpt>
      <trkpt lat="45.89045" lon="3.04547">
        <ele>508</ele>
        <time>2024-07-26T11:50:01Z</time>
      </trkpt>
      <trkpt lat="45.89044" lon="3.04546">
        <ele>508.6</ele>
        <time>2024-07-26T11:50:02Z</time>
      </trkpt>
      <trkpt lat="45.89043" lon="3.04545">
        <ele>508</ele>
        <time>2024-07-26T11:50:03Z</time>
      </trkpt>
      <trkpt lat="45.89042" lon="3.04543">
        <ele>506.3</ele>
        <time>2024-07-26T11:50:04Z</time>
      </trkpt>
      <trkpt lat="45.89041" lon="3.04542">
        <ele>506.9</ele>
        <time>2024-07-26T11:50:05Z</time>
      </trkpt>
      <trkpt lat="45.8904" lon="3.0454">
        <ele>507.5</ele>
        <time>2024-07-26T11:50:07Z</time>
      </trkpt>
      <trkpt lat="45.8904" lon="3.04539">
        <ele>509.5</ele>
        <time>2024-07-26T11:50:09Z</time>
      </trkpt>
      <trkpt lat="45.89039" lon="3.04537">
        <ele>508.3</ele>
        <time>2024-07-26T11:50:10Z</time>
      </trkpt>
      <trkpt lat="45.89038" lon="3.04537">
        <ele>506.6</ele>
        <time>2024-07-26T11:50:11Z</time>
      </trkpt>
      <trkpt lat="45.89037" lon="3.04535">
        <ele>506.4</ele>
        <time>2024-07-26T11:50:13Z</time>
      </trkpt>
      <trkpt lat="45.89037" lon="3.04534">
        <ele>506.7</ele>
        <time>2024-07-26T11:50:14Z</time>
      </trkpt>
      <trkpt lat="45.89036" lon="3.04533">
        <ele>506.9</ele>
        <time>2024-07-26T11:50:15Z</time>
      </trkpt>
      <trkpt lat="45.89036" lon="3.04531">
        <ele>505.9</ele>
        <time>2024-07-26T11:50:16Z</time>
      </trkpt>
      <trkpt lat="45.89036" lon="3.0453">
        <ele>505.5</ele>
        <time>2024-07-26T11:50:17Z</time>
      </trkpt>
      <trkpt lat="45.89035" lon="3.04528">
        <ele>505.1</ele>
        <time>2024-07-26T11:50:18Z</time>
      </trkpt>
      <trkpt lat="45.89034" lon="3.04527">
        <ele>504.7</ele>
        <time>2024-07-26T11:50:19Z</time>
      </trkpt>
      <trkpt lat="45.89034" lon="3.04526">
        <ele>504.3</ele>
        <time>2024-07-26T11:50:20Z</time>
      </trkpt>
      <trkpt lat="45.89033" lon="3.04524">
        <ele>504.6</ele>
        <time>2024-07-26T11:50:21Z</time>
      </trkpt>
      <trkpt lat="45.89032" lon="3.04523">
        <ele>504.4</ele>
        <time>2024-07-26T11:50:22Z</time>
      </trkpt>
      <trkpt lat="45.89032" lon="3.04522">
        <ele>504.6</ele>
        <time>2024-07-26T11:50:23Z</time>
      </trkpt>
      <trkpt lat="45.89032" lon="3.04521">
        <ele>504.9</ele>
        <time>2024-07-26T11:50:25Z</time>
      </trkpt>
      <trkpt lat="45.89032" lon="3.04519">
        <ele>505.9</ele>
        <time>2024-07-26T11:50:51Z</time>
      </trkpt>
      <trkpt lat="45.89031" lon="3.04518">
        <ele>507.8</ele>
        <time>2024-07-26T11:50:53Z</time>
      </trkpt>
      <trkpt lat="45.8903" lon="3.04519">
        <ele>508.4</ele>
        <time>2024-07-26T11:50:55Z</time>
      </trkpt>
      <trkpt lat="45.89027" lon="3.04514">
        <ele>496.2</ele>
        <time>2024-07-26T11:51:12Z</time>
      </trkpt>
      <trkpt lat="45.89025" lon="3.04511">
        <ele>496.1</ele>
        <time>2024-07-26T11:51:13Z</time>
      </trkpt>
      <trkpt lat="45.89024" lon="3.0451">
        <ele>496.1</ele>
        <time>2024-07-26T11:51:14Z</time>
      </trkpt>
      <trkpt lat="45.89024" lon="3.04509">
        <ele>496.1</ele>
        <time>2024-07-26T11:51:17Z</time>
      </trkpt>
      <trkpt lat="45.89024" lon="3.04508">
        <ele>496.2</ele>
        <time>2024-07-26T11:51:19Z</time>
      </trkpt>
      <trkpt lat="45.89025" lon="3.04507">
        <ele>496.6</ele>
        <time>2024-07-26T11:51:20Z</time>
      </trkpt>
      <trkpt lat="45.89026" lon="3.04506">
        <ele>495</ele>
        <time>2024-07-26T11:51:22Z</time>
      </trkpt>
      <trkpt lat="45.89025" lon="3.04506">
        <ele>495</ele>
        <time>2024-07-26T11:51:25Z</time>
      </trkpt>
      <trkpt lat="45.89024" lon="3.04506">
        <ele>494.4</ele>
        <time>2024-07-26T11:51:26Z</time>
      </trkpt>
      <trkpt lat="45.89023" lon="3.04506">
        <ele>494.9</ele>
        <time>2024-07-26T11:51:27Z</time>
      </trkpt>
      <trkpt lat="45.89022" lon="3.04506">
        <ele>496</ele>
        <time>2024-07-26T11:51:28Z</time>
      </trkpt>
      <trkpt lat="45.89021" lon="3.04507">
        <ele>496.8</ele>
        <time>2024-07-26T11:51:29Z</time>
      </trkpt>
      <trkpt lat="45.8902" lon="3.04506">
        <ele>495.8</ele>
        <time>2024-07-26T11:51:30Z</time>
      </trkpt>
      <trkpt lat="45.89019" lon="3.04505">
        <ele>494.1</ele>
        <time>2024-07-26T11:51:31Z</time>
      </trkpt>
      <trkpt lat="45.89018" lon="3.04504">
        <ele>494.3</ele>
        <time>2024-07-26T11:51:32Z</time>
      </trkpt>
      <trkpt lat="45.89018" lon="3.04503">
        <ele>492.6</ele>
        <time>2024-07-26T11:51:33Z</time>
      </trkpt>
      <trkpt lat="45.89016" lon="3.04501">
        <ele>491.3</ele>
        <time>2024-07-26T11:51:35Z</time>
      </trkpt>
      <trkpt lat="45.89015" lon="3.04499">
        <ele>490.1</ele>
        <time>2024-07-26T11:51:36Z</time>
      </trkpt>
      <trkpt lat="45.89015" lon="3.04499">
        <ele>493.5</ele>
        <time>2024-07-26T11:51:37Z</time>
      </trkpt>
      <trkpt lat="45.89013" lon="3.04498">
        <ele>493.3</ele>
        <time>2024-07-26T11:51:39Z</time>
      </trkpt>
      <trkpt lat="45.89012" lon="3.04497">
        <ele>494.2</ele>
        <time>2024-07-26T11:51:40Z</time>
      </trkpt>
      <trkpt lat="45.89011" lon="3.04495">
        <ele>495.9</ele>
        <time>2024-07-26T11:51:42Z</time>
      </trkpt>
      <trkpt lat="45.89011" lon="3.04493">
        <ele>496.9</ele>
        <time>2024-07-26T11:51:44Z</time>
      </trkpt>
      <trkpt lat="45.89011" lon="3.04491">
        <ele>496.9</ele>
        <time>2024-07-26T11:51:45Z</time>
      </trkpt>
      <trkpt lat="45.89011" lon="3.0449">
        <ele>498.9</ele>
        <time>2024-07-26T11:51:46Z</time>
      </trkpt>
      <trkpt lat="45.89012" lon="3.04488">
        <ele>500.4</ele>
        <time>2024-07-26T11:51:47Z</time>
      </trkpt>
      <trkpt lat="45.89012" lon="3.04487">
        <ele>499.9</ele>
        <time>2024-07-26T11:51:48Z</time>
      </trkpt>
      <trkpt lat="45.89012" lon="3.04485">
        <ele>501.4</ele>
        <time>2024-07-26T11:51:49Z</time>
      </trkpt>
      <trkpt lat="45.89012" lon="3.04484">
        <ele>501.4</ele>
        <time>2024-07-26T11:51:50Z</time>
      </trkpt>
      <trkpt lat="45.89012" lon="3.04482">
        <ele>500.1</ele>
        <time>2024-07-26T11:51:51Z</time>
      </trkpt>
      <trkpt lat="45.89011" lon="3.0448">
        <ele>501.1</ele>
        <time>2024-07-26T11:51:52Z</time>
      </trkpt>
      <trkpt lat="45.89011" lon="3.04479">
        <ele>500.9</ele>
        <time>2024-07-26T11:51:53Z</time>
      </trkpt>
      <trkpt lat="45.89011" lon="3.04477">
        <ele>501.1</ele>
        <time>2024-07-26T11:51:55Z</time>
      </trkpt>
      <trkpt lat="45.8901" lon="3.04475">
        <ele>501.1</ele>
        <time>2024-07-26T11:51:56Z</time>
      </trkpt>
      <trkpt lat="45.8901" lon="3.04474">
        <ele>501.6</ele>
        <time>2024-07-26T11:51:57Z</time>
      </trkpt>
      <trkpt lat="45.89009" lon="3.04473">
        <ele>501.7</ele>
        <time>2024-07-26T11:51:58Z</time>
      </trkpt>
      <trkpt lat="45.8901" lon="3.04472">
        <ele>501.9</ele>
        <time>2024-07-26T11:51:59Z</time>
      </trkpt>
      <trkpt lat="45.8901" lon="3.0447">
        <ele>501.9</ele>
        <time>2024-07-26T11:52:03Z</time>
      </trkpt>
      <trkpt lat="45.8901" lon="3.04471">
        <ele>504.7</ele>
        <time>2024-07-26T11:52:09Z</time>
      </trkpt>
      <trkpt lat="45.89009" lon="3.04473">
        <ele>507.6</ele>
        <time>2024-07-26T11:52:10Z</time>
      </trkpt>
      <trkpt lat="45.89008" lon="3.04475">
        <ele>509.7</ele>
        <time>2024-07-26T11:52:11Z</time>
      </trkpt>
      <trkpt lat="45.89006" lon="3.04475">
        <ele>500</ele>
        <time>2024-07-26T11:52:12Z</time>
      </trkpt>
      <trkpt lat="45.89005" lon="3.04475">
        <ele>502.1</ele>
        <time>2024-07-26T11:52:13Z</time>
      </trkpt>
      <trkpt lat="45.89004" lon="3.04475">
        <ele>502.6</ele>
        <time>2024-07-26T11:52:15Z</time>
      </trkpt>
      <trkpt lat="45.89003" lon="3.04477">
        <ele>497.8</ele>
        <time>2024-07-26T11:52:16Z</time>
      </trkpt>
      <trkpt lat="45.89002" lon="3.04479">
        <ele>497.1</ele>
        <time>2024-07-26T11:52:17Z</time>
      </trkpt>
      <trkpt lat="45.89002" lon="3.04481">
        <ele>497.5</ele>
        <time>2024-07-26T11:52:18Z</time>
      </trkpt>
      <trkpt lat="45.89003" lon="3.04481">
        <ele>496.9</ele>
        <time>2024-07-26T11:52:19Z</time>
      </trkpt>
      <trkpt lat="45.89004" lon="3.04482">
        <ele>497.6</ele>
        <time>2024-07-26T11:52:20Z</time>
      </trkpt>
      <trkpt lat="45.89005" lon="3.04483">
        <ele>497.6</ele>
        <time>2024-07-26T11:52:21Z</time>
      </trkpt>
      <trkpt lat="45.89007" lon="3.04486">
        <ele>498.6</ele>
        <time>2024-07-26T11:52:23Z</time>
      </trkpt>
      <trkpt lat="45.89008" lon="3.04487">
        <ele>499.4</ele>
        <time>2024-07-26T11:52:24Z</time>
      </trkpt>
      <trkpt lat="45.89011" lon="3.04489">
        <ele>498.1</ele>
        <time>2024-07-26T11:52:26Z</time>
      </trkpt>
      <trkpt lat="45.89013" lon="3.04489">
        <ele>498</ele>
        <time>2024-07-26T11:52:27Z</time>
      </trkpt>
      <trkpt lat="45.89014" lon="3.04489">
        <ele>498.5</ele>
        <time>2024-07-26T11:52:28Z</time>
      </trkpt>
      <trkpt lat="45.89015" lon="3.04489">
        <ele>499.9</ele>
        <time>2024-07-26T11:52:29Z</time>
      </trkpt>
      <trkpt lat="45.89016" lon="3.04489">
        <ele>499.2</ele>
        <time>2024-07-26T11:52:30Z</time>
      </trkpt>
      <trkpt lat="45.89017" lon="3.0449">
        <ele>498.7</ele>
        <time>2024-07-26T11:52:31Z</time>
      </trkpt>
      <trkpt lat="45.89017" lon="3.04488">
        <ele>498.1</ele>
        <time>2024-07-26T11:52:34Z</time>
      </trkpt>
      <trkpt lat="45.89016" lon="3.04487">
        <ele>498</ele>
        <time>2024-07-26T11:52:35Z</time>
      </trkpt>
      <trkpt lat="45.89014" lon="3.04486">
        <ele>499.2</ele>
        <time>2024-07-26T11:52:36Z</time>
      </trkpt>
      <trkpt lat="45.89013" lon="3.04486">
        <ele>498.2</ele>
        <time>2024-07-26T11:52:37Z</time>
      </trkpt>
      <trkpt lat="45.89011" lon="3.04485">
        <ele>498.8</ele>
        <time>2024-07-26T11:52:38Z</time>
      </trkpt>
      <trkpt lat="45.8901" lon="3.04485">
        <ele>500.8</ele>
        <time>2024-07-26T11:52:39Z</time>
      </trkpt>
      <trkpt lat="45.89008" lon="3.04484">
        <ele>500.7</ele>
        <time>2024-07-26T11:52:41Z</time>
      </trkpt>
      <trkpt lat="45.89007" lon="3.04485">
        <ele>502.8</ele>
        <time>2024-07-26T11:52:43Z</time>
      </trkpt>
      <trkpt lat="45.89006" lon="3.04485">
        <ele>504.8</ele>
        <time>2024-07-26T11:52:45Z</time>
      </trkpt>
      <trkpt lat="45.89004" lon="3.04484">
        <ele>507.4</ele>
        <time>2024-07-26T11:52:47Z</time>
      </trkpt>
      <trkpt lat="45.89003" lon="3.04483">
        <ele>507.8</ele>
        <time>2024-07-26T11:52:48Z</time>
      </trkpt>
      <trkpt lat="45.89002" lon="3.04482">
        <ele>502.3</ele>
        <time>2024-07-26T11:52:49Z</time>
      </trkpt>
      <trkpt lat="45.89001" lon="3.04482">
        <ele>501.8</ele>
        <time>2024-07-26T11:52:50Z</time>
      </trkpt>
      <trkpt lat="45.89" lon="3.04482">
        <ele>502.8</ele>
        <time>2024-07-26T11:52:51Z</time>
      </trkpt>
      <trkpt lat="45.88998" lon="3.04482">
        <ele>503.9</ele>
        <time>2024-07-26T11:52:52Z</time>
      </trkpt>
      <trkpt lat="45.88997" lon="3.04481">
        <ele>504.5</ele>
        <time>2024-07-26T11:52:53Z</time>
      </trkpt>
      <trkpt lat="45.88996" lon="3.04481">
        <ele>506.3</ele>
        <time>2024-07-26T11:52:54Z</time>
      </trkpt>
      <trkpt lat="45.88995" lon="3.04481">
        <ele>507.3</ele>
        <time>2024-07-26T11:52:55Z</time>
      </trkpt>
      <trkpt lat="45.88994" lon="3.0448">
        <ele>506.5</ele>
        <time>2024-07-26T11:52:56Z</time>
      </trkpt>
      <trkpt lat="45.88993" lon="3.04479">
        <ele>507</ele>
        <time>2024-07-26T11:52:57Z</time>
      </trkpt>
      <trkpt lat="45.88991" lon="3.04478">
        <ele>508.6</ele>
        <time>2024-07-26T11:52:59Z</time>
      </trkpt>
      <trkpt lat="45.8899" lon="3.04478">
        <ele>510.7</ele>
        <time>2024-07-26T11:53:00Z</time>
      </trkpt>
      <trkpt lat="45.88989" lon="3.04477">
        <ele>511.3</ele>
        <time>2024-07-26T11:53:01Z</time>
      </trkpt>
      <trkpt lat="45.88987" lon="3.04476">
        <ele>510.5</ele>
        <time>2024-07-26T11:53:03Z</time>
      </trkpt>
      <trkpt lat="45.88986" lon="3.04475">
        <ele>509.7</ele>
        <time>2024-07-26T11:53:06Z</time>
      </trkpt>
      <trkpt lat="45.88986" lon="3.04473">
        <ele>509.2</ele>
        <time>2024-07-26T11:53:09Z</time>
      </trkpt>
      <trkpt lat="45.88986" lon="3.04472">
        <ele>508.4</ele>
        <time>2024-07-26T11:53:11Z</time>
      </trkpt>
      <trkpt lat="45.88985" lon="3.04471">
        <ele>508.6</ele>
        <time>2024-07-26T11:53:12Z</time>
      </trkpt>
      <trkpt lat="45.88984" lon="3.04469">
        <ele>510.8</ele>
        <time>2024-07-26T11:53:14Z</time>
      </trkpt>
      <trkpt lat="45.88983" lon="3.04468">
        <ele>511</ele>
        <time>2024-07-26T11:53:17Z</time>
      </trkpt>
      <trkpt lat="45.88982" lon="3.04467">
        <ele>511.1</ele>
        <time>2024-07-26T11:53:18Z</time>
      </trkpt>
      <trkpt lat="45.88982" lon="3.04466">
        <ele>511.7</ele>
        <time>2024-07-26T11:53:19Z</time>
      </trkpt>
      <trkpt lat="45.88981" lon="3.04465">
        <ele>509.9</ele>
        <time>2024-07-26T11:53:21Z</time>
      </trkpt>
      <trkpt lat="45.8898" lon="3.04464">
        <ele>509.2</ele>
        <time>2024-07-26T11:53:22Z</time>
      </trkpt>
      <trkpt lat="45.88979" lon="3.04464">
        <ele>507.6</ele>
        <time>2024-07-26T11:53:23Z</time>
      </trkpt>
      <trkpt lat="45.88977" lon="3.04464">
        <ele>505.3</ele>
        <time>2024-07-26T11:53:25Z</time>
      </trkpt>
      <trkpt lat="45.88977" lon="3.04462">
        <ele>505.8</ele>
        <time>2024-07-26T11:53:27Z</time>
      </trkpt>
      <trkpt lat="45.88975" lon="3.04464">
        <ele>507.1</ele>
        <time>2024-07-26T11:53:30Z</time>
      </trkpt>
      <trkpt lat="45.88974" lon="3.04464">
        <ele>507.1</ele>
        <time>2024-07-26T11:53:32Z</time>
      </trkpt>
      <trkpt lat="45.88972" lon="3.04465">
        <ele>507.1</ele>
        <time>2024-07-26T11:53:33Z</time>
      </trkpt>
      <trkpt lat="45.8897" lon="3.04465">
        <ele>506.1</ele>
        <time>2024-07-26T11:53:34Z</time>
      </trkpt>
      <trkpt lat="45.88969" lon="3.04465">
        <ele>505.9</ele>
        <time>2024-07-26T11:53:35Z</time>
      </trkpt>
      <trkpt lat="45.88968" lon="3.04464">
        <ele>507.7</ele>
        <time>2024-07-26T11:53:36Z</time>
      </trkpt>
      <trkpt lat="45.88967" lon="3.04464">
        <ele>507.7</ele>
        <time>2024-07-26T11:53:37Z</time>
      </trkpt>
      <trkpt lat="45.88966" lon="3.04463">
        <ele>510.2</ele>
        <time>2024-07-26T11:53:38Z</time>
      </trkpt>
      <trkpt lat="45.88965" lon="3.04462">
        <ele>509.7</ele>
        <time>2024-07-26T11:53:39Z</time>
      </trkpt>
      <trkpt lat="45.88964" lon="3.04462">
        <ele>510.3</ele>
        <time>2024-07-26T11:53:40Z</time>
      </trkpt>
      <trkpt lat="45.88963" lon="3.04461">
        <ele>510.3</ele>
        <time>2024-07-26T11:53:42Z</time>
      </trkpt>
      <trkpt lat="45.88963" lon="3.04462">
        <ele>509.5</ele>
        <time>2024-07-26T11:53:44Z</time>
      </trkpt>
      <trkpt lat="45.88962" lon="3.04461">
        <ele>507.5</ele>
        <time>2024-07-26T11:53:47Z</time>
      </trkpt>
      <trkpt lat="45.88961" lon="3.0446">
        <ele>507.8</ele>
        <time>2024-07-26T11:53:48Z</time>
      </trkpt>
      <trkpt lat="45.8896" lon="3.04459">
        <ele>509.9</ele>
        <time>2024-07-26T11:53:49Z</time>
      </trkpt>
      <trkpt lat="45.88959" lon="3.04457">
        <ele>510.3</ele>
        <time>2024-07-26T11:53:51Z</time>
      </trkpt>
      <trkpt lat="45.88958" lon="3.04457">
        <ele>509.5</ele>
        <time>2024-07-26T11:53:53Z</time>
      </trkpt>
      <trkpt lat="45.88957" lon="3.04456">
        <ele>508.7</ele>
        <time>2024-07-26T11:53:55Z</time>
      </trkpt>
      <trkpt lat="45.88957" lon="3.04455">
        <ele>508.1</ele>
        <time>2024-07-26T11:53:56Z</time>
      </trkpt>
      <trkpt lat="45.88956" lon="3.04453">
        <ele>508.4</ele>
        <time>2024-07-26T11:53:57Z</time>
      </trkpt>
      <trkpt lat="45.88956" lon="3.04451">
        <ele>508.4</ele>
        <time>2024-07-26T11:53:59Z</time>
      </trkpt>
      <trkpt lat="45.88956" lon="3.0445">
        <ele>508.9</ele>
        <time>2024-07-26T11:54:01Z</time>
      </trkpt>
      <trkpt lat="45.88956" lon="3.04447">
        <ele>505.5</ele>
        <time>2024-07-26T11:54:03Z</time>
      </trkpt>
      <trkpt lat="45.88956" lon="3.04445">
        <ele>502.2</ele>
        <time>2024-07-26T11:54:04Z</time>
      </trkpt>
      <trkpt lat="45.88956" lon="3.04443">
        <ele>502.8</ele>
        <time>2024-07-26T11:54:05Z</time>
      </trkpt>
      <trkpt lat="45.88956" lon="3.04442">
        <ele>502.2</ele>
        <time>2024-07-26T11:54:06Z</time>
      </trkpt>
      <trkpt lat="45.88956" lon="3.0444">
        <ele>502.2</ele>
        <time>2024-07-26T11:54:07Z</time>
      </trkpt>
      <trkpt lat="45.88955" lon="3.04438">
        <ele>504</ele>
        <time>2024-07-26T11:54:09Z</time>
      </trkpt>
      <trkpt lat="45.88952" lon="3.04438">
        <ele>502.6</ele>
        <time>2024-07-26T11:54:14Z</time>
      </trkpt>
      <trkpt lat="45.88951" lon="3.04437">
        <ele>504</ele>
        <time>2024-07-26T11:54:15Z</time>
      </trkpt>
      <trkpt lat="45.8895" lon="3.04437">
        <ele>504.8</ele>
        <time>2024-07-26T11:54:17Z</time>
      </trkpt>
      <trkpt lat="45.88949" lon="3.04435">
        <ele>506.5</ele>
        <time>2024-07-26T11:54:19Z</time>
      </trkpt>
      <trkpt lat="45.88948" lon="3.04434">
        <ele>507.1</ele>
        <time>2024-07-26T11:54:20Z</time>
      </trkpt>
      <trkpt lat="45.88948" lon="3.04434">
        <ele>506.8</ele>
        <time>2024-07-26T11:54:21Z</time>
      </trkpt>
      <trkpt lat="45.88946" lon="3.04434">
        <ele>503.9</ele>
        <time>2024-07-26T11:54:23Z</time>
      </trkpt>
      <trkpt lat="45.88945" lon="3.04434">
        <ele>503.3</ele>
        <time>2024-07-26T11:54:25Z</time>
      </trkpt>
      <trkpt lat="45.88944" lon="3.04434">
        <ele>504.7</ele>
        <time>2024-07-26T11:54:26Z</time>
      </trkpt>
      <trkpt lat="45.88943" lon="3.04434">
        <ele>504.5</ele>
        <time>2024-07-26T11:54:28Z</time>
      </trkpt>
      <trkpt lat="45.88944" lon="3.04432">
        <ele>503.8</ele>
        <time>2024-07-26T11:54:30Z</time>
      </trkpt>
      <trkpt lat="45.88942" lon="3.04432">
        <ele>507.3</ele>
        <time>2024-07-26T11:54:34Z</time>
      </trkpt>
      <trkpt lat="45.88941" lon="3.04434">
        <ele>508.7</ele>
        <time>2024-07-26T11:54:36Z</time>
      </trkpt>
      <trkpt lat="45.8894" lon="3.04436">
        <ele>510.9</ele>
        <time>2024-07-26T11:54:40Z</time>
      </trkpt>
      <trkpt lat="45.8894" lon="3.04437">
        <ele>509.9</ele>
        <time>2024-07-26T11:54:41Z</time>
      </trkpt>
      <trkpt lat="45.88938" lon="3.04438">
        <ele>507.7</ele>
        <time>2024-07-26T11:54:43Z</time>
      </trkpt>
      <trkpt lat="45.88937" lon="3.04438">
        <ele>509.6</ele>
        <time>2024-07-26T11:54:44Z</time>
      </trkpt>
      <trkpt lat="45.88936" lon="3.04438">
        <ele>509.2</ele>
        <time>2024-07-26T11:54:45Z</time>
      </trkpt>
      <trkpt lat="45.88935" lon="3.04437">
        <ele>509.5</ele>
        <time>2024-07-26T11:54:46Z</time>
      </trkpt>
      <trkpt lat="45.88934" lon="3.04437">
        <ele>508.8</ele>
        <time>2024-07-26T11:54:47Z</time>
      </trkpt>
      <trkpt lat="45.88933" lon="3.04436">
        <ele>508.7</ele>
        <time>2024-07-26T11:54:49Z</time>
      </trkpt>
      <trkpt lat="45.88932" lon="3.04435">
        <ele>510.4</ele>
        <time>2024-07-26T11:54:51Z</time>
      </trkpt>
      <trkpt lat="45.8893" lon="3.04435">
        <ele>509.2</ele>
        <time>2024-07-26T11:54:53Z</time>
      </trkpt>
      <trkpt lat="45.88929" lon="3.04434">
        <ele>509</ele>
        <time>2024-07-26T11:54:55Z</time>
      </trkpt>
      <trkpt lat="45.88928" lon="3.04434">
        <ele>511.2</ele>
        <time>2024-07-26T11:54:57Z</time>
      </trkpt>
      <trkpt lat="45.88927" lon="3.04433">
        <ele>509.7</ele>
        <time>2024-07-26T11:55:00Z</time>
      </trkpt>
      <trkpt lat="45.88928" lon="3.04432">
        <ele>509.4</ele>
        <time>2024-07-26T11:55:04Z</time>
      </trkpt>
      <trkpt lat="45.88927" lon="3.0443">
        <ele>510.5</ele>
        <time>2024-07-26T11:55:05Z</time>
      </trkpt>
      <trkpt lat="45.88928" lon="3.04428">
        <ele>513</ele>
        <time>2024-07-26T11:55:06Z</time>
      </trkpt>
      <trkpt lat="45.88928" lon="3.04426">
        <ele>512.7</ele>
        <time>2024-07-26T11:55:07Z</time>
      </trkpt>
      <trkpt lat="45.88927" lon="3.04425">
        <ele>512</ele>
        <time>2024-07-26T11:55:08Z</time>
      </trkpt>
      <trkpt lat="45.88926" lon="3.04424">
        <ele>510.6</ele>
        <time>2024-07-26T11:55:10Z</time>
      </trkpt>
      <trkpt lat="45.88925" lon="3.04423">
        <ele>509.8</ele>
        <time>2024-07-26T11:55:11Z</time>
      </trkpt>
      <trkpt lat="45.88924" lon="3.04423">
        <ele>509.9</ele>
        <time>2024-07-26T11:55:12Z</time>
      </trkpt>
      <trkpt lat="45.88924" lon="3.04421">
        <ele>509.1</ele>
        <time>2024-07-26T11:55:13Z</time>
      </trkpt>
      <trkpt lat="45.88924" lon="3.0442">
        <ele>509.1</ele>
        <time>2024-07-26T11:55:15Z</time>
      </trkpt>
      <trkpt lat="45.88925" lon="3.0442">
        <ele>508.4</ele>
        <time>2024-07-26T11:55:17Z</time>
      </trkpt>
      <trkpt lat="45.88924" lon="3.04419">
        <ele>508</ele>
        <time>2024-07-26T11:55:21Z</time>
      </trkpt>
      <trkpt lat="45.88923" lon="3.04419">
        <ele>507.3</ele>
        <time>2024-07-26T11:55:22Z</time>
      </trkpt>
      <trkpt lat="45.88921" lon="3.04419">
        <ele>507.5</ele>
        <time>2024-07-26T11:55:23Z</time>
      </trkpt>
      <trkpt lat="45.8892" lon="3.04419">
        <ele>507</ele>
        <time>2024-07-26T11:55:24Z</time>
      </trkpt>
      <trkpt lat="45.88919" lon="3.04418">
        <ele>506.5</ele>
        <time>2024-07-26T11:55:25Z</time>
      </trkpt>
      <trkpt lat="45.88918" lon="3.04418">
        <ele>506.2</ele>
        <time>2024-07-26T11:55:26Z</time>
      </trkpt>
      <trkpt lat="45.88917" lon="3.04417">
        <ele>505.9</ele>
        <time>2024-07-26T11:55:27Z</time>
      </trkpt>
      <trkpt lat="45.88916" lon="3.04416">
        <ele>505.8</ele>
        <time>2024-07-26T11:55:28Z</time>
      </trkpt>
      <trkpt lat="45.88915" lon="3.04414">
        <ele>504</ele>
        <time>2024-07-26T11:55:31Z</time>
      </trkpt>
      <trkpt lat="45.88913" lon="3.04413">
        <ele>500.1</ele>
        <time>2024-07-26T11:55:33Z</time>
      </trkpt>
      <trkpt lat="45.88912" lon="3.04412">
        <ele>499.9</ele>
        <time>2024-07-26T11:55:35Z</time>
      </trkpt>
      <trkpt lat="45.88909" lon="3.04413">
        <ele>499.8</ele>
        <time>2024-07-26T11:55:37Z</time>
      </trkpt>
      <trkpt lat="45.88909" lon="3.04414">
        <ele>500.1</ele>
        <time>2024-07-26T11:55:39Z</time>
      </trkpt>
      <trkpt lat="45.88909" lon="3.04416">
        <ele>499.8</ele>
        <time>2024-07-26T11:55:40Z</time>
      </trkpt>
      <trkpt lat="45.88909" lon="3.04417">
        <ele>499.1</ele>
        <time>2024-07-26T11:55:42Z</time>
      </trkpt>
      <trkpt lat="45.88909" lon="3.04419">
        <ele>502.6</ele>
        <time>2024-07-26T11:55:44Z</time>
      </trkpt>
      <trkpt lat="45.88907" lon="3.04418">
        <ele>501.9</ele>
        <time>2024-07-26T11:55:47Z</time>
      </trkpt>
      <trkpt lat="45.88906" lon="3.04416">
        <ele>502.8</ele>
        <time>2024-07-26T11:55:49Z</time>
      </trkpt>
      <trkpt lat="45.88906" lon="3.04414">
        <ele>499.5</ele>
        <time>2024-07-26T11:55:51Z</time>
      </trkpt>
      <trkpt lat="45.88905" lon="3.04412">
        <ele>499.1</ele>
        <time>2024-07-26T11:55:53Z</time>
      </trkpt>
      <trkpt lat="45.88904" lon="3.0441">
        <ele>498.5</ele>
        <time>2024-07-26T11:55:55Z</time>
      </trkpt>
      <trkpt lat="45.88903" lon="3.0441">
        <ele>498.8</ele>
        <time>2024-07-26T11:55:57Z</time>
      </trkpt>
      <trkpt lat="45.88902" lon="3.04409">
        <ele>498.8</ele>
        <time>2024-07-26T11:55:58Z</time>
      </trkpt>
      <trkpt lat="45.88901" lon="3.04408">
        <ele>499.5</ele>
        <time>2024-07-26T11:55:59Z</time>
      </trkpt>
      <trkpt lat="45.88901" lon="3.04407">
        <ele>500.2</ele>
        <time>2024-07-26T11:56:00Z</time>
      </trkpt>
      <trkpt lat="45.88901" lon="3.04406">
        <ele>498.9</ele>
        <time>2024-07-26T11:56:01Z</time>
      </trkpt>
      <trkpt lat="45.889" lon="3.04404">
        <ele>498.5</ele>
        <time>2024-07-26T11:56:03Z</time>
      </trkpt>
      <trkpt lat="45.889" lon="3.04402">
        <ele>497</ele>
        <time>2024-07-26T11:56:05Z</time>
      </trkpt>
      <trkpt lat="45.88899" lon="3.04401">
        <ele>497.8</ele>
        <time>2024-07-26T11:56:06Z</time>
      </trkpt>
      <trkpt lat="45.889" lon="3.04399">
        <ele>499</ele>
        <time>2024-07-26T11:56:08Z</time>
      </trkpt>
      <trkpt lat="45.889" lon="3.04398">
        <ele>498.8</ele>
        <time>2024-07-26T11:56:09Z</time>
      </trkpt>
      <trkpt lat="45.88899" lon="3.04395">
        <ele>499.4</ele>
        <time>2024-07-26T11:56:11Z</time>
      </trkpt>
      <trkpt lat="45.88898" lon="3.04394">
        <ele>499.3</ele>
        <time>2024-07-26T11:56:12Z</time>
      </trkpt>
      <trkpt lat="45.88897" lon="3.04394">
        <ele>499.9</ele>
        <time>2024-07-26T11:56:13Z</time>
      </trkpt>
      <trkpt lat="45.88896" lon="3.04392">
        <ele>500.5</ele>
        <time>2024-07-26T11:56:15Z</time>
      </trkpt>
      <trkpt lat="45.88895" lon="3.04391">
        <ele>501.1</ele>
        <time>2024-07-26T11:56:17Z</time>
      </trkpt>
      <trkpt lat="45.88893" lon="3.04391">
        <ele>501</ele>
        <time>2024-07-26T11:56:18Z</time>
      </trkpt>
      <trkpt lat="45.88892" lon="3.0439">
        <ele>500.8</ele>
        <time>2024-07-26T11:56:19Z</time>
      </trkpt>
      <trkpt lat="45.88891" lon="3.04389">
        <ele>500.7</ele>
        <time>2024-07-26T11:56:20Z</time>
      </trkpt>
      <trkpt lat="45.88889" lon="3.04389">
        <ele>500.5</ele>
        <time>2024-07-26T11:56:21Z</time>
      </trkpt>
      <trkpt lat="45.88889" lon="3.04389">
        <ele>500.3</ele>
        <time>2024-07-26T11:56:22Z</time>
      </trkpt>
      <trkpt lat="45.88888" lon="3.04389">
        <ele>500.2</ele>
        <time>2024-07-26T11:56:23Z</time>
      </trkpt>
      <trkpt lat="45.88886" lon="3.0439">
        <ele>499.7</ele>
        <time>2024-07-26T11:56:24Z</time>
      </trkpt>
      <trkpt lat="45.88885" lon="3.0439">
        <ele>500.3</ele>
        <time>2024-07-26T11:56:25Z</time>
      </trkpt>
      <trkpt lat="45.88884" lon="3.0439">
        <ele>499.9</ele>
        <time>2024-07-26T11:56:26Z</time>
      </trkpt>
      <trkpt lat="45.88883" lon="3.0439">
        <ele>498.4</ele>
        <time>2024-07-26T11:56:28Z</time>
      </trkpt>
      <trkpt lat="45.88881" lon="3.04389">
        <ele>498.4</ele>
        <time>2024-07-26T11:56:30Z</time>
      </trkpt>
      <trkpt lat="45.8888" lon="3.04389">
        <ele>497.2</ele>
        <time>2024-07-26T11:56:32Z</time>
      </trkpt>
      <trkpt lat="45.88878" lon="3.04388">
        <ele>497.2</ele>
        <time>2024-07-26T11:56:34Z</time>
      </trkpt>
      <trkpt lat="45.88877" lon="3.04388">
        <ele>498.4</ele>
        <time>2024-07-26T11:56:35Z</time>
      </trkpt>
      <trkpt lat="45.88875" lon="3.04389">
        <ele>499</ele>
        <time>2024-07-26T11:56:36Z</time>
      </trkpt>
      <trkpt lat="45.88874" lon="3.0439">
        <ele>497.6</ele>
        <time>2024-07-26T11:56:37Z</time>
      </trkpt>
      <trkpt lat="45.88873" lon="3.04391">
        <ele>497.1</ele>
        <time>2024-07-26T11:56:38Z</time>
      </trkpt>
      <trkpt lat="45.88872" lon="3.04392">
        <ele>496.8</ele>
        <time>2024-07-26T11:56:40Z</time>
      </trkpt>
      <trkpt lat="45.88871" lon="3.04391">
        <ele>497.3</ele>
        <time>2024-07-26T11:56:43Z</time>
      </trkpt>
      <trkpt lat="45.88871" lon="3.04389">
        <ele>496.3</ele>
        <time>2024-07-26T11:56:46Z</time>
      </trkpt>
      <trkpt lat="45.88871" lon="3.04387">
        <ele>497.8</ele>
        <time>2024-07-26T11:56:47Z</time>
      </trkpt>
      <trkpt lat="45.88872" lon="3.04386">
        <ele>497.4</ele>
        <time>2024-07-26T11:56:48Z</time>
      </trkpt>
      <trkpt lat="45.88872" lon="3.04385">
        <ele>497.1</ele>
        <time>2024-07-26T11:56:49Z</time>
      </trkpt>
      <trkpt lat="45.88873" lon="3.04383">
        <ele>493.7</ele>
        <time>2024-07-26T11:56:51Z</time>
      </trkpt>
      <trkpt lat="45.88872" lon="3.04383">
        <ele>494</ele>
        <time>2024-07-26T11:56:53Z</time>
      </trkpt>
      <trkpt lat="45.8887" lon="3.04383">
        <ele>496.7</ele>
        <time>2024-07-26T11:56:56Z</time>
      </trkpt>
      <trkpt lat="45.88869" lon="3.04383">
        <ele>494.4</ele>
        <time>2024-07-26T11:57:06Z</time>
      </trkpt>
      <trkpt lat="45.88868" lon="3.04383">
        <ele>495.4</ele>
        <time>2024-07-26T11:57:08Z</time>
      </trkpt>
      <trkpt lat="45.88868" lon="3.04382">
        <ele>496.3</ele>
        <time>2024-07-26T11:57:09Z</time>
      </trkpt>
      <trkpt lat="45.88867" lon="3.0438">
        <ele>494.2</ele>
        <time>2024-07-26T11:57:11Z</time>
      </trkpt>
      <trkpt lat="45.88866" lon="3.04378">
        <ele>492.1</ele>
        <time>2024-07-26T11:57:13Z</time>
      </trkpt>
      <trkpt lat="45.88866" lon="3.04376">
        <ele>493.7</ele>
        <time>2024-07-26T11:57:14Z</time>
      </trkpt>
      <trkpt lat="45.88867" lon="3.04374">
        <ele>493.2</ele>
        <time>2024-07-26T11:57:16Z</time>
      </trkpt>
      <trkpt lat="45.88867" lon="3.04373">
        <ele>493.4</ele>
        <time>2024-07-26T11:57:17Z</time>
      </trkpt>
      <trkpt lat="45.88868" lon="3.04371">
        <ele>496.4</ele>
        <time>2024-07-26T11:57:19Z</time>
      </trkpt>
      <trkpt lat="45.88869" lon="3.04369">
        <ele>495.9</ele>
        <time>2024-07-26T11:57:21Z</time>
      </trkpt>
      <trkpt lat="45.8887" lon="3.04369">
        <ele>494.7</ele>
        <time>2024-07-26T11:57:22Z</time>
      </trkpt>
      <trkpt lat="45.88872" lon="3.04367">
        <ele>496.5</ele>
        <time>2024-07-26T11:57:24Z</time>
      </trkpt>
      <trkpt lat="45.88873" lon="3.04366">
        <ele>496.3</ele>
        <time>2024-07-26T11:57:25Z</time>
      </trkpt>
      <trkpt lat="45.88874" lon="3.04366">
        <ele>496.2</ele>
        <time>2024-07-26T11:57:27Z</time>
      </trkpt>
      <trkpt lat="45.88875" lon="3.04367">
        <ele>492.9</ele>
        <time>2024-07-26T11:57:29Z</time>
      </trkpt>
      <trkpt lat="45.88876" lon="3.04367">
        <ele>492.4</ele>
        <time>2024-07-26T11:57:32Z</time>
      </trkpt>
      <trkpt lat="45.88877" lon="3.04366">
        <ele>491.9</ele>
        <time>2024-07-26T11:57:34Z</time>
      </trkpt>
      <trkpt lat="45.88877" lon="3.04365">
        <ele>491.9</ele>
        <time>2024-07-26T11:57:35Z</time>
      </trkpt>
      <trkpt lat="45.88877" lon="3.04363">
        <ele>491.4</ele>
        <time>2024-07-26T11:57:36Z</time>
      </trkpt>
      <trkpt lat="45.88877" lon="3.04361">
        <ele>492.1</ele>
        <time>2024-07-26T11:57:37Z</time>
      </trkpt>
      <trkpt lat="45.88877" lon="3.04359">
        <ele>491</ele>
        <time>2024-07-26T11:57:38Z</time>
      </trkpt>
      <trkpt lat="45.88877" lon="3.04357">
        <ele>491</ele>
        <time>2024-07-26T11:57:39Z</time>
      </trkpt>
      <trkpt lat="45.88876" lon="3.04354">
        <ele>492.1</ele>
        <time>2024-07-26T11:57:40Z</time>
      </trkpt>
      <trkpt lat="45.88876" lon="3.04353">
        <ele>491.7</ele>
        <time>2024-07-26T11:57:41Z</time>
      </trkpt>
      <trkpt lat="45.88876" lon="3.04351">
        <ele>491.2</ele>
        <time>2024-07-26T11:57:42Z</time>
      </trkpt>
      <trkpt lat="45.88876" lon="3.04349">
        <ele>491.3</ele>
        <time>2024-07-26T11:57:43Z</time>
      </trkpt>
      <trkpt lat="45.88876" lon="3.04347">
        <ele>490.8</ele>
        <time>2024-07-26T11:57:44Z</time>
      </trkpt>
      <trkpt lat="45.88875" lon="3.04345">
        <ele>490.8</ele>
        <time>2024-07-26T11:57:45Z</time>
      </trkpt>
      <trkpt lat="45.88875" lon="3.04343">
        <ele>490.9</ele>
        <time>2024-07-26T11:57:46Z</time>
      </trkpt>
      <trkpt lat="45.88875" lon="3.04341">
        <ele>491.6</ele>
        <time>2024-07-26T11:57:47Z</time>
      </trkpt>
      <trkpt lat="45.88874" lon="3.0434">
        <ele>491.2</ele>
        <time>2024-07-26T11:57:48Z</time>
      </trkpt>
      <trkpt lat="45.88874" lon="3.04339">
        <ele>491.3</ele>
        <time>2024-07-26T11:57:49Z</time>
      </trkpt>
      <trkpt lat="45.88872" lon="3.04338">
        <ele>490.6</ele>
        <time>2024-07-26T11:57:51Z</time>
      </trkpt>
      <trkpt lat="45.8887" lon="3.04338">
        <ele>491</ele>
        <time>2024-07-26T11:57:53Z</time>
      </trkpt>
      <trkpt lat="45.88869" lon="3.04339">
        <ele>491</ele>
        <time>2024-07-26T11:57:54Z</time>
      </trkpt>
      <trkpt lat="45.88868" lon="3.04339">
        <ele>491.3</ele>
        <time>2024-07-26T11:57:55Z</time>
      </trkpt>
      <trkpt lat="45.88867" lon="3.0434">
        <ele>491.8</ele>
        <time>2024-07-26T11:57:56Z</time>
      </trkpt>
      <trkpt lat="45.88866" lon="3.04342">
        <ele>491.9</ele>
        <time>2024-07-26T11:57:58Z</time>
      </trkpt>
      <trkpt lat="45.88864" lon="3.04343">
        <ele>493.1</ele>
        <time>2024-07-26T11:58:00Z</time>
      </trkpt>
      <trkpt lat="45.88861" lon="3.04341">
        <ele>493.8</ele>
        <time>2024-07-26T11:58:01Z</time>
      </trkpt>
      <trkpt lat="45.88859" lon="3.0434">
        <ele>493.9</ele>
        <time>2024-07-26T11:58:02Z</time>
      </trkpt>
      <trkpt lat="45.88857" lon="3.04337">
        <ele>496.5</ele>
        <time>2024-07-26T11:58:03Z</time>
      </trkpt>
      <trkpt lat="45.88856" lon="3.04337">
        <ele>496.6</ele>
        <time>2024-07-26T11:58:04Z</time>
      </trkpt>
      <trkpt lat="45.88856" lon="3.04339">
        <ele>498.7</ele>
        <time>2024-07-26T11:58:08Z</time>
      </trkpt>
      <trkpt lat="45.88856" lon="3.0434">
        <ele>499</ele>
        <time>2024-07-26T11:58:09Z</time>
      </trkpt>
      <trkpt lat="45.88857" lon="3.04342">
        <ele>498.8</ele>
        <time>2024-07-26T11:58:10Z</time>
      </trkpt>
      <trkpt lat="45.88858" lon="3.04341">
        <ele>491.2</ele>
        <time>2024-07-26T11:58:14Z</time>
      </trkpt>
      <trkpt lat="45.88858" lon="3.0434">
        <ele>491.6</ele>
        <time>2024-07-26T11:58:16Z</time>
      </trkpt>
      <trkpt lat="45.88858" lon="3.04337">
        <ele>491.4</ele>
        <time>2024-07-26T11:58:18Z</time>
      </trkpt>
      <trkpt lat="45.88858" lon="3.04336">
        <ele>493.2</ele>
        <time>2024-07-26T11:58:20Z</time>
      </trkpt>
      <trkpt lat="45.88857" lon="3.04335">
        <ele>492.2</ele>
        <time>2024-07-26T11:58:22Z</time>
      </trkpt>
      <trkpt lat="45.88855" lon="3.04335">
        <ele>491.9</ele>
        <time>2024-07-26T11:58:23Z</time>
      </trkpt>
      <trkpt lat="45.88854" lon="3.04335">
        <ele>492.3</ele>
        <time>2024-07-26T11:58:24Z</time>
      </trkpt>
      <trkpt lat="45.88853" lon="3.04336">
        <ele>492.3</ele>
        <time>2024-07-26T11:58:26Z</time>
      </trkpt>
      <trkpt lat="45.88851" lon="3.04336">
        <ele>492.7</ele>
        <time>2024-07-26T11:58:28Z</time>
      </trkpt>
      <trkpt lat="45.8885" lon="3.04335">
        <ele>490.4</ele>
        <time>2024-07-26T11:58:30Z</time>
      </trkpt>
      <trkpt lat="45.88852" lon="3.04336">
        <ele>496.2</ele>
        <time>2024-07-26T11:58:33Z</time>
      </trkpt>
      <trkpt lat="45.88854" lon="3.04337">
        <ele>495.6</ele>
        <time>2024-07-26T11:58:35Z</time>
      </trkpt>
      <trkpt lat="45.88856" lon="3.04336">
        <ele>496</ele>
        <time>2024-07-26T11:58:38Z</time>
      </trkpt>
      <trkpt lat="45.88855" lon="3.04337">
        <ele>497.2</ele>
        <time>2024-07-26T11:58:40Z</time>
      </trkpt>
      <trkpt lat="45.88854" lon="3.04336">
        <ele>496.5</ele>
        <time>2024-07-26T11:58:44Z</time>
      </trkpt>
      <trkpt lat="45.88853" lon="3.04335">
        <ele>496.5</ele>
        <time>2024-07-26T11:58:45Z</time>
      </trkpt>
      <trkpt lat="45.88851" lon="3.04334">
        <ele>494.4</ele>
        <time>2024-07-26T11:58:46Z</time>
      </trkpt>
      <trkpt lat="45.8885" lon="3.04333">
        <ele>494.4</ele>
        <time>2024-07-26T11:58:47Z</time>
      </trkpt>
      <trkpt lat="45.88848" lon="3.04332">
        <ele>492.5</ele>
        <time>2024-07-26T11:58:48Z</time>
      </trkpt>
      <trkpt lat="45.88845" lon="3.04331">
        <ele>492.8</ele>
        <time>2024-07-26T11:58:50Z</time>
      </trkpt>
      <trkpt lat="45.88844" lon="3.04331">
        <ele>493.6</ele>
        <time>2024-07-26T11:58:51Z</time>
      </trkpt>
      <trkpt lat="45.88843" lon="3.0433">
        <ele>494.3</ele>
        <time>2024-07-26T11:58:52Z</time>
      </trkpt>
      <trkpt lat="45.88842" lon="3.0433">
        <ele>495.7</ele>
        <time>2024-07-26T11:58:53Z</time>
      </trkpt>
      <trkpt lat="45.88841" lon="3.0433">
        <ele>496.1</ele>
        <time>2024-07-26T11:58:54Z</time>
      </trkpt>
      <trkpt lat="45.8884" lon="3.0433">
        <ele>494.5</ele>
        <time>2024-07-26T11:58:55Z</time>
      </trkpt>
      <trkpt lat="45.88839" lon="3.04329">
        <ele>492.2</ele>
        <time>2024-07-26T11:58:56Z</time>
      </trkpt>
      <trkpt lat="45.88838" lon="3.04328">
        <ele>491.4</ele>
        <time>2024-07-26T11:58:57Z</time>
      </trkpt>
      <trkpt lat="45.88837" lon="3.04327">
        <ele>491</ele>
        <time>2024-07-26T11:58:59Z</time>
      </trkpt>
      <trkpt lat="45.88835" lon="3.04325">
        <ele>489.5</ele>
        <time>2024-07-26T11:59:01Z</time>
      </trkpt>
      <trkpt lat="45.88835" lon="3.04324">
        <ele>491</ele>
        <time>2024-07-26T11:59:03Z</time>
      </trkpt>
      <trkpt lat="45.88833" lon="3.04323">
        <ele>491.3</ele>
        <time>2024-07-26T11:59:15Z</time>
      </trkpt>
      <trkpt lat="45.88834" lon="3.04322">
        <ele>491</ele>
        <time>2024-07-26T11:59:22Z</time>
      </trkpt>
      <trkpt lat="45.88833" lon="3.0432">
        <ele>491.9</ele>
        <time>2024-07-26T11:59:27Z</time>
      </trkpt>
      <trkpt lat="45.88833" lon="3.04319">
        <ele>497.8</ele>
        <time>2024-07-26T11:59:29Z</time>
      </trkpt>
      <trkpt lat="45.88832" lon="3.04318">
        <ele>496.1</ele>
        <time>2024-07-26T11:59:31Z</time>
      </trkpt>
      <trkpt lat="45.88831" lon="3.04316">
        <ele>495.1</ele>
        <time>2024-07-26T11:59:33Z</time>
      </trkpt>
      <trkpt lat="45.88831" lon="3.04313">
        <ele>494.9</ele>
        <time>2024-07-26T11:59:35Z</time>
      </trkpt>
      <trkpt lat="45.8883" lon="3.04312">
        <ele>495.6</ele>
        <time>2024-07-26T11:59:36Z</time>
      </trkpt>
      <trkpt lat="45.88829" lon="3.04311">
        <ele>495.3</ele>
        <time>2024-07-26T11:59:37Z</time>
      </trkpt>
      <trkpt lat="45.88829" lon="3.04309">
        <ele>495.6</ele>
        <time>2024-07-26T11:59:38Z</time>
      </trkpt>
      <trkpt lat="45.8883" lon="3.04306">
        <ele>495.1</ele>
        <time>2024-07-26T11:59:39Z</time>
      </trkpt>
      <trkpt lat="45.88831" lon="3.04305">
        <ele>495.9</ele>
        <time>2024-07-26T11:59:40Z</time>
      </trkpt>
      <trkpt lat="45.88831" lon="3.04303">
        <ele>495.8</ele>
        <time>2024-07-26T11:59:41Z</time>
      </trkpt>
      <trkpt lat="45.88831" lon="3.04301">
        <ele>495.2</ele>
        <time>2024-07-26T11:59:42Z</time>
      </trkpt>
      <trkpt lat="45.8883" lon="3.043">
        <ele>498.7</ele>
        <time>2024-07-26T11:59:44Z</time>
      </trkpt>
      <trkpt lat="45.88829" lon="3.043">
        <ele>498.4</ele>
        <time>2024-07-26T11:59:45Z</time>
      </trkpt>
      <trkpt lat="45.88827" lon="3.043">
        <ele>498.3</ele>
        <time>2024-07-26T11:59:46Z</time>
      </trkpt>
      <trkpt lat="45.88826" lon="3.043">
        <ele>500.9</ele>
        <time>2024-07-26T11:59:47Z</time>
      </trkpt>
      <trkpt lat="45.88825" lon="3.043">
        <ele>500.9</ele>
        <time>2024-07-26T11:59:49Z</time>
      </trkpt>
      <trkpt lat="45.88825" lon="3.04299">
        <ele>498.9</ele>
        <time>2024-07-26T11:59:51Z</time>
      </trkpt>
      <trkpt lat="45.88826" lon="3.04296">
        <ele>498</ele>
        <time>2024-07-26T11:59:53Z</time>
      </trkpt>
      <trkpt lat="45.88827" lon="3.04295">
        <ele>497.5</ele>
        <time>2024-07-26T11:59:54Z</time>
      </trkpt>
      <trkpt lat="45.88827" lon="3.04293">
        <ele>498.1</ele>
        <time>2024-07-26T11:59:55Z</time>
      </trkpt>
      <trkpt lat="45.88827" lon="3.04292">
        <ele>499.2</ele>
        <time>2024-07-26T11:59:56Z</time>
      </trkpt>
      <trkpt lat="45.88825" lon="3.04291">
        <ele>499.2</ele>
        <time>2024-07-26T11:59:58Z</time>
      </trkpt>
      <trkpt lat="45.88824" lon="3.04291">
        <ele>498.5</ele>
        <time>2024-07-26T11:59:59Z</time>
      </trkpt>
      <trkpt lat="45.88822" lon="3.0429">
        <ele>497.2</ele>
        <time>2024-07-26T12:00:00Z</time>
      </trkpt>
      <trkpt lat="45.88821" lon="3.04289">
        <ele>496.9</ele>
        <time>2024-07-26T12:00:01Z</time>
      </trkpt>
      <trkpt lat="45.8882" lon="3.04288">
        <ele>497.2</ele>
        <time>2024-07-26T12:00:02Z</time>
      </trkpt>
      <trkpt lat="45.88818" lon="3.04287">
        <ele>497</ele>
        <time>2024-07-26T12:00:04Z</time>
      </trkpt>
      <trkpt lat="45.88817" lon="3.04288">
        <ele>497.5</ele>
        <time>2024-07-26T12:00:06Z</time>
      </trkpt>
      <trkpt lat="45.88816" lon="3.04288">
        <ele>497.7</ele>
        <time>2024-07-26T12:00:07Z</time>
      </trkpt>
      <trkpt lat="45.88815" lon="3.04288">
        <ele>496.7</ele>
        <time>2024-07-26T12:00:09Z</time>
      </trkpt>
      <trkpt lat="45.88813" lon="3.04286">
        <ele>494.5</ele>
        <time>2024-07-26T12:00:11Z</time>
      </trkpt>
      <trkpt lat="45.88813" lon="3.04284">
        <ele>494.5</ele>
        <time>2024-07-26T12:00:13Z</time>
      </trkpt>
      <trkpt lat="45.88812" lon="3.04282">
        <ele>493.9</ele>
        <time>2024-07-26T12:00:15Z</time>
      </trkpt>
      <trkpt lat="45.88812" lon="3.0428">
        <ele>493.5</ele>
        <time>2024-07-26T12:00:16Z</time>
      </trkpt>
      <trkpt lat="45.88811" lon="3.04279">
        <ele>493.3</ele>
        <time>2024-07-26T12:00:17Z</time>
      </trkpt>
      <trkpt lat="45.88811" lon="3.04277">
        <ele>493.5</ele>
        <time>2024-07-26T12:00:18Z</time>
      </trkpt>
      <trkpt lat="45.88811" lon="3.04274">
        <ele>493.6</ele>
        <time>2024-07-26T12:00:19Z</time>
      </trkpt>
      <trkpt lat="45.8881" lon="3.04272">
        <ele>492.7</ele>
        <time>2024-07-26T12:00:20Z</time>
      </trkpt>
      <trkpt lat="45.8881" lon="3.04271">
        <ele>492.4</ele>
        <time>2024-07-26T12:00:21Z</time>
      </trkpt>
      <trkpt lat="45.88809" lon="3.04269">
        <ele>491.5</ele>
        <time>2024-07-26T12:00:22Z</time>
      </trkpt>
      <trkpt lat="45.88808" lon="3.04268">
        <ele>492.6</ele>
        <time>2024-07-26T12:00:23Z</time>
      </trkpt>
      <trkpt lat="45.88808" lon="3.04267">
        <ele>493.3</ele>
        <time>2024-07-26T12:00:24Z</time>
      </trkpt>
      <trkpt lat="45.88807" lon="3.04265">
        <ele>493.3</ele>
        <time>2024-07-26T12:00:25Z</time>
      </trkpt>
      <trkpt lat="45.88806" lon="3.04263">
        <ele>492.3</ele>
        <time>2024-07-26T12:00:27Z</time>
      </trkpt>
      <trkpt lat="45.88805" lon="3.04263">
        <ele>490.7</ele>
        <time>2024-07-26T12:00:28Z</time>
      </trkpt>
      <trkpt lat="45.88804" lon="3.04262">
        <ele>490.2</ele>
        <time>2024-07-26T12:00:29Z</time>
      </trkpt>
      <trkpt lat="45.88803" lon="3.04261">
        <ele>490.1</ele>
        <time>2024-07-26T12:00:30Z</time>
      </trkpt>
      <trkpt lat="45.88801" lon="3.0426">
        <ele>492.2</ele>
        <time>2024-07-26T12:00:32Z</time>
      </trkpt>
      <trkpt lat="45.888" lon="3.0426">
        <ele>491.7</ele>
        <time>2024-07-26T12:00:33Z</time>
      </trkpt>
      <trkpt lat="45.888" lon="3.04259">
        <ele>492.4</ele>
        <time>2024-07-26T12:00:34Z</time>
      </trkpt>
      <trkpt lat="45.88799" lon="3.04258">
        <ele>491.5</ele>
        <time>2024-07-26T12:00:35Z</time>
      </trkpt>
      <trkpt lat="45.88798" lon="3.04257">
        <ele>491.5</ele>
        <time>2024-07-26T12:00:36Z</time>
      </trkpt>
      <trkpt lat="45.88798" lon="3.04254">
        <ele>495.2</ele>
        <time>2024-07-26T12:00:38Z</time>
      </trkpt>
      <trkpt lat="45.88798" lon="3.04252">
        <ele>493.6</ele>
        <time>2024-07-26T12:00:40Z</time>
      </trkpt>
      <trkpt lat="45.88797" lon="3.04251">
        <ele>492.9</ele>
        <time>2024-07-26T12:00:41Z</time>
      </trkpt>
      <trkpt lat="45.88797" lon="3.0425">
        <ele>496.1</ele>
        <time>2024-07-26T12:00:42Z</time>
      </trkpt>
      <trkpt lat="45.88798" lon="3.04249">
        <ele>498.1</ele>
        <time>2024-07-26T12:00:45Z</time>
      </trkpt>
      <trkpt lat="45.88798" lon="3.04247">
        <ele>497.9</ele>
        <time>2024-07-26T12:00:47Z</time>
      </trkpt>
      <trkpt lat="45.88798" lon="3.04246">
        <ele>495.9</ele>
        <time>2024-07-26T12:00:49Z</time>
      </trkpt>
      <trkpt lat="45.88797" lon="3.04245">
        <ele>494.5</ele>
        <time>2024-07-26T12:00:51Z</time>
      </trkpt>
      <trkpt lat="45.88796" lon="3.04244">
        <ele>494.6</ele>
        <time>2024-07-26T12:00:52Z</time>
      </trkpt>
      <trkpt lat="45.88796" lon="3.04243">
        <ele>494.4</ele>
        <time>2024-07-26T12:00:57Z</time>
      </trkpt>
      <trkpt lat="45.88796" lon="3.04241">
        <ele>492.6</ele>
        <time>2024-07-26T12:01:00Z</time>
      </trkpt>
      <trkpt lat="45.88796" lon="3.04238">
        <ele>490.7</ele>
        <time>2024-07-26T12:01:02Z</time>
      </trkpt>
      <trkpt lat="45.88796" lon="3.04236">
        <ele>490.9</ele>
        <time>2024-07-26T12:01:03Z</time>
      </trkpt>
      <trkpt lat="45.88797" lon="3.04235">
        <ele>491.2</ele>
        <time>2024-07-26T12:01:04Z</time>
      </trkpt>
      <trkpt lat="45.88796" lon="3.04233">
        <ele>491.6</ele>
        <time>2024-07-26T12:01:06Z</time>
      </trkpt>
      <trkpt lat="45.88795" lon="3.04232">
        <ele>491.2</ele>
        <time>2024-07-26T12:01:07Z</time>
      </trkpt>
      <trkpt lat="45.88794" lon="3.0423">
        <ele>489.8</ele>
        <time>2024-07-26T12:01:08Z</time>
      </trkpt>
      <trkpt lat="45.88793" lon="3.04228">
        <ele>489.7</ele>
        <time>2024-07-26T12:01:09Z</time>
      </trkpt>
      <trkpt lat="45.88792" lon="3.04227">
        <ele>489.1</ele>
        <time>2024-07-26T12:01:11Z</time>
      </trkpt>
      <trkpt lat="45.88792" lon="3.04226">
        <ele>488.3</ele>
        <time>2024-07-26T12:01:14Z</time>
      </trkpt>
      <trkpt lat="45.88791" lon="3.04225">
        <ele>488.3</ele>
        <time>2024-07-26T12:01:17Z</time>
      </trkpt>
      <trkpt lat="45.88791" lon="3.04223">
        <ele>486.3</ele>
        <time>2024-07-26T12:01:20Z</time>
      </trkpt>
      <trkpt lat="45.88792" lon="3.04222">
        <ele>486.3</ele>
        <time>2024-07-26T12:01:21Z</time>
      </trkpt>
      <trkpt lat="45.88793" lon="3.04221">
        <ele>485.6</ele>
        <time>2024-07-26T12:01:22Z</time>
      </trkpt>
      <trkpt lat="45.88793" lon="3.0422">
        <ele>485.1</ele>
        <time>2024-07-26T12:01:23Z</time>
      </trkpt>
      <trkpt lat="45.88793" lon="3.04218">
        <ele>482.4</ele>
        <time>2024-07-26T12:01:25Z</time>
      </trkpt>
      <trkpt lat="45.88791" lon="3.04217">
        <ele>483.4</ele>
        <time>2024-07-26T12:01:27Z</time>
      </trkpt>
      <trkpt lat="45.88789" lon="3.04215">
        <ele>482.7</ele>
        <time>2024-07-26T12:01:29Z</time>
      </trkpt>
      <trkpt lat="45.88788" lon="3.04215">
        <ele>482.6</ele>
        <time>2024-07-26T12:01:30Z</time>
      </trkpt>
      <trkpt lat="45.88787" lon="3.04214">
        <ele>482.2</ele>
        <time>2024-07-26T12:01:31Z</time>
      </trkpt>
      <trkpt lat="45.88786" lon="3.04214">
        <ele>481.3</ele>
        <time>2024-07-26T12:01:32Z</time>
      </trkpt>
      <trkpt lat="45.88785" lon="3.04212">
        <ele>482.8</ele>
        <time>2024-07-26T12:01:34Z</time>
      </trkpt>
      <trkpt lat="45.88785" lon="3.04211">
        <ele>484.3</ele>
        <time>2024-07-26T12:01:39Z</time>
      </trkpt>
      <trkpt lat="45.88785" lon="3.04208">
        <ele>484.8</ele>
        <time>2024-07-26T12:01:41Z</time>
      </trkpt>
      <trkpt lat="45.88785" lon="3.04207">
        <ele>485.5</ele>
        <time>2024-07-26T12:01:42Z</time>
      </trkpt>
      <trkpt lat="45.88784" lon="3.04205">
        <ele>485.3</ele>
        <time>2024-07-26T12:01:43Z</time>
      </trkpt>
      <trkpt lat="45.88785" lon="3.04203">
        <ele>485.6</ele>
        <time>2024-07-26T12:01:44Z</time>
      </trkpt>
      <trkpt lat="45.88785" lon="3.04202">
        <ele>485.5</ele>
        <time>2024-07-26T12:01:45Z</time>
      </trkpt>
      <trkpt lat="45.88785" lon="3.042">
        <ele>485.8</ele>
        <time>2024-07-26T12:01:46Z</time>
      </trkpt>
      <trkpt lat="45.88784" lon="3.04198">
        <ele>486.2</ele>
        <time>2024-07-26T12:01:47Z</time>
      </trkpt>
      <trkpt lat="45.88784" lon="3.04197">
        <ele>486.9</ele>
        <time>2024-07-26T12:01:48Z</time>
      </trkpt>
      <trkpt lat="45.88783" lon="3.04196">
        <ele>486.8</ele>
        <time>2024-07-26T12:01:49Z</time>
      </trkpt>
      <trkpt lat="45.88783" lon="3.04194">
        <ele>486.5</ele>
        <time>2024-07-26T12:01:50Z</time>
      </trkpt>
      <trkpt lat="45.88782" lon="3.04192">
        <ele>488.5</ele>
        <time>2024-07-26T12:01:52Z</time>
      </trkpt>
      <trkpt lat="45.8878" lon="3.04191">
        <ele>488.1</ele>
        <time>2024-07-26T12:01:54Z</time>
      </trkpt>
      <trkpt lat="45.88779" lon="3.04191">
        <ele>486.9</ele>
        <time>2024-07-26T12:01:56Z</time>
      </trkpt>
      <trkpt lat="45.88778" lon="3.04191">
        <ele>487.9</ele>
        <time>2024-07-26T12:02:00Z</time>
      </trkpt>
      <trkpt lat="45.88778" lon="3.04189">
        <ele>488.8</ele>
        <time>2024-07-26T12:02:01Z</time>
      </trkpt>
      <trkpt lat="45.88778" lon="3.04188">
        <ele>487.9</ele>
        <time>2024-07-26T12:02:02Z</time>
      </trkpt>
      <trkpt lat="45.88778" lon="3.04187">
        <ele>488.5</ele>
        <time>2024-07-26T12:02:04Z</time>
      </trkpt>
      <trkpt lat="45.8878" lon="3.04185">
        <ele>489.9</ele>
        <time>2024-07-26T12:02:06Z</time>
      </trkpt>
      <trkpt lat="45.88781" lon="3.04184">
        <ele>489.9</ele>
        <time>2024-07-26T12:02:08Z</time>
      </trkpt>
      <trkpt lat="45.88781" lon="3.04182">
        <ele>488.7</ele>
        <time>2024-07-26T12:02:10Z</time>
      </trkpt>
      <trkpt lat="45.88781" lon="3.0418">
        <ele>490</ele>
        <time>2024-07-26T12:02:12Z</time>
      </trkpt>
      <trkpt lat="45.8878" lon="3.0418">
        <ele>489</ele>
        <time>2024-07-26T12:02:13Z</time>
      </trkpt>
      <trkpt lat="45.88779" lon="3.04179">
        <ele>488.3</ele>
        <time>2024-07-26T12:02:14Z</time>
      </trkpt>
      <trkpt lat="45.88778" lon="3.04177">
        <ele>487.3</ele>
        <time>2024-07-26T12:02:15Z</time>
      </trkpt>
      <trkpt lat="45.88778" lon="3.04176">
        <ele>488.4</ele>
        <time>2024-07-26T12:02:16Z</time>
      </trkpt>
      <trkpt lat="45.88778" lon="3.04174">
        <ele>488.2</ele>
        <time>2024-07-26T12:02:17Z</time>
      </trkpt>
      <trkpt lat="45.88779" lon="3.04172">
        <ele>487.1</ele>
        <time>2024-07-26T12:02:19Z</time>
      </trkpt>
      <trkpt lat="45.8878" lon="3.04171">
        <ele>489.4</ele>
        <time>2024-07-26T12:02:21Z</time>
      </trkpt>
      <trkpt lat="45.88779" lon="3.04169">
        <ele>487.4</ele>
        <time>2024-07-26T12:02:23Z</time>
      </trkpt>
      <trkpt lat="45.88777" lon="3.04168">
        <ele>487.6</ele>
        <time>2024-07-26T12:02:25Z</time>
      </trkpt>
      <trkpt lat="45.88776" lon="3.04168">
        <ele>488.2</ele>
        <time>2024-07-26T12:02:26Z</time>
      </trkpt>
      <trkpt lat="45.88775" lon="3.04168">
        <ele>488.3</ele>
        <time>2024-07-26T12:02:27Z</time>
      </trkpt>
      <trkpt lat="45.88774" lon="3.04168">
        <ele>488.9</ele>
        <time>2024-07-26T12:02:29Z</time>
      </trkpt>
      <trkpt lat="45.88773" lon="3.04167">
        <ele>489.5</ele>
        <time>2024-07-26T12:02:30Z</time>
      </trkpt>
      <trkpt lat="45.88772" lon="3.04165">
        <ele>489.2</ele>
        <time>2024-07-26T12:02:31Z</time>
      </trkpt>
      <trkpt lat="45.88772" lon="3.04163">
        <ele>494.4</ele>
        <time>2024-07-26T12:02:34Z</time>
      </trkpt>
      <trkpt lat="45.88772" lon="3.04161">
        <ele>492.9</ele>
        <time>2024-07-26T12:02:36Z</time>
      </trkpt>
      <trkpt lat="45.88772" lon="3.04159">
        <ele>491.5</ele>
        <time>2024-07-26T12:02:37Z</time>
      </trkpt>
      <trkpt lat="45.88772" lon="3.04158">
        <ele>491.3</ele>
        <time>2024-07-26T12:02:38Z</time>
      </trkpt>
      <trkpt lat="45.88773" lon="3.04156">
        <ele>491.1</ele>
        <time>2024-07-26T12:02:39Z</time>
      </trkpt>
      <trkpt lat="45.88772" lon="3.04154">
        <ele>490.5</ele>
        <time>2024-07-26T12:02:40Z</time>
      </trkpt>
      <trkpt lat="45.88772" lon="3.04152">
        <ele>491.9</ele>
        <time>2024-07-26T12:02:41Z</time>
      </trkpt>
      <trkpt lat="45.88772" lon="3.04151">
        <ele>491.7</ele>
        <time>2024-07-26T12:02:42Z</time>
      </trkpt>
      <trkpt lat="45.88772" lon="3.04149">
        <ele>492</ele>
        <time>2024-07-26T12:02:44Z</time>
      </trkpt>
      <trkpt lat="45.88772" lon="3.04147">
        <ele>492.2</ele>
        <time>2024-07-26T12:02:46Z</time>
      </trkpt>
      <trkpt lat="45.88772" lon="3.04146">
        <ele>493.4</ele>
        <time>2024-07-26T12:02:48Z</time>
      </trkpt>
      <trkpt lat="45.88771" lon="3.04144">
        <ele>493.5</ele>
        <time>2024-07-26T12:02:50Z</time>
      </trkpt>
      <trkpt lat="45.88771" lon="3.04143">
        <ele>493.2</ele>
        <time>2024-07-26T12:02:52Z</time>
      </trkpt>
      <trkpt lat="45.88771" lon="3.04142">
        <ele>492.9</ele>
        <time>2024-07-26T12:02:57Z</time>
      </trkpt>
      <trkpt lat="45.8877" lon="3.04142">
        <ele>493.8</ele>
        <time>2024-07-26T12:03:03Z</time>
      </trkpt>
      <trkpt lat="45.8877" lon="3.0414">
        <ele>494.9</ele>
        <time>2024-07-26T12:03:17Z</time>
      </trkpt>
      <trkpt lat="45.88771" lon="3.04139">
        <ele>492.8</ele>
        <time>2024-07-26T12:03:23Z</time>
      </trkpt>
      <trkpt lat="45.88773" lon="3.0414">
        <ele>494.5</ele>
        <time>2024-07-26T12:03:25Z</time>
      </trkpt>
      <trkpt lat="45.88775" lon="3.04141">
        <ele>494.6</ele>
        <time>2024-07-26T12:03:27Z</time>
      </trkpt>
      <trkpt lat="45.88775" lon="3.0414">
        <ele>493.2</ele>
        <time>2024-07-26T12:03:37Z</time>
      </trkpt>
      <trkpt lat="45.88774" lon="3.04139">
        <ele>493.2</ele>
        <time>2024-07-26T12:03:38Z</time>
      </trkpt>
      <trkpt lat="45.88773" lon="3.04137">
        <ele>493.6</ele>
        <time>2024-07-26T12:03:39Z</time>
      </trkpt>
      <trkpt lat="45.88772" lon="3.04136">
        <ele>494.5</ele>
        <time>2024-07-26T12:03:40Z</time>
      </trkpt>
      <trkpt lat="45.8877" lon="3.04135">
        <ele>493</ele>
        <time>2024-07-26T12:03:41Z</time>
      </trkpt>
      <trkpt lat="45.88768" lon="3.04135">
        <ele>493.1</ele>
        <time>2024-07-26T12:03:42Z</time>
      </trkpt>
      <trkpt lat="45.88767" lon="3.04134">
        <ele>494</ele>
        <time>2024-07-26T12:03:43Z</time>
      </trkpt>
      <trkpt lat="45.88766" lon="3.04135">
        <ele>492.9</ele>
        <time>2024-07-26T12:03:44Z</time>
      </trkpt>
      <trkpt lat="45.88765" lon="3.04134">
        <ele>498.6</ele>
        <time>2024-07-26T12:03:48Z</time>
      </trkpt>
      <trkpt lat="45.88766" lon="3.04133">
        <ele>497.9</ele>
        <time>2024-07-26T12:03:50Z</time>
      </trkpt>
      <trkpt lat="45.88768" lon="3.04133">
        <ele>499.3</ele>
        <time>2024-07-26T12:03:51Z</time>
      </trkpt>
      <trkpt lat="45.88768" lon="3.04131">
        <ele>496.5</ele>
        <time>2024-07-26T12:03:52Z</time>
      </trkpt>
      <trkpt lat="45.88769" lon="3.04129">
        <ele>496.9</ele>
        <time>2024-07-26T12:03:53Z</time>
      </trkpt>
      <trkpt lat="45.88769" lon="3.04127">
        <ele>496.7</ele>
        <time>2024-07-26T12:03:54Z</time>
      </trkpt>
      <trkpt lat="45.88769" lon="3.04126">
        <ele>495.4</ele>
        <time>2024-07-26T12:03:55Z</time>
      </trkpt>
      <trkpt lat="45.88769" lon="3.04125">
        <ele>497.3</ele>
        <time>2024-07-26T12:03:56Z</time>
      </trkpt>
      <trkpt lat="45.88769" lon="3.04123">
        <ele>498.1</ele>
        <time>2024-07-26T12:03:57Z</time>
      </trkpt>
      <trkpt lat="45.8877" lon="3.04122">
        <ele>496</ele>
        <time>2024-07-26T12:04:00Z</time>
      </trkpt>
      <trkpt lat="45.88772" lon="3.04122">
        <ele>493.4</ele>
        <time>2024-07-26T12:04:01Z</time>
      </trkpt>
      <trkpt lat="45.88771" lon="3.04121">
        <ele>491.8</ele>
        <time>2024-07-26T12:04:04Z</time>
      </trkpt>
      <trkpt lat="45.8877" lon="3.0412">
        <ele>490.6</ele>
        <time>2024-07-26T12:04:05Z</time>
      </trkpt>
      <trkpt lat="45.88769" lon="3.04119">
        <ele>486.9</ele>
        <time>2024-07-26T12:04:06Z</time>
      </trkpt>
      <trkpt lat="45.88768" lon="3.04118">
        <ele>486.4</ele>
        <time>2024-07-26T12:04:07Z</time>
      </trkpt>
      <trkpt lat="45.88767" lon="3.04117">
        <ele>485.8</ele>
        <time>2024-07-26T12:04:08Z</time>
      </trkpt>
      <trkpt lat="45.88766" lon="3.04116">
        <ele>484.6</ele>
        <time>2024-07-26T12:04:09Z</time>
      </trkpt>
      <trkpt lat="45.88764" lon="3.04114">
        <ele>484.9</ele>
        <time>2024-07-26T12:04:11Z</time>
      </trkpt>
      <trkpt lat="45.88764" lon="3.04112">
        <ele>484.7</ele>
        <time>2024-07-26T12:04:13Z</time>
      </trkpt>
      <trkpt lat="45.88764" lon="3.04111">
        <ele>483.3</ele>
        <time>2024-07-26T12:04:18Z</time>
      </trkpt>
      <trkpt lat="45.88765" lon="3.0411">
        <ele>485.2</ele>
        <time>2024-07-26T12:04:21Z</time>
      </trkpt>
      <trkpt lat="45.88766" lon="3.04111">
        <ele>485.8</ele>
        <time>2024-07-26T12:04:22Z</time>
      </trkpt>
      <trkpt lat="45.88767" lon="3.04112">
        <ele>486.8</ele>
        <time>2024-07-26T12:04:24Z</time>
      </trkpt>
      <trkpt lat="45.88768" lon="3.04113">
        <ele>486.7</ele>
        <time>2024-07-26T12:04:25Z</time>
      </trkpt>
      <trkpt lat="45.88769" lon="3.04113">
        <ele>487.8</ele>
        <time>2024-07-26T12:04:27Z</time>
      </trkpt>
      <trkpt lat="45.8877" lon="3.04113">
        <ele>487.5</ele>
        <time>2024-07-26T12:04:29Z</time>
      </trkpt>
      <trkpt lat="45.88771" lon="3.04112">
        <ele>488</ele>
        <time>2024-07-26T12:04:33Z</time>
      </trkpt>
      <trkpt lat="45.88771" lon="3.0411">
        <ele>490.3</ele>
        <time>2024-07-26T12:04:39Z</time>
      </trkpt>
      <trkpt lat="45.88771" lon="3.04112">
        <ele>496.1</ele>
        <time>2024-07-26T12:04:44Z</time>
      </trkpt>
      <trkpt lat="45.8877" lon="3.0411">
        <ele>496.1</ele>
        <time>2024-07-26T12:04:45Z</time>
      </trkpt>
      <trkpt lat="45.88769" lon="3.04109">
        <ele>496.1</ele>
        <time>2024-07-26T12:04:47Z</time>
      </trkpt>
      <trkpt lat="45.8877" lon="3.04107">
        <ele>493.8</ele>
        <time>2024-07-26T12:04:49Z</time>
      </trkpt>
      <trkpt lat="45.8877" lon="3.04105">
        <ele>494.5</ele>
        <time>2024-07-26T12:04:51Z</time>
      </trkpt>
      <trkpt lat="45.88769" lon="3.04103">
        <ele>494.2</ele>
        <time>2024-07-26T12:04:52Z</time>
      </trkpt>
      <trkpt lat="45.88766" lon="3.04098">
        <ele>493.5</ele>
        <time>2024-07-26T12:04:53Z</time>
      </trkpt>
      <trkpt lat="45.88765" lon="3.04096">
        <ele>495.1</ele>
        <time>2024-07-26T12:04:54Z</time>
      </trkpt>
      <trkpt lat="45.88764" lon="3.04094">
        <ele>495.4</ele>
        <time>2024-07-26T12:04:55Z</time>
      </trkpt>
      <trkpt lat="45.88763" lon="3.04093">
        <ele>494.9</ele>
        <time>2024-07-26T12:04:57Z</time>
      </trkpt>
      <trkpt lat="45.88761" lon="3.04094">
        <ele>494.2</ele>
        <time>2024-07-26T12:04:58Z</time>
      </trkpt>
      <trkpt lat="45.8876" lon="3.04096">
        <ele>494.2</ele>
        <time>2024-07-26T12:04:59Z</time>
      </trkpt>
      <trkpt lat="45.88758" lon="3.04096">
        <ele>494.1</ele>
        <time>2024-07-26T12:05:01Z</time>
      </trkpt>
      <trkpt lat="45.88757" lon="3.04097">
        <ele>494.4</ele>
        <time>2024-07-26T12:05:02Z</time>
      </trkpt>
      <trkpt lat="45.88756" lon="3.04098">
        <ele>493.9</ele>
        <time>2024-07-26T12:05:03Z</time>
      </trkpt>
      <trkpt lat="45.88754" lon="3.04098">
        <ele>493.7</ele>
        <time>2024-07-26T12:05:05Z</time>
      </trkpt>
      <trkpt lat="45.88754" lon="3.04097">
        <ele>494.6</ele>
        <time>2024-07-26T12:05:07Z</time>
      </trkpt>
      <trkpt lat="45.88754" lon="3.04095">
        <ele>497.6</ele>
        <time>2024-07-26T12:05:11Z</time>
      </trkpt>
      <trkpt lat="45.88754" lon="3.04094">
        <ele>496.6</ele>
        <time>2024-07-26T12:05:12Z</time>
      </trkpt>
      <trkpt lat="45.88755" lon="3.04093">
        <ele>498.1</ele>
        <time>2024-07-26T12:05:14Z</time>
      </trkpt>
      <trkpt lat="45.88755" lon="3.04092">
        <ele>497.5</ele>
        <time>2024-07-26T12:05:16Z</time>
      </trkpt>
      <trkpt lat="45.88756" lon="3.04092">
        <ele>495.1</ele>
        <time>2024-07-26T12:05:24Z</time>
      </trkpt>
      <trkpt lat="45.88758" lon="3.04092">
        <ele>499.7</ele>
        <time>2024-07-26T12:05:26Z</time>
      </trkpt>
      <trkpt lat="45.88759" lon="3.04089">
        <ele>497.4</ele>
        <time>2024-07-26T12:05:29Z</time>
      </trkpt>
      <trkpt lat="45.88758" lon="3.04087">
        <ele>496</ele>
        <time>2024-07-26T12:05:31Z</time>
      </trkpt>
      <trkpt lat="45.88757" lon="3.04085">
        <ele>495.5</ele>
        <time>2024-07-26T12:05:33Z</time>
      </trkpt>
      <trkpt lat="45.88757" lon="3.04084">
        <ele>494.6</ele>
        <time>2024-07-26T12:05:34Z</time>
      </trkpt>
      <trkpt lat="45.88756" lon="3.04084">
        <ele>493.3</ele>
        <time>2024-07-26T12:05:36Z</time>
      </trkpt>
      <trkpt lat="45.88755" lon="3.04083">
        <ele>494.4</ele>
        <time>2024-07-26T12:05:38Z</time>
      </trkpt>
      <trkpt lat="45.88755" lon="3.04081">
        <ele>499.6</ele>
        <time>2024-07-26T12:05:46Z</time>
      </trkpt>
      <trkpt lat="45.88756" lon="3.0408">
        <ele>497.7</ele>
        <time>2024-07-26T12:05:47Z</time>
      </trkpt>
      <trkpt lat="45.88757" lon="3.04079">
        <ele>497.5</ele>
        <time>2024-07-26T12:05:48Z</time>
      </trkpt>
      <trkpt lat="45.88758" lon="3.04078">
        <ele>497.4</ele>
        <time>2024-07-26T12:05:49Z</time>
      </trkpt>
      <trkpt lat="45.8876" lon="3.04078">
        <ele>502</ele>
        <time>2024-07-26T12:05:50Z</time>
      </trkpt>
      <trkpt lat="45.88761" lon="3.04077">
        <ele>502</ele>
        <time>2024-07-26T12:05:51Z</time>
      </trkpt>
      <trkpt lat="45.88763" lon="3.04078">
        <ele>501.6</ele>
        <time>2024-07-26T12:05:52Z</time>
      </trkpt>
      <trkpt lat="45.88764" lon="3.04078">
        <ele>501.1</ele>
        <time>2024-07-26T12:05:53Z</time>
      </trkpt>
      <trkpt lat="45.88765" lon="3.04079">
        <ele>499.7</ele>
        <time>2024-07-26T12:05:55Z</time>
      </trkpt>
      <trkpt lat="45.88767" lon="3.04078">
        <ele>499.4</ele>
        <time>2024-07-26T12:05:57Z</time>
      </trkpt>
      <trkpt lat="45.88768" lon="3.04078">
        <ele>499.2</ele>
        <time>2024-07-26T12:05:59Z</time>
      </trkpt>
      <trkpt lat="45.88769" lon="3.04078">
        <ele>500</ele>
        <time>2024-07-26T12:06:02Z</time>
      </trkpt>
      <trkpt lat="45.8877" lon="3.04076">
        <ele>497.7</ele>
        <time>2024-07-26T12:06:04Z</time>
      </trkpt>
      <trkpt lat="45.8877" lon="3.04074">
        <ele>496.1</ele>
        <time>2024-07-26T12:06:05Z</time>
      </trkpt>
      <trkpt lat="45.8877" lon="3.04073">
        <ele>496.4</ele>
        <time>2024-07-26T12:06:06Z</time>
      </trkpt>
      <trkpt lat="45.88769" lon="3.04071">
        <ele>495.5</ele>
        <time>2024-07-26T12:06:07Z</time>
      </trkpt>
      <trkpt lat="45.88768" lon="3.0407">
        <ele>497</ele>
        <time>2024-07-26T12:06:08Z</time>
      </trkpt>
      <trkpt lat="45.88768" lon="3.04068">
        <ele>497.1</ele>
        <time>2024-07-26T12:06:09Z</time>
      </trkpt>
      <trkpt lat="45.88767" lon="3.04066">
        <ele>498.2</ele>
        <time>2024-07-26T12:06:10Z</time>
      </trkpt>
      <trkpt lat="45.88767" lon="3.04065">
        <ele>497.9</ele>
        <time>2024-07-26T12:06:11Z</time>
      </trkpt>
      <trkpt lat="45.88767" lon="3.04062">
        <ele>499</ele>
        <time>2024-07-26T12:06:13Z</time>
      </trkpt>
      <trkpt lat="45.88768" lon="3.04061">
        <ele>499.3</ele>
        <time>2024-07-26T12:06:14Z</time>
      </trkpt>
      <trkpt lat="45.88768" lon="3.04059">
        <ele>497.5</ele>
        <time>2024-07-26T12:06:15Z</time>
      </trkpt>
      <trkpt lat="45.88769" lon="3.04058">
        <ele>496.8</ele>
        <time>2024-07-26T12:06:16Z</time>
      </trkpt>
      <trkpt lat="45.88769" lon="3.04056">
        <ele>496.5</ele>
        <time>2024-07-26T12:06:17Z</time>
      </trkpt>
      <trkpt lat="45.8877" lon="3.04054">
        <ele>495.6</ele>
        <time>2024-07-26T12:06:19Z</time>
      </trkpt>
      <trkpt lat="45.88771" lon="3.04052">
        <ele>495.3</ele>
        <time>2024-07-26T12:06:21Z</time>
      </trkpt>
      <trkpt lat="45.88773" lon="3.04052">
        <ele>497.7</ele>
        <time>2024-07-26T12:06:23Z</time>
      </trkpt>
      <trkpt lat="45.88774" lon="3.04052">
        <ele>497.4</ele>
        <time>2024-07-26T12:06:24Z</time>
      </trkpt>
      <trkpt lat="45.88775" lon="3.04052">
        <ele>497.4</ele>
        <time>2024-07-26T12:06:25Z</time>
      </trkpt>
      <trkpt lat="45.88775" lon="3.0405">
        <ele>500.7</ele>
        <time>2024-07-26T12:06:27Z</time>
      </trkpt>
      <trkpt lat="45.88775" lon="3.04049">
        <ele>500.1</ele>
        <time>2024-07-26T12:06:28Z</time>
      </trkpt>
      <trkpt lat="45.88775" lon="3.04047">
        <ele>499.9</ele>
        <time>2024-07-26T12:06:29Z</time>
      </trkpt>
      <trkpt lat="45.88775" lon="3.04046">
        <ele>497.1</ele>
        <time>2024-07-26T12:06:30Z</time>
      </trkpt>
      <trkpt lat="45.88775" lon="3.04044">
        <ele>496.7</ele>
        <time>2024-07-26T12:06:31Z</time>
      </trkpt>
      <trkpt lat="45.88776" lon="3.04043">
        <ele>496.3</ele>
        <time>2024-07-26T12:06:32Z</time>
      </trkpt>
      <trkpt lat="45.88778" lon="3.04043">
        <ele>490.5</ele>
        <time>2024-07-26T12:06:35Z</time>
      </trkpt>
      <trkpt lat="45.8878" lon="3.04044">
        <ele>489.7</ele>
        <time>2024-07-26T12:06:37Z</time>
      </trkpt>
      <trkpt lat="45.88781" lon="3.04045">
        <ele>490.9</ele>
        <time>2024-07-26T12:06:38Z</time>
      </trkpt>
      <trkpt lat="45.88782" lon="3.04045">
        <ele>491.1</ele>
        <time>2024-07-26T12:06:39Z</time>
      </trkpt>
      <trkpt lat="45.88783" lon="3.04045">
        <ele>492.6</ele>
        <time>2024-07-26T12:06:41Z</time>
      </trkpt>
      <trkpt lat="45.88785" lon="3.04045">
        <ele>491.7</ele>
        <time>2024-07-26T12:06:43Z</time>
      </trkpt>
      <trkpt lat="45.88787" lon="3.04045">
        <ele>494.6</ele>
        <time>2024-07-26T12:06:45Z</time>
      </trkpt>
      <trkpt lat="45.88788" lon="3.04044">
        <ele>496.1</ele>
        <time>2024-07-26T12:06:47Z</time>
      </trkpt>
      <trkpt lat="45.88789" lon="3.04044">
        <ele>498.3</ele>
        <time>2024-07-26T12:06:50Z</time>
      </trkpt>
      <trkpt lat="45.8879" lon="3.04044">
        <ele>498.5</ele>
        <time>2024-07-26T12:06:51Z</time>
      </trkpt>
      <trkpt lat="45.88791" lon="3.04043">
        <ele>497</ele>
        <time>2024-07-26T12:06:52Z</time>
      </trkpt>
      <trkpt lat="45.88792" lon="3.04042">
        <ele>497.2</ele>
        <time>2024-07-26T12:06:53Z</time>
      </trkpt>
      <trkpt lat="45.88793" lon="3.0404">
        <ele>497.9</ele>
        <time>2024-07-26T12:06:54Z</time>
      </trkpt>
      <trkpt lat="45.88794" lon="3.04039">
        <ele>499.5</ele>
        <time>2024-07-26T12:06:55Z</time>
      </trkpt>
      <trkpt lat="45.88796" lon="3.04038">
        <ele>499.7</ele>
        <time>2024-07-26T12:06:56Z</time>
      </trkpt>
      <trkpt lat="45.88797" lon="3.04038">
        <ele>498.8</ele>
        <time>2024-07-26T12:06:57Z</time>
      </trkpt>
      <trkpt lat="45.88798" lon="3.04038">
        <ele>498.4</ele>
        <time>2024-07-26T12:06:58Z</time>
      </trkpt>
      <trkpt lat="45.88797" lon="3.04035">
        <ele>499.1</ele>
        <time>2024-07-26T12:07:00Z</time>
      </trkpt>
      <trkpt lat="45.88797" lon="3.04033">
        <ele>499.8</ele>
        <time>2024-07-26T12:07:01Z</time>
      </trkpt>
      <trkpt lat="45.88796" lon="3.0403">
        <ele>499.4</ele>
        <time>2024-07-26T12:07:02Z</time>
      </trkpt>
      <trkpt lat="45.88795" lon="3.04029">
        <ele>500.5</ele>
        <time>2024-07-26T12:07:03Z</time>
      </trkpt>
      <trkpt lat="45.88795" lon="3.04026">
        <ele>498.3</ele>
        <time>2024-07-26T12:07:04Z</time>
      </trkpt>
      <trkpt lat="45.88794" lon="3.04024">
        <ele>496.8</ele>
        <time>2024-07-26T12:07:05Z</time>
      </trkpt>
      <trkpt lat="45.88793" lon="3.04022">
        <ele>496.2</ele>
        <time>2024-07-26T12:07:06Z</time>
      </trkpt>
      <trkpt lat="45.88792" lon="3.04019">
        <ele>496.6</ele>
        <time>2024-07-26T12:07:07Z</time>
      </trkpt>
      <trkpt lat="45.88791" lon="3.04018">
        <ele>497.8</ele>
        <time>2024-07-26T12:07:08Z</time>
      </trkpt>
      <trkpt lat="45.88791" lon="3.04015">
        <ele>497.2</ele>
        <time>2024-07-26T12:07:09Z</time>
      </trkpt>
      <trkpt lat="45.8879" lon="3.04013">
        <ele>498.4</ele>
        <time>2024-07-26T12:07:10Z</time>
      </trkpt>
      <trkpt lat="45.88789" lon="3.04011">
        <ele>500</ele>
        <time>2024-07-26T12:07:11Z</time>
      </trkpt>
      <trkpt lat="45.88789" lon="3.04009">
        <ele>500</ele>
        <time>2024-07-26T12:07:12Z</time>
      </trkpt>
      <trkpt lat="45.88788" lon="3.04008">
        <ele>499.7</ele>
        <time>2024-07-26T12:07:13Z</time>
      </trkpt>
      <trkpt lat="45.88788" lon="3.04006">
        <ele>498.9</ele>
        <time>2024-07-26T12:07:14Z</time>
      </trkpt>
      <trkpt lat="45.88787" lon="3.04004">
        <ele>498.7</ele>
        <time>2024-07-26T12:07:15Z</time>
      </trkpt>
      <trkpt lat="45.88787" lon="3.04003">
        <ele>499.4</ele>
        <time>2024-07-26T12:07:16Z</time>
      </trkpt>
      <trkpt lat="45.88788" lon="3.04001">
        <ele>499</ele>
        <time>2024-07-26T12:07:17Z</time>
      </trkpt>
      <trkpt lat="45.88788" lon="3.04">
        <ele>500.7</ele>
        <time>2024-07-26T12:07:18Z</time>
      </trkpt>
      <trkpt lat="45.88789" lon="3.03998">
        <ele>494.9</ele>
        <time>2024-07-26T12:07:20Z</time>
      </trkpt>
      <trkpt lat="45.88789" lon="3.03996">
        <ele>497.1</ele>
        <time>2024-07-26T12:07:21Z</time>
      </trkpt>
      <trkpt lat="45.8879" lon="3.03995">
        <ele>497.5</ele>
        <time>2024-07-26T12:07:22Z</time>
      </trkpt>
      <trkpt lat="45.88791" lon="3.03993">
        <ele>497.2</ele>
        <time>2024-07-26T12:07:23Z</time>
      </trkpt>
      <trkpt lat="45.88793" lon="3.03992">
        <ele>496.3</ele>
        <time>2024-07-26T12:07:24Z</time>
      </trkpt>
      <trkpt lat="45.88795" lon="3.03992">
        <ele>495.9</ele>
        <time>2024-07-26T12:07:25Z</time>
      </trkpt>
      <trkpt lat="45.88797" lon="3.03991">
        <ele>496.6</ele>
        <time>2024-07-26T12:07:26Z</time>
      </trkpt>
      <trkpt lat="45.88799" lon="3.03991">
        <ele>497</ele>
        <time>2024-07-26T12:07:27Z</time>
      </trkpt>
      <trkpt lat="45.888" lon="3.03992">
        <ele>498</ele>
        <time>2024-07-26T12:07:29Z</time>
      </trkpt>
      <trkpt lat="45.88802" lon="3.03992">
        <ele>497.6</ele>
        <time>2024-07-26T12:07:30Z</time>
      </trkpt>
      <trkpt lat="45.88804" lon="3.03993">
        <ele>496.8</ele>
        <time>2024-07-26T12:07:31Z</time>
      </trkpt>
      <trkpt lat="45.88805" lon="3.03994">
        <ele>496.4</ele>
        <time>2024-07-26T12:07:32Z</time>
      </trkpt>
      <trkpt lat="45.88806" lon="3.03994">
        <ele>495.6</ele>
        <time>2024-07-26T12:07:33Z</time>
      </trkpt>
      <trkpt lat="45.88808" lon="3.03994">
        <ele>494.7</ele>
        <time>2024-07-26T12:07:35Z</time>
      </trkpt>
      <trkpt lat="45.88808" lon="3.03992">
        <ele>493.4</ele>
        <time>2024-07-26T12:07:37Z</time>
      </trkpt>
      <trkpt lat="45.88807" lon="3.0399">
        <ele>493.6</ele>
        <time>2024-07-26T12:07:38Z</time>
      </trkpt>
      <trkpt lat="45.88806" lon="3.03987">
        <ele>493.8</ele>
        <time>2024-07-26T12:07:40Z</time>
      </trkpt>
      <trkpt lat="45.88805" lon="3.03985">
        <ele>492.9</ele>
        <time>2024-07-26T12:07:41Z</time>
      </trkpt>
      <trkpt lat="45.88804" lon="3.03981">
        <ele>492.5</ele>
        <time>2024-07-26T12:07:43Z</time>
      </trkpt>
      <trkpt lat="45.88803" lon="3.0398">
        <ele>493</ele>
        <time>2024-07-26T12:07:44Z</time>
      </trkpt>
      <trkpt lat="45.88801" lon="3.03976">
        <ele>492.5</ele>
        <time>2024-07-26T12:07:46Z</time>
      </trkpt>
      <trkpt lat="45.88799" lon="3.03974">
        <ele>493.3</ele>
        <time>2024-07-26T12:07:49Z</time>
      </trkpt>
      <trkpt lat="45.88799" lon="3.03972">
        <ele>494</ele>
        <time>2024-07-26T12:07:52Z</time>
      </trkpt>
      <trkpt lat="45.88798" lon="3.03971">
        <ele>493.2</ele>
        <time>2024-07-26T12:07:53Z</time>
      </trkpt>
      <trkpt lat="45.88797" lon="3.03969">
        <ele>491.8</ele>
        <time>2024-07-26T12:07:54Z</time>
      </trkpt>
      <trkpt lat="45.88798" lon="3.03966">
        <ele>490.6</ele>
        <time>2024-07-26T12:07:55Z</time>
      </trkpt>
      <trkpt lat="45.88799" lon="3.03966">
        <ele>489.2</ele>
        <time>2024-07-26T12:07:56Z</time>
      </trkpt>
      <trkpt lat="45.88801" lon="3.03966">
        <ele>489.2</ele>
        <time>2024-07-26T12:07:57Z</time>
      </trkpt>
      <trkpt lat="45.88802" lon="3.03967">
        <ele>489.9</ele>
        <time>2024-07-26T12:07:58Z</time>
      </trkpt>
      <trkpt lat="45.88804" lon="3.03969">
        <ele>491.2</ele>
        <time>2024-07-26T12:07:59Z</time>
      </trkpt>
      <trkpt lat="45.88805" lon="3.03971">
        <ele>491.3</ele>
        <time>2024-07-26T12:08:00Z</time>
      </trkpt>
      <trkpt lat="45.88805" lon="3.03973">
        <ele>491</ele>
        <time>2024-07-26T12:08:01Z</time>
      </trkpt>
      <trkpt lat="45.88806" lon="3.03976">
        <ele>493.4</ele>
        <time>2024-07-26T12:08:02Z</time>
      </trkpt>
      <trkpt lat="45.88807" lon="3.03978">
        <ele>494.2</ele>
        <time>2024-07-26T12:08:03Z</time>
      </trkpt>
      <trkpt lat="45.88808" lon="3.03979">
        <ele>497.2</ele>
        <time>2024-07-26T12:08:04Z</time>
      </trkpt>
      <trkpt lat="45.88809" lon="3.03982">
        <ele>498.7</ele>
        <time>2024-07-26T12:08:05Z</time>
      </trkpt>
      <trkpt lat="45.88809" lon="3.03983">
        <ele>496.7</ele>
        <time>2024-07-26T12:08:06Z</time>
      </trkpt>
      <trkpt lat="45.88811" lon="3.03983">
        <ele>494.3</ele>
        <time>2024-07-26T12:08:08Z</time>
      </trkpt>
      <trkpt lat="45.88812" lon="3.03981">
        <ele>493.3</ele>
        <time>2024-07-26T12:08:09Z</time>
      </trkpt>
      <trkpt lat="45.88813" lon="3.0398">
        <ele>494.4</ele>
        <time>2024-07-26T12:08:10Z</time>
      </trkpt>
      <trkpt lat="45.88814" lon="3.03979">
        <ele>496.5</ele>
        <time>2024-07-26T12:08:12Z</time>
      </trkpt>
      <trkpt lat="45.88815" lon="3.0398">
        <ele>496.9</ele>
        <time>2024-07-26T12:08:14Z</time>
      </trkpt>
      <trkpt lat="45.88814" lon="3.0398">
        <ele>496.8</ele>
        <time>2024-07-26T12:08:15Z</time>
      </trkpt>
      <trkpt lat="45.88813" lon="3.0398">
        <ele>499.1</ele>
        <time>2024-07-26T12:08:18Z</time>
      </trkpt>
      <trkpt lat="45.88814" lon="3.03979">
        <ele>499.8</ele>
        <time>2024-07-26T12:08:19Z</time>
      </trkpt>
      <trkpt lat="45.88814" lon="3.03978">
        <ele>499.5</ele>
        <time>2024-07-26T12:08:20Z</time>
      </trkpt>
      <trkpt lat="45.88814" lon="3.03976">
        <ele>499.8</ele>
        <time>2024-07-26T12:08:21Z</time>
      </trkpt>
      <trkpt lat="45.88813" lon="3.03975">
        <ele>500.1</ele>
        <time>2024-07-26T12:08:22Z</time>
      </trkpt>
      <trkpt lat="45.88814" lon="3.03974">
        <ele>500.2</ele>
        <time>2024-07-26T12:08:23Z</time>
      </trkpt>
      <trkpt lat="45.88814" lon="3.03972">
        <ele>499.4</ele>
        <time>2024-07-26T12:08:24Z</time>
      </trkpt>
      <trkpt lat="45.88815" lon="3.03971">
        <ele>499.8</ele>
        <time>2024-07-26T12:08:25Z</time>
      </trkpt>
      <trkpt lat="45.88816" lon="3.03969">
        <ele>501</ele>
        <time>2024-07-26T12:08:27Z</time>
      </trkpt>
      <trkpt lat="45.88816" lon="3.03967">
        <ele>499.5</ele>
        <time>2024-07-26T12:08:29Z</time>
      </trkpt>
      <trkpt lat="45.88817" lon="3.03966">
        <ele>499</ele>
        <time>2024-07-26T12:08:30Z</time>
      </trkpt>
      <trkpt lat="45.88818" lon="3.03964">
        <ele>498.6</ele>
        <time>2024-07-26T12:08:32Z</time>
      </trkpt>
      <trkpt lat="45.88818" lon="3.03962">
        <ele>499.7</ele>
        <time>2024-07-26T12:08:33Z</time>
      </trkpt>
      <trkpt lat="45.88817" lon="3.03961">
        <ele>499.4</ele>
        <time>2024-07-26T12:08:34Z</time>
      </trkpt>
      <trkpt lat="45.88816" lon="3.03959">
        <ele>499.8</ele>
        <time>2024-07-26T12:08:35Z</time>
      </trkpt>
      <trkpt lat="45.88817" lon="3.03958">
        <ele>503</ele>
        <time>2024-07-26T12:08:38Z</time>
      </trkpt>
      <trkpt lat="45.88818" lon="3.03959">
        <ele>504.8</ele>
        <time>2024-07-26T12:08:39Z</time>
      </trkpt>
      <trkpt lat="45.88819" lon="3.03959">
        <ele>504.7</ele>
        <time>2024-07-26T12:08:40Z</time>
      </trkpt>
      <trkpt lat="45.8882" lon="3.03958">
        <ele>505.1</ele>
        <time>2024-07-26T12:08:42Z</time>
      </trkpt>
      <trkpt lat="45.88821" lon="3.03959">
        <ele>504.1</ele>
        <time>2024-07-26T12:08:46Z</time>
      </trkpt>
      <trkpt lat="45.88823" lon="3.03961">
        <ele>505.8</ele>
        <time>2024-07-26T12:08:48Z</time>
      </trkpt>
      <trkpt lat="45.88823" lon="3.03962">
        <ele>505.8</ele>
        <time>2024-07-26T12:08:49Z</time>
      </trkpt>
      <trkpt lat="45.88824" lon="3.03963">
        <ele>507.7</ele>
        <time>2024-07-26T12:08:50Z</time>
      </trkpt>
      <trkpt lat="45.88825" lon="3.03963">
        <ele>506.4</ele>
        <time>2024-07-26T12:08:51Z</time>
      </trkpt>
      <trkpt lat="45.88827" lon="3.03964">
        <ele>506.4</ele>
        <time>2024-07-26T12:08:52Z</time>
      </trkpt>
      <trkpt lat="45.88828" lon="3.03965">
        <ele>506.7</ele>
        <time>2024-07-26T12:08:53Z</time>
      </trkpt>
      <trkpt lat="45.88831" lon="3.03966">
        <ele>507</ele>
        <time>2024-07-26T12:08:54Z</time>
      </trkpt>
      <trkpt lat="45.88833" lon="3.03967">
        <ele>506.3</ele>
        <time>2024-07-26T12:08:55Z</time>
      </trkpt>
      <trkpt lat="45.88835" lon="3.03967">
        <ele>503.6</ele>
        <time>2024-07-26T12:08:56Z</time>
      </trkpt>
      <trkpt lat="45.88835" lon="3.03964">
        <ele>502</ele>
        <time>2024-07-26T12:08:57Z</time>
      </trkpt>
      <trkpt lat="45.88835" lon="3.0396">
        <ele>502.1</ele>
        <time>2024-07-26T12:08:58Z</time>
      </trkpt>
      <trkpt lat="45.88835" lon="3.03957">
        <ele>505.3</ele>
        <time>2024-07-26T12:08:59Z</time>
      </trkpt>
      <trkpt lat="45.88836" lon="3.03954">
        <ele>503</ele>
        <time>2024-07-26T12:09:00Z</time>
      </trkpt>
      <trkpt lat="45.88835" lon="3.0395">
        <ele>504.7</ele>
        <time>2024-07-26T12:09:01Z</time>
      </trkpt>
      <trkpt lat="45.88833" lon="3.03946">
        <ele>502.8</ele>
        <time>2024-07-26T12:09:02Z</time>
      </trkpt>
      <trkpt lat="45.88832" lon="3.03942">
        <ele>504.5</ele>
        <time>2024-07-26T12:09:03Z</time>
      </trkpt>
      <trkpt lat="45.88831" lon="3.03939">
        <ele>500.9</ele>
        <time>2024-07-26T12:09:04Z</time>
      </trkpt>
      <trkpt lat="45.88831" lon="3.03936">
        <ele>500.4</ele>
        <time>2024-07-26T12:09:05Z</time>
      </trkpt>
      <trkpt lat="45.88831" lon="3.03934">
        <ele>499.7</ele>
        <time>2024-07-26T12:09:06Z</time>
      </trkpt>
      <trkpt lat="45.8883" lon="3.03931">
        <ele>501.5</ele>
        <time>2024-07-26T12:09:07Z</time>
      </trkpt>
      <trkpt lat="45.88829" lon="3.03928">
        <ele>501.3</ele>
        <time>2024-07-26T12:09:08Z</time>
      </trkpt>
      <trkpt lat="45.88828" lon="3.03926">
        <ele>499.9</ele>
        <time>2024-07-26T12:09:09Z</time>
      </trkpt>
      <trkpt lat="45.88826" lon="3.03924">
        <ele>502.6</ele>
        <time>2024-07-26T12:09:10Z</time>
      </trkpt>
      <trkpt lat="45.88825" lon="3.03921">
        <ele>503.8</ele>
        <time>2024-07-26T12:09:11Z</time>
      </trkpt>
      <trkpt lat="45.88824" lon="3.03919">
        <ele>504.4</ele>
        <time>2024-07-26T12:09:12Z</time>
      </trkpt>
      <trkpt lat="45.88823" lon="3.03918">
        <ele>506.6</ele>
        <time>2024-07-26T12:09:13Z</time>
      </trkpt>
      <trkpt lat="45.88822" lon="3.03917">
        <ele>507.1</ele>
        <time>2024-07-26T12:09:15Z</time>
      </trkpt>
      <trkpt lat="45.88823" lon="3.03915">
        <ele>508.2</ele>
        <time>2024-07-26T12:09:17Z</time>
      </trkpt>
      <trkpt lat="45.88824" lon="3.03915">
        <ele>509.1</ele>
        <time>2024-07-26T12:09:19Z</time>
      </trkpt>
      <trkpt lat="45.88825" lon="3.03914">
        <ele>509.2</ele>
        <time>2024-07-26T12:09:20Z</time>
      </trkpt>
      <trkpt lat="45.88825" lon="3.03913">
        <ele>509.8</ele>
        <time>2024-07-26T12:09:21Z</time>
      </trkpt>
      <trkpt lat="45.88826" lon="3.03913">
        <ele>511.4</ele>
        <time>2024-07-26T12:09:22Z</time>
      </trkpt>
      <trkpt lat="45.88828" lon="3.03913">
        <ele>509.3</ele>
        <time>2024-07-26T12:09:24Z</time>
      </trkpt>
      <trkpt lat="45.88829" lon="3.03914">
        <ele>509.1</ele>
        <time>2024-07-26T12:09:26Z</time>
      </trkpt>
      <trkpt lat="45.88831" lon="3.03915">
        <ele>508.6</ele>
        <time>2024-07-26T12:09:27Z</time>
      </trkpt>
      <trkpt lat="45.88832" lon="3.03916">
        <ele>510.9</ele>
        <time>2024-07-26T12:09:28Z</time>
      </trkpt>
      <trkpt lat="45.88833" lon="3.03917">
        <ele>510.1</ele>
        <time>2024-07-26T12:09:29Z</time>
      </trkpt>
      <trkpt lat="45.88834" lon="3.03918">
        <ele>509</ele>
        <time>2024-07-26T12:09:31Z</time>
      </trkpt>
      <trkpt lat="45.88836" lon="3.03918">
        <ele>509.3</ele>
        <time>2024-07-26T12:09:33Z</time>
      </trkpt>
      <trkpt lat="45.88837" lon="3.03919">
        <ele>509.8</ele>
        <time>2024-07-26T12:09:34Z</time>
      </trkpt>
      <trkpt lat="45.88838" lon="3.03919">
        <ele>507.8</ele>
        <time>2024-07-26T12:09:36Z</time>
      </trkpt>
      <trkpt lat="45.88839" lon="3.03919">
        <ele>507.8</ele>
        <time>2024-07-26T12:09:37Z</time>
      </trkpt>
      <trkpt lat="45.8884" lon="3.03919">
        <ele>506.7</ele>
        <time>2024-07-26T12:09:38Z</time>
      </trkpt>
      <trkpt lat="45.88841" lon="3.03918">
        <ele>504.5</ele>
        <time>2024-07-26T12:09:39Z</time>
      </trkpt>
      <trkpt lat="45.88842" lon="3.03917">
        <ele>504.6</ele>
        <time>2024-07-26T12:09:40Z</time>
      </trkpt>
      <trkpt lat="45.88842" lon="3.03915">
        <ele>505.9</ele>
        <time>2024-07-26T12:09:42Z</time>
      </trkpt>
      <trkpt lat="45.88842" lon="3.03914">
        <ele>508.4</ele>
        <time>2024-07-26T12:09:45Z</time>
      </trkpt>
      <trkpt lat="45.88841" lon="3.03912">
        <ele>508.7</ele>
        <time>2024-07-26T12:09:47Z</time>
      </trkpt>
      <trkpt lat="45.88839" lon="3.03913">
        <ele>509.5</ele>
        <time>2024-07-26T12:09:49Z</time>
      </trkpt>
      <trkpt lat="45.88839" lon="3.03914">
        <ele>508.2</ele>
        <time>2024-07-26T12:09:51Z</time>
      </trkpt>
      <trkpt lat="45.8884" lon="3.03913">
        <ele>510.9</ele>
        <time>2024-07-26T12:09:55Z</time>
      </trkpt>
      <trkpt lat="45.88839" lon="3.03911">
        <ele>512.9</ele>
        <time>2024-07-26T12:09:58Z</time>
      </trkpt>
      <trkpt lat="45.88838" lon="3.03909">
        <ele>511.7</ele>
        <time>2024-07-26T12:09:59Z</time>
      </trkpt>
      <trkpt lat="45.88837" lon="3.03907">
        <ele>512.9</ele>
        <time>2024-07-26T12:10:00Z</time>
      </trkpt>
      <trkpt lat="45.88838" lon="3.03906">
        <ele>511.9</ele>
        <time>2024-07-26T12:10:03Z</time>
      </trkpt>
      <trkpt lat="45.88838" lon="3.03905">
        <ele>512.5</ele>
        <time>2024-07-26T12:10:25Z</time>
      </trkpt>
      <trkpt lat="45.88838" lon="3.03903">
        <ele>513.2</ele>
        <time>2024-07-26T12:10:31Z</time>
      </trkpt>
      <trkpt lat="45.88836" lon="3.03901">
        <ele>512.6</ele>
        <time>2024-07-26T12:10:34Z</time>
      </trkpt>
      <trkpt lat="45.88835" lon="3.039">
        <ele>512.9</ele>
        <time>2024-07-26T12:10:36Z</time>
      </trkpt>
      <trkpt lat="45.88835" lon="3.03898">
        <ele>513.2</ele>
        <time>2024-07-26T12:11:09Z</time>
      </trkpt>
      <trkpt lat="45.88836" lon="3.03898">
        <ele>512.4</ele>
        <time>2024-07-26T12:11:12Z</time>
      </trkpt>
      <trkpt lat="45.88837" lon="3.039">
        <ele>510.3</ele>
        <time>2024-07-26T12:11:13Z</time>
      </trkpt>
      <trkpt lat="45.88838" lon="3.03902">
        <ele>510.2</ele>
        <time>2024-07-26T12:11:14Z</time>
      </trkpt>
      <trkpt lat="45.88838" lon="3.03903">
        <ele>510.5</ele>
        <time>2024-07-26T12:11:15Z</time>
      </trkpt>
      <trkpt lat="45.88835" lon="3.03904">
        <ele>512.4</ele>
        <time>2024-07-26T12:11:16Z</time>
      </trkpt>
      <trkpt lat="45.88833" lon="3.03904">
        <ele>512.6</ele>
        <time>2024-07-26T12:11:17Z</time>
      </trkpt>
      <trkpt lat="45.88834" lon="3.03905">
        <ele>513</ele>
        <time>2024-07-26T12:11:21Z</time>
      </trkpt>
      <trkpt lat="45.88835" lon="3.03908">
        <ele>513.1</ele>
        <time>2024-07-26T12:11:23Z</time>
      </trkpt>
      <trkpt lat="45.88836" lon="3.03908">
        <ele>514</ele>
        <time>2024-07-26T12:11:24Z</time>
      </trkpt>
      <trkpt lat="45.88837" lon="3.03909">
        <ele>514.4</ele>
        <time>2024-07-26T12:11:25Z</time>
      </trkpt>
      <trkpt lat="45.88838" lon="3.03909">
        <ele>512</ele>
        <time>2024-07-26T12:11:27Z</time>
      </trkpt>
      <trkpt lat="45.88838" lon="3.03907">
        <ele>512.3</ele>
        <time>2024-07-26T12:11:33Z</time>
      </trkpt>
      <trkpt lat="45.88837" lon="3.03906">
        <ele>511.4</ele>
        <time>2024-07-26T12:12:03Z</time>
      </trkpt>
      <trkpt lat="45.88836" lon="3.03906">
        <ele>511.2</ele>
        <time>2024-07-26T12:12:04Z</time>
      </trkpt>
      <trkpt lat="45.88835" lon="3.03907">
        <ele>511.2</ele>
        <time>2024-07-26T12:12:05Z</time>
      </trkpt>
      <trkpt lat="45.88834" lon="3.03906">
        <ele>512.4</ele>
        <time>2024-07-26T12:12:07Z</time>
      </trkpt>
      <trkpt lat="45.88833" lon="3.03905">
        <ele>511.1</ele>
        <time>2024-07-26T12:12:10Z</time>
      </trkpt>
      <trkpt lat="45.88832" lon="3.03906">
        <ele>511.1</ele>
        <time>2024-07-26T12:12:12Z</time>
      </trkpt>
      <trkpt lat="45.88832" lon="3.03906">
        <ele>511</ele>
        <time>2024-07-26T12:14:13Z</time>
      </trkpt>
      <trkpt lat="45.88832" lon="3.03906">
        <ele>511</ele>
        <time>2024-07-26T12:16:14Z</time>
      </trkpt>
      <trkpt lat="45.88832" lon="3.03906">
        <ele>511</ele>
        <time>2024-07-26T12:18:15Z</time>
      </trkpt>
      <trkpt lat="45.8883" lon="3.03907">
        <ele>510</ele>
        <time>2024-07-26T12:19:04Z</time>
      </trkpt>
      <trkpt lat="45.88829" lon="3.03907">
        <ele>510</ele>
        <time>2024-07-26T12:19:05Z</time>
      </trkpt>
      <trkpt lat="45.88829" lon="3.03908">
        <ele>509.6</ele>
        <time>2024-07-26T12:19:06Z</time>
      </trkpt>
      <trkpt lat="45.8883" lon="3.03908">
        <ele>510.1</ele>
        <time>2024-07-26T12:19:10Z</time>
      </trkpt>
      <trkpt lat="45.88829" lon="3.03909">
        <ele>510.6</ele>
        <time>2024-07-26T12:19:15Z</time>
      </trkpt>
      <trkpt lat="45.88828" lon="3.03911">
        <ele>510.6</ele>
        <time>2024-07-26T12:19:18Z</time>
      </trkpt>
      <trkpt lat="45.88829" lon="3.03911">
        <ele>511.5</ele>
        <time>2024-07-26T12:19:21Z</time>
      </trkpt>
      <trkpt lat="45.88829" lon="3.03912">
        <ele>510.4</ele>
        <time>2024-07-26T12:19:29Z</time>
      </trkpt>
      <trkpt lat="45.88831" lon="3.03914">
        <ele>512.6</ele>
        <time>2024-07-26T12:19:38Z</time>
      </trkpt>
      <trkpt lat="45.88831" lon="3.03913">
        <ele>515.3</ele>
        <time>2024-07-26T12:19:57Z</time>
      </trkpt>
      <trkpt lat="45.88832" lon="3.03912">
        <ele>513.5</ele>
        <time>2024-07-26T12:20:02Z</time>
      </trkpt>
      <trkpt lat="45.88831" lon="3.03912">
        <ele>512.8</ele>
        <time>2024-07-26T12:20:23Z</time>
      </trkpt>
      <trkpt lat="45.88829" lon="3.03909">
        <ele>512.1</ele>
        <time>2024-07-26T12:20:25Z</time>
      </trkpt>
      <trkpt lat="45.88828" lon="3.03908">
        <ele>512.1</ele>
        <time>2024-07-26T12:20:27Z</time>
      </trkpt>
      <trkpt lat="45.88828" lon="3.0391">
        <ele>512</ele>
        <time>2024-07-26T12:20:32Z</time>
      </trkpt>
      <trkpt lat="45.88828" lon="3.03911">
        <ele>512.8</ele>
        <time>2024-07-26T12:20:35Z</time>
      </trkpt>
      <trkpt lat="45.88827" lon="3.0391">
        <ele>514.1</ele>
        <time>2024-07-26T12:20:40Z</time>
      </trkpt>
      <trkpt lat="45.88827" lon="3.03909">
        <ele>514.2</ele>
        <time>2024-07-26T12:20:42Z</time>
      </trkpt>
      <trkpt lat="45.88827" lon="3.03907">
        <ele>517.6</ele>
        <time>2024-07-26T12:20:48Z</time>
      </trkpt>
      <trkpt lat="45.88829" lon="3.03907">
        <ele>514.4</ele>
        <time>2024-07-26T12:20:50Z</time>
      </trkpt>
      <trkpt lat="45.88829" lon="3.03906">
        <ele>514.5</ele>
        <time>2024-07-26T12:20:56Z</time>
      </trkpt>
      <trkpt lat="45.8883" lon="3.03904">
        <ele>516.4</ele>
        <time>2024-07-26T12:21:00Z</time>
      </trkpt>
      <trkpt lat="45.88829" lon="3.03903">
        <ele>514</ele>
        <time>2024-07-26T12:21:04Z</time>
      </trkpt>
      <trkpt lat="45.88829" lon="3.03902">
        <ele>513.2</ele>
        <time>2024-07-26T12:21:05Z</time>
      </trkpt>
      <trkpt lat="45.88829" lon="3.039">
        <ele>512.2</ele>
        <time>2024-07-26T12:21:06Z</time>
      </trkpt>
      <trkpt lat="45.8883" lon="3.03898">
        <ele>512.2</ele>
        <time>2024-07-26T12:21:08Z</time>
      </trkpt>
      <trkpt lat="45.8883" lon="3.03897">
        <ele>512.2</ele>
        <time>2024-07-26T12:21:26Z</time>
      </trkpt>
      <trkpt lat="45.88832" lon="3.03897">
        <ele>511.6</ele>
        <time>2024-07-26T12:21:30Z</time>
      </trkpt>
      <trkpt lat="45.88833" lon="3.03897">
        <ele>511.7</ele>
        <time>2024-07-26T12:21:32Z</time>
      </trkpt>
      <trkpt lat="45.88834" lon="3.03897">
        <ele>511.9</ele>
        <time>2024-07-26T12:21:52Z</time>
      </trkpt>
      <trkpt lat="45.88834" lon="3.03896">
        <ele>512.1</ele>
        <time>2024-07-26T12:21:57Z</time>
      </trkpt>
      <trkpt lat="45.88833" lon="3.03896">
        <ele>511.1</ele>
        <time>2024-07-26T12:22:00Z</time>
      </trkpt>
      <trkpt lat="45.88834" lon="3.03895">
        <ele>510.1</ele>
        <time>2024-07-26T12:22:03Z</time>
      </trkpt>
      <trkpt lat="45.88836" lon="3.03894">
        <ele>512</ele>
        <time>2024-07-26T12:22:05Z</time>
      </trkpt>
      <trkpt lat="45.88837" lon="3.03895">
        <ele>512.9</ele>
        <time>2024-07-26T12:22:06Z</time>
      </trkpt>
      <trkpt lat="45.88838" lon="3.03895">
        <ele>513.1</ele>
        <time>2024-07-26T12:22:08Z</time>
      </trkpt>
      <trkpt lat="45.88837" lon="3.03893">
        <ele>512.3</ele>
        <time>2024-07-26T12:22:17Z</time>
      </trkpt>
      <trkpt lat="45.88836" lon="3.03892">
        <ele>512.5</ele>
        <time>2024-07-26T12:22:18Z</time>
      </trkpt>
      <trkpt lat="45.88838" lon="3.03893">
        <ele>515.5</ele>
        <time>2024-07-26T12:22:22Z</time>
      </trkpt>
      <trkpt lat="45.8884" lon="3.03894">
        <ele>515.5</ele>
        <time>2024-07-26T12:22:23Z</time>
      </trkpt>
      <trkpt lat="45.88842" lon="3.03895">
        <ele>516.1</ele>
        <time>2024-07-26T12:22:24Z</time>
      </trkpt>
      <trkpt lat="45.88842" lon="3.03897">
        <ele>512.1</ele>
        <time>2024-07-26T12:22:26Z</time>
      </trkpt>
      <trkpt lat="45.88841" lon="3.03898">
        <ele>514.1</ele>
        <time>2024-07-26T12:22:28Z</time>
      </trkpt>
      <trkpt lat="45.88839" lon="3.03897">
        <ele>517.1</ele>
        <time>2024-07-26T12:22:29Z</time>
      </trkpt>
      <trkpt lat="45.88837" lon="3.03896">
        <ele>517</ele>
        <time>2024-07-26T12:22:30Z</time>
      </trkpt>
      <trkpt lat="45.88835" lon="3.03894">
        <ele>519.5</ele>
        <time>2024-07-26T12:22:31Z</time>
      </trkpt>
      <trkpt lat="45.88833" lon="3.03893">
        <ele>519.7</ele>
        <time>2024-07-26T12:22:32Z</time>
      </trkpt>
      <trkpt lat="45.88831" lon="3.03892">
        <ele>520.7</ele>
        <time>2024-07-26T12:22:33Z</time>
      </trkpt>
      <trkpt lat="45.8883" lon="3.03891">
        <ele>520.2</ele>
        <time>2024-07-26T12:22:34Z</time>
      </trkpt>
      <trkpt lat="45.88829" lon="3.03891">
        <ele>519.5</ele>
        <time>2024-07-26T12:22:35Z</time>
      </trkpt>
      <trkpt lat="45.88827" lon="3.03889">
        <ele>519.5</ele>
        <time>2024-07-26T12:22:36Z</time>
      </trkpt>
      <trkpt lat="45.88825" lon="3.03888">
        <ele>519.1</ele>
        <time>2024-07-26T12:22:37Z</time>
      </trkpt>
      <trkpt lat="45.88824" lon="3.03887">
        <ele>519.5</ele>
        <time>2024-07-26T12:22:38Z</time>
      </trkpt>
      <trkpt lat="45.88824" lon="3.03886">
        <ele>520</ele>
        <time>2024-07-26T12:22:39Z</time>
      </trkpt>
      <trkpt lat="45.88823" lon="3.03885">
        <ele>520.2</ele>
        <time>2024-07-26T12:22:40Z</time>
      </trkpt>
      <trkpt lat="45.88822" lon="3.03884">
        <ele>524.6</ele>
        <time>2024-07-26T12:22:41Z</time>
      </trkpt>
      <trkpt lat="45.88821" lon="3.03883">
        <ele>523.6</ele>
        <time>2024-07-26T12:22:42Z</time>
      </trkpt>
      <trkpt lat="45.8882" lon="3.03883">
        <ele>529.6</ele>
        <time>2024-07-26T12:22:44Z</time>
      </trkpt>
      <trkpt lat="45.88819" lon="3.03883">
        <ele>528.7</ele>
        <time>2024-07-26T12:22:46Z</time>
      </trkpt>
      <trkpt lat="45.88817" lon="3.03882">
        <ele>525.8</ele>
        <time>2024-07-26T12:22:49Z</time>
      </trkpt>
      <trkpt lat="45.88816" lon="3.0388">
        <ele>531.9</ele>
        <time>2024-07-26T12:22:50Z</time>
      </trkpt>
      <trkpt lat="45.88815" lon="3.03879">
        <ele>532.3</ele>
        <time>2024-07-26T12:22:51Z</time>
      </trkpt>
      <trkpt lat="45.88814" lon="3.03877">
        <ele>530.8</ele>
        <time>2024-07-26T12:22:53Z</time>
      </trkpt>
      <trkpt lat="45.88812" lon="3.03878">
        <ele>530.5</ele>
        <time>2024-07-26T12:22:55Z</time>
      </trkpt>
      <trkpt lat="45.88811" lon="3.03878">
        <ele>529.4</ele>
        <time>2024-07-26T12:22:56Z</time>
      </trkpt>
      <trkpt lat="45.88809" lon="3.03876">
        <ele>526.7</ele>
        <time>2024-07-26T12:22:58Z</time>
      </trkpt>
      <trkpt lat="45.88807" lon="3.03875">
        <ele>526.9</ele>
        <time>2024-07-26T12:22:59Z</time>
      </trkpt>
      <trkpt lat="45.88806" lon="3.03874">
        <ele>526.5</ele>
        <time>2024-07-26T12:23:00Z</time>
      </trkpt>
      <trkpt lat="45.88804" lon="3.03873">
        <ele>527</ele>
        <time>2024-07-26T12:23:01Z</time>
      </trkpt>
      <trkpt lat="45.88803" lon="3.03873">
        <ele>529.4</ele>
        <time>2024-07-26T12:23:02Z</time>
      </trkpt>
      <trkpt lat="45.88802" lon="3.03873">
        <ele>529</ele>
        <time>2024-07-26T12:23:04Z</time>
      </trkpt>
      <trkpt lat="45.88801" lon="3.03874">
        <ele>523.5</ele>
        <time>2024-07-26T12:23:05Z</time>
      </trkpt>
      <trkpt lat="45.888" lon="3.03875">
        <ele>520.5</ele>
        <time>2024-07-26T12:23:06Z</time>
      </trkpt>
      <trkpt lat="45.88799" lon="3.03876">
        <ele>521.1</ele>
        <time>2024-07-26T12:23:07Z</time>
      </trkpt>
      <trkpt lat="45.88798" lon="3.03877">
        <ele>518.2</ele>
        <time>2024-07-26T12:23:08Z</time>
      </trkpt>
      <trkpt lat="45.88797" lon="3.03879">
        <ele>517.1</ele>
        <time>2024-07-26T12:23:10Z</time>
      </trkpt>
      <trkpt lat="45.88796" lon="3.0388">
        <ele>516.8</ele>
        <time>2024-07-26T12:23:11Z</time>
      </trkpt>
      <trkpt lat="45.88794" lon="3.0388">
        <ele>521.2</ele>
        <time>2024-07-26T12:23:13Z</time>
      </trkpt>
      <trkpt lat="45.88792" lon="3.03879">
        <ele>521.2</ele>
        <time>2024-07-26T12:23:14Z</time>
      </trkpt>
      <trkpt lat="45.88791" lon="3.03878">
        <ele>520.6</ele>
        <time>2024-07-26T12:23:15Z</time>
      </trkpt>
      <trkpt lat="45.8879" lon="3.03878">
        <ele>520</ele>
        <time>2024-07-26T12:23:16Z</time>
      </trkpt>
      <trkpt lat="45.88789" lon="3.03877">
        <ele>523.1</ele>
        <time>2024-07-26T12:23:17Z</time>
      </trkpt>
      <trkpt lat="45.88788" lon="3.03877">
        <ele>523.2</ele>
        <time>2024-07-26T12:23:18Z</time>
      </trkpt>
      <trkpt lat="45.88787" lon="3.03877">
        <ele>526.1</ele>
        <time>2024-07-26T12:23:19Z</time>
      </trkpt>
      <trkpt lat="45.88785" lon="3.03878">
        <ele>526.5</ele>
        <time>2024-07-26T12:23:21Z</time>
      </trkpt>
      <trkpt lat="45.88785" lon="3.03879">
        <ele>527.3</ele>
        <time>2024-07-26T12:23:22Z</time>
      </trkpt>
      <trkpt lat="45.88784" lon="3.03879">
        <ele>526.7</ele>
        <time>2024-07-26T12:23:23Z</time>
      </trkpt>
      <trkpt lat="45.88784" lon="3.03881">
        <ele>525.2</ele>
        <time>2024-07-26T12:23:25Z</time>
      </trkpt>
      <trkpt lat="45.88783" lon="3.03883">
        <ele>521.9</ele>
        <time>2024-07-26T12:23:27Z</time>
      </trkpt>
      <trkpt lat="45.88782" lon="3.03884">
        <ele>529.4</ele>
        <time>2024-07-26T12:23:29Z</time>
      </trkpt>
      <trkpt lat="45.88781" lon="3.03884">
        <ele>528.2</ele>
        <time>2024-07-26T12:23:30Z</time>
      </trkpt>
      <trkpt lat="45.88779" lon="3.03884">
        <ele>528.3</ele>
        <time>2024-07-26T12:23:31Z</time>
      </trkpt>
      <trkpt lat="45.88779" lon="3.03885">
        <ele>526.7</ele>
        <time>2024-07-26T12:23:33Z</time>
      </trkpt>
      <trkpt lat="45.88778" lon="3.03887">
        <ele>526</ele>
        <time>2024-07-26T12:23:35Z</time>
      </trkpt>
      <trkpt lat="45.88777" lon="3.03888">
        <ele>525.3</ele>
        <time>2024-07-26T12:23:36Z</time>
      </trkpt>
      <trkpt lat="45.88777" lon="3.03889">
        <ele>524.5</ele>
        <time>2024-07-26T12:23:39Z</time>
      </trkpt>
      <trkpt lat="45.88776" lon="3.03889">
        <ele>526.6</ele>
        <time>2024-07-26T12:23:41Z</time>
      </trkpt>
      <trkpt lat="45.88774" lon="3.0389">
        <ele>533.6</ele>
        <time>2024-07-26T12:23:43Z</time>
      </trkpt>
      <trkpt lat="45.88773" lon="3.0389">
        <ele>530.3</ele>
        <time>2024-07-26T12:23:45Z</time>
      </trkpt>
      <trkpt lat="45.88772" lon="3.03891">
        <ele>525</ele>
        <time>2024-07-26T12:23:48Z</time>
      </trkpt>
      <trkpt lat="45.88772" lon="3.03893">
        <ele>520.6</ele>
        <time>2024-07-26T12:23:50Z</time>
      </trkpt>
      <trkpt lat="45.88772" lon="3.03894">
        <ele>520.1</ele>
        <time>2024-07-26T12:23:51Z</time>
      </trkpt>
      <trkpt lat="45.88773" lon="3.03895">
        <ele>514.4</ele>
        <time>2024-07-26T12:23:52Z</time>
      </trkpt>
      <trkpt lat="45.88775" lon="3.03895">
        <ele>520.1</ele>
        <time>2024-07-26T12:23:54Z</time>
      </trkpt>
      <trkpt lat="45.88776" lon="3.03896">
        <ele>518.5</ele>
        <time>2024-07-26T12:23:55Z</time>
      </trkpt>
      <trkpt lat="45.88776" lon="3.03896">
        <ele>524.8</ele>
        <time>2024-07-26T12:23:58Z</time>
      </trkpt>
      <trkpt lat="45.88777" lon="3.03894">
        <ele>525.1</ele>
        <time>2024-07-26T12:24:00Z</time>
      </trkpt>
      <trkpt lat="45.88777" lon="3.03891">
        <ele>526.2</ele>
        <time>2024-07-26T12:24:01Z</time>
      </trkpt>
      <trkpt lat="45.88778" lon="3.0389">
        <ele>525.1</ele>
        <time>2024-07-26T12:24:02Z</time>
      </trkpt>
      <trkpt lat="45.88778" lon="3.03888">
        <ele>526</ele>
        <time>2024-07-26T12:24:03Z</time>
      </trkpt>
      <trkpt lat="45.88778" lon="3.03887">
        <ele>525.6</ele>
        <time>2024-07-26T12:24:04Z</time>
      </trkpt>
      <trkpt lat="45.88778" lon="3.03886">
        <ele>524.8</ele>
        <time>2024-07-26T12:24:06Z</time>
      </trkpt>
      <trkpt lat="45.88776" lon="3.03885">
        <ele>527.1</ele>
        <time>2024-07-26T12:24:08Z</time>
      </trkpt>
      <trkpt lat="45.88774" lon="3.03884">
        <ele>527</ele>
        <time>2024-07-26T12:24:11Z</time>
      </trkpt>
      <trkpt lat="45.88774" lon="3.03883">
        <ele>526.4</ele>
        <time>2024-07-26T12:24:12Z</time>
      </trkpt>
      <trkpt lat="45.88771" lon="3.03884">
        <ele>526.4</ele>
        <time>2024-07-26T12:24:13Z</time>
      </trkpt>
      <trkpt lat="45.88768" lon="3.03882">
        <ele>522.1</ele>
        <time>2024-07-26T12:24:15Z</time>
      </trkpt>
      <trkpt lat="45.88767" lon="3.03881">
        <ele>527.2</ele>
        <time>2024-07-26T12:24:16Z</time>
      </trkpt>
      <trkpt lat="45.88766" lon="3.0388">
        <ele>525.5</ele>
        <time>2024-07-26T12:24:17Z</time>
      </trkpt>
      <trkpt lat="45.88765" lon="3.03879">
        <ele>525.9</ele>
        <time>2024-07-26T12:24:18Z</time>
      </trkpt>
      <trkpt lat="45.88764" lon="3.03878">
        <ele>523.6</ele>
        <time>2024-07-26T12:24:19Z</time>
      </trkpt>
      <trkpt lat="45.88763" lon="3.03878">
        <ele>523</ele>
        <time>2024-07-26T12:24:21Z</time>
      </trkpt>
      <trkpt lat="45.88761" lon="3.03878">
        <ele>520</ele>
        <time>2024-07-26T12:24:23Z</time>
      </trkpt>
      <trkpt lat="45.8876" lon="3.03879">
        <ele>521.2</ele>
        <time>2024-07-26T12:24:25Z</time>
      </trkpt>
      <trkpt lat="45.88759" lon="3.03878">
        <ele>520.9</ele>
        <time>2024-07-26T12:24:26Z</time>
      </trkpt>
      <trkpt lat="45.88757" lon="3.03877">
        <ele>523</ele>
        <time>2024-07-26T12:24:27Z</time>
      </trkpt>
      <trkpt lat="45.88756" lon="3.03877">
        <ele>521.5</ele>
        <time>2024-07-26T12:24:28Z</time>
      </trkpt>
      <trkpt lat="45.88756" lon="3.03876">
        <ele>521</ele>
        <time>2024-07-26T12:24:29Z</time>
      </trkpt>
      <trkpt lat="45.88754" lon="3.03875">
        <ele>523.2</ele>
        <time>2024-07-26T12:24:31Z</time>
      </trkpt>
      <trkpt lat="45.88753" lon="3.03874">
        <ele>523.7</ele>
        <time>2024-07-26T12:24:32Z</time>
      </trkpt>
      <trkpt lat="45.88752" lon="3.03874">
        <ele>525.3</ele>
        <time>2024-07-26T12:24:34Z</time>
      </trkpt>
      <trkpt lat="45.88751" lon="3.03874">
        <ele>526.5</ele>
        <time>2024-07-26T12:24:36Z</time>
      </trkpt>
      <trkpt lat="45.8875" lon="3.03875">
        <ele>525.1</ele>
        <time>2024-07-26T12:24:39Z</time>
      </trkpt>
      <trkpt lat="45.88749" lon="3.03877">
        <ele>524.6</ele>
        <time>2024-07-26T12:24:41Z</time>
      </trkpt>
      <trkpt lat="45.88749" lon="3.0388">
        <ele>524.5</ele>
        <time>2024-07-26T12:24:43Z</time>
      </trkpt>
      <trkpt lat="45.88748" lon="3.03881">
        <ele>526.7</ele>
        <time>2024-07-26T12:24:45Z</time>
      </trkpt>
      <trkpt lat="45.88747" lon="3.03881">
        <ele>524.1</ele>
        <time>2024-07-26T12:24:46Z</time>
      </trkpt>
      <trkpt lat="45.88746" lon="3.03881">
        <ele>523.4</ele>
        <time>2024-07-26T12:24:47Z</time>
      </trkpt>
      <trkpt lat="45.88746" lon="3.0388">
        <ele>522.3</ele>
        <time>2024-07-26T12:24:48Z</time>
      </trkpt>
      <trkpt lat="45.88745" lon="3.03879">
        <ele>520.3</ele>
        <time>2024-07-26T12:24:49Z</time>
      </trkpt>
      <trkpt lat="45.88744" lon="3.03877">
        <ele>520</ele>
        <time>2024-07-26T12:24:50Z</time>
      </trkpt>
      <trkpt lat="45.88745" lon="3.03876">
        <ele>516.8</ele>
        <time>2024-07-26T12:24:51Z</time>
      </trkpt>
      <trkpt lat="45.88745" lon="3.03874">
        <ele>517.9</ele>
        <time>2024-07-26T12:24:52Z</time>
      </trkpt>
      <trkpt lat="45.88746" lon="3.03871">
        <ele>515.4</ele>
        <time>2024-07-26T12:24:55Z</time>
      </trkpt>
      <trkpt lat="45.88746" lon="3.03869">
        <ele>515.6</ele>
        <time>2024-07-26T12:24:57Z</time>
      </trkpt>
      <trkpt lat="45.88746" lon="3.03867">
        <ele>519</ele>
        <time>2024-07-26T12:24:58Z</time>
      </trkpt>
      <trkpt lat="45.88747" lon="3.03865">
        <ele>519.7</ele>
        <time>2024-07-26T12:24:59Z</time>
      </trkpt>
      <trkpt lat="45.88747" lon="3.03863">
        <ele>520.6</ele>
        <time>2024-07-26T12:25:00Z</time>
      </trkpt>
      <trkpt lat="45.88748" lon="3.03861">
        <ele>520.6</ele>
        <time>2024-07-26T12:25:01Z</time>
      </trkpt>
      <trkpt lat="45.88748" lon="3.03859">
        <ele>520</ele>
        <time>2024-07-26T12:25:02Z</time>
      </trkpt>
      <trkpt lat="45.88748" lon="3.03858">
        <ele>518.8</ele>
        <time>2024-07-26T12:25:03Z</time>
      </trkpt>
      <trkpt lat="45.88747" lon="3.03856">
        <ele>515.8</ele>
        <time>2024-07-26T12:25:04Z</time>
      </trkpt>
      <trkpt lat="45.88746" lon="3.03855">
        <ele>520.7</ele>
        <time>2024-07-26T12:25:05Z</time>
      </trkpt>
      <trkpt lat="45.88745" lon="3.03854">
        <ele>522.7</ele>
        <time>2024-07-26T12:25:07Z</time>
      </trkpt>
      <trkpt lat="45.88744" lon="3.03853">
        <ele>519.1</ele>
        <time>2024-07-26T12:25:10Z</time>
      </trkpt>
      <trkpt lat="45.88744" lon="3.03851">
        <ele>517.3</ele>
        <time>2024-07-26T12:25:12Z</time>
      </trkpt>
      <trkpt lat="45.88743" lon="3.0385">
        <ele>513.7</ele>
        <time>2024-07-26T12:25:14Z</time>
      </trkpt>
      <trkpt lat="45.88743" lon="3.03848">
        <ele>513</ele>
        <time>2024-07-26T12:25:16Z</time>
      </trkpt>
      <trkpt lat="45.88742" lon="3.03847">
        <ele>511.9</ele>
        <time>2024-07-26T12:25:17Z</time>
      </trkpt>
      <trkpt lat="45.88743" lon="3.03846">
        <ele>512.2</ele>
        <time>2024-07-26T12:25:18Z</time>
      </trkpt>
      <trkpt lat="45.88742" lon="3.03844">
        <ele>510.6</ele>
        <time>2024-07-26T12:25:19Z</time>
      </trkpt>
      <trkpt lat="45.88742" lon="3.03842">
        <ele>513.6</ele>
        <time>2024-07-26T12:25:20Z</time>
      </trkpt>
      <trkpt lat="45.88741" lon="3.0384">
        <ele>513.3</ele>
        <time>2024-07-26T12:25:21Z</time>
      </trkpt>
      <trkpt lat="45.8874" lon="3.0384">
        <ele>512.3</ele>
        <time>2024-07-26T12:25:22Z</time>
      </trkpt>
      <trkpt lat="45.88739" lon="3.03839">
        <ele>513.5</ele>
        <time>2024-07-26T12:25:23Z</time>
      </trkpt>
      <trkpt lat="45.88738" lon="3.03838">
        <ele>513.3</ele>
        <time>2024-07-26T12:25:24Z</time>
      </trkpt>
      <trkpt lat="45.88738" lon="3.03836">
        <ele>513.5</ele>
        <time>2024-07-26T12:25:25Z</time>
      </trkpt>
      <trkpt lat="45.88738" lon="3.03835">
        <ele>514.1</ele>
        <time>2024-07-26T12:25:26Z</time>
      </trkpt>
      <trkpt lat="45.88737" lon="3.03834">
        <ele>516.2</ele>
        <time>2024-07-26T12:25:28Z</time>
      </trkpt>
      <trkpt lat="45.88738" lon="3.03832">
        <ele>517.1</ele>
        <time>2024-07-26T12:25:31Z</time>
      </trkpt>
      <trkpt lat="45.88738" lon="3.03831">
        <ele>516.2</ele>
        <time>2024-07-26T12:25:32Z</time>
      </trkpt>
      <trkpt lat="45.88739" lon="3.0383">
        <ele>516.1</ele>
        <time>2024-07-26T12:25:33Z</time>
      </trkpt>
      <trkpt lat="45.8874" lon="3.0383">
        <ele>516.8</ele>
        <time>2024-07-26T12:25:34Z</time>
      </trkpt>
      <trkpt lat="45.88742" lon="3.03828">
        <ele>515.5</ele>
        <time>2024-07-26T12:25:35Z</time>
      </trkpt>
      <trkpt lat="45.88744" lon="3.03828">
        <ele>516.8</ele>
        <time>2024-07-26T12:25:36Z</time>
      </trkpt>
      <trkpt lat="45.88745" lon="3.03828">
        <ele>517.1</ele>
        <time>2024-07-26T12:25:38Z</time>
      </trkpt>
      <trkpt lat="45.88746" lon="3.03827">
        <ele>515.1</ele>
        <time>2024-07-26T12:25:40Z</time>
      </trkpt>
      <trkpt lat="45.88744" lon="3.03825">
        <ele>513.3</ele>
        <time>2024-07-26T12:25:43Z</time>
      </trkpt>
      <trkpt lat="45.88743" lon="3.03824">
        <ele>513.4</ele>
        <time>2024-07-26T12:25:44Z</time>
      </trkpt>
      <trkpt lat="45.88742" lon="3.03823">
        <ele>516.8</ele>
        <time>2024-07-26T12:25:46Z</time>
      </trkpt>
      <trkpt lat="45.88741" lon="3.03822">
        <ele>516.4</ele>
        <time>2024-07-26T12:25:47Z</time>
      </trkpt>
      <trkpt lat="45.8874" lon="3.03822">
        <ele>515.8</ele>
        <time>2024-07-26T12:25:48Z</time>
      </trkpt>
      <trkpt lat="45.88739" lon="3.03821">
        <ele>513</ele>
        <time>2024-07-26T12:25:50Z</time>
      </trkpt>
      <trkpt lat="45.88737" lon="3.0382">
        <ele>510.5</ele>
        <time>2024-07-26T12:25:52Z</time>
      </trkpt>
      <trkpt lat="45.88736" lon="3.03819">
        <ele>512</ele>
        <time>2024-07-26T12:25:54Z</time>
      </trkpt>
      <trkpt lat="45.88735" lon="3.03818">
        <ele>511.5</ele>
        <time>2024-07-26T12:25:56Z</time>
      </trkpt>
      <trkpt lat="45.88734" lon="3.03817">
        <ele>512.2</ele>
        <time>2024-07-26T12:25:57Z</time>
      </trkpt>
      <trkpt lat="45.88732" lon="3.03818">
        <ele>513.1</ele>
        <time>2024-07-26T12:25:59Z</time>
      </trkpt>
      <trkpt lat="45.88731" lon="3.03817">
        <ele>510.2</ele>
        <time>2024-07-26T12:26:02Z</time>
      </trkpt>
      <trkpt lat="45.8873" lon="3.03816">
        <ele>510.2</ele>
        <time>2024-07-26T12:26:03Z</time>
      </trkpt>
      <trkpt lat="45.8873" lon="3.03814">
        <ele>510.3</ele>
        <time>2024-07-26T12:26:04Z</time>
      </trkpt>
      <trkpt lat="45.8873" lon="3.03812">
        <ele>510.9</ele>
        <time>2024-07-26T12:26:05Z</time>
      </trkpt>
      <trkpt lat="45.8873" lon="3.03811">
        <ele>511.9</ele>
        <time>2024-07-26T12:26:06Z</time>
      </trkpt>
      <trkpt lat="45.8873" lon="3.03809">
        <ele>514</ele>
        <time>2024-07-26T12:26:08Z</time>
      </trkpt>
      <trkpt lat="45.88729" lon="3.03807">
        <ele>513.2</ele>
        <time>2024-07-26T12:26:11Z</time>
      </trkpt>
      <trkpt lat="45.88728" lon="3.03806">
        <ele>514.6</ele>
        <time>2024-07-26T12:26:12Z</time>
      </trkpt>
      <trkpt lat="45.88728" lon="3.03805">
        <ele>515</ele>
        <time>2024-07-26T12:26:13Z</time>
      </trkpt>
      <trkpt lat="45.88728" lon="3.03803">
        <ele>517.4</ele>
        <time>2024-07-26T12:26:15Z</time>
      </trkpt>
      <trkpt lat="45.88726" lon="3.03802">
        <ele>519.2</ele>
        <time>2024-07-26T12:26:19Z</time>
      </trkpt>
      <trkpt lat="45.88725" lon="3.038">
        <ele>520.8</ele>
        <time>2024-07-26T12:26:21Z</time>
      </trkpt>
      <trkpt lat="45.88725" lon="3.03799">
        <ele>520.4</ele>
        <time>2024-07-26T12:26:22Z</time>
      </trkpt>
      <trkpt lat="45.88724" lon="3.03798">
        <ele>519.3</ele>
        <time>2024-07-26T12:26:24Z</time>
      </trkpt>
      <trkpt lat="45.88722" lon="3.03798">
        <ele>518.6</ele>
        <time>2024-07-26T12:26:26Z</time>
      </trkpt>
      <trkpt lat="45.88721" lon="3.03797">
        <ele>517</ele>
        <time>2024-07-26T12:26:28Z</time>
      </trkpt>
      <trkpt lat="45.88721" lon="3.03796">
        <ele>515.3</ele>
        <time>2024-07-26T12:26:30Z</time>
      </trkpt>
      <trkpt lat="45.8872" lon="3.03794">
        <ele>514.5</ele>
        <time>2024-07-26T12:26:31Z</time>
      </trkpt>
      <trkpt lat="45.8872" lon="3.03792">
        <ele>517</ele>
        <time>2024-07-26T12:26:33Z</time>
      </trkpt>
      <trkpt lat="45.8872" lon="3.0379">
        <ele>517.1</ele>
        <time>2024-07-26T12:26:35Z</time>
      </trkpt>
      <trkpt lat="45.8872" lon="3.03788">
        <ele>516.2</ele>
        <time>2024-07-26T12:26:37Z</time>
      </trkpt>
      <trkpt lat="45.88719" lon="3.03787">
        <ele>515.6</ele>
        <time>2024-07-26T12:26:39Z</time>
      </trkpt>
      <trkpt lat="45.88718" lon="3.03786">
        <ele>518.3</ele>
        <time>2024-07-26T12:26:41Z</time>
      </trkpt>
      <trkpt lat="45.88716" lon="3.03786">
        <ele>517.5</ele>
        <time>2024-07-26T12:26:42Z</time>
      </trkpt>
      <trkpt lat="45.88715" lon="3.03786">
        <ele>524.9</ele>
        <time>2024-07-26T12:26:44Z</time>
      </trkpt>
      <trkpt lat="45.88716" lon="3.03785">
        <ele>522.2</ele>
        <time>2024-07-26T12:26:46Z</time>
      </trkpt>
      <trkpt lat="45.88716" lon="3.03783">
        <ele>523.5</ele>
        <time>2024-07-26T12:26:48Z</time>
      </trkpt>
      <trkpt lat="45.88716" lon="3.03782">
        <ele>520.6</ele>
        <time>2024-07-26T12:26:51Z</time>
      </trkpt>
      <trkpt lat="45.88714" lon="3.03781">
        <ele>520.7</ele>
        <time>2024-07-26T12:26:53Z</time>
      </trkpt>
      <trkpt lat="45.88713" lon="3.03779">
        <ele>519.8</ele>
        <time>2024-07-26T12:26:54Z</time>
      </trkpt>
      <trkpt lat="45.88712" lon="3.03777">
        <ele>520.3</ele>
        <time>2024-07-26T12:26:56Z</time>
      </trkpt>
      <trkpt lat="45.88713" lon="3.03776">
        <ele>522.7</ele>
        <time>2024-07-26T12:26:57Z</time>
      </trkpt>
      <trkpt lat="45.88714" lon="3.03774">
        <ele>523</ele>
        <time>2024-07-26T12:26:58Z</time>
      </trkpt>
      <trkpt lat="45.88714" lon="3.03773">
        <ele>522.9</ele>
        <time>2024-07-26T12:26:59Z</time>
      </trkpt>
      <trkpt lat="45.88714" lon="3.03771">
        <ele>525.2</ele>
        <time>2024-07-26T12:27:01Z</time>
      </trkpt>
      <trkpt lat="45.88714" lon="3.0377">
        <ele>525.3</ele>
        <time>2024-07-26T12:27:03Z</time>
      </trkpt>
      <trkpt lat="45.88714" lon="3.03768">
        <ele>525</ele>
        <time>2024-07-26T12:27:04Z</time>
      </trkpt>
      <trkpt lat="45.88714" lon="3.03767">
        <ele>524.2</ele>
        <time>2024-07-26T12:27:05Z</time>
      </trkpt>
      <trkpt lat="45.88713" lon="3.03766">
        <ele>525</ele>
        <time>2024-07-26T12:27:07Z</time>
      </trkpt>
      <trkpt lat="45.88712" lon="3.03764">
        <ele>524.6</ele>
        <time>2024-07-26T12:27:09Z</time>
      </trkpt>
      <trkpt lat="45.88711" lon="3.03763">
        <ele>521.5</ele>
        <time>2024-07-26T12:27:11Z</time>
      </trkpt>
      <trkpt lat="45.8871" lon="3.03762">
        <ele>522</ele>
        <time>2024-07-26T12:27:13Z</time>
      </trkpt>
      <trkpt lat="45.88709" lon="3.03761">
        <ele>521.1</ele>
        <time>2024-07-26T12:27:14Z</time>
      </trkpt>
      <trkpt lat="45.88707" lon="3.0376">
        <ele>523.7</ele>
        <time>2024-07-26T12:27:16Z</time>
      </trkpt>
      <trkpt lat="45.88707" lon="3.03759">
        <ele>521.6</ele>
        <time>2024-07-26T12:27:17Z</time>
      </trkpt>
      <trkpt lat="45.88706" lon="3.03757">
        <ele>521.8</ele>
        <time>2024-07-26T12:27:18Z</time>
      </trkpt>
      <trkpt lat="45.88705" lon="3.03756">
        <ele>521.9</ele>
        <time>2024-07-26T12:27:19Z</time>
      </trkpt>
      <trkpt lat="45.88704" lon="3.03755">
        <ele>522.3</ele>
        <time>2024-07-26T12:27:20Z</time>
      </trkpt>
      <trkpt lat="45.88703" lon="3.03754">
        <ele>523.2</ele>
        <time>2024-07-26T12:27:21Z</time>
      </trkpt>
      <trkpt lat="45.88703" lon="3.03752">
        <ele>518.9</ele>
        <time>2024-07-26T12:27:22Z</time>
      </trkpt>
      <trkpt lat="45.88703" lon="3.0375">
        <ele>518.9</ele>
        <time>2024-07-26T12:27:23Z</time>
      </trkpt>
      <trkpt lat="45.88702" lon="3.03748">
        <ele>518.6</ele>
        <time>2024-07-26T12:27:24Z</time>
      </trkpt>
      <trkpt lat="45.88702" lon="3.03746">
        <ele>518.6</ele>
        <time>2024-07-26T12:27:25Z</time>
      </trkpt>
      <trkpt lat="45.88701" lon="3.03745">
        <ele>516.1</ele>
        <time>2024-07-26T12:27:27Z</time>
      </trkpt>
      <trkpt lat="45.88701" lon="3.03744">
        <ele>516.8</ele>
        <time>2024-07-26T12:27:28Z</time>
      </trkpt>
      <trkpt lat="45.887" lon="3.03743">
        <ele>516.1</ele>
        <time>2024-07-26T12:27:29Z</time>
      </trkpt>
      <trkpt lat="45.88701" lon="3.03741">
        <ele>517.6</ele>
        <time>2024-07-26T12:27:32Z</time>
      </trkpt>
      <trkpt lat="45.887" lon="3.0374">
        <ele>519.5</ele>
        <time>2024-07-26T12:27:35Z</time>
      </trkpt>
      <trkpt lat="45.88699" lon="3.03739">
        <ele>519.6</ele>
        <time>2024-07-26T12:27:38Z</time>
      </trkpt>
      <trkpt lat="45.887" lon="3.0374">
        <ele>519</ele>
        <time>2024-07-26T12:27:52Z</time>
      </trkpt>
      <trkpt lat="45.88699" lon="3.03741">
        <ele>517.5</ele>
        <time>2024-07-26T12:28:06Z</time>
      </trkpt>
      <trkpt lat="45.88698" lon="3.03739">
        <ele>520.8</ele>
        <time>2024-07-26T12:28:13Z</time>
      </trkpt>
      <trkpt lat="45.88697" lon="3.0374">
        <ele>521.2</ele>
        <time>2024-07-26T12:28:14Z</time>
      </trkpt>
      <trkpt lat="45.88696" lon="3.03743">
        <ele>520.3</ele>
        <time>2024-07-26T12:28:15Z</time>
      </trkpt>
      <trkpt lat="45.88695" lon="3.03745">
        <ele>520.7</ele>
        <time>2024-07-26T12:28:16Z</time>
      </trkpt>
      <trkpt lat="45.88694" lon="3.03746">
        <ele>520.5</ele>
        <time>2024-07-26T12:28:17Z</time>
      </trkpt>
      <trkpt lat="45.88693" lon="3.03746">
        <ele>523.3</ele>
        <time>2024-07-26T12:28:19Z</time>
      </trkpt>
      <trkpt lat="45.88693" lon="3.03744">
        <ele>526.2</ele>
        <time>2024-07-26T12:28:21Z</time>
      </trkpt>
      <trkpt lat="45.88693" lon="3.03742">
        <ele>529.9</ele>
        <time>2024-07-26T12:28:23Z</time>
      </trkpt>
      <trkpt lat="45.88693" lon="3.03739">
        <ele>534</ele>
        <time>2024-07-26T12:28:25Z</time>
      </trkpt>
      <trkpt lat="45.88693" lon="3.03737">
        <ele>533.9</ele>
        <time>2024-07-26T12:28:26Z</time>
      </trkpt>
      <trkpt lat="45.88693" lon="3.03736">
        <ele>535.2</ele>
        <time>2024-07-26T12:28:27Z</time>
      </trkpt>
      <trkpt lat="45.88692" lon="3.03733">
        <ele>536.9</ele>
        <time>2024-07-26T12:28:30Z</time>
      </trkpt>
      <trkpt lat="45.88691" lon="3.03733">
        <ele>538.1</ele>
        <time>2024-07-26T12:28:31Z</time>
      </trkpt>
      <trkpt lat="45.8869" lon="3.03732">
        <ele>538.1</ele>
        <time>2024-07-26T12:28:32Z</time>
      </trkpt>
      <trkpt lat="45.88689" lon="3.03732">
        <ele>537.2</ele>
        <time>2024-07-26T12:28:33Z</time>
      </trkpt>
      <trkpt lat="45.88687" lon="3.03731">
        <ele>536.4</ele>
        <time>2024-07-26T12:28:35Z</time>
      </trkpt>
      <trkpt lat="45.88686" lon="3.03731">
        <ele>538.2</ele>
        <time>2024-07-26T12:28:36Z</time>
      </trkpt>
      <trkpt lat="45.88685" lon="3.0373">
        <ele>535.4</ele>
        <time>2024-07-26T12:28:38Z</time>
      </trkpt>
      <trkpt lat="45.88684" lon="3.03729">
        <ele>535</ele>
        <time>2024-07-26T12:28:39Z</time>
      </trkpt>
      <trkpt lat="45.88683" lon="3.03727">
        <ele>534.8</ele>
        <time>2024-07-26T12:28:41Z</time>
      </trkpt>
      <trkpt lat="45.88681" lon="3.03727">
        <ele>533.1</ele>
        <time>2024-07-26T12:28:43Z</time>
      </trkpt>
      <trkpt lat="45.8868" lon="3.03727">
        <ele>529.7</ele>
        <time>2024-07-26T12:28:45Z</time>
      </trkpt>
      <trkpt lat="45.88679" lon="3.03725">
        <ele>527.6</ele>
        <time>2024-07-26T12:28:47Z</time>
      </trkpt>
      <trkpt lat="45.88679" lon="3.03723">
        <ele>527.9</ele>
        <time>2024-07-26T12:28:48Z</time>
      </trkpt>
      <trkpt lat="45.88679" lon="3.03721">
        <ele>525.7</ele>
        <time>2024-07-26T12:28:50Z</time>
      </trkpt>
      <trkpt lat="45.88678" lon="3.03722">
        <ele>525.5</ele>
        <time>2024-07-26T12:28:52Z</time>
      </trkpt>
      <trkpt lat="45.88677" lon="3.03723">
        <ele>526.4</ele>
        <time>2024-07-26T12:28:53Z</time>
      </trkpt>
      <trkpt lat="45.88676" lon="3.03724">
        <ele>525.6</ele>
        <time>2024-07-26T12:28:54Z</time>
      </trkpt>
      <trkpt lat="45.88675" lon="3.03723">
        <ele>526.1</ele>
        <time>2024-07-26T12:28:57Z</time>
      </trkpt>
      <trkpt lat="45.88675" lon="3.03721">
        <ele>528.5</ele>
        <time>2024-07-26T12:28:59Z</time>
      </trkpt>
      <trkpt lat="45.88676" lon="3.03719">
        <ele>528.4</ele>
        <time>2024-07-26T12:29:01Z</time>
      </trkpt>
      <trkpt lat="45.88675" lon="3.03717">
        <ele>528.4</ele>
        <time>2024-07-26T12:29:02Z</time>
      </trkpt>
      <trkpt lat="45.88675" lon="3.03715">
        <ele>527.8</ele>
        <time>2024-07-26T12:29:03Z</time>
      </trkpt>
      <trkpt lat="45.88674" lon="3.03714">
        <ele>526.8</ele>
        <time>2024-07-26T12:29:04Z</time>
      </trkpt>
      <trkpt lat="45.88673" lon="3.03714">
        <ele>527.3</ele>
        <time>2024-07-26T12:29:05Z</time>
      </trkpt>
      <trkpt lat="45.88671" lon="3.03714">
        <ele>525.8</ele>
        <time>2024-07-26T12:29:06Z</time>
      </trkpt>
      <trkpt lat="45.8867" lon="3.03714">
        <ele>525.1</ele>
        <time>2024-07-26T12:29:07Z</time>
      </trkpt>
      <trkpt lat="45.88669" lon="3.03714">
        <ele>524.9</ele>
        <time>2024-07-26T12:29:08Z</time>
      </trkpt>
      <trkpt lat="45.88668" lon="3.03713">
        <ele>524.1</ele>
        <time>2024-07-26T12:29:10Z</time>
      </trkpt>
      <trkpt lat="45.88666" lon="3.03712">
        <ele>523.5</ele>
        <time>2024-07-26T12:29:11Z</time>
      </trkpt>
      <trkpt lat="45.88665" lon="3.03711">
        <ele>523.4</ele>
        <time>2024-07-26T12:29:13Z</time>
      </trkpt>
      <trkpt lat="45.88664" lon="3.03711">
        <ele>525.4</ele>
        <time>2024-07-26T12:29:16Z</time>
      </trkpt>
      <trkpt lat="45.88663" lon="3.03711">
        <ele>529.5</ele>
        <time>2024-07-26T12:29:21Z</time>
      </trkpt>
      <trkpt lat="45.88663" lon="3.0371">
        <ele>530.6</ele>
        <time>2024-07-26T12:29:23Z</time>
      </trkpt>
      <trkpt lat="45.88662" lon="3.03708">
        <ele>530.4</ele>
        <time>2024-07-26T12:29:25Z</time>
      </trkpt>
      <trkpt lat="45.88663" lon="3.03706">
        <ele>529.7</ele>
        <time>2024-07-26T12:29:27Z</time>
      </trkpt>
      <trkpt lat="45.88663" lon="3.03704">
        <ele>529</ele>
        <time>2024-07-26T12:29:29Z</time>
      </trkpt>
      <trkpt lat="45.88664" lon="3.03702">
        <ele>533</ele>
        <time>2024-07-26T12:29:31Z</time>
      </trkpt>
      <trkpt lat="45.88666" lon="3.03701">
        <ele>535.8</ele>
        <time>2024-07-26T12:29:32Z</time>
      </trkpt>
      <trkpt lat="45.88667" lon="3.03699">
        <ele>539.7</ele>
        <time>2024-07-26T12:29:33Z</time>
      </trkpt>
      <trkpt lat="45.88666" lon="3.03697">
        <ele>540.9</ele>
        <time>2024-07-26T12:29:35Z</time>
      </trkpt>
      <trkpt lat="45.88666" lon="3.03697">
        <ele>541.7</ele>
        <time>2024-07-26T12:29:37Z</time>
      </trkpt>
      <trkpt lat="45.88665" lon="3.03698">
        <ele>541.2</ele>
        <time>2024-07-26T12:29:40Z</time>
      </trkpt>
      <trkpt lat="45.88664" lon="3.03698">
        <ele>540.7</ele>
        <time>2024-07-26T12:29:41Z</time>
      </trkpt>
      <trkpt lat="45.88662" lon="3.03699">
        <ele>539.8</ele>
        <time>2024-07-26T12:29:42Z</time>
      </trkpt>
      <trkpt lat="45.88661" lon="3.037">
        <ele>539.5</ele>
        <time>2024-07-26T12:29:43Z</time>
      </trkpt>
      <trkpt lat="45.88659" lon="3.03701">
        <ele>537.8</ele>
        <time>2024-07-26T12:29:44Z</time>
      </trkpt>
      <trkpt lat="45.88657" lon="3.03702">
        <ele>535.7</ele>
        <time>2024-07-26T12:29:46Z</time>
      </trkpt>
      <trkpt lat="45.88655" lon="3.03703">
        <ele>537.8</ele>
        <time>2024-07-26T12:29:47Z</time>
      </trkpt>
      <trkpt lat="45.88654" lon="3.03705">
        <ele>537.9</ele>
        <time>2024-07-26T12:29:48Z</time>
      </trkpt>
      <trkpt lat="45.88653" lon="3.03706">
        <ele>537.9</ele>
        <time>2024-07-26T12:29:49Z</time>
      </trkpt>
      <trkpt lat="45.88652" lon="3.03707">
        <ele>538.4</ele>
        <time>2024-07-26T12:29:50Z</time>
      </trkpt>
      <trkpt lat="45.8865" lon="3.03706">
        <ele>532.2</ele>
        <time>2024-07-26T12:29:51Z</time>
      </trkpt>
      <trkpt lat="45.88649" lon="3.03707">
        <ele>531.8</ele>
        <time>2024-07-26T12:29:52Z</time>
      </trkpt>
      <trkpt lat="45.88647" lon="3.03707">
        <ele>532.7</ele>
        <time>2024-07-26T12:29:53Z</time>
      </trkpt>
      <trkpt lat="45.88646" lon="3.03708">
        <ele>532.8</ele>
        <time>2024-07-26T12:29:54Z</time>
      </trkpt>
      <trkpt lat="45.88645" lon="3.03709">
        <ele>533</ele>
        <time>2024-07-26T12:29:55Z</time>
      </trkpt>
      <trkpt lat="45.88644" lon="3.03709">
        <ele>532</ele>
        <time>2024-07-26T12:29:57Z</time>
      </trkpt>
      <trkpt lat="45.88643" lon="3.03708">
        <ele>530.9</ele>
        <time>2024-07-26T12:29:58Z</time>
      </trkpt>
      <trkpt lat="45.88643" lon="3.03706">
        <ele>534</ele>
        <time>2024-07-26T12:30:00Z</time>
      </trkpt>
      <trkpt lat="45.88643" lon="3.03703">
        <ele>534.3</ele>
        <time>2024-07-26T12:30:02Z</time>
      </trkpt>
      <trkpt lat="45.88643" lon="3.03701">
        <ele>535.5</ele>
        <time>2024-07-26T12:30:03Z</time>
      </trkpt>
      <trkpt lat="45.88644" lon="3.03699">
        <ele>536.9</ele>
        <time>2024-07-26T12:30:04Z</time>
      </trkpt>
      <trkpt lat="45.88645" lon="3.03698">
        <ele>536.8</ele>
        <time>2024-07-26T12:30:05Z</time>
      </trkpt>
      <trkpt lat="45.88645" lon="3.03696">
        <ele>535.8</ele>
        <time>2024-07-26T12:30:06Z</time>
      </trkpt>
      <trkpt lat="45.88645" lon="3.03695">
        <ele>535.5</ele>
        <time>2024-07-26T12:30:07Z</time>
      </trkpt>
      <trkpt lat="45.88645" lon="3.03693">
        <ele>536.7</ele>
        <time>2024-07-26T12:30:08Z</time>
      </trkpt>
      <trkpt lat="45.88645" lon="3.03691">
        <ele>536.3</ele>
        <time>2024-07-26T12:30:10Z</time>
      </trkpt>
      <trkpt lat="45.88643" lon="3.0369">
        <ele>536.7</ele>
        <time>2024-07-26T12:30:12Z</time>
      </trkpt>
      <trkpt lat="45.88642" lon="3.03689">
        <ele>536.7</ele>
        <time>2024-07-26T12:30:14Z</time>
      </trkpt>
      <trkpt lat="45.88642" lon="3.03686">
        <ele>536.6</ele>
        <time>2024-07-26T12:30:16Z</time>
      </trkpt>
      <trkpt lat="45.88641" lon="3.03685">
        <ele>536.3</ele>
        <time>2024-07-26T12:30:17Z</time>
      </trkpt>
      <trkpt lat="45.8864" lon="3.03683">
        <ele>535.8</ele>
        <time>2024-07-26T12:30:18Z</time>
      </trkpt>
      <trkpt lat="45.88639" lon="3.03681">
        <ele>535</ele>
        <time>2024-07-26T12:30:19Z</time>
      </trkpt>
      <trkpt lat="45.88638" lon="3.0368">
        <ele>535.3</ele>
        <time>2024-07-26T12:30:20Z</time>
      </trkpt>
      <trkpt lat="45.88638" lon="3.03678">
        <ele>535.9</ele>
        <time>2024-07-26T12:30:21Z</time>
      </trkpt>
      <trkpt lat="45.88638" lon="3.03676">
        <ele>536.2</ele>
        <time>2024-07-26T12:30:23Z</time>
      </trkpt>
      <trkpt lat="45.88637" lon="3.03675">
        <ele>536.4</ele>
        <time>2024-07-26T12:30:25Z</time>
      </trkpt>
      <trkpt lat="45.88636" lon="3.03673">
        <ele>535.7</ele>
        <time>2024-07-26T12:30:29Z</time>
      </trkpt>
      <trkpt lat="45.88637" lon="3.03673">
        <ele>536.9</ele>
        <time>2024-07-26T12:30:31Z</time>
      </trkpt>
      <trkpt lat="45.88638" lon="3.03671">
        <ele>537.4</ele>
        <time>2024-07-26T12:30:33Z</time>
      </trkpt>
      <trkpt lat="45.88637" lon="3.03671">
        <ele>537.5</ele>
        <time>2024-07-26T12:30:35Z</time>
      </trkpt>
      <trkpt lat="45.88635" lon="3.0367">
        <ele>539.5</ele>
        <time>2024-07-26T12:30:38Z</time>
      </trkpt>
      <trkpt lat="45.88634" lon="3.03668">
        <ele>541.9</ele>
        <time>2024-07-26T12:30:40Z</time>
      </trkpt>
      <trkpt lat="45.88634" lon="3.03666">
        <ele>542.1</ele>
        <time>2024-07-26T12:30:42Z</time>
      </trkpt>
      <trkpt lat="45.88634" lon="3.03665">
        <ele>544.1</ele>
        <time>2024-07-26T12:30:44Z</time>
      </trkpt>
      <trkpt lat="45.88634" lon="3.03663">
        <ele>545.1</ele>
        <time>2024-07-26T12:30:45Z</time>
      </trkpt>
      <trkpt lat="45.88633" lon="3.03661">
        <ele>544.1</ele>
        <time>2024-07-26T12:30:46Z</time>
      </trkpt>
      <trkpt lat="45.88633" lon="3.0366">
        <ele>544</ele>
        <time>2024-07-26T12:30:47Z</time>
      </trkpt>
      <trkpt lat="45.88634" lon="3.03659">
        <ele>545.1</ele>
        <time>2024-07-26T12:30:51Z</time>
      </trkpt>
      <trkpt lat="45.88635" lon="3.03659">
        <ele>544.9</ele>
        <time>2024-07-26T12:30:52Z</time>
      </trkpt>
      <trkpt lat="45.88636" lon="3.03658">
        <ele>549.1</ele>
        <time>2024-07-26T12:30:56Z</time>
      </trkpt>
      <trkpt lat="45.88636" lon="3.03655">
        <ele>555.1</ele>
        <time>2024-07-26T12:30:58Z</time>
      </trkpt>
      <trkpt lat="45.88633" lon="3.03651">
        <ele>549.4</ele>
        <time>2024-07-26T12:31:00Z</time>
      </trkpt>
      <trkpt lat="45.88632" lon="3.0365">
        <ele>548.2</ele>
        <time>2024-07-26T12:31:01Z</time>
      </trkpt>
      <trkpt lat="45.88631" lon="3.03648">
        <ele>553.1</ele>
        <time>2024-07-26T12:31:02Z</time>
      </trkpt>
      <trkpt lat="45.8863" lon="3.0365">
        <ele>558.5</ele>
        <time>2024-07-26T12:31:06Z</time>
      </trkpt>
      <trkpt lat="45.88629" lon="3.03652">
        <ele>557.2</ele>
        <time>2024-07-26T12:31:08Z</time>
      </trkpt>
      <trkpt lat="45.88627" lon="3.03654">
        <ele>554.3</ele>
        <time>2024-07-26T12:31:10Z</time>
      </trkpt>
      <trkpt lat="45.88626" lon="3.03654">
        <ele>551.5</ele>
        <time>2024-07-26T12:31:11Z</time>
      </trkpt>
      <trkpt lat="45.88625" lon="3.03653">
        <ele>551.5</ele>
        <time>2024-07-26T12:31:12Z</time>
      </trkpt>
      <trkpt lat="45.88623" lon="3.03652">
        <ele>550.3</ele>
        <time>2024-07-26T12:31:13Z</time>
      </trkpt>
      <trkpt lat="45.88622" lon="3.0365">
        <ele>548.5</ele>
        <time>2024-07-26T12:31:14Z</time>
      </trkpt>
      <trkpt lat="45.88622" lon="3.03648">
        <ele>544.7</ele>
        <time>2024-07-26T12:31:15Z</time>
      </trkpt>
      <trkpt lat="45.88621" lon="3.03646">
        <ele>539.8</ele>
        <time>2024-07-26T12:31:16Z</time>
      </trkpt>
      <trkpt lat="45.88621" lon="3.03644">
        <ele>541.7</ele>
        <time>2024-07-26T12:31:17Z</time>
      </trkpt>
      <trkpt lat="45.8862" lon="3.03641">
        <ele>539.7</ele>
        <time>2024-07-26T12:31:18Z</time>
      </trkpt>
      <trkpt lat="45.88619" lon="3.03639">
        <ele>537.3</ele>
        <time>2024-07-26T12:31:19Z</time>
      </trkpt>
      <trkpt lat="45.88618" lon="3.03638">
        <ele>536.4</ele>
        <time>2024-07-26T12:31:20Z</time>
      </trkpt>
      <trkpt lat="45.88617" lon="3.03638">
        <ele>535.8</ele>
        <time>2024-07-26T12:31:21Z</time>
      </trkpt>
      <trkpt lat="45.88615" lon="3.03637">
        <ele>534.9</ele>
        <time>2024-07-26T12:31:22Z</time>
      </trkpt>
      <trkpt lat="45.88614" lon="3.03636">
        <ele>533.9</ele>
        <time>2024-07-26T12:31:24Z</time>
      </trkpt>
      <trkpt lat="45.88613" lon="3.03635">
        <ele>531.7</ele>
        <time>2024-07-26T12:31:26Z</time>
      </trkpt>
      <trkpt lat="45.88611" lon="3.03634">
        <ele>533.6</ele>
        <time>2024-07-26T12:31:27Z</time>
      </trkpt>
      <trkpt lat="45.8861" lon="3.03633">
        <ele>537.5</ele>
        <time>2024-07-26T12:31:29Z</time>
      </trkpt>
      <trkpt lat="45.8861" lon="3.03631">
        <ele>537.3</ele>
        <time>2024-07-26T12:31:30Z</time>
      </trkpt>
      <trkpt lat="45.8861" lon="3.0363">
        <ele>538.8</ele>
        <time>2024-07-26T12:31:31Z</time>
      </trkpt>
      <trkpt lat="45.8861" lon="3.03628">
        <ele>540.2</ele>
        <time>2024-07-26T12:31:32Z</time>
      </trkpt>
      <trkpt lat="45.88609" lon="3.03627">
        <ele>540.3</ele>
        <time>2024-07-26T12:31:33Z</time>
      </trkpt>
      <trkpt lat="45.88609" lon="3.03625">
        <ele>539.1</ele>
        <time>2024-07-26T12:31:36Z</time>
      </trkpt>
      <trkpt lat="45.88609" lon="3.03623">
        <ele>539.9</ele>
        <time>2024-07-26T12:31:39Z</time>
      </trkpt>
      <trkpt lat="45.88609" lon="3.03621">
        <ele>539.6</ele>
        <time>2024-07-26T12:31:41Z</time>
      </trkpt>
      <trkpt lat="45.88607" lon="3.03621">
        <ele>539</ele>
        <time>2024-07-26T12:31:42Z</time>
      </trkpt>
      <trkpt lat="45.88606" lon="3.03621">
        <ele>538.5</ele>
        <time>2024-07-26T12:31:43Z</time>
      </trkpt>
      <trkpt lat="45.88605" lon="3.03621">
        <ele>537.8</ele>
        <time>2024-07-26T12:31:44Z</time>
      </trkpt>
      <trkpt lat="45.88604" lon="3.03622">
        <ele>537.6</ele>
        <time>2024-07-26T12:31:46Z</time>
      </trkpt>
      <trkpt lat="45.88604" lon="3.03623">
        <ele>539.4</ele>
        <time>2024-07-26T12:31:48Z</time>
      </trkpt>
      <trkpt lat="45.88605" lon="3.03624">
        <ele>538.8</ele>
        <time>2024-07-26T12:31:52Z</time>
      </trkpt>
      <trkpt lat="45.88604" lon="3.03622">
        <ele>542.9</ele>
        <time>2024-07-26T12:31:58Z</time>
      </trkpt>
      <trkpt lat="45.88604" lon="3.03621">
        <ele>544.7</ele>
        <time>2024-07-26T12:32:00Z</time>
      </trkpt>
      <trkpt lat="45.88603" lon="3.03621">
        <ele>547.5</ele>
        <time>2024-07-26T12:32:05Z</time>
      </trkpt>
      <trkpt lat="45.88601" lon="3.03621">
        <ele>547.9</ele>
        <time>2024-07-26T12:32:06Z</time>
      </trkpt>
      <trkpt lat="45.886" lon="3.03619">
        <ele>548.4</ele>
        <time>2024-07-26T12:32:08Z</time>
      </trkpt>
      <trkpt lat="45.88599" lon="3.03617">
        <ele>553.2</ele>
        <time>2024-07-26T12:32:10Z</time>
      </trkpt>
      <trkpt lat="45.88598" lon="3.03617">
        <ele>553.1</ele>
        <time>2024-07-26T12:32:11Z</time>
      </trkpt>
      <trkpt lat="45.88598" lon="3.03615">
        <ele>552.6</ele>
        <time>2024-07-26T12:32:12Z</time>
      </trkpt>
      <trkpt lat="45.88597" lon="3.03614">
        <ele>553.5</ele>
        <time>2024-07-26T12:32:13Z</time>
      </trkpt>
      <trkpt lat="45.88596" lon="3.03613">
        <ele>552.6</ele>
        <time>2024-07-26T12:32:14Z</time>
      </trkpt>
      <trkpt lat="45.88595" lon="3.03611">
        <ele>551.8</ele>
        <time>2024-07-26T12:32:16Z</time>
      </trkpt>
      <trkpt lat="45.88595" lon="3.03609">
        <ele>552.2</ele>
        <time>2024-07-26T12:32:17Z</time>
      </trkpt>
      <trkpt lat="45.88594" lon="3.03608">
        <ele>552.8</ele>
        <time>2024-07-26T12:32:18Z</time>
      </trkpt>
      <trkpt lat="45.88593" lon="3.03606">
        <ele>551.7</ele>
        <time>2024-07-26T12:32:19Z</time>
      </trkpt>
      <trkpt lat="45.88592" lon="3.03605">
        <ele>550.4</ele>
        <time>2024-07-26T12:32:21Z</time>
      </trkpt>
      <trkpt lat="45.88591" lon="3.03605">
        <ele>549.6</ele>
        <time>2024-07-26T12:32:22Z</time>
      </trkpt>
      <trkpt lat="45.88589" lon="3.03605">
        <ele>548.1</ele>
        <time>2024-07-26T12:32:24Z</time>
      </trkpt>
      <trkpt lat="45.88587" lon="3.03604">
        <ele>548.8</ele>
        <time>2024-07-26T12:32:26Z</time>
      </trkpt>
      <trkpt lat="45.88586" lon="3.03604">
        <ele>548.3</ele>
        <time>2024-07-26T12:32:27Z</time>
      </trkpt>
      <trkpt lat="45.88584" lon="3.03604">
        <ele>543.1</ele>
        <time>2024-07-26T12:32:30Z</time>
      </trkpt>
      <trkpt lat="45.88584" lon="3.03602">
        <ele>543</ele>
        <time>2024-07-26T12:32:32Z</time>
      </trkpt>
      <trkpt lat="45.88583" lon="3.03601">
        <ele>540.6</ele>
        <time>2024-07-26T12:32:34Z</time>
      </trkpt>
      <trkpt lat="45.88583" lon="3.03599">
        <ele>542.4</ele>
        <time>2024-07-26T12:32:36Z</time>
      </trkpt>
      <trkpt lat="45.88583" lon="3.03597">
        <ele>544.5</ele>
        <time>2024-07-26T12:32:38Z</time>
      </trkpt>
      <trkpt lat="45.88583" lon="3.03595">
        <ele>543.9</ele>
        <time>2024-07-26T12:32:40Z</time>
      </trkpt>
      <trkpt lat="45.88584" lon="3.03593">
        <ele>548.2</ele>
        <time>2024-07-26T12:32:42Z</time>
      </trkpt>
      <trkpt lat="45.88584" lon="3.03591">
        <ele>549.7</ele>
        <time>2024-07-26T12:32:44Z</time>
      </trkpt>
      <trkpt lat="45.88583" lon="3.03589">
        <ele>547.9</ele>
        <time>2024-07-26T12:32:47Z</time>
      </trkpt>
      <trkpt lat="45.88583" lon="3.03587">
        <ele>546.7</ele>
        <time>2024-07-26T12:32:48Z</time>
      </trkpt>
      <trkpt lat="45.88582" lon="3.03586">
        <ele>550.3</ele>
        <time>2024-07-26T12:32:49Z</time>
      </trkpt>
      <trkpt lat="45.88582" lon="3.03584">
        <ele>555.6</ele>
        <time>2024-07-26T12:32:51Z</time>
      </trkpt>
      <trkpt lat="45.8858" lon="3.03582">
        <ele>555</ele>
        <time>2024-07-26T12:32:52Z</time>
      </trkpt>
      <trkpt lat="45.8858" lon="3.03581">
        <ele>557.5</ele>
        <time>2024-07-26T12:32:53Z</time>
      </trkpt>
      <trkpt lat="45.88579" lon="3.03579">
        <ele>559.7</ele>
        <time>2024-07-26T12:32:55Z</time>
      </trkpt>
      <trkpt lat="45.88578" lon="3.03578">
        <ele>559.8</ele>
        <time>2024-07-26T12:32:57Z</time>
      </trkpt>
      <trkpt lat="45.88577" lon="3.03575">
        <ele>556.5</ele>
        <time>2024-07-26T12:32:59Z</time>
      </trkpt>
      <trkpt lat="45.88576" lon="3.03574">
        <ele>558.4</ele>
        <time>2024-07-26T12:33:01Z</time>
      </trkpt>
      <trkpt lat="45.88576" lon="3.03572">
        <ele>564.4</ele>
        <time>2024-07-26T12:33:03Z</time>
      </trkpt>
      <trkpt lat="45.88576" lon="3.03569">
        <ele>566.3</ele>
        <time>2024-07-26T12:33:05Z</time>
      </trkpt>
      <trkpt lat="45.88576" lon="3.03568">
        <ele>566.6</ele>
        <time>2024-07-26T12:33:06Z</time>
      </trkpt>
      <trkpt lat="45.88577" lon="3.03567">
        <ele>561.8</ele>
        <time>2024-07-26T12:33:08Z</time>
      </trkpt>
      <trkpt lat="45.88577" lon="3.03569">
        <ele>564.5</ele>
        <time>2024-07-26T12:33:13Z</time>
      </trkpt>
      <trkpt lat="45.88576" lon="3.03569">
        <ele>561.9</ele>
        <time>2024-07-26T12:33:14Z</time>
      </trkpt>
      <trkpt lat="45.88575" lon="3.03568">
        <ele>562.6</ele>
        <time>2024-07-26T12:33:17Z</time>
      </trkpt>
      <trkpt lat="45.88575" lon="3.03566">
        <ele>559.7</ele>
        <time>2024-07-26T12:33:19Z</time>
      </trkpt>
      <trkpt lat="45.88575" lon="3.03564">
        <ele>562.7</ele>
        <time>2024-07-26T12:33:20Z</time>
      </trkpt>
      <trkpt lat="45.88575" lon="3.03563">
        <ele>564.2</ele>
        <time>2024-07-26T12:33:21Z</time>
      </trkpt>
      <trkpt lat="45.88575" lon="3.03561">
        <ele>565.1</ele>
        <time>2024-07-26T12:33:22Z</time>
      </trkpt>
      <trkpt lat="45.88574" lon="3.03559">
        <ele>562.8</ele>
        <time>2024-07-26T12:33:24Z</time>
      </trkpt>
      <trkpt lat="45.88574" lon="3.03558">
        <ele>564.8</ele>
        <time>2024-07-26T12:33:27Z</time>
      </trkpt>
      <trkpt lat="45.88573" lon="3.03557">
        <ele>564.9</ele>
        <time>2024-07-26T12:33:30Z</time>
      </trkpt>
      <trkpt lat="45.88572" lon="3.03556">
        <ele>563.3</ele>
        <time>2024-07-26T12:33:31Z</time>
      </trkpt>
      <trkpt lat="45.88572" lon="3.03555">
        <ele>562.4</ele>
        <time>2024-07-26T12:33:32Z</time>
      </trkpt>
      <trkpt lat="45.88572" lon="3.03553">
        <ele>566.2</ele>
        <time>2024-07-26T12:33:33Z</time>
      </trkpt>
      <trkpt lat="45.8857" lon="3.03553">
        <ele>569</ele>
        <time>2024-07-26T12:33:38Z</time>
      </trkpt>
      <trkpt lat="45.88569" lon="3.03552">
        <ele>572.6</ele>
        <time>2024-07-26T12:33:41Z</time>
      </trkpt>
      <trkpt lat="45.88568" lon="3.0355">
        <ele>572.1</ele>
        <time>2024-07-26T12:33:43Z</time>
      </trkpt>
      <trkpt lat="45.88567" lon="3.0355">
        <ele>570</ele>
        <time>2024-07-26T12:33:45Z</time>
      </trkpt>
      <trkpt lat="45.88565" lon="3.03551">
        <ele>569.3</ele>
        <time>2024-07-26T12:33:46Z</time>
      </trkpt>
      <trkpt lat="45.88563" lon="3.03551">
        <ele>569.1</ele>
        <time>2024-07-26T12:33:47Z</time>
      </trkpt>
      <trkpt lat="45.88563" lon="3.03549">
        <ele>572.5</ele>
        <time>2024-07-26T12:33:49Z</time>
      </trkpt>
      <trkpt lat="45.88561" lon="3.03549">
        <ele>571.6</ele>
        <time>2024-07-26T12:33:50Z</time>
      </trkpt>
      <trkpt lat="45.88558" lon="3.03548">
        <ele>571.4</ele>
        <time>2024-07-26T12:33:52Z</time>
      </trkpt>
      <trkpt lat="45.88558" lon="3.0355">
        <ele>569.6</ele>
        <time>2024-07-26T12:33:56Z</time>
      </trkpt>
      <trkpt lat="45.88557" lon="3.03548">
        <ele>563.5</ele>
        <time>2024-07-26T12:33:59Z</time>
      </trkpt>
      <trkpt lat="45.88557" lon="3.03547">
        <ele>562.2</ele>
        <time>2024-07-26T12:34:00Z</time>
      </trkpt>
      <trkpt lat="45.88558" lon="3.03545">
        <ele>565.4</ele>
        <time>2024-07-26T12:34:01Z</time>
      </trkpt>
      <trkpt lat="45.88559" lon="3.03544">
        <ele>564</ele>
        <time>2024-07-26T12:34:02Z</time>
      </trkpt>
      <trkpt lat="45.8856" lon="3.03542">
        <ele>564.1</ele>
        <time>2024-07-26T12:34:03Z</time>
      </trkpt>
      <trkpt lat="45.8856" lon="3.03541">
        <ele>565</ele>
        <time>2024-07-26T12:34:04Z</time>
      </trkpt>
      <trkpt lat="45.88561" lon="3.03539">
        <ele>563.1</ele>
        <time>2024-07-26T12:34:06Z</time>
      </trkpt>
      <trkpt lat="45.88562" lon="3.03538">
        <ele>559.7</ele>
        <time>2024-07-26T12:34:07Z</time>
      </trkpt>
      <trkpt lat="45.88562" lon="3.03536">
        <ele>558.3</ele>
        <time>2024-07-26T12:34:08Z</time>
      </trkpt>
      <trkpt lat="45.88562" lon="3.03535">
        <ele>556.9</ele>
        <time>2024-07-26T12:34:09Z</time>
      </trkpt>
      <trkpt lat="45.88563" lon="3.03533">
        <ele>563</ele>
        <time>2024-07-26T12:34:10Z</time>
      </trkpt>
      <trkpt lat="45.88564" lon="3.03532">
        <ele>561.8</ele>
        <time>2024-07-26T12:34:11Z</time>
      </trkpt>
      <trkpt lat="45.88565" lon="3.03531">
        <ele>560.7</ele>
        <time>2024-07-26T12:34:12Z</time>
      </trkpt>
      <trkpt lat="45.88566" lon="3.03529">
        <ele>560.2</ele>
        <time>2024-07-26T12:34:13Z</time>
      </trkpt>
      <trkpt lat="45.88567" lon="3.03528">
        <ele>560.3</ele>
        <time>2024-07-26T12:34:14Z</time>
      </trkpt>
      <trkpt lat="45.88567" lon="3.03526">
        <ele>563.8</ele>
        <time>2024-07-26T12:34:16Z</time>
      </trkpt>
      <trkpt lat="45.88567" lon="3.03524">
        <ele>560.4</ele>
        <time>2024-07-26T12:34:17Z</time>
      </trkpt>
      <trkpt lat="45.88567" lon="3.03522">
        <ele>560</ele>
        <time>2024-07-26T12:34:18Z</time>
      </trkpt>
      <trkpt lat="45.88567" lon="3.0352">
        <ele>562.5</ele>
        <time>2024-07-26T12:34:19Z</time>
      </trkpt>
      <trkpt lat="45.88566" lon="3.03518">
        <ele>565.6</ele>
        <time>2024-07-26T12:34:20Z</time>
      </trkpt>
      <trkpt lat="45.88565" lon="3.03517">
        <ele>565.2</ele>
        <time>2024-07-26T12:34:21Z</time>
      </trkpt>
      <trkpt lat="45.88566" lon="3.03516">
        <ele>563.6</ele>
        <time>2024-07-26T12:34:23Z</time>
      </trkpt>
      <trkpt lat="45.88567" lon="3.03514">
        <ele>562.7</ele>
        <time>2024-07-26T12:34:25Z</time>
      </trkpt>
      <trkpt lat="45.88567" lon="3.03512">
        <ele>561.3</ele>
        <time>2024-07-26T12:34:27Z</time>
      </trkpt>
      <trkpt lat="45.88568" lon="3.0351">
        <ele>563.6</ele>
        <time>2024-07-26T12:34:29Z</time>
      </trkpt>
      <trkpt lat="45.88568" lon="3.03509">
        <ele>563.5</ele>
        <time>2024-07-26T12:34:30Z</time>
      </trkpt>
      <trkpt lat="45.88569" lon="3.03508">
        <ele>563</ele>
        <time>2024-07-26T12:34:31Z</time>
      </trkpt>
      <trkpt lat="45.8857" lon="3.03507">
        <ele>563.3</ele>
        <time>2024-07-26T12:34:33Z</time>
      </trkpt>
      <trkpt lat="45.88571" lon="3.03505">
        <ele>566.9</ele>
        <time>2024-07-26T12:34:35Z</time>
      </trkpt>
      <trkpt lat="45.88569" lon="3.03503">
        <ele>563.2</ele>
        <time>2024-07-26T12:34:37Z</time>
      </trkpt>
      <trkpt lat="45.88568" lon="3.03502">
        <ele>562.5</ele>
        <time>2024-07-26T12:34:38Z</time>
      </trkpt>
      <trkpt lat="45.88567" lon="3.035">
        <ele>564.9</ele>
        <time>2024-07-26T12:34:40Z</time>
      </trkpt>
      <trkpt lat="45.88566" lon="3.03499">
        <ele>563.1</ele>
        <time>2024-07-26T12:34:42Z</time>
      </trkpt>
      <trkpt lat="45.88565" lon="3.03498">
        <ele>562.8</ele>
        <time>2024-07-26T12:34:43Z</time>
      </trkpt>
      <trkpt lat="45.88564" lon="3.03497">
        <ele>562.6</ele>
        <time>2024-07-26T12:34:45Z</time>
      </trkpt>
      <trkpt lat="45.88563" lon="3.03496">
        <ele>561.3</ele>
        <time>2024-07-26T12:34:47Z</time>
      </trkpt>
      <trkpt lat="45.88562" lon="3.03495">
        <ele>560.7</ele>
        <time>2024-07-26T12:34:48Z</time>
      </trkpt>
      <trkpt lat="45.88561" lon="3.03494">
        <ele>561.3</ele>
        <time>2024-07-26T12:34:50Z</time>
      </trkpt>
      <trkpt lat="45.88561" lon="3.03495">
        <ele>560.4</ele>
        <time>2024-07-26T12:34:53Z</time>
      </trkpt>
      <trkpt lat="45.88559" lon="3.03495">
        <ele>561.6</ele>
        <time>2024-07-26T12:34:55Z</time>
      </trkpt>
      <trkpt lat="45.88558" lon="3.03495">
        <ele>560.9</ele>
        <time>2024-07-26T12:34:56Z</time>
      </trkpt>
      <trkpt lat="45.88557" lon="3.03494">
        <ele>559.7</ele>
        <time>2024-07-26T12:34:57Z</time>
      </trkpt>
      <trkpt lat="45.88556" lon="3.03494">
        <ele>558.7</ele>
        <time>2024-07-26T12:34:59Z</time>
      </trkpt>
      <trkpt lat="45.88555" lon="3.03492">
        <ele>556.7</ele>
        <time>2024-07-26T12:35:01Z</time>
      </trkpt>
      <trkpt lat="45.88554" lon="3.03491">
        <ele>556</ele>
        <time>2024-07-26T12:35:06Z</time>
      </trkpt>
      <trkpt lat="45.88554" lon="3.0349">
        <ele>554.4</ele>
        <time>2024-07-26T12:35:09Z</time>
      </trkpt>
      <trkpt lat="45.88555" lon="3.03489">
        <ele>559.5</ele>
        <time>2024-07-26T12:35:11Z</time>
      </trkpt>
      <trkpt lat="45.88555" lon="3.03487">
        <ele>559.1</ele>
        <time>2024-07-26T12:35:14Z</time>
      </trkpt>
      <trkpt lat="45.88556" lon="3.03485">
        <ele>557.2</ele>
        <time>2024-07-26T12:35:16Z</time>
      </trkpt>
      <trkpt lat="45.88557" lon="3.03484">
        <ele>556.4</ele>
        <time>2024-07-26T12:35:18Z</time>
      </trkpt>
      <trkpt lat="45.88558" lon="3.03482">
        <ele>557.3</ele>
        <time>2024-07-26T12:35:20Z</time>
      </trkpt>
      <trkpt lat="45.88559" lon="3.03481">
        <ele>558.9</ele>
        <time>2024-07-26T12:35:21Z</time>
      </trkpt>
      <trkpt lat="45.8856" lon="3.0348">
        <ele>557.9</ele>
        <time>2024-07-26T12:35:22Z</time>
      </trkpt>
      <trkpt lat="45.88561" lon="3.03479">
        <ele>558.6</ele>
        <time>2024-07-26T12:35:24Z</time>
      </trkpt>
      <trkpt lat="45.88561" lon="3.03478">
        <ele>560.4</ele>
        <time>2024-07-26T12:35:25Z</time>
      </trkpt>
      <trkpt lat="45.88562" lon="3.03477">
        <ele>562</ele>
        <time>2024-07-26T12:35:27Z</time>
      </trkpt>
      <trkpt lat="45.88561" lon="3.03477">
        <ele>562.4</ele>
        <time>2024-07-26T12:35:28Z</time>
      </trkpt>
      <trkpt lat="45.8856" lon="3.03476">
        <ele>563.8</ele>
        <time>2024-07-26T12:35:29Z</time>
      </trkpt>
      <trkpt lat="45.88558" lon="3.03476">
        <ele>565.5</ele>
        <time>2024-07-26T12:35:30Z</time>
      </trkpt>
      <trkpt lat="45.88554" lon="3.03475">
        <ele>557.4</ele>
        <time>2024-07-26T12:35:33Z</time>
      </trkpt>
      <trkpt lat="45.88552" lon="3.03474">
        <ele>557.9</ele>
        <time>2024-07-26T12:35:34Z</time>
      </trkpt>
      <trkpt lat="45.88551" lon="3.03474">
        <ele>559</ele>
        <time>2024-07-26T12:35:36Z</time>
      </trkpt>
      <trkpt lat="45.88552" lon="3.03473">
        <ele>561.7</ele>
        <time>2024-07-26T12:35:39Z</time>
      </trkpt>
      <trkpt lat="45.88553" lon="3.03472">
        <ele>562</ele>
        <time>2024-07-26T12:35:40Z</time>
      </trkpt>
      <trkpt lat="45.88554" lon="3.03472">
        <ele>562.2</ele>
        <time>2024-07-26T12:35:42Z</time>
      </trkpt>
      <trkpt lat="45.88554" lon="3.0347">
        <ele>565.7</ele>
        <time>2024-07-26T12:35:45Z</time>
      </trkpt>
      <trkpt lat="45.88555" lon="3.03469">
        <ele>564.2</ele>
        <time>2024-07-26T12:35:47Z</time>
      </trkpt>
      <trkpt lat="45.88556" lon="3.0347">
        <ele>562.6</ele>
        <time>2024-07-26T12:35:48Z</time>
      </trkpt>
      <trkpt lat="45.88557" lon="3.0347">
        <ele>562.4</ele>
        <time>2024-07-26T12:35:49Z</time>
      </trkpt>
      <trkpt lat="45.88559" lon="3.03472">
        <ele>562.7</ele>
        <time>2024-07-26T12:35:50Z</time>
      </trkpt>
      <trkpt lat="45.88561" lon="3.03471">
        <ele>561.8</ele>
        <time>2024-07-26T12:35:52Z</time>
      </trkpt>
      <trkpt lat="45.88561" lon="3.0347">
        <ele>559.8</ele>
        <time>2024-07-26T12:35:53Z</time>
      </trkpt>
      <trkpt lat="45.88562" lon="3.03467">
        <ele>558.7</ele>
        <time>2024-07-26T12:35:55Z</time>
      </trkpt>
      <trkpt lat="45.88562" lon="3.03465">
        <ele>560.7</ele>
        <time>2024-07-26T12:35:57Z</time>
      </trkpt>
      <trkpt lat="45.88563" lon="3.03461">
        <ele>557.2</ele>
        <time>2024-07-26T12:36:00Z</time>
      </trkpt>
      <trkpt lat="45.88563" lon="3.03458">
        <ele>556.4</ele>
        <time>2024-07-26T12:36:02Z</time>
      </trkpt>
      <trkpt lat="45.88563" lon="3.03457">
        <ele>556.4</ele>
        <time>2024-07-26T12:36:03Z</time>
      </trkpt>
      <trkpt lat="45.88562" lon="3.03455">
        <ele>553.4</ele>
        <time>2024-07-26T12:36:04Z</time>
      </trkpt>
      <trkpt lat="45.88561" lon="3.03453">
        <ele>554.3</ele>
        <time>2024-07-26T12:36:05Z</time>
      </trkpt>
      <trkpt lat="45.8856" lon="3.03451">
        <ele>554.3</ele>
        <time>2024-07-26T12:36:06Z</time>
      </trkpt>
      <trkpt lat="45.88559" lon="3.03449">
        <ele>553.3</ele>
        <time>2024-07-26T12:36:07Z</time>
      </trkpt>
      <trkpt lat="45.88559" lon="3.03448">
        <ele>552.3</ele>
        <time>2024-07-26T12:36:08Z</time>
      </trkpt>
      <trkpt lat="45.88558" lon="3.03447">
        <ele>552.8</ele>
        <time>2024-07-26T12:36:09Z</time>
      </trkpt>
      <trkpt lat="45.88557" lon="3.03445">
        <ele>554.3</ele>
        <time>2024-07-26T12:36:10Z</time>
      </trkpt>
      <trkpt lat="45.88556" lon="3.03444">
        <ele>553.1</ele>
        <time>2024-07-26T12:36:12Z</time>
      </trkpt>
      <trkpt lat="45.88557" lon="3.03443">
        <ele>551.1</ele>
        <time>2024-07-26T12:36:15Z</time>
      </trkpt>
      <trkpt lat="45.88557" lon="3.03441">
        <ele>551.9</ele>
        <time>2024-07-26T12:36:17Z</time>
      </trkpt>
      <trkpt lat="45.88556" lon="3.0344">
        <ele>551.5</ele>
        <time>2024-07-26T12:36:19Z</time>
      </trkpt>
      <trkpt lat="45.88555" lon="3.03438">
        <ele>552</ele>
        <time>2024-07-26T12:36:20Z</time>
      </trkpt>
      <trkpt lat="45.88554" lon="3.03437">
        <ele>552.5</ele>
        <time>2024-07-26T12:36:22Z</time>
      </trkpt>
      <trkpt lat="45.88554" lon="3.03435">
        <ele>551</ele>
        <time>2024-07-26T12:36:24Z</time>
      </trkpt>
      <trkpt lat="45.88554" lon="3.03434">
        <ele>550.6</ele>
        <time>2024-07-26T12:36:27Z</time>
      </trkpt>
      <trkpt lat="45.88555" lon="3.03432">
        <ele>551.3</ele>
        <time>2024-07-26T12:36:30Z</time>
      </trkpt>
      <trkpt lat="45.88554" lon="3.0343">
        <ele>551.5</ele>
        <time>2024-07-26T12:36:31Z</time>
      </trkpt>
      <trkpt lat="45.88555" lon="3.03429">
        <ele>551</ele>
        <time>2024-07-26T12:36:33Z</time>
      </trkpt>
      <trkpt lat="45.88556" lon="3.03428">
        <ele>553</ele>
        <time>2024-07-26T12:36:36Z</time>
      </trkpt>
      <trkpt lat="45.88556" lon="3.03429">
        <ele>553.7</ele>
        <time>2024-07-26T12:36:38Z</time>
      </trkpt>
      <trkpt lat="45.88558" lon="3.0343">
        <ele>555.9</ele>
        <time>2024-07-26T12:36:42Z</time>
      </trkpt>
      <trkpt lat="45.88559" lon="3.03428">
        <ele>553.2</ele>
        <time>2024-07-26T12:36:44Z</time>
      </trkpt>
      <trkpt lat="45.88559" lon="3.03426">
        <ele>552.9</ele>
        <time>2024-07-26T12:36:45Z</time>
      </trkpt>
      <trkpt lat="45.88559" lon="3.03425">
        <ele>553.3</ele>
        <time>2024-07-26T12:36:46Z</time>
      </trkpt>
      <trkpt lat="45.88558" lon="3.03422">
        <ele>554.5</ele>
        <time>2024-07-26T12:36:48Z</time>
      </trkpt>
      <trkpt lat="45.88557" lon="3.03421">
        <ele>556.2</ele>
        <time>2024-07-26T12:36:50Z</time>
      </trkpt>
      <trkpt lat="45.88556" lon="3.0342">
        <ele>558.7</ele>
        <time>2024-07-26T12:36:52Z</time>
      </trkpt>
      <trkpt lat="45.88554" lon="3.03421">
        <ele>559.5</ele>
        <time>2024-07-26T12:36:55Z</time>
      </trkpt>
      <trkpt lat="45.88553" lon="3.03419">
        <ele>559.1</ele>
        <time>2024-07-26T12:36:56Z</time>
      </trkpt>
      <trkpt lat="45.88553" lon="3.03418">
        <ele>559.1</ele>
        <time>2024-07-26T12:36:57Z</time>
      </trkpt>
      <trkpt lat="45.88552" lon="3.03416">
        <ele>558.9</ele>
        <time>2024-07-26T12:36:58Z</time>
      </trkpt>
      <trkpt lat="45.88552" lon="3.03414">
        <ele>560.1</ele>
        <time>2024-07-26T12:37:00Z</time>
      </trkpt>
      <trkpt lat="45.88554" lon="3.03412">
        <ele>555.4</ele>
        <time>2024-07-26T12:37:02Z</time>
      </trkpt>
      <trkpt lat="45.88555" lon="3.03411">
        <ele>557.2</ele>
        <time>2024-07-26T12:37:03Z</time>
      </trkpt>
      <trkpt lat="45.88556" lon="3.0341">
        <ele>554</ele>
        <time>2024-07-26T12:37:07Z</time>
      </trkpt>
      <trkpt lat="45.88557" lon="3.03409">
        <ele>556.3</ele>
        <time>2024-07-26T12:37:09Z</time>
      </trkpt>
      <trkpt lat="45.88558" lon="3.03407">
        <ele>563</ele>
        <time>2024-07-26T12:37:11Z</time>
      </trkpt>
      <trkpt lat="45.88559" lon="3.03406">
        <ele>561.6</ele>
        <time>2024-07-26T12:37:13Z</time>
      </trkpt>
      <trkpt lat="45.88558" lon="3.03405">
        <ele>564.7</ele>
        <time>2024-07-26T12:37:15Z</time>
      </trkpt>
      <trkpt lat="45.88556" lon="3.03405">
        <ele>563.7</ele>
        <time>2024-07-26T12:37:16Z</time>
      </trkpt>
      <trkpt lat="45.88555" lon="3.03406">
        <ele>564.4</ele>
        <time>2024-07-26T12:37:17Z</time>
      </trkpt>
      <trkpt lat="45.88554" lon="3.03407">
        <ele>567</ele>
        <time>2024-07-26T12:37:18Z</time>
      </trkpt>
      <trkpt lat="45.88553" lon="3.03407">
        <ele>567.8</ele>
        <time>2024-07-26T12:37:19Z</time>
      </trkpt>
      <trkpt lat="45.88552" lon="3.03406">
        <ele>575.8</ele>
        <time>2024-07-26T12:37:21Z</time>
      </trkpt>
      <trkpt lat="45.88553" lon="3.03405">
        <ele>577.5</ele>
        <time>2024-07-26T12:37:27Z</time>
      </trkpt>
      <trkpt lat="45.88553" lon="3.03404">
        <ele>576.2</ele>
        <time>2024-07-26T12:37:28Z</time>
      </trkpt>
      <trkpt lat="45.88554" lon="3.03402">
        <ele>575.9</ele>
        <time>2024-07-26T12:37:30Z</time>
      </trkpt>
      <trkpt lat="45.88555" lon="3.03401">
        <ele>574.2</ele>
        <time>2024-07-26T12:37:32Z</time>
      </trkpt>
      <trkpt lat="45.88555" lon="3.034">
        <ele>572.9</ele>
        <time>2024-07-26T12:37:34Z</time>
      </trkpt>
      <trkpt lat="45.88554" lon="3.03399">
        <ele>573.8</ele>
        <time>2024-07-26T12:37:36Z</time>
      </trkpt>
      <trkpt lat="45.88553" lon="3.03397">
        <ele>570.8</ele>
        <time>2024-07-26T12:37:38Z</time>
      </trkpt>
      <trkpt lat="45.88553" lon="3.03396">
        <ele>569.4</ele>
        <time>2024-07-26T12:37:40Z</time>
      </trkpt>
      <trkpt lat="45.88552" lon="3.03395">
        <ele>566.3</ele>
        <time>2024-07-26T12:37:42Z</time>
      </trkpt>
      <trkpt lat="45.88551" lon="3.03393">
        <ele>566.1</ele>
        <time>2024-07-26T12:37:43Z</time>
      </trkpt>
      <trkpt lat="45.88551" lon="3.03392">
        <ele>563.9</ele>
        <time>2024-07-26T12:37:44Z</time>
      </trkpt>
      <trkpt lat="45.88551" lon="3.0339">
        <ele>561</ele>
        <time>2024-07-26T12:37:45Z</time>
      </trkpt>
      <trkpt lat="45.88551" lon="3.03389">
        <ele>559.8</ele>
        <time>2024-07-26T12:37:46Z</time>
      </trkpt>
      <trkpt lat="45.8855" lon="3.03388">
        <ele>558.4</ele>
        <time>2024-07-26T12:37:47Z</time>
      </trkpt>
      <trkpt lat="45.8855" lon="3.03386">
        <ele>563.5</ele>
        <time>2024-07-26T12:37:48Z</time>
      </trkpt>
      <trkpt lat="45.8855" lon="3.03385">
        <ele>564.6</ele>
        <time>2024-07-26T12:37:50Z</time>
      </trkpt>
      <trkpt lat="45.8855" lon="3.03383">
        <ele>569</ele>
        <time>2024-07-26T12:37:52Z</time>
      </trkpt>
      <trkpt lat="45.88549" lon="3.03381">
        <ele>571.6</ele>
        <time>2024-07-26T12:37:54Z</time>
      </trkpt>
      <trkpt lat="45.88547" lon="3.0338">
        <ele>569.8</ele>
        <time>2024-07-26T12:37:56Z</time>
      </trkpt>
      <trkpt lat="45.88546" lon="3.0338">
        <ele>567.3</ele>
        <time>2024-07-26T12:37:57Z</time>
      </trkpt>
      <trkpt lat="45.88545" lon="3.0338">
        <ele>563.9</ele>
        <time>2024-07-26T12:37:58Z</time>
      </trkpt>
      <trkpt lat="45.88544" lon="3.03381">
        <ele>563.7</ele>
        <time>2024-07-26T12:37:59Z</time>
      </trkpt>
      <trkpt lat="45.88543" lon="3.03381">
        <ele>563.2</ele>
        <time>2024-07-26T12:38:00Z</time>
      </trkpt>
      <trkpt lat="45.88543" lon="3.03378">
        <ele>564.8</ele>
        <time>2024-07-26T12:38:03Z</time>
      </trkpt>
      <trkpt lat="45.88543" lon="3.03377">
        <ele>565.3</ele>
        <time>2024-07-26T12:38:04Z</time>
      </trkpt>
      <trkpt lat="45.88544" lon="3.03375">
        <ele>564</ele>
        <time>2024-07-26T12:38:05Z</time>
      </trkpt>
      <trkpt lat="45.88544" lon="3.03373">
        <ele>564.8</ele>
        <time>2024-07-26T12:38:06Z</time>
      </trkpt>
      <trkpt lat="45.88544" lon="3.03371">
        <ele>564.8</ele>
        <time>2024-07-26T12:38:08Z</time>
      </trkpt>
      <trkpt lat="45.88543" lon="3.0337">
        <ele>561.3</ele>
        <time>2024-07-26T12:38:11Z</time>
      </trkpt>
      <trkpt lat="45.88542" lon="3.03369">
        <ele>561.8</ele>
        <time>2024-07-26T12:38:13Z</time>
      </trkpt>
      <trkpt lat="45.88543" lon="3.03371">
        <ele>559.1</ele>
        <time>2024-07-26T12:38:18Z</time>
      </trkpt>
      <trkpt lat="45.88542" lon="3.0337">
        <ele>555.5</ele>
        <time>2024-07-26T12:38:21Z</time>
      </trkpt>
      <trkpt lat="45.88541" lon="3.03369">
        <ele>558.1</ele>
        <time>2024-07-26T12:38:23Z</time>
      </trkpt>
      <trkpt lat="45.88541" lon="3.03366">
        <ele>558.9</ele>
        <time>2024-07-26T12:38:24Z</time>
      </trkpt>
      <trkpt lat="45.88541" lon="3.03365">
        <ele>554.9</ele>
        <time>2024-07-26T12:38:25Z</time>
      </trkpt>
      <trkpt lat="45.88542" lon="3.03364">
        <ele>554.7</ele>
        <time>2024-07-26T12:38:26Z</time>
      </trkpt>
      <trkpt lat="45.88543" lon="3.03364">
        <ele>556.9</ele>
        <time>2024-07-26T12:38:28Z</time>
      </trkpt>
      <trkpt lat="45.88544" lon="3.03363">
        <ele>557.9</ele>
        <time>2024-07-26T12:38:30Z</time>
      </trkpt>
      <trkpt lat="45.88546" lon="3.03362">
        <ele>556.2</ele>
        <time>2024-07-26T12:38:32Z</time>
      </trkpt>
      <trkpt lat="45.88547" lon="3.03359">
        <ele>556.9</ele>
        <time>2024-07-26T12:38:34Z</time>
      </trkpt>
      <trkpt lat="45.88547" lon="3.03357">
        <ele>556.9</ele>
        <time>2024-07-26T12:38:35Z</time>
      </trkpt>
      <trkpt lat="45.88547" lon="3.03355">
        <ele>555.3</ele>
        <time>2024-07-26T12:38:36Z</time>
      </trkpt>
      <trkpt lat="45.88546" lon="3.03354">
        <ele>557.9</ele>
        <time>2024-07-26T12:38:39Z</time>
      </trkpt>
      <trkpt lat="45.88544" lon="3.03354">
        <ele>557.9</ele>
        <time>2024-07-26T12:38:40Z</time>
      </trkpt>
      <trkpt lat="45.88543" lon="3.03354">
        <ele>556.2</ele>
        <time>2024-07-26T12:38:42Z</time>
      </trkpt>
      <trkpt lat="45.88541" lon="3.03353">
        <ele>554.7</ele>
        <time>2024-07-26T12:38:44Z</time>
      </trkpt>
      <trkpt lat="45.8854" lon="3.03353">
        <ele>553</ele>
        <time>2024-07-26T12:38:45Z</time>
      </trkpt>
      <trkpt lat="45.88539" lon="3.03352">
        <ele>555.4</ele>
        <time>2024-07-26T12:38:46Z</time>
      </trkpt>
      <trkpt lat="45.88538" lon="3.03351">
        <ele>555.7</ele>
        <time>2024-07-26T12:38:47Z</time>
      </trkpt>
      <trkpt lat="45.88538" lon="3.03348">
        <ele>557.2</ele>
        <time>2024-07-26T12:38:48Z</time>
      </trkpt>
      <trkpt lat="45.88539" lon="3.03345">
        <ele>557.6</ele>
        <time>2024-07-26T12:38:49Z</time>
      </trkpt>
      <trkpt lat="45.8854" lon="3.03343">
        <ele>559.2</ele>
        <time>2024-07-26T12:38:50Z</time>
      </trkpt>
      <trkpt lat="45.88541" lon="3.03341">
        <ele>561.5</ele>
        <time>2024-07-26T12:38:51Z</time>
      </trkpt>
      <trkpt lat="45.88541" lon="3.0334">
        <ele>563.4</ele>
        <time>2024-07-26T12:38:54Z</time>
      </trkpt>
      <trkpt lat="45.88541" lon="3.03339">
        <ele>561.9</ele>
        <time>2024-07-26T12:38:55Z</time>
      </trkpt>
      <trkpt lat="45.88542" lon="3.03336">
        <ele>560.8</ele>
        <time>2024-07-26T12:38:57Z</time>
      </trkpt>
      <trkpt lat="45.88542" lon="3.03334">
        <ele>560</ele>
        <time>2024-07-26T12:38:58Z</time>
      </trkpt>
      <trkpt lat="45.88541" lon="3.03333">
        <ele>563.7</ele>
        <time>2024-07-26T12:38:59Z</time>
      </trkpt>
      <trkpt lat="45.88541" lon="3.03332">
        <ele>564.6</ele>
        <time>2024-07-26T12:39:01Z</time>
      </trkpt>
      <trkpt lat="45.8854" lon="3.03331">
        <ele>568.3</ele>
        <time>2024-07-26T12:39:02Z</time>
      </trkpt>
      <trkpt lat="45.88538" lon="3.03331">
        <ele>569.6</ele>
        <time>2024-07-26T12:39:03Z</time>
      </trkpt>
      <trkpt lat="45.88537" lon="3.03331">
        <ele>566.7</ele>
        <time>2024-07-26T12:39:05Z</time>
      </trkpt>
      <trkpt lat="45.88536" lon="3.03333">
        <ele>566.1</ele>
        <time>2024-07-26T12:39:07Z</time>
      </trkpt>
      <trkpt lat="45.88536" lon="3.0333">
        <ele>573.1</ele>
        <time>2024-07-26T12:39:09Z</time>
      </trkpt>
      <trkpt lat="45.88537" lon="3.03328">
        <ele>573.7</ele>
        <time>2024-07-26T12:39:10Z</time>
      </trkpt>
      <trkpt lat="45.88538" lon="3.03327">
        <ele>572.9</ele>
        <time>2024-07-26T12:39:11Z</time>
      </trkpt>
      <trkpt lat="45.8854" lon="3.03326">
        <ele>574.1</ele>
        <time>2024-07-26T12:39:13Z</time>
      </trkpt>
      <trkpt lat="45.88541" lon="3.03326">
        <ele>577.3</ele>
        <time>2024-07-26T12:39:15Z</time>
      </trkpt>
      <trkpt lat="45.8854" lon="3.03325">
        <ele>580.2</ele>
        <time>2024-07-26T12:39:28Z</time>
      </trkpt>
      <trkpt lat="45.88538" lon="3.03323">
        <ele>577.3</ele>
        <time>2024-07-26T12:39:30Z</time>
      </trkpt>
      <trkpt lat="45.88538" lon="3.03322">
        <ele>575.2</ele>
        <time>2024-07-26T12:39:31Z</time>
      </trkpt>
      <trkpt lat="45.88537" lon="3.0332">
        <ele>574.4</ele>
        <time>2024-07-26T12:39:32Z</time>
      </trkpt>
      <trkpt lat="45.88538" lon="3.03318">
        <ele>574.2</ele>
        <time>2024-07-26T12:39:33Z</time>
      </trkpt>
      <trkpt lat="45.88538" lon="3.03316">
        <ele>574.7</ele>
        <time>2024-07-26T12:39:35Z</time>
      </trkpt>
      <trkpt lat="45.88537" lon="3.03314">
        <ele>574.6</ele>
        <time>2024-07-26T12:39:37Z</time>
      </trkpt>
      <trkpt lat="45.88536" lon="3.03314">
        <ele>570.6</ele>
        <time>2024-07-26T12:39:39Z</time>
      </trkpt>
      <trkpt lat="45.88534" lon="3.03315">
        <ele>565.2</ele>
        <time>2024-07-26T12:39:42Z</time>
      </trkpt>
      <trkpt lat="45.88532" lon="3.03314">
        <ele>566.3</ele>
        <time>2024-07-26T12:39:44Z</time>
      </trkpt>
      <trkpt lat="45.88532" lon="3.03313">
        <ele>564.5</ele>
        <time>2024-07-26T12:39:46Z</time>
      </trkpt>
      <trkpt lat="45.88532" lon="3.03312">
        <ele>564.5</ele>
        <time>2024-07-26T12:39:47Z</time>
      </trkpt>
      <trkpt lat="45.8853" lon="3.03308">
        <ele>565.4</ele>
        <time>2024-07-26T12:39:49Z</time>
      </trkpt>
      <trkpt lat="45.88529" lon="3.03305">
        <ele>564.8</ele>
        <time>2024-07-26T12:39:50Z</time>
      </trkpt>
      <trkpt lat="45.88528" lon="3.03304">
        <ele>564.8</ele>
        <time>2024-07-26T12:39:51Z</time>
      </trkpt>
      <trkpt lat="45.88528" lon="3.03302">
        <ele>564.6</ele>
        <time>2024-07-26T12:39:52Z</time>
      </trkpt>
      <trkpt lat="45.88527" lon="3.03301">
        <ele>563.4</ele>
        <time>2024-07-26T12:39:53Z</time>
      </trkpt>
      <trkpt lat="45.88528" lon="3.03298">
        <ele>564.9</ele>
        <time>2024-07-26T12:39:55Z</time>
      </trkpt>
      <trkpt lat="45.88529" lon="3.03297">
        <ele>565.6</ele>
        <time>2024-07-26T12:39:57Z</time>
      </trkpt>
      <trkpt lat="45.88529" lon="3.03295">
        <ele>563.9</ele>
        <time>2024-07-26T12:39:58Z</time>
      </trkpt>
      <trkpt lat="45.8853" lon="3.03293">
        <ele>561.9</ele>
        <time>2024-07-26T12:40:00Z</time>
      </trkpt>
      <trkpt lat="45.88528" lon="3.03292">
        <ele>561.1</ele>
        <time>2024-07-26T12:40:02Z</time>
      </trkpt>
      <trkpt lat="45.88527" lon="3.03292">
        <ele>561.4</ele>
        <time>2024-07-26T12:40:03Z</time>
      </trkpt>
      <trkpt lat="45.88526" lon="3.03291">
        <ele>561.4</ele>
        <time>2024-07-26T12:40:04Z</time>
      </trkpt>
      <trkpt lat="45.88525" lon="3.03291">
        <ele>565.5</ele>
        <time>2024-07-26T12:40:06Z</time>
      </trkpt>
      <trkpt lat="45.88525" lon="3.03292">
        <ele>565.2</ele>
        <time>2024-07-26T12:40:07Z</time>
      </trkpt>
      <trkpt lat="45.88523" lon="3.03291">
        <ele>567</ele>
        <time>2024-07-26T12:40:11Z</time>
      </trkpt>
      <trkpt lat="45.88523" lon="3.0329">
        <ele>567</ele>
        <time>2024-07-26T12:40:12Z</time>
      </trkpt>
      <trkpt lat="45.88522" lon="3.0329">
        <ele>567</ele>
        <time>2024-07-26T12:40:13Z</time>
      </trkpt>
      <trkpt lat="45.88521" lon="3.03289">
        <ele>567.4</ele>
        <time>2024-07-26T12:40:14Z</time>
      </trkpt>
      <trkpt lat="45.88519" lon="3.03289">
        <ele>567.8</ele>
        <time>2024-07-26T12:40:16Z</time>
      </trkpt>
      <trkpt lat="45.88518" lon="3.0329">
        <ele>566</ele>
        <time>2024-07-26T12:40:18Z</time>
      </trkpt>
      <trkpt lat="45.88517" lon="3.03289">
        <ele>565.7</ele>
        <time>2024-07-26T12:40:20Z</time>
      </trkpt>
      <trkpt lat="45.88517" lon="3.03287">
        <ele>563.6</ele>
        <time>2024-07-26T12:40:22Z</time>
      </trkpt>
      <trkpt lat="45.88516" lon="3.03286">
        <ele>563.8</ele>
        <time>2024-07-26T12:40:24Z</time>
      </trkpt>
      <trkpt lat="45.88516" lon="3.03283">
        <ele>564.5</ele>
        <time>2024-07-26T12:40:26Z</time>
      </trkpt>
      <trkpt lat="45.88516" lon="3.03281">
        <ele>564.6</ele>
        <time>2024-07-26T12:40:28Z</time>
      </trkpt>
      <trkpt lat="45.88516" lon="3.0328">
        <ele>564.2</ele>
        <time>2024-07-26T12:40:29Z</time>
      </trkpt>
      <trkpt lat="45.88517" lon="3.03278">
        <ele>563.3</ele>
        <time>2024-07-26T12:40:31Z</time>
      </trkpt>
      <trkpt lat="45.88518" lon="3.03277">
        <ele>564</ele>
        <time>2024-07-26T12:40:32Z</time>
      </trkpt>
      <trkpt lat="45.88519" lon="3.03275">
        <ele>565.3</ele>
        <time>2024-07-26T12:40:35Z</time>
      </trkpt>
      <trkpt lat="45.88519" lon="3.03274">
        <ele>566.7</ele>
        <time>2024-07-26T12:40:37Z</time>
      </trkpt>
      <trkpt lat="45.88518" lon="3.03272">
        <ele>567.3</ele>
        <time>2024-07-26T12:40:40Z</time>
      </trkpt>
      <trkpt lat="45.88517" lon="3.03272">
        <ele>569</ele>
        <time>2024-07-26T12:40:42Z</time>
      </trkpt>
      <trkpt lat="45.88516" lon="3.0327">
        <ele>568</ele>
        <time>2024-07-26T12:40:44Z</time>
      </trkpt>
      <trkpt lat="45.88515" lon="3.03268">
        <ele>568.7</ele>
        <time>2024-07-26T12:40:46Z</time>
      </trkpt>
      <trkpt lat="45.88514" lon="3.03267">
        <ele>567.9</ele>
        <time>2024-07-26T12:40:48Z</time>
      </trkpt>
      <trkpt lat="45.88513" lon="3.03267">
        <ele>568.7</ele>
        <time>2024-07-26T12:40:49Z</time>
      </trkpt>
      <trkpt lat="45.88512" lon="3.03266">
        <ele>569.1</ele>
        <time>2024-07-26T12:40:50Z</time>
      </trkpt>
      <trkpt lat="45.88511" lon="3.03265">
        <ele>570.8</ele>
        <time>2024-07-26T12:40:54Z</time>
      </trkpt>
      <trkpt lat="45.88511" lon="3.03264">
        <ele>570.6</ele>
        <time>2024-07-26T12:40:55Z</time>
      </trkpt>
      <trkpt lat="45.8851" lon="3.03262">
        <ele>569.3</ele>
        <time>2024-07-26T12:40:56Z</time>
      </trkpt>
      <trkpt lat="45.8851" lon="3.0326">
        <ele>567.1</ele>
        <time>2024-07-26T12:40:57Z</time>
      </trkpt>
      <trkpt lat="45.8851" lon="3.03259">
        <ele>565.2</ele>
        <time>2024-07-26T12:40:58Z</time>
      </trkpt>
      <trkpt lat="45.88509" lon="3.03258">
        <ele>561</ele>
        <time>2024-07-26T12:41:00Z</time>
      </trkpt>
      <trkpt lat="45.88509" lon="3.03256">
        <ele>560.5</ele>
        <time>2024-07-26T12:41:02Z</time>
      </trkpt>
      <trkpt lat="45.88509" lon="3.03252">
        <ele>561.3</ele>
        <time>2024-07-26T12:41:04Z</time>
      </trkpt>
      <trkpt lat="45.8851" lon="3.03251">
        <ele>560.9</ele>
        <time>2024-07-26T12:41:05Z</time>
      </trkpt>
      <trkpt lat="45.8851" lon="3.03248">
        <ele>562.5</ele>
        <time>2024-07-26T12:41:06Z</time>
      </trkpt>
      <trkpt lat="45.88511" lon="3.03247">
        <ele>563.2</ele>
        <time>2024-07-26T12:41:07Z</time>
      </trkpt>
      <trkpt lat="45.88512" lon="3.03245">
        <ele>565</ele>
        <time>2024-07-26T12:41:08Z</time>
      </trkpt>
      <trkpt lat="45.88513" lon="3.03244">
        <ele>566.8</ele>
        <time>2024-07-26T12:41:09Z</time>
      </trkpt>
      <trkpt lat="45.88513" lon="3.03243">
        <ele>567.2</ele>
        <time>2024-07-26T12:41:12Z</time>
      </trkpt>
      <trkpt lat="45.88512" lon="3.03243">
        <ele>566.8</ele>
        <time>2024-07-26T12:41:13Z</time>
      </trkpt>
      <trkpt lat="45.8851" lon="3.03243">
        <ele>567.6</ele>
        <time>2024-07-26T12:41:14Z</time>
      </trkpt>
      <trkpt lat="45.88509" lon="3.03243">
        <ele>568.7</ele>
        <time>2024-07-26T12:41:16Z</time>
      </trkpt>
      <trkpt lat="45.88507" lon="3.03244">
        <ele>569.9</ele>
        <time>2024-07-26T12:41:18Z</time>
      </trkpt>
      <trkpt lat="45.88506" lon="3.03244">
        <ele>569.8</ele>
        <time>2024-07-26T12:41:20Z</time>
      </trkpt>
      <trkpt lat="45.88505" lon="3.03245">
        <ele>570.3</ele>
        <time>2024-07-26T12:41:21Z</time>
      </trkpt>
      <trkpt lat="45.88504" lon="3.03246">
        <ele>570.4</ele>
        <time>2024-07-26T12:41:22Z</time>
      </trkpt>
      <trkpt lat="45.88503" lon="3.03247">
        <ele>576.1</ele>
        <time>2024-07-26T12:41:25Z</time>
      </trkpt>
      <trkpt lat="45.88502" lon="3.03247">
        <ele>575.4</ele>
        <time>2024-07-26T12:41:27Z</time>
      </trkpt>
      <trkpt lat="45.88501" lon="3.03248">
        <ele>571.7</ele>
        <time>2024-07-26T12:41:29Z</time>
      </trkpt>
      <trkpt lat="45.88501" lon="3.0325">
        <ele>569.1</ele>
        <time>2024-07-26T12:41:31Z</time>
      </trkpt>
      <trkpt lat="45.885" lon="3.03251">
        <ele>567.6</ele>
        <time>2024-07-26T12:41:32Z</time>
      </trkpt>
      <trkpt lat="45.88498" lon="3.03252">
        <ele>567.1</ele>
        <time>2024-07-26T12:41:33Z</time>
      </trkpt>
      <trkpt lat="45.88497" lon="3.03251">
        <ele>568.2</ele>
        <time>2024-07-26T12:41:34Z</time>
      </trkpt>
      <trkpt lat="45.88496" lon="3.03251">
        <ele>568.1</ele>
        <time>2024-07-26T12:41:36Z</time>
      </trkpt>
      <trkpt lat="45.88495" lon="3.03251">
        <ele>568.6</ele>
        <time>2024-07-26T12:41:37Z</time>
      </trkpt>
      <trkpt lat="45.88494" lon="3.03253">
        <ele>569.5</ele>
        <time>2024-07-26T12:41:39Z</time>
      </trkpt>
      <trkpt lat="45.88493" lon="3.03255">
        <ele>570.6</ele>
        <time>2024-07-26T12:41:41Z</time>
      </trkpt>
      <trkpt lat="45.88493" lon="3.03256">
        <ele>573.9</ele>
        <time>2024-07-26T12:41:42Z</time>
      </trkpt>
      <trkpt lat="45.88491" lon="3.03256">
        <ele>574.2</ele>
        <time>2024-07-26T12:41:45Z</time>
      </trkpt>
      <trkpt lat="45.8849" lon="3.03256">
        <ele>572.1</ele>
        <time>2024-07-26T12:41:47Z</time>
      </trkpt>
      <trkpt lat="45.88489" lon="3.03258">
        <ele>570.3</ele>
        <time>2024-07-26T12:41:49Z</time>
      </trkpt>
      <trkpt lat="45.88489" lon="3.0326">
        <ele>575.3</ele>
        <time>2024-07-26T12:41:51Z</time>
      </trkpt>
      <trkpt lat="45.88489" lon="3.03262">
        <ele>572.1</ele>
        <time>2024-07-26T12:41:53Z</time>
      </trkpt>
      <trkpt lat="45.88489" lon="3.03264">
        <ele>572.3</ele>
        <time>2024-07-26T12:41:54Z</time>
      </trkpt>
      <trkpt lat="45.88489" lon="3.03265">
        <ele>571.8</ele>
        <time>2024-07-26T12:41:55Z</time>
      </trkpt>
      <trkpt lat="45.88489" lon="3.03267">
        <ele>572.5</ele>
        <time>2024-07-26T12:41:56Z</time>
      </trkpt>
      <trkpt lat="45.8849" lon="3.03269">
        <ele>572.8</ele>
        <time>2024-07-26T12:41:57Z</time>
      </trkpt>
      <trkpt lat="45.8849" lon="3.03271">
        <ele>572.7</ele>
        <time>2024-07-26T12:41:58Z</time>
      </trkpt>
      <trkpt lat="45.88491" lon="3.03273">
        <ele>572.7</ele>
        <time>2024-07-26T12:41:59Z</time>
      </trkpt>
      <trkpt lat="45.88492" lon="3.03274">
        <ele>573</ele>
        <time>2024-07-26T12:42:00Z</time>
      </trkpt>
      <trkpt lat="45.88492" lon="3.03276">
        <ele>572.6</ele>
        <time>2024-07-26T12:42:01Z</time>
      </trkpt>
      <trkpt lat="45.88494" lon="3.03278">
        <ele>576.9</ele>
        <time>2024-07-26T12:42:03Z</time>
      </trkpt>
      <trkpt lat="45.88494" lon="3.03279">
        <ele>576.6</ele>
        <time>2024-07-26T12:42:04Z</time>
      </trkpt>
      <trkpt lat="45.88494" lon="3.03281">
        <ele>575.7</ele>
        <time>2024-07-26T12:42:05Z</time>
      </trkpt>
      <trkpt lat="45.88495" lon="3.03282">
        <ele>576.9</ele>
        <time>2024-07-26T12:42:07Z</time>
      </trkpt>
      <trkpt lat="45.88495" lon="3.03285">
        <ele>574.2</ele>
        <time>2024-07-26T12:42:10Z</time>
      </trkpt>
      <trkpt lat="45.88494" lon="3.03285">
        <ele>574</ele>
        <time>2024-07-26T12:42:12Z</time>
      </trkpt>
      <trkpt lat="45.88493" lon="3.03285">
        <ele>570.5</ele>
        <time>2024-07-26T12:42:14Z</time>
      </trkpt>
      <trkpt lat="45.88491" lon="3.03284">
        <ele>570.9</ele>
        <time>2024-07-26T12:42:16Z</time>
      </trkpt>
      <trkpt lat="45.88489" lon="3.03283">
        <ele>571.6</ele>
        <time>2024-07-26T12:42:18Z</time>
      </trkpt>
      <trkpt lat="45.88488" lon="3.03282">
        <ele>569.8</ele>
        <time>2024-07-26T12:42:20Z</time>
      </trkpt>
      <trkpt lat="45.88487" lon="3.03282">
        <ele>569.3</ele>
        <time>2024-07-26T12:42:21Z</time>
      </trkpt>
      <trkpt lat="45.88486" lon="3.03282">
        <ele>577.3</ele>
        <time>2024-07-26T12:42:23Z</time>
      </trkpt>
      <trkpt lat="45.88484" lon="3.03282">
        <ele>577.7</ele>
        <time>2024-07-26T12:42:25Z</time>
      </trkpt>
      <trkpt lat="45.88483" lon="3.03284">
        <ele>576.3</ele>
        <time>2024-07-26T12:42:27Z</time>
      </trkpt>
      <trkpt lat="45.88481" lon="3.03285">
        <ele>573.6</ele>
        <time>2024-07-26T12:42:29Z</time>
      </trkpt>
      <trkpt lat="45.8848" lon="3.03284">
        <ele>572.9</ele>
        <time>2024-07-26T12:42:30Z</time>
      </trkpt>
      <trkpt lat="45.88479" lon="3.03283">
        <ele>573.5</ele>
        <time>2024-07-26T12:42:32Z</time>
      </trkpt>
      <trkpt lat="45.88478" lon="3.03284">
        <ele>571.2</ele>
        <time>2024-07-26T12:42:37Z</time>
      </trkpt>
      <trkpt lat="45.88478" lon="3.03286">
        <ele>566.8</ele>
        <time>2024-07-26T12:42:38Z</time>
      </trkpt>
      <trkpt lat="45.88477" lon="3.03287">
        <ele>564.8</ele>
        <time>2024-07-26T12:42:39Z</time>
      </trkpt>
      <trkpt lat="45.88478" lon="3.03289">
        <ele>566.6</ele>
        <time>2024-07-26T12:42:40Z</time>
      </trkpt>
      <trkpt lat="45.88478" lon="3.0329">
        <ele>567.7</ele>
        <time>2024-07-26T12:42:41Z</time>
      </trkpt>
      <trkpt lat="45.88479" lon="3.03291">
        <ele>568.7</ele>
        <time>2024-07-26T12:42:43Z</time>
      </trkpt>
      <trkpt lat="45.88481" lon="3.03291">
        <ele>570.2</ele>
        <time>2024-07-26T12:42:45Z</time>
      </trkpt>
      <trkpt lat="45.88482" lon="3.03291">
        <ele>570</ele>
        <time>2024-07-26T12:42:46Z</time>
      </trkpt>
      <trkpt lat="45.88483" lon="3.03291">
        <ele>569.7</ele>
        <time>2024-07-26T12:42:47Z</time>
      </trkpt>
      <trkpt lat="45.88484" lon="3.03291">
        <ele>571.6</ele>
        <time>2024-07-26T12:42:48Z</time>
      </trkpt>
      <trkpt lat="45.88485" lon="3.03291">
        <ele>574.9</ele>
        <time>2024-07-26T12:42:49Z</time>
      </trkpt>
      <trkpt lat="45.88486" lon="3.03292">
        <ele>574.1</ele>
        <time>2024-07-26T12:42:50Z</time>
      </trkpt>
      <trkpt lat="45.88487" lon="3.03293">
        <ele>574</ele>
        <time>2024-07-26T12:42:51Z</time>
      </trkpt>
      <trkpt lat="45.88488" lon="3.03294">
        <ele>574.3</ele>
        <time>2024-07-26T12:42:52Z</time>
      </trkpt>
      <trkpt lat="45.88489" lon="3.03294">
        <ele>576.1</ele>
        <time>2024-07-26T12:42:53Z</time>
      </trkpt>
      <trkpt lat="45.8849" lon="3.03295">
        <ele>575.8</ele>
        <time>2024-07-26T12:42:54Z</time>
      </trkpt>
      <trkpt lat="45.8849" lon="3.03296">
        <ele>575.5</ele>
        <time>2024-07-26T12:42:55Z</time>
      </trkpt>
      <trkpt lat="45.88491" lon="3.03297">
        <ele>575.3</ele>
        <time>2024-07-26T12:42:56Z</time>
      </trkpt>
      <trkpt lat="45.88492" lon="3.03299">
        <ele>574.6</ele>
        <time>2024-07-26T12:42:57Z</time>
      </trkpt>
      <trkpt lat="45.88493" lon="3.03301">
        <ele>574.1</ele>
        <time>2024-07-26T12:42:58Z</time>
      </trkpt>
      <trkpt lat="45.88494" lon="3.03303">
        <ele>573</ele>
        <time>2024-07-26T12:42:59Z</time>
      </trkpt>
      <trkpt lat="45.88495" lon="3.03304">
        <ele>572.6</ele>
        <time>2024-07-26T12:43:00Z</time>
      </trkpt>
      <trkpt lat="45.88495" lon="3.03306">
        <ele>574.2</ele>
        <time>2024-07-26T12:43:01Z</time>
      </trkpt>
      <trkpt lat="45.88494" lon="3.03308">
        <ele>573.7</ele>
        <time>2024-07-26T12:43:02Z</time>
      </trkpt>
      <trkpt lat="45.88494" lon="3.0331">
        <ele>572.4</ele>
        <time>2024-07-26T12:43:03Z</time>
      </trkpt>
      <trkpt lat="45.88494" lon="3.03312">
        <ele>573.7</ele>
        <time>2024-07-26T12:43:04Z</time>
      </trkpt>
      <trkpt lat="45.88494" lon="3.03313">
        <ele>572.6</ele>
        <time>2024-07-26T12:43:05Z</time>
      </trkpt>
      <trkpt lat="45.88494" lon="3.03315">
        <ele>572.6</ele>
        <time>2024-07-26T12:43:06Z</time>
      </trkpt>
      <trkpt lat="45.88494" lon="3.03317">
        <ele>571.6</ele>
        <time>2024-07-26T12:43:08Z</time>
      </trkpt>
      <trkpt lat="45.88493" lon="3.03318">
        <ele>571.5</ele>
        <time>2024-07-26T12:43:09Z</time>
      </trkpt>
      <trkpt lat="45.88493" lon="3.0332">
        <ele>571.6</ele>
        <time>2024-07-26T12:43:10Z</time>
      </trkpt>
      <trkpt lat="45.88493" lon="3.03322">
        <ele>572.9</ele>
        <time>2024-07-26T12:43:12Z</time>
      </trkpt>
      <trkpt lat="45.88492" lon="3.03323">
        <ele>575.2</ele>
        <time>2024-07-26T12:43:13Z</time>
      </trkpt>
      <trkpt lat="45.88492" lon="3.03325">
        <ele>574.8</ele>
        <time>2024-07-26T12:43:14Z</time>
      </trkpt>
      <trkpt lat="45.88491" lon="3.03325">
        <ele>575.4</ele>
        <time>2024-07-26T12:43:15Z</time>
      </trkpt>
      <trkpt lat="45.88489" lon="3.03326">
        <ele>575.8</ele>
        <time>2024-07-26T12:43:18Z</time>
      </trkpt>
      <trkpt lat="45.8849" lon="3.03327">
        <ele>578.9</ele>
        <time>2024-07-26T12:43:21Z</time>
      </trkpt>
      <trkpt lat="45.88492" lon="3.03331">
        <ele>568.4</ele>
        <time>2024-07-26T12:43:23Z</time>
      </trkpt>
      <trkpt lat="45.88493" lon="3.03332">
        <ele>568.5</ele>
        <time>2024-07-26T12:43:24Z</time>
      </trkpt>
      <trkpt lat="45.88495" lon="3.03334">
        <ele>571</ele>
        <time>2024-07-26T12:43:26Z</time>
      </trkpt>
      <trkpt lat="45.88496" lon="3.03334">
        <ele>571.3</ele>
        <time>2024-07-26T12:43:28Z</time>
      </trkpt>
      <trkpt lat="45.88496" lon="3.03336">
        <ele>570</ele>
        <time>2024-07-26T12:43:29Z</time>
      </trkpt>
      <trkpt lat="45.88495" lon="3.03336">
        <ele>570.7</ele>
        <time>2024-07-26T12:43:31Z</time>
      </trkpt>
      <trkpt lat="45.88493" lon="3.03336">
        <ele>568.5</ele>
        <time>2024-07-26T12:43:33Z</time>
      </trkpt>
      <trkpt lat="45.88492" lon="3.03338">
        <ele>573.8</ele>
        <time>2024-07-26T12:43:35Z</time>
      </trkpt>
      <trkpt lat="45.88492" lon="3.0334">
        <ele>574</ele>
        <time>2024-07-26T12:43:37Z</time>
      </trkpt>
      <trkpt lat="45.88492" lon="3.03342">
        <ele>575.1</ele>
        <time>2024-07-26T12:43:38Z</time>
      </trkpt>
      <trkpt lat="45.88493" lon="3.03345">
        <ele>573.8</ele>
        <time>2024-07-26T12:43:39Z</time>
      </trkpt>
      <trkpt lat="45.88494" lon="3.03346">
        <ele>575.1</ele>
        <time>2024-07-26T12:43:40Z</time>
      </trkpt>
      <trkpt lat="45.88494" lon="3.03348">
        <ele>574.9</ele>
        <time>2024-07-26T12:43:41Z</time>
      </trkpt>
      <trkpt lat="45.88495" lon="3.0335">
        <ele>574.2</ele>
        <time>2024-07-26T12:43:43Z</time>
      </trkpt>
      <trkpt lat="45.88495" lon="3.03352">
        <ele>576.5</ele>
        <time>2024-07-26T12:43:45Z</time>
      </trkpt>
      <trkpt lat="45.88493" lon="3.03354">
        <ele>578.7</ele>
        <time>2024-07-26T12:43:47Z</time>
      </trkpt>
      <trkpt lat="45.88491" lon="3.03354">
        <ele>577.5</ele>
        <time>2024-07-26T12:43:48Z</time>
      </trkpt>
      <trkpt lat="45.8849" lon="3.03354">
        <ele>576.4</ele>
        <time>2024-07-26T12:43:49Z</time>
      </trkpt>
      <trkpt lat="45.88489" lon="3.03354">
        <ele>574.5</ele>
        <time>2024-07-26T12:43:51Z</time>
      </trkpt>
      <trkpt lat="45.88488" lon="3.03355">
        <ele>567.7</ele>
        <time>2024-07-26T12:43:54Z</time>
      </trkpt>
      <trkpt lat="45.88487" lon="3.03356">
        <ele>574.6</ele>
        <time>2024-07-26T12:43:59Z</time>
      </trkpt>
      <trkpt lat="45.88486" lon="3.03357">
        <ele>575.2</ele>
        <time>2024-07-26T12:44:01Z</time>
      </trkpt>
      <trkpt lat="45.88485" lon="3.03359">
        <ele>578.8</ele>
        <time>2024-07-26T12:44:02Z</time>
      </trkpt>
      <trkpt lat="45.88485" lon="3.0336">
        <ele>577.3</ele>
        <time>2024-07-26T12:44:03Z</time>
      </trkpt>
      <trkpt lat="45.88486" lon="3.03362">
        <ele>576.6</ele>
        <time>2024-07-26T12:44:04Z</time>
      </trkpt>
      <trkpt lat="45.88487" lon="3.03364">
        <ele>575</ele>
        <time>2024-07-26T12:44:05Z</time>
      </trkpt>
      <trkpt lat="45.88488" lon="3.03365">
        <ele>574.5</ele>
        <time>2024-07-26T12:44:06Z</time>
      </trkpt>
      <trkpt lat="45.8849" lon="3.03366">
        <ele>575.2</ele>
        <time>2024-07-26T12:44:07Z</time>
      </trkpt>
      <trkpt lat="45.88491" lon="3.03366">
        <ele>575.7</ele>
        <time>2024-07-26T12:44:08Z</time>
      </trkpt>
      <trkpt lat="45.88492" lon="3.03366">
        <ele>574.8</ele>
        <time>2024-07-26T12:44:09Z</time>
      </trkpt>
      <trkpt lat="45.88493" lon="3.03366">
        <ele>575</ele>
        <time>2024-07-26T12:44:10Z</time>
      </trkpt>
      <trkpt lat="45.88493" lon="3.03368">
        <ele>569.9</ele>
        <time>2024-07-26T12:44:13Z</time>
      </trkpt>
      <trkpt lat="45.88493" lon="3.03369">
        <ele>563</ele>
        <time>2024-07-26T12:44:15Z</time>
      </trkpt>
      <trkpt lat="45.88492" lon="3.03371">
        <ele>563.8</ele>
        <time>2024-07-26T12:44:16Z</time>
      </trkpt>
      <trkpt lat="45.88491" lon="3.03372">
        <ele>562.7</ele>
        <time>2024-07-26T12:44:17Z</time>
      </trkpt>
      <trkpt lat="45.88489" lon="3.03373">
        <ele>563.1</ele>
        <time>2024-07-26T12:44:19Z</time>
      </trkpt>
      <trkpt lat="45.8849" lon="3.03375">
        <ele>561.2</ele>
        <time>2024-07-26T12:44:21Z</time>
      </trkpt>
      <trkpt lat="45.8849" lon="3.03377">
        <ele>559.6</ele>
        <time>2024-07-26T12:44:23Z</time>
      </trkpt>
      <trkpt lat="45.8849" lon="3.03378">
        <ele>561.2</ele>
        <time>2024-07-26T12:44:24Z</time>
      </trkpt>
      <trkpt lat="45.88492" lon="3.03378">
        <ele>563</ele>
        <time>2024-07-26T12:44:27Z</time>
      </trkpt>
      <trkpt lat="45.88493" lon="3.03379">
        <ele>564.5</ele>
        <time>2024-07-26T12:44:28Z</time>
      </trkpt>
      <trkpt lat="45.88494" lon="3.0338">
        <ele>564.4</ele>
        <time>2024-07-26T12:44:30Z</time>
      </trkpt>
      <trkpt lat="45.88493" lon="3.03381">
        <ele>565.9</ele>
        <time>2024-07-26T12:44:32Z</time>
      </trkpt>
      <trkpt lat="45.88493" lon="3.03384">
        <ele>569.4</ele>
        <time>2024-07-26T12:44:34Z</time>
      </trkpt>
      <trkpt lat="45.88492" lon="3.03386">
        <ele>568</ele>
        <time>2024-07-26T12:44:36Z</time>
      </trkpt>
      <trkpt lat="45.88492" lon="3.03385">
        <ele>579</ele>
        <time>2024-07-26T12:44:40Z</time>
      </trkpt>
      <trkpt lat="45.88494" lon="3.03384">
        <ele>579.6</ele>
        <time>2024-07-26T12:44:42Z</time>
      </trkpt>
      <trkpt lat="45.88495" lon="3.03384">
        <ele>580.5</ele>
        <time>2024-07-26T12:44:44Z</time>
      </trkpt>
      <trkpt lat="45.88497" lon="3.03384">
        <ele>581.8</ele>
        <time>2024-07-26T12:44:46Z</time>
      </trkpt>
      <trkpt lat="45.88496" lon="3.03385">
        <ele>581.4</ele>
        <time>2024-07-26T12:44:48Z</time>
      </trkpt>
      <trkpt lat="45.88495" lon="3.03386">
        <ele>584.8</ele>
        <time>2024-07-26T12:44:50Z</time>
      </trkpt>
      <trkpt lat="45.88495" lon="3.03388">
        <ele>581.8</ele>
        <time>2024-07-26T12:44:52Z</time>
      </trkpt>
      <trkpt lat="45.88495" lon="3.0339">
        <ele>580.4</ele>
        <time>2024-07-26T12:44:54Z</time>
      </trkpt>
      <trkpt lat="45.88494" lon="3.03391">
        <ele>583.1</ele>
        <time>2024-07-26T12:45:00Z</time>
      </trkpt>
      <trkpt lat="45.88493" lon="3.03392">
        <ele>580.3</ele>
        <time>2024-07-26T12:45:03Z</time>
      </trkpt>
      <trkpt lat="45.88492" lon="3.03393">
        <ele>579.8</ele>
        <time>2024-07-26T12:45:05Z</time>
      </trkpt>
      <trkpt lat="45.88491" lon="3.03393">
        <ele>579.8</ele>
        <time>2024-07-26T12:45:06Z</time>
      </trkpt>
      <trkpt lat="45.8849" lon="3.03393">
        <ele>579</ele>
        <time>2024-07-26T12:45:07Z</time>
      </trkpt>
      <trkpt lat="45.88489" lon="3.03393">
        <ele>579</ele>
        <time>2024-07-26T12:45:12Z</time>
      </trkpt>
      <trkpt lat="45.88488" lon="3.03393">
        <ele>577.2</ele>
        <time>2024-07-26T12:45:55Z</time>
      </trkpt>
      <trkpt lat="45.88487" lon="3.03394">
        <ele>575.2</ele>
        <time>2024-07-26T12:45:57Z</time>
      </trkpt>
      <trkpt lat="45.88487" lon="3.03396">
        <ele>573.9</ele>
        <time>2024-07-26T12:46:00Z</time>
      </trkpt>
      <trkpt lat="45.88487" lon="3.03397">
        <ele>572</ele>
        <time>2024-07-26T12:46:02Z</time>
      </trkpt>
      <trkpt lat="45.88488" lon="3.03398">
        <ele>574.1</ele>
        <time>2024-07-26T12:46:06Z</time>
      </trkpt>
      <trkpt lat="45.88488" lon="3.034">
        <ele>573.2</ele>
        <time>2024-07-26T12:46:08Z</time>
      </trkpt>
      <trkpt lat="45.88488" lon="3.03402">
        <ele>573</ele>
        <time>2024-07-26T12:46:10Z</time>
      </trkpt>
      <trkpt lat="45.88488" lon="3.03403">
        <ele>573</ele>
        <time>2024-07-26T12:46:12Z</time>
      </trkpt>
      <trkpt lat="45.88488" lon="3.03405">
        <ele>572.3</ele>
        <time>2024-07-26T12:46:15Z</time>
      </trkpt>
      <trkpt lat="45.88488" lon="3.03406">
        <ele>571.8</ele>
        <time>2024-07-26T12:46:18Z</time>
      </trkpt>
      <trkpt lat="45.88487" lon="3.03408">
        <ele>572.7</ele>
        <time>2024-07-26T12:46:20Z</time>
      </trkpt>
      <trkpt lat="45.88487" lon="3.03409">
        <ele>572.5</ele>
        <time>2024-07-26T12:46:22Z</time>
      </trkpt>
      <trkpt lat="45.88487" lon="3.03411">
        <ele>573.7</ele>
        <time>2024-07-26T12:46:24Z</time>
      </trkpt>
      <trkpt lat="45.88486" lon="3.03412">
        <ele>571.3</ele>
        <time>2024-07-26T12:46:25Z</time>
      </trkpt>
      <trkpt lat="45.88486" lon="3.03414">
        <ele>571.8</ele>
        <time>2024-07-26T12:46:26Z</time>
      </trkpt>
      <trkpt lat="45.88486" lon="3.03416">
        <ele>572.1</ele>
        <time>2024-07-26T12:46:27Z</time>
      </trkpt>
      <trkpt lat="45.88486" lon="3.03418">
        <ele>571.9</ele>
        <time>2024-07-26T12:46:29Z</time>
      </trkpt>
      <trkpt lat="45.88485" lon="3.03418">
        <ele>570.8</ele>
        <time>2024-07-26T12:46:31Z</time>
      </trkpt>
      <trkpt lat="45.88484" lon="3.03416">
        <ele>571.2</ele>
        <time>2024-07-26T12:46:33Z</time>
      </trkpt>
      <trkpt lat="45.88483" lon="3.03418">
        <ele>572.3</ele>
        <time>2024-07-26T12:46:36Z</time>
      </trkpt>
      <trkpt lat="45.88483" lon="3.03419">
        <ele>571</ele>
        <time>2024-07-26T12:46:37Z</time>
      </trkpt>
      <trkpt lat="45.88483" lon="3.03421">
        <ele>572.2</ele>
        <time>2024-07-26T12:46:38Z</time>
      </trkpt>
      <trkpt lat="45.88482" lon="3.03423">
        <ele>574.8</ele>
        <time>2024-07-26T12:46:39Z</time>
      </trkpt>
      <trkpt lat="45.88482" lon="3.03424">
        <ele>576.7</ele>
        <time>2024-07-26T12:46:40Z</time>
      </trkpt>
      <trkpt lat="45.88482" lon="3.03427">
        <ele>576.6</ele>
        <time>2024-07-26T12:46:42Z</time>
      </trkpt>
      <trkpt lat="45.88482" lon="3.03428">
        <ele>575.7</ele>
        <time>2024-07-26T12:46:43Z</time>
      </trkpt>
      <trkpt lat="45.88483" lon="3.03429">
        <ele>576</ele>
        <time>2024-07-26T12:46:44Z</time>
      </trkpt>
      <trkpt lat="45.88484" lon="3.0343">
        <ele>577.7</ele>
        <time>2024-07-26T12:46:46Z</time>
      </trkpt>
      <trkpt lat="45.88485" lon="3.03429">
        <ele>576.8</ele>
        <time>2024-07-26T12:46:49Z</time>
      </trkpt>
      <trkpt lat="45.88486" lon="3.0343">
        <ele>579.1</ele>
        <time>2024-07-26T12:46:50Z</time>
      </trkpt>
      <trkpt lat="45.88486" lon="3.03432">
        <ele>578</ele>
        <time>2024-07-26T12:46:51Z</time>
      </trkpt>
      <trkpt lat="45.88487" lon="3.03434">
        <ele>578.6</ele>
        <time>2024-07-26T12:46:52Z</time>
      </trkpt>
      <trkpt lat="45.88486" lon="3.03433">
        <ele>580</ele>
        <time>2024-07-26T12:46:54Z</time>
      </trkpt>
      <trkpt lat="45.88486" lon="3.03434">
        <ele>584.3</ele>
        <time>2024-07-26T12:46:55Z</time>
      </trkpt>
      <trkpt lat="45.88487" lon="3.03434">
        <ele>585.2</ele>
        <time>2024-07-26T12:46:57Z</time>
      </trkpt>
      <trkpt lat="45.88488" lon="3.03437">
        <ele>584.8</ele>
        <time>2024-07-26T12:47:02Z</time>
      </trkpt>
      <trkpt lat="45.88488" lon="3.03439">
        <ele>586.8</ele>
        <time>2024-07-26T12:47:03Z</time>
      </trkpt>
      <trkpt lat="45.88489" lon="3.03441">
        <ele>586.6</ele>
        <time>2024-07-26T12:47:04Z</time>
      </trkpt>
      <trkpt lat="45.88489" lon="3.03443">
        <ele>587.4</ele>
        <time>2024-07-26T12:47:06Z</time>
      </trkpt>
      <trkpt lat="45.88491" lon="3.03447">
        <ele>592.1</ele>
        <time>2024-07-26T12:47:09Z</time>
      </trkpt>
      <trkpt lat="45.88491" lon="3.03448">
        <ele>590.5</ele>
        <time>2024-07-26T12:47:10Z</time>
      </trkpt>
      <trkpt lat="45.88492" lon="3.0345">
        <ele>589.2</ele>
        <time>2024-07-26T12:47:12Z</time>
      </trkpt>
      <trkpt lat="45.88491" lon="3.03452">
        <ele>590.3</ele>
        <time>2024-07-26T12:47:13Z</time>
      </trkpt>
      <trkpt lat="45.88491" lon="3.03454">
        <ele>585.2</ele>
        <time>2024-07-26T12:47:15Z</time>
      </trkpt>
      <trkpt lat="45.88491" lon="3.03455">
        <ele>584.1</ele>
        <time>2024-07-26T12:47:16Z</time>
      </trkpt>
      <trkpt lat="45.88489" lon="3.03457">
        <ele>581.6</ele>
        <time>2024-07-26T12:47:18Z</time>
      </trkpt>
      <trkpt lat="45.88488" lon="3.03458">
        <ele>581</ele>
        <time>2024-07-26T12:47:19Z</time>
      </trkpt>
      <trkpt lat="45.88487" lon="3.03459">
        <ele>581.9</ele>
        <time>2024-07-26T12:47:20Z</time>
      </trkpt>
      <trkpt lat="45.88486" lon="3.0346">
        <ele>582.1</ele>
        <time>2024-07-26T12:47:21Z</time>
      </trkpt>
      <trkpt lat="45.88485" lon="3.03462">
        <ele>581</ele>
        <time>2024-07-26T12:47:23Z</time>
      </trkpt>
      <trkpt lat="45.88485" lon="3.03463">
        <ele>580.5</ele>
        <time>2024-07-26T12:47:25Z</time>
      </trkpt>
      <trkpt lat="45.88483" lon="3.03464">
        <ele>580.9</ele>
        <time>2024-07-26T12:47:27Z</time>
      </trkpt>
      <trkpt lat="45.88483" lon="3.03466">
        <ele>580</ele>
        <time>2024-07-26T12:47:31Z</time>
      </trkpt>
      <trkpt lat="45.88484" lon="3.03467">
        <ele>580.8</ele>
        <time>2024-07-26T12:47:32Z</time>
      </trkpt>
      <trkpt lat="45.88484" lon="3.03468">
        <ele>582.6</ele>
        <time>2024-07-26T12:47:33Z</time>
      </trkpt>
      <trkpt lat="45.88483" lon="3.0347">
        <ele>586.4</ele>
        <time>2024-07-26T12:47:35Z</time>
      </trkpt>
      <trkpt lat="45.88483" lon="3.03472">
        <ele>583.8</ele>
        <time>2024-07-26T12:47:36Z</time>
      </trkpt>
      <trkpt lat="45.88483" lon="3.03473">
        <ele>584.1</ele>
        <time>2024-07-26T12:47:37Z</time>
      </trkpt>
      <trkpt lat="45.88482" lon="3.03475">
        <ele>584.2</ele>
        <time>2024-07-26T12:47:38Z</time>
      </trkpt>
      <trkpt lat="45.88481" lon="3.03477">
        <ele>582.6</ele>
        <time>2024-07-26T12:47:39Z</time>
      </trkpt>
      <trkpt lat="45.88481" lon="3.03478">
        <ele>582.6</ele>
        <time>2024-07-26T12:47:40Z</time>
      </trkpt>
      <trkpt lat="45.8848" lon="3.0348">
        <ele>584.1</ele>
        <time>2024-07-26T12:47:41Z</time>
      </trkpt>
      <trkpt lat="45.8848" lon="3.03482">
        <ele>583.6</ele>
        <time>2024-07-26T12:47:42Z</time>
      </trkpt>
      <trkpt lat="45.88479" lon="3.03483">
        <ele>584.5</ele>
        <time>2024-07-26T12:47:45Z</time>
      </trkpt>
      <trkpt lat="45.88479" lon="3.03485">
        <ele>580.7</ele>
        <time>2024-07-26T12:47:47Z</time>
      </trkpt>
      <trkpt lat="45.88479" lon="3.03487">
        <ele>576.8</ele>
        <time>2024-07-26T12:47:49Z</time>
      </trkpt>
      <trkpt lat="45.8848" lon="3.03489">
        <ele>576</ele>
        <time>2024-07-26T12:47:51Z</time>
      </trkpt>
      <trkpt lat="45.88479" lon="3.03491">
        <ele>575.7</ele>
        <time>2024-07-26T12:47:53Z</time>
      </trkpt>
      <trkpt lat="45.88479" lon="3.03493">
        <ele>573.8</ele>
        <time>2024-07-26T12:47:55Z</time>
      </trkpt>
      <trkpt lat="45.88478" lon="3.03494">
        <ele>574.9</ele>
        <time>2024-07-26T12:47:56Z</time>
      </trkpt>
      <trkpt lat="45.88478" lon="3.03496">
        <ele>576.5</ele>
        <time>2024-07-26T12:47:57Z</time>
      </trkpt>
      <trkpt lat="45.88478" lon="3.03498">
        <ele>580.5</ele>
        <time>2024-07-26T12:47:59Z</time>
      </trkpt>
      <trkpt lat="45.88477" lon="3.03499">
        <ele>580.5</ele>
        <time>2024-07-26T12:48:01Z</time>
      </trkpt>
      <trkpt lat="45.88476" lon="3.03501">
        <ele>578.5</ele>
        <time>2024-07-26T12:48:03Z</time>
      </trkpt>
      <trkpt lat="45.88476" lon="3.03504">
        <ele>578.4</ele>
        <time>2024-07-26T12:48:05Z</time>
      </trkpt>
      <trkpt lat="45.88476" lon="3.03506">
        <ele>577.9</ele>
        <time>2024-07-26T12:48:06Z</time>
      </trkpt>
      <trkpt lat="45.88475" lon="3.03508">
        <ele>578.8</ele>
        <time>2024-07-26T12:48:07Z</time>
      </trkpt>
      <trkpt lat="45.88474" lon="3.03509">
        <ele>580.5</ele>
        <time>2024-07-26T12:48:09Z</time>
      </trkpt>
      <trkpt lat="45.88474" lon="3.03511">
        <ele>579.6</ele>
        <time>2024-07-26T12:48:11Z</time>
      </trkpt>
      <trkpt lat="45.88473" lon="3.03513">
        <ele>574.8</ele>
        <time>2024-07-26T12:48:13Z</time>
      </trkpt>
      <trkpt lat="45.88472" lon="3.03514">
        <ele>571.5</ele>
        <time>2024-07-26T12:48:14Z</time>
      </trkpt>
      <trkpt lat="45.88472" lon="3.03516">
        <ele>571.8</ele>
        <time>2024-07-26T12:48:16Z</time>
      </trkpt>
      <trkpt lat="45.88472" lon="3.03518">
        <ele>570.7</ele>
        <time>2024-07-26T12:48:18Z</time>
      </trkpt>
      <trkpt lat="45.88471" lon="3.0352">
        <ele>572.5</ele>
        <time>2024-07-26T12:48:20Z</time>
      </trkpt>
      <trkpt lat="45.88472" lon="3.03521">
        <ele>571.1</ele>
        <time>2024-07-26T12:48:21Z</time>
      </trkpt>
      <trkpt lat="45.88473" lon="3.03523">
        <ele>572.2</ele>
        <time>2024-07-26T12:48:23Z</time>
      </trkpt>
      <trkpt lat="45.88474" lon="3.03524">
        <ele>572.2</ele>
        <time>2024-07-26T12:48:29Z</time>
      </trkpt>
      <trkpt lat="45.88473" lon="3.03523">
        <ele>572.1</ele>
        <time>2024-07-26T12:48:33Z</time>
      </trkpt>
      <trkpt lat="45.88474" lon="3.03525">
        <ele>574.8</ele>
        <time>2024-07-26T12:48:37Z</time>
      </trkpt>
      <trkpt lat="45.88475" lon="3.03526">
        <ele>575.8</ele>
        <time>2024-07-26T12:48:38Z</time>
      </trkpt>
      <trkpt lat="45.88476" lon="3.03528">
        <ele>577.8</ele>
        <time>2024-07-26T12:48:40Z</time>
      </trkpt>
      <trkpt lat="45.88476" lon="3.03529">
        <ele>574.7</ele>
        <time>2024-07-26T12:48:43Z</time>
      </trkpt>
      <trkpt lat="45.88476" lon="3.03531">
        <ele>575</ele>
        <time>2024-07-26T12:48:45Z</time>
      </trkpt>
      <trkpt lat="45.88476" lon="3.03532">
        <ele>574.6</ele>
        <time>2024-07-26T12:48:47Z</time>
      </trkpt>
      <trkpt lat="45.88476" lon="3.03533">
        <ele>574</ele>
        <time>2024-07-26T12:48:49Z</time>
      </trkpt>
      <trkpt lat="45.88475" lon="3.03535">
        <ele>571.9</ele>
        <time>2024-07-26T12:48:51Z</time>
      </trkpt>
      <trkpt lat="45.88474" lon="3.03536">
        <ele>570.9</ele>
        <time>2024-07-26T12:48:53Z</time>
      </trkpt>
      <trkpt lat="45.88474" lon="3.03537">
        <ele>571</ele>
        <time>2024-07-26T12:48:56Z</time>
      </trkpt>
      <trkpt lat="45.88474" lon="3.03539">
        <ele>566.3</ele>
        <time>2024-07-26T12:48:57Z</time>
      </trkpt>
      <trkpt lat="45.88475" lon="3.0354">
        <ele>567.3</ele>
        <time>2024-07-26T12:48:58Z</time>
      </trkpt>
      <trkpt lat="45.88475" lon="3.03542">
        <ele>568.2</ele>
        <time>2024-07-26T12:49:00Z</time>
      </trkpt>
      <trkpt lat="45.88477" lon="3.03545">
        <ele>570.1</ele>
        <time>2024-07-26T12:49:02Z</time>
      </trkpt>
      <trkpt lat="45.88477" lon="3.03548">
        <ele>571.6</ele>
        <time>2024-07-26T12:49:03Z</time>
      </trkpt>
      <trkpt lat="45.88476" lon="3.0355">
        <ele>571.6</ele>
        <time>2024-07-26T12:49:04Z</time>
      </trkpt>
      <trkpt lat="45.88477" lon="3.03552">
        <ele>570.6</ele>
        <time>2024-07-26T12:49:05Z</time>
      </trkpt>
      <trkpt lat="45.88479" lon="3.03554">
        <ele>569.9</ele>
        <time>2024-07-26T12:49:06Z</time>
      </trkpt>
      <trkpt lat="45.8848" lon="3.03557">
        <ele>570.8</ele>
        <time>2024-07-26T12:49:07Z</time>
      </trkpt>
      <trkpt lat="45.8848" lon="3.03558">
        <ele>570.5</ele>
        <time>2024-07-26T12:49:08Z</time>
      </trkpt>
      <trkpt lat="45.8848" lon="3.03561">
        <ele>569.1</ele>
        <time>2024-07-26T12:49:10Z</time>
      </trkpt>
      <trkpt lat="45.88479" lon="3.03563">
        <ele>570.4</ele>
        <time>2024-07-26T12:49:12Z</time>
      </trkpt>
      <trkpt lat="45.88478" lon="3.03564">
        <ele>570.7</ele>
        <time>2024-07-26T12:49:13Z</time>
      </trkpt>
      <trkpt lat="45.88477" lon="3.03565">
        <ele>571.6</ele>
        <time>2024-07-26T12:49:15Z</time>
      </trkpt>
      <trkpt lat="45.88477" lon="3.03567">
        <ele>572.2</ele>
        <time>2024-07-26T12:49:17Z</time>
      </trkpt>
      <trkpt lat="45.88476" lon="3.03568">
        <ele>571.5</ele>
        <time>2024-07-26T12:49:19Z</time>
      </trkpt>
      <trkpt lat="45.88475" lon="3.03568">
        <ele>570.8</ele>
        <time>2024-07-26T12:49:20Z</time>
      </trkpt>
      <trkpt lat="45.88473" lon="3.03568">
        <ele>572.1</ele>
        <time>2024-07-26T12:49:22Z</time>
      </trkpt>
      <trkpt lat="45.88472" lon="3.03569">
        <ele>571.6</ele>
        <time>2024-07-26T12:49:23Z</time>
      </trkpt>
      <trkpt lat="45.88471" lon="3.03569">
        <ele>565.8</ele>
        <time>2024-07-26T12:49:25Z</time>
      </trkpt>
      <trkpt lat="45.88469" lon="3.03569">
        <ele>565.4</ele>
        <time>2024-07-26T12:49:27Z</time>
      </trkpt>
      <trkpt lat="45.88468" lon="3.03569">
        <ele>565.8</ele>
        <time>2024-07-26T12:49:29Z</time>
      </trkpt>
      <trkpt lat="45.88467" lon="3.03568">
        <ele>566.1</ele>
        <time>2024-07-26T12:49:30Z</time>
      </trkpt>
      <trkpt lat="45.88466" lon="3.03568">
        <ele>567.5</ele>
        <time>2024-07-26T12:49:31Z</time>
      </trkpt>
      <trkpt lat="45.88464" lon="3.03567">
        <ele>566.5</ele>
        <time>2024-07-26T12:49:32Z</time>
      </trkpt>
      <trkpt lat="45.88463" lon="3.03567">
        <ele>565.9</ele>
        <time>2024-07-26T12:49:33Z</time>
      </trkpt>
      <trkpt lat="45.88462" lon="3.03566">
        <ele>564.1</ele>
        <time>2024-07-26T12:49:34Z</time>
      </trkpt>
      <trkpt lat="45.88461" lon="3.03565">
        <ele>566.2</ele>
        <time>2024-07-26T12:49:35Z</time>
      </trkpt>
      <trkpt lat="45.8846" lon="3.03565">
        <ele>566.7</ele>
        <time>2024-07-26T12:49:36Z</time>
      </trkpt>
      <trkpt lat="45.88458" lon="3.03565">
        <ele>567.5</ele>
        <time>2024-07-26T12:49:37Z</time>
      </trkpt>
      <trkpt lat="45.88457" lon="3.03564">
        <ele>566.5</ele>
        <time>2024-07-26T12:49:38Z</time>
      </trkpt>
      <trkpt lat="45.88456" lon="3.03564">
        <ele>567.2</ele>
        <time>2024-07-26T12:49:39Z</time>
      </trkpt>
      <trkpt lat="45.88454" lon="3.03564">
        <ele>567.7</ele>
        <time>2024-07-26T12:49:41Z</time>
      </trkpt>
      <trkpt lat="45.88453" lon="3.03565">
        <ele>568.1</ele>
        <time>2024-07-26T12:49:42Z</time>
      </trkpt>
      <trkpt lat="45.88453" lon="3.03565">
        <ele>567.7</ele>
        <time>2024-07-26T12:49:43Z</time>
      </trkpt>
      <trkpt lat="45.88452" lon="3.03566">
        <ele>568.4</ele>
        <time>2024-07-26T12:49:44Z</time>
      </trkpt>
      <trkpt lat="45.88451" lon="3.03568">
        <ele>571.6</ele>
        <time>2024-07-26T12:49:46Z</time>
      </trkpt>
      <trkpt lat="45.8845" lon="3.03568">
        <ele>569.4</ele>
        <time>2024-07-26T12:49:48Z</time>
      </trkpt>
      <trkpt lat="45.88449" lon="3.03568">
        <ele>569.6</ele>
        <time>2024-07-26T12:49:49Z</time>
      </trkpt>
      <trkpt lat="45.88447" lon="3.03567">
        <ele>570.3</ele>
        <time>2024-07-26T12:49:51Z</time>
      </trkpt>
      <trkpt lat="45.88446" lon="3.03567">
        <ele>570</ele>
        <time>2024-07-26T12:49:52Z</time>
      </trkpt>
      <trkpt lat="45.88445" lon="3.03566">
        <ele>571.2</ele>
        <time>2024-07-26T12:49:54Z</time>
      </trkpt>
      <trkpt lat="45.88444" lon="3.03568">
        <ele>572.6</ele>
        <time>2024-07-26T12:49:55Z</time>
      </trkpt>
      <trkpt lat="45.88445" lon="3.03569">
        <ele>573.7</ele>
        <time>2024-07-26T12:49:56Z</time>
      </trkpt>
      <trkpt lat="45.88445" lon="3.03571">
        <ele>580.6</ele>
        <time>2024-07-26T12:49:59Z</time>
      </trkpt>
      <trkpt lat="45.88445" lon="3.03573">
        <ele>579.7</ele>
        <time>2024-07-26T12:50:00Z</time>
      </trkpt>
      <trkpt lat="45.88444" lon="3.03574">
        <ele>582.3</ele>
        <time>2024-07-26T12:50:01Z</time>
      </trkpt>
      <trkpt lat="45.88444" lon="3.03577">
        <ele>580.9</ele>
        <time>2024-07-26T12:50:03Z</time>
      </trkpt>
      <trkpt lat="45.88444" lon="3.03578">
        <ele>580.8</ele>
        <time>2024-07-26T12:50:04Z</time>
      </trkpt>
      <trkpt lat="45.88443" lon="3.03579">
        <ele>580.9</ele>
        <time>2024-07-26T12:50:05Z</time>
      </trkpt>
      <trkpt lat="45.88443" lon="3.03581">
        <ele>580.8</ele>
        <time>2024-07-26T12:50:06Z</time>
      </trkpt>
      <trkpt lat="45.88442" lon="3.03582">
        <ele>581.3</ele>
        <time>2024-07-26T12:50:08Z</time>
      </trkpt>
      <trkpt lat="45.88441" lon="3.03583">
        <ele>580.9</ele>
        <time>2024-07-26T12:50:09Z</time>
      </trkpt>
      <trkpt lat="45.8844" lon="3.03585">
        <ele>580.6</ele>
        <time>2024-07-26T12:50:11Z</time>
      </trkpt>
      <trkpt lat="45.88438" lon="3.03586">
        <ele>583.3</ele>
        <time>2024-07-26T12:50:13Z</time>
      </trkpt>
      <trkpt lat="45.88437" lon="3.03588">
        <ele>583.3</ele>
        <time>2024-07-26T12:50:15Z</time>
      </trkpt>
      <trkpt lat="45.88437" lon="3.0359">
        <ele>586.1</ele>
        <time>2024-07-26T12:50:17Z</time>
      </trkpt>
      <trkpt lat="45.88436" lon="3.03592">
        <ele>590</ele>
        <time>2024-07-26T12:50:20Z</time>
      </trkpt>
      <trkpt lat="45.88435" lon="3.03593">
        <ele>589.9</ele>
        <time>2024-07-26T12:50:22Z</time>
      </trkpt>
      <trkpt lat="45.88435" lon="3.03595">
        <ele>590.8</ele>
        <time>2024-07-26T12:50:24Z</time>
      </trkpt>
      <trkpt lat="45.88434" lon="3.03596">
        <ele>593.3</ele>
        <time>2024-07-26T12:50:26Z</time>
      </trkpt>
      <trkpt lat="45.88434" lon="3.03597">
        <ele>592.3</ele>
        <time>2024-07-26T12:50:30Z</time>
      </trkpt>
      <trkpt lat="45.88434" lon="3.03598">
        <ele>592.2</ele>
        <time>2024-07-26T12:50:35Z</time>
      </trkpt>
      <trkpt lat="45.88433" lon="3.03599">
        <ele>592.1</ele>
        <time>2024-07-26T12:50:37Z</time>
      </trkpt>
      <trkpt lat="45.88432" lon="3.036">
        <ele>591.3</ele>
        <time>2024-07-26T12:50:39Z</time>
      </trkpt>
      <trkpt lat="45.88432" lon="3.03602">
        <ele>596.7</ele>
        <time>2024-07-26T12:50:42Z</time>
      </trkpt>
      <trkpt lat="45.88431" lon="3.03603">
        <ele>594.3</ele>
        <time>2024-07-26T12:50:44Z</time>
      </trkpt>
      <trkpt lat="45.8843" lon="3.03603">
        <ele>595.2</ele>
        <time>2024-07-26T12:50:45Z</time>
      </trkpt>
      <trkpt lat="45.88429" lon="3.03603">
        <ele>597</ele>
        <time>2024-07-26T12:50:47Z</time>
      </trkpt>
      <trkpt lat="45.88429" lon="3.03606">
        <ele>599.2</ele>
        <time>2024-07-26T12:50:49Z</time>
      </trkpt>
      <trkpt lat="45.88429" lon="3.03608">
        <ele>598.7</ele>
        <time>2024-07-26T12:50:50Z</time>
      </trkpt>
      <trkpt lat="45.88429" lon="3.03609">
        <ele>598</ele>
        <time>2024-07-26T12:50:51Z</time>
      </trkpt>
      <trkpt lat="45.88429" lon="3.03611">
        <ele>597.5</ele>
        <time>2024-07-26T12:50:52Z</time>
      </trkpt>
      <trkpt lat="45.88429" lon="3.03613">
        <ele>596.6</ele>
        <time>2024-07-26T12:50:53Z</time>
      </trkpt>
      <trkpt lat="45.88429" lon="3.03614">
        <ele>595</ele>
        <time>2024-07-26T12:50:54Z</time>
      </trkpt>
      <trkpt lat="45.88429" lon="3.03616">
        <ele>594.1</ele>
        <time>2024-07-26T12:50:55Z</time>
      </trkpt>
      <trkpt lat="45.88429" lon="3.03619">
        <ele>594.1</ele>
        <time>2024-07-26T12:50:56Z</time>
      </trkpt>
      <trkpt lat="45.88429" lon="3.03621">
        <ele>594.3</ele>
        <time>2024-07-26T12:50:57Z</time>
      </trkpt>
      <trkpt lat="45.88429" lon="3.03622">
        <ele>594.2</ele>
        <time>2024-07-26T12:50:58Z</time>
      </trkpt>
      <trkpt lat="45.88429" lon="3.03624">
        <ele>595.6</ele>
        <time>2024-07-26T12:50:59Z</time>
      </trkpt>
      <trkpt lat="45.88429" lon="3.03626">
        <ele>595.4</ele>
        <time>2024-07-26T12:51:00Z</time>
      </trkpt>
      <trkpt lat="45.88429" lon="3.03628">
        <ele>595.1</ele>
        <time>2024-07-26T12:51:01Z</time>
      </trkpt>
      <trkpt lat="45.8843" lon="3.0363">
        <ele>595.6</ele>
        <time>2024-07-26T12:51:02Z</time>
      </trkpt>
      <trkpt lat="45.8843" lon="3.03631">
        <ele>595.7</ele>
        <time>2024-07-26T12:51:03Z</time>
      </trkpt>
      <trkpt lat="45.88431" lon="3.03633">
        <ele>594.7</ele>
        <time>2024-07-26T12:51:04Z</time>
      </trkpt>
      <trkpt lat="45.88431" lon="3.03634">
        <ele>594</ele>
        <time>2024-07-26T12:51:05Z</time>
      </trkpt>
      <trkpt lat="45.88432" lon="3.03637">
        <ele>594</ele>
        <time>2024-07-26T12:51:07Z</time>
      </trkpt>
      <trkpt lat="45.88433" lon="3.03638">
        <ele>594.7</ele>
        <time>2024-07-26T12:51:08Z</time>
      </trkpt>
      <trkpt lat="45.88434" lon="3.0364">
        <ele>592.1</ele>
        <time>2024-07-26T12:51:09Z</time>
      </trkpt>
      <trkpt lat="45.88434" lon="3.0364">
        <ele>591.3</ele>
        <time>2024-07-26T12:51:10Z</time>
      </trkpt>
      <trkpt lat="45.88435" lon="3.03641">
        <ele>591.9</ele>
        <time>2024-07-26T12:51:11Z</time>
      </trkpt>
      <trkpt lat="45.88436" lon="3.03642">
        <ele>592</ele>
        <time>2024-07-26T12:51:12Z</time>
      </trkpt>
      <trkpt lat="45.88437" lon="3.03643">
        <ele>592</ele>
        <time>2024-07-26T12:51:13Z</time>
      </trkpt>
      <trkpt lat="45.88438" lon="3.03644">
        <ele>591.7</ele>
        <time>2024-07-26T12:51:14Z</time>
      </trkpt>
      <trkpt lat="45.88438" lon="3.03645">
        <ele>591.9</ele>
        <time>2024-07-26T12:51:15Z</time>
      </trkpt>
      <trkpt lat="45.88439" lon="3.03647">
        <ele>591</ele>
        <time>2024-07-26T12:51:17Z</time>
      </trkpt>
      <trkpt lat="45.8844" lon="3.03648">
        <ele>590.3</ele>
        <time>2024-07-26T12:51:19Z</time>
      </trkpt>
      <trkpt lat="45.88441" lon="3.0365">
        <ele>590.7</ele>
        <time>2024-07-26T12:51:21Z</time>
      </trkpt>
      <trkpt lat="45.88442" lon="3.03651">
        <ele>590.2</ele>
        <time>2024-07-26T12:51:23Z</time>
      </trkpt>
      <trkpt lat="45.88442" lon="3.03653">
        <ele>590</ele>
        <time>2024-07-26T12:51:25Z</time>
      </trkpt>
      <trkpt lat="45.88443" lon="3.03656">
        <ele>589.6</ele>
        <time>2024-07-26T12:51:27Z</time>
      </trkpt>
      <trkpt lat="45.88444" lon="3.03656">
        <ele>590.5</ele>
        <time>2024-07-26T12:51:29Z</time>
      </trkpt>
      <trkpt lat="45.88445" lon="3.03657">
        <ele>590.4</ele>
        <time>2024-07-26T12:51:31Z</time>
      </trkpt>
      <trkpt lat="45.88446" lon="3.03659">
        <ele>590.2</ele>
        <time>2024-07-26T12:51:33Z</time>
      </trkpt>
      <trkpt lat="45.88446" lon="3.03661">
        <ele>590</ele>
        <time>2024-07-26T12:51:34Z</time>
      </trkpt>
      <trkpt lat="45.88446" lon="3.03662">
        <ele>590.2</ele>
        <time>2024-07-26T12:51:36Z</time>
      </trkpt>
      <trkpt lat="45.88447" lon="3.03662">
        <ele>590.6</ele>
        <time>2024-07-26T12:51:38Z</time>
      </trkpt>
      <trkpt lat="45.88447" lon="3.03664">
        <ele>590</ele>
        <time>2024-07-26T12:51:40Z</time>
      </trkpt>
      <trkpt lat="45.88446" lon="3.03666">
        <ele>589.3</ele>
        <time>2024-07-26T12:51:41Z</time>
      </trkpt>
      <trkpt lat="45.88446" lon="3.03667">
        <ele>589.4</ele>
        <time>2024-07-26T12:51:43Z</time>
      </trkpt>
      <trkpt lat="45.88447" lon="3.03669">
        <ele>589.3</ele>
        <time>2024-07-26T12:51:45Z</time>
      </trkpt>
      <trkpt lat="45.88449" lon="3.0367">
        <ele>589.2</ele>
        <time>2024-07-26T12:51:47Z</time>
      </trkpt>
      <trkpt lat="45.8845" lon="3.03671">
        <ele>589.2</ele>
        <time>2024-07-26T12:51:49Z</time>
      </trkpt>
      <trkpt lat="45.88451" lon="3.03673">
        <ele>588.3</ele>
        <time>2024-07-26T12:51:51Z</time>
      </trkpt>
      <trkpt lat="45.88451" lon="3.03676">
        <ele>588.6</ele>
        <time>2024-07-26T12:51:53Z</time>
      </trkpt>
      <trkpt lat="45.88451" lon="3.03677">
        <ele>588.8</ele>
        <time>2024-07-26T12:51:55Z</time>
      </trkpt>
      <trkpt lat="45.88452" lon="3.03679">
        <ele>588.4</ele>
        <time>2024-07-26T12:51:57Z</time>
      </trkpt>
      <trkpt lat="45.88453" lon="3.0368">
        <ele>589</ele>
        <time>2024-07-26T12:51:59Z</time>
      </trkpt>
      <trkpt lat="45.88454" lon="3.03682">
        <ele>588.5</ele>
        <time>2024-07-26T12:52:01Z</time>
      </trkpt>
      <trkpt lat="45.88455" lon="3.03683">
        <ele>588.6</ele>
        <time>2024-07-26T12:52:03Z</time>
      </trkpt>
      <trkpt lat="45.88456" lon="3.03685">
        <ele>588.8</ele>
        <time>2024-07-26T12:52:04Z</time>
      </trkpt>
      <trkpt lat="45.88457" lon="3.03686">
        <ele>589.1</ele>
        <time>2024-07-26T12:52:05Z</time>
      </trkpt>
      <trkpt lat="45.88457" lon="3.03688">
        <ele>588.3</ele>
        <time>2024-07-26T12:52:06Z</time>
      </trkpt>
      <trkpt lat="45.88459" lon="3.03689">
        <ele>587.4</ele>
        <time>2024-07-26T12:52:08Z</time>
      </trkpt>
      <trkpt lat="45.88459" lon="3.0369">
        <ele>588.8</ele>
        <time>2024-07-26T12:52:11Z</time>
      </trkpt>
      <trkpt lat="45.88459" lon="3.03691">
        <ele>588.9</ele>
        <time>2024-07-26T12:52:13Z</time>
      </trkpt>
      <trkpt lat="45.88459" lon="3.03693">
        <ele>593.2</ele>
        <time>2024-07-26T12:52:16Z</time>
      </trkpt>
      <trkpt lat="45.8846" lon="3.03694">
        <ele>595.3</ele>
        <time>2024-07-26T12:52:19Z</time>
      </trkpt>
      <trkpt lat="45.88461" lon="3.03694">
        <ele>596.5</ele>
        <time>2024-07-26T12:52:20Z</time>
      </trkpt>
      <trkpt lat="45.88462" lon="3.03695">
        <ele>596.9</ele>
        <time>2024-07-26T12:52:21Z</time>
      </trkpt>
      <trkpt lat="45.88463" lon="3.03697">
        <ele>597</ele>
        <time>2024-07-26T12:52:22Z</time>
      </trkpt>
      <trkpt lat="45.88464" lon="3.03698">
        <ele>596.4</ele>
        <time>2024-07-26T12:52:23Z</time>
      </trkpt>
      <trkpt lat="45.88464" lon="3.037">
        <ele>596.5</ele>
        <time>2024-07-26T12:52:24Z</time>
      </trkpt>
      <trkpt lat="45.88464" lon="3.03702">
        <ele>597.1</ele>
        <time>2024-07-26T12:52:25Z</time>
      </trkpt>
      <trkpt lat="45.88464" lon="3.03703">
        <ele>597</ele>
        <time>2024-07-26T12:52:26Z</time>
      </trkpt>
      <trkpt lat="45.88464" lon="3.03705">
        <ele>597.2</ele>
        <time>2024-07-26T12:52:27Z</time>
      </trkpt>
      <trkpt lat="45.88464" lon="3.03706">
        <ele>595.7</ele>
        <time>2024-07-26T12:52:28Z</time>
      </trkpt>
      <trkpt lat="45.88464" lon="3.03708">
        <ele>595.4</ele>
        <time>2024-07-26T12:52:30Z</time>
      </trkpt>
      <trkpt lat="45.88464" lon="3.0371">
        <ele>595.3</ele>
        <time>2024-07-26T12:52:32Z</time>
      </trkpt>
      <trkpt lat="45.88462" lon="3.03711">
        <ele>593.9</ele>
        <time>2024-07-26T12:52:33Z</time>
      </trkpt>
      <trkpt lat="45.8846" lon="3.03711">
        <ele>593</ele>
        <time>2024-07-26T12:52:34Z</time>
      </trkpt>
      <trkpt lat="45.88459" lon="3.03712">
        <ele>593.3</ele>
        <time>2024-07-26T12:52:36Z</time>
      </trkpt>
      <trkpt lat="45.8846" lon="3.03712">
        <ele>590.2</ele>
        <time>2024-07-26T12:52:39Z</time>
      </trkpt>
      <trkpt lat="45.8846" lon="3.0371">
        <ele>596.8</ele>
        <time>2024-07-26T12:52:40Z</time>
      </trkpt>
      <trkpt lat="45.88461" lon="3.03709">
        <ele>592</ele>
        <time>2024-07-26T12:52:44Z</time>
      </trkpt>
      <trkpt lat="45.88462" lon="3.03709">
        <ele>590.2</ele>
        <time>2024-07-26T12:52:46Z</time>
      </trkpt>
      <trkpt lat="45.88463" lon="3.0371">
        <ele>593.9</ele>
        <time>2024-07-26T12:52:48Z</time>
      </trkpt>
      <trkpt lat="45.88464" lon="3.0371">
        <ele>590.2</ele>
        <time>2024-07-26T12:52:50Z</time>
      </trkpt>
      <trkpt lat="45.88465" lon="3.03711">
        <ele>589.7</ele>
        <time>2024-07-26T12:52:52Z</time>
      </trkpt>
      <trkpt lat="45.88466" lon="3.03711">
        <ele>589.2</ele>
        <time>2024-07-26T12:52:56Z</time>
      </trkpt>
      <trkpt lat="45.88468" lon="3.03712">
        <ele>590.1</ele>
        <time>2024-07-26T12:52:58Z</time>
      </trkpt>
      <trkpt lat="45.88469" lon="3.03714">
        <ele>587.2</ele>
        <time>2024-07-26T12:53:00Z</time>
      </trkpt>
      <trkpt lat="45.88469" lon="3.03715">
        <ele>587.1</ele>
        <time>2024-07-26T12:53:02Z</time>
      </trkpt>
      <trkpt lat="45.88469" lon="3.03717">
        <ele>586.2</ele>
        <time>2024-07-26T12:53:03Z</time>
      </trkpt>
      <trkpt lat="45.8847" lon="3.03718">
        <ele>587.7</ele>
        <time>2024-07-26T12:53:05Z</time>
      </trkpt>
      <trkpt lat="45.88471" lon="3.03719">
        <ele>587.5</ele>
        <time>2024-07-26T12:53:06Z</time>
      </trkpt>
      <trkpt lat="45.88472" lon="3.0372">
        <ele>589.1</ele>
        <time>2024-07-26T12:53:07Z</time>
      </trkpt>
      <trkpt lat="45.88474" lon="3.03722">
        <ele>590</ele>
        <time>2024-07-26T12:53:09Z</time>
      </trkpt>
      <trkpt lat="45.88476" lon="3.03724">
        <ele>590.9</ele>
        <time>2024-07-26T12:53:10Z</time>
      </trkpt>
      <trkpt lat="45.88478" lon="3.03727">
        <ele>590.7</ele>
        <time>2024-07-26T12:53:12Z</time>
      </trkpt>
      <trkpt lat="45.8848" lon="3.03728">
        <ele>591.3</ele>
        <time>2024-07-26T12:53:14Z</time>
      </trkpt>
      <trkpt lat="45.88481" lon="3.03728">
        <ele>591</ele>
        <time>2024-07-26T12:53:16Z</time>
      </trkpt>
      <trkpt lat="45.88481" lon="3.03731">
        <ele>587.4</ele>
        <time>2024-07-26T12:53:19Z</time>
      </trkpt>
      <trkpt lat="45.88481" lon="3.03732">
        <ele>586.5</ele>
        <time>2024-07-26T12:53:20Z</time>
      </trkpt>
      <trkpt lat="45.88481" lon="3.03734">
        <ele>587.5</ele>
        <time>2024-07-26T12:53:21Z</time>
      </trkpt>
      <trkpt lat="45.8848" lon="3.03735">
        <ele>589.6</ele>
        <time>2024-07-26T12:53:23Z</time>
      </trkpt>
      <trkpt lat="45.88481" lon="3.03738">
        <ele>591.8</ele>
        <time>2024-07-26T12:53:25Z</time>
      </trkpt>
      <trkpt lat="45.88481" lon="3.03736">
        <ele>592.8</ele>
        <time>2024-07-26T12:53:28Z</time>
      </trkpt>
      <trkpt lat="45.88482" lon="3.03738">
        <ele>589.6</ele>
        <time>2024-07-26T12:53:32Z</time>
      </trkpt>
      <trkpt lat="45.88483" lon="3.03739">
        <ele>591.3</ele>
        <time>2024-07-26T12:53:34Z</time>
      </trkpt>
      <trkpt lat="45.88484" lon="3.0374">
        <ele>591.8</ele>
        <time>2024-07-26T12:53:35Z</time>
      </trkpt>
      <trkpt lat="45.88486" lon="3.03741">
        <ele>590</ele>
        <time>2024-07-26T12:53:36Z</time>
      </trkpt>
      <trkpt lat="45.88487" lon="3.03742">
        <ele>589.3</ele>
        <time>2024-07-26T12:53:37Z</time>
      </trkpt>
      <trkpt lat="45.88487" lon="3.03743">
        <ele>590.1</ele>
        <time>2024-07-26T12:53:38Z</time>
      </trkpt>
      <trkpt lat="45.88488" lon="3.03745">
        <ele>592.1</ele>
        <time>2024-07-26T12:53:40Z</time>
      </trkpt>
      <trkpt lat="45.88489" lon="3.03747">
        <ele>589.4</ele>
        <time>2024-07-26T12:53:42Z</time>
      </trkpt>
      <trkpt lat="45.8849" lon="3.03749">
        <ele>587</ele>
        <time>2024-07-26T12:53:43Z</time>
      </trkpt>
      <trkpt lat="45.8849" lon="3.0375">
        <ele>586.8</ele>
        <time>2024-07-26T12:53:45Z</time>
      </trkpt>
      <trkpt lat="45.88491" lon="3.03752">
        <ele>588.8</ele>
        <time>2024-07-26T12:53:47Z</time>
      </trkpt>
      <trkpt lat="45.88492" lon="3.03752">
        <ele>588.5</ele>
        <time>2024-07-26T12:53:50Z</time>
      </trkpt>
      <trkpt lat="45.88494" lon="3.03752">
        <ele>588.6</ele>
        <time>2024-07-26T12:53:51Z</time>
      </trkpt>
      <trkpt lat="45.88493" lon="3.03753">
        <ele>593.8</ele>
        <time>2024-07-26T12:53:58Z</time>
      </trkpt>
      <trkpt lat="45.88492" lon="3.03754">
        <ele>595.9</ele>
        <time>2024-07-26T12:54:01Z</time>
      </trkpt>
      <trkpt lat="45.88491" lon="3.03755">
        <ele>595</ele>
        <time>2024-07-26T12:54:04Z</time>
      </trkpt>
      <trkpt lat="45.88489" lon="3.03756">
        <ele>594.1</ele>
        <time>2024-07-26T12:54:06Z</time>
      </trkpt>
      <trkpt lat="45.88488" lon="3.03758">
        <ele>597.2</ele>
        <time>2024-07-26T12:54:08Z</time>
      </trkpt>
      <trkpt lat="45.88488" lon="3.03761">
        <ele>598.5</ele>
        <time>2024-07-26T12:54:10Z</time>
      </trkpt>
      <trkpt lat="45.88489" lon="3.03762">
        <ele>598.5</ele>
        <time>2024-07-26T12:54:11Z</time>
      </trkpt>
      <trkpt lat="45.8849" lon="3.03763">
        <ele>594</ele>
        <time>2024-07-26T12:54:13Z</time>
      </trkpt>
      <trkpt lat="45.8849" lon="3.03765">
        <ele>594</ele>
        <time>2024-07-26T12:54:16Z</time>
      </trkpt>
      <trkpt lat="45.88491" lon="3.03766">
        <ele>593.1</ele>
        <time>2024-07-26T12:54:18Z</time>
      </trkpt>
      <trkpt lat="45.88492" lon="3.03767">
        <ele>593.8</ele>
        <time>2024-07-26T12:54:21Z</time>
      </trkpt>
      <trkpt lat="45.88493" lon="3.03768">
        <ele>594.1</ele>
        <time>2024-07-26T12:54:23Z</time>
      </trkpt>
      <trkpt lat="45.88495" lon="3.03768">
        <ele>588</ele>
        <time>2024-07-26T12:54:25Z</time>
      </trkpt>
      <trkpt lat="45.88496" lon="3.03769">
        <ele>588.7</ele>
        <time>2024-07-26T12:54:26Z</time>
      </trkpt>
      <trkpt lat="45.88497" lon="3.0377">
        <ele>588.5</ele>
        <time>2024-07-26T12:54:27Z</time>
      </trkpt>
      <trkpt lat="45.88498" lon="3.0377">
        <ele>586.6</ele>
        <time>2024-07-26T12:54:28Z</time>
      </trkpt>
      <trkpt lat="45.88499" lon="3.03771">
        <ele>587.9</ele>
        <time>2024-07-26T12:54:29Z</time>
      </trkpt>
      <trkpt lat="45.885" lon="3.03772">
        <ele>587.8</ele>
        <time>2024-07-26T12:54:30Z</time>
      </trkpt>
      <trkpt lat="45.88501" lon="3.03773">
        <ele>587.4</ele>
        <time>2024-07-26T12:54:32Z</time>
      </trkpt>
      <trkpt lat="45.885" lon="3.03775">
        <ele>588.3</ele>
        <time>2024-07-26T12:54:55Z</time>
      </trkpt>
      <trkpt lat="45.885" lon="3.03776">
        <ele>588.5</ele>
        <time>2024-07-26T12:54:56Z</time>
      </trkpt>
      <trkpt lat="45.885" lon="3.03778">
        <ele>589</ele>
        <time>2024-07-26T12:54:57Z</time>
      </trkpt>
      <trkpt lat="45.88499" lon="3.03778">
        <ele>588.3</ele>
        <time>2024-07-26T12:55:00Z</time>
      </trkpt>
      <trkpt lat="45.885" lon="3.0378">
        <ele>585.2</ele>
        <time>2024-07-26T12:55:02Z</time>
      </trkpt>
      <trkpt lat="45.885" lon="3.03782">
        <ele>587.4</ele>
        <time>2024-07-26T12:55:04Z</time>
      </trkpt>
      <trkpt lat="45.885" lon="3.03783">
        <ele>588.9</ele>
        <time>2024-07-26T12:55:06Z</time>
      </trkpt>
      <trkpt lat="45.88498" lon="3.03785">
        <ele>587.5</ele>
        <time>2024-07-26T12:55:08Z</time>
      </trkpt>
      <trkpt lat="45.88498" lon="3.03786">
        <ele>588.4</ele>
        <time>2024-07-26T12:55:09Z</time>
      </trkpt>
      <trkpt lat="45.88498" lon="3.03787">
        <ele>590</ele>
        <time>2024-07-26T12:55:11Z</time>
      </trkpt>
      <trkpt lat="45.88499" lon="3.03787">
        <ele>588.9</ele>
        <time>2024-07-26T12:55:14Z</time>
      </trkpt>
      <trkpt lat="45.885" lon="3.03789">
        <ele>586.7</ele>
        <time>2024-07-26T12:55:16Z</time>
      </trkpt>
      <trkpt lat="45.885" lon="3.0379">
        <ele>588</ele>
        <time>2024-07-26T12:55:26Z</time>
      </trkpt>
      <trkpt lat="45.885" lon="3.03788">
        <ele>586.8</ele>
        <time>2024-07-26T12:55:32Z</time>
      </trkpt>
      <trkpt lat="45.88501" lon="3.03787">
        <ele>586.7</ele>
        <time>2024-07-26T12:55:33Z</time>
      </trkpt>
      <trkpt lat="45.88502" lon="3.03787">
        <ele>587.4</ele>
        <time>2024-07-26T12:55:34Z</time>
      </trkpt>
      <trkpt lat="45.88501" lon="3.03786">
        <ele>585.1</ele>
        <time>2024-07-26T12:55:37Z</time>
      </trkpt>
      <trkpt lat="45.88499" lon="3.03785">
        <ele>583.9</ele>
        <time>2024-07-26T12:55:38Z</time>
      </trkpt>
      <trkpt lat="45.88497" lon="3.03784">
        <ele>583</ele>
        <time>2024-07-26T12:55:39Z</time>
      </trkpt>
      <trkpt lat="45.88496" lon="3.03784">
        <ele>583.7</ele>
        <time>2024-07-26T12:55:40Z</time>
      </trkpt>
      <trkpt lat="45.88495" lon="3.03784">
        <ele>583.9</ele>
        <time>2024-07-26T12:55:42Z</time>
      </trkpt>
      <trkpt lat="45.88493" lon="3.03783">
        <ele>582.5</ele>
        <time>2024-07-26T12:55:44Z</time>
      </trkpt>
      <trkpt lat="45.88492" lon="3.03783">
        <ele>584.7</ele>
        <time>2024-07-26T12:55:46Z</time>
      </trkpt>
      <trkpt lat="45.88491" lon="3.03781">
        <ele>579.6</ele>
        <time>2024-07-26T12:55:50Z</time>
      </trkpt>
      <trkpt lat="45.8849" lon="3.03781">
        <ele>581.5</ele>
        <time>2024-07-26T12:55:52Z</time>
      </trkpt>
      <trkpt lat="45.88489" lon="3.03778">
        <ele>580</ele>
        <time>2024-07-26T12:55:54Z</time>
      </trkpt>
      <trkpt lat="45.88489" lon="3.03777">
        <ele>580.3</ele>
        <time>2024-07-26T12:55:55Z</time>
      </trkpt>
      <trkpt lat="45.88489" lon="3.03775">
        <ele>580.6</ele>
        <time>2024-07-26T12:55:56Z</time>
      </trkpt>
      <trkpt lat="45.88489" lon="3.03774">
        <ele>581.7</ele>
        <time>2024-07-26T12:55:57Z</time>
      </trkpt>
      <trkpt lat="45.88489" lon="3.03772">
        <ele>582.7</ele>
        <time>2024-07-26T12:55:59Z</time>
      </trkpt>
      <trkpt lat="45.88489" lon="3.03771">
        <ele>581.1</ele>
        <time>2024-07-26T12:56:01Z</time>
      </trkpt>
      <trkpt lat="45.88488" lon="3.0377">
        <ele>584.1</ele>
        <time>2024-07-26T12:56:04Z</time>
      </trkpt>
      <trkpt lat="45.88488" lon="3.03769">
        <ele>586</ele>
        <time>2024-07-26T12:56:06Z</time>
      </trkpt>
      <trkpt lat="45.88487" lon="3.03767">
        <ele>587.6</ele>
        <time>2024-07-26T12:56:08Z</time>
      </trkpt>
      <trkpt lat="45.88487" lon="3.03766">
        <ele>588</ele>
        <time>2024-07-26T12:56:10Z</time>
      </trkpt>
      <trkpt lat="45.88486" lon="3.03765">
        <ele>591.5</ele>
        <time>2024-07-26T12:56:13Z</time>
      </trkpt>
      <trkpt lat="45.88485" lon="3.03764">
        <ele>593.6</ele>
        <time>2024-07-26T12:56:16Z</time>
      </trkpt>
      <trkpt lat="45.88484" lon="3.03763">
        <ele>594.3</ele>
        <time>2024-07-26T12:56:19Z</time>
      </trkpt>
      <trkpt lat="45.88483" lon="3.03762">
        <ele>593.7</ele>
        <time>2024-07-26T12:56:21Z</time>
      </trkpt>
      <trkpt lat="45.88482" lon="3.03761">
        <ele>593.5</ele>
        <time>2024-07-26T12:56:22Z</time>
      </trkpt>
      <trkpt lat="45.88481" lon="3.03761">
        <ele>593.4</ele>
        <time>2024-07-26T12:56:23Z</time>
      </trkpt>
      <trkpt lat="45.88479" lon="3.0376">
        <ele>594.5</ele>
        <time>2024-07-26T12:56:25Z</time>
      </trkpt>
      <trkpt lat="45.88478" lon="3.0376">
        <ele>594.1</ele>
        <time>2024-07-26T12:56:26Z</time>
      </trkpt>
      <trkpt lat="45.88477" lon="3.03759">
        <ele>596</ele>
        <time>2024-07-26T12:56:29Z</time>
      </trkpt>
      <trkpt lat="45.88475" lon="3.03759">
        <ele>596.4</ele>
        <time>2024-07-26T12:56:31Z</time>
      </trkpt>
      <trkpt lat="45.88475" lon="3.03758">
        <ele>597.2</ele>
        <time>2024-07-26T12:56:32Z</time>
      </trkpt>
      <trkpt lat="45.88474" lon="3.03757">
        <ele>596.4</ele>
        <time>2024-07-26T12:56:33Z</time>
      </trkpt>
      <trkpt lat="45.88473" lon="3.03756">
        <ele>596.9</ele>
        <time>2024-07-26T12:56:34Z</time>
      </trkpt>
      <trkpt lat="45.88472" lon="3.03755">
        <ele>596.4</ele>
        <time>2024-07-26T12:56:35Z</time>
      </trkpt>
      <trkpt lat="45.88471" lon="3.03753">
        <ele>595.2</ele>
        <time>2024-07-26T12:56:37Z</time>
      </trkpt>
      <trkpt lat="45.88471" lon="3.03751">
        <ele>595.1</ele>
        <time>2024-07-26T12:56:38Z</time>
      </trkpt>
      <trkpt lat="45.88471" lon="3.03749">
        <ele>594.7</ele>
        <time>2024-07-26T12:56:39Z</time>
      </trkpt>
      <trkpt lat="45.88471" lon="3.03748">
        <ele>594.7</ele>
        <time>2024-07-26T12:56:40Z</time>
      </trkpt>
      <trkpt lat="45.88471" lon="3.03746">
        <ele>595.6</ele>
        <time>2024-07-26T12:56:41Z</time>
      </trkpt>
      <trkpt lat="45.8847" lon="3.03745">
        <ele>595.3</ele>
        <time>2024-07-26T12:56:43Z</time>
      </trkpt>
      <trkpt lat="45.88469" lon="3.03745">
        <ele>595.2</ele>
        <time>2024-07-26T12:56:45Z</time>
      </trkpt>
      <trkpt lat="45.88468" lon="3.03745">
        <ele>595.3</ele>
        <time>2024-07-26T12:56:47Z</time>
      </trkpt>
      <trkpt lat="45.88467" lon="3.03745">
        <ele>596.3</ele>
        <time>2024-07-26T12:56:48Z</time>
      </trkpt>
      <trkpt lat="45.88466" lon="3.03745">
        <ele>598.4</ele>
        <time>2024-07-26T12:56:49Z</time>
      </trkpt>
      <trkpt lat="45.88464" lon="3.03745">
        <ele>595.6</ele>
        <time>2024-07-26T12:56:50Z</time>
      </trkpt>
      <trkpt lat="45.88463" lon="3.03745">
        <ele>594.8</ele>
        <time>2024-07-26T12:56:51Z</time>
      </trkpt>
      <trkpt lat="45.88462" lon="3.03745">
        <ele>594.5</ele>
        <time>2024-07-26T12:56:52Z</time>
      </trkpt>
      <trkpt lat="45.8846" lon="3.03745">
        <ele>595.1</ele>
        <time>2024-07-26T12:56:53Z</time>
      </trkpt>
      <trkpt lat="45.88459" lon="3.03745">
        <ele>593.8</ele>
        <time>2024-07-26T12:56:54Z</time>
      </trkpt>
      <trkpt lat="45.88458" lon="3.03746">
        <ele>600.5</ele>
        <time>2024-07-26T12:56:56Z</time>
      </trkpt>
      <trkpt lat="45.88458" lon="3.03746">
        <ele>604.1</ele>
        <time>2024-07-26T12:56:58Z</time>
      </trkpt>
      <trkpt lat="45.88457" lon="3.03745">
        <ele>604.8</ele>
        <time>2024-07-26T12:57:01Z</time>
      </trkpt>
      <trkpt lat="45.88456" lon="3.03744">
        <ele>605.7</ele>
        <time>2024-07-26T12:57:03Z</time>
      </trkpt>
      <trkpt lat="45.88455" lon="3.03744">
        <ele>605.8</ele>
        <time>2024-07-26T12:57:06Z</time>
      </trkpt>
      <trkpt lat="45.88454" lon="3.03744">
        <ele>608</ele>
        <time>2024-07-26T12:57:08Z</time>
      </trkpt>
      <trkpt lat="45.88454" lon="3.03746">
        <ele>610.1</ele>
        <time>2024-07-26T12:57:14Z</time>
      </trkpt>
      <trkpt lat="45.88453" lon="3.03746">
        <ele>610.8</ele>
        <time>2024-07-26T12:57:17Z</time>
      </trkpt>
      <trkpt lat="45.88452" lon="3.03747">
        <ele>609.3</ele>
        <time>2024-07-26T12:57:19Z</time>
      </trkpt>
      <trkpt lat="45.88451" lon="3.03748">
        <ele>604</ele>
        <time>2024-07-26T12:57:21Z</time>
      </trkpt>
      <trkpt lat="45.8845" lon="3.03749">
        <ele>604.4</ele>
        <time>2024-07-26T12:57:22Z</time>
      </trkpt>
      <trkpt lat="45.88449" lon="3.03751">
        <ele>606.1</ele>
        <time>2024-07-26T12:57:23Z</time>
      </trkpt>
      <trkpt lat="45.88447" lon="3.03752">
        <ele>606.2</ele>
        <time>2024-07-26T12:57:25Z</time>
      </trkpt>
      <trkpt lat="45.88447" lon="3.03753">
        <ele>605.6</ele>
        <time>2024-07-26T12:57:27Z</time>
      </trkpt>
      <trkpt lat="45.88446" lon="3.03753">
        <ele>604.3</ele>
        <time>2024-07-26T12:57:28Z</time>
      </trkpt>
      <trkpt lat="45.88444" lon="3.03752">
        <ele>605</ele>
        <time>2024-07-26T12:57:31Z</time>
      </trkpt>
      <trkpt lat="45.88444" lon="3.03748">
        <ele>604.5</ele>
        <time>2024-07-26T12:57:35Z</time>
      </trkpt>
      <trkpt lat="45.88444" lon="3.03747">
        <ele>604.4</ele>
        <time>2024-07-26T12:57:37Z</time>
      </trkpt>
      <trkpt lat="45.88443" lon="3.03746">
        <ele>603.9</ele>
        <time>2024-07-26T12:57:43Z</time>
      </trkpt>
      <trkpt lat="45.88442" lon="3.03747">
        <ele>599.9</ele>
        <time>2024-07-26T12:57:49Z</time>
      </trkpt>
      <trkpt lat="45.88441" lon="3.0375">
        <ele>605</ele>
        <time>2024-07-26T12:57:51Z</time>
      </trkpt>
      <trkpt lat="45.88441" lon="3.03751">
        <ele>601.9</ele>
        <time>2024-07-26T12:57:52Z</time>
      </trkpt>
      <trkpt lat="45.88441" lon="3.03753">
        <ele>602.4</ele>
        <time>2024-07-26T12:57:53Z</time>
      </trkpt>
      <trkpt lat="45.88441" lon="3.03754">
        <ele>603.1</ele>
        <time>2024-07-26T12:57:54Z</time>
      </trkpt>
      <trkpt lat="45.88442" lon="3.03756">
        <ele>599.5</ele>
        <time>2024-07-26T12:57:56Z</time>
      </trkpt>
      <trkpt lat="45.88442" lon="3.03757">
        <ele>599.7</ele>
        <time>2024-07-26T12:57:58Z</time>
      </trkpt>
      <trkpt lat="45.88444" lon="3.03757">
        <ele>600.2</ele>
        <time>2024-07-26T12:58:00Z</time>
      </trkpt>
      <trkpt lat="45.88445" lon="3.03756">
        <ele>601.2</ele>
        <time>2024-07-26T12:58:02Z</time>
      </trkpt>
      <trkpt lat="45.88444" lon="3.03758">
        <ele>601.7</ele>
        <time>2024-07-26T12:58:08Z</time>
      </trkpt>
      <trkpt lat="45.88443" lon="3.0376">
        <ele>600.9</ele>
        <time>2024-07-26T12:58:10Z</time>
      </trkpt>
      <trkpt lat="45.88442" lon="3.03761">
        <ele>603</ele>
        <time>2024-07-26T12:58:12Z</time>
      </trkpt>
      <trkpt lat="45.88441" lon="3.0376">
        <ele>602.1</ele>
        <time>2024-07-26T12:58:13Z</time>
      </trkpt>
      <trkpt lat="45.8844" lon="3.0376">
        <ele>603</ele>
        <time>2024-07-26T12:58:19Z</time>
      </trkpt>
      <trkpt lat="45.88438" lon="3.03761">
        <ele>601.9</ele>
        <time>2024-07-26T12:58:43Z</time>
      </trkpt>
      <trkpt lat="45.88437" lon="3.03762">
        <ele>601.9</ele>
        <time>2024-07-26T12:58:45Z</time>
      </trkpt>
      <trkpt lat="45.88437" lon="3.0376">
        <ele>602.6</ele>
        <time>2024-07-26T12:58:51Z</time>
      </trkpt>
      <trkpt lat="45.88438" lon="3.03759">
        <ele>605.3</ele>
        <time>2024-07-26T12:58:56Z</time>
      </trkpt>
      <trkpt lat="45.88439" lon="3.03759">
        <ele>604.6</ele>
        <time>2024-07-26T12:59:04Z</time>
      </trkpt>
      <trkpt lat="45.88439" lon="3.03757">
        <ele>602.3</ele>
        <time>2024-07-26T12:59:10Z</time>
      </trkpt>
      <trkpt lat="45.88439" lon="3.03755">
        <ele>602.6</ele>
        <time>2024-07-26T12:59:12Z</time>
      </trkpt>
      <trkpt lat="45.88438" lon="3.03754">
        <ele>602.1</ele>
        <time>2024-07-26T12:59:15Z</time>
      </trkpt>
      <trkpt lat="45.88438" lon="3.03753">
        <ele>601.2</ele>
        <time>2024-07-26T12:59:17Z</time>
      </trkpt>
      <trkpt lat="45.88436" lon="3.03754">
        <ele>599.4</ele>
        <time>2024-07-26T12:59:19Z</time>
      </trkpt>
      <trkpt lat="45.88435" lon="3.03756">
        <ele>599.3</ele>
        <time>2024-07-26T12:59:21Z</time>
      </trkpt>
      <trkpt lat="45.88435" lon="3.03758">
        <ele>597.1</ele>
        <time>2024-07-26T12:59:23Z</time>
      </trkpt>
      <trkpt lat="45.88435" lon="3.0376">
        <ele>601.7</ele>
        <time>2024-07-26T12:59:25Z</time>
      </trkpt>
      <trkpt lat="45.88434" lon="3.03762">
        <ele>599.9</ele>
        <time>2024-07-26T12:59:27Z</time>
      </trkpt>
      <trkpt lat="45.88434" lon="3.03764">
        <ele>604</ele>
        <time>2024-07-26T12:59:29Z</time>
      </trkpt>
      <trkpt lat="45.88433" lon="3.03765">
        <ele>604.2</ele>
        <time>2024-07-26T12:59:31Z</time>
      </trkpt>
      <trkpt lat="45.88432" lon="3.03766">
        <ele>604.1</ele>
        <time>2024-07-26T12:59:34Z</time>
      </trkpt>
      <trkpt lat="45.8843" lon="3.03766">
        <ele>605.4</ele>
        <time>2024-07-26T12:59:36Z</time>
      </trkpt>
      <trkpt lat="45.88429" lon="3.03765">
        <ele>604.6</ele>
        <time>2024-07-26T12:59:39Z</time>
      </trkpt>
      <trkpt lat="45.88427" lon="3.03765">
        <ele>606.5</ele>
        <time>2024-07-26T12:59:41Z</time>
      </trkpt>
      <trkpt lat="45.88426" lon="3.03764">
        <ele>604.6</ele>
        <time>2024-07-26T12:59:42Z</time>
      </trkpt>
      <trkpt lat="45.88426" lon="3.03762">
        <ele>604</ele>
        <time>2024-07-26T12:59:43Z</time>
      </trkpt>
      <trkpt lat="45.88425" lon="3.03761">
        <ele>604.4</ele>
        <time>2024-07-26T12:59:44Z</time>
      </trkpt>
      <trkpt lat="45.88424" lon="3.03759">
        <ele>602.3</ele>
        <time>2024-07-26T12:59:46Z</time>
      </trkpt>
      <trkpt lat="45.88424" lon="3.03758">
        <ele>601.6</ele>
        <time>2024-07-26T12:59:48Z</time>
      </trkpt>
      <trkpt lat="45.88423" lon="3.03756">
        <ele>602.5</ele>
        <time>2024-07-26T12:59:50Z</time>
      </trkpt>
      <trkpt lat="45.88422" lon="3.03754">
        <ele>597.5</ele>
        <time>2024-07-26T12:59:57Z</time>
      </trkpt>
      <trkpt lat="45.88421" lon="3.03753">
        <ele>597.2</ele>
        <time>2024-07-26T12:59:58Z</time>
      </trkpt>
      <trkpt lat="45.8842" lon="3.03752">
        <ele>596.6</ele>
        <time>2024-07-26T12:59:59Z</time>
      </trkpt>
      <trkpt lat="45.88419" lon="3.03752">
        <ele>596.8</ele>
        <time>2024-07-26T13:00:00Z</time>
      </trkpt>
      <trkpt lat="45.88417" lon="3.03751">
        <ele>598.1</ele>
        <time>2024-07-26T13:00:01Z</time>
      </trkpt>
      <trkpt lat="45.88416" lon="3.03751">
        <ele>598.7</ele>
        <time>2024-07-26T13:00:02Z</time>
      </trkpt>
      <trkpt lat="45.88415" lon="3.03751">
        <ele>601.7</ele>
        <time>2024-07-26T13:00:03Z</time>
      </trkpt>
      <trkpt lat="45.88414" lon="3.03752">
        <ele>602.2</ele>
        <time>2024-07-26T13:00:04Z</time>
      </trkpt>
      <trkpt lat="45.88413" lon="3.03753">
        <ele>602.5</ele>
        <time>2024-07-26T13:00:05Z</time>
      </trkpt>
      <trkpt lat="45.88412" lon="3.03753">
        <ele>603.1</ele>
        <time>2024-07-26T13:00:06Z</time>
      </trkpt>
      <trkpt lat="45.88411" lon="3.03754">
        <ele>603</ele>
        <time>2024-07-26T13:00:08Z</time>
      </trkpt>
      <trkpt lat="45.88411" lon="3.03755">
        <ele>603.8</ele>
        <time>2024-07-26T13:00:29Z</time>
      </trkpt>
      <trkpt lat="45.8841" lon="3.03755">
        <ele>603.3</ele>
        <time>2024-07-26T13:00:32Z</time>
      </trkpt>
      <trkpt lat="45.88408" lon="3.03756">
        <ele>599.8</ele>
        <time>2024-07-26T13:00:34Z</time>
      </trkpt>
      <trkpt lat="45.88409" lon="3.03758">
        <ele>598.3</ele>
        <time>2024-07-26T13:00:38Z</time>
      </trkpt>
      <trkpt lat="45.88411" lon="3.03756">
        <ele>597.9</ele>
        <time>2024-07-26T13:00:41Z</time>
      </trkpt>
      <trkpt lat="45.88411" lon="3.03757">
        <ele>597.3</ele>
        <time>2024-07-26T13:00:56Z</time>
      </trkpt>
      <trkpt lat="45.88413" lon="3.03756">
        <ele>598.5</ele>
        <time>2024-07-26T13:01:01Z</time>
      </trkpt>
      <trkpt lat="45.88414" lon="3.03755">
        <ele>598.4</ele>
        <time>2024-07-26T13:01:03Z</time>
      </trkpt>
      <trkpt lat="45.88415" lon="3.03755">
        <ele>599</ele>
        <time>2024-07-26T13:01:04Z</time>
      </trkpt>
      <trkpt lat="45.88416" lon="3.03754">
        <ele>598.6</ele>
        <time>2024-07-26T13:01:05Z</time>
      </trkpt>
      <trkpt lat="45.88417" lon="3.03753">
        <ele>598.2</ele>
        <time>2024-07-26T13:01:09Z</time>
      </trkpt>
      <trkpt lat="45.88414" lon="3.03753">
        <ele>596.8</ele>
        <time>2024-07-26T13:01:29Z</time>
      </trkpt>
      <trkpt lat="45.88413" lon="3.03754">
        <ele>596.8</ele>
        <time>2024-07-26T13:01:30Z</time>
      </trkpt>
      <trkpt lat="45.88412" lon="3.03754">
        <ele>596.8</ele>
        <time>2024-07-26T13:01:32Z</time>
      </trkpt>
      <trkpt lat="45.88412" lon="3.03756">
        <ele>595.8</ele>
        <time>2024-07-26T13:01:39Z</time>
      </trkpt>
      <trkpt lat="45.88412" lon="3.03753">
        <ele>595</ele>
        <time>2024-07-26T13:01:42Z</time>
      </trkpt>
      <trkpt lat="45.88411" lon="3.03751">
        <ele>595.7</ele>
        <time>2024-07-26T13:01:44Z</time>
      </trkpt>
      <trkpt lat="45.8841" lon="3.03751">
        <ele>596.1</ele>
        <time>2024-07-26T13:01:46Z</time>
      </trkpt>
      <trkpt lat="45.88411" lon="3.03752">
        <ele>596.3</ele>
        <time>2024-07-26T13:01:53Z</time>
      </trkpt>
      <trkpt lat="45.88413" lon="3.03752">
        <ele>596.3</ele>
        <time>2024-07-26T13:01:55Z</time>
      </trkpt>
      <trkpt lat="45.88414" lon="3.03752">
        <ele>596.4</ele>
        <time>2024-07-26T13:01:56Z</time>
      </trkpt>
      <trkpt lat="45.88415" lon="3.03753">
        <ele>596.6</ele>
        <time>2024-07-26T13:01:58Z</time>
      </trkpt>
      <trkpt lat="45.88415" lon="3.03752">
        <ele>595.7</ele>
        <time>2024-07-26T13:03:52Z</time>
      </trkpt>
      <trkpt lat="45.88412" lon="3.03753">
        <ele>598.1</ele>
        <time>2024-07-26T13:04:09Z</time>
      </trkpt>
      <trkpt lat="45.88413" lon="3.03753">
        <ele>598</ele>
        <time>2024-07-26T13:04:10Z</time>
      </trkpt>
    </trkseg>
  </trk>
</gpx>